<?xml version="1.0" encoding="UTF-8" standalone="no" ?>
<gpx xmlns="http://www.topografix.com/GPX/1/1" xmlns:xsi="http://www.w3.org/2001/XMLSchema-instance" xsi:schemaLocation="http://www.topografix.com/GPX/1/1 http://www.topografix.com/GPX/1/1/gpx.xsd" version="1.1" creator="VisuGPX - https://www.visugpx.com">
  <metadata>
    <name>Sortie moto lac de Carces</name>
    <desc><![CDATA[Sortie moto Barjols, lac de Carces]]></desc>
  </metadata>
  <trk>
    <name><![CDATA[Sortie moto lac de Carces_1]]></name>
    <trkseg>
      <trkpt lat="43.45534" lon="5.4868">
        <ele>238.6</ele>
        <time>2016-01-23T12:16:15Z</time>
      </trkpt>
      <trkpt lat="43.4555" lon="5.48584">
        <ele>235.2</ele>
        <time>2016-01-23T12:16:21Z</time>
      </trkpt>
      <trkpt lat="43.45554" lon="5.48572">
        <ele>234.6</ele>
        <time>2016-01-23T12:16:22Z</time>
      </trkpt>
      <trkpt lat="43.4556" lon="5.48554">
        <ele>234.1</ele>
        <time>2016-01-23T12:16:24Z</time>
      </trkpt>
      <trkpt lat="43.45564" lon="5.48543">
        <ele>233.7</ele>
        <time>2016-01-23T12:16:25Z</time>
      </trkpt>
      <trkpt lat="43.45568" lon="5.48534">
        <ele>233.3</ele>
        <time>2016-01-23T12:16:26Z</time>
      </trkpt>
      <trkpt lat="43.45571" lon="5.48527">
        <ele>233</ele>
        <time>2016-01-23T12:16:27Z</time>
      </trkpt>
      <trkpt lat="43.45575" lon="5.48522">
        <ele>233</ele>
        <time>2016-01-23T12:16:28Z</time>
      </trkpt>
      <trkpt lat="43.4558" lon="5.4852">
        <ele>233</ele>
        <time>2016-01-23T12:16:29Z</time>
      </trkpt>
      <trkpt lat="43.45585" lon="5.48522">
        <ele>233</ele>
        <time>2016-01-23T12:16:30Z</time>
      </trkpt>
      <trkpt lat="43.45591" lon="5.48526">
        <ele>233</ele>
        <time>2016-01-23T12:16:31Z</time>
      </trkpt>
      <trkpt lat="43.45598" lon="5.48533">
        <ele>233.3</ele>
        <time>2016-01-23T12:16:32Z</time>
      </trkpt>
      <trkpt lat="43.45605" lon="5.4854">
        <ele>233.5</ele>
        <time>2016-01-23T12:16:33Z</time>
      </trkpt>
      <trkpt lat="43.45612" lon="5.48547">
        <ele>233.7</ele>
        <time>2016-01-23T12:16:34Z</time>
      </trkpt>
      <trkpt lat="43.4562" lon="5.48554">
        <ele>234.3</ele>
        <time>2016-01-23T12:16:35Z</time>
      </trkpt>
      <trkpt lat="43.45627" lon="5.48562">
        <ele>234.7</ele>
        <time>2016-01-23T12:16:36Z</time>
      </trkpt>
      <trkpt lat="43.45633" lon="5.48569">
        <ele>234.9</ele>
        <time>2016-01-23T12:16:37Z</time>
      </trkpt>
      <trkpt lat="43.45639" lon="5.48575">
        <ele>235</ele>
        <time>2016-01-23T12:16:38Z</time>
      </trkpt>
      <trkpt lat="43.45645" lon="5.48582">
        <ele>235.2</ele>
        <time>2016-01-23T12:16:39Z</time>
      </trkpt>
      <trkpt lat="43.45652" lon="5.48589">
        <ele>235.7</ele>
        <time>2016-01-23T12:16:40Z</time>
      </trkpt>
      <trkpt lat="43.4566" lon="5.48596">
        <ele>236</ele>
        <time>2016-01-23T12:16:41Z</time>
      </trkpt>
      <trkpt lat="43.45669" lon="5.48602">
        <ele>236</ele>
        <time>2016-01-23T12:16:42Z</time>
      </trkpt>
      <trkpt lat="43.45677" lon="5.48607">
        <ele>236</ele>
        <time>2016-01-23T12:16:43Z</time>
      </trkpt>
      <trkpt lat="43.45686" lon="5.48613">
        <ele>236.1</ele>
        <time>2016-01-23T12:16:44Z</time>
      </trkpt>
      <trkpt lat="43.45694" lon="5.48618">
        <ele>236.2</ele>
        <time>2016-01-23T12:16:45Z</time>
      </trkpt>
      <trkpt lat="43.45703" lon="5.48622">
        <ele>236</ele>
        <time>2016-01-23T12:16:46Z</time>
      </trkpt>
      <trkpt lat="43.45713" lon="5.48627">
        <ele>235.5</ele>
        <time>2016-01-23T12:16:47Z</time>
      </trkpt>
      <trkpt lat="43.45722" lon="5.48632">
        <ele>235</ele>
        <time>2016-01-23T12:16:48Z</time>
      </trkpt>
      <trkpt lat="43.45731" lon="5.48636">
        <ele>234.7</ele>
        <time>2016-01-23T12:16:49Z</time>
      </trkpt>
      <trkpt lat="43.4574" lon="5.48641">
        <ele>234.4</ele>
        <time>2016-01-23T12:16:50Z</time>
      </trkpt>
      <trkpt lat="43.45746" lon="5.48645">
        <ele>234.3</ele>
        <time>2016-01-23T12:16:51Z</time>
      </trkpt>
      <trkpt lat="43.45753" lon="5.48649">
        <ele>234.3</ele>
        <time>2016-01-23T12:16:52Z</time>
      </trkpt>
      <trkpt lat="43.45759" lon="5.48653">
        <ele>234.2</ele>
        <time>2016-01-23T12:16:53Z</time>
      </trkpt>
      <trkpt lat="43.45766" lon="5.48657">
        <ele>234.1</ele>
        <time>2016-01-23T12:16:54Z</time>
      </trkpt>
      <trkpt lat="43.45774" lon="5.48663">
        <ele>234</ele>
        <time>2016-01-23T12:16:55Z</time>
      </trkpt>
      <trkpt lat="43.45783" lon="5.48668">
        <ele>233.8</ele>
        <time>2016-01-23T12:16:56Z</time>
      </trkpt>
      <trkpt lat="43.45792" lon="5.48674">
        <ele>233.6</ele>
        <time>2016-01-23T12:16:57Z</time>
      </trkpt>
      <trkpt lat="43.45801" lon="5.48681">
        <ele>233.6</ele>
        <time>2016-01-23T12:16:58Z</time>
      </trkpt>
      <trkpt lat="43.45811" lon="5.48687">
        <ele>233.4</ele>
        <time>2016-01-23T12:16:59Z</time>
      </trkpt>
      <trkpt lat="43.4582" lon="5.48693">
        <ele>232.9</ele>
        <time>2016-01-23T12:17:00Z</time>
      </trkpt>
      <trkpt lat="43.45829" lon="5.487">
        <ele>232.6</ele>
        <time>2016-01-23T12:17:01Z</time>
      </trkpt>
      <trkpt lat="43.45839" lon="5.48706">
        <ele>232.7</ele>
        <time>2016-01-23T12:17:02Z</time>
      </trkpt>
      <trkpt lat="43.45848" lon="5.48713">
        <ele>232.6</ele>
        <time>2016-01-23T12:17:03Z</time>
      </trkpt>
      <trkpt lat="43.45857" lon="5.4872">
        <ele>232.3</ele>
        <time>2016-01-23T12:17:04Z</time>
      </trkpt>
      <trkpt lat="43.45866" lon="5.4873">
        <ele>232.5</ele>
        <time>2016-01-23T12:17:05Z</time>
      </trkpt>
      <trkpt lat="43.45875" lon="5.48742">
        <ele>232.7</ele>
        <time>2016-01-23T12:17:06Z</time>
      </trkpt>
      <trkpt lat="43.45883" lon="5.48753">
        <ele>232.6</ele>
        <time>2016-01-23T12:17:07Z</time>
      </trkpt>
      <trkpt lat="43.45891" lon="5.48765">
        <ele>233</ele>
        <time>2016-01-23T12:17:08Z</time>
      </trkpt>
      <trkpt lat="43.45899" lon="5.48777">
        <ele>233.2</ele>
        <time>2016-01-23T12:17:09Z</time>
      </trkpt>
      <trkpt lat="43.45906" lon="5.48789">
        <ele>233.1</ele>
        <time>2016-01-23T12:17:10Z</time>
      </trkpt>
      <trkpt lat="43.45914" lon="5.488">
        <ele>233</ele>
        <time>2016-01-23T12:17:11Z</time>
      </trkpt>
      <trkpt lat="43.45921" lon="5.4881">
        <ele>233.1</ele>
        <time>2016-01-23T12:17:12Z</time>
      </trkpt>
      <trkpt lat="43.45928" lon="5.48821">
        <ele>233.5</ele>
        <time>2016-01-23T12:17:13Z</time>
      </trkpt>
      <trkpt lat="43.45934" lon="5.48832">
        <ele>233.7</ele>
        <time>2016-01-23T12:17:14Z</time>
      </trkpt>
      <trkpt lat="43.45939" lon="5.48845">
        <ele>233.8</ele>
        <time>2016-01-23T12:17:15Z</time>
      </trkpt>
      <trkpt lat="43.45942" lon="5.48857">
        <ele>234</ele>
        <time>2016-01-23T12:17:16Z</time>
      </trkpt>
      <trkpt lat="43.45944" lon="5.4887">
        <ele>234.1</ele>
        <time>2016-01-23T12:17:17Z</time>
      </trkpt>
      <trkpt lat="43.45944" lon="5.48882">
        <ele>234</ele>
        <time>2016-01-23T12:17:18Z</time>
      </trkpt>
      <trkpt lat="43.45945" lon="5.48894">
        <ele>234.1</ele>
        <time>2016-01-23T12:17:19Z</time>
      </trkpt>
      <trkpt lat="43.45943" lon="5.48909">
        <ele>234.9</ele>
        <time>2016-01-23T12:17:20Z</time>
      </trkpt>
      <trkpt lat="43.45943" lon="5.48919">
        <ele>235.1</ele>
        <time>2016-01-23T12:17:21Z</time>
      </trkpt>
      <trkpt lat="43.45942" lon="5.48927">
        <ele>235.1</ele>
        <time>2016-01-23T12:17:22Z</time>
      </trkpt>
      <trkpt lat="43.45942" lon="5.48933">
        <ele>235.1</ele>
        <time>2016-01-23T12:17:23Z</time>
      </trkpt>
      <trkpt lat="43.45943" lon="5.48937">
        <ele>235.1</ele>
        <time>2016-01-23T12:17:24Z</time>
      </trkpt>
      <trkpt lat="43.45943" lon="5.48938">
        <ele>235.1</ele>
        <time>2016-01-23T12:17:25Z</time>
      </trkpt>
      <trkpt lat="43.45943" lon="5.48937">
        <ele>235.1</ele>
        <time>2016-01-23T12:17:26Z</time>
      </trkpt>
      <trkpt lat="43.45943" lon="5.48936">
        <ele>235.1</ele>
        <time>2016-01-23T12:17:27Z</time>
      </trkpt>
      <trkpt lat="43.45943" lon="5.48936">
        <ele>235.1</ele>
        <time>2016-01-23T12:17:28Z</time>
      </trkpt>
      <trkpt lat="43.45943" lon="5.48936">
        <ele>235.1</ele>
        <time>2016-01-23T12:17:29Z</time>
      </trkpt>
      <trkpt lat="43.45943" lon="5.48935">
        <ele>235.1</ele>
        <time>2016-01-23T12:17:30Z</time>
      </trkpt>
      <trkpt lat="43.45943" lon="5.48935">
        <ele>235.1</ele>
        <time>2016-01-23T12:17:31Z</time>
      </trkpt>
      <trkpt lat="43.45943" lon="5.48935">
        <ele>235.1</ele>
        <time>2016-01-23T12:17:32Z</time>
      </trkpt>
      <trkpt lat="43.45943" lon="5.48936">
        <ele>235.1</ele>
        <time>2016-01-23T12:17:33Z</time>
      </trkpt>
      <trkpt lat="43.45944" lon="5.48937">
        <ele>235</ele>
        <time>2016-01-23T12:17:34Z</time>
      </trkpt>
      <trkpt lat="43.45947" lon="5.48938">
        <ele>234.7</ele>
        <time>2016-01-23T12:17:35Z</time>
      </trkpt>
      <trkpt lat="43.45954" lon="5.48937">
        <ele>234.1</ele>
        <time>2016-01-23T12:17:36Z</time>
      </trkpt>
      <trkpt lat="43.45961" lon="5.48934">
        <ele>233.4</ele>
        <time>2016-01-23T12:17:37Z</time>
      </trkpt>
      <trkpt lat="43.4597" lon="5.48929">
        <ele>232.7</ele>
        <time>2016-01-23T12:17:38Z</time>
      </trkpt>
      <trkpt lat="43.45981" lon="5.48924">
        <ele>232.1</ele>
        <time>2016-01-23T12:17:39Z</time>
      </trkpt>
      <trkpt lat="43.45993" lon="5.48917">
        <ele>231.5</ele>
        <time>2016-01-23T12:17:40Z</time>
      </trkpt>
      <trkpt lat="43.46006" lon="5.4891">
        <ele>230.2</ele>
        <time>2016-01-23T12:17:41Z</time>
      </trkpt>
      <trkpt lat="43.4602" lon="5.48902">
        <ele>229.9</ele>
        <time>2016-01-23T12:17:42Z</time>
      </trkpt>
      <trkpt lat="43.46036" lon="5.48895">
        <ele>229.4</ele>
        <time>2016-01-23T12:17:43Z</time>
      </trkpt>
      <trkpt lat="43.46052" lon="5.48887">
        <ele>228.3</ele>
        <time>2016-01-23T12:17:44Z</time>
      </trkpt>
      <trkpt lat="43.46068" lon="5.4888">
        <ele>227.2</ele>
        <time>2016-01-23T12:17:45Z</time>
      </trkpt>
      <trkpt lat="43.46086" lon="5.48871">
        <ele>226.5</ele>
        <time>2016-01-23T12:17:46Z</time>
      </trkpt>
      <trkpt lat="43.46104" lon="5.48863">
        <ele>225.4</ele>
        <time>2016-01-23T12:17:47Z</time>
      </trkpt>
      <trkpt lat="43.46124" lon="5.48853">
        <ele>224.1</ele>
        <time>2016-01-23T12:17:48Z</time>
      </trkpt>
      <trkpt lat="43.46143" lon="5.48844">
        <ele>222.9</ele>
        <time>2016-01-23T12:17:49Z</time>
      </trkpt>
      <trkpt lat="43.46163" lon="5.48833">
        <ele>222.1</ele>
        <time>2016-01-23T12:17:50Z</time>
      </trkpt>
      <trkpt lat="43.46182" lon="5.48821">
        <ele>221.1</ele>
        <time>2016-01-23T12:17:51Z</time>
      </trkpt>
      <trkpt lat="43.46202" lon="5.48809">
        <ele>220.4</ele>
        <time>2016-01-23T12:17:52Z</time>
      </trkpt>
      <trkpt lat="43.46221" lon="5.48795">
        <ele>219.1</ele>
        <time>2016-01-23T12:17:53Z</time>
      </trkpt>
      <trkpt lat="43.46239" lon="5.4878">
        <ele>217.8</ele>
        <time>2016-01-23T12:17:54Z</time>
      </trkpt>
      <trkpt lat="43.46256" lon="5.48764">
        <ele>216.2</ele>
        <time>2016-01-23T12:17:55Z</time>
      </trkpt>
      <trkpt lat="43.46273" lon="5.48747">
        <ele>215.2</ele>
        <time>2016-01-23T12:17:56Z</time>
      </trkpt>
      <trkpt lat="43.4629" lon="5.4873">
        <ele>214.6</ele>
        <time>2016-01-23T12:17:57Z</time>
      </trkpt>
      <trkpt lat="43.46305" lon="5.48713">
        <ele>214</ele>
        <time>2016-01-23T12:17:58Z</time>
      </trkpt>
      <trkpt lat="43.4632" lon="5.48696">
        <ele>213.5</ele>
        <time>2016-01-23T12:17:59Z</time>
      </trkpt>
      <trkpt lat="43.46334" lon="5.48681">
        <ele>213.5</ele>
        <time>2016-01-23T12:18:00Z</time>
      </trkpt>
      <trkpt lat="43.46348" lon="5.48666">
        <ele>213.5</ele>
        <time>2016-01-23T12:18:01Z</time>
      </trkpt>
      <trkpt lat="43.4636" lon="5.48651">
        <ele>213</ele>
        <time>2016-01-23T12:18:02Z</time>
      </trkpt>
      <trkpt lat="43.46373" lon="5.48637">
        <ele>212.6</ele>
        <time>2016-01-23T12:18:03Z</time>
      </trkpt>
      <trkpt lat="43.46384" lon="5.48625">
        <ele>212.6</ele>
        <time>2016-01-23T12:18:04Z</time>
      </trkpt>
      <trkpt lat="43.46393" lon="5.48614">
        <ele>212.9</ele>
        <time>2016-01-23T12:18:05Z</time>
      </trkpt>
      <trkpt lat="43.46403" lon="5.48605">
        <ele>213.1</ele>
        <time>2016-01-23T12:18:06Z</time>
      </trkpt>
      <trkpt lat="43.46411" lon="5.48597">
        <ele>213.4</ele>
        <time>2016-01-23T12:18:07Z</time>
      </trkpt>
      <trkpt lat="43.46419" lon="5.48593">
        <ele>213.5</ele>
        <time>2016-01-23T12:18:08Z</time>
      </trkpt>
      <trkpt lat="43.46427" lon="5.48591">
        <ele>213.1</ele>
        <time>2016-01-23T12:18:09Z</time>
      </trkpt>
      <trkpt lat="43.46434" lon="5.48594">
        <ele>212.6</ele>
        <time>2016-01-23T12:18:10Z</time>
      </trkpt>
      <trkpt lat="43.4644" lon="5.48599">
        <ele>212.2</ele>
        <time>2016-01-23T12:18:11Z</time>
      </trkpt>
      <trkpt lat="43.46446" lon="5.48609">
        <ele>212</ele>
        <time>2016-01-23T12:18:12Z</time>
      </trkpt>
      <trkpt lat="43.46452" lon="5.48623">
        <ele>211.9</ele>
        <time>2016-01-23T12:18:13Z</time>
      </trkpt>
      <trkpt lat="43.46459" lon="5.48638">
        <ele>211.5</ele>
        <time>2016-01-23T12:18:14Z</time>
      </trkpt>
      <trkpt lat="43.46465" lon="5.48656">
        <ele>211.7</ele>
        <time>2016-01-23T12:18:15Z</time>
      </trkpt>
      <trkpt lat="43.46472" lon="5.48673">
        <ele>212</ele>
        <time>2016-01-23T12:18:16Z</time>
      </trkpt>
      <trkpt lat="43.4648" lon="5.48691">
        <ele>212</ele>
        <time>2016-01-23T12:18:17Z</time>
      </trkpt>
      <trkpt lat="43.46488" lon="5.4871">
        <ele>212</ele>
        <time>2016-01-23T12:18:18Z</time>
      </trkpt>
      <trkpt lat="43.46496" lon="5.48729">
        <ele>212</ele>
        <time>2016-01-23T12:18:19Z</time>
      </trkpt>
      <trkpt lat="43.46504" lon="5.48749">
        <ele>212.1</ele>
        <time>2016-01-23T12:18:20Z</time>
      </trkpt>
      <trkpt lat="43.46512" lon="5.48769">
        <ele>212.4</ele>
        <time>2016-01-23T12:18:21Z</time>
      </trkpt>
      <trkpt lat="43.4652" lon="5.4879">
        <ele>212.8</ele>
        <time>2016-01-23T12:18:22Z</time>
      </trkpt>
      <trkpt lat="43.46529" lon="5.4881">
        <ele>213</ele>
        <time>2016-01-23T12:18:23Z</time>
      </trkpt>
      <trkpt lat="43.46538" lon="5.4883">
        <ele>213</ele>
        <time>2016-01-23T12:18:24Z</time>
      </trkpt>
      <trkpt lat="43.46546" lon="5.4885">
        <ele>213.4</ele>
        <time>2016-01-23T12:18:25Z</time>
      </trkpt>
      <trkpt lat="43.46554" lon="5.48868">
        <ele>214</ele>
        <time>2016-01-23T12:18:26Z</time>
      </trkpt>
      <trkpt lat="43.4656" lon="5.48886">
        <ele>214</ele>
        <time>2016-01-23T12:18:27Z</time>
      </trkpt>
      <trkpt lat="43.46565" lon="5.48904">
        <ele>214.2</ele>
        <time>2016-01-23T12:18:28Z</time>
      </trkpt>
      <trkpt lat="43.46567" lon="5.4892">
        <ele>214.5</ele>
        <time>2016-01-23T12:18:29Z</time>
      </trkpt>
      <trkpt lat="43.46569" lon="5.48936">
        <ele>214.8</ele>
        <time>2016-01-23T12:18:30Z</time>
      </trkpt>
      <trkpt lat="43.46574" lon="5.48948">
        <ele>215.1</ele>
        <time>2016-01-23T12:18:31Z</time>
      </trkpt>
      <trkpt lat="43.46581" lon="5.48958">
        <ele>215.1</ele>
        <time>2016-01-23T12:18:32Z</time>
      </trkpt>
      <trkpt lat="43.4659" lon="5.48968">
        <ele>215</ele>
        <time>2016-01-23T12:18:33Z</time>
      </trkpt>
      <trkpt lat="43.46599" lon="5.48982">
        <ele>215.6</ele>
        <time>2016-01-23T12:18:34Z</time>
      </trkpt>
      <trkpt lat="43.46608" lon="5.48997">
        <ele>216.1</ele>
        <time>2016-01-23T12:18:35Z</time>
      </trkpt>
      <trkpt lat="43.46616" lon="5.49015">
        <ele>215.8</ele>
        <time>2016-01-23T12:18:36Z</time>
      </trkpt>
      <trkpt lat="43.46625" lon="5.49033">
        <ele>215.8</ele>
        <time>2016-01-23T12:18:37Z</time>
      </trkpt>
      <trkpt lat="43.46633" lon="5.49053">
        <ele>216.3</ele>
        <time>2016-01-23T12:18:38Z</time>
      </trkpt>
      <trkpt lat="43.46642" lon="5.49074">
        <ele>216</ele>
        <time>2016-01-23T12:18:39Z</time>
      </trkpt>
      <trkpt lat="43.46651" lon="5.49096">
        <ele>217</ele>
        <time>2016-01-23T12:18:40Z</time>
      </trkpt>
      <trkpt lat="43.46661" lon="5.49119">
        <ele>217.2</ele>
        <time>2016-01-23T12:18:41Z</time>
      </trkpt>
      <trkpt lat="43.46671" lon="5.49142">
        <ele>217</ele>
        <time>2016-01-23T12:18:42Z</time>
      </trkpt>
      <trkpt lat="43.46681" lon="5.49165">
        <ele>217.4</ele>
        <time>2016-01-23T12:18:43Z</time>
      </trkpt>
      <trkpt lat="43.46691" lon="5.49189">
        <ele>217.4</ele>
        <time>2016-01-23T12:18:44Z</time>
      </trkpt>
      <trkpt lat="43.46701" lon="5.49213">
        <ele>218.1</ele>
        <time>2016-01-23T12:18:45Z</time>
      </trkpt>
      <trkpt lat="43.46711" lon="5.49237">
        <ele>218.4</ele>
        <time>2016-01-23T12:18:46Z</time>
      </trkpt>
      <trkpt lat="43.46721" lon="5.49261">
        <ele>218.5</ele>
        <time>2016-01-23T12:18:47Z</time>
      </trkpt>
      <trkpt lat="43.4673" lon="5.49286">
        <ele>218.7</ele>
        <time>2016-01-23T12:18:48Z</time>
      </trkpt>
      <trkpt lat="43.4674" lon="5.4931">
        <ele>218.9</ele>
        <time>2016-01-23T12:18:49Z</time>
      </trkpt>
      <trkpt lat="43.46748" lon="5.49334">
        <ele>219.2</ele>
        <time>2016-01-23T12:18:50Z</time>
      </trkpt>
      <trkpt lat="43.46757" lon="5.4936">
        <ele>219.5</ele>
        <time>2016-01-23T12:18:51Z</time>
      </trkpt>
      <trkpt lat="43.46765" lon="5.49386">
        <ele>219.4</ele>
        <time>2016-01-23T12:18:52Z</time>
      </trkpt>
      <trkpt lat="43.46773" lon="5.49412">
        <ele>219.7</ele>
        <time>2016-01-23T12:18:53Z</time>
      </trkpt>
      <trkpt lat="43.4678" lon="5.49438">
        <ele>219.9</ele>
        <time>2016-01-23T12:18:54Z</time>
      </trkpt>
      <trkpt lat="43.46788" lon="5.49464">
        <ele>220.3</ele>
        <time>2016-01-23T12:18:55Z</time>
      </trkpt>
      <trkpt lat="43.46795" lon="5.49489">
        <ele>221</ele>
        <time>2016-01-23T12:18:56Z</time>
      </trkpt>
      <trkpt lat="43.46803" lon="5.49514">
        <ele>221.2</ele>
        <time>2016-01-23T12:18:57Z</time>
      </trkpt>
      <trkpt lat="43.46809" lon="5.49539">
        <ele>221.4</ele>
        <time>2016-01-23T12:18:58Z</time>
      </trkpt>
      <trkpt lat="43.46816" lon="5.49564">
        <ele>222.1</ele>
        <time>2016-01-23T12:18:59Z</time>
      </trkpt>
      <trkpt lat="43.46823" lon="5.49588">
        <ele>222.7</ele>
        <time>2016-01-23T12:19:00Z</time>
      </trkpt>
      <trkpt lat="43.46829" lon="5.49611">
        <ele>222.3</ele>
        <time>2016-01-23T12:19:01Z</time>
      </trkpt>
      <trkpt lat="43.46836" lon="5.49633">
        <ele>221.9</ele>
        <time>2016-01-23T12:19:02Z</time>
      </trkpt>
      <trkpt lat="43.46841" lon="5.49654">
        <ele>222.3</ele>
        <time>2016-01-23T12:19:03Z</time>
      </trkpt>
      <trkpt lat="43.46846" lon="5.49673">
        <ele>222.5</ele>
        <time>2016-01-23T12:19:04Z</time>
      </trkpt>
      <trkpt lat="43.46851" lon="5.49691">
        <ele>222.4</ele>
        <time>2016-01-23T12:19:05Z</time>
      </trkpt>
      <trkpt lat="43.46854" lon="5.49707">
        <ele>222.6</ele>
        <time>2016-01-23T12:19:06Z</time>
      </trkpt>
      <trkpt lat="43.46856" lon="5.49722">
        <ele>223</ele>
        <time>2016-01-23T12:19:07Z</time>
      </trkpt>
      <trkpt lat="43.46857" lon="5.49735">
        <ele>222.5</ele>
        <time>2016-01-23T12:19:08Z</time>
      </trkpt>
      <trkpt lat="43.4686" lon="5.49748">
        <ele>222.1</ele>
        <time>2016-01-23T12:19:09Z</time>
      </trkpt>
      <trkpt lat="43.46864" lon="5.49761">
        <ele>221.8</ele>
        <time>2016-01-23T12:19:10Z</time>
      </trkpt>
      <trkpt lat="43.46871" lon="5.49774">
        <ele>221.3</ele>
        <time>2016-01-23T12:19:11Z</time>
      </trkpt>
      <trkpt lat="43.46878" lon="5.49788">
        <ele>221</ele>
        <time>2016-01-23T12:19:12Z</time>
      </trkpt>
      <trkpt lat="43.46885" lon="5.49806">
        <ele>221.1</ele>
        <time>2016-01-23T12:19:13Z</time>
      </trkpt>
      <trkpt lat="43.46892" lon="5.49825">
        <ele>220.9</ele>
        <time>2016-01-23T12:19:14Z</time>
      </trkpt>
      <trkpt lat="43.46898" lon="5.49844">
        <ele>221.1</ele>
        <time>2016-01-23T12:19:15Z</time>
      </trkpt>
      <trkpt lat="43.46905" lon="5.49865">
        <ele>221.4</ele>
        <time>2016-01-23T12:19:16Z</time>
      </trkpt>
      <trkpt lat="43.46911" lon="5.49887">
        <ele>221.2</ele>
        <time>2016-01-23T12:19:17Z</time>
      </trkpt>
      <trkpt lat="43.46917" lon="5.4991">
        <ele>221</ele>
        <time>2016-01-23T12:19:18Z</time>
      </trkpt>
      <trkpt lat="43.46925" lon="5.49934">
        <ele>221.4</ele>
        <time>2016-01-23T12:19:19Z</time>
      </trkpt>
      <trkpt lat="43.46932" lon="5.49959">
        <ele>221.2</ele>
        <time>2016-01-23T12:19:20Z</time>
      </trkpt>
      <trkpt lat="43.4694" lon="5.49984">
        <ele>220.7</ele>
        <time>2016-01-23T12:19:21Z</time>
      </trkpt>
      <trkpt lat="43.46948" lon="5.50011">
        <ele>220.7</ele>
        <time>2016-01-23T12:19:22Z</time>
      </trkpt>
      <trkpt lat="43.46956" lon="5.50038">
        <ele>220.1</ele>
        <time>2016-01-23T12:19:23Z</time>
      </trkpt>
      <trkpt lat="43.46965" lon="5.50066">
        <ele>219.9</ele>
        <time>2016-01-23T12:19:24Z</time>
      </trkpt>
      <trkpt lat="43.46973" lon="5.50094">
        <ele>220.3</ele>
        <time>2016-01-23T12:19:25Z</time>
      </trkpt>
      <trkpt lat="43.46981" lon="5.50123">
        <ele>220.8</ele>
        <time>2016-01-23T12:19:26Z</time>
      </trkpt>
      <trkpt lat="43.46989" lon="5.5015">
        <ele>221</ele>
        <time>2016-01-23T12:19:27Z</time>
      </trkpt>
      <trkpt lat="43.46997" lon="5.50178">
        <ele>221.5</ele>
        <time>2016-01-23T12:19:28Z</time>
      </trkpt>
      <trkpt lat="43.47005" lon="5.50205">
        <ele>221.7</ele>
        <time>2016-01-23T12:19:29Z</time>
      </trkpt>
      <trkpt lat="43.47014" lon="5.50232">
        <ele>221.7</ele>
        <time>2016-01-23T12:19:30Z</time>
      </trkpt>
      <trkpt lat="43.47022" lon="5.5026">
        <ele>221.7</ele>
        <time>2016-01-23T12:19:31Z</time>
      </trkpt>
      <trkpt lat="43.4703" lon="5.50288">
        <ele>222.3</ele>
        <time>2016-01-23T12:19:32Z</time>
      </trkpt>
      <trkpt lat="43.47038" lon="5.50316">
        <ele>223</ele>
        <time>2016-01-23T12:19:33Z</time>
      </trkpt>
      <trkpt lat="43.47046" lon="5.50344">
        <ele>223.7</ele>
        <time>2016-01-23T12:19:34Z</time>
      </trkpt>
      <trkpt lat="43.47054" lon="5.50371">
        <ele>224</ele>
        <time>2016-01-23T12:19:35Z</time>
      </trkpt>
      <trkpt lat="43.47062" lon="5.50399">
        <ele>224.1</ele>
        <time>2016-01-23T12:19:36Z</time>
      </trkpt>
      <trkpt lat="43.4707" lon="5.50426">
        <ele>224.5</ele>
        <time>2016-01-23T12:19:37Z</time>
      </trkpt>
      <trkpt lat="43.47078" lon="5.50453">
        <ele>224.2</ele>
        <time>2016-01-23T12:19:38Z</time>
      </trkpt>
      <trkpt lat="43.47086" lon="5.5048">
        <ele>224.2</ele>
        <time>2016-01-23T12:19:39Z</time>
      </trkpt>
      <trkpt lat="43.47094" lon="5.50507">
        <ele>224.5</ele>
        <time>2016-01-23T12:19:40Z</time>
      </trkpt>
      <trkpt lat="43.47102" lon="5.50533">
        <ele>224</ele>
        <time>2016-01-23T12:19:41Z</time>
      </trkpt>
      <trkpt lat="43.4711" lon="5.5056">
        <ele>225</ele>
        <time>2016-01-23T12:19:42Z</time>
      </trkpt>
      <trkpt lat="43.47117" lon="5.50587">
        <ele>224.8</ele>
        <time>2016-01-23T12:19:43Z</time>
      </trkpt>
      <trkpt lat="43.47124" lon="5.50615">
        <ele>224.5</ele>
        <time>2016-01-23T12:19:44Z</time>
      </trkpt>
      <trkpt lat="43.4713" lon="5.50643">
        <ele>224.4</ele>
        <time>2016-01-23T12:19:45Z</time>
      </trkpt>
      <trkpt lat="43.47136" lon="5.50673">
        <ele>225</ele>
        <time>2016-01-23T12:19:46Z</time>
      </trkpt>
      <trkpt lat="43.47142" lon="5.50702">
        <ele>224.8</ele>
        <time>2016-01-23T12:19:47Z</time>
      </trkpt>
      <trkpt lat="43.47147" lon="5.50731">
        <ele>224.2</ele>
        <time>2016-01-23T12:19:48Z</time>
      </trkpt>
      <trkpt lat="43.47152" lon="5.50759">
        <ele>224</ele>
        <time>2016-01-23T12:19:49Z</time>
      </trkpt>
      <trkpt lat="43.47157" lon="5.50788">
        <ele>223.4</ele>
        <time>2016-01-23T12:19:50Z</time>
      </trkpt>
      <trkpt lat="43.47162" lon="5.50817">
        <ele>221.7</ele>
        <time>2016-01-23T12:19:51Z</time>
      </trkpt>
      <trkpt lat="43.47167" lon="5.50846">
        <ele>219.1</ele>
        <time>2016-01-23T12:19:52Z</time>
      </trkpt>
      <trkpt lat="43.47173" lon="5.50875">
        <ele>217.5</ele>
        <time>2016-01-23T12:19:53Z</time>
      </trkpt>
      <trkpt lat="43.47178" lon="5.50904">
        <ele>216.2</ele>
        <time>2016-01-23T12:19:54Z</time>
      </trkpt>
      <trkpt lat="43.47183" lon="5.50933">
        <ele>215.2</ele>
        <time>2016-01-23T12:19:55Z</time>
      </trkpt>
      <trkpt lat="43.47188" lon="5.50962">
        <ele>214.4</ele>
        <time>2016-01-23T12:19:56Z</time>
      </trkpt>
      <trkpt lat="43.47193" lon="5.50992">
        <ele>214</ele>
        <time>2016-01-23T12:19:57Z</time>
      </trkpt>
      <trkpt lat="43.47198" lon="5.51021">
        <ele>213.9</ele>
        <time>2016-01-23T12:19:58Z</time>
      </trkpt>
      <trkpt lat="43.47204" lon="5.5105">
        <ele>213.1</ele>
        <time>2016-01-23T12:19:59Z</time>
      </trkpt>
      <trkpt lat="43.47209" lon="5.51078">
        <ele>212.6</ele>
        <time>2016-01-23T12:20:00Z</time>
      </trkpt>
      <trkpt lat="43.47214" lon="5.51106">
        <ele>211.9</ele>
        <time>2016-01-23T12:20:01Z</time>
      </trkpt>
      <trkpt lat="43.4722" lon="5.51133">
        <ele>211.9</ele>
        <time>2016-01-23T12:20:02Z</time>
      </trkpt>
      <trkpt lat="43.47225" lon="5.51161">
        <ele>212.2</ele>
        <time>2016-01-23T12:20:03Z</time>
      </trkpt>
      <trkpt lat="43.4723" lon="5.51188">
        <ele>212.6</ele>
        <time>2016-01-23T12:20:04Z</time>
      </trkpt>
      <trkpt lat="43.47235" lon="5.51216">
        <ele>212.6</ele>
        <time>2016-01-23T12:20:05Z</time>
      </trkpt>
      <trkpt lat="43.47239" lon="5.51243">
        <ele>212.1</ele>
        <time>2016-01-23T12:20:06Z</time>
      </trkpt>
      <trkpt lat="43.47243" lon="5.5127">
        <ele>211.7</ele>
        <time>2016-01-23T12:20:07Z</time>
      </trkpt>
      <trkpt lat="43.47248" lon="5.51296">
        <ele>211.3</ele>
        <time>2016-01-23T12:20:08Z</time>
      </trkpt>
      <trkpt lat="43.47253" lon="5.51321">
        <ele>211.2</ele>
        <time>2016-01-23T12:20:09Z</time>
      </trkpt>
      <trkpt lat="43.47259" lon="5.51346">
        <ele>210.7</ele>
        <time>2016-01-23T12:20:10Z</time>
      </trkpt>
      <trkpt lat="43.47265" lon="5.5137">
        <ele>209.7</ele>
        <time>2016-01-23T12:20:11Z</time>
      </trkpt>
      <trkpt lat="43.47272" lon="5.51393">
        <ele>208.9</ele>
        <time>2016-01-23T12:20:12Z</time>
      </trkpt>
      <trkpt lat="43.47278" lon="5.51415">
        <ele>208.1</ele>
        <time>2016-01-23T12:20:13Z</time>
      </trkpt>
      <trkpt lat="43.47285" lon="5.51437">
        <ele>208.6</ele>
        <time>2016-01-23T12:20:14Z</time>
      </trkpt>
      <trkpt lat="43.47291" lon="5.51457">
        <ele>208.1</ele>
        <time>2016-01-23T12:20:15Z</time>
      </trkpt>
      <trkpt lat="43.47297" lon="5.51475">
        <ele>207.2</ele>
        <time>2016-01-23T12:20:16Z</time>
      </trkpt>
      <trkpt lat="43.47302" lon="5.51492">
        <ele>206.4</ele>
        <time>2016-01-23T12:20:17Z</time>
      </trkpt>
      <trkpt lat="43.47308" lon="5.51507">
        <ele>205.7</ele>
        <time>2016-01-23T12:20:18Z</time>
      </trkpt>
      <trkpt lat="43.47312" lon="5.5152">
        <ele>205.3</ele>
        <time>2016-01-23T12:20:19Z</time>
      </trkpt>
      <trkpt lat="43.47317" lon="5.51532">
        <ele>204.9</ele>
        <time>2016-01-23T12:20:20Z</time>
      </trkpt>
      <trkpt lat="43.47323" lon="5.51541">
        <ele>204.8</ele>
        <time>2016-01-23T12:20:21Z</time>
      </trkpt>
      <trkpt lat="43.47331" lon="5.51544">
        <ele>205</ele>
        <time>2016-01-23T12:20:22Z</time>
      </trkpt>
      <trkpt lat="43.47339" lon="5.51547">
        <ele>204.9</ele>
        <time>2016-01-23T12:20:23Z</time>
      </trkpt>
      <trkpt lat="43.47348" lon="5.51546">
        <ele>204.7</ele>
        <time>2016-01-23T12:20:24Z</time>
      </trkpt>
      <trkpt lat="43.47357" lon="5.51548">
        <ele>204.4</ele>
        <time>2016-01-23T12:20:25Z</time>
      </trkpt>
      <trkpt lat="43.47364" lon="5.51557">
        <ele>204</ele>
        <time>2016-01-23T12:20:26Z</time>
      </trkpt>
      <trkpt lat="43.4737" lon="5.51569">
        <ele>204</ele>
        <time>2016-01-23T12:20:27Z</time>
      </trkpt>
      <trkpt lat="43.47376" lon="5.51585">
        <ele>204</ele>
        <time>2016-01-23T12:20:28Z</time>
      </trkpt>
      <trkpt lat="43.47382" lon="5.51604">
        <ele>203.5</ele>
        <time>2016-01-23T12:20:29Z</time>
      </trkpt>
      <trkpt lat="43.47387" lon="5.51624">
        <ele>203.1</ele>
        <time>2016-01-23T12:20:30Z</time>
      </trkpt>
      <trkpt lat="43.47393" lon="5.51645">
        <ele>202.8</ele>
        <time>2016-01-23T12:20:31Z</time>
      </trkpt>
      <trkpt lat="43.474" lon="5.51668">
        <ele>202.5</ele>
        <time>2016-01-23T12:20:32Z</time>
      </trkpt>
      <trkpt lat="43.47408" lon="5.51692">
        <ele>203.2</ele>
        <time>2016-01-23T12:20:33Z</time>
      </trkpt>
      <trkpt lat="43.47417" lon="5.51717">
        <ele>202</ele>
        <time>2016-01-23T12:20:34Z</time>
      </trkpt>
      <trkpt lat="43.47427" lon="5.51745">
        <ele>202</ele>
        <time>2016-01-23T12:20:35Z</time>
      </trkpt>
      <trkpt lat="43.47439" lon="5.51774">
        <ele>201.3</ele>
        <time>2016-01-23T12:20:36Z</time>
      </trkpt>
      <trkpt lat="43.47451" lon="5.51804">
        <ele>201</ele>
        <time>2016-01-23T12:20:37Z</time>
      </trkpt>
      <trkpt lat="43.47464" lon="5.51835">
        <ele>201</ele>
        <time>2016-01-23T12:20:38Z</time>
      </trkpt>
      <trkpt lat="43.47476" lon="5.51865">
        <ele>199.9</ele>
        <time>2016-01-23T12:20:39Z</time>
      </trkpt>
      <trkpt lat="43.47488" lon="5.51895">
        <ele>200</ele>
        <time>2016-01-23T12:20:40Z</time>
      </trkpt>
      <trkpt lat="43.47498" lon="5.51924">
        <ele>199.8</ele>
        <time>2016-01-23T12:20:41Z</time>
      </trkpt>
      <trkpt lat="43.47508" lon="5.51954">
        <ele>198.8</ele>
        <time>2016-01-23T12:20:42Z</time>
      </trkpt>
      <trkpt lat="43.47517" lon="5.51984">
        <ele>199</ele>
        <time>2016-01-23T12:20:43Z</time>
      </trkpt>
      <trkpt lat="43.47524" lon="5.52015">
        <ele>199</ele>
        <time>2016-01-23T12:20:44Z</time>
      </trkpt>
      <trkpt lat="43.4753" lon="5.52046">
        <ele>198.2</ele>
        <time>2016-01-23T12:20:45Z</time>
      </trkpt>
      <trkpt lat="43.47535" lon="5.52078">
        <ele>197.5</ele>
        <time>2016-01-23T12:20:46Z</time>
      </trkpt>
      <trkpt lat="43.47538" lon="5.52111">
        <ele>196.6</ele>
        <time>2016-01-23T12:20:47Z</time>
      </trkpt>
      <trkpt lat="43.47541" lon="5.52146">
        <ele>196.1</ele>
        <time>2016-01-23T12:20:48Z</time>
      </trkpt>
      <trkpt lat="43.47542" lon="5.52183">
        <ele>195.7</ele>
        <time>2016-01-23T12:20:49Z</time>
      </trkpt>
      <trkpt lat="43.47541" lon="5.52221">
        <ele>195.1</ele>
        <time>2016-01-23T12:20:50Z</time>
      </trkpt>
      <trkpt lat="43.4754" lon="5.52259">
        <ele>195.1</ele>
        <time>2016-01-23T12:20:51Z</time>
      </trkpt>
      <trkpt lat="43.47538" lon="5.52297">
        <ele>194.7</ele>
        <time>2016-01-23T12:20:52Z</time>
      </trkpt>
      <trkpt lat="43.47537" lon="5.52335">
        <ele>194.3</ele>
        <time>2016-01-23T12:20:53Z</time>
      </trkpt>
      <trkpt lat="43.47536" lon="5.52372">
        <ele>194.1</ele>
        <time>2016-01-23T12:20:54Z</time>
      </trkpt>
      <trkpt lat="43.47536" lon="5.52408">
        <ele>193.7</ele>
        <time>2016-01-23T12:20:55Z</time>
      </trkpt>
      <trkpt lat="43.47535" lon="5.52444">
        <ele>193.5</ele>
        <time>2016-01-23T12:20:56Z</time>
      </trkpt>
      <trkpt lat="43.47535" lon="5.5248">
        <ele>193.5</ele>
        <time>2016-01-23T12:20:57Z</time>
      </trkpt>
      <trkpt lat="43.47535" lon="5.52516">
        <ele>193.7</ele>
        <time>2016-01-23T12:20:58Z</time>
      </trkpt>
      <trkpt lat="43.47535" lon="5.52551">
        <ele>193.8</ele>
        <time>2016-01-23T12:20:59Z</time>
      </trkpt>
      <trkpt lat="43.47535" lon="5.52587">
        <ele>194.5</ele>
        <time>2016-01-23T12:21:00Z</time>
      </trkpt>
      <trkpt lat="43.47534" lon="5.52623">
        <ele>194.5</ele>
        <time>2016-01-23T12:21:01Z</time>
      </trkpt>
      <trkpt lat="43.47535" lon="5.52659">
        <ele>194.5</ele>
        <time>2016-01-23T12:21:02Z</time>
      </trkpt>
      <trkpt lat="43.47535" lon="5.52695">
        <ele>195.5</ele>
        <time>2016-01-23T12:21:03Z</time>
      </trkpt>
      <trkpt lat="43.47537" lon="5.5273">
        <ele>195</ele>
        <time>2016-01-23T12:21:04Z</time>
      </trkpt>
      <trkpt lat="43.4754" lon="5.52766">
        <ele>195.3</ele>
        <time>2016-01-23T12:21:05Z</time>
      </trkpt>
      <trkpt lat="43.47543" lon="5.52801">
        <ele>196.2</ele>
        <time>2016-01-23T12:21:06Z</time>
      </trkpt>
      <trkpt lat="43.47547" lon="5.52836">
        <ele>197.1</ele>
        <time>2016-01-23T12:21:07Z</time>
      </trkpt>
      <trkpt lat="43.47552" lon="5.52872">
        <ele>198.3</ele>
        <time>2016-01-23T12:21:08Z</time>
      </trkpt>
      <trkpt lat="43.47558" lon="5.52907">
        <ele>198.5</ele>
        <time>2016-01-23T12:21:09Z</time>
      </trkpt>
      <trkpt lat="43.47565" lon="5.52942">
        <ele>198.6</ele>
        <time>2016-01-23T12:21:10Z</time>
      </trkpt>
      <trkpt lat="43.47571" lon="5.52977">
        <ele>200.4</ele>
        <time>2016-01-23T12:21:11Z</time>
      </trkpt>
      <trkpt lat="43.47578" lon="5.53012">
        <ele>200.4</ele>
        <time>2016-01-23T12:21:12Z</time>
      </trkpt>
      <trkpt lat="43.47585" lon="5.53047">
        <ele>199.9</ele>
        <time>2016-01-23T12:21:13Z</time>
      </trkpt>
      <trkpt lat="43.47592" lon="5.53083">
        <ele>200.3</ele>
        <time>2016-01-23T12:21:14Z</time>
      </trkpt>
      <trkpt lat="43.47599" lon="5.53118">
        <ele>201.1</ele>
        <time>2016-01-23T12:21:15Z</time>
      </trkpt>
      <trkpt lat="43.47606" lon="5.53153">
        <ele>200.7</ele>
        <time>2016-01-23T12:21:16Z</time>
      </trkpt>
      <trkpt lat="43.47614" lon="5.53189">
        <ele>199.7</ele>
        <time>2016-01-23T12:21:17Z</time>
      </trkpt>
      <trkpt lat="43.47621" lon="5.53225">
        <ele>198.3</ele>
        <time>2016-01-23T12:21:18Z</time>
      </trkpt>
      <trkpt lat="43.47628" lon="5.5326">
        <ele>197.7</ele>
        <time>2016-01-23T12:21:19Z</time>
      </trkpt>
      <trkpt lat="43.47635" lon="5.53296">
        <ele>197.7</ele>
        <time>2016-01-23T12:21:20Z</time>
      </trkpt>
      <trkpt lat="43.47642" lon="5.53331">
        <ele>197.8</ele>
        <time>2016-01-23T12:21:21Z</time>
      </trkpt>
      <trkpt lat="43.47649" lon="5.53367">
        <ele>196.3</ele>
        <time>2016-01-23T12:21:22Z</time>
      </trkpt>
      <trkpt lat="43.47656" lon="5.53402">
        <ele>198.3</ele>
        <time>2016-01-23T12:21:23Z</time>
      </trkpt>
      <trkpt lat="43.47662" lon="5.53438">
        <ele>198.8</ele>
        <time>2016-01-23T12:21:24Z</time>
      </trkpt>
      <trkpt lat="43.47668" lon="5.53474">
        <ele>196.9</ele>
        <time>2016-01-23T12:21:25Z</time>
      </trkpt>
      <trkpt lat="43.47674" lon="5.5351">
        <ele>196.6</ele>
        <time>2016-01-23T12:21:26Z</time>
      </trkpt>
      <trkpt lat="43.4768" lon="5.53547">
        <ele>196.2</ele>
        <time>2016-01-23T12:21:27Z</time>
      </trkpt>
      <trkpt lat="43.47687" lon="5.53583">
        <ele>195.6</ele>
        <time>2016-01-23T12:21:28Z</time>
      </trkpt>
      <trkpt lat="43.47693" lon="5.53619">
        <ele>196.9</ele>
        <time>2016-01-23T12:21:29Z</time>
      </trkpt>
      <trkpt lat="43.47699" lon="5.53656">
        <ele>197</ele>
        <time>2016-01-23T12:21:30Z</time>
      </trkpt>
      <trkpt lat="43.47705" lon="5.53692">
        <ele>195.9</ele>
        <time>2016-01-23T12:21:31Z</time>
      </trkpt>
      <trkpt lat="43.47711" lon="5.53728">
        <ele>195.3</ele>
        <time>2016-01-23T12:21:32Z</time>
      </trkpt>
      <trkpt lat="43.47717" lon="5.53763">
        <ele>195.9</ele>
        <time>2016-01-23T12:21:33Z</time>
      </trkpt>
      <trkpt lat="43.47723" lon="5.53798">
        <ele>198.3</ele>
        <time>2016-01-23T12:21:34Z</time>
      </trkpt>
      <trkpt lat="43.47729" lon="5.53833">
        <ele>197.5</ele>
        <time>2016-01-23T12:21:35Z</time>
      </trkpt>
      <trkpt lat="43.47736" lon="5.53866">
        <ele>195.2</ele>
        <time>2016-01-23T12:21:36Z</time>
      </trkpt>
      <trkpt lat="43.47743" lon="5.53899">
        <ele>194.3</ele>
        <time>2016-01-23T12:21:37Z</time>
      </trkpt>
      <trkpt lat="43.47751" lon="5.53931">
        <ele>197.3</ele>
        <time>2016-01-23T12:21:38Z</time>
      </trkpt>
      <trkpt lat="43.47761" lon="5.53963">
        <ele>194.3</ele>
        <time>2016-01-23T12:21:39Z</time>
      </trkpt>
      <trkpt lat="43.47771" lon="5.53994">
        <ele>194</ele>
        <time>2016-01-23T12:21:40Z</time>
      </trkpt>
      <trkpt lat="43.47781" lon="5.54026">
        <ele>194.6</ele>
        <time>2016-01-23T12:21:41Z</time>
      </trkpt>
      <trkpt lat="43.47791" lon="5.54056">
        <ele>192.5</ele>
        <time>2016-01-23T12:21:42Z</time>
      </trkpt>
      <trkpt lat="43.47802" lon="5.54087">
        <ele>192</ele>
        <time>2016-01-23T12:21:43Z</time>
      </trkpt>
      <trkpt lat="43.47813" lon="5.54117">
        <ele>191.3</ele>
        <time>2016-01-23T12:21:44Z</time>
      </trkpt>
      <trkpt lat="43.47824" lon="5.54148">
        <ele>189.9</ele>
        <time>2016-01-23T12:21:45Z</time>
      </trkpt>
      <trkpt lat="43.47836" lon="5.54181">
        <ele>189.9</ele>
        <time>2016-01-23T12:21:46Z</time>
      </trkpt>
      <trkpt lat="43.47847" lon="5.54214">
        <ele>189</ele>
        <time>2016-01-23T12:21:47Z</time>
      </trkpt>
      <trkpt lat="43.47859" lon="5.54249">
        <ele>188.1</ele>
        <time>2016-01-23T12:21:48Z</time>
      </trkpt>
      <trkpt lat="43.4787" lon="5.54286">
        <ele>187.9</ele>
        <time>2016-01-23T12:21:49Z</time>
      </trkpt>
      <trkpt lat="43.47881" lon="5.54323">
        <ele>187.6</ele>
        <time>2016-01-23T12:21:50Z</time>
      </trkpt>
      <trkpt lat="43.47891" lon="5.54362">
        <ele>187.9</ele>
        <time>2016-01-23T12:21:51Z</time>
      </trkpt>
      <trkpt lat="43.47899" lon="5.544">
        <ele>187</ele>
        <time>2016-01-23T12:21:52Z</time>
      </trkpt>
      <trkpt lat="43.47908" lon="5.54438">
        <ele>186.8</ele>
        <time>2016-01-23T12:21:53Z</time>
      </trkpt>
      <trkpt lat="43.47915" lon="5.54476">
        <ele>187</ele>
        <time>2016-01-23T12:21:54Z</time>
      </trkpt>
      <trkpt lat="43.47922" lon="5.54513">
        <ele>186.8</ele>
        <time>2016-01-23T12:21:55Z</time>
      </trkpt>
      <trkpt lat="43.47927" lon="5.5455">
        <ele>186.6</ele>
        <time>2016-01-23T12:21:56Z</time>
      </trkpt>
      <trkpt lat="43.47932" lon="5.54588">
        <ele>186.4</ele>
        <time>2016-01-23T12:21:57Z</time>
      </trkpt>
      <trkpt lat="43.47936" lon="5.54625">
        <ele>186.3</ele>
        <time>2016-01-23T12:21:58Z</time>
      </trkpt>
      <trkpt lat="43.47941" lon="5.54662">
        <ele>186.1</ele>
        <time>2016-01-23T12:21:59Z</time>
      </trkpt>
      <trkpt lat="43.47946" lon="5.547">
        <ele>186</ele>
        <time>2016-01-23T12:22:00Z</time>
      </trkpt>
      <trkpt lat="43.4795" lon="5.54737">
        <ele>185.8</ele>
        <time>2016-01-23T12:22:01Z</time>
      </trkpt>
      <trkpt lat="43.47955" lon="5.54774">
        <ele>185.6</ele>
        <time>2016-01-23T12:22:02Z</time>
      </trkpt>
      <trkpt lat="43.4796" lon="5.54811">
        <ele>185.5</ele>
        <time>2016-01-23T12:22:03Z</time>
      </trkpt>
      <trkpt lat="43.47964" lon="5.54848">
        <ele>185.1</ele>
        <time>2016-01-23T12:22:04Z</time>
      </trkpt>
      <trkpt lat="43.47969" lon="5.54884">
        <ele>185</ele>
        <time>2016-01-23T12:22:05Z</time>
      </trkpt>
      <trkpt lat="43.47972" lon="5.54922">
        <ele>185.2</ele>
        <time>2016-01-23T12:22:06Z</time>
      </trkpt>
      <trkpt lat="43.47975" lon="5.54959">
        <ele>185.8</ele>
        <time>2016-01-23T12:22:07Z</time>
      </trkpt>
      <trkpt lat="43.47977" lon="5.54995">
        <ele>185.7</ele>
        <time>2016-01-23T12:22:08Z</time>
      </trkpt>
      <trkpt lat="43.47979" lon="5.55032">
        <ele>185.8</ele>
        <time>2016-01-23T12:22:09Z</time>
      </trkpt>
      <trkpt lat="43.47981" lon="5.55068">
        <ele>185.7</ele>
        <time>2016-01-23T12:22:10Z</time>
      </trkpt>
      <trkpt lat="43.47982" lon="5.55104">
        <ele>185.6</ele>
        <time>2016-01-23T12:22:11Z</time>
      </trkpt>
      <trkpt lat="43.47984" lon="5.55141">
        <ele>185.6</ele>
        <time>2016-01-23T12:22:12Z</time>
      </trkpt>
      <trkpt lat="43.47985" lon="5.55177">
        <ele>185.5</ele>
        <time>2016-01-23T12:22:13Z</time>
      </trkpt>
      <trkpt lat="43.47986" lon="5.55213">
        <ele>186.2</ele>
        <time>2016-01-23T12:22:14Z</time>
      </trkpt>
      <trkpt lat="43.47986" lon="5.55249">
        <ele>186.5</ele>
        <time>2016-01-23T12:22:15Z</time>
      </trkpt>
      <trkpt lat="43.47984" lon="5.55285">
        <ele>186.6</ele>
        <time>2016-01-23T12:22:16Z</time>
      </trkpt>
      <trkpt lat="43.47982" lon="5.5532">
        <ele>186.8</ele>
        <time>2016-01-23T12:22:17Z</time>
      </trkpt>
      <trkpt lat="43.4798" lon="5.55356">
        <ele>187</ele>
        <time>2016-01-23T12:22:18Z</time>
      </trkpt>
      <trkpt lat="43.47976" lon="5.55391">
        <ele>187</ele>
        <time>2016-01-23T12:22:19Z</time>
      </trkpt>
      <trkpt lat="43.47973" lon="5.55427">
        <ele>187</ele>
        <time>2016-01-23T12:22:20Z</time>
      </trkpt>
      <trkpt lat="43.47969" lon="5.55463">
        <ele>187</ele>
        <time>2016-01-23T12:22:21Z</time>
      </trkpt>
      <trkpt lat="43.47966" lon="5.55499">
        <ele>187.8</ele>
        <time>2016-01-23T12:22:22Z</time>
      </trkpt>
      <trkpt lat="43.47963" lon="5.55536">
        <ele>187.7</ele>
        <time>2016-01-23T12:22:23Z</time>
      </trkpt>
      <trkpt lat="43.4796" lon="5.55574">
        <ele>187</ele>
        <time>2016-01-23T12:22:24Z</time>
      </trkpt>
      <trkpt lat="43.47957" lon="5.55611">
        <ele>187.5</ele>
        <time>2016-01-23T12:22:25Z</time>
      </trkpt>
      <trkpt lat="43.47954" lon="5.55648">
        <ele>188.3</ele>
        <time>2016-01-23T12:22:26Z</time>
      </trkpt>
      <trkpt lat="43.4795" lon="5.55684">
        <ele>187</ele>
        <time>2016-01-23T12:22:27Z</time>
      </trkpt>
      <trkpt lat="43.47947" lon="5.55719">
        <ele>188.4</ele>
        <time>2016-01-23T12:22:28Z</time>
      </trkpt>
      <trkpt lat="43.47944" lon="5.55755">
        <ele>189.2</ele>
        <time>2016-01-23T12:22:29Z</time>
      </trkpt>
      <trkpt lat="43.4794" lon="5.5579">
        <ele>190.4</ele>
        <time>2016-01-23T12:22:30Z</time>
      </trkpt>
      <trkpt lat="43.47936" lon="5.55824">
        <ele>190.2</ele>
        <time>2016-01-23T12:22:31Z</time>
      </trkpt>
      <trkpt lat="43.47932" lon="5.55858">
        <ele>190</ele>
        <time>2016-01-23T12:22:32Z</time>
      </trkpt>
      <trkpt lat="43.47926" lon="5.55891">
        <ele>189.7</ele>
        <time>2016-01-23T12:22:33Z</time>
      </trkpt>
      <trkpt lat="43.4792" lon="5.55923">
        <ele>190.2</ele>
        <time>2016-01-23T12:22:34Z</time>
      </trkpt>
      <trkpt lat="43.47911" lon="5.55955">
        <ele>190.5</ele>
        <time>2016-01-23T12:22:35Z</time>
      </trkpt>
      <trkpt lat="43.47902" lon="5.55986">
        <ele>190.3</ele>
        <time>2016-01-23T12:22:36Z</time>
      </trkpt>
      <trkpt lat="43.47893" lon="5.56018">
        <ele>190.8</ele>
        <time>2016-01-23T12:22:37Z</time>
      </trkpt>
      <trkpt lat="43.47885" lon="5.5605">
        <ele>191.1</ele>
        <time>2016-01-23T12:22:38Z</time>
      </trkpt>
      <trkpt lat="43.47878" lon="5.56083">
        <ele>190.8</ele>
        <time>2016-01-23T12:22:39Z</time>
      </trkpt>
      <trkpt lat="43.47874" lon="5.56117">
        <ele>190.2</ele>
        <time>2016-01-23T12:22:40Z</time>
      </trkpt>
      <trkpt lat="43.47871" lon="5.56152">
        <ele>190.9</ele>
        <time>2016-01-23T12:22:41Z</time>
      </trkpt>
      <trkpt lat="43.47869" lon="5.56186">
        <ele>192.5</ele>
        <time>2016-01-23T12:22:42Z</time>
      </trkpt>
      <trkpt lat="43.47868" lon="5.56221">
        <ele>194.5</ele>
        <time>2016-01-23T12:22:43Z</time>
      </trkpt>
      <trkpt lat="43.47867" lon="5.56255">
        <ele>194.8</ele>
        <time>2016-01-23T12:22:44Z</time>
      </trkpt>
      <trkpt lat="43.47867" lon="5.5629">
        <ele>195.5</ele>
        <time>2016-01-23T12:22:45Z</time>
      </trkpt>
      <trkpt lat="43.47867" lon="5.56325">
        <ele>196.4</ele>
        <time>2016-01-23T12:22:46Z</time>
      </trkpt>
      <trkpt lat="43.47867" lon="5.5636">
        <ele>192.2</ele>
        <time>2016-01-23T12:22:47Z</time>
      </trkpt>
      <trkpt lat="43.47866" lon="5.56394">
        <ele>192.7</ele>
        <time>2016-01-23T12:22:48Z</time>
      </trkpt>
      <trkpt lat="43.47866" lon="5.56427">
        <ele>196.4</ele>
        <time>2016-01-23T12:22:49Z</time>
      </trkpt>
      <trkpt lat="43.47866" lon="5.56459">
        <ele>197</ele>
        <time>2016-01-23T12:22:50Z</time>
      </trkpt>
      <trkpt lat="43.47865" lon="5.5649">
        <ele>196.6</ele>
        <time>2016-01-23T12:22:51Z</time>
      </trkpt>
      <trkpt lat="43.47865" lon="5.5652">
        <ele>195.7</ele>
        <time>2016-01-23T12:22:52Z</time>
      </trkpt>
      <trkpt lat="43.47865" lon="5.56548">
        <ele>195.5</ele>
        <time>2016-01-23T12:22:53Z</time>
      </trkpt>
      <trkpt lat="43.47865" lon="5.56576">
        <ele>194.9</ele>
        <time>2016-01-23T12:22:54Z</time>
      </trkpt>
      <trkpt lat="43.47865" lon="5.56604">
        <ele>194.7</ele>
        <time>2016-01-23T12:22:55Z</time>
      </trkpt>
      <trkpt lat="43.47865" lon="5.56629">
        <ele>194.1</ele>
        <time>2016-01-23T12:22:56Z</time>
      </trkpt>
      <trkpt lat="43.47865" lon="5.56653">
        <ele>193.9</ele>
        <time>2016-01-23T12:22:57Z</time>
      </trkpt>
      <trkpt lat="43.47864" lon="5.56674">
        <ele>193.9</ele>
        <time>2016-01-23T12:22:58Z</time>
      </trkpt>
      <trkpt lat="43.47864" lon="5.56693">
        <ele>193.9</ele>
        <time>2016-01-23T12:22:59Z</time>
      </trkpt>
      <trkpt lat="43.47864" lon="5.56709">
        <ele>193.9</ele>
        <time>2016-01-23T12:23:00Z</time>
      </trkpt>
      <trkpt lat="43.47863" lon="5.56723">
        <ele>194</ele>
        <time>2016-01-23T12:23:01Z</time>
      </trkpt>
      <trkpt lat="43.47863" lon="5.56735">
        <ele>194.4</ele>
        <time>2016-01-23T12:23:02Z</time>
      </trkpt>
      <trkpt lat="43.47863" lon="5.56746">
        <ele>194.8</ele>
        <time>2016-01-23T12:23:03Z</time>
      </trkpt>
      <trkpt lat="43.47862" lon="5.56756">
        <ele>194.9</ele>
        <time>2016-01-23T12:23:04Z</time>
      </trkpt>
      <trkpt lat="43.47862" lon="5.56765">
        <ele>194.9</ele>
        <time>2016-01-23T12:23:05Z</time>
      </trkpt>
      <trkpt lat="43.47861" lon="5.5677">
        <ele>195</ele>
        <time>2016-01-23T12:23:06Z</time>
      </trkpt>
      <trkpt lat="43.47861" lon="5.56774">
        <ele>195</ele>
        <time>2016-01-23T12:23:07Z</time>
      </trkpt>
      <trkpt lat="43.4786" lon="5.56776">
        <ele>194.9</ele>
        <time>2016-01-23T12:23:08Z</time>
      </trkpt>
      <trkpt lat="43.4786" lon="5.56779">
        <ele>194.9</ele>
        <time>2016-01-23T12:23:09Z</time>
      </trkpt>
      <trkpt lat="43.4786" lon="5.56784">
        <ele>194.9</ele>
        <time>2016-01-23T12:23:10Z</time>
      </trkpt>
      <trkpt lat="43.4786" lon="5.5679">
        <ele>194.9</ele>
        <time>2016-01-23T12:23:11Z</time>
      </trkpt>
      <trkpt lat="43.47859" lon="5.56798">
        <ele>194.8</ele>
        <time>2016-01-23T12:23:12Z</time>
      </trkpt>
      <trkpt lat="43.47858" lon="5.56806">
        <ele>194.8</ele>
        <time>2016-01-23T12:23:13Z</time>
      </trkpt>
      <trkpt lat="43.47858" lon="5.56812">
        <ele>194.5</ele>
        <time>2016-01-23T12:23:14Z</time>
      </trkpt>
      <trkpt lat="43.47857" lon="5.56819">
        <ele>194.1</ele>
        <time>2016-01-23T12:23:15Z</time>
      </trkpt>
      <trkpt lat="43.47856" lon="5.56827">
        <ele>193.6</ele>
        <time>2016-01-23T12:23:16Z</time>
      </trkpt>
      <trkpt lat="43.47855" lon="5.56836">
        <ele>193.2</ele>
        <time>2016-01-23T12:23:17Z</time>
      </trkpt>
      <trkpt lat="43.47853" lon="5.56847">
        <ele>193.4</ele>
        <time>2016-01-23T12:23:18Z</time>
      </trkpt>
      <trkpt lat="43.47849" lon="5.56857">
        <ele>193.7</ele>
        <time>2016-01-23T12:23:19Z</time>
      </trkpt>
      <trkpt lat="43.47844" lon="5.56865">
        <ele>194.1</ele>
        <time>2016-01-23T12:23:20Z</time>
      </trkpt>
      <trkpt lat="43.47837" lon="5.56873">
        <ele>194.4</ele>
        <time>2016-01-23T12:23:21Z</time>
      </trkpt>
      <trkpt lat="43.47832" lon="5.56882">
        <ele>194.7</ele>
        <time>2016-01-23T12:23:22Z</time>
      </trkpt>
      <trkpt lat="43.47829" lon="5.56894">
        <ele>194.8</ele>
        <time>2016-01-23T12:23:23Z</time>
      </trkpt>
      <trkpt lat="43.47829" lon="5.56908">
        <ele>194.8</ele>
        <time>2016-01-23T12:23:24Z</time>
      </trkpt>
      <trkpt lat="43.47831" lon="5.56924">
        <ele>194.9</ele>
        <time>2016-01-23T12:23:25Z</time>
      </trkpt>
      <trkpt lat="43.47831" lon="5.5694">
        <ele>194.9</ele>
        <time>2016-01-23T12:23:26Z</time>
      </trkpt>
      <trkpt lat="43.4783" lon="5.56957">
        <ele>194.9</ele>
        <time>2016-01-23T12:23:27Z</time>
      </trkpt>
      <trkpt lat="43.47827" lon="5.56976">
        <ele>195</ele>
        <time>2016-01-23T12:23:28Z</time>
      </trkpt>
      <trkpt lat="43.47822" lon="5.56995">
        <ele>195</ele>
        <time>2016-01-23T12:23:29Z</time>
      </trkpt>
      <trkpt lat="43.47816" lon="5.57014">
        <ele>194.8</ele>
        <time>2016-01-23T12:23:30Z</time>
      </trkpt>
      <trkpt lat="43.4781" lon="5.57033">
        <ele>195</ele>
        <time>2016-01-23T12:23:31Z</time>
      </trkpt>
      <trkpt lat="43.47802" lon="5.57051">
        <ele>195.9</ele>
        <time>2016-01-23T12:23:32Z</time>
      </trkpt>
      <trkpt lat="43.47793" lon="5.5707">
        <ele>196</ele>
        <time>2016-01-23T12:23:33Z</time>
      </trkpt>
      <trkpt lat="43.47784" lon="5.5709">
        <ele>196</ele>
        <time>2016-01-23T12:23:34Z</time>
      </trkpt>
      <trkpt lat="43.47773" lon="5.57111">
        <ele>196</ele>
        <time>2016-01-23T12:23:35Z</time>
      </trkpt>
      <trkpt lat="43.47761" lon="5.57131">
        <ele>196</ele>
        <time>2016-01-23T12:23:36Z</time>
      </trkpt>
      <trkpt lat="43.47747" lon="5.57152">
        <ele>196</ele>
        <time>2016-01-23T12:23:37Z</time>
      </trkpt>
      <trkpt lat="43.47732" lon="5.57172">
        <ele>195.9</ele>
        <time>2016-01-23T12:23:38Z</time>
      </trkpt>
      <trkpt lat="43.47717" lon="5.57193">
        <ele>196</ele>
        <time>2016-01-23T12:23:39Z</time>
      </trkpt>
      <trkpt lat="43.47702" lon="5.57213">
        <ele>196</ele>
        <time>2016-01-23T12:23:40Z</time>
      </trkpt>
      <trkpt lat="43.47686" lon="5.57235">
        <ele>196.2</ele>
        <time>2016-01-23T12:23:41Z</time>
      </trkpt>
      <trkpt lat="43.4767" lon="5.57257">
        <ele>196</ele>
        <time>2016-01-23T12:23:42Z</time>
      </trkpt>
      <trkpt lat="43.47653" lon="5.57279">
        <ele>196</ele>
        <time>2016-01-23T12:23:43Z</time>
      </trkpt>
      <trkpt lat="43.47636" lon="5.57302">
        <ele>196</ele>
        <time>2016-01-23T12:23:44Z</time>
      </trkpt>
      <trkpt lat="43.47619" lon="5.57326">
        <ele>196.3</ele>
        <time>2016-01-23T12:23:45Z</time>
      </trkpt>
      <trkpt lat="43.47601" lon="5.5735">
        <ele>196.8</ele>
        <time>2016-01-23T12:23:46Z</time>
      </trkpt>
      <trkpt lat="43.47583" lon="5.57375">
        <ele>197</ele>
        <time>2016-01-23T12:23:47Z</time>
      </trkpt>
      <trkpt lat="43.47565" lon="5.574">
        <ele>197.1</ele>
        <time>2016-01-23T12:23:48Z</time>
      </trkpt>
      <trkpt lat="43.47547" lon="5.57425">
        <ele>197.4</ele>
        <time>2016-01-23T12:23:49Z</time>
      </trkpt>
      <trkpt lat="43.47528" lon="5.5745">
        <ele>197.8</ele>
        <time>2016-01-23T12:23:50Z</time>
      </trkpt>
      <trkpt lat="43.4751" lon="5.57475">
        <ele>197.6</ele>
        <time>2016-01-23T12:23:51Z</time>
      </trkpt>
      <trkpt lat="43.47492" lon="5.575">
        <ele>198</ele>
        <time>2016-01-23T12:23:52Z</time>
      </trkpt>
      <trkpt lat="43.47474" lon="5.57525">
        <ele>198.7</ele>
        <time>2016-01-23T12:23:53Z</time>
      </trkpt>
      <trkpt lat="43.47456" lon="5.57549">
        <ele>198.2</ele>
        <time>2016-01-23T12:23:54Z</time>
      </trkpt>
      <trkpt lat="43.47439" lon="5.57574">
        <ele>198.5</ele>
        <time>2016-01-23T12:23:55Z</time>
      </trkpt>
      <trkpt lat="43.47421" lon="5.57599">
        <ele>198.8</ele>
        <time>2016-01-23T12:23:56Z</time>
      </trkpt>
      <trkpt lat="43.47403" lon="5.57623">
        <ele>199.3</ele>
        <time>2016-01-23T12:23:57Z</time>
      </trkpt>
      <trkpt lat="43.47386" lon="5.57648">
        <ele>199.7</ele>
        <time>2016-01-23T12:23:58Z</time>
      </trkpt>
      <trkpt lat="43.47368" lon="5.57672">
        <ele>199.6</ele>
        <time>2016-01-23T12:23:59Z</time>
      </trkpt>
      <trkpt lat="43.47352" lon="5.57696">
        <ele>200.2</ele>
        <time>2016-01-23T12:24:00Z</time>
      </trkpt>
      <trkpt lat="43.47336" lon="5.57722">
        <ele>200.6</ele>
        <time>2016-01-23T12:24:01Z</time>
      </trkpt>
      <trkpt lat="43.47321" lon="5.57748">
        <ele>200.9</ele>
        <time>2016-01-23T12:24:02Z</time>
      </trkpt>
      <trkpt lat="43.47308" lon="5.57776">
        <ele>201</ele>
        <time>2016-01-23T12:24:03Z</time>
      </trkpt>
      <trkpt lat="43.47297" lon="5.57805">
        <ele>201.3</ele>
        <time>2016-01-23T12:24:04Z</time>
      </trkpt>
      <trkpt lat="43.47287" lon="5.57835">
        <ele>201.7</ele>
        <time>2016-01-23T12:24:05Z</time>
      </trkpt>
      <trkpt lat="43.47278" lon="5.57865">
        <ele>202</ele>
        <time>2016-01-23T12:24:06Z</time>
      </trkpt>
      <trkpt lat="43.47271" lon="5.57895">
        <ele>202.2</ele>
        <time>2016-01-23T12:24:07Z</time>
      </trkpt>
      <trkpt lat="43.47264" lon="5.57927">
        <ele>202.1</ele>
        <time>2016-01-23T12:24:08Z</time>
      </trkpt>
      <trkpt lat="43.47258" lon="5.57958">
        <ele>201.7</ele>
        <time>2016-01-23T12:24:09Z</time>
      </trkpt>
      <trkpt lat="43.47253" lon="5.5799">
        <ele>201.9</ele>
        <time>2016-01-23T12:24:10Z</time>
      </trkpt>
      <trkpt lat="43.47247" lon="5.58022">
        <ele>202</ele>
        <time>2016-01-23T12:24:11Z</time>
      </trkpt>
      <trkpt lat="43.47242" lon="5.58053">
        <ele>202.3</ele>
        <time>2016-01-23T12:24:12Z</time>
      </trkpt>
      <trkpt lat="43.47236" lon="5.58084">
        <ele>202.5</ele>
        <time>2016-01-23T12:24:13Z</time>
      </trkpt>
      <trkpt lat="43.47231" lon="5.58115">
        <ele>202.7</ele>
        <time>2016-01-23T12:24:14Z</time>
      </trkpt>
      <trkpt lat="43.47225" lon="5.58147">
        <ele>202.9</ele>
        <time>2016-01-23T12:24:15Z</time>
      </trkpt>
      <trkpt lat="43.4722" lon="5.58177">
        <ele>203.1</ele>
        <time>2016-01-23T12:24:16Z</time>
      </trkpt>
      <trkpt lat="43.47214" lon="5.58208">
        <ele>203.3</ele>
        <time>2016-01-23T12:24:17Z</time>
      </trkpt>
      <trkpt lat="43.47209" lon="5.58238">
        <ele>203.5</ele>
        <time>2016-01-23T12:24:18Z</time>
      </trkpt>
      <trkpt lat="43.47204" lon="5.58267">
        <ele>203.7</ele>
        <time>2016-01-23T12:24:19Z</time>
      </trkpt>
      <trkpt lat="43.47199" lon="5.58296">
        <ele>203.6</ele>
        <time>2016-01-23T12:24:20Z</time>
      </trkpt>
      <trkpt lat="43.47194" lon="5.58325">
        <ele>204</ele>
        <time>2016-01-23T12:24:21Z</time>
      </trkpt>
      <trkpt lat="43.47188" lon="5.58354">
        <ele>204.2</ele>
        <time>2016-01-23T12:24:22Z</time>
      </trkpt>
      <trkpt lat="43.47183" lon="5.58384">
        <ele>204.4</ele>
        <time>2016-01-23T12:24:23Z</time>
      </trkpt>
      <trkpt lat="43.47177" lon="5.58417">
        <ele>204</ele>
        <time>2016-01-23T12:24:24Z</time>
      </trkpt>
      <trkpt lat="43.47171" lon="5.58451">
        <ele>204.8</ele>
        <time>2016-01-23T12:24:25Z</time>
      </trkpt>
      <trkpt lat="43.47165" lon="5.58486">
        <ele>204.9</ele>
        <time>2016-01-23T12:24:26Z</time>
      </trkpt>
      <trkpt lat="43.47159" lon="5.58521">
        <ele>203.9</ele>
        <time>2016-01-23T12:24:27Z</time>
      </trkpt>
      <trkpt lat="43.47153" lon="5.58556">
        <ele>201.5</ele>
        <time>2016-01-23T12:24:28Z</time>
      </trkpt>
      <trkpt lat="43.47148" lon="5.58589">
        <ele>203.8</ele>
        <time>2016-01-23T12:24:29Z</time>
      </trkpt>
      <trkpt lat="43.47143" lon="5.58623">
        <ele>204.7</ele>
        <time>2016-01-23T12:24:30Z</time>
      </trkpt>
      <trkpt lat="43.4714" lon="5.58657">
        <ele>205</ele>
        <time>2016-01-23T12:24:31Z</time>
      </trkpt>
      <trkpt lat="43.47136" lon="5.58691">
        <ele>205.1</ele>
        <time>2016-01-23T12:24:32Z</time>
      </trkpt>
      <trkpt lat="43.47133" lon="5.58724">
        <ele>205.2</ele>
        <time>2016-01-23T12:24:33Z</time>
      </trkpt>
      <trkpt lat="43.47129" lon="5.58757">
        <ele>205.5</ele>
        <time>2016-01-23T12:24:34Z</time>
      </trkpt>
      <trkpt lat="43.47125" lon="5.58791">
        <ele>206</ele>
        <time>2016-01-23T12:24:35Z</time>
      </trkpt>
      <trkpt lat="43.47122" lon="5.58824">
        <ele>206</ele>
        <time>2016-01-23T12:24:36Z</time>
      </trkpt>
      <trkpt lat="43.47118" lon="5.58858">
        <ele>206</ele>
        <time>2016-01-23T12:24:37Z</time>
      </trkpt>
      <trkpt lat="43.47114" lon="5.58891">
        <ele>206.9</ele>
        <time>2016-01-23T12:24:38Z</time>
      </trkpt>
      <trkpt lat="43.4711" lon="5.58923">
        <ele>207</ele>
        <time>2016-01-23T12:24:39Z</time>
      </trkpt>
      <trkpt lat="43.47106" lon="5.58955">
        <ele>207</ele>
        <time>2016-01-23T12:24:40Z</time>
      </trkpt>
      <trkpt lat="43.47102" lon="5.58987">
        <ele>207</ele>
        <time>2016-01-23T12:24:41Z</time>
      </trkpt>
      <trkpt lat="43.47098" lon="5.59019">
        <ele>207</ele>
        <time>2016-01-23T12:24:42Z</time>
      </trkpt>
      <trkpt lat="43.47094" lon="5.59052">
        <ele>207.5</ele>
        <time>2016-01-23T12:24:43Z</time>
      </trkpt>
      <trkpt lat="43.47091" lon="5.59083">
        <ele>207.7</ele>
        <time>2016-01-23T12:24:44Z</time>
      </trkpt>
      <trkpt lat="43.47088" lon="5.59115">
        <ele>207.7</ele>
        <time>2016-01-23T12:24:45Z</time>
      </trkpt>
      <trkpt lat="43.47084" lon="5.59146">
        <ele>208</ele>
        <time>2016-01-23T12:24:46Z</time>
      </trkpt>
      <trkpt lat="43.47082" lon="5.59176">
        <ele>208.3</ele>
        <time>2016-01-23T12:24:47Z</time>
      </trkpt>
      <trkpt lat="43.47079" lon="5.59207">
        <ele>209</ele>
        <time>2016-01-23T12:24:48Z</time>
      </trkpt>
      <trkpt lat="43.47077" lon="5.59238">
        <ele>209</ele>
        <time>2016-01-23T12:24:49Z</time>
      </trkpt>
      <trkpt lat="43.47074" lon="5.5927">
        <ele>209</ele>
        <time>2016-01-23T12:24:50Z</time>
      </trkpt>
      <trkpt lat="43.47071" lon="5.59301">
        <ele>209</ele>
        <time>2016-01-23T12:24:51Z</time>
      </trkpt>
      <trkpt lat="43.47068" lon="5.59333">
        <ele>209.6</ele>
        <time>2016-01-23T12:24:52Z</time>
      </trkpt>
      <trkpt lat="43.47065" lon="5.59364">
        <ele>209.7</ele>
        <time>2016-01-23T12:24:53Z</time>
      </trkpt>
      <trkpt lat="43.47062" lon="5.59394">
        <ele>209.8</ele>
        <time>2016-01-23T12:24:54Z</time>
      </trkpt>
      <trkpt lat="43.47059" lon="5.59423">
        <ele>209.9</ele>
        <time>2016-01-23T12:24:55Z</time>
      </trkpt>
      <trkpt lat="43.47057" lon="5.5945">
        <ele>209.5</ele>
        <time>2016-01-23T12:24:56Z</time>
      </trkpt>
      <trkpt lat="43.47055" lon="5.59476">
        <ele>208.4</ele>
        <time>2016-01-23T12:24:57Z</time>
      </trkpt>
      <trkpt lat="43.47052" lon="5.59499">
        <ele>210.4</ele>
        <time>2016-01-23T12:24:58Z</time>
      </trkpt>
      <trkpt lat="43.47048" lon="5.59519">
        <ele>210.4</ele>
        <time>2016-01-23T12:24:59Z</time>
      </trkpt>
      <trkpt lat="43.47041" lon="5.59537">
        <ele>210.8</ele>
        <time>2016-01-23T12:25:00Z</time>
      </trkpt>
      <trkpt lat="43.47032" lon="5.59551">
        <ele>211.6</ele>
        <time>2016-01-23T12:25:01Z</time>
      </trkpt>
      <trkpt lat="43.47021" lon="5.59561">
        <ele>211.8</ele>
        <time>2016-01-23T12:25:02Z</time>
      </trkpt>
      <trkpt lat="43.47009" lon="5.59572">
        <ele>211.7</ele>
        <time>2016-01-23T12:25:03Z</time>
      </trkpt>
      <trkpt lat="43.47" lon="5.59585">
        <ele>212</ele>
        <time>2016-01-23T12:25:04Z</time>
      </trkpt>
      <trkpt lat="43.46993" lon="5.59602">
        <ele>211.9</ele>
        <time>2016-01-23T12:25:05Z</time>
      </trkpt>
      <trkpt lat="43.46986" lon="5.5962">
        <ele>212.3</ele>
        <time>2016-01-23T12:25:06Z</time>
      </trkpt>
      <trkpt lat="43.46978" lon="5.59639">
        <ele>213</ele>
        <time>2016-01-23T12:25:07Z</time>
      </trkpt>
      <trkpt lat="43.46969" lon="5.59658">
        <ele>213.6</ele>
        <time>2016-01-23T12:25:08Z</time>
      </trkpt>
      <trkpt lat="43.4696" lon="5.59676">
        <ele>213.9</ele>
        <time>2016-01-23T12:25:09Z</time>
      </trkpt>
      <trkpt lat="43.46952" lon="5.59695">
        <ele>214.3</ele>
        <time>2016-01-23T12:25:10Z</time>
      </trkpt>
      <trkpt lat="43.46942" lon="5.59712">
        <ele>214</ele>
        <time>2016-01-23T12:25:11Z</time>
      </trkpt>
      <trkpt lat="43.46932" lon="5.59729">
        <ele>214.3</ele>
        <time>2016-01-23T12:25:12Z</time>
      </trkpt>
      <trkpt lat="43.46922" lon="5.59744">
        <ele>214.3</ele>
        <time>2016-01-23T12:25:13Z</time>
      </trkpt>
      <trkpt lat="43.46912" lon="5.59759">
        <ele>214.5</ele>
        <time>2016-01-23T12:25:14Z</time>
      </trkpt>
      <trkpt lat="43.46901" lon="5.59774">
        <ele>214.8</ele>
        <time>2016-01-23T12:25:15Z</time>
      </trkpt>
      <trkpt lat="43.46891" lon="5.5979">
        <ele>214.1</ele>
        <time>2016-01-23T12:25:16Z</time>
      </trkpt>
      <trkpt lat="43.46881" lon="5.59807">
        <ele>215.1</ele>
        <time>2016-01-23T12:25:17Z</time>
      </trkpt>
      <trkpt lat="43.46872" lon="5.59826">
        <ele>215.5</ele>
        <time>2016-01-23T12:25:18Z</time>
      </trkpt>
      <trkpt lat="43.46865" lon="5.59847">
        <ele>215.7</ele>
        <time>2016-01-23T12:25:19Z</time>
      </trkpt>
      <trkpt lat="43.46858" lon="5.59869">
        <ele>216.4</ele>
        <time>2016-01-23T12:25:20Z</time>
      </trkpt>
      <trkpt lat="43.46853" lon="5.59894">
        <ele>217.1</ele>
        <time>2016-01-23T12:25:21Z</time>
      </trkpt>
      <trkpt lat="43.46848" lon="5.59919">
        <ele>217.4</ele>
        <time>2016-01-23T12:25:22Z</time>
      </trkpt>
      <trkpt lat="43.46844" lon="5.59946">
        <ele>217.8</ele>
        <time>2016-01-23T12:25:23Z</time>
      </trkpt>
      <trkpt lat="43.4684" lon="5.59973">
        <ele>216.5</ele>
        <time>2016-01-23T12:25:24Z</time>
      </trkpt>
      <trkpt lat="43.46837" lon="5.6">
        <ele>216.7</ele>
        <time>2016-01-23T12:25:25Z</time>
      </trkpt>
      <trkpt lat="43.46833" lon="5.60027">
        <ele>216.1</ele>
        <time>2016-01-23T12:25:26Z</time>
      </trkpt>
      <trkpt lat="43.46829" lon="5.60054">
        <ele>216.5</ele>
        <time>2016-01-23T12:25:27Z</time>
      </trkpt>
      <trkpt lat="43.46824" lon="5.60081">
        <ele>216.7</ele>
        <time>2016-01-23T12:25:28Z</time>
      </trkpt>
      <trkpt lat="43.4682" lon="5.60107">
        <ele>216.1</ele>
        <time>2016-01-23T12:25:29Z</time>
      </trkpt>
      <trkpt lat="43.46815" lon="5.60134">
        <ele>215.3</ele>
        <time>2016-01-23T12:25:30Z</time>
      </trkpt>
      <trkpt lat="43.46809" lon="5.6016">
        <ele>215</ele>
        <time>2016-01-23T12:25:31Z</time>
      </trkpt>
      <trkpt lat="43.46803" lon="5.60187">
        <ele>215.5</ele>
        <time>2016-01-23T12:25:32Z</time>
      </trkpt>
      <trkpt lat="43.46795" lon="5.60213">
        <ele>215.5</ele>
        <time>2016-01-23T12:25:33Z</time>
      </trkpt>
      <trkpt lat="43.46788" lon="5.60238">
        <ele>214.8</ele>
        <time>2016-01-23T12:25:34Z</time>
      </trkpt>
      <trkpt lat="43.46779" lon="5.60262">
        <ele>215.4</ele>
        <time>2016-01-23T12:25:35Z</time>
      </trkpt>
      <trkpt lat="43.4677" lon="5.60286">
        <ele>215.5</ele>
        <time>2016-01-23T12:25:36Z</time>
      </trkpt>
      <trkpt lat="43.4676" lon="5.60308">
        <ele>215.3</ele>
        <time>2016-01-23T12:25:37Z</time>
      </trkpt>
      <trkpt lat="43.4675" lon="5.6033">
        <ele>215</ele>
        <time>2016-01-23T12:25:38Z</time>
      </trkpt>
      <trkpt lat="43.4674" lon="5.60351">
        <ele>215</ele>
        <time>2016-01-23T12:25:39Z</time>
      </trkpt>
      <trkpt lat="43.46729" lon="5.60373">
        <ele>215</ele>
        <time>2016-01-23T12:25:40Z</time>
      </trkpt>
      <trkpt lat="43.46718" lon="5.60394">
        <ele>215.1</ele>
        <time>2016-01-23T12:25:41Z</time>
      </trkpt>
      <trkpt lat="43.46707" lon="5.60417">
        <ele>215</ele>
        <time>2016-01-23T12:25:42Z</time>
      </trkpt>
      <trkpt lat="43.46695" lon="5.6044">
        <ele>215.8</ele>
        <time>2016-01-23T12:25:43Z</time>
      </trkpt>
      <trkpt lat="43.46684" lon="5.60462">
        <ele>215.9</ele>
        <time>2016-01-23T12:25:44Z</time>
      </trkpt>
      <trkpt lat="43.46673" lon="5.60483">
        <ele>216</ele>
        <time>2016-01-23T12:25:45Z</time>
      </trkpt>
      <trkpt lat="43.46662" lon="5.60504">
        <ele>215.9</ele>
        <time>2016-01-23T12:25:46Z</time>
      </trkpt>
      <trkpt lat="43.46651" lon="5.60525">
        <ele>215.9</ele>
        <time>2016-01-23T12:25:47Z</time>
      </trkpt>
      <trkpt lat="43.4664" lon="5.60546">
        <ele>216</ele>
        <time>2016-01-23T12:25:48Z</time>
      </trkpt>
      <trkpt lat="43.4663" lon="5.60567">
        <ele>216.1</ele>
        <time>2016-01-23T12:25:49Z</time>
      </trkpt>
      <trkpt lat="43.46619" lon="5.60587">
        <ele>216.7</ele>
        <time>2016-01-23T12:25:50Z</time>
      </trkpt>
      <trkpt lat="43.46609" lon="5.60607">
        <ele>217</ele>
        <time>2016-01-23T12:25:51Z</time>
      </trkpt>
      <trkpt lat="43.46599" lon="5.60627">
        <ele>216.7</ele>
        <time>2016-01-23T12:25:52Z</time>
      </trkpt>
      <trkpt lat="43.46589" lon="5.60647">
        <ele>216.7</ele>
        <time>2016-01-23T12:25:53Z</time>
      </trkpt>
      <trkpt lat="43.46579" lon="5.60667">
        <ele>217</ele>
        <time>2016-01-23T12:25:54Z</time>
      </trkpt>
      <trkpt lat="43.46569" lon="5.60687">
        <ele>217.4</ele>
        <time>2016-01-23T12:25:55Z</time>
      </trkpt>
      <trkpt lat="43.46559" lon="5.60707">
        <ele>217.4</ele>
        <time>2016-01-23T12:25:56Z</time>
      </trkpt>
      <trkpt lat="43.46549" lon="5.60727">
        <ele>217.2</ele>
        <time>2016-01-23T12:25:57Z</time>
      </trkpt>
      <trkpt lat="43.46539" lon="5.60747">
        <ele>217.6</ele>
        <time>2016-01-23T12:25:58Z</time>
      </trkpt>
      <trkpt lat="43.46528" lon="5.60768">
        <ele>218</ele>
        <time>2016-01-23T12:25:59Z</time>
      </trkpt>
      <trkpt lat="43.46517" lon="5.60789">
        <ele>218</ele>
        <time>2016-01-23T12:26:00Z</time>
      </trkpt>
      <trkpt lat="43.46507" lon="5.6081">
        <ele>218.1</ele>
        <time>2016-01-23T12:26:01Z</time>
      </trkpt>
      <trkpt lat="43.46496" lon="5.60832">
        <ele>219</ele>
        <time>2016-01-23T12:26:02Z</time>
      </trkpt>
      <trkpt lat="43.46485" lon="5.60854">
        <ele>219</ele>
        <time>2016-01-23T12:26:03Z</time>
      </trkpt>
      <trkpt lat="43.46474" lon="5.60875">
        <ele>219</ele>
        <time>2016-01-23T12:26:04Z</time>
      </trkpt>
      <trkpt lat="43.46463" lon="5.60897">
        <ele>219.3</ele>
        <time>2016-01-23T12:26:05Z</time>
      </trkpt>
      <trkpt lat="43.46452" lon="5.60919">
        <ele>219.8</ele>
        <time>2016-01-23T12:26:06Z</time>
      </trkpt>
      <trkpt lat="43.46441" lon="5.60939">
        <ele>220.8</ele>
        <time>2016-01-23T12:26:07Z</time>
      </trkpt>
      <trkpt lat="43.46432" lon="5.60958">
        <ele>220.7</ele>
        <time>2016-01-23T12:26:08Z</time>
      </trkpt>
      <trkpt lat="43.46423" lon="5.60977">
        <ele>220.9</ele>
        <time>2016-01-23T12:26:09Z</time>
      </trkpt>
      <trkpt lat="43.46414" lon="5.60994">
        <ele>221.8</ele>
        <time>2016-01-23T12:26:10Z</time>
      </trkpt>
      <trkpt lat="43.46406" lon="5.61011">
        <ele>222</ele>
        <time>2016-01-23T12:26:11Z</time>
      </trkpt>
      <trkpt lat="43.46398" lon="5.61027">
        <ele>222</ele>
        <time>2016-01-23T12:26:12Z</time>
      </trkpt>
      <trkpt lat="43.4639" lon="5.61042">
        <ele>222.5</ele>
        <time>2016-01-23T12:26:13Z</time>
      </trkpt>
      <trkpt lat="43.46383" lon="5.61055">
        <ele>223</ele>
        <time>2016-01-23T12:26:14Z</time>
      </trkpt>
      <trkpt lat="43.46376" lon="5.61066">
        <ele>223.2</ele>
        <time>2016-01-23T12:26:15Z</time>
      </trkpt>
      <trkpt lat="43.46369" lon="5.61075">
        <ele>223.5</ele>
        <time>2016-01-23T12:26:16Z</time>
      </trkpt>
      <trkpt lat="43.46364" lon="5.61082">
        <ele>223.8</ele>
        <time>2016-01-23T12:26:17Z</time>
      </trkpt>
      <trkpt lat="43.4636" lon="5.61087">
        <ele>224.1</ele>
        <time>2016-01-23T12:26:18Z</time>
      </trkpt>
      <trkpt lat="43.46354" lon="5.6109">
        <ele>224.3</ele>
        <time>2016-01-23T12:26:19Z</time>
      </trkpt>
      <trkpt lat="43.46348" lon="5.61094">
        <ele>224.4</ele>
        <time>2016-01-23T12:26:20Z</time>
      </trkpt>
      <trkpt lat="43.46342" lon="5.61099">
        <ele>224.6</ele>
        <time>2016-01-23T12:26:21Z</time>
      </trkpt>
      <trkpt lat="43.46337" lon="5.61106">
        <ele>224.8</ele>
        <time>2016-01-23T12:26:22Z</time>
      </trkpt>
      <trkpt lat="43.46334" lon="5.61116">
        <ele>225</ele>
        <time>2016-01-23T12:26:23Z</time>
      </trkpt>
      <trkpt lat="43.46333" lon="5.61128">
        <ele>225</ele>
        <time>2016-01-23T12:26:24Z</time>
      </trkpt>
      <trkpt lat="43.46332" lon="5.61141">
        <ele>225</ele>
        <time>2016-01-23T12:26:25Z</time>
      </trkpt>
      <trkpt lat="43.4633" lon="5.61154">
        <ele>225</ele>
        <time>2016-01-23T12:26:26Z</time>
      </trkpt>
      <trkpt lat="43.46327" lon="5.61169">
        <ele>225</ele>
        <time>2016-01-23T12:26:27Z</time>
      </trkpt>
      <trkpt lat="43.46322" lon="5.61184">
        <ele>225</ele>
        <time>2016-01-23T12:26:28Z</time>
      </trkpt>
      <trkpt lat="43.46317" lon="5.61202">
        <ele>225.3</ele>
        <time>2016-01-23T12:26:29Z</time>
      </trkpt>
      <trkpt lat="43.46311" lon="5.6122">
        <ele>225.9</ele>
        <time>2016-01-23T12:26:30Z</time>
      </trkpt>
      <trkpt lat="43.46306" lon="5.61239">
        <ele>226</ele>
        <time>2016-01-23T12:26:31Z</time>
      </trkpt>
      <trkpt lat="43.46301" lon="5.61259">
        <ele>225.6</ele>
        <time>2016-01-23T12:26:32Z</time>
      </trkpt>
      <trkpt lat="43.46296" lon="5.61278">
        <ele>225.4</ele>
        <time>2016-01-23T12:26:33Z</time>
      </trkpt>
      <trkpt lat="43.46292" lon="5.61299">
        <ele>225.9</ele>
        <time>2016-01-23T12:26:34Z</time>
      </trkpt>
      <trkpt lat="43.46288" lon="5.6132">
        <ele>225.8</ele>
        <time>2016-01-23T12:26:35Z</time>
      </trkpt>
      <trkpt lat="43.46286" lon="5.61343">
        <ele>225.7</ele>
        <time>2016-01-23T12:26:36Z</time>
      </trkpt>
      <trkpt lat="43.46285" lon="5.61368">
        <ele>225.8</ele>
        <time>2016-01-23T12:26:37Z</time>
      </trkpt>
      <trkpt lat="43.46284" lon="5.61393">
        <ele>225.8</ele>
        <time>2016-01-23T12:26:38Z</time>
      </trkpt>
      <trkpt lat="43.46284" lon="5.6142">
        <ele>225.7</ele>
        <time>2016-01-23T12:26:39Z</time>
      </trkpt>
      <trkpt lat="43.46285" lon="5.61447">
        <ele>225</ele>
        <time>2016-01-23T12:26:40Z</time>
      </trkpt>
      <trkpt lat="43.46285" lon="5.61475">
        <ele>225</ele>
        <time>2016-01-23T12:26:41Z</time>
      </trkpt>
      <trkpt lat="43.46285" lon="5.61503">
        <ele>224.7</ele>
        <time>2016-01-23T12:26:42Z</time>
      </trkpt>
      <trkpt lat="43.46285" lon="5.61532">
        <ele>224</ele>
        <time>2016-01-23T12:26:43Z</time>
      </trkpt>
      <trkpt lat="43.46286" lon="5.61561">
        <ele>224</ele>
        <time>2016-01-23T12:26:44Z</time>
      </trkpt>
      <trkpt lat="43.46287" lon="5.6159">
        <ele>224</ele>
        <time>2016-01-23T12:26:45Z</time>
      </trkpt>
      <trkpt lat="43.46287" lon="5.61619">
        <ele>224</ele>
        <time>2016-01-23T12:26:46Z</time>
      </trkpt>
      <trkpt lat="43.46287" lon="5.61648">
        <ele>224</ele>
        <time>2016-01-23T12:26:47Z</time>
      </trkpt>
      <trkpt lat="43.46288" lon="5.61676">
        <ele>224</ele>
        <time>2016-01-23T12:26:48Z</time>
      </trkpt>
      <trkpt lat="43.46288" lon="5.61705">
        <ele>224.1</ele>
        <time>2016-01-23T12:26:49Z</time>
      </trkpt>
      <trkpt lat="43.46289" lon="5.61733">
        <ele>224.4</ele>
        <time>2016-01-23T12:26:50Z</time>
      </trkpt>
      <trkpt lat="43.46289" lon="5.61761">
        <ele>224.4</ele>
        <time>2016-01-23T12:26:51Z</time>
      </trkpt>
      <trkpt lat="43.46289" lon="5.61789">
        <ele>224.6</ele>
        <time>2016-01-23T12:26:52Z</time>
      </trkpt>
      <trkpt lat="43.46289" lon="5.61818">
        <ele>225.2</ele>
        <time>2016-01-23T12:26:53Z</time>
      </trkpt>
      <trkpt lat="43.46289" lon="5.61847">
        <ele>226</ele>
        <time>2016-01-23T12:26:54Z</time>
      </trkpt>
      <trkpt lat="43.46288" lon="5.61875">
        <ele>226.8</ele>
        <time>2016-01-23T12:26:55Z</time>
      </trkpt>
      <trkpt lat="43.46286" lon="5.61903">
        <ele>227</ele>
        <time>2016-01-23T12:26:56Z</time>
      </trkpt>
      <trkpt lat="43.46282" lon="5.6193">
        <ele>227.1</ele>
        <time>2016-01-23T12:26:57Z</time>
      </trkpt>
      <trkpt lat="43.46277" lon="5.61956">
        <ele>227.5</ele>
        <time>2016-01-23T12:26:58Z</time>
      </trkpt>
      <trkpt lat="43.46271" lon="5.6198">
        <ele>228.4</ele>
        <time>2016-01-23T12:26:59Z</time>
      </trkpt>
      <trkpt lat="43.46264" lon="5.62003">
        <ele>227.9</ele>
        <time>2016-01-23T12:27:00Z</time>
      </trkpt>
      <trkpt lat="43.46256" lon="5.62026">
        <ele>227.6</ele>
        <time>2016-01-23T12:27:01Z</time>
      </trkpt>
      <trkpt lat="43.46246" lon="5.62047">
        <ele>228.4</ele>
        <time>2016-01-23T12:27:02Z</time>
      </trkpt>
      <trkpt lat="43.46236" lon="5.62069">
        <ele>228.3</ele>
        <time>2016-01-23T12:27:03Z</time>
      </trkpt>
      <trkpt lat="43.46225" lon="5.6209">
        <ele>227.8</ele>
        <time>2016-01-23T12:27:04Z</time>
      </trkpt>
      <trkpt lat="43.46212" lon="5.62112">
        <ele>228.7</ele>
        <time>2016-01-23T12:27:05Z</time>
      </trkpt>
      <trkpt lat="43.46198" lon="5.62133">
        <ele>228.8</ele>
        <time>2016-01-23T12:27:06Z</time>
      </trkpt>
      <trkpt lat="43.46184" lon="5.62153">
        <ele>228.5</ele>
        <time>2016-01-23T12:27:07Z</time>
      </trkpt>
      <trkpt lat="43.46169" lon="5.62174">
        <ele>228.6</ele>
        <time>2016-01-23T12:27:08Z</time>
      </trkpt>
      <trkpt lat="43.46154" lon="5.62194">
        <ele>228.9</ele>
        <time>2016-01-23T12:27:09Z</time>
      </trkpt>
      <trkpt lat="43.46139" lon="5.62214">
        <ele>229.3</ele>
        <time>2016-01-23T12:27:10Z</time>
      </trkpt>
      <trkpt lat="43.46124" lon="5.62234">
        <ele>229.5</ele>
        <time>2016-01-23T12:27:11Z</time>
      </trkpt>
      <trkpt lat="43.46109" lon="5.62256">
        <ele>230.1</ele>
        <time>2016-01-23T12:27:12Z</time>
      </trkpt>
      <trkpt lat="43.46096" lon="5.62278">
        <ele>230.1</ele>
        <time>2016-01-23T12:27:13Z</time>
      </trkpt>
      <trkpt lat="43.46085" lon="5.62301">
        <ele>230.9</ele>
        <time>2016-01-23T12:27:14Z</time>
      </trkpt>
      <trkpt lat="43.46076" lon="5.62325">
        <ele>231.3</ele>
        <time>2016-01-23T12:27:15Z</time>
      </trkpt>
      <trkpt lat="43.4607" lon="5.62352">
        <ele>231.2</ele>
        <time>2016-01-23T12:27:16Z</time>
      </trkpt>
      <trkpt lat="43.46065" lon="5.62379">
        <ele>231.8</ele>
        <time>2016-01-23T12:27:17Z</time>
      </trkpt>
      <trkpt lat="43.46062" lon="5.62407">
        <ele>232.3</ele>
        <time>2016-01-23T12:27:18Z</time>
      </trkpt>
      <trkpt lat="43.46062" lon="5.62436">
        <ele>233</ele>
        <time>2016-01-23T12:27:19Z</time>
      </trkpt>
      <trkpt lat="43.46064" lon="5.62463">
        <ele>233.6</ele>
        <time>2016-01-23T12:27:20Z</time>
      </trkpt>
      <trkpt lat="43.46067" lon="5.6249">
        <ele>234</ele>
        <time>2016-01-23T12:27:21Z</time>
      </trkpt>
      <trkpt lat="43.46071" lon="5.62517">
        <ele>234.4</ele>
        <time>2016-01-23T12:27:22Z</time>
      </trkpt>
      <trkpt lat="43.46074" lon="5.62543">
        <ele>233.6</ele>
        <time>2016-01-23T12:27:23Z</time>
      </trkpt>
      <trkpt lat="43.46078" lon="5.62569">
        <ele>232.7</ele>
        <time>2016-01-23T12:27:24Z</time>
      </trkpt>
      <trkpt lat="43.46082" lon="5.62594">
        <ele>232.2</ele>
        <time>2016-01-23T12:27:25Z</time>
      </trkpt>
      <trkpt lat="43.46086" lon="5.62619">
        <ele>231.9</ele>
        <time>2016-01-23T12:27:26Z</time>
      </trkpt>
      <trkpt lat="43.46089" lon="5.62644">
        <ele>231.7</ele>
        <time>2016-01-23T12:27:27Z</time>
      </trkpt>
      <trkpt lat="43.46093" lon="5.62667">
        <ele>231</ele>
        <time>2016-01-23T12:27:28Z</time>
      </trkpt>
      <trkpt lat="43.46097" lon="5.6269">
        <ele>231.8</ele>
        <time>2016-01-23T12:27:29Z</time>
      </trkpt>
      <trkpt lat="43.461" lon="5.62712">
        <ele>232.4</ele>
        <time>2016-01-23T12:27:30Z</time>
      </trkpt>
      <trkpt lat="43.46102" lon="5.62733">
        <ele>232.8</ele>
        <time>2016-01-23T12:27:31Z</time>
      </trkpt>
      <trkpt lat="43.46103" lon="5.62751">
        <ele>233</ele>
        <time>2016-01-23T12:27:32Z</time>
      </trkpt>
      <trkpt lat="43.46103" lon="5.62768">
        <ele>233.4</ele>
        <time>2016-01-23T12:27:33Z</time>
      </trkpt>
      <trkpt lat="43.46102" lon="5.62782">
        <ele>233.8</ele>
        <time>2016-01-23T12:27:34Z</time>
      </trkpt>
      <trkpt lat="43.46101" lon="5.62795">
        <ele>234.1</ele>
        <time>2016-01-23T12:27:35Z</time>
      </trkpt>
      <trkpt lat="43.46098" lon="5.62808">
        <ele>234.5</ele>
        <time>2016-01-23T12:27:36Z</time>
      </trkpt>
      <trkpt lat="43.46094" lon="5.62818">
        <ele>234.8</ele>
        <time>2016-01-23T12:27:37Z</time>
      </trkpt>
      <trkpt lat="43.46091" lon="5.62828">
        <ele>234.9</ele>
        <time>2016-01-23T12:27:38Z</time>
      </trkpt>
      <trkpt lat="43.46088" lon="5.62837">
        <ele>235.1</ele>
        <time>2016-01-23T12:27:39Z</time>
      </trkpt>
      <trkpt lat="43.46088" lon="5.62846">
        <ele>235.3</ele>
        <time>2016-01-23T12:27:40Z</time>
      </trkpt>
      <trkpt lat="43.4609" lon="5.62856">
        <ele>235.4</ele>
        <time>2016-01-23T12:27:41Z</time>
      </trkpt>
      <trkpt lat="43.46094" lon="5.62865">
        <ele>235.3</ele>
        <time>2016-01-23T12:27:42Z</time>
      </trkpt>
      <trkpt lat="43.461" lon="5.62876">
        <ele>235.1</ele>
        <time>2016-01-23T12:27:43Z</time>
      </trkpt>
      <trkpt lat="43.46105" lon="5.62889">
        <ele>234.7</ele>
        <time>2016-01-23T12:27:44Z</time>
      </trkpt>
      <trkpt lat="43.4611" lon="5.62903">
        <ele>234.2</ele>
        <time>2016-01-23T12:27:45Z</time>
      </trkpt>
      <trkpt lat="43.46113" lon="5.6292">
        <ele>233.7</ele>
        <time>2016-01-23T12:27:46Z</time>
      </trkpt>
      <trkpt lat="43.46116" lon="5.62939">
        <ele>232.9</ele>
        <time>2016-01-23T12:27:47Z</time>
      </trkpt>
      <trkpt lat="43.46117" lon="5.62959">
        <ele>232.6</ele>
        <time>2016-01-23T12:27:48Z</time>
      </trkpt>
      <trkpt lat="43.46118" lon="5.62981">
        <ele>232.5</ele>
        <time>2016-01-23T12:27:49Z</time>
      </trkpt>
      <trkpt lat="43.46118" lon="5.63004">
        <ele>232.4</ele>
        <time>2016-01-23T12:27:50Z</time>
      </trkpt>
      <trkpt lat="43.46117" lon="5.63027">
        <ele>231.6</ele>
        <time>2016-01-23T12:27:51Z</time>
      </trkpt>
      <trkpt lat="43.46117" lon="5.63052">
        <ele>231.6</ele>
        <time>2016-01-23T12:27:52Z</time>
      </trkpt>
      <trkpt lat="43.46116" lon="5.63078">
        <ele>231.6</ele>
        <time>2016-01-23T12:27:53Z</time>
      </trkpt>
      <trkpt lat="43.46116" lon="5.63104">
        <ele>231.7</ele>
        <time>2016-01-23T12:27:54Z</time>
      </trkpt>
      <trkpt lat="43.46115" lon="5.63129">
        <ele>231.6</ele>
        <time>2016-01-23T12:27:55Z</time>
      </trkpt>
      <trkpt lat="43.46115" lon="5.63155">
        <ele>231.6</ele>
        <time>2016-01-23T12:27:56Z</time>
      </trkpt>
      <trkpt lat="43.46114" lon="5.63181">
        <ele>231.7</ele>
        <time>2016-01-23T12:27:57Z</time>
      </trkpt>
      <trkpt lat="43.46113" lon="5.63207">
        <ele>231.8</ele>
        <time>2016-01-23T12:27:58Z</time>
      </trkpt>
      <trkpt lat="43.46111" lon="5.63234">
        <ele>232</ele>
        <time>2016-01-23T12:27:59Z</time>
      </trkpt>
      <trkpt lat="43.4611" lon="5.63262">
        <ele>232</ele>
        <time>2016-01-23T12:28:00Z</time>
      </trkpt>
      <trkpt lat="43.46108" lon="5.6329">
        <ele>232.1</ele>
        <time>2016-01-23T12:28:01Z</time>
      </trkpt>
      <trkpt lat="43.46106" lon="5.6332">
        <ele>232.4</ele>
        <time>2016-01-23T12:28:02Z</time>
      </trkpt>
      <trkpt lat="43.46104" lon="5.63349">
        <ele>233</ele>
        <time>2016-01-23T12:28:03Z</time>
      </trkpt>
      <trkpt lat="43.46102" lon="5.63378">
        <ele>233.1</ele>
        <time>2016-01-23T12:28:04Z</time>
      </trkpt>
      <trkpt lat="43.461" lon="5.63406">
        <ele>233.1</ele>
        <time>2016-01-23T12:28:05Z</time>
      </trkpt>
      <trkpt lat="43.46099" lon="5.63435">
        <ele>233.3</ele>
        <time>2016-01-23T12:28:06Z</time>
      </trkpt>
      <trkpt lat="43.46097" lon="5.63462">
        <ele>233.6</ele>
        <time>2016-01-23T12:28:07Z</time>
      </trkpt>
      <trkpt lat="43.46095" lon="5.63489">
        <ele>233.2</ele>
        <time>2016-01-23T12:28:08Z</time>
      </trkpt>
      <trkpt lat="43.46093" lon="5.63515">
        <ele>232.9</ele>
        <time>2016-01-23T12:28:09Z</time>
      </trkpt>
      <trkpt lat="43.46091" lon="5.63541">
        <ele>233.1</ele>
        <time>2016-01-23T12:28:10Z</time>
      </trkpt>
      <trkpt lat="43.46089" lon="5.63566">
        <ele>233.4</ele>
        <time>2016-01-23T12:28:11Z</time>
      </trkpt>
      <trkpt lat="43.46087" lon="5.63591">
        <ele>233.8</ele>
        <time>2016-01-23T12:28:12Z</time>
      </trkpt>
      <trkpt lat="43.46085" lon="5.63615">
        <ele>234.8</ele>
        <time>2016-01-23T12:28:13Z</time>
      </trkpt>
      <trkpt lat="43.46083" lon="5.6364">
        <ele>235</ele>
        <time>2016-01-23T12:28:14Z</time>
      </trkpt>
      <trkpt lat="43.4608" lon="5.63666">
        <ele>235</ele>
        <time>2016-01-23T12:28:15Z</time>
      </trkpt>
      <trkpt lat="43.46077" lon="5.63692">
        <ele>235.2</ele>
        <time>2016-01-23T12:28:16Z</time>
      </trkpt>
      <trkpt lat="43.46074" lon="5.6372">
        <ele>234.4</ele>
        <time>2016-01-23T12:28:17Z</time>
      </trkpt>
      <trkpt lat="43.4607" lon="5.63748">
        <ele>233.5</ele>
        <time>2016-01-23T12:28:18Z</time>
      </trkpt>
      <trkpt lat="43.46067" lon="5.63777">
        <ele>233.8</ele>
        <time>2016-01-23T12:28:19Z</time>
      </trkpt>
      <trkpt lat="43.46063" lon="5.63806">
        <ele>234.2</ele>
        <time>2016-01-23T12:28:20Z</time>
      </trkpt>
      <trkpt lat="43.4606" lon="5.63835">
        <ele>234.4</ele>
        <time>2016-01-23T12:28:21Z</time>
      </trkpt>
      <trkpt lat="43.46056" lon="5.63864">
        <ele>234.8</ele>
        <time>2016-01-23T12:28:22Z</time>
      </trkpt>
      <trkpt lat="43.46052" lon="5.63892">
        <ele>234.2</ele>
        <time>2016-01-23T12:28:23Z</time>
      </trkpt>
      <trkpt lat="43.46049" lon="5.6392">
        <ele>233.6</ele>
        <time>2016-01-23T12:28:24Z</time>
      </trkpt>
      <trkpt lat="43.46045" lon="5.63947">
        <ele>233.1</ele>
        <time>2016-01-23T12:28:25Z</time>
      </trkpt>
      <trkpt lat="43.46042" lon="5.63975">
        <ele>233.4</ele>
        <time>2016-01-23T12:28:26Z</time>
      </trkpt>
      <trkpt lat="43.46038" lon="5.64003">
        <ele>233.4</ele>
        <time>2016-01-23T12:28:27Z</time>
      </trkpt>
      <trkpt lat="43.46035" lon="5.64031">
        <ele>233</ele>
        <time>2016-01-23T12:28:28Z</time>
      </trkpt>
      <trkpt lat="43.46032" lon="5.64058">
        <ele>233.5</ele>
        <time>2016-01-23T12:28:29Z</time>
      </trkpt>
      <trkpt lat="43.46028" lon="5.64086">
        <ele>233.9</ele>
        <time>2016-01-23T12:28:30Z</time>
      </trkpt>
      <trkpt lat="43.46024" lon="5.64113">
        <ele>233.1</ele>
        <time>2016-01-23T12:28:31Z</time>
      </trkpt>
      <trkpt lat="43.46021" lon="5.64141">
        <ele>232.4</ele>
        <time>2016-01-23T12:28:32Z</time>
      </trkpt>
      <trkpt lat="43.46017" lon="5.64169">
        <ele>231.5</ele>
        <time>2016-01-23T12:28:33Z</time>
      </trkpt>
      <trkpt lat="43.46013" lon="5.64197">
        <ele>231.6</ele>
        <time>2016-01-23T12:28:34Z</time>
      </trkpt>
      <trkpt lat="43.4601" lon="5.64224">
        <ele>232</ele>
        <time>2016-01-23T12:28:35Z</time>
      </trkpt>
      <trkpt lat="43.46006" lon="5.64251">
        <ele>232.1</ele>
        <time>2016-01-23T12:28:36Z</time>
      </trkpt>
      <trkpt lat="43.46002" lon="5.64278">
        <ele>231.7</ele>
        <time>2016-01-23T12:28:37Z</time>
      </trkpt>
      <trkpt lat="43.45999" lon="5.64305">
        <ele>232.1</ele>
        <time>2016-01-23T12:28:38Z</time>
      </trkpt>
      <trkpt lat="43.45995" lon="5.64332">
        <ele>231.4</ele>
        <time>2016-01-23T12:28:39Z</time>
      </trkpt>
      <trkpt lat="43.45991" lon="5.64359">
        <ele>231.6</ele>
        <time>2016-01-23T12:28:40Z</time>
      </trkpt>
      <trkpt lat="43.45988" lon="5.64387">
        <ele>230.9</ele>
        <time>2016-01-23T12:28:41Z</time>
      </trkpt>
      <trkpt lat="43.45984" lon="5.64416">
        <ele>230.7</ele>
        <time>2016-01-23T12:28:42Z</time>
      </trkpt>
      <trkpt lat="43.45981" lon="5.64445">
        <ele>230.8</ele>
        <time>2016-01-23T12:28:43Z</time>
      </trkpt>
      <trkpt lat="43.45977" lon="5.64475">
        <ele>231.4</ele>
        <time>2016-01-23T12:28:44Z</time>
      </trkpt>
      <trkpt lat="43.45973" lon="5.64505">
        <ele>231.9</ele>
        <time>2016-01-23T12:28:45Z</time>
      </trkpt>
      <trkpt lat="43.45969" lon="5.64535">
        <ele>232</ele>
        <time>2016-01-23T12:28:46Z</time>
      </trkpt>
      <trkpt lat="43.45965" lon="5.64566">
        <ele>231.7</ele>
        <time>2016-01-23T12:28:47Z</time>
      </trkpt>
      <trkpt lat="43.45961" lon="5.64596">
        <ele>231.1</ele>
        <time>2016-01-23T12:28:48Z</time>
      </trkpt>
      <trkpt lat="43.45957" lon="5.64627">
        <ele>230.9</ele>
        <time>2016-01-23T12:28:49Z</time>
      </trkpt>
      <trkpt lat="43.45953" lon="5.64657">
        <ele>230.9</ele>
        <time>2016-01-23T12:28:50Z</time>
      </trkpt>
      <trkpt lat="43.45949" lon="5.64687">
        <ele>231.5</ele>
        <time>2016-01-23T12:28:51Z</time>
      </trkpt>
      <trkpt lat="43.45944" lon="5.64717">
        <ele>232</ele>
        <time>2016-01-23T12:28:52Z</time>
      </trkpt>
      <trkpt lat="43.4594" lon="5.64747">
        <ele>232</ele>
        <time>2016-01-23T12:28:53Z</time>
      </trkpt>
      <trkpt lat="43.45936" lon="5.64777">
        <ele>231.6</ele>
        <time>2016-01-23T12:28:54Z</time>
      </trkpt>
      <trkpt lat="43.45932" lon="5.64807">
        <ele>231.9</ele>
        <time>2016-01-23T12:28:55Z</time>
      </trkpt>
      <trkpt lat="43.45928" lon="5.64837">
        <ele>232.1</ele>
        <time>2016-01-23T12:28:56Z</time>
      </trkpt>
      <trkpt lat="43.45924" lon="5.64867">
        <ele>232.2</ele>
        <time>2016-01-23T12:28:57Z</time>
      </trkpt>
      <trkpt lat="43.4592" lon="5.64896">
        <ele>232.4</ele>
        <time>2016-01-23T12:28:58Z</time>
      </trkpt>
      <trkpt lat="43.45916" lon="5.64926">
        <ele>232</ele>
        <time>2016-01-23T12:28:59Z</time>
      </trkpt>
      <trkpt lat="43.45913" lon="5.64955">
        <ele>232.3</ele>
        <time>2016-01-23T12:29:00Z</time>
      </trkpt>
      <trkpt lat="43.45909" lon="5.64985">
        <ele>232.4</ele>
        <time>2016-01-23T12:29:01Z</time>
      </trkpt>
      <trkpt lat="43.45905" lon="5.65015">
        <ele>232.1</ele>
        <time>2016-01-23T12:29:02Z</time>
      </trkpt>
      <trkpt lat="43.45901" lon="5.65045">
        <ele>231.5</ele>
        <time>2016-01-23T12:29:03Z</time>
      </trkpt>
      <trkpt lat="43.45896" lon="5.65076">
        <ele>231.5</ele>
        <time>2016-01-23T12:29:04Z</time>
      </trkpt>
      <trkpt lat="43.45891" lon="5.65107">
        <ele>231.8</ele>
        <time>2016-01-23T12:29:05Z</time>
      </trkpt>
      <trkpt lat="43.45886" lon="5.65137">
        <ele>232.1</ele>
        <time>2016-01-23T12:29:06Z</time>
      </trkpt>
      <trkpt lat="43.45881" lon="5.65168">
        <ele>231.6</ele>
        <time>2016-01-23T12:29:07Z</time>
      </trkpt>
      <trkpt lat="43.45875" lon="5.65199">
        <ele>231.5</ele>
        <time>2016-01-23T12:29:08Z</time>
      </trkpt>
      <trkpt lat="43.45869" lon="5.65231">
        <ele>231.7</ele>
        <time>2016-01-23T12:29:09Z</time>
      </trkpt>
      <trkpt lat="43.45863" lon="5.65263">
        <ele>231.9</ele>
        <time>2016-01-23T12:29:10Z</time>
      </trkpt>
      <trkpt lat="43.45856" lon="5.65295">
        <ele>231.6</ele>
        <time>2016-01-23T12:29:11Z</time>
      </trkpt>
      <trkpt lat="43.45849" lon="5.65328">
        <ele>230.1</ele>
        <time>2016-01-23T12:29:12Z</time>
      </trkpt>
      <trkpt lat="43.45843" lon="5.6536">
        <ele>231.6</ele>
        <time>2016-01-23T12:29:13Z</time>
      </trkpt>
      <trkpt lat="43.45836" lon="5.65392">
        <ele>231</ele>
        <time>2016-01-23T12:29:14Z</time>
      </trkpt>
      <trkpt lat="43.45829" lon="5.65424">
        <ele>231.3</ele>
        <time>2016-01-23T12:29:15Z</time>
      </trkpt>
      <trkpt lat="43.45821" lon="5.65456">
        <ele>231.3</ele>
        <time>2016-01-23T12:29:16Z</time>
      </trkpt>
      <trkpt lat="43.45813" lon="5.65488">
        <ele>231</ele>
        <time>2016-01-23T12:29:17Z</time>
      </trkpt>
      <trkpt lat="43.45805" lon="5.65521">
        <ele>231</ele>
        <time>2016-01-23T12:29:18Z</time>
      </trkpt>
      <trkpt lat="43.45796" lon="5.65554">
        <ele>231.3</ele>
        <time>2016-01-23T12:29:19Z</time>
      </trkpt>
      <trkpt lat="43.45787" lon="5.65588">
        <ele>231</ele>
        <time>2016-01-23T12:29:20Z</time>
      </trkpt>
      <trkpt lat="43.45778" lon="5.65621">
        <ele>230.7</ele>
        <time>2016-01-23T12:29:21Z</time>
      </trkpt>
      <trkpt lat="43.45768" lon="5.65654">
        <ele>231.2</ele>
        <time>2016-01-23T12:29:22Z</time>
      </trkpt>
      <trkpt lat="43.45758" lon="5.65688">
        <ele>231.2</ele>
        <time>2016-01-23T12:29:23Z</time>
      </trkpt>
      <trkpt lat="43.45748" lon="5.65721">
        <ele>231.3</ele>
        <time>2016-01-23T12:29:24Z</time>
      </trkpt>
      <trkpt lat="43.45737" lon="5.65754">
        <ele>231.9</ele>
        <time>2016-01-23T12:29:25Z</time>
      </trkpt>
      <trkpt lat="43.45727" lon="5.65787">
        <ele>231.6</ele>
        <time>2016-01-23T12:29:26Z</time>
      </trkpt>
      <trkpt lat="43.45717" lon="5.6582">
        <ele>231.6</ele>
        <time>2016-01-23T12:29:27Z</time>
      </trkpt>
      <trkpt lat="43.45706" lon="5.65852">
        <ele>232.1</ele>
        <time>2016-01-23T12:29:28Z</time>
      </trkpt>
      <trkpt lat="43.45695" lon="5.65885">
        <ele>232</ele>
        <time>2016-01-23T12:29:29Z</time>
      </trkpt>
      <trkpt lat="43.45684" lon="5.65918">
        <ele>233.5</ele>
        <time>2016-01-23T12:29:30Z</time>
      </trkpt>
      <trkpt lat="43.45674" lon="5.65952">
        <ele>232.7</ele>
        <time>2016-01-23T12:29:31Z</time>
      </trkpt>
      <trkpt lat="43.45663" lon="5.65985">
        <ele>232.5</ele>
        <time>2016-01-23T12:29:32Z</time>
      </trkpt>
      <trkpt lat="43.45652" lon="5.66019">
        <ele>233.2</ele>
        <time>2016-01-23T12:29:33Z</time>
      </trkpt>
      <trkpt lat="43.4564" lon="5.66053">
        <ele>233</ele>
        <time>2016-01-23T12:29:34Z</time>
      </trkpt>
      <trkpt lat="43.45618" lon="5.66122">
        <ele>233</ele>
        <time>2016-01-23T12:29:36Z</time>
      </trkpt>
      <trkpt lat="43.45607" lon="5.66157">
        <ele>233.4</ele>
        <time>2016-01-23T12:29:37Z</time>
      </trkpt>
      <trkpt lat="43.45595" lon="5.66191">
        <ele>233.6</ele>
        <time>2016-01-23T12:29:38Z</time>
      </trkpt>
      <trkpt lat="43.45584" lon="5.66225">
        <ele>233</ele>
        <time>2016-01-23T12:29:39Z</time>
      </trkpt>
      <trkpt lat="43.45573" lon="5.66259">
        <ele>234.2</ele>
        <time>2016-01-23T12:29:40Z</time>
      </trkpt>
      <trkpt lat="43.45562" lon="5.66294">
        <ele>234.2</ele>
        <time>2016-01-23T12:29:41Z</time>
      </trkpt>
      <trkpt lat="43.4554" lon="5.6636">
        <ele>235</ele>
        <time>2016-01-23T12:29:43Z</time>
      </trkpt>
      <trkpt lat="43.45529" lon="5.66393">
        <ele>234.9</ele>
        <time>2016-01-23T12:29:44Z</time>
      </trkpt>
      <trkpt lat="43.45518" lon="5.66425">
        <ele>235.4</ele>
        <time>2016-01-23T12:29:45Z</time>
      </trkpt>
      <trkpt lat="43.45507" lon="5.66457">
        <ele>235.5</ele>
        <time>2016-01-23T12:29:46Z</time>
      </trkpt>
      <trkpt lat="43.45496" lon="5.66489">
        <ele>236.2</ele>
        <time>2016-01-23T12:29:47Z</time>
      </trkpt>
      <trkpt lat="43.45485" lon="5.66521">
        <ele>236.5</ele>
        <time>2016-01-23T12:29:48Z</time>
      </trkpt>
      <trkpt lat="43.45474" lon="5.66552">
        <ele>236.9</ele>
        <time>2016-01-23T12:29:49Z</time>
      </trkpt>
      <trkpt lat="43.45451" lon="5.66614">
        <ele>237.5</ele>
        <time>2016-01-23T12:29:51Z</time>
      </trkpt>
      <trkpt lat="43.4544" lon="5.66644">
        <ele>238</ele>
        <time>2016-01-23T12:29:52Z</time>
      </trkpt>
      <trkpt lat="43.45428" lon="5.66675">
        <ele>238.3</ele>
        <time>2016-01-23T12:29:53Z</time>
      </trkpt>
      <trkpt lat="43.45416" lon="5.66704">
        <ele>239</ele>
        <time>2016-01-23T12:29:54Z</time>
      </trkpt>
      <trkpt lat="43.45405" lon="5.66734">
        <ele>238.8</ele>
        <time>2016-01-23T12:29:55Z</time>
      </trkpt>
      <trkpt lat="43.45383" lon="5.6679">
        <ele>240.1</ele>
        <time>2016-01-23T12:29:57Z</time>
      </trkpt>
      <trkpt lat="43.45361" lon="5.66844">
        <ele>240</ele>
        <time>2016-01-23T12:29:59Z</time>
      </trkpt>
      <trkpt lat="43.4535" lon="5.66871">
        <ele>240.6</ele>
        <time>2016-01-23T12:30:00Z</time>
      </trkpt>
      <trkpt lat="43.45339" lon="5.66897">
        <ele>241.1</ele>
        <time>2016-01-23T12:30:01Z</time>
      </trkpt>
      <trkpt lat="43.45319" lon="5.66947">
        <ele>241.5</ele>
        <time>2016-01-23T12:30:03Z</time>
      </trkpt>
      <trkpt lat="43.45309" lon="5.66971">
        <ele>241.9</ele>
        <time>2016-01-23T12:30:04Z</time>
      </trkpt>
      <trkpt lat="43.45291" lon="5.67017">
        <ele>242.2</ele>
        <time>2016-01-23T12:30:06Z</time>
      </trkpt>
      <trkpt lat="43.45282" lon="5.67038">
        <ele>242.7</ele>
        <time>2016-01-23T12:30:07Z</time>
      </trkpt>
      <trkpt lat="43.45274" lon="5.67059">
        <ele>243</ele>
        <time>2016-01-23T12:30:08Z</time>
      </trkpt>
      <trkpt lat="43.45258" lon="5.67098">
        <ele>243.1</ele>
        <time>2016-01-23T12:30:10Z</time>
      </trkpt>
      <trkpt lat="43.45251" lon="5.67115">
        <ele>243.9</ele>
        <time>2016-01-23T12:30:11Z</time>
      </trkpt>
      <trkpt lat="43.45237" lon="5.67147">
        <ele>243.8</ele>
        <time>2016-01-23T12:30:13Z</time>
      </trkpt>
      <trkpt lat="43.4523" lon="5.67161">
        <ele>243.8</ele>
        <time>2016-01-23T12:30:14Z</time>
      </trkpt>
      <trkpt lat="43.45222" lon="5.67171">
        <ele>244.3</ele>
        <time>2016-01-23T12:30:15Z</time>
      </trkpt>
      <trkpt lat="43.45213" lon="5.6718">
        <ele>245</ele>
        <time>2016-01-23T12:30:16Z</time>
      </trkpt>
      <trkpt lat="43.45205" lon="5.67186">
        <ele>245.2</ele>
        <time>2016-01-23T12:30:17Z</time>
      </trkpt>
      <trkpt lat="43.45197" lon="5.67203">
        <ele>245</ele>
        <time>2016-01-23T12:30:19Z</time>
      </trkpt>
      <trkpt lat="43.45198" lon="5.67219">
        <ele>244.9</ele>
        <time>2016-01-23T12:30:21Z</time>
      </trkpt>
      <trkpt lat="43.45201" lon="5.67226">
        <ele>244.7</ele>
        <time>2016-01-23T12:30:22Z</time>
      </trkpt>
      <trkpt lat="43.45209" lon="5.67231">
        <ele>244.3</ele>
        <time>2016-01-23T12:30:23Z</time>
      </trkpt>
      <trkpt lat="43.45226" lon="5.67236">
        <ele>243.5</ele>
        <time>2016-01-23T12:30:25Z</time>
      </trkpt>
      <trkpt lat="43.45244" lon="5.67247">
        <ele>243.1</ele>
        <time>2016-01-23T12:30:27Z</time>
      </trkpt>
      <trkpt lat="43.45252" lon="5.6726">
        <ele>242.9</ele>
        <time>2016-01-23T12:30:28Z</time>
      </trkpt>
      <trkpt lat="43.45258" lon="5.67275">
        <ele>242.2</ele>
        <time>2016-01-23T12:30:29Z</time>
      </trkpt>
      <trkpt lat="43.45262" lon="5.67292">
        <ele>241.9</ele>
        <time>2016-01-23T12:30:30Z</time>
      </trkpt>
      <trkpt lat="43.45271" lon="5.6733">
        <ele>243.2</ele>
        <time>2016-01-23T12:30:32Z</time>
      </trkpt>
      <trkpt lat="43.45273" lon="5.67351">
        <ele>243.9</ele>
        <time>2016-01-23T12:30:33Z</time>
      </trkpt>
      <trkpt lat="43.45273" lon="5.67373">
        <ele>244</ele>
        <time>2016-01-23T12:30:34Z</time>
      </trkpt>
      <trkpt lat="43.45269" lon="5.67396">
        <ele>244</ele>
        <time>2016-01-23T12:30:35Z</time>
      </trkpt>
      <trkpt lat="43.45262" lon="5.67418">
        <ele>244</ele>
        <time>2016-01-23T12:30:36Z</time>
      </trkpt>
      <trkpt lat="43.45252" lon="5.67439">
        <ele>244</ele>
        <time>2016-01-23T12:30:37Z</time>
      </trkpt>
      <trkpt lat="43.4524" lon="5.67458">
        <ele>244</ele>
        <time>2016-01-23T12:30:38Z</time>
      </trkpt>
      <trkpt lat="43.45226" lon="5.67474">
        <ele>244</ele>
        <time>2016-01-23T12:30:39Z</time>
      </trkpt>
      <trkpt lat="43.45214" lon="5.67492">
        <ele>244</ele>
        <time>2016-01-23T12:30:40Z</time>
      </trkpt>
      <trkpt lat="43.45204" lon="5.67512">
        <ele>244</ele>
        <time>2016-01-23T12:30:41Z</time>
      </trkpt>
      <trkpt lat="43.45195" lon="5.67534">
        <ele>244</ele>
        <time>2016-01-23T12:30:42Z</time>
      </trkpt>
      <trkpt lat="43.45186" lon="5.67557">
        <ele>243.7</ele>
        <time>2016-01-23T12:30:43Z</time>
      </trkpt>
      <trkpt lat="43.45178" lon="5.67581">
        <ele>244</ele>
        <time>2016-01-23T12:30:44Z</time>
      </trkpt>
      <trkpt lat="43.4517" lon="5.67606">
        <ele>244</ele>
        <time>2016-01-23T12:30:45Z</time>
      </trkpt>
      <trkpt lat="43.45162" lon="5.67631">
        <ele>243.9</ele>
        <time>2016-01-23T12:30:46Z</time>
      </trkpt>
      <trkpt lat="43.45154" lon="5.67655">
        <ele>243.6</ele>
        <time>2016-01-23T12:30:47Z</time>
      </trkpt>
      <trkpt lat="43.45147" lon="5.6768">
        <ele>243.5</ele>
        <time>2016-01-23T12:30:48Z</time>
      </trkpt>
      <trkpt lat="43.45141" lon="5.67703">
        <ele>243.9</ele>
        <time>2016-01-23T12:30:49Z</time>
      </trkpt>
      <trkpt lat="43.45136" lon="5.67725">
        <ele>243.8</ele>
        <time>2016-01-23T12:30:50Z</time>
      </trkpt>
      <trkpt lat="43.45133" lon="5.67747">
        <ele>243.1</ele>
        <time>2016-01-23T12:30:51Z</time>
      </trkpt>
      <trkpt lat="43.45131" lon="5.67768">
        <ele>243</ele>
        <time>2016-01-23T12:30:52Z</time>
      </trkpt>
      <trkpt lat="43.4513" lon="5.67788">
        <ele>243</ele>
        <time>2016-01-23T12:30:53Z</time>
      </trkpt>
      <trkpt lat="43.45129" lon="5.67808">
        <ele>242.9</ele>
        <time>2016-01-23T12:30:54Z</time>
      </trkpt>
      <trkpt lat="43.45129" lon="5.67828">
        <ele>242.5</ele>
        <time>2016-01-23T12:30:55Z</time>
      </trkpt>
      <trkpt lat="43.45128" lon="5.67849">
        <ele>242.1</ele>
        <time>2016-01-23T12:30:56Z</time>
      </trkpt>
      <trkpt lat="43.45127" lon="5.67869">
        <ele>241.6</ele>
        <time>2016-01-23T12:30:57Z</time>
      </trkpt>
      <trkpt lat="43.45124" lon="5.6789">
        <ele>241</ele>
        <time>2016-01-23T12:30:58Z</time>
      </trkpt>
      <trkpt lat="43.45121" lon="5.67911">
        <ele>240.8</ele>
        <time>2016-01-23T12:30:59Z</time>
      </trkpt>
      <trkpt lat="43.45118" lon="5.67932">
        <ele>240.3</ele>
        <time>2016-01-23T12:31:00Z</time>
      </trkpt>
      <trkpt lat="43.45115" lon="5.67953">
        <ele>240</ele>
        <time>2016-01-23T12:31:01Z</time>
      </trkpt>
      <trkpt lat="43.45111" lon="5.67974">
        <ele>239.9</ele>
        <time>2016-01-23T12:31:02Z</time>
      </trkpt>
      <trkpt lat="43.45108" lon="5.67995">
        <ele>239.3</ele>
        <time>2016-01-23T12:31:03Z</time>
      </trkpt>
      <trkpt lat="43.45105" lon="5.68016">
        <ele>238.8</ele>
        <time>2016-01-23T12:31:04Z</time>
      </trkpt>
      <trkpt lat="43.45102" lon="5.68037">
        <ele>238.8</ele>
        <time>2016-01-23T12:31:05Z</time>
      </trkpt>
      <trkpt lat="43.45098" lon="5.68059">
        <ele>238.9</ele>
        <time>2016-01-23T12:31:06Z</time>
      </trkpt>
      <trkpt lat="43.45095" lon="5.6808">
        <ele>238.6</ele>
        <time>2016-01-23T12:31:07Z</time>
      </trkpt>
      <trkpt lat="43.45091" lon="5.68102">
        <ele>238.7</ele>
        <time>2016-01-23T12:31:08Z</time>
      </trkpt>
      <trkpt lat="43.45088" lon="5.68124">
        <ele>238.8</ele>
        <time>2016-01-23T12:31:09Z</time>
      </trkpt>
      <trkpt lat="43.45084" lon="5.68146">
        <ele>239</ele>
        <time>2016-01-23T12:31:10Z</time>
      </trkpt>
      <trkpt lat="43.45081" lon="5.68168">
        <ele>238.9</ele>
        <time>2016-01-23T12:31:11Z</time>
      </trkpt>
      <trkpt lat="43.45077" lon="5.6819">
        <ele>238.1</ele>
        <time>2016-01-23T12:31:12Z</time>
      </trkpt>
      <trkpt lat="43.45074" lon="5.68212">
        <ele>238</ele>
        <time>2016-01-23T12:31:13Z</time>
      </trkpt>
      <trkpt lat="43.45071" lon="5.68234">
        <ele>238</ele>
        <time>2016-01-23T12:31:14Z</time>
      </trkpt>
      <trkpt lat="43.45068" lon="5.68257">
        <ele>238</ele>
        <time>2016-01-23T12:31:15Z</time>
      </trkpt>
      <trkpt lat="43.45065" lon="5.68279">
        <ele>238</ele>
        <time>2016-01-23T12:31:16Z</time>
      </trkpt>
      <trkpt lat="43.45062" lon="5.683">
        <ele>238</ele>
        <time>2016-01-23T12:31:17Z</time>
      </trkpt>
      <trkpt lat="43.4506" lon="5.68321">
        <ele>237.9</ele>
        <time>2016-01-23T12:31:18Z</time>
      </trkpt>
      <trkpt lat="43.45058" lon="5.68341">
        <ele>237.7</ele>
        <time>2016-01-23T12:31:19Z</time>
      </trkpt>
      <trkpt lat="43.45057" lon="5.68359">
        <ele>237.1</ele>
        <time>2016-01-23T12:31:20Z</time>
      </trkpt>
      <trkpt lat="43.45056" lon="5.68376">
        <ele>237.5</ele>
        <time>2016-01-23T12:31:21Z</time>
      </trkpt>
      <trkpt lat="43.45054" lon="5.68391">
        <ele>238</ele>
        <time>2016-01-23T12:31:22Z</time>
      </trkpt>
      <trkpt lat="43.45052" lon="5.68404">
        <ele>238.4</ele>
        <time>2016-01-23T12:31:23Z</time>
      </trkpt>
      <trkpt lat="43.45049" lon="5.68414">
        <ele>238.7</ele>
        <time>2016-01-23T12:31:24Z</time>
      </trkpt>
      <trkpt lat="43.45047" lon="5.68425">
        <ele>238.5</ele>
        <time>2016-01-23T12:31:25Z</time>
      </trkpt>
      <trkpt lat="43.45046" lon="5.68436">
        <ele>238.2</ele>
        <time>2016-01-23T12:31:26Z</time>
      </trkpt>
      <trkpt lat="43.45048" lon="5.68447">
        <ele>238</ele>
        <time>2016-01-23T12:31:27Z</time>
      </trkpt>
      <trkpt lat="43.45049" lon="5.68459">
        <ele>238</ele>
        <time>2016-01-23T12:31:28Z</time>
      </trkpt>
      <trkpt lat="43.45051" lon="5.68472">
        <ele>238</ele>
        <time>2016-01-23T12:31:29Z</time>
      </trkpt>
      <trkpt lat="43.45051" lon="5.68487">
        <ele>238</ele>
        <time>2016-01-23T12:31:30Z</time>
      </trkpt>
      <trkpt lat="43.4505" lon="5.68504">
        <ele>238</ele>
        <time>2016-01-23T12:31:31Z</time>
      </trkpt>
      <trkpt lat="43.45049" lon="5.68522">
        <ele>238</ele>
        <time>2016-01-23T12:31:32Z</time>
      </trkpt>
      <trkpt lat="43.45048" lon="5.68541">
        <ele>237.5</ele>
        <time>2016-01-23T12:31:33Z</time>
      </trkpt>
      <trkpt lat="43.45046" lon="5.68559">
        <ele>237</ele>
        <time>2016-01-23T12:31:34Z</time>
      </trkpt>
      <trkpt lat="43.45043" lon="5.68577">
        <ele>237.3</ele>
        <time>2016-01-23T12:31:35Z</time>
      </trkpt>
      <trkpt lat="43.45041" lon="5.68597">
        <ele>237.3</ele>
        <time>2016-01-23T12:31:36Z</time>
      </trkpt>
      <trkpt lat="43.45037" lon="5.68616">
        <ele>237.3</ele>
        <time>2016-01-23T12:31:37Z</time>
      </trkpt>
      <trkpt lat="43.45033" lon="5.68637">
        <ele>238.5</ele>
        <time>2016-01-23T12:31:38Z</time>
      </trkpt>
      <trkpt lat="43.45028" lon="5.68658">
        <ele>239</ele>
        <time>2016-01-23T12:31:39Z</time>
      </trkpt>
      <trkpt lat="43.45022" lon="5.68679">
        <ele>238.5</ele>
        <time>2016-01-23T12:31:40Z</time>
      </trkpt>
      <trkpt lat="43.45016" lon="5.68701">
        <ele>238.4</ele>
        <time>2016-01-23T12:31:41Z</time>
      </trkpt>
      <trkpt lat="43.45008" lon="5.68721">
        <ele>238.7</ele>
        <time>2016-01-23T12:31:42Z</time>
      </trkpt>
      <trkpt lat="43.45" lon="5.68741">
        <ele>239.7</ele>
        <time>2016-01-23T12:31:43Z</time>
      </trkpt>
      <trkpt lat="43.44992" lon="5.68761">
        <ele>239.7</ele>
        <time>2016-01-23T12:31:44Z</time>
      </trkpt>
      <trkpt lat="43.44984" lon="5.6878">
        <ele>239.6</ele>
        <time>2016-01-23T12:31:45Z</time>
      </trkpt>
      <trkpt lat="43.44975" lon="5.68799">
        <ele>240.6</ele>
        <time>2016-01-23T12:31:46Z</time>
      </trkpt>
      <trkpt lat="43.44967" lon="5.68818">
        <ele>240.8</ele>
        <time>2016-01-23T12:31:47Z</time>
      </trkpt>
      <trkpt lat="43.44959" lon="5.68836">
        <ele>241</ele>
        <time>2016-01-23T12:31:48Z</time>
      </trkpt>
      <trkpt lat="43.44951" lon="5.68853">
        <ele>241.5</ele>
        <time>2016-01-23T12:31:49Z</time>
      </trkpt>
      <trkpt lat="43.44944" lon="5.68869">
        <ele>241.7</ele>
        <time>2016-01-23T12:31:50Z</time>
      </trkpt>
      <trkpt lat="43.44937" lon="5.68884">
        <ele>241.4</ele>
        <time>2016-01-23T12:31:51Z</time>
      </trkpt>
      <trkpt lat="43.44932" lon="5.68896">
        <ele>241.7</ele>
        <time>2016-01-23T12:31:52Z</time>
      </trkpt>
      <trkpt lat="43.44928" lon="5.68905">
        <ele>242.2</ele>
        <time>2016-01-23T12:31:53Z</time>
      </trkpt>
      <trkpt lat="43.44924" lon="5.68914">
        <ele>242.6</ele>
        <time>2016-01-23T12:31:54Z</time>
      </trkpt>
      <trkpt lat="43.4492" lon="5.68922">
        <ele>242.7</ele>
        <time>2016-01-23T12:31:55Z</time>
      </trkpt>
      <trkpt lat="43.44917" lon="5.68932">
        <ele>242.5</ele>
        <time>2016-01-23T12:31:56Z</time>
      </trkpt>
      <trkpt lat="43.44917" lon="5.68942">
        <ele>242.1</ele>
        <time>2016-01-23T12:31:57Z</time>
      </trkpt>
      <trkpt lat="43.4492" lon="5.68955">
        <ele>241.6</ele>
        <time>2016-01-23T12:31:58Z</time>
      </trkpt>
      <trkpt lat="43.44923" lon="5.68968">
        <ele>241.2</ele>
        <time>2016-01-23T12:31:59Z</time>
      </trkpt>
      <trkpt lat="43.44926" lon="5.68981">
        <ele>241</ele>
        <time>2016-01-23T12:32:00Z</time>
      </trkpt>
      <trkpt lat="43.44931" lon="5.68994">
        <ele>241</ele>
        <time>2016-01-23T12:32:01Z</time>
      </trkpt>
      <trkpt lat="43.4494" lon="5.69008">
        <ele>241</ele>
        <time>2016-01-23T12:32:02Z</time>
      </trkpt>
      <trkpt lat="43.44949" lon="5.69022">
        <ele>241</ele>
        <time>2016-01-23T12:32:03Z</time>
      </trkpt>
      <trkpt lat="43.44959" lon="5.69036">
        <ele>241.1</ele>
        <time>2016-01-23T12:32:04Z</time>
      </trkpt>
      <trkpt lat="43.44969" lon="5.69052">
        <ele>241.1</ele>
        <time>2016-01-23T12:32:05Z</time>
      </trkpt>
      <trkpt lat="43.44979" lon="5.69069">
        <ele>241.2</ele>
        <time>2016-01-23T12:32:06Z</time>
      </trkpt>
      <trkpt lat="43.44988" lon="5.69087">
        <ele>241.5</ele>
        <time>2016-01-23T12:32:07Z</time>
      </trkpt>
      <trkpt lat="43.44996" lon="5.69106">
        <ele>241.1</ele>
        <time>2016-01-23T12:32:08Z</time>
      </trkpt>
      <trkpt lat="43.45006" lon="5.69126">
        <ele>240.9</ele>
        <time>2016-01-23T12:32:09Z</time>
      </trkpt>
      <trkpt lat="43.45016" lon="5.69148">
        <ele>241</ele>
        <time>2016-01-23T12:32:10Z</time>
      </trkpt>
      <trkpt lat="43.45026" lon="5.69169">
        <ele>241</ele>
        <time>2016-01-23T12:32:11Z</time>
      </trkpt>
      <trkpt lat="43.45036" lon="5.6919">
        <ele>241</ele>
        <time>2016-01-23T12:32:12Z</time>
      </trkpt>
      <trkpt lat="43.45045" lon="5.69212">
        <ele>241</ele>
        <time>2016-01-23T12:32:13Z</time>
      </trkpt>
      <trkpt lat="43.45055" lon="5.69235">
        <ele>241</ele>
        <time>2016-01-23T12:32:14Z</time>
      </trkpt>
      <trkpt lat="43.45066" lon="5.69258">
        <ele>241</ele>
        <time>2016-01-23T12:32:15Z</time>
      </trkpt>
      <trkpt lat="43.45076" lon="5.69282">
        <ele>241</ele>
        <time>2016-01-23T12:32:16Z</time>
      </trkpt>
      <trkpt lat="43.45088" lon="5.69307">
        <ele>241</ele>
        <time>2016-01-23T12:32:17Z</time>
      </trkpt>
      <trkpt lat="43.451" lon="5.69332">
        <ele>241</ele>
        <time>2016-01-23T12:32:18Z</time>
      </trkpt>
      <trkpt lat="43.45112" lon="5.69358">
        <ele>241</ele>
        <time>2016-01-23T12:32:19Z</time>
      </trkpt>
      <trkpt lat="43.45124" lon="5.69384">
        <ele>241</ele>
        <time>2016-01-23T12:32:20Z</time>
      </trkpt>
      <trkpt lat="43.45136" lon="5.6941">
        <ele>241</ele>
        <time>2016-01-23T12:32:21Z</time>
      </trkpt>
      <trkpt lat="43.45148" lon="5.69436">
        <ele>241</ele>
        <time>2016-01-23T12:32:22Z</time>
      </trkpt>
      <trkpt lat="43.4516" lon="5.69463">
        <ele>241.7</ele>
        <time>2016-01-23T12:32:23Z</time>
      </trkpt>
      <trkpt lat="43.45173" lon="5.6949">
        <ele>241.9</ele>
        <time>2016-01-23T12:32:24Z</time>
      </trkpt>
      <trkpt lat="43.45185" lon="5.69518">
        <ele>242</ele>
        <time>2016-01-23T12:32:25Z</time>
      </trkpt>
      <trkpt lat="43.45197" lon="5.69545">
        <ele>242.5</ele>
        <time>2016-01-23T12:32:26Z</time>
      </trkpt>
      <trkpt lat="43.4521" lon="5.69573">
        <ele>241.9</ele>
        <time>2016-01-23T12:32:27Z</time>
      </trkpt>
      <trkpt lat="43.45223" lon="5.696">
        <ele>242.6</ele>
        <time>2016-01-23T12:32:28Z</time>
      </trkpt>
      <trkpt lat="43.45235" lon="5.69628">
        <ele>242.5</ele>
        <time>2016-01-23T12:32:29Z</time>
      </trkpt>
      <trkpt lat="43.45248" lon="5.69656">
        <ele>243.2</ele>
        <time>2016-01-23T12:32:30Z</time>
      </trkpt>
      <trkpt lat="43.4526" lon="5.69683">
        <ele>244</ele>
        <time>2016-01-23T12:32:31Z</time>
      </trkpt>
      <trkpt lat="43.45273" lon="5.69711">
        <ele>244.5</ele>
        <time>2016-01-23T12:32:32Z</time>
      </trkpt>
      <trkpt lat="43.45286" lon="5.69739">
        <ele>245.7</ele>
        <time>2016-01-23T12:32:33Z</time>
      </trkpt>
      <trkpt lat="43.45298" lon="5.69767">
        <ele>246.4</ele>
        <time>2016-01-23T12:32:34Z</time>
      </trkpt>
      <trkpt lat="43.45311" lon="5.69795">
        <ele>247</ele>
        <time>2016-01-23T12:32:35Z</time>
      </trkpt>
      <trkpt lat="43.45323" lon="5.69823">
        <ele>247</ele>
        <time>2016-01-23T12:32:36Z</time>
      </trkpt>
      <trkpt lat="43.45336" lon="5.6985">
        <ele>247.5</ele>
        <time>2016-01-23T12:32:37Z</time>
      </trkpt>
      <trkpt lat="43.45349" lon="5.69878">
        <ele>248</ele>
        <time>2016-01-23T12:32:38Z</time>
      </trkpt>
      <trkpt lat="43.45362" lon="5.69906">
        <ele>248.6</ele>
        <time>2016-01-23T12:32:39Z</time>
      </trkpt>
      <trkpt lat="43.45375" lon="5.69933">
        <ele>249.1</ele>
        <time>2016-01-23T12:32:40Z</time>
      </trkpt>
      <trkpt lat="43.45388" lon="5.69962">
        <ele>249</ele>
        <time>2016-01-23T12:32:41Z</time>
      </trkpt>
      <trkpt lat="43.45401" lon="5.6999">
        <ele>249.3</ele>
        <time>2016-01-23T12:32:42Z</time>
      </trkpt>
      <trkpt lat="43.45414" lon="5.70018">
        <ele>248.8</ele>
        <time>2016-01-23T12:32:43Z</time>
      </trkpt>
      <trkpt lat="43.45427" lon="5.70046">
        <ele>248.5</ele>
        <time>2016-01-23T12:32:44Z</time>
      </trkpt>
      <trkpt lat="43.4544" lon="5.70075">
        <ele>248.2</ele>
        <time>2016-01-23T12:32:45Z</time>
      </trkpt>
      <trkpt lat="43.45452" lon="5.70102">
        <ele>248.5</ele>
        <time>2016-01-23T12:32:46Z</time>
      </trkpt>
      <trkpt lat="43.45465" lon="5.7013">
        <ele>248.8</ele>
        <time>2016-01-23T12:32:47Z</time>
      </trkpt>
      <trkpt lat="43.45477" lon="5.70158">
        <ele>248.8</ele>
        <time>2016-01-23T12:32:48Z</time>
      </trkpt>
      <trkpt lat="43.45489" lon="5.70184">
        <ele>248.8</ele>
        <time>2016-01-23T12:32:49Z</time>
      </trkpt>
      <trkpt lat="43.45501" lon="5.7021">
        <ele>249.5</ele>
        <time>2016-01-23T12:32:50Z</time>
      </trkpt>
      <trkpt lat="43.45513" lon="5.70235">
        <ele>249.3</ele>
        <time>2016-01-23T12:32:51Z</time>
      </trkpt>
      <trkpt lat="43.45524" lon="5.7026">
        <ele>249.3</ele>
        <time>2016-01-23T12:32:52Z</time>
      </trkpt>
      <trkpt lat="43.45535" lon="5.70284">
        <ele>250</ele>
        <time>2016-01-23T12:32:53Z</time>
      </trkpt>
      <trkpt lat="43.45546" lon="5.70309">
        <ele>250</ele>
        <time>2016-01-23T12:32:54Z</time>
      </trkpt>
      <trkpt lat="43.45558" lon="5.70334">
        <ele>249.8</ele>
        <time>2016-01-23T12:32:55Z</time>
      </trkpt>
      <trkpt lat="43.45568" lon="5.70358">
        <ele>248.5</ele>
        <time>2016-01-23T12:32:56Z</time>
      </trkpt>
      <trkpt lat="43.45578" lon="5.70381">
        <ele>248.1</ele>
        <time>2016-01-23T12:32:57Z</time>
      </trkpt>
      <trkpt lat="43.45588" lon="5.70403">
        <ele>248.9</ele>
        <time>2016-01-23T12:32:58Z</time>
      </trkpt>
      <trkpt lat="43.45598" lon="5.70425">
        <ele>249.3</ele>
        <time>2016-01-23T12:32:59Z</time>
      </trkpt>
      <trkpt lat="43.45608" lon="5.70447">
        <ele>249.1</ele>
        <time>2016-01-23T12:33:00Z</time>
      </trkpt>
      <trkpt lat="43.45618" lon="5.70468">
        <ele>249.9</ele>
        <time>2016-01-23T12:33:01Z</time>
      </trkpt>
      <trkpt lat="43.45627" lon="5.7049">
        <ele>250.4</ele>
        <time>2016-01-23T12:33:02Z</time>
      </trkpt>
      <trkpt lat="43.45637" lon="5.70512">
        <ele>251</ele>
        <time>2016-01-23T12:33:03Z</time>
      </trkpt>
      <trkpt lat="43.45646" lon="5.70533">
        <ele>250.8</ele>
        <time>2016-01-23T12:33:04Z</time>
      </trkpt>
      <trkpt lat="43.45655" lon="5.70554">
        <ele>250.4</ele>
        <time>2016-01-23T12:33:05Z</time>
      </trkpt>
      <trkpt lat="43.45664" lon="5.70575">
        <ele>250.1</ele>
        <time>2016-01-23T12:33:06Z</time>
      </trkpt>
      <trkpt lat="43.45673" lon="5.70596">
        <ele>249.8</ele>
        <time>2016-01-23T12:33:07Z</time>
      </trkpt>
      <trkpt lat="43.45682" lon="5.70616">
        <ele>249.6</ele>
        <time>2016-01-23T12:33:08Z</time>
      </trkpt>
      <trkpt lat="43.45691" lon="5.70638">
        <ele>250</ele>
        <time>2016-01-23T12:33:09Z</time>
      </trkpt>
      <trkpt lat="43.45701" lon="5.70659">
        <ele>249.7</ele>
        <time>2016-01-23T12:33:10Z</time>
      </trkpt>
      <trkpt lat="43.45711" lon="5.70681">
        <ele>249.5</ele>
        <time>2016-01-23T12:33:11Z</time>
      </trkpt>
      <trkpt lat="43.45721" lon="5.70704">
        <ele>250</ele>
        <time>2016-01-23T12:33:12Z</time>
      </trkpt>
      <trkpt lat="43.45731" lon="5.70727">
        <ele>250.1</ele>
        <time>2016-01-23T12:33:13Z</time>
      </trkpt>
      <trkpt lat="43.45742" lon="5.70751">
        <ele>250.7</ele>
        <time>2016-01-23T12:33:14Z</time>
      </trkpt>
      <trkpt lat="43.45754" lon="5.70776">
        <ele>250.9</ele>
        <time>2016-01-23T12:33:15Z</time>
      </trkpt>
      <trkpt lat="43.45766" lon="5.70802">
        <ele>251.3</ele>
        <time>2016-01-23T12:33:16Z</time>
      </trkpt>
      <trkpt lat="43.4578" lon="5.70832">
        <ele>250.9</ele>
        <time>2016-01-23T12:33:17Z</time>
      </trkpt>
      <trkpt lat="43.45794" lon="5.70863">
        <ele>251</ele>
        <time>2016-01-23T12:33:18Z</time>
      </trkpt>
      <trkpt lat="43.45809" lon="5.70894">
        <ele>250.8</ele>
        <time>2016-01-23T12:33:19Z</time>
      </trkpt>
      <trkpt lat="43.45823" lon="5.70924">
        <ele>249.6</ele>
        <time>2016-01-23T12:33:20Z</time>
      </trkpt>
      <trkpt lat="43.45835" lon="5.70953">
        <ele>249.3</ele>
        <time>2016-01-23T12:33:21Z</time>
      </trkpt>
      <trkpt lat="43.45848" lon="5.7098">
        <ele>249.6</ele>
        <time>2016-01-23T12:33:22Z</time>
      </trkpt>
      <trkpt lat="43.4586" lon="5.71006">
        <ele>250.2</ele>
        <time>2016-01-23T12:33:23Z</time>
      </trkpt>
      <trkpt lat="43.45872" lon="5.71031">
        <ele>250.6</ele>
        <time>2016-01-23T12:33:24Z</time>
      </trkpt>
      <trkpt lat="43.45883" lon="5.71055">
        <ele>250.2</ele>
        <time>2016-01-23T12:33:25Z</time>
      </trkpt>
      <trkpt lat="43.45895" lon="5.7108">
        <ele>250.9</ele>
        <time>2016-01-23T12:33:26Z</time>
      </trkpt>
      <trkpt lat="43.45907" lon="5.71108">
        <ele>251</ele>
        <time>2016-01-23T12:33:27Z</time>
      </trkpt>
      <trkpt lat="43.45919" lon="5.71136">
        <ele>251.8</ele>
        <time>2016-01-23T12:33:28Z</time>
      </trkpt>
      <trkpt lat="43.45931" lon="5.71164">
        <ele>251.5</ele>
        <time>2016-01-23T12:33:29Z</time>
      </trkpt>
      <trkpt lat="43.45943" lon="5.71194">
        <ele>252</ele>
        <time>2016-01-23T12:33:30Z</time>
      </trkpt>
      <trkpt lat="43.45956" lon="5.71222">
        <ele>252</ele>
        <time>2016-01-23T12:33:31Z</time>
      </trkpt>
      <trkpt lat="43.45969" lon="5.71252">
        <ele>252</ele>
        <time>2016-01-23T12:33:32Z</time>
      </trkpt>
      <trkpt lat="43.45982" lon="5.71282">
        <ele>252.1</ele>
        <time>2016-01-23T12:33:33Z</time>
      </trkpt>
      <trkpt lat="43.45995" lon="5.71312">
        <ele>252.4</ele>
        <time>2016-01-23T12:33:34Z</time>
      </trkpt>
      <trkpt lat="43.46009" lon="5.71342">
        <ele>252.7</ele>
        <time>2016-01-23T12:33:35Z</time>
      </trkpt>
      <trkpt lat="43.46022" lon="5.71372">
        <ele>252.5</ele>
        <time>2016-01-23T12:33:36Z</time>
      </trkpt>
      <trkpt lat="43.46036" lon="5.71403">
        <ele>252.9</ele>
        <time>2016-01-23T12:33:37Z</time>
      </trkpt>
      <trkpt lat="43.4605" lon="5.71434">
        <ele>253.6</ele>
        <time>2016-01-23T12:33:38Z</time>
      </trkpt>
      <trkpt lat="43.46063" lon="5.71465">
        <ele>253.9</ele>
        <time>2016-01-23T12:33:39Z</time>
      </trkpt>
      <trkpt lat="43.46077" lon="5.71495">
        <ele>254.6</ele>
        <time>2016-01-23T12:33:40Z</time>
      </trkpt>
      <trkpt lat="43.4609" lon="5.71525">
        <ele>255.6</ele>
        <time>2016-01-23T12:33:41Z</time>
      </trkpt>
      <trkpt lat="43.46103" lon="5.71555">
        <ele>256</ele>
        <time>2016-01-23T12:33:42Z</time>
      </trkpt>
      <trkpt lat="43.46116" lon="5.71584">
        <ele>257.8</ele>
        <time>2016-01-23T12:33:43Z</time>
      </trkpt>
      <trkpt lat="43.46129" lon="5.71614">
        <ele>257.8</ele>
        <time>2016-01-23T12:33:44Z</time>
      </trkpt>
      <trkpt lat="43.46142" lon="5.71643">
        <ele>259.8</ele>
        <time>2016-01-23T12:33:45Z</time>
      </trkpt>
      <trkpt lat="43.46155" lon="5.71673">
        <ele>260.8</ele>
        <time>2016-01-23T12:33:46Z</time>
      </trkpt>
      <trkpt lat="43.46168" lon="5.71702">
        <ele>262.3</ele>
        <time>2016-01-23T12:33:47Z</time>
      </trkpt>
      <trkpt lat="43.46181" lon="5.71731">
        <ele>264.1</ele>
        <time>2016-01-23T12:33:48Z</time>
      </trkpt>
      <trkpt lat="43.46195" lon="5.71761">
        <ele>264.6</ele>
        <time>2016-01-23T12:33:49Z</time>
      </trkpt>
      <trkpt lat="43.46208" lon="5.7179">
        <ele>265.4</ele>
        <time>2016-01-23T12:33:50Z</time>
      </trkpt>
      <trkpt lat="43.46221" lon="5.7182">
        <ele>266.5</ele>
        <time>2016-01-23T12:33:51Z</time>
      </trkpt>
      <trkpt lat="43.46235" lon="5.71849">
        <ele>267.3</ele>
        <time>2016-01-23T12:33:52Z</time>
      </trkpt>
      <trkpt lat="43.46248" lon="5.71879">
        <ele>268.6</ele>
        <time>2016-01-23T12:33:53Z</time>
      </trkpt>
      <trkpt lat="43.46261" lon="5.71908">
        <ele>269</ele>
        <time>2016-01-23T12:33:54Z</time>
      </trkpt>
      <trkpt lat="43.46275" lon="5.71937">
        <ele>269.7</ele>
        <time>2016-01-23T12:33:55Z</time>
      </trkpt>
      <trkpt lat="43.46288" lon="5.71966">
        <ele>270.4</ele>
        <time>2016-01-23T12:33:56Z</time>
      </trkpt>
      <trkpt lat="43.46301" lon="5.71995">
        <ele>271</ele>
        <time>2016-01-23T12:33:57Z</time>
      </trkpt>
      <trkpt lat="43.46313" lon="5.72024">
        <ele>271.3</ele>
        <time>2016-01-23T12:33:58Z</time>
      </trkpt>
      <trkpt lat="43.46326" lon="5.72052">
        <ele>271.4</ele>
        <time>2016-01-23T12:33:59Z</time>
      </trkpt>
      <trkpt lat="43.46339" lon="5.72081">
        <ele>272.4</ele>
        <time>2016-01-23T12:34:00Z</time>
      </trkpt>
      <trkpt lat="43.46352" lon="5.7211">
        <ele>272.6</ele>
        <time>2016-01-23T12:34:01Z</time>
      </trkpt>
      <trkpt lat="43.46365" lon="5.7214">
        <ele>274.8</ele>
        <time>2016-01-23T12:34:02Z</time>
      </trkpt>
      <trkpt lat="43.46377" lon="5.7217">
        <ele>275.2</ele>
        <time>2016-01-23T12:34:03Z</time>
      </trkpt>
      <trkpt lat="43.46389" lon="5.722">
        <ele>277</ele>
        <time>2016-01-23T12:34:04Z</time>
      </trkpt>
      <trkpt lat="43.46399" lon="5.72229">
        <ele>278.7</ele>
        <time>2016-01-23T12:34:05Z</time>
      </trkpt>
      <trkpt lat="43.4641" lon="5.72259">
        <ele>279</ele>
        <time>2016-01-23T12:34:06Z</time>
      </trkpt>
      <trkpt lat="43.46419" lon="5.72291">
        <ele>278</ele>
        <time>2016-01-23T12:34:07Z</time>
      </trkpt>
      <trkpt lat="43.46428" lon="5.72323">
        <ele>278</ele>
        <time>2016-01-23T12:34:08Z</time>
      </trkpt>
      <trkpt lat="43.46437" lon="5.72355">
        <ele>278.6</ele>
        <time>2016-01-23T12:34:09Z</time>
      </trkpt>
      <trkpt lat="43.46445" lon="5.72388">
        <ele>279</ele>
        <time>2016-01-23T12:34:10Z</time>
      </trkpt>
      <trkpt lat="43.46453" lon="5.72421">
        <ele>280.4</ele>
        <time>2016-01-23T12:34:11Z</time>
      </trkpt>
      <trkpt lat="43.4646" lon="5.72455">
        <ele>281.2</ele>
        <time>2016-01-23T12:34:12Z</time>
      </trkpt>
      <trkpt lat="43.46467" lon="5.72488">
        <ele>281.7</ele>
        <time>2016-01-23T12:34:13Z</time>
      </trkpt>
      <trkpt lat="43.46475" lon="5.72521">
        <ele>281.2</ele>
        <time>2016-01-23T12:34:14Z</time>
      </trkpt>
      <trkpt lat="43.46482" lon="5.72554">
        <ele>280.3</ele>
        <time>2016-01-23T12:34:15Z</time>
      </trkpt>
      <trkpt lat="43.4649" lon="5.72587">
        <ele>279.2</ele>
        <time>2016-01-23T12:34:16Z</time>
      </trkpt>
      <trkpt lat="43.46497" lon="5.7262">
        <ele>279.3</ele>
        <time>2016-01-23T12:34:17Z</time>
      </trkpt>
      <trkpt lat="43.46503" lon="5.72653">
        <ele>279.3</ele>
        <time>2016-01-23T12:34:18Z</time>
      </trkpt>
      <trkpt lat="43.4651" lon="5.72686">
        <ele>279.3</ele>
        <time>2016-01-23T12:34:19Z</time>
      </trkpt>
      <trkpt lat="43.46516" lon="5.7272">
        <ele>278.8</ele>
        <time>2016-01-23T12:34:20Z</time>
      </trkpt>
      <trkpt lat="43.46523" lon="5.72753">
        <ele>279.3</ele>
        <time>2016-01-23T12:34:21Z</time>
      </trkpt>
      <trkpt lat="43.4653" lon="5.72786">
        <ele>280.2</ele>
        <time>2016-01-23T12:34:22Z</time>
      </trkpt>
      <trkpt lat="43.46537" lon="5.72819">
        <ele>281.2</ele>
        <time>2016-01-23T12:34:23Z</time>
      </trkpt>
      <trkpt lat="43.46543" lon="5.72851">
        <ele>281.8</ele>
        <time>2016-01-23T12:34:24Z</time>
      </trkpt>
      <trkpt lat="43.4655" lon="5.72884">
        <ele>282.8</ele>
        <time>2016-01-23T12:34:25Z</time>
      </trkpt>
      <trkpt lat="43.46557" lon="5.72916">
        <ele>284</ele>
        <time>2016-01-23T12:34:26Z</time>
      </trkpt>
      <trkpt lat="43.46563" lon="5.72948">
        <ele>284.8</ele>
        <time>2016-01-23T12:34:27Z</time>
      </trkpt>
      <trkpt lat="43.4657" lon="5.7298">
        <ele>285.1</ele>
        <time>2016-01-23T12:34:28Z</time>
      </trkpt>
      <trkpt lat="43.46576" lon="5.73012">
        <ele>285.3</ele>
        <time>2016-01-23T12:34:29Z</time>
      </trkpt>
      <trkpt lat="43.46583" lon="5.73045">
        <ele>285.6</ele>
        <time>2016-01-23T12:34:30Z</time>
      </trkpt>
      <trkpt lat="43.46589" lon="5.73077">
        <ele>285.7</ele>
        <time>2016-01-23T12:34:31Z</time>
      </trkpt>
      <trkpt lat="43.46596" lon="5.7311">
        <ele>285.5</ele>
        <time>2016-01-23T12:34:32Z</time>
      </trkpt>
      <trkpt lat="43.46603" lon="5.73143">
        <ele>285.7</ele>
        <time>2016-01-23T12:34:33Z</time>
      </trkpt>
      <trkpt lat="43.4661" lon="5.73175">
        <ele>286.3</ele>
        <time>2016-01-23T12:34:34Z</time>
      </trkpt>
      <trkpt lat="43.46618" lon="5.73207">
        <ele>286.8</ele>
        <time>2016-01-23T12:34:35Z</time>
      </trkpt>
      <trkpt lat="43.46625" lon="5.73238">
        <ele>286.5</ele>
        <time>2016-01-23T12:34:36Z</time>
      </trkpt>
      <trkpt lat="43.46633" lon="5.73269">
        <ele>286.2</ele>
        <time>2016-01-23T12:34:37Z</time>
      </trkpt>
      <trkpt lat="43.46642" lon="5.73301">
        <ele>286</ele>
        <time>2016-01-23T12:34:38Z</time>
      </trkpt>
      <trkpt lat="43.4665" lon="5.73333">
        <ele>286.6</ele>
        <time>2016-01-23T12:34:39Z</time>
      </trkpt>
      <trkpt lat="43.46659" lon="5.73365">
        <ele>286.3</ele>
        <time>2016-01-23T12:34:40Z</time>
      </trkpt>
      <trkpt lat="43.46667" lon="5.73398">
        <ele>285.7</ele>
        <time>2016-01-23T12:34:41Z</time>
      </trkpt>
      <trkpt lat="43.46676" lon="5.7343">
        <ele>284.5</ele>
        <time>2016-01-23T12:34:42Z</time>
      </trkpt>
      <trkpt lat="43.46685" lon="5.73462">
        <ele>283.2</ele>
        <time>2016-01-23T12:34:43Z</time>
      </trkpt>
      <trkpt lat="43.46694" lon="5.73493">
        <ele>281.3</ele>
        <time>2016-01-23T12:34:44Z</time>
      </trkpt>
      <trkpt lat="43.46701" lon="5.73524">
        <ele>283.2</ele>
        <time>2016-01-23T12:34:45Z</time>
      </trkpt>
      <trkpt lat="43.46707" lon="5.73556">
        <ele>284.6</ele>
        <time>2016-01-23T12:34:46Z</time>
      </trkpt>
      <trkpt lat="43.46711" lon="5.73589">
        <ele>284.6</ele>
        <time>2016-01-23T12:34:47Z</time>
      </trkpt>
      <trkpt lat="43.46713" lon="5.73622">
        <ele>285.3</ele>
        <time>2016-01-23T12:34:48Z</time>
      </trkpt>
      <trkpt lat="43.46714" lon="5.73657">
        <ele>285.3</ele>
        <time>2016-01-23T12:34:49Z</time>
      </trkpt>
      <trkpt lat="43.46715" lon="5.73691">
        <ele>286.1</ele>
        <time>2016-01-23T12:34:50Z</time>
      </trkpt>
      <trkpt lat="43.46716" lon="5.73726">
        <ele>286.4</ele>
        <time>2016-01-23T12:34:51Z</time>
      </trkpt>
      <trkpt lat="43.46716" lon="5.73762">
        <ele>287.2</ele>
        <time>2016-01-23T12:34:52Z</time>
      </trkpt>
      <trkpt lat="43.46717" lon="5.73797">
        <ele>287.9</ele>
        <time>2016-01-23T12:34:53Z</time>
      </trkpt>
      <trkpt lat="43.46718" lon="5.73832">
        <ele>288.2</ele>
        <time>2016-01-23T12:34:54Z</time>
      </trkpt>
      <trkpt lat="43.46718" lon="5.73867">
        <ele>289.1</ele>
        <time>2016-01-23T12:34:55Z</time>
      </trkpt>
      <trkpt lat="43.46719" lon="5.73902">
        <ele>289.2</ele>
        <time>2016-01-23T12:34:56Z</time>
      </trkpt>
      <trkpt lat="43.4672" lon="5.73937">
        <ele>289.2</ele>
        <time>2016-01-23T12:34:57Z</time>
      </trkpt>
      <trkpt lat="43.46721" lon="5.73971">
        <ele>290</ele>
        <time>2016-01-23T12:34:58Z</time>
      </trkpt>
      <trkpt lat="43.46723" lon="5.74006">
        <ele>291.2</ele>
        <time>2016-01-23T12:34:59Z</time>
      </trkpt>
      <trkpt lat="43.46727" lon="5.7404">
        <ele>291.8</ele>
        <time>2016-01-23T12:35:00Z</time>
      </trkpt>
      <trkpt lat="43.46731" lon="5.74073">
        <ele>292.1</ele>
        <time>2016-01-23T12:35:01Z</time>
      </trkpt>
      <trkpt lat="43.46735" lon="5.74108">
        <ele>292.5</ele>
        <time>2016-01-23T12:35:02Z</time>
      </trkpt>
      <trkpt lat="43.46738" lon="5.74142">
        <ele>292.9</ele>
        <time>2016-01-23T12:35:03Z</time>
      </trkpt>
      <trkpt lat="43.46741" lon="5.74177">
        <ele>293.3</ele>
        <time>2016-01-23T12:35:04Z</time>
      </trkpt>
      <trkpt lat="43.46743" lon="5.74212">
        <ele>293.3</ele>
        <time>2016-01-23T12:35:05Z</time>
      </trkpt>
      <trkpt lat="43.46745" lon="5.74248">
        <ele>293.4</ele>
        <time>2016-01-23T12:35:06Z</time>
      </trkpt>
      <trkpt lat="43.46747" lon="5.74283">
        <ele>293.4</ele>
        <time>2016-01-23T12:35:07Z</time>
      </trkpt>
      <trkpt lat="43.46748" lon="5.74318">
        <ele>294.1</ele>
        <time>2016-01-23T12:35:08Z</time>
      </trkpt>
      <trkpt lat="43.4675" lon="5.74352">
        <ele>294.7</ele>
        <time>2016-01-23T12:35:09Z</time>
      </trkpt>
      <trkpt lat="43.46751" lon="5.74385">
        <ele>295</ele>
        <time>2016-01-23T12:35:10Z</time>
      </trkpt>
      <trkpt lat="43.46753" lon="5.74418">
        <ele>295</ele>
        <time>2016-01-23T12:35:11Z</time>
      </trkpt>
      <trkpt lat="43.46755" lon="5.74451">
        <ele>295.7</ele>
        <time>2016-01-23T12:35:12Z</time>
      </trkpt>
      <trkpt lat="43.46759" lon="5.74483">
        <ele>295.6</ele>
        <time>2016-01-23T12:35:13Z</time>
      </trkpt>
      <trkpt lat="43.46765" lon="5.74514">
        <ele>295.2</ele>
        <time>2016-01-23T12:35:14Z</time>
      </trkpt>
      <trkpt lat="43.46774" lon="5.74545">
        <ele>296.4</ele>
        <time>2016-01-23T12:35:15Z</time>
      </trkpt>
      <trkpt lat="43.46785" lon="5.74575">
        <ele>296.2</ele>
        <time>2016-01-23T12:35:16Z</time>
      </trkpt>
      <trkpt lat="43.46798" lon="5.74604">
        <ele>297.5</ele>
        <time>2016-01-23T12:35:17Z</time>
      </trkpt>
      <trkpt lat="43.46812" lon="5.74632">
        <ele>299.1</ele>
        <time>2016-01-23T12:35:18Z</time>
      </trkpt>
      <trkpt lat="43.46827" lon="5.74659">
        <ele>299.2</ele>
        <time>2016-01-23T12:35:19Z</time>
      </trkpt>
      <trkpt lat="43.46843" lon="5.74686">
        <ele>299.6</ele>
        <time>2016-01-23T12:35:20Z</time>
      </trkpt>
      <trkpt lat="43.46858" lon="5.74713">
        <ele>301.2</ele>
        <time>2016-01-23T12:35:21Z</time>
      </trkpt>
      <trkpt lat="43.46873" lon="5.7474">
        <ele>302.8</ele>
        <time>2016-01-23T12:35:22Z</time>
      </trkpt>
      <trkpt lat="43.46888" lon="5.74766">
        <ele>303.3</ele>
        <time>2016-01-23T12:35:23Z</time>
      </trkpt>
      <trkpt lat="43.46903" lon="5.74791">
        <ele>305</ele>
        <time>2016-01-23T12:35:24Z</time>
      </trkpt>
      <trkpt lat="43.46917" lon="5.74816">
        <ele>305.3</ele>
        <time>2016-01-23T12:35:25Z</time>
      </trkpt>
      <trkpt lat="43.46931" lon="5.7484">
        <ele>305.8</ele>
        <time>2016-01-23T12:35:26Z</time>
      </trkpt>
      <trkpt lat="43.46944" lon="5.74862">
        <ele>307.2</ele>
        <time>2016-01-23T12:35:27Z</time>
      </trkpt>
      <trkpt lat="43.46957" lon="5.74883">
        <ele>309.4</ele>
        <time>2016-01-23T12:35:28Z</time>
      </trkpt>
      <trkpt lat="43.46968" lon="5.74903">
        <ele>309.7</ele>
        <time>2016-01-23T12:35:29Z</time>
      </trkpt>
      <trkpt lat="43.46977" lon="5.74924">
        <ele>309.6</ele>
        <time>2016-01-23T12:35:30Z</time>
      </trkpt>
      <trkpt lat="43.46981" lon="5.74945">
        <ele>310</ele>
        <time>2016-01-23T12:35:31Z</time>
      </trkpt>
      <trkpt lat="43.46982" lon="5.74967">
        <ele>310.7</ele>
        <time>2016-01-23T12:35:32Z</time>
      </trkpt>
      <trkpt lat="43.46981" lon="5.74991">
        <ele>311.5</ele>
        <time>2016-01-23T12:35:33Z</time>
      </trkpt>
      <trkpt lat="43.46981" lon="5.75018">
        <ele>312.7</ele>
        <time>2016-01-23T12:35:34Z</time>
      </trkpt>
      <trkpt lat="43.46981" lon="5.75046">
        <ele>314.2</ele>
        <time>2016-01-23T12:35:35Z</time>
      </trkpt>
      <trkpt lat="43.46982" lon="5.75075">
        <ele>317.2</ele>
        <time>2016-01-23T12:35:36Z</time>
      </trkpt>
      <trkpt lat="43.46984" lon="5.75104">
        <ele>320.8</ele>
        <time>2016-01-23T12:35:37Z</time>
      </trkpt>
      <trkpt lat="43.46985" lon="5.75134">
        <ele>322.6</ele>
        <time>2016-01-23T12:35:38Z</time>
      </trkpt>
      <trkpt lat="43.46986" lon="5.75162">
        <ele>321</ele>
        <time>2016-01-23T12:35:39Z</time>
      </trkpt>
      <trkpt lat="43.46989" lon="5.75189">
        <ele>320.2</ele>
        <time>2016-01-23T12:35:40Z</time>
      </trkpt>
      <trkpt lat="43.46993" lon="5.75213">
        <ele>319.3</ele>
        <time>2016-01-23T12:35:41Z</time>
      </trkpt>
      <trkpt lat="43.47" lon="5.75236">
        <ele>319</ele>
        <time>2016-01-23T12:35:42Z</time>
      </trkpt>
      <trkpt lat="43.4701" lon="5.75258">
        <ele>319.2</ele>
        <time>2016-01-23T12:35:43Z</time>
      </trkpt>
      <trkpt lat="43.47023" lon="5.75278">
        <ele>319.2</ele>
        <time>2016-01-23T12:35:44Z</time>
      </trkpt>
      <trkpt lat="43.47039" lon="5.75298">
        <ele>318.3</ele>
        <time>2016-01-23T12:35:45Z</time>
      </trkpt>
      <trkpt lat="43.47061" lon="5.75318">
        <ele>316.7</ele>
        <time>2016-01-23T12:35:46Z</time>
      </trkpt>
      <trkpt lat="43.4708" lon="5.75339">
        <ele>315.3</ele>
        <time>2016-01-23T12:35:47Z</time>
      </trkpt>
      <trkpt lat="43.47099" lon="5.7536">
        <ele>314.5</ele>
        <time>2016-01-23T12:35:48Z</time>
      </trkpt>
      <trkpt lat="43.47117" lon="5.75381">
        <ele>313.1</ele>
        <time>2016-01-23T12:35:49Z</time>
      </trkpt>
      <trkpt lat="43.47135" lon="5.75402">
        <ele>311.7</ele>
        <time>2016-01-23T12:35:50Z</time>
      </trkpt>
      <trkpt lat="43.47153" lon="5.75423">
        <ele>310.4</ele>
        <time>2016-01-23T12:35:51Z</time>
      </trkpt>
      <trkpt lat="43.47171" lon="5.75444">
        <ele>309</ele>
        <time>2016-01-23T12:35:52Z</time>
      </trkpt>
      <trkpt lat="43.47189" lon="5.75465">
        <ele>307.8</ele>
        <time>2016-01-23T12:35:53Z</time>
      </trkpt>
      <trkpt lat="43.47207" lon="5.75485">
        <ele>306.5</ele>
        <time>2016-01-23T12:35:54Z</time>
      </trkpt>
      <trkpt lat="43.47225" lon="5.75506">
        <ele>306.3</ele>
        <time>2016-01-23T12:35:55Z</time>
      </trkpt>
      <trkpt lat="43.47242" lon="5.75527">
        <ele>304.7</ele>
        <time>2016-01-23T12:35:56Z</time>
      </trkpt>
      <trkpt lat="43.47259" lon="5.75549">
        <ele>303.1</ele>
        <time>2016-01-23T12:35:57Z</time>
      </trkpt>
      <trkpt lat="43.47273" lon="5.75574">
        <ele>302.7</ele>
        <time>2016-01-23T12:35:58Z</time>
      </trkpt>
      <trkpt lat="43.47287" lon="5.756">
        <ele>302.1</ele>
        <time>2016-01-23T12:35:59Z</time>
      </trkpt>
      <trkpt lat="43.47301" lon="5.75627">
        <ele>301.9</ele>
        <time>2016-01-23T12:36:00Z</time>
      </trkpt>
      <trkpt lat="43.47314" lon="5.75655">
        <ele>302.2</ele>
        <time>2016-01-23T12:36:01Z</time>
      </trkpt>
      <trkpt lat="43.47327" lon="5.75682">
        <ele>302.1</ele>
        <time>2016-01-23T12:36:02Z</time>
      </trkpt>
      <trkpt lat="43.4734" lon="5.7571">
        <ele>301.4</ele>
        <time>2016-01-23T12:36:03Z</time>
      </trkpt>
      <trkpt lat="43.47353" lon="5.75737">
        <ele>302.2</ele>
        <time>2016-01-23T12:36:04Z</time>
      </trkpt>
      <trkpt lat="43.47365" lon="5.75762">
        <ele>303.1</ele>
        <time>2016-01-23T12:36:05Z</time>
      </trkpt>
      <trkpt lat="43.47377" lon="5.75788">
        <ele>303.6</ele>
        <time>2016-01-23T12:36:06Z</time>
      </trkpt>
      <trkpt lat="43.47389" lon="5.75812">
        <ele>304</ele>
        <time>2016-01-23T12:36:07Z</time>
      </trkpt>
      <trkpt lat="43.47401" lon="5.75836">
        <ele>305.4</ele>
        <time>2016-01-23T12:36:08Z</time>
      </trkpt>
      <trkpt lat="43.47415" lon="5.75859">
        <ele>304.6</ele>
        <time>2016-01-23T12:36:09Z</time>
      </trkpt>
      <trkpt lat="43.4743" lon="5.7588">
        <ele>304.5</ele>
        <time>2016-01-23T12:36:10Z</time>
      </trkpt>
      <trkpt lat="43.47445" lon="5.75901">
        <ele>304.4</ele>
        <time>2016-01-23T12:36:11Z</time>
      </trkpt>
      <trkpt lat="43.47461" lon="5.7592">
        <ele>303.9</ele>
        <time>2016-01-23T12:36:12Z</time>
      </trkpt>
      <trkpt lat="43.47476" lon="5.75938">
        <ele>304.4</ele>
        <time>2016-01-23T12:36:13Z</time>
      </trkpt>
      <trkpt lat="43.47491" lon="5.75956">
        <ele>304.6</ele>
        <time>2016-01-23T12:36:14Z</time>
      </trkpt>
      <trkpt lat="43.47505" lon="5.75974">
        <ele>305</ele>
        <time>2016-01-23T12:36:15Z</time>
      </trkpt>
      <trkpt lat="43.47519" lon="5.75991">
        <ele>305</ele>
        <time>2016-01-23T12:36:16Z</time>
      </trkpt>
      <trkpt lat="43.47532" lon="5.76006">
        <ele>305.2</ele>
        <time>2016-01-23T12:36:17Z</time>
      </trkpt>
      <trkpt lat="43.47544" lon="5.76021">
        <ele>305.3</ele>
        <time>2016-01-23T12:36:18Z</time>
      </trkpt>
      <trkpt lat="43.47555" lon="5.76035">
        <ele>305.3</ele>
        <time>2016-01-23T12:36:19Z</time>
      </trkpt>
      <trkpt lat="43.47566" lon="5.76049">
        <ele>305.4</ele>
        <time>2016-01-23T12:36:20Z</time>
      </trkpt>
      <trkpt lat="43.47576" lon="5.76061">
        <ele>305.4</ele>
        <time>2016-01-23T12:36:21Z</time>
      </trkpt>
      <trkpt lat="43.47585" lon="5.76074">
        <ele>305.6</ele>
        <time>2016-01-23T12:36:22Z</time>
      </trkpt>
      <trkpt lat="43.47592" lon="5.76086">
        <ele>306</ele>
        <time>2016-01-23T12:36:23Z</time>
      </trkpt>
      <trkpt lat="43.47598" lon="5.76098">
        <ele>306.3</ele>
        <time>2016-01-23T12:36:24Z</time>
      </trkpt>
      <trkpt lat="43.47601" lon="5.7611">
        <ele>306.6</ele>
        <time>2016-01-23T12:36:25Z</time>
      </trkpt>
      <trkpt lat="43.47603" lon="5.76124">
        <ele>306.6</ele>
        <time>2016-01-23T12:36:26Z</time>
      </trkpt>
      <trkpt lat="43.47603" lon="5.76139">
        <ele>306.6</ele>
        <time>2016-01-23T12:36:27Z</time>
      </trkpt>
      <trkpt lat="43.47596" lon="5.76155">
        <ele>307.4</ele>
        <time>2016-01-23T12:36:28Z</time>
      </trkpt>
      <trkpt lat="43.47582" lon="5.76175">
        <ele>307.7</ele>
        <time>2016-01-23T12:36:29Z</time>
      </trkpt>
      <trkpt lat="43.47572" lon="5.76196">
        <ele>307.9</ele>
        <time>2016-01-23T12:36:30Z</time>
      </trkpt>
      <trkpt lat="43.4756" lon="5.76219">
        <ele>309.6</ele>
        <time>2016-01-23T12:36:31Z</time>
      </trkpt>
      <trkpt lat="43.47549" lon="5.76242">
        <ele>309.3</ele>
        <time>2016-01-23T12:36:32Z</time>
      </trkpt>
      <trkpt lat="43.47537" lon="5.76265">
        <ele>310.7</ele>
        <time>2016-01-23T12:36:33Z</time>
      </trkpt>
      <trkpt lat="43.47526" lon="5.76288">
        <ele>311.9</ele>
        <time>2016-01-23T12:36:34Z</time>
      </trkpt>
      <trkpt lat="43.47513" lon="5.76312">
        <ele>312.5</ele>
        <time>2016-01-23T12:36:35Z</time>
      </trkpt>
      <trkpt lat="43.47501" lon="5.76336">
        <ele>313</ele>
        <time>2016-01-23T12:36:36Z</time>
      </trkpt>
      <trkpt lat="43.47489" lon="5.76361">
        <ele>313.4</ele>
        <time>2016-01-23T12:36:37Z</time>
      </trkpt>
      <trkpt lat="43.47477" lon="5.76387">
        <ele>314.6</ele>
        <time>2016-01-23T12:36:38Z</time>
      </trkpt>
      <trkpt lat="43.47464" lon="5.76413">
        <ele>315.7</ele>
        <time>2016-01-23T12:36:39Z</time>
      </trkpt>
      <trkpt lat="43.47451" lon="5.76438">
        <ele>316.7</ele>
        <time>2016-01-23T12:36:40Z</time>
      </trkpt>
      <trkpt lat="43.47438" lon="5.76464">
        <ele>317.2</ele>
        <time>2016-01-23T12:36:41Z</time>
      </trkpt>
      <trkpt lat="43.47426" lon="5.76491">
        <ele>318.1</ele>
        <time>2016-01-23T12:36:42Z</time>
      </trkpt>
      <trkpt lat="43.47414" lon="5.76517">
        <ele>319.1</ele>
        <time>2016-01-23T12:36:43Z</time>
      </trkpt>
      <trkpt lat="43.47402" lon="5.76543">
        <ele>320.1</ele>
        <time>2016-01-23T12:36:44Z</time>
      </trkpt>
      <trkpt lat="43.4739" lon="5.76569">
        <ele>320.9</ele>
        <time>2016-01-23T12:36:45Z</time>
      </trkpt>
      <trkpt lat="43.47379" lon="5.76596">
        <ele>321.4</ele>
        <time>2016-01-23T12:36:46Z</time>
      </trkpt>
      <trkpt lat="43.47368" lon="5.76622">
        <ele>322.4</ele>
        <time>2016-01-23T12:36:47Z</time>
      </trkpt>
      <trkpt lat="43.47357" lon="5.76649">
        <ele>322.9</ele>
        <time>2016-01-23T12:36:48Z</time>
      </trkpt>
      <trkpt lat="43.47346" lon="5.76675">
        <ele>323.3</ele>
        <time>2016-01-23T12:36:49Z</time>
      </trkpt>
      <trkpt lat="43.47335" lon="5.76703">
        <ele>324.9</ele>
        <time>2016-01-23T12:36:50Z</time>
      </trkpt>
      <trkpt lat="43.47324" lon="5.7673">
        <ele>324.7</ele>
        <time>2016-01-23T12:36:51Z</time>
      </trkpt>
      <trkpt lat="43.47313" lon="5.76757">
        <ele>325.8</ele>
        <time>2016-01-23T12:36:52Z</time>
      </trkpt>
      <trkpt lat="43.47301" lon="5.76785">
        <ele>326.8</ele>
        <time>2016-01-23T12:36:53Z</time>
      </trkpt>
      <trkpt lat="43.4729" lon="5.76812">
        <ele>327.3</ele>
        <time>2016-01-23T12:36:54Z</time>
      </trkpt>
      <trkpt lat="43.47278" lon="5.7684">
        <ele>329.9</ele>
        <time>2016-01-23T12:36:55Z</time>
      </trkpt>
      <trkpt lat="43.47267" lon="5.76868">
        <ele>329.5</ele>
        <time>2016-01-23T12:36:56Z</time>
      </trkpt>
      <trkpt lat="43.47255" lon="5.76896">
        <ele>330.9</ele>
        <time>2016-01-23T12:36:57Z</time>
      </trkpt>
      <trkpt lat="43.47244" lon="5.76924">
        <ele>332</ele>
        <time>2016-01-23T12:36:58Z</time>
      </trkpt>
      <trkpt lat="43.47232" lon="5.76952">
        <ele>332.1</ele>
        <time>2016-01-23T12:36:59Z</time>
      </trkpt>
      <trkpt lat="43.47221" lon="5.7698">
        <ele>334.8</ele>
        <time>2016-01-23T12:37:00Z</time>
      </trkpt>
      <trkpt lat="43.4721" lon="5.77008">
        <ele>334.5</ele>
        <time>2016-01-23T12:37:01Z</time>
      </trkpt>
      <trkpt lat="43.47198" lon="5.77036">
        <ele>336.6</ele>
        <time>2016-01-23T12:37:02Z</time>
      </trkpt>
      <trkpt lat="43.47187" lon="5.77064">
        <ele>336.9</ele>
        <time>2016-01-23T12:37:03Z</time>
      </trkpt>
      <trkpt lat="43.47176" lon="5.77092">
        <ele>338.5</ele>
        <time>2016-01-23T12:37:04Z</time>
      </trkpt>
      <trkpt lat="43.47165" lon="5.7712">
        <ele>340.6</ele>
        <time>2016-01-23T12:37:05Z</time>
      </trkpt>
      <trkpt lat="43.47154" lon="5.77148">
        <ele>340.7</ele>
        <time>2016-01-23T12:37:06Z</time>
      </trkpt>
      <trkpt lat="43.47143" lon="5.77176">
        <ele>342.3</ele>
        <time>2016-01-23T12:37:07Z</time>
      </trkpt>
      <trkpt lat="43.47132" lon="5.77205">
        <ele>342.6</ele>
        <time>2016-01-23T12:37:08Z</time>
      </trkpt>
      <trkpt lat="43.47121" lon="5.77234">
        <ele>342.5</ele>
        <time>2016-01-23T12:37:09Z</time>
      </trkpt>
      <trkpt lat="43.47111" lon="5.77263">
        <ele>346</ele>
        <time>2016-01-23T12:37:10Z</time>
      </trkpt>
      <trkpt lat="43.47101" lon="5.77293">
        <ele>347.2</ele>
        <time>2016-01-23T12:37:11Z</time>
      </trkpt>
      <trkpt lat="43.47093" lon="5.77323">
        <ele>348.7</ele>
        <time>2016-01-23T12:37:12Z</time>
      </trkpt>
      <trkpt lat="43.47084" lon="5.77354">
        <ele>349.9</ele>
        <time>2016-01-23T12:37:13Z</time>
      </trkpt>
      <trkpt lat="43.47076" lon="5.77384">
        <ele>351.4</ele>
        <time>2016-01-23T12:37:14Z</time>
      </trkpt>
      <trkpt lat="43.47068" lon="5.77415">
        <ele>352.6</ele>
        <time>2016-01-23T12:37:15Z</time>
      </trkpt>
      <trkpt lat="43.4706" lon="5.77446">
        <ele>353.7</ele>
        <time>2016-01-23T12:37:16Z</time>
      </trkpt>
      <trkpt lat="43.47052" lon="5.77476">
        <ele>355.4</ele>
        <time>2016-01-23T12:37:17Z</time>
      </trkpt>
      <trkpt lat="43.47045" lon="5.77506">
        <ele>356.9</ele>
        <time>2016-01-23T12:37:18Z</time>
      </trkpt>
      <trkpt lat="43.47036" lon="5.77537">
        <ele>357.9</ele>
        <time>2016-01-23T12:37:19Z</time>
      </trkpt>
      <trkpt lat="43.47028" lon="5.77567">
        <ele>358</ele>
        <time>2016-01-23T12:37:20Z</time>
      </trkpt>
      <trkpt lat="43.4702" lon="5.77598">
        <ele>360.7</ele>
        <time>2016-01-23T12:37:21Z</time>
      </trkpt>
      <trkpt lat="43.47012" lon="5.77629">
        <ele>361.7</ele>
        <time>2016-01-23T12:37:22Z</time>
      </trkpt>
      <trkpt lat="43.47004" lon="5.7766">
        <ele>360.7</ele>
        <time>2016-01-23T12:37:23Z</time>
      </trkpt>
      <trkpt lat="43.46997" lon="5.77692">
        <ele>361.4</ele>
        <time>2016-01-23T12:37:24Z</time>
      </trkpt>
      <trkpt lat="43.46989" lon="5.77724">
        <ele>359</ele>
        <time>2016-01-23T12:37:25Z</time>
      </trkpt>
      <trkpt lat="43.46981" lon="5.77756">
        <ele>359.4</ele>
        <time>2016-01-23T12:37:26Z</time>
      </trkpt>
      <trkpt lat="43.46973" lon="5.77788">
        <ele>361.9</ele>
        <time>2016-01-23T12:37:27Z</time>
      </trkpt>
      <trkpt lat="43.46965" lon="5.7782">
        <ele>362.3</ele>
        <time>2016-01-23T12:37:28Z</time>
      </trkpt>
      <trkpt lat="43.46957" lon="5.77852">
        <ele>359.7</ele>
        <time>2016-01-23T12:37:29Z</time>
      </trkpt>
      <trkpt lat="43.46949" lon="5.77884">
        <ele>359.8</ele>
        <time>2016-01-23T12:37:30Z</time>
      </trkpt>
      <trkpt lat="43.46941" lon="5.77915">
        <ele>361</ele>
        <time>2016-01-23T12:37:31Z</time>
      </trkpt>
      <trkpt lat="43.46933" lon="5.77946">
        <ele>357.9</ele>
        <time>2016-01-23T12:37:32Z</time>
      </trkpt>
      <trkpt lat="43.46926" lon="5.77978">
        <ele>357.3</ele>
        <time>2016-01-23T12:37:33Z</time>
      </trkpt>
      <trkpt lat="43.46918" lon="5.78009">
        <ele>359.9</ele>
        <time>2016-01-23T12:37:34Z</time>
      </trkpt>
      <trkpt lat="43.46909" lon="5.78041">
        <ele>359.4</ele>
        <time>2016-01-23T12:37:35Z</time>
      </trkpt>
      <trkpt lat="43.46901" lon="5.78073">
        <ele>358.2</ele>
        <time>2016-01-23T12:37:36Z</time>
      </trkpt>
      <trkpt lat="43.46893" lon="5.78105">
        <ele>360.1</ele>
        <time>2016-01-23T12:37:37Z</time>
      </trkpt>
      <trkpt lat="43.46885" lon="5.78137">
        <ele>360.7</ele>
        <time>2016-01-23T12:37:38Z</time>
      </trkpt>
      <trkpt lat="43.46878" lon="5.7817">
        <ele>360.1</ele>
        <time>2016-01-23T12:37:39Z</time>
      </trkpt>
      <trkpt lat="43.46869" lon="5.78203">
        <ele>361.7</ele>
        <time>2016-01-23T12:37:40Z</time>
      </trkpt>
      <trkpt lat="43.46861" lon="5.78236">
        <ele>362.5</ele>
        <time>2016-01-23T12:37:41Z</time>
      </trkpt>
      <trkpt lat="43.46853" lon="5.78269">
        <ele>364.2</ele>
        <time>2016-01-23T12:37:42Z</time>
      </trkpt>
      <trkpt lat="43.46844" lon="5.78303">
        <ele>363.6</ele>
        <time>2016-01-23T12:37:43Z</time>
      </trkpt>
      <trkpt lat="43.46836" lon="5.78336">
        <ele>363</ele>
        <time>2016-01-23T12:37:44Z</time>
      </trkpt>
      <trkpt lat="43.46827" lon="5.78369">
        <ele>362.5</ele>
        <time>2016-01-23T12:37:45Z</time>
      </trkpt>
      <trkpt lat="43.46819" lon="5.78403">
        <ele>362</ele>
        <time>2016-01-23T12:37:46Z</time>
      </trkpt>
      <trkpt lat="43.4681" lon="5.78436">
        <ele>361.1</ele>
        <time>2016-01-23T12:37:47Z</time>
      </trkpt>
      <trkpt lat="43.46802" lon="5.78469">
        <ele>360</ele>
        <time>2016-01-23T12:37:48Z</time>
      </trkpt>
      <trkpt lat="43.46794" lon="5.78501">
        <ele>356.6</ele>
        <time>2016-01-23T12:37:49Z</time>
      </trkpt>
      <trkpt lat="43.46786" lon="5.78534">
        <ele>355.6</ele>
        <time>2016-01-23T12:37:50Z</time>
      </trkpt>
      <trkpt lat="43.46778" lon="5.78567">
        <ele>359.4</ele>
        <time>2016-01-23T12:37:51Z</time>
      </trkpt>
      <trkpt lat="43.46771" lon="5.786">
        <ele>359.6</ele>
        <time>2016-01-23T12:37:52Z</time>
      </trkpt>
      <trkpt lat="43.46764" lon="5.78634">
        <ele>360.9</ele>
        <time>2016-01-23T12:37:53Z</time>
      </trkpt>
      <trkpt lat="43.46758" lon="5.78667">
        <ele>362.4</ele>
        <time>2016-01-23T12:37:54Z</time>
      </trkpt>
      <trkpt lat="43.46753" lon="5.78701">
        <ele>362.8</ele>
        <time>2016-01-23T12:37:55Z</time>
      </trkpt>
      <trkpt lat="43.46748" lon="5.78734">
        <ele>363.7</ele>
        <time>2016-01-23T12:37:56Z</time>
      </trkpt>
      <trkpt lat="43.46742" lon="5.78767">
        <ele>364.7</ele>
        <time>2016-01-23T12:37:57Z</time>
      </trkpt>
      <trkpt lat="43.46737" lon="5.788">
        <ele>365.4</ele>
        <time>2016-01-23T12:37:58Z</time>
      </trkpt>
      <trkpt lat="43.46732" lon="5.78833">
        <ele>365.9</ele>
        <time>2016-01-23T12:37:59Z</time>
      </trkpt>
      <trkpt lat="43.46727" lon="5.78866">
        <ele>365.8</ele>
        <time>2016-01-23T12:38:00Z</time>
      </trkpt>
      <trkpt lat="43.46722" lon="5.78899">
        <ele>366.7</ele>
        <time>2016-01-23T12:38:01Z</time>
      </trkpt>
      <trkpt lat="43.46717" lon="5.78932">
        <ele>366.3</ele>
        <time>2016-01-23T12:38:02Z</time>
      </trkpt>
      <trkpt lat="43.46711" lon="5.78965">
        <ele>365.6</ele>
        <time>2016-01-23T12:38:03Z</time>
      </trkpt>
      <trkpt lat="43.46706" lon="5.78998">
        <ele>365.8</ele>
        <time>2016-01-23T12:38:04Z</time>
      </trkpt>
      <trkpt lat="43.467" lon="5.79031">
        <ele>367.3</ele>
        <time>2016-01-23T12:38:05Z</time>
      </trkpt>
      <trkpt lat="43.46695" lon="5.79064">
        <ele>369.3</ele>
        <time>2016-01-23T12:38:06Z</time>
      </trkpt>
      <trkpt lat="43.46689" lon="5.79097">
        <ele>369.7</ele>
        <time>2016-01-23T12:38:07Z</time>
      </trkpt>
      <trkpt lat="43.46684" lon="5.7913">
        <ele>369.2</ele>
        <time>2016-01-23T12:38:08Z</time>
      </trkpt>
      <trkpt lat="43.46678" lon="5.79162">
        <ele>369.8</ele>
        <time>2016-01-23T12:38:09Z</time>
      </trkpt>
      <trkpt lat="43.46673" lon="5.79195">
        <ele>371.8</ele>
        <time>2016-01-23T12:38:10Z</time>
      </trkpt>
      <trkpt lat="43.46668" lon="5.79228">
        <ele>372.1</ele>
        <time>2016-01-23T12:38:11Z</time>
      </trkpt>
      <trkpt lat="43.46663" lon="5.7926">
        <ele>372.8</ele>
        <time>2016-01-23T12:38:12Z</time>
      </trkpt>
      <trkpt lat="43.46657" lon="5.79292">
        <ele>372</ele>
        <time>2016-01-23T12:38:13Z</time>
      </trkpt>
      <trkpt lat="43.46652" lon="5.79324">
        <ele>371.7</ele>
        <time>2016-01-23T12:38:14Z</time>
      </trkpt>
      <trkpt lat="43.46646" lon="5.79356">
        <ele>371.7</ele>
        <time>2016-01-23T12:38:15Z</time>
      </trkpt>
      <trkpt lat="43.4664" lon="5.79387">
        <ele>372.8</ele>
        <time>2016-01-23T12:38:16Z</time>
      </trkpt>
      <trkpt lat="43.46634" lon="5.79419">
        <ele>373</ele>
        <time>2016-01-23T12:38:17Z</time>
      </trkpt>
      <trkpt lat="43.46627" lon="5.7945">
        <ele>372.8</ele>
        <time>2016-01-23T12:38:18Z</time>
      </trkpt>
      <trkpt lat="43.4662" lon="5.7948">
        <ele>372.3</ele>
        <time>2016-01-23T12:38:19Z</time>
      </trkpt>
      <trkpt lat="43.46613" lon="5.79511">
        <ele>371</ele>
        <time>2016-01-23T12:38:20Z</time>
      </trkpt>
      <trkpt lat="43.46605" lon="5.79541">
        <ele>370.6</ele>
        <time>2016-01-23T12:38:21Z</time>
      </trkpt>
      <trkpt lat="43.46596" lon="5.79572">
        <ele>369.7</ele>
        <time>2016-01-23T12:38:22Z</time>
      </trkpt>
      <trkpt lat="43.46587" lon="5.79603">
        <ele>368.5</ele>
        <time>2016-01-23T12:38:23Z</time>
      </trkpt>
      <trkpt lat="43.46577" lon="5.79633">
        <ele>366.5</ele>
        <time>2016-01-23T12:38:24Z</time>
      </trkpt>
      <trkpt lat="43.46567" lon="5.79664">
        <ele>364.4</ele>
        <time>2016-01-23T12:38:25Z</time>
      </trkpt>
      <trkpt lat="43.46557" lon="5.79694">
        <ele>361.1</ele>
        <time>2016-01-23T12:38:26Z</time>
      </trkpt>
      <trkpt lat="43.46546" lon="5.79724">
        <ele>360.5</ele>
        <time>2016-01-23T12:38:27Z</time>
      </trkpt>
      <trkpt lat="43.46535" lon="5.79754">
        <ele>363.4</ele>
        <time>2016-01-23T12:38:28Z</time>
      </trkpt>
      <trkpt lat="43.46524" lon="5.79784">
        <ele>364</ele>
        <time>2016-01-23T12:38:29Z</time>
      </trkpt>
      <trkpt lat="43.46513" lon="5.79814">
        <ele>363.4</ele>
        <time>2016-01-23T12:38:30Z</time>
      </trkpt>
      <trkpt lat="43.46502" lon="5.79843">
        <ele>362.1</ele>
        <time>2016-01-23T12:38:31Z</time>
      </trkpt>
      <trkpt lat="43.46492" lon="5.79873">
        <ele>362.6</ele>
        <time>2016-01-23T12:38:32Z</time>
      </trkpt>
      <trkpt lat="43.46482" lon="5.79903">
        <ele>362</ele>
        <time>2016-01-23T12:38:33Z</time>
      </trkpt>
      <trkpt lat="43.46471" lon="5.79932">
        <ele>362.4</ele>
        <time>2016-01-23T12:38:34Z</time>
      </trkpt>
      <trkpt lat="43.46461" lon="5.79961">
        <ele>362.6</ele>
        <time>2016-01-23T12:38:35Z</time>
      </trkpt>
      <trkpt lat="43.4645" lon="5.7999">
        <ele>361.9</ele>
        <time>2016-01-23T12:38:36Z</time>
      </trkpt>
      <trkpt lat="43.46439" lon="5.80018">
        <ele>364.5</ele>
        <time>2016-01-23T12:38:37Z</time>
      </trkpt>
      <trkpt lat="43.46428" lon="5.80047">
        <ele>364.8</ele>
        <time>2016-01-23T12:38:38Z</time>
      </trkpt>
      <trkpt lat="43.46417" lon="5.80075">
        <ele>365</ele>
        <time>2016-01-23T12:38:39Z</time>
      </trkpt>
      <trkpt lat="43.46407" lon="5.80104">
        <ele>367.3</ele>
        <time>2016-01-23T12:38:40Z</time>
      </trkpt>
      <trkpt lat="43.46396" lon="5.80134">
        <ele>368.8</ele>
        <time>2016-01-23T12:38:41Z</time>
      </trkpt>
      <trkpt lat="43.46385" lon="5.80163">
        <ele>369.8</ele>
        <time>2016-01-23T12:38:42Z</time>
      </trkpt>
      <trkpt lat="43.46374" lon="5.80192">
        <ele>371</ele>
        <time>2016-01-23T12:38:43Z</time>
      </trkpt>
      <trkpt lat="43.46363" lon="5.80221">
        <ele>372.6</ele>
        <time>2016-01-23T12:38:44Z</time>
      </trkpt>
      <trkpt lat="43.46353" lon="5.80251">
        <ele>373.9</ele>
        <time>2016-01-23T12:38:45Z</time>
      </trkpt>
      <trkpt lat="43.46341" lon="5.8028">
        <ele>375.1</ele>
        <time>2016-01-23T12:38:46Z</time>
      </trkpt>
      <trkpt lat="43.4633" lon="5.8031">
        <ele>375.5</ele>
        <time>2016-01-23T12:38:47Z</time>
      </trkpt>
      <trkpt lat="43.46319" lon="5.80339">
        <ele>375</ele>
        <time>2016-01-23T12:38:48Z</time>
      </trkpt>
      <trkpt lat="43.46309" lon="5.80369">
        <ele>377.3</ele>
        <time>2016-01-23T12:38:49Z</time>
      </trkpt>
      <trkpt lat="43.46298" lon="5.80398">
        <ele>377.3</ele>
        <time>2016-01-23T12:38:50Z</time>
      </trkpt>
      <trkpt lat="43.46288" lon="5.80428">
        <ele>377.6</ele>
        <time>2016-01-23T12:38:51Z</time>
      </trkpt>
      <trkpt lat="43.46278" lon="5.80458">
        <ele>379.5</ele>
        <time>2016-01-23T12:38:52Z</time>
      </trkpt>
      <trkpt lat="43.46269" lon="5.80489">
        <ele>379.8</ele>
        <time>2016-01-23T12:38:53Z</time>
      </trkpt>
      <trkpt lat="43.46263" lon="5.8052">
        <ele>381</ele>
        <time>2016-01-23T12:38:54Z</time>
      </trkpt>
      <trkpt lat="43.46258" lon="5.80551">
        <ele>381.7</ele>
        <time>2016-01-23T12:38:55Z</time>
      </trkpt>
      <trkpt lat="43.46255" lon="5.80583">
        <ele>382.6</ele>
        <time>2016-01-23T12:38:56Z</time>
      </trkpt>
      <trkpt lat="43.46254" lon="5.80615">
        <ele>382.7</ele>
        <time>2016-01-23T12:38:57Z</time>
      </trkpt>
      <trkpt lat="43.46255" lon="5.80647">
        <ele>383.2</ele>
        <time>2016-01-23T12:38:58Z</time>
      </trkpt>
      <trkpt lat="43.46258" lon="5.80679">
        <ele>383.7</ele>
        <time>2016-01-23T12:38:59Z</time>
      </trkpt>
      <trkpt lat="43.46263" lon="5.8071">
        <ele>384.1</ele>
        <time>2016-01-23T12:39:00Z</time>
      </trkpt>
      <trkpt lat="43.46271" lon="5.8074">
        <ele>384.4</ele>
        <time>2016-01-23T12:39:01Z</time>
      </trkpt>
      <trkpt lat="43.4628" lon="5.8077">
        <ele>384.7</ele>
        <time>2016-01-23T12:39:02Z</time>
      </trkpt>
      <trkpt lat="43.46289" lon="5.80799">
        <ele>384.1</ele>
        <time>2016-01-23T12:39:03Z</time>
      </trkpt>
      <trkpt lat="43.463" lon="5.80828">
        <ele>384</ele>
        <time>2016-01-23T12:39:04Z</time>
      </trkpt>
      <trkpt lat="43.4631" lon="5.80858">
        <ele>383</ele>
        <time>2016-01-23T12:39:05Z</time>
      </trkpt>
      <trkpt lat="43.46321" lon="5.80887">
        <ele>382.5</ele>
        <time>2016-01-23T12:39:06Z</time>
      </trkpt>
      <trkpt lat="43.46331" lon="5.80917">
        <ele>382.9</ele>
        <time>2016-01-23T12:39:07Z</time>
      </trkpt>
      <trkpt lat="43.46342" lon="5.80947">
        <ele>382.1</ele>
        <time>2016-01-23T12:39:08Z</time>
      </trkpt>
      <trkpt lat="43.46352" lon="5.80977">
        <ele>383.4</ele>
        <time>2016-01-23T12:39:09Z</time>
      </trkpt>
      <trkpt lat="43.46363" lon="5.81008">
        <ele>383.7</ele>
        <time>2016-01-23T12:39:10Z</time>
      </trkpt>
      <trkpt lat="43.46374" lon="5.81038">
        <ele>383.8</ele>
        <time>2016-01-23T12:39:11Z</time>
      </trkpt>
      <trkpt lat="43.46385" lon="5.81068">
        <ele>386.1</ele>
        <time>2016-01-23T12:39:12Z</time>
      </trkpt>
      <trkpt lat="43.46396" lon="5.81098">
        <ele>387</ele>
        <time>2016-01-23T12:39:13Z</time>
      </trkpt>
      <trkpt lat="43.46408" lon="5.81127">
        <ele>388.7</ele>
        <time>2016-01-23T12:39:14Z</time>
      </trkpt>
      <trkpt lat="43.46421" lon="5.81155">
        <ele>389.8</ele>
        <time>2016-01-23T12:39:15Z</time>
      </trkpt>
      <trkpt lat="43.46435" lon="5.81183">
        <ele>390.9</ele>
        <time>2016-01-23T12:39:16Z</time>
      </trkpt>
      <trkpt lat="43.46449" lon="5.8121">
        <ele>392.9</ele>
        <time>2016-01-23T12:39:17Z</time>
      </trkpt>
      <trkpt lat="43.46464" lon="5.81236">
        <ele>394.6</ele>
        <time>2016-01-23T12:39:18Z</time>
      </trkpt>
      <trkpt lat="43.46479" lon="5.81262">
        <ele>396.1</ele>
        <time>2016-01-23T12:39:19Z</time>
      </trkpt>
      <trkpt lat="43.46495" lon="5.81288">
        <ele>397.4</ele>
        <time>2016-01-23T12:39:20Z</time>
      </trkpt>
      <trkpt lat="43.4651" lon="5.81313">
        <ele>399.2</ele>
        <time>2016-01-23T12:39:21Z</time>
      </trkpt>
      <trkpt lat="43.46525" lon="5.81338">
        <ele>399.4</ele>
        <time>2016-01-23T12:39:22Z</time>
      </trkpt>
      <trkpt lat="43.46541" lon="5.81363">
        <ele>400.5</ele>
        <time>2016-01-23T12:39:23Z</time>
      </trkpt>
      <trkpt lat="43.46556" lon="5.81389">
        <ele>400</ele>
        <time>2016-01-23T12:39:24Z</time>
      </trkpt>
      <trkpt lat="43.46571" lon="5.81415">
        <ele>400.4</ele>
        <time>2016-01-23T12:39:25Z</time>
      </trkpt>
      <trkpt lat="43.46586" lon="5.81442">
        <ele>400.9</ele>
        <time>2016-01-23T12:39:26Z</time>
      </trkpt>
      <trkpt lat="43.46601" lon="5.81471">
        <ele>400.7</ele>
        <time>2016-01-23T12:39:27Z</time>
      </trkpt>
      <trkpt lat="43.46616" lon="5.81499">
        <ele>400.3</ele>
        <time>2016-01-23T12:39:28Z</time>
      </trkpt>
      <trkpt lat="43.46629" lon="5.81529">
        <ele>400.3</ele>
        <time>2016-01-23T12:39:29Z</time>
      </trkpt>
      <trkpt lat="43.46642" lon="5.81558">
        <ele>399.3</ele>
        <time>2016-01-23T12:39:30Z</time>
      </trkpt>
      <trkpt lat="43.46655" lon="5.81588">
        <ele>399.2</ele>
        <time>2016-01-23T12:39:31Z</time>
      </trkpt>
      <trkpt lat="43.46666" lon="5.81619">
        <ele>396.7</ele>
        <time>2016-01-23T12:39:32Z</time>
      </trkpt>
      <trkpt lat="43.46676" lon="5.8165">
        <ele>396.1</ele>
        <time>2016-01-23T12:39:33Z</time>
      </trkpt>
      <trkpt lat="43.46685" lon="5.81681">
        <ele>394.8</ele>
        <time>2016-01-23T12:39:34Z</time>
      </trkpt>
      <trkpt lat="43.46693" lon="5.81714">
        <ele>393.3</ele>
        <time>2016-01-23T12:39:35Z</time>
      </trkpt>
      <trkpt lat="43.46699" lon="5.81747">
        <ele>391.2</ele>
        <time>2016-01-23T12:39:36Z</time>
      </trkpt>
      <trkpt lat="43.46705" lon="5.81781">
        <ele>389.8</ele>
        <time>2016-01-23T12:39:37Z</time>
      </trkpt>
      <trkpt lat="43.46708" lon="5.81815">
        <ele>388.1</ele>
        <time>2016-01-23T12:39:38Z</time>
      </trkpt>
      <trkpt lat="43.4671" lon="5.8185">
        <ele>387</ele>
        <time>2016-01-23T12:39:39Z</time>
      </trkpt>
      <trkpt lat="43.4671" lon="5.81885">
        <ele>385.8</ele>
        <time>2016-01-23T12:39:40Z</time>
      </trkpt>
      <trkpt lat="43.46709" lon="5.8192">
        <ele>384.4</ele>
        <time>2016-01-23T12:39:41Z</time>
      </trkpt>
      <trkpt lat="43.46705" lon="5.81955">
        <ele>382.6</ele>
        <time>2016-01-23T12:39:42Z</time>
      </trkpt>
      <trkpt lat="43.46701" lon="5.81988">
        <ele>380.2</ele>
        <time>2016-01-23T12:39:43Z</time>
      </trkpt>
      <trkpt lat="43.46694" lon="5.82021">
        <ele>378.3</ele>
        <time>2016-01-23T12:39:44Z</time>
      </trkpt>
      <trkpt lat="43.46686" lon="5.82053">
        <ele>376.8</ele>
        <time>2016-01-23T12:39:45Z</time>
      </trkpt>
      <trkpt lat="43.46677" lon="5.82084">
        <ele>375.3</ele>
        <time>2016-01-23T12:39:46Z</time>
      </trkpt>
      <trkpt lat="43.46666" lon="5.82115">
        <ele>373.8</ele>
        <time>2016-01-23T12:39:47Z</time>
      </trkpt>
      <trkpt lat="43.46654" lon="5.82145">
        <ele>371.8</ele>
        <time>2016-01-23T12:39:48Z</time>
      </trkpt>
      <trkpt lat="43.46641" lon="5.82175">
        <ele>368.8</ele>
        <time>2016-01-23T12:39:49Z</time>
      </trkpt>
      <trkpt lat="43.46626" lon="5.82204">
        <ele>365.8</ele>
        <time>2016-01-23T12:39:50Z</time>
      </trkpt>
      <trkpt lat="43.46611" lon="5.82232">
        <ele>364.9</ele>
        <time>2016-01-23T12:39:51Z</time>
      </trkpt>
      <trkpt lat="43.46595" lon="5.82259">
        <ele>363.5</ele>
        <time>2016-01-23T12:39:52Z</time>
      </trkpt>
      <trkpt lat="43.46577" lon="5.82286">
        <ele>362.4</ele>
        <time>2016-01-23T12:39:53Z</time>
      </trkpt>
      <trkpt lat="43.46559" lon="5.82312">
        <ele>362.1</ele>
        <time>2016-01-23T12:39:54Z</time>
      </trkpt>
      <trkpt lat="43.46539" lon="5.82338">
        <ele>361.1</ele>
        <time>2016-01-23T12:39:55Z</time>
      </trkpt>
      <trkpt lat="43.46519" lon="5.82363">
        <ele>358.9</ele>
        <time>2016-01-23T12:39:56Z</time>
      </trkpt>
      <trkpt lat="43.46499" lon="5.82387">
        <ele>355.9</ele>
        <time>2016-01-23T12:39:57Z</time>
      </trkpt>
      <trkpt lat="43.46478" lon="5.82411">
        <ele>354.1</ele>
        <time>2016-01-23T12:39:58Z</time>
      </trkpt>
      <trkpt lat="43.46457" lon="5.82434">
        <ele>352.6</ele>
        <time>2016-01-23T12:39:59Z</time>
      </trkpt>
      <trkpt lat="43.46436" lon="5.82458">
        <ele>350.9</ele>
        <time>2016-01-23T12:40:00Z</time>
      </trkpt>
      <trkpt lat="43.46415" lon="5.82481">
        <ele>349.4</ele>
        <time>2016-01-23T12:40:01Z</time>
      </trkpt>
      <trkpt lat="43.46394" lon="5.82503">
        <ele>348.2</ele>
        <time>2016-01-23T12:40:02Z</time>
      </trkpt>
      <trkpt lat="43.46374" lon="5.82524">
        <ele>347.9</ele>
        <time>2016-01-23T12:40:03Z</time>
      </trkpt>
      <trkpt lat="43.46354" lon="5.82545">
        <ele>347.5</ele>
        <time>2016-01-23T12:40:04Z</time>
      </trkpt>
      <trkpt lat="43.46334" lon="5.82567">
        <ele>346.4</ele>
        <time>2016-01-23T12:40:05Z</time>
      </trkpt>
      <trkpt lat="43.46313" lon="5.82588">
        <ele>345.3</ele>
        <time>2016-01-23T12:40:06Z</time>
      </trkpt>
      <trkpt lat="43.46293" lon="5.82609">
        <ele>344.2</ele>
        <time>2016-01-23T12:40:07Z</time>
      </trkpt>
      <trkpt lat="43.46274" lon="5.82631">
        <ele>341.5</ele>
        <time>2016-01-23T12:40:08Z</time>
      </trkpt>
      <trkpt lat="43.46254" lon="5.82653">
        <ele>340.4</ele>
        <time>2016-01-23T12:40:09Z</time>
      </trkpt>
      <trkpt lat="43.46235" lon="5.82675">
        <ele>338.4</ele>
        <time>2016-01-23T12:40:10Z</time>
      </trkpt>
      <trkpt lat="43.46216" lon="5.82697">
        <ele>335.9</ele>
        <time>2016-01-23T12:40:11Z</time>
      </trkpt>
      <trkpt lat="43.46198" lon="5.82719">
        <ele>334.6</ele>
        <time>2016-01-23T12:40:12Z</time>
      </trkpt>
      <trkpt lat="43.46179" lon="5.8274">
        <ele>333.9</ele>
        <time>2016-01-23T12:40:13Z</time>
      </trkpt>
      <trkpt lat="43.46161" lon="5.82762">
        <ele>332.1</ele>
        <time>2016-01-23T12:40:14Z</time>
      </trkpt>
      <trkpt lat="43.46142" lon="5.82784">
        <ele>330.9</ele>
        <time>2016-01-23T12:40:15Z</time>
      </trkpt>
      <trkpt lat="43.46125" lon="5.82807">
        <ele>330</ele>
        <time>2016-01-23T12:40:16Z</time>
      </trkpt>
      <trkpt lat="43.46108" lon="5.8283">
        <ele>327.5</ele>
        <time>2016-01-23T12:40:17Z</time>
      </trkpt>
      <trkpt lat="43.46091" lon="5.82853">
        <ele>326.7</ele>
        <time>2016-01-23T12:40:18Z</time>
      </trkpt>
      <trkpt lat="43.46074" lon="5.82877">
        <ele>326</ele>
        <time>2016-01-23T12:40:19Z</time>
      </trkpt>
      <trkpt lat="43.46058" lon="5.82902">
        <ele>324.2</ele>
        <time>2016-01-23T12:40:20Z</time>
      </trkpt>
      <trkpt lat="43.46043" lon="5.82927">
        <ele>322.3</ele>
        <time>2016-01-23T12:40:21Z</time>
      </trkpt>
      <trkpt lat="43.46028" lon="5.82953">
        <ele>319.7</ele>
        <time>2016-01-23T12:40:22Z</time>
      </trkpt>
      <trkpt lat="43.46014" lon="5.82981">
        <ele>317.7</ele>
        <time>2016-01-23T12:40:23Z</time>
      </trkpt>
      <trkpt lat="43.46" lon="5.83009">
        <ele>320.1</ele>
        <time>2016-01-23T12:40:24Z</time>
      </trkpt>
      <trkpt lat="43.45986" lon="5.83037">
        <ele>318.7</ele>
        <time>2016-01-23T12:40:25Z</time>
      </trkpt>
      <trkpt lat="43.45974" lon="5.83067">
        <ele>320.8</ele>
        <time>2016-01-23T12:40:26Z</time>
      </trkpt>
      <trkpt lat="43.45963" lon="5.83097">
        <ele>321.2</ele>
        <time>2016-01-23T12:40:27Z</time>
      </trkpt>
      <trkpt lat="43.45954" lon="5.83127">
        <ele>320.8</ele>
        <time>2016-01-23T12:40:28Z</time>
      </trkpt>
      <trkpt lat="43.45946" lon="5.83158">
        <ele>320.2</ele>
        <time>2016-01-23T12:40:29Z</time>
      </trkpt>
      <trkpt lat="43.45939" lon="5.83189">
        <ele>319.7</ele>
        <time>2016-01-23T12:40:30Z</time>
      </trkpt>
      <trkpt lat="43.45932" lon="5.8322">
        <ele>318.2</ele>
        <time>2016-01-23T12:40:31Z</time>
      </trkpt>
      <trkpt lat="43.45925" lon="5.83252">
        <ele>317.9</ele>
        <time>2016-01-23T12:40:32Z</time>
      </trkpt>
      <trkpt lat="43.45919" lon="5.83284">
        <ele>316.2</ele>
        <time>2016-01-23T12:40:33Z</time>
      </trkpt>
      <trkpt lat="43.45912" lon="5.83316">
        <ele>314.4</ele>
        <time>2016-01-23T12:40:34Z</time>
      </trkpt>
      <trkpt lat="43.45905" lon="5.83347">
        <ele>313.1</ele>
        <time>2016-01-23T12:40:35Z</time>
      </trkpt>
      <trkpt lat="43.45899" lon="5.83378">
        <ele>311.7</ele>
        <time>2016-01-23T12:40:36Z</time>
      </trkpt>
      <trkpt lat="43.45892" lon="5.8341">
        <ele>309.6</ele>
        <time>2016-01-23T12:40:37Z</time>
      </trkpt>
      <trkpt lat="43.45885" lon="5.83441">
        <ele>308</ele>
        <time>2016-01-23T12:40:38Z</time>
      </trkpt>
      <trkpt lat="43.45878" lon="5.83472">
        <ele>305</ele>
        <time>2016-01-23T12:40:39Z</time>
      </trkpt>
      <trkpt lat="43.45872" lon="5.83503">
        <ele>303.9</ele>
        <time>2016-01-23T12:40:40Z</time>
      </trkpt>
      <trkpt lat="43.45865" lon="5.83535">
        <ele>302.7</ele>
        <time>2016-01-23T12:40:41Z</time>
      </trkpt>
      <trkpt lat="43.45858" lon="5.83567">
        <ele>301.7</ele>
        <time>2016-01-23T12:40:42Z</time>
      </trkpt>
      <trkpt lat="43.45852" lon="5.83599">
        <ele>300.4</ele>
        <time>2016-01-23T12:40:43Z</time>
      </trkpt>
      <trkpt lat="43.45845" lon="5.8363">
        <ele>299.8</ele>
        <time>2016-01-23T12:40:44Z</time>
      </trkpt>
      <trkpt lat="43.45838" lon="5.83661">
        <ele>298.4</ele>
        <time>2016-01-23T12:40:45Z</time>
      </trkpt>
      <trkpt lat="43.45832" lon="5.83691">
        <ele>298</ele>
        <time>2016-01-23T12:40:46Z</time>
      </trkpt>
      <trkpt lat="43.45825" lon="5.83721">
        <ele>297</ele>
        <time>2016-01-23T12:40:47Z</time>
      </trkpt>
      <trkpt lat="43.45819" lon="5.83752">
        <ele>295.4</ele>
        <time>2016-01-23T12:40:48Z</time>
      </trkpt>
      <trkpt lat="43.45812" lon="5.83782">
        <ele>295</ele>
        <time>2016-01-23T12:40:49Z</time>
      </trkpt>
      <trkpt lat="43.45805" lon="5.83813">
        <ele>294.7</ele>
        <time>2016-01-23T12:40:50Z</time>
      </trkpt>
      <trkpt lat="43.45799" lon="5.83843">
        <ele>293.5</ele>
        <time>2016-01-23T12:40:51Z</time>
      </trkpt>
      <trkpt lat="43.45792" lon="5.83873">
        <ele>293</ele>
        <time>2016-01-23T12:40:52Z</time>
      </trkpt>
      <trkpt lat="43.45786" lon="5.83902">
        <ele>292.9</ele>
        <time>2016-01-23T12:40:53Z</time>
      </trkpt>
      <trkpt lat="43.4578" lon="5.83931">
        <ele>292.9</ele>
        <time>2016-01-23T12:40:54Z</time>
      </trkpt>
      <trkpt lat="43.45774" lon="5.83959">
        <ele>292.4</ele>
        <time>2016-01-23T12:40:55Z</time>
      </trkpt>
      <trkpt lat="43.45768" lon="5.83986">
        <ele>291.8</ele>
        <time>2016-01-23T12:40:56Z</time>
      </trkpt>
      <trkpt lat="43.45762" lon="5.84011">
        <ele>291.7</ele>
        <time>2016-01-23T12:40:57Z</time>
      </trkpt>
      <trkpt lat="43.45757" lon="5.84036">
        <ele>291.9</ele>
        <time>2016-01-23T12:40:58Z</time>
      </trkpt>
      <trkpt lat="43.45752" lon="5.8406">
        <ele>291.9</ele>
        <time>2016-01-23T12:40:59Z</time>
      </trkpt>
      <trkpt lat="43.45746" lon="5.84084">
        <ele>291.9</ele>
        <time>2016-01-23T12:41:00Z</time>
      </trkpt>
      <trkpt lat="43.45741" lon="5.84107">
        <ele>291.1</ele>
        <time>2016-01-23T12:41:01Z</time>
      </trkpt>
      <trkpt lat="43.45737" lon="5.84129">
        <ele>290.7</ele>
        <time>2016-01-23T12:41:02Z</time>
      </trkpt>
      <trkpt lat="43.45732" lon="5.84152">
        <ele>290.9</ele>
        <time>2016-01-23T12:41:03Z</time>
      </trkpt>
      <trkpt lat="43.45727" lon="5.84173">
        <ele>291.6</ele>
        <time>2016-01-23T12:41:04Z</time>
      </trkpt>
      <trkpt lat="43.45723" lon="5.84193">
        <ele>291</ele>
        <time>2016-01-23T12:41:05Z</time>
      </trkpt>
      <trkpt lat="43.45718" lon="5.84213">
        <ele>291</ele>
        <time>2016-01-23T12:41:06Z</time>
      </trkpt>
      <trkpt lat="43.45714" lon="5.84234">
        <ele>291</ele>
        <time>2016-01-23T12:41:07Z</time>
      </trkpt>
      <trkpt lat="43.4571" lon="5.84254">
        <ele>291</ele>
        <time>2016-01-23T12:41:08Z</time>
      </trkpt>
      <trkpt lat="43.45706" lon="5.84273">
        <ele>291</ele>
        <time>2016-01-23T12:41:09Z</time>
      </trkpt>
      <trkpt lat="43.45701" lon="5.84293">
        <ele>291</ele>
        <time>2016-01-23T12:41:10Z</time>
      </trkpt>
      <trkpt lat="43.45697" lon="5.84313">
        <ele>291</ele>
        <time>2016-01-23T12:41:11Z</time>
      </trkpt>
      <trkpt lat="43.45692" lon="5.84334">
        <ele>291</ele>
        <time>2016-01-23T12:41:12Z</time>
      </trkpt>
      <trkpt lat="43.45688" lon="5.84354">
        <ele>291</ele>
        <time>2016-01-23T12:41:13Z</time>
      </trkpt>
      <trkpt lat="43.45683" lon="5.84374">
        <ele>290.7</ele>
        <time>2016-01-23T12:41:14Z</time>
      </trkpt>
      <trkpt lat="43.45679" lon="5.84394">
        <ele>290.6</ele>
        <time>2016-01-23T12:41:15Z</time>
      </trkpt>
      <trkpt lat="43.45675" lon="5.84413">
        <ele>290.7</ele>
        <time>2016-01-23T12:41:16Z</time>
      </trkpt>
      <trkpt lat="43.45671" lon="5.84432">
        <ele>290.9</ele>
        <time>2016-01-23T12:41:17Z</time>
      </trkpt>
      <trkpt lat="43.45666" lon="5.84452">
        <ele>290.8</ele>
        <time>2016-01-23T12:41:18Z</time>
      </trkpt>
      <trkpt lat="43.45662" lon="5.84472">
        <ele>290.2</ele>
        <time>2016-01-23T12:41:19Z</time>
      </trkpt>
      <trkpt lat="43.45657" lon="5.84493">
        <ele>290.1</ele>
        <time>2016-01-23T12:41:20Z</time>
      </trkpt>
      <trkpt lat="43.45653" lon="5.84514">
        <ele>290</ele>
        <time>2016-01-23T12:41:21Z</time>
      </trkpt>
      <trkpt lat="43.45648" lon="5.84535">
        <ele>289.9</ele>
        <time>2016-01-23T12:41:22Z</time>
      </trkpt>
      <trkpt lat="43.45644" lon="5.84555">
        <ele>289.8</ele>
        <time>2016-01-23T12:41:23Z</time>
      </trkpt>
      <trkpt lat="43.45639" lon="5.84575">
        <ele>290</ele>
        <time>2016-01-23T12:41:24Z</time>
      </trkpt>
      <trkpt lat="43.45635" lon="5.84594">
        <ele>290</ele>
        <time>2016-01-23T12:41:25Z</time>
      </trkpt>
      <trkpt lat="43.4563" lon="5.84613">
        <ele>289.9</ele>
        <time>2016-01-23T12:41:26Z</time>
      </trkpt>
      <trkpt lat="43.45626" lon="5.84632">
        <ele>289.6</ele>
        <time>2016-01-23T12:41:27Z</time>
      </trkpt>
      <trkpt lat="43.45622" lon="5.84651">
        <ele>289.6</ele>
        <time>2016-01-23T12:41:28Z</time>
      </trkpt>
      <trkpt lat="43.45618" lon="5.84669">
        <ele>289.8</ele>
        <time>2016-01-23T12:41:29Z</time>
      </trkpt>
      <trkpt lat="43.45614" lon="5.84687">
        <ele>289.9</ele>
        <time>2016-01-23T12:41:30Z</time>
      </trkpt>
      <trkpt lat="43.4561" lon="5.84704">
        <ele>289.7</ele>
        <time>2016-01-23T12:41:31Z</time>
      </trkpt>
      <trkpt lat="43.45606" lon="5.84722">
        <ele>289.2</ele>
        <time>2016-01-23T12:41:32Z</time>
      </trkpt>
      <trkpt lat="43.45602" lon="5.84739">
        <ele>289.1</ele>
        <time>2016-01-23T12:41:33Z</time>
      </trkpt>
      <trkpt lat="43.45598" lon="5.84755">
        <ele>289</ele>
        <time>2016-01-23T12:41:34Z</time>
      </trkpt>
      <trkpt lat="43.45595" lon="5.84771">
        <ele>289</ele>
        <time>2016-01-23T12:41:35Z</time>
      </trkpt>
      <trkpt lat="43.45591" lon="5.84786">
        <ele>288.9</ele>
        <time>2016-01-23T12:41:36Z</time>
      </trkpt>
      <trkpt lat="43.45588" lon="5.84801">
        <ele>288.9</ele>
        <time>2016-01-23T12:41:37Z</time>
      </trkpt>
      <trkpt lat="43.45585" lon="5.84816">
        <ele>288.9</ele>
        <time>2016-01-23T12:41:38Z</time>
      </trkpt>
      <trkpt lat="43.45582" lon="5.84829">
        <ele>289</ele>
        <time>2016-01-23T12:41:39Z</time>
      </trkpt>
      <trkpt lat="43.45579" lon="5.84842">
        <ele>289</ele>
        <time>2016-01-23T12:41:40Z</time>
      </trkpt>
      <trkpt lat="43.45576" lon="5.84855">
        <ele>289</ele>
        <time>2016-01-23T12:41:41Z</time>
      </trkpt>
      <trkpt lat="43.45573" lon="5.84866">
        <ele>289</ele>
        <time>2016-01-23T12:41:42Z</time>
      </trkpt>
      <trkpt lat="43.45571" lon="5.84876">
        <ele>289</ele>
        <time>2016-01-23T12:41:43Z</time>
      </trkpt>
      <trkpt lat="43.45568" lon="5.84884">
        <ele>289.1</ele>
        <time>2016-01-23T12:41:44Z</time>
      </trkpt>
      <trkpt lat="43.45566" lon="5.84891">
        <ele>289.3</ele>
        <time>2016-01-23T12:41:45Z</time>
      </trkpt>
      <trkpt lat="43.45565" lon="5.84896">
        <ele>289.6</ele>
        <time>2016-01-23T12:41:46Z</time>
      </trkpt>
      <trkpt lat="43.45563" lon="5.84899">
        <ele>289.8</ele>
        <time>2016-01-23T12:41:47Z</time>
      </trkpt>
      <trkpt lat="43.45561" lon="5.84902">
        <ele>290.1</ele>
        <time>2016-01-23T12:41:48Z</time>
      </trkpt>
      <trkpt lat="43.45559" lon="5.84905">
        <ele>290.4</ele>
        <time>2016-01-23T12:41:49Z</time>
      </trkpt>
      <trkpt lat="43.45555" lon="5.84909">
        <ele>290.7</ele>
        <time>2016-01-23T12:41:50Z</time>
      </trkpt>
      <trkpt lat="43.45551" lon="5.84914">
        <ele>290.6</ele>
        <time>2016-01-23T12:41:51Z</time>
      </trkpt>
      <trkpt lat="43.45547" lon="5.84921">
        <ele>290.3</ele>
        <time>2016-01-23T12:41:52Z</time>
      </trkpt>
      <trkpt lat="43.45544" lon="5.84928">
        <ele>290.1</ele>
        <time>2016-01-23T12:41:53Z</time>
      </trkpt>
      <trkpt lat="43.45543" lon="5.84936">
        <ele>290</ele>
        <time>2016-01-23T12:41:54Z</time>
      </trkpt>
      <trkpt lat="43.45543" lon="5.84945">
        <ele>290</ele>
        <time>2016-01-23T12:41:55Z</time>
      </trkpt>
      <trkpt lat="43.45546" lon="5.84952">
        <ele>289.7</ele>
        <time>2016-01-23T12:41:56Z</time>
      </trkpt>
      <trkpt lat="43.45552" lon="5.84957">
        <ele>289.5</ele>
        <time>2016-01-23T12:41:57Z</time>
      </trkpt>
      <trkpt lat="43.45558" lon="5.8496">
        <ele>289.4</ele>
        <time>2016-01-23T12:41:58Z</time>
      </trkpt>
      <trkpt lat="43.45565" lon="5.84962">
        <ele>289.2</ele>
        <time>2016-01-23T12:41:59Z</time>
      </trkpt>
      <trkpt lat="43.45574" lon="5.84962">
        <ele>289.1</ele>
        <time>2016-01-23T12:42:00Z</time>
      </trkpt>
      <trkpt lat="43.45582" lon="5.84964">
        <ele>289</ele>
        <time>2016-01-23T12:42:01Z</time>
      </trkpt>
      <trkpt lat="43.4559" lon="5.84966">
        <ele>289</ele>
        <time>2016-01-23T12:42:02Z</time>
      </trkpt>
      <trkpt lat="43.45599" lon="5.84971">
        <ele>289</ele>
        <time>2016-01-23T12:42:03Z</time>
      </trkpt>
      <trkpt lat="43.45607" lon="5.84977">
        <ele>289</ele>
        <time>2016-01-23T12:42:04Z</time>
      </trkpt>
      <trkpt lat="43.45616" lon="5.84985">
        <ele>289.1</ele>
        <time>2016-01-23T12:42:05Z</time>
      </trkpt>
      <trkpt lat="43.45624" lon="5.84995">
        <ele>289.4</ele>
        <time>2016-01-23T12:42:06Z</time>
      </trkpt>
      <trkpt lat="43.45633" lon="5.85008">
        <ele>289.6</ele>
        <time>2016-01-23T12:42:07Z</time>
      </trkpt>
      <trkpt lat="43.45642" lon="5.85022">
        <ele>289.2</ele>
        <time>2016-01-23T12:42:08Z</time>
      </trkpt>
      <trkpt lat="43.4565" lon="5.85037">
        <ele>289.1</ele>
        <time>2016-01-23T12:42:09Z</time>
      </trkpt>
      <trkpt lat="43.45658" lon="5.85052">
        <ele>289.6</ele>
        <time>2016-01-23T12:42:10Z</time>
      </trkpt>
      <trkpt lat="43.45666" lon="5.85068">
        <ele>290</ele>
        <time>2016-01-23T12:42:11Z</time>
      </trkpt>
      <trkpt lat="43.45672" lon="5.85085">
        <ele>289.7</ele>
        <time>2016-01-23T12:42:12Z</time>
      </trkpt>
      <trkpt lat="43.45678" lon="5.85102">
        <ele>289.2</ele>
        <time>2016-01-23T12:42:13Z</time>
      </trkpt>
      <trkpt lat="43.45684" lon="5.85119">
        <ele>289.2</ele>
        <time>2016-01-23T12:42:14Z</time>
      </trkpt>
      <trkpt lat="43.45689" lon="5.85135">
        <ele>289.7</ele>
        <time>2016-01-23T12:42:15Z</time>
      </trkpt>
      <trkpt lat="43.45693" lon="5.85151">
        <ele>290</ele>
        <time>2016-01-23T12:42:16Z</time>
      </trkpt>
      <trkpt lat="43.45697" lon="5.85167">
        <ele>289.9</ele>
        <time>2016-01-23T12:42:17Z</time>
      </trkpt>
      <trkpt lat="43.457" lon="5.85181">
        <ele>289.8</ele>
        <time>2016-01-23T12:42:18Z</time>
      </trkpt>
      <trkpt lat="43.45701" lon="5.85194">
        <ele>289.8</ele>
        <time>2016-01-23T12:42:19Z</time>
      </trkpt>
      <trkpt lat="43.45701" lon="5.85205">
        <ele>289.5</ele>
        <time>2016-01-23T12:42:20Z</time>
      </trkpt>
      <trkpt lat="43.45698" lon="5.85215">
        <ele>289.2</ele>
        <time>2016-01-23T12:42:21Z</time>
      </trkpt>
      <trkpt lat="43.45692" lon="5.85223">
        <ele>289</ele>
        <time>2016-01-23T12:42:22Z</time>
      </trkpt>
      <trkpt lat="43.45683" lon="5.85228">
        <ele>289</ele>
        <time>2016-01-23T12:42:23Z</time>
      </trkpt>
      <trkpt lat="43.45674" lon="5.85233">
        <ele>289</ele>
        <time>2016-01-23T12:42:24Z</time>
      </trkpt>
      <trkpt lat="43.45664" lon="5.85236">
        <ele>289</ele>
        <time>2016-01-23T12:42:25Z</time>
      </trkpt>
      <trkpt lat="43.45655" lon="5.85239">
        <ele>289</ele>
        <time>2016-01-23T12:42:26Z</time>
      </trkpt>
      <trkpt lat="43.45646" lon="5.8524">
        <ele>289</ele>
        <time>2016-01-23T12:42:27Z</time>
      </trkpt>
      <trkpt lat="43.45638" lon="5.8524">
        <ele>289</ele>
        <time>2016-01-23T12:42:28Z</time>
      </trkpt>
      <trkpt lat="43.45631" lon="5.85239">
        <ele>289</ele>
        <time>2016-01-23T12:42:29Z</time>
      </trkpt>
      <trkpt lat="43.45624" lon="5.85239">
        <ele>289</ele>
        <time>2016-01-23T12:42:30Z</time>
      </trkpt>
      <trkpt lat="43.45619" lon="5.85243">
        <ele>289</ele>
        <time>2016-01-23T12:42:31Z</time>
      </trkpt>
      <trkpt lat="43.45617" lon="5.8525">
        <ele>289</ele>
        <time>2016-01-23T12:42:32Z</time>
      </trkpt>
      <trkpt lat="43.45618" lon="5.85257">
        <ele>289</ele>
        <time>2016-01-23T12:42:33Z</time>
      </trkpt>
      <trkpt lat="43.45622" lon="5.8526">
        <ele>289</ele>
        <time>2016-01-23T12:42:34Z</time>
      </trkpt>
      <trkpt lat="43.45626" lon="5.85262">
        <ele>289</ele>
        <time>2016-01-23T12:42:35Z</time>
      </trkpt>
      <trkpt lat="43.45632" lon="5.85259">
        <ele>289</ele>
        <time>2016-01-23T12:42:36Z</time>
      </trkpt>
      <trkpt lat="43.45637" lon="5.85256">
        <ele>289</ele>
        <time>2016-01-23T12:42:37Z</time>
      </trkpt>
      <trkpt lat="43.45641" lon="5.85253">
        <ele>289</ele>
        <time>2016-01-23T12:42:38Z</time>
      </trkpt>
      <trkpt lat="43.45646" lon="5.85253">
        <ele>289</ele>
        <time>2016-01-23T12:42:39Z</time>
      </trkpt>
      <trkpt lat="43.4565" lon="5.85253">
        <ele>289</ele>
        <time>2016-01-23T12:42:40Z</time>
      </trkpt>
      <trkpt lat="43.45653" lon="5.85253">
        <ele>289</ele>
        <time>2016-01-23T12:42:41Z</time>
      </trkpt>
      <trkpt lat="43.45654" lon="5.85252">
        <ele>289</ele>
        <time>2016-01-23T12:42:42Z</time>
      </trkpt>
      <trkpt lat="43.45655" lon="5.85251">
        <ele>289</ele>
        <time>2016-01-23T12:42:43Z</time>
      </trkpt>
      <trkpt lat="43.45655" lon="5.8525">
        <ele>289</ele>
        <time>2016-01-23T12:42:44Z</time>
      </trkpt>
      <trkpt lat="43.45656" lon="5.8525">
        <ele>289</ele>
        <time>2016-01-23T12:42:45Z</time>
      </trkpt>
      <trkpt lat="43.45656" lon="5.85249">
        <ele>289</ele>
        <time>2016-01-23T12:42:46Z</time>
      </trkpt>
      <trkpt lat="43.45656" lon="5.85249">
        <ele>289</ele>
        <time>2016-01-23T12:42:47Z</time>
      </trkpt>
      <trkpt lat="43.45656" lon="5.85249">
        <ele>289</ele>
        <time>2016-01-23T12:42:48Z</time>
      </trkpt>
      <trkpt lat="43.45658" lon="5.85244">
        <ele>289</ele>
        <time>2016-01-23T13:26:38Z</time>
      </trkpt>
      <trkpt lat="43.45658" lon="5.85244">
        <ele>289</ele>
        <time>2016-01-23T13:26:39Z</time>
      </trkpt>
      <trkpt lat="43.45658" lon="5.85244">
        <ele>289</ele>
        <time>2016-01-23T13:26:40Z</time>
      </trkpt>
      <trkpt lat="43.45658" lon="5.85244">
        <ele>289</ele>
        <time>2016-01-23T13:26:41Z</time>
      </trkpt>
      <trkpt lat="43.45658" lon="5.85244">
        <ele>289</ele>
        <time>2016-01-23T13:26:42Z</time>
      </trkpt>
      <trkpt lat="43.45658" lon="5.85244">
        <ele>289</ele>
        <time>2016-01-23T13:26:43Z</time>
      </trkpt>
      <trkpt lat="43.45658" lon="5.85244">
        <ele>289</ele>
        <time>2016-01-23T13:26:44Z</time>
      </trkpt>
      <trkpt lat="43.45658" lon="5.85244">
        <ele>289</ele>
        <time>2016-01-23T13:26:45Z</time>
      </trkpt>
      <trkpt lat="43.45658" lon="5.85244">
        <ele>289</ele>
        <time>2016-01-23T13:26:46Z</time>
      </trkpt>
      <trkpt lat="43.45658" lon="5.85244">
        <ele>289</ele>
        <time>2016-01-23T13:26:47Z</time>
      </trkpt>
      <trkpt lat="43.45658" lon="5.85244">
        <ele>289</ele>
        <time>2016-01-23T13:26:48Z</time>
      </trkpt>
      <trkpt lat="43.45658" lon="5.85244">
        <ele>289</ele>
        <time>2016-01-23T13:26:49Z</time>
      </trkpt>
      <trkpt lat="43.45658" lon="5.85244">
        <ele>289</ele>
        <time>2016-01-23T13:26:50Z</time>
      </trkpt>
      <trkpt lat="43.45658" lon="5.85244">
        <ele>289</ele>
        <time>2016-01-23T13:26:51Z</time>
      </trkpt>
      <trkpt lat="43.45658" lon="5.85244">
        <ele>289</ele>
        <time>2016-01-23T13:26:52Z</time>
      </trkpt>
      <trkpt lat="43.45658" lon="5.85244">
        <ele>289</ele>
        <time>2016-01-23T13:26:53Z</time>
      </trkpt>
      <trkpt lat="43.45658" lon="5.85244">
        <ele>289</ele>
        <time>2016-01-23T13:26:54Z</time>
      </trkpt>
      <trkpt lat="43.45658" lon="5.85244">
        <ele>289</ele>
        <time>2016-01-23T13:26:55Z</time>
      </trkpt>
      <trkpt lat="43.45658" lon="5.85244">
        <ele>289</ele>
        <time>2016-01-23T13:26:56Z</time>
      </trkpt>
      <trkpt lat="43.45658" lon="5.85244">
        <ele>289</ele>
        <time>2016-01-23T13:26:57Z</time>
      </trkpt>
      <trkpt lat="43.45657" lon="5.85245">
        <ele>289</ele>
        <time>2016-01-23T13:26:58Z</time>
      </trkpt>
      <trkpt lat="43.45657" lon="5.85245">
        <ele>289</ele>
        <time>2016-01-23T13:26:59Z</time>
      </trkpt>
      <trkpt lat="43.45657" lon="5.85245">
        <ele>289</ele>
        <time>2016-01-23T13:27:00Z</time>
      </trkpt>
      <trkpt lat="43.45657" lon="5.85245">
        <ele>289</ele>
        <time>2016-01-23T13:27:01Z</time>
      </trkpt>
      <trkpt lat="43.45657" lon="5.85245">
        <ele>289</ele>
        <time>2016-01-23T13:27:02Z</time>
      </trkpt>
      <trkpt lat="43.45657" lon="5.85245">
        <ele>289</ele>
        <time>2016-01-23T13:27:03Z</time>
      </trkpt>
      <trkpt lat="43.45657" lon="5.85245">
        <ele>289</ele>
        <time>2016-01-23T13:27:04Z</time>
      </trkpt>
      <trkpt lat="43.45657" lon="5.85245">
        <ele>289</ele>
        <time>2016-01-23T13:27:05Z</time>
      </trkpt>
      <trkpt lat="43.45657" lon="5.85245">
        <ele>289</ele>
        <time>2016-01-23T13:27:06Z</time>
      </trkpt>
      <trkpt lat="43.45657" lon="5.85245">
        <ele>289</ele>
        <time>2016-01-23T13:27:07Z</time>
      </trkpt>
      <trkpt lat="43.45657" lon="5.85245">
        <ele>289</ele>
        <time>2016-01-23T13:27:08Z</time>
      </trkpt>
      <trkpt lat="43.45657" lon="5.85245">
        <ele>289</ele>
        <time>2016-01-23T13:27:09Z</time>
      </trkpt>
      <trkpt lat="43.45657" lon="5.85245">
        <ele>289</ele>
        <time>2016-01-23T13:27:10Z</time>
      </trkpt>
      <trkpt lat="43.45657" lon="5.85245">
        <ele>289</ele>
        <time>2016-01-23T13:27:11Z</time>
      </trkpt>
      <trkpt lat="43.45657" lon="5.85245">
        <ele>289</ele>
        <time>2016-01-23T13:27:12Z</time>
      </trkpt>
      <trkpt lat="43.45657" lon="5.85245">
        <ele>289</ele>
        <time>2016-01-23T13:27:13Z</time>
      </trkpt>
      <trkpt lat="43.45657" lon="5.85245">
        <ele>289</ele>
        <time>2016-01-23T13:27:14Z</time>
      </trkpt>
      <trkpt lat="43.45656" lon="5.85245">
        <ele>289</ele>
        <time>2016-01-23T13:27:15Z</time>
      </trkpt>
      <trkpt lat="43.45656" lon="5.85245">
        <ele>289</ele>
        <time>2016-01-23T13:27:16Z</time>
      </trkpt>
      <trkpt lat="43.45656" lon="5.85245">
        <ele>289</ele>
        <time>2016-01-23T13:27:17Z</time>
      </trkpt>
      <trkpt lat="43.45656" lon="5.85246">
        <ele>289</ele>
        <time>2016-01-23T13:27:18Z</time>
      </trkpt>
      <trkpt lat="43.45656" lon="5.85246">
        <ele>289</ele>
        <time>2016-01-23T13:27:19Z</time>
      </trkpt>
      <trkpt lat="43.45656" lon="5.85246">
        <ele>289</ele>
        <time>2016-01-23T13:27:20Z</time>
      </trkpt>
      <trkpt lat="43.45656" lon="5.85246">
        <ele>289</ele>
        <time>2016-01-23T13:27:21Z</time>
      </trkpt>
      <trkpt lat="43.45656" lon="5.85246">
        <ele>289</ele>
        <time>2016-01-23T13:27:22Z</time>
      </trkpt>
      <trkpt lat="43.45656" lon="5.85246">
        <ele>289</ele>
        <time>2016-01-23T13:27:23Z</time>
      </trkpt>
      <trkpt lat="43.45657" lon="5.85246">
        <ele>289</ele>
        <time>2016-01-23T13:27:24Z</time>
      </trkpt>
      <trkpt lat="43.45657" lon="5.85246">
        <ele>289</ele>
        <time>2016-01-23T13:27:25Z</time>
      </trkpt>
      <trkpt lat="43.45657" lon="5.85246">
        <ele>289</ele>
        <time>2016-01-23T13:27:26Z</time>
      </trkpt>
      <trkpt lat="43.45657" lon="5.85246">
        <ele>289</ele>
        <time>2016-01-23T13:27:27Z</time>
      </trkpt>
      <trkpt lat="43.45657" lon="5.85246">
        <ele>289</ele>
        <time>2016-01-23T13:27:28Z</time>
      </trkpt>
      <trkpt lat="43.45657" lon="5.85246">
        <ele>289</ele>
        <time>2016-01-23T13:27:29Z</time>
      </trkpt>
      <trkpt lat="43.45657" lon="5.85246">
        <ele>289</ele>
        <time>2016-01-23T13:27:30Z</time>
      </trkpt>
      <trkpt lat="43.45657" lon="5.85246">
        <ele>289</ele>
        <time>2016-01-23T13:27:31Z</time>
      </trkpt>
      <trkpt lat="43.45657" lon="5.85246">
        <ele>289</ele>
        <time>2016-01-23T13:27:32Z</time>
      </trkpt>
      <trkpt lat="43.45657" lon="5.85246">
        <ele>289</ele>
        <time>2016-01-23T13:27:33Z</time>
      </trkpt>
      <trkpt lat="43.45657" lon="5.85246">
        <ele>289</ele>
        <time>2016-01-23T13:27:34Z</time>
      </trkpt>
      <trkpt lat="43.45657" lon="5.85246">
        <ele>289</ele>
        <time>2016-01-23T13:27:35Z</time>
      </trkpt>
      <trkpt lat="43.45657" lon="5.85246">
        <ele>289</ele>
        <time>2016-01-23T13:27:36Z</time>
      </trkpt>
      <trkpt lat="43.45657" lon="5.85246">
        <ele>289</ele>
        <time>2016-01-23T13:27:37Z</time>
      </trkpt>
      <trkpt lat="43.45657" lon="5.85246">
        <ele>289</ele>
        <time>2016-01-23T13:27:38Z</time>
      </trkpt>
      <trkpt lat="43.45657" lon="5.85246">
        <ele>289</ele>
        <time>2016-01-23T13:27:39Z</time>
      </trkpt>
      <trkpt lat="43.45657" lon="5.85246">
        <ele>289</ele>
        <time>2016-01-23T13:27:40Z</time>
      </trkpt>
      <trkpt lat="43.45657" lon="5.85246">
        <ele>289</ele>
        <time>2016-01-23T13:27:41Z</time>
      </trkpt>
      <trkpt lat="43.45659" lon="5.85249">
        <ele>289</ele>
        <time>2016-01-23T13:27:42Z</time>
      </trkpt>
      <trkpt lat="43.45659" lon="5.85251">
        <ele>289</ele>
        <time>2016-01-23T13:27:43Z</time>
      </trkpt>
      <trkpt lat="43.4566" lon="5.85256">
        <ele>289</ele>
        <time>2016-01-23T13:27:44Z</time>
      </trkpt>
      <trkpt lat="43.4566" lon="5.85261">
        <ele>289</ele>
        <time>2016-01-23T13:27:45Z</time>
      </trkpt>
      <trkpt lat="43.45662" lon="5.85265">
        <ele>289</ele>
        <time>2016-01-23T13:27:46Z</time>
      </trkpt>
      <trkpt lat="43.45664" lon="5.85267">
        <ele>289</ele>
        <time>2016-01-23T13:27:47Z</time>
      </trkpt>
      <trkpt lat="43.45666" lon="5.85268">
        <ele>289</ele>
        <time>2016-01-23T13:27:48Z</time>
      </trkpt>
      <trkpt lat="43.4567" lon="5.85268">
        <ele>289</ele>
        <time>2016-01-23T13:27:49Z</time>
      </trkpt>
      <trkpt lat="43.45675" lon="5.85268">
        <ele>289</ele>
        <time>2016-01-23T13:27:50Z</time>
      </trkpt>
      <trkpt lat="43.4568" lon="5.85268">
        <ele>289</ele>
        <time>2016-01-23T13:27:51Z</time>
      </trkpt>
      <trkpt lat="43.45685" lon="5.85267">
        <ele>289</ele>
        <time>2016-01-23T13:27:52Z</time>
      </trkpt>
      <trkpt lat="43.45689" lon="5.85266">
        <ele>289</ele>
        <time>2016-01-23T13:27:53Z</time>
      </trkpt>
      <trkpt lat="43.45692" lon="5.85265">
        <ele>289</ele>
        <time>2016-01-23T13:27:54Z</time>
      </trkpt>
      <trkpt lat="43.45694" lon="5.85265">
        <ele>289</ele>
        <time>2016-01-23T13:27:55Z</time>
      </trkpt>
      <trkpt lat="43.45697" lon="5.85264">
        <ele>289</ele>
        <time>2016-01-23T13:27:56Z</time>
      </trkpt>
      <trkpt lat="43.45699" lon="5.85264">
        <ele>289</ele>
        <time>2016-01-23T13:27:57Z</time>
      </trkpt>
      <trkpt lat="43.45702" lon="5.85264">
        <ele>289</ele>
        <time>2016-01-23T13:27:58Z</time>
      </trkpt>
      <trkpt lat="43.45704" lon="5.85264">
        <ele>289</ele>
        <time>2016-01-23T13:27:59Z</time>
      </trkpt>
      <trkpt lat="43.45706" lon="5.85266">
        <ele>289</ele>
        <time>2016-01-23T13:28:00Z</time>
      </trkpt>
      <trkpt lat="43.45706" lon="5.85267">
        <ele>289</ele>
        <time>2016-01-23T13:28:01Z</time>
      </trkpt>
      <trkpt lat="43.45706" lon="5.85269">
        <ele>289</ele>
        <time>2016-01-23T13:28:02Z</time>
      </trkpt>
      <trkpt lat="43.45706" lon="5.8527">
        <ele>289</ele>
        <time>2016-01-23T13:28:03Z</time>
      </trkpt>
      <trkpt lat="43.45706" lon="5.8527">
        <ele>289</ele>
        <time>2016-01-23T13:28:04Z</time>
      </trkpt>
      <trkpt lat="43.45706" lon="5.8527">
        <ele>289</ele>
        <time>2016-01-23T13:28:05Z</time>
      </trkpt>
      <trkpt lat="43.45706" lon="5.85271">
        <ele>289</ele>
        <time>2016-01-23T13:28:06Z</time>
      </trkpt>
      <trkpt lat="43.45706" lon="5.85271">
        <ele>289</ele>
        <time>2016-01-23T13:28:07Z</time>
      </trkpt>
      <trkpt lat="43.45706" lon="5.85271">
        <ele>289</ele>
        <time>2016-01-23T13:28:08Z</time>
      </trkpt>
      <trkpt lat="43.45706" lon="5.85271">
        <ele>289</ele>
        <time>2016-01-23T13:28:09Z</time>
      </trkpt>
      <trkpt lat="43.45706" lon="5.85271">
        <ele>289</ele>
        <time>2016-01-23T13:28:10Z</time>
      </trkpt>
      <trkpt lat="43.45706" lon="5.85271">
        <ele>289</ele>
        <time>2016-01-23T13:28:11Z</time>
      </trkpt>
      <trkpt lat="43.45706" lon="5.85271">
        <ele>289</ele>
        <time>2016-01-23T13:28:12Z</time>
      </trkpt>
      <trkpt lat="43.45706" lon="5.85271">
        <ele>289</ele>
        <time>2016-01-23T13:28:13Z</time>
      </trkpt>
      <trkpt lat="43.45706" lon="5.85271">
        <ele>289</ele>
        <time>2016-01-23T13:28:14Z</time>
      </trkpt>
      <trkpt lat="43.45706" lon="5.85271">
        <ele>289</ele>
        <time>2016-01-23T13:28:15Z</time>
      </trkpt>
      <trkpt lat="43.45706" lon="5.85271">
        <ele>289</ele>
        <time>2016-01-23T13:28:16Z</time>
      </trkpt>
      <trkpt lat="43.45706" lon="5.85271">
        <ele>289</ele>
        <time>2016-01-23T13:28:17Z</time>
      </trkpt>
      <trkpt lat="43.45706" lon="5.8527">
        <ele>289</ele>
        <time>2016-01-23T13:28:18Z</time>
      </trkpt>
      <trkpt lat="43.45706" lon="5.8527">
        <ele>289</ele>
        <time>2016-01-23T13:28:19Z</time>
      </trkpt>
      <trkpt lat="43.45706" lon="5.8527">
        <ele>289</ele>
        <time>2016-01-23T13:28:20Z</time>
      </trkpt>
      <trkpt lat="43.45706" lon="5.8527">
        <ele>289</ele>
        <time>2016-01-23T13:28:21Z</time>
      </trkpt>
      <trkpt lat="43.45706" lon="5.85269">
        <ele>289</ele>
        <time>2016-01-23T13:28:22Z</time>
      </trkpt>
      <trkpt lat="43.45706" lon="5.85269">
        <ele>289</ele>
        <time>2016-01-23T13:28:23Z</time>
      </trkpt>
      <trkpt lat="43.45706" lon="5.85269">
        <ele>289</ele>
        <time>2016-01-23T13:28:24Z</time>
      </trkpt>
      <trkpt lat="43.45706" lon="5.85269">
        <ele>289</ele>
        <time>2016-01-23T13:28:25Z</time>
      </trkpt>
      <trkpt lat="43.45706" lon="5.85268">
        <ele>289</ele>
        <time>2016-01-23T13:28:26Z</time>
      </trkpt>
      <trkpt lat="43.45706" lon="5.85268">
        <ele>289</ele>
        <time>2016-01-23T13:28:27Z</time>
      </trkpt>
      <trkpt lat="43.45706" lon="5.85268">
        <ele>289</ele>
        <time>2016-01-23T13:28:28Z</time>
      </trkpt>
      <trkpt lat="43.45706" lon="5.85268">
        <ele>289</ele>
        <time>2016-01-23T13:28:29Z</time>
      </trkpt>
      <trkpt lat="43.45706" lon="5.85267">
        <ele>289</ele>
        <time>2016-01-23T13:28:30Z</time>
      </trkpt>
      <trkpt lat="43.45706" lon="5.85267">
        <ele>289</ele>
        <time>2016-01-23T13:28:31Z</time>
      </trkpt>
      <trkpt lat="43.45706" lon="5.85267">
        <ele>289</ele>
        <time>2016-01-23T13:28:32Z</time>
      </trkpt>
      <trkpt lat="43.45706" lon="5.85267">
        <ele>289</ele>
        <time>2016-01-23T13:28:33Z</time>
      </trkpt>
      <trkpt lat="43.45706" lon="5.85267">
        <ele>289</ele>
        <time>2016-01-23T13:28:34Z</time>
      </trkpt>
      <trkpt lat="43.45706" lon="5.85267">
        <ele>289</ele>
        <time>2016-01-23T13:28:35Z</time>
      </trkpt>
      <trkpt lat="43.45706" lon="5.85267">
        <ele>289</ele>
        <time>2016-01-23T13:28:36Z</time>
      </trkpt>
      <trkpt lat="43.45706" lon="5.85267">
        <ele>289</ele>
        <time>2016-01-23T13:28:37Z</time>
      </trkpt>
      <trkpt lat="43.45706" lon="5.85267">
        <ele>289</ele>
        <time>2016-01-23T13:28:38Z</time>
      </trkpt>
      <trkpt lat="43.45706" lon="5.85267">
        <ele>289</ele>
        <time>2016-01-23T13:28:39Z</time>
      </trkpt>
      <trkpt lat="43.45706" lon="5.85267">
        <ele>289</ele>
        <time>2016-01-23T13:28:40Z</time>
      </trkpt>
      <trkpt lat="43.45706" lon="5.85267">
        <ele>289</ele>
        <time>2016-01-23T13:28:41Z</time>
      </trkpt>
      <trkpt lat="43.45706" lon="5.85267">
        <ele>289</ele>
        <time>2016-01-23T13:28:42Z</time>
      </trkpt>
      <trkpt lat="43.45706" lon="5.85267">
        <ele>289</ele>
        <time>2016-01-23T13:28:43Z</time>
      </trkpt>
      <trkpt lat="43.45706" lon="5.85267">
        <ele>289</ele>
        <time>2016-01-23T13:28:44Z</time>
      </trkpt>
      <trkpt lat="43.45706" lon="5.85268">
        <ele>289</ele>
        <time>2016-01-23T13:28:45Z</time>
      </trkpt>
      <trkpt lat="43.45706" lon="5.85268">
        <ele>289</ele>
        <time>2016-01-23T13:28:46Z</time>
      </trkpt>
      <trkpt lat="43.45706" lon="5.85268">
        <ele>289</ele>
        <time>2016-01-23T13:28:47Z</time>
      </trkpt>
      <trkpt lat="43.45706" lon="5.85268">
        <ele>289</ele>
        <time>2016-01-23T13:28:48Z</time>
      </trkpt>
      <trkpt lat="43.45706" lon="5.85268">
        <ele>289</ele>
        <time>2016-01-23T13:28:49Z</time>
      </trkpt>
      <trkpt lat="43.45706" lon="5.85268">
        <ele>289</ele>
        <time>2016-01-23T13:28:50Z</time>
      </trkpt>
      <trkpt lat="43.45706" lon="5.85268">
        <ele>289</ele>
        <time>2016-01-23T13:28:51Z</time>
      </trkpt>
      <trkpt lat="43.45706" lon="5.85268">
        <ele>289</ele>
        <time>2016-01-23T13:28:52Z</time>
      </trkpt>
      <trkpt lat="43.45706" lon="5.85268">
        <ele>289</ele>
        <time>2016-01-23T13:28:53Z</time>
      </trkpt>
      <trkpt lat="43.45706" lon="5.85268">
        <ele>289</ele>
        <time>2016-01-23T13:28:54Z</time>
      </trkpt>
      <trkpt lat="43.45706" lon="5.85268">
        <ele>289</ele>
        <time>2016-01-23T13:28:55Z</time>
      </trkpt>
      <trkpt lat="43.45706" lon="5.85268">
        <ele>289</ele>
        <time>2016-01-23T13:28:56Z</time>
      </trkpt>
      <trkpt lat="43.45706" lon="5.85268">
        <ele>289</ele>
        <time>2016-01-23T13:28:57Z</time>
      </trkpt>
      <trkpt lat="43.45706" lon="5.85268">
        <ele>289</ele>
        <time>2016-01-23T13:28:58Z</time>
      </trkpt>
      <trkpt lat="43.45706" lon="5.85268">
        <ele>289</ele>
        <time>2016-01-23T13:28:59Z</time>
      </trkpt>
      <trkpt lat="43.45706" lon="5.85268">
        <ele>289</ele>
        <time>2016-01-23T13:29:00Z</time>
      </trkpt>
      <trkpt lat="43.45706" lon="5.85268">
        <ele>289</ele>
        <time>2016-01-23T13:29:01Z</time>
      </trkpt>
      <trkpt lat="43.45706" lon="5.85268">
        <ele>289</ele>
        <time>2016-01-23T13:29:02Z</time>
      </trkpt>
      <trkpt lat="43.45706" lon="5.85268">
        <ele>289</ele>
        <time>2016-01-23T13:29:03Z</time>
      </trkpt>
      <trkpt lat="43.45705" lon="5.85268">
        <ele>289</ele>
        <time>2016-01-23T13:29:04Z</time>
      </trkpt>
      <trkpt lat="43.45705" lon="5.85268">
        <ele>289</ele>
        <time>2016-01-23T13:29:05Z</time>
      </trkpt>
      <trkpt lat="43.45705" lon="5.85268">
        <ele>289</ele>
        <time>2016-01-23T13:29:06Z</time>
      </trkpt>
      <trkpt lat="43.45705" lon="5.85269">
        <ele>289</ele>
        <time>2016-01-23T13:29:07Z</time>
      </trkpt>
      <trkpt lat="43.45705" lon="5.85269">
        <ele>289</ele>
        <time>2016-01-23T13:29:08Z</time>
      </trkpt>
      <trkpt lat="43.45705" lon="5.85269">
        <ele>289</ele>
        <time>2016-01-23T13:29:09Z</time>
      </trkpt>
      <trkpt lat="43.45705" lon="5.85269">
        <ele>289</ele>
        <time>2016-01-23T13:29:10Z</time>
      </trkpt>
      <trkpt lat="43.45705" lon="5.85269">
        <ele>289</ele>
        <time>2016-01-23T13:29:11Z</time>
      </trkpt>
      <trkpt lat="43.45705" lon="5.85269">
        <ele>289</ele>
        <time>2016-01-23T13:29:12Z</time>
      </trkpt>
      <trkpt lat="43.45705" lon="5.85269">
        <ele>289</ele>
        <time>2016-01-23T13:29:13Z</time>
      </trkpt>
      <trkpt lat="43.45705" lon="5.85269">
        <ele>289</ele>
        <time>2016-01-23T13:29:14Z</time>
      </trkpt>
      <trkpt lat="43.45705" lon="5.85269">
        <ele>289</ele>
        <time>2016-01-23T13:29:15Z</time>
      </trkpt>
      <trkpt lat="43.45705" lon="5.85269">
        <ele>289</ele>
        <time>2016-01-23T13:29:16Z</time>
      </trkpt>
      <trkpt lat="43.45705" lon="5.85269">
        <ele>289</ele>
        <time>2016-01-23T13:29:17Z</time>
      </trkpt>
      <trkpt lat="43.45705" lon="5.85269">
        <ele>289</ele>
        <time>2016-01-23T13:29:18Z</time>
      </trkpt>
      <trkpt lat="43.45705" lon="5.85269">
        <ele>289</ele>
        <time>2016-01-23T13:29:19Z</time>
      </trkpt>
      <trkpt lat="43.45705" lon="5.85269">
        <ele>289</ele>
        <time>2016-01-23T13:29:20Z</time>
      </trkpt>
      <trkpt lat="43.45705" lon="5.85269">
        <ele>289</ele>
        <time>2016-01-23T13:29:21Z</time>
      </trkpt>
      <trkpt lat="43.45705" lon="5.85269">
        <ele>289</ele>
        <time>2016-01-23T13:29:22Z</time>
      </trkpt>
      <trkpt lat="43.45705" lon="5.85269">
        <ele>289</ele>
        <time>2016-01-23T13:29:23Z</time>
      </trkpt>
      <trkpt lat="43.45705" lon="5.85269">
        <ele>289</ele>
        <time>2016-01-23T13:29:24Z</time>
      </trkpt>
      <trkpt lat="43.45705" lon="5.85269">
        <ele>289</ele>
        <time>2016-01-23T13:29:25Z</time>
      </trkpt>
      <trkpt lat="43.45705" lon="5.85269">
        <ele>289</ele>
        <time>2016-01-23T13:29:26Z</time>
      </trkpt>
      <trkpt lat="43.45705" lon="5.85269">
        <ele>289</ele>
        <time>2016-01-23T13:29:27Z</time>
      </trkpt>
      <trkpt lat="43.45705" lon="5.85269">
        <ele>289</ele>
        <time>2016-01-23T13:29:28Z</time>
      </trkpt>
      <trkpt lat="43.45705" lon="5.85269">
        <ele>289</ele>
        <time>2016-01-23T13:29:29Z</time>
      </trkpt>
      <trkpt lat="43.45705" lon="5.85268">
        <ele>289</ele>
        <time>2016-01-23T13:29:30Z</time>
      </trkpt>
      <trkpt lat="43.45705" lon="5.85268">
        <ele>289</ele>
        <time>2016-01-23T13:29:31Z</time>
      </trkpt>
      <trkpt lat="43.45705" lon="5.85268">
        <ele>289</ele>
        <time>2016-01-23T13:29:32Z</time>
      </trkpt>
      <trkpt lat="43.45705" lon="5.85268">
        <ele>289</ele>
        <time>2016-01-23T13:29:33Z</time>
      </trkpt>
      <trkpt lat="43.45705" lon="5.85268">
        <ele>289</ele>
        <time>2016-01-23T13:29:34Z</time>
      </trkpt>
      <trkpt lat="43.45706" lon="5.85268">
        <ele>289</ele>
        <time>2016-01-23T13:29:35Z</time>
      </trkpt>
      <trkpt lat="43.45706" lon="5.85268">
        <ele>289</ele>
        <time>2016-01-23T13:29:36Z</time>
      </trkpt>
      <trkpt lat="43.45706" lon="5.85268">
        <ele>289</ele>
        <time>2016-01-23T13:29:37Z</time>
      </trkpt>
      <trkpt lat="43.45705" lon="5.85268">
        <ele>289</ele>
        <time>2016-01-23T13:29:38Z</time>
      </trkpt>
      <trkpt lat="43.45705" lon="5.85268">
        <ele>289</ele>
        <time>2016-01-23T13:29:39Z</time>
      </trkpt>
      <trkpt lat="43.45706" lon="5.85268">
        <ele>289</ele>
        <time>2016-01-23T13:29:40Z</time>
      </trkpt>
      <trkpt lat="43.45705" lon="5.85268">
        <ele>289</ele>
        <time>2016-01-23T13:29:41Z</time>
      </trkpt>
      <trkpt lat="43.45705" lon="5.85268">
        <ele>289</ele>
        <time>2016-01-23T13:29:42Z</time>
      </trkpt>
      <trkpt lat="43.45705" lon="5.85268">
        <ele>289</ele>
        <time>2016-01-23T13:29:43Z</time>
      </trkpt>
      <trkpt lat="43.45705" lon="5.85268">
        <ele>289</ele>
        <time>2016-01-23T13:29:44Z</time>
      </trkpt>
      <trkpt lat="43.45705" lon="5.85268">
        <ele>289</ele>
        <time>2016-01-23T13:29:45Z</time>
      </trkpt>
      <trkpt lat="43.45705" lon="5.85268">
        <ele>289</ele>
        <time>2016-01-23T13:29:46Z</time>
      </trkpt>
      <trkpt lat="43.45705" lon="5.85268">
        <ele>289</ele>
        <time>2016-01-23T13:29:47Z</time>
      </trkpt>
      <trkpt lat="43.45705" lon="5.85268">
        <ele>289</ele>
        <time>2016-01-23T13:29:48Z</time>
      </trkpt>
      <trkpt lat="43.45705" lon="5.85268">
        <ele>289</ele>
        <time>2016-01-23T13:29:49Z</time>
      </trkpt>
      <trkpt lat="43.45705" lon="5.85268">
        <ele>289</ele>
        <time>2016-01-23T13:29:50Z</time>
      </trkpt>
      <trkpt lat="43.45705" lon="5.85268">
        <ele>289</ele>
        <time>2016-01-23T13:29:51Z</time>
      </trkpt>
      <trkpt lat="43.45705" lon="5.85268">
        <ele>289</ele>
        <time>2016-01-23T13:29:52Z</time>
      </trkpt>
      <trkpt lat="43.45705" lon="5.85268">
        <ele>289</ele>
        <time>2016-01-23T13:29:53Z</time>
      </trkpt>
      <trkpt lat="43.45705" lon="5.85268">
        <ele>289</ele>
        <time>2016-01-23T13:29:54Z</time>
      </trkpt>
      <trkpt lat="43.45705" lon="5.85268">
        <ele>289</ele>
        <time>2016-01-23T13:29:55Z</time>
      </trkpt>
      <trkpt lat="43.45705" lon="5.85268">
        <ele>289</ele>
        <time>2016-01-23T13:29:56Z</time>
      </trkpt>
      <trkpt lat="43.45705" lon="5.85268">
        <ele>289</ele>
        <time>2016-01-23T13:29:57Z</time>
      </trkpt>
      <trkpt lat="43.45705" lon="5.85268">
        <ele>289</ele>
        <time>2016-01-23T13:29:58Z</time>
      </trkpt>
      <trkpt lat="43.45705" lon="5.85268">
        <ele>289</ele>
        <time>2016-01-23T13:29:59Z</time>
      </trkpt>
      <trkpt lat="43.45705" lon="5.85268">
        <ele>289</ele>
        <time>2016-01-23T13:30:00Z</time>
      </trkpt>
      <trkpt lat="43.45705" lon="5.85268">
        <ele>289</ele>
        <time>2016-01-23T13:30:01Z</time>
      </trkpt>
      <trkpt lat="43.45705" lon="5.85268">
        <ele>289</ele>
        <time>2016-01-23T13:30:02Z</time>
      </trkpt>
      <trkpt lat="43.45705" lon="5.85268">
        <ele>289</ele>
        <time>2016-01-23T13:30:03Z</time>
      </trkpt>
      <trkpt lat="43.45705" lon="5.85268">
        <ele>289</ele>
        <time>2016-01-23T13:30:04Z</time>
      </trkpt>
      <trkpt lat="43.45705" lon="5.85268">
        <ele>289</ele>
        <time>2016-01-23T13:30:05Z</time>
      </trkpt>
      <trkpt lat="43.45705" lon="5.85268">
        <ele>289</ele>
        <time>2016-01-23T13:30:06Z</time>
      </trkpt>
      <trkpt lat="43.45705" lon="5.85268">
        <ele>289</ele>
        <time>2016-01-23T13:30:07Z</time>
      </trkpt>
      <trkpt lat="43.45705" lon="5.85268">
        <ele>289</ele>
        <time>2016-01-23T13:30:08Z</time>
      </trkpt>
      <trkpt lat="43.45705" lon="5.85268">
        <ele>289</ele>
        <time>2016-01-23T13:30:09Z</time>
      </trkpt>
      <trkpt lat="43.45705" lon="5.85267">
        <ele>289</ele>
        <time>2016-01-23T13:30:10Z</time>
      </trkpt>
      <trkpt lat="43.45705" lon="5.85267">
        <ele>289</ele>
        <time>2016-01-23T13:30:11Z</time>
      </trkpt>
      <trkpt lat="43.45705" lon="5.85267">
        <ele>289</ele>
        <time>2016-01-23T13:30:12Z</time>
      </trkpt>
      <trkpt lat="43.45705" lon="5.85267">
        <ele>289</ele>
        <time>2016-01-23T13:30:13Z</time>
      </trkpt>
      <trkpt lat="43.45705" lon="5.85267">
        <ele>289</ele>
        <time>2016-01-23T13:30:14Z</time>
      </trkpt>
      <trkpt lat="43.45705" lon="5.85267">
        <ele>289</ele>
        <time>2016-01-23T13:30:15Z</time>
      </trkpt>
      <trkpt lat="43.45705" lon="5.85267">
        <ele>289</ele>
        <time>2016-01-23T13:30:16Z</time>
      </trkpt>
      <trkpt lat="43.45705" lon="5.85267">
        <ele>289</ele>
        <time>2016-01-23T13:30:17Z</time>
      </trkpt>
      <trkpt lat="43.45705" lon="5.85267">
        <ele>289</ele>
        <time>2016-01-23T13:30:18Z</time>
      </trkpt>
      <trkpt lat="43.45705" lon="5.85267">
        <ele>289</ele>
        <time>2016-01-23T13:30:19Z</time>
      </trkpt>
      <trkpt lat="43.45705" lon="5.85267">
        <ele>289</ele>
        <time>2016-01-23T13:30:20Z</time>
      </trkpt>
      <trkpt lat="43.45705" lon="5.85268">
        <ele>289</ele>
        <time>2016-01-23T13:30:21Z</time>
      </trkpt>
      <trkpt lat="43.45705" lon="5.85268">
        <ele>289</ele>
        <time>2016-01-23T13:30:22Z</time>
      </trkpt>
      <trkpt lat="43.45705" lon="5.85268">
        <ele>289</ele>
        <time>2016-01-23T13:30:23Z</time>
      </trkpt>
      <trkpt lat="43.45705" lon="5.85268">
        <ele>289</ele>
        <time>2016-01-23T13:30:24Z</time>
      </trkpt>
      <trkpt lat="43.45705" lon="5.85268">
        <ele>289</ele>
        <time>2016-01-23T13:30:25Z</time>
      </trkpt>
      <trkpt lat="43.45705" lon="5.85268">
        <ele>289</ele>
        <time>2016-01-23T13:30:26Z</time>
      </trkpt>
      <trkpt lat="43.45704" lon="5.85268">
        <ele>289</ele>
        <time>2016-01-23T13:30:27Z</time>
      </trkpt>
      <trkpt lat="43.45704" lon="5.85268">
        <ele>289</ele>
        <time>2016-01-23T13:30:28Z</time>
      </trkpt>
      <trkpt lat="43.45704" lon="5.85268">
        <ele>289</ele>
        <time>2016-01-23T13:30:29Z</time>
      </trkpt>
      <trkpt lat="43.45704" lon="5.85268">
        <ele>289</ele>
        <time>2016-01-23T13:30:30Z</time>
      </trkpt>
      <trkpt lat="43.45704" lon="5.85268">
        <ele>289</ele>
        <time>2016-01-23T13:30:31Z</time>
      </trkpt>
      <trkpt lat="43.45705" lon="5.85268">
        <ele>289</ele>
        <time>2016-01-23T13:30:32Z</time>
      </trkpt>
      <trkpt lat="43.45705" lon="5.85269">
        <ele>289</ele>
        <time>2016-01-23T13:30:33Z</time>
      </trkpt>
      <trkpt lat="43.45705" lon="5.85272">
        <ele>289</ele>
        <time>2016-01-23T13:30:34Z</time>
      </trkpt>
      <trkpt lat="43.45706" lon="5.85276">
        <ele>289</ele>
        <time>2016-01-23T13:30:35Z</time>
      </trkpt>
      <trkpt lat="43.45707" lon="5.85279">
        <ele>289</ele>
        <time>2016-01-23T13:30:36Z</time>
      </trkpt>
      <trkpt lat="43.45707" lon="5.85281">
        <ele>289</ele>
        <time>2016-01-23T13:30:37Z</time>
      </trkpt>
      <trkpt lat="43.45707" lon="5.85282">
        <ele>289</ele>
        <time>2016-01-23T13:30:38Z</time>
      </trkpt>
      <trkpt lat="43.45707" lon="5.85283">
        <ele>289</ele>
        <time>2016-01-23T13:30:39Z</time>
      </trkpt>
      <trkpt lat="43.45708" lon="5.85284">
        <ele>289</ele>
        <time>2016-01-23T13:30:40Z</time>
      </trkpt>
      <trkpt lat="43.45709" lon="5.85286">
        <ele>289</ele>
        <time>2016-01-23T13:30:41Z</time>
      </trkpt>
      <trkpt lat="43.45711" lon="5.85288">
        <ele>289</ele>
        <time>2016-01-23T13:30:42Z</time>
      </trkpt>
      <trkpt lat="43.45713" lon="5.85291">
        <ele>289</ele>
        <time>2016-01-23T13:30:43Z</time>
      </trkpt>
      <trkpt lat="43.45715" lon="5.85297">
        <ele>289</ele>
        <time>2016-01-23T13:30:44Z</time>
      </trkpt>
      <trkpt lat="43.45716" lon="5.85306">
        <ele>289</ele>
        <time>2016-01-23T13:30:45Z</time>
      </trkpt>
      <trkpt lat="43.45718" lon="5.85316">
        <ele>289</ele>
        <time>2016-01-23T13:30:46Z</time>
      </trkpt>
      <trkpt lat="43.45718" lon="5.85327">
        <ele>289</ele>
        <time>2016-01-23T13:30:47Z</time>
      </trkpt>
      <trkpt lat="43.45718" lon="5.85338">
        <ele>289</ele>
        <time>2016-01-23T13:30:48Z</time>
      </trkpt>
      <trkpt lat="43.45719" lon="5.85348">
        <ele>289</ele>
        <time>2016-01-23T13:30:49Z</time>
      </trkpt>
      <trkpt lat="43.45719" lon="5.85356">
        <ele>289</ele>
        <time>2016-01-23T13:30:50Z</time>
      </trkpt>
      <trkpt lat="43.45718" lon="5.85364">
        <ele>289</ele>
        <time>2016-01-23T13:30:51Z</time>
      </trkpt>
      <trkpt lat="43.45718" lon="5.85369">
        <ele>289</ele>
        <time>2016-01-23T13:30:52Z</time>
      </trkpt>
      <trkpt lat="43.45718" lon="5.85373">
        <ele>289</ele>
        <time>2016-01-23T13:30:53Z</time>
      </trkpt>
      <trkpt lat="43.45718" lon="5.85375">
        <ele>289</ele>
        <time>2016-01-23T13:30:54Z</time>
      </trkpt>
      <trkpt lat="43.45717" lon="5.85377">
        <ele>289</ele>
        <time>2016-01-23T13:30:55Z</time>
      </trkpt>
      <trkpt lat="43.45717" lon="5.85378">
        <ele>289</ele>
        <time>2016-01-23T13:30:56Z</time>
      </trkpt>
      <trkpt lat="43.45717" lon="5.85379">
        <ele>289</ele>
        <time>2016-01-23T13:30:57Z</time>
      </trkpt>
      <trkpt lat="43.45717" lon="5.8538">
        <ele>289</ele>
        <time>2016-01-23T13:30:58Z</time>
      </trkpt>
      <trkpt lat="43.45717" lon="5.85381">
        <ele>289</ele>
        <time>2016-01-23T13:30:59Z</time>
      </trkpt>
      <trkpt lat="43.45717" lon="5.85382">
        <ele>289</ele>
        <time>2016-01-23T13:31:00Z</time>
      </trkpt>
      <trkpt lat="43.45717" lon="5.85384">
        <ele>289</ele>
        <time>2016-01-23T13:31:01Z</time>
      </trkpt>
      <trkpt lat="43.45716" lon="5.85386">
        <ele>289</ele>
        <time>2016-01-23T13:31:02Z</time>
      </trkpt>
      <trkpt lat="43.45716" lon="5.85388">
        <ele>289</ele>
        <time>2016-01-23T13:31:03Z</time>
      </trkpt>
      <trkpt lat="43.45715" lon="5.8539">
        <ele>289</ele>
        <time>2016-01-23T13:31:04Z</time>
      </trkpt>
      <trkpt lat="43.45714" lon="5.85393">
        <ele>289.1</ele>
        <time>2016-01-23T13:31:05Z</time>
      </trkpt>
      <trkpt lat="43.45711" lon="5.85397">
        <ele>289.2</ele>
        <time>2016-01-23T13:31:06Z</time>
      </trkpt>
      <trkpt lat="43.45708" lon="5.85403">
        <ele>289.3</ele>
        <time>2016-01-23T13:31:07Z</time>
      </trkpt>
      <trkpt lat="43.45705" lon="5.85412">
        <ele>289.3</ele>
        <time>2016-01-23T13:31:08Z</time>
      </trkpt>
      <trkpt lat="43.45702" lon="5.85421">
        <ele>289.3</ele>
        <time>2016-01-23T13:31:09Z</time>
      </trkpt>
      <trkpt lat="43.45703" lon="5.85433">
        <ele>289.3</ele>
        <time>2016-01-23T13:31:10Z</time>
      </trkpt>
      <trkpt lat="43.45706" lon="5.85445">
        <ele>289.4</ele>
        <time>2016-01-23T13:31:11Z</time>
      </trkpt>
      <trkpt lat="43.45713" lon="5.85456">
        <ele>289.4</ele>
        <time>2016-01-23T13:31:12Z</time>
      </trkpt>
      <trkpt lat="43.45719" lon="5.85468">
        <ele>289.1</ele>
        <time>2016-01-23T13:31:13Z</time>
      </trkpt>
      <trkpt lat="43.45724" lon="5.85483">
        <ele>288.9</ele>
        <time>2016-01-23T13:31:14Z</time>
      </trkpt>
      <trkpt lat="43.4573" lon="5.85501">
        <ele>288.7</ele>
        <time>2016-01-23T13:31:15Z</time>
      </trkpt>
      <trkpt lat="43.45735" lon="5.85521">
        <ele>288.5</ele>
        <time>2016-01-23T13:31:16Z</time>
      </trkpt>
      <trkpt lat="43.45741" lon="5.85542">
        <ele>288.5</ele>
        <time>2016-01-23T13:31:17Z</time>
      </trkpt>
      <trkpt lat="43.45748" lon="5.85563">
        <ele>288.9</ele>
        <time>2016-01-23T13:31:18Z</time>
      </trkpt>
      <trkpt lat="43.45756" lon="5.85583">
        <ele>288.8</ele>
        <time>2016-01-23T13:31:19Z</time>
      </trkpt>
      <trkpt lat="43.45763" lon="5.85603">
        <ele>288.5</ele>
        <time>2016-01-23T13:31:20Z</time>
      </trkpt>
      <trkpt lat="43.45771" lon="5.85622">
        <ele>288.4</ele>
        <time>2016-01-23T13:31:21Z</time>
      </trkpt>
      <trkpt lat="43.45778" lon="5.85642">
        <ele>289</ele>
        <time>2016-01-23T13:31:22Z</time>
      </trkpt>
      <trkpt lat="43.45785" lon="5.85661">
        <ele>288.7</ele>
        <time>2016-01-23T13:31:23Z</time>
      </trkpt>
      <trkpt lat="43.45791" lon="5.85681">
        <ele>288.3</ele>
        <time>2016-01-23T13:31:24Z</time>
      </trkpt>
      <trkpt lat="43.45797" lon="5.85701">
        <ele>288.2</ele>
        <time>2016-01-23T13:31:25Z</time>
      </trkpt>
      <trkpt lat="43.45803" lon="5.8572">
        <ele>288.8</ele>
        <time>2016-01-23T13:31:26Z</time>
      </trkpt>
      <trkpt lat="43.45809" lon="5.8574">
        <ele>288.9</ele>
        <time>2016-01-23T13:31:27Z</time>
      </trkpt>
      <trkpt lat="43.45815" lon="5.8576">
        <ele>288.3</ele>
        <time>2016-01-23T13:31:28Z</time>
      </trkpt>
      <trkpt lat="43.45821" lon="5.8578">
        <ele>287.5</ele>
        <time>2016-01-23T13:31:29Z</time>
      </trkpt>
      <trkpt lat="43.45827" lon="5.858">
        <ele>288.5</ele>
        <time>2016-01-23T13:31:30Z</time>
      </trkpt>
      <trkpt lat="43.45833" lon="5.8582">
        <ele>289</ele>
        <time>2016-01-23T13:31:31Z</time>
      </trkpt>
      <trkpt lat="43.45839" lon="5.85839">
        <ele>288.5</ele>
        <time>2016-01-23T13:31:32Z</time>
      </trkpt>
      <trkpt lat="43.45844" lon="5.85858">
        <ele>288</ele>
        <time>2016-01-23T13:31:33Z</time>
      </trkpt>
      <trkpt lat="43.45849" lon="5.85876">
        <ele>288</ele>
        <time>2016-01-23T13:31:34Z</time>
      </trkpt>
      <trkpt lat="43.45854" lon="5.85894">
        <ele>288.1</ele>
        <time>2016-01-23T13:31:35Z</time>
      </trkpt>
      <trkpt lat="43.45859" lon="5.85912">
        <ele>288.8</ele>
        <time>2016-01-23T13:31:36Z</time>
      </trkpt>
      <trkpt lat="43.45862" lon="5.85929">
        <ele>288.5</ele>
        <time>2016-01-23T13:31:37Z</time>
      </trkpt>
      <trkpt lat="43.45866" lon="5.85944">
        <ele>287.8</ele>
        <time>2016-01-23T13:31:38Z</time>
      </trkpt>
      <trkpt lat="43.45868" lon="5.85959">
        <ele>288</ele>
        <time>2016-01-23T13:31:39Z</time>
      </trkpt>
      <trkpt lat="43.4587" lon="5.85973">
        <ele>288.3</ele>
        <time>2016-01-23T13:31:40Z</time>
      </trkpt>
      <trkpt lat="43.45872" lon="5.85987">
        <ele>288.4</ele>
        <time>2016-01-23T13:31:41Z</time>
      </trkpt>
      <trkpt lat="43.45875" lon="5.86">
        <ele>288.5</ele>
        <time>2016-01-23T13:31:42Z</time>
      </trkpt>
      <trkpt lat="43.45881" lon="5.86012">
        <ele>288.4</ele>
        <time>2016-01-23T13:31:43Z</time>
      </trkpt>
      <trkpt lat="43.45886" lon="5.86026">
        <ele>288.1</ele>
        <time>2016-01-23T13:31:44Z</time>
      </trkpt>
      <trkpt lat="43.45888" lon="5.86042">
        <ele>288</ele>
        <time>2016-01-23T13:31:45Z</time>
      </trkpt>
      <trkpt lat="43.4589" lon="5.86059">
        <ele>288</ele>
        <time>2016-01-23T13:31:46Z</time>
      </trkpt>
      <trkpt lat="43.4589" lon="5.86079">
        <ele>288</ele>
        <time>2016-01-23T13:31:47Z</time>
      </trkpt>
      <trkpt lat="43.45889" lon="5.861">
        <ele>288</ele>
        <time>2016-01-23T13:31:48Z</time>
      </trkpt>
      <trkpt lat="43.45887" lon="5.8612">
        <ele>287.9</ele>
        <time>2016-01-23T13:31:49Z</time>
      </trkpt>
      <trkpt lat="43.45886" lon="5.86139">
        <ele>287.9</ele>
        <time>2016-01-23T13:31:50Z</time>
      </trkpt>
      <trkpt lat="43.45885" lon="5.86156">
        <ele>287.8</ele>
        <time>2016-01-23T13:31:51Z</time>
      </trkpt>
      <trkpt lat="43.45883" lon="5.86172">
        <ele>287.8</ele>
        <time>2016-01-23T13:31:52Z</time>
      </trkpt>
      <trkpt lat="43.45882" lon="5.86185">
        <ele>287.7</ele>
        <time>2016-01-23T13:31:53Z</time>
      </trkpt>
      <trkpt lat="43.4588" lon="5.86197">
        <ele>287.7</ele>
        <time>2016-01-23T13:31:54Z</time>
      </trkpt>
      <trkpt lat="43.45879" lon="5.86207">
        <ele>287.6</ele>
        <time>2016-01-23T13:31:55Z</time>
      </trkpt>
      <trkpt lat="43.45877" lon="5.86216">
        <ele>287.6</ele>
        <time>2016-01-23T13:31:56Z</time>
      </trkpt>
      <trkpt lat="43.45874" lon="5.86222">
        <ele>287.5</ele>
        <time>2016-01-23T13:31:57Z</time>
      </trkpt>
      <trkpt lat="43.45873" lon="5.86226">
        <ele>287.5</ele>
        <time>2016-01-23T13:31:58Z</time>
      </trkpt>
      <trkpt lat="43.45872" lon="5.86227">
        <ele>287.5</ele>
        <time>2016-01-23T13:31:59Z</time>
      </trkpt>
      <trkpt lat="43.45871" lon="5.86227">
        <ele>287.5</ele>
        <time>2016-01-23T13:32:00Z</time>
      </trkpt>
      <trkpt lat="43.45871" lon="5.86227">
        <ele>287.5</ele>
        <time>2016-01-23T13:32:01Z</time>
      </trkpt>
      <trkpt lat="43.45871" lon="5.86227">
        <ele>287.5</ele>
        <time>2016-01-23T13:32:02Z</time>
      </trkpt>
      <trkpt lat="43.45871" lon="5.86228">
        <ele>287.5</ele>
        <time>2016-01-23T13:32:03Z</time>
      </trkpt>
      <trkpt lat="43.45871" lon="5.8623">
        <ele>287.5</ele>
        <time>2016-01-23T13:32:04Z</time>
      </trkpt>
      <trkpt lat="43.45871" lon="5.86231">
        <ele>287.5</ele>
        <time>2016-01-23T13:32:05Z</time>
      </trkpt>
      <trkpt lat="43.4587" lon="5.86234">
        <ele>287.6</ele>
        <time>2016-01-23T13:32:06Z</time>
      </trkpt>
      <trkpt lat="43.45869" lon="5.86237">
        <ele>287.7</ele>
        <time>2016-01-23T13:32:07Z</time>
      </trkpt>
      <trkpt lat="43.45867" lon="5.86243">
        <ele>287.8</ele>
        <time>2016-01-23T13:32:08Z</time>
      </trkpt>
      <trkpt lat="43.45863" lon="5.86251">
        <ele>288</ele>
        <time>2016-01-23T13:32:09Z</time>
      </trkpt>
      <trkpt lat="43.45858" lon="5.86259">
        <ele>288.3</ele>
        <time>2016-01-23T13:32:10Z</time>
      </trkpt>
      <trkpt lat="43.45855" lon="5.86269">
        <ele>288.5</ele>
        <time>2016-01-23T13:32:11Z</time>
      </trkpt>
      <trkpt lat="43.45854" lon="5.86279">
        <ele>288.7</ele>
        <time>2016-01-23T13:32:12Z</time>
      </trkpt>
      <trkpt lat="43.45856" lon="5.8629">
        <ele>288.4</ele>
        <time>2016-01-23T13:32:13Z</time>
      </trkpt>
      <trkpt lat="43.45859" lon="5.86299">
        <ele>288.2</ele>
        <time>2016-01-23T13:32:14Z</time>
      </trkpt>
      <trkpt lat="43.45867" lon="5.86303">
        <ele>288.1</ele>
        <time>2016-01-23T13:32:15Z</time>
      </trkpt>
      <trkpt lat="43.45874" lon="5.86307">
        <ele>288</ele>
        <time>2016-01-23T13:32:16Z</time>
      </trkpt>
      <trkpt lat="43.45884" lon="5.86305">
        <ele>288</ele>
        <time>2016-01-23T13:32:17Z</time>
      </trkpt>
      <trkpt lat="43.45896" lon="5.86305">
        <ele>288.2</ele>
        <time>2016-01-23T13:32:18Z</time>
      </trkpt>
      <trkpt lat="43.45907" lon="5.86306">
        <ele>288.6</ele>
        <time>2016-01-23T13:32:19Z</time>
      </trkpt>
      <trkpt lat="43.45921" lon="5.86309">
        <ele>288.8</ele>
        <time>2016-01-23T13:32:20Z</time>
      </trkpt>
      <trkpt lat="43.45936" lon="5.86313">
        <ele>288.8</ele>
        <time>2016-01-23T13:32:21Z</time>
      </trkpt>
      <trkpt lat="43.45954" lon="5.86322">
        <ele>289.3</ele>
        <time>2016-01-23T13:32:22Z</time>
      </trkpt>
      <trkpt lat="43.45973" lon="5.8633">
        <ele>291.5</ele>
        <time>2016-01-23T13:32:23Z</time>
      </trkpt>
      <trkpt lat="43.45993" lon="5.86339">
        <ele>291.4</ele>
        <time>2016-01-23T13:32:24Z</time>
      </trkpt>
      <trkpt lat="43.46013" lon="5.86348">
        <ele>291</ele>
        <time>2016-01-23T13:32:25Z</time>
      </trkpt>
      <trkpt lat="43.46032" lon="5.86356">
        <ele>292</ele>
        <time>2016-01-23T13:32:26Z</time>
      </trkpt>
      <trkpt lat="43.46051" lon="5.86364">
        <ele>291.1</ele>
        <time>2016-01-23T13:32:27Z</time>
      </trkpt>
      <trkpt lat="43.46068" lon="5.86372">
        <ele>289.8</ele>
        <time>2016-01-23T13:32:28Z</time>
      </trkpt>
      <trkpt lat="43.46086" lon="5.86381">
        <ele>289.9</ele>
        <time>2016-01-23T13:32:29Z</time>
      </trkpt>
      <trkpt lat="43.46103" lon="5.86388">
        <ele>292.6</ele>
        <time>2016-01-23T13:32:30Z</time>
      </trkpt>
      <trkpt lat="43.46119" lon="5.86395">
        <ele>291.9</ele>
        <time>2016-01-23T13:32:31Z</time>
      </trkpt>
      <trkpt lat="43.46135" lon="5.86402">
        <ele>290.6</ele>
        <time>2016-01-23T13:32:32Z</time>
      </trkpt>
      <trkpt lat="43.46151" lon="5.86409">
        <ele>290.6</ele>
        <time>2016-01-23T13:32:33Z</time>
      </trkpt>
      <trkpt lat="43.46165" lon="5.86415">
        <ele>291.6</ele>
        <time>2016-01-23T13:32:34Z</time>
      </trkpt>
      <trkpt lat="43.46179" lon="5.86421">
        <ele>290.3</ele>
        <time>2016-01-23T13:32:35Z</time>
      </trkpt>
      <trkpt lat="43.46192" lon="5.86427">
        <ele>289.1</ele>
        <time>2016-01-23T13:32:36Z</time>
      </trkpt>
      <trkpt lat="43.46205" lon="5.86433">
        <ele>288.7</ele>
        <time>2016-01-23T13:32:37Z</time>
      </trkpt>
      <trkpt lat="43.46219" lon="5.86439">
        <ele>288.6</ele>
        <time>2016-01-23T13:32:38Z</time>
      </trkpt>
      <trkpt lat="43.46233" lon="5.86445">
        <ele>288.2</ele>
        <time>2016-01-23T13:32:39Z</time>
      </trkpt>
      <trkpt lat="43.46247" lon="5.8645">
        <ele>287.2</ele>
        <time>2016-01-23T13:32:40Z</time>
      </trkpt>
      <trkpt lat="43.4626" lon="5.86456">
        <ele>287.1</ele>
        <time>2016-01-23T13:32:41Z</time>
      </trkpt>
      <trkpt lat="43.46273" lon="5.86461">
        <ele>287.5</ele>
        <time>2016-01-23T13:32:42Z</time>
      </trkpt>
      <trkpt lat="43.46285" lon="5.86467">
        <ele>287.8</ele>
        <time>2016-01-23T13:32:43Z</time>
      </trkpt>
      <trkpt lat="43.46296" lon="5.86473">
        <ele>288</ele>
        <time>2016-01-23T13:32:44Z</time>
      </trkpt>
      <trkpt lat="43.46305" lon="5.8648">
        <ele>287.7</ele>
        <time>2016-01-23T13:32:45Z</time>
      </trkpt>
      <trkpt lat="43.46313" lon="5.86489">
        <ele>287.6</ele>
        <time>2016-01-23T13:32:46Z</time>
      </trkpt>
      <trkpt lat="43.46321" lon="5.86497">
        <ele>287.6</ele>
        <time>2016-01-23T13:32:47Z</time>
      </trkpt>
      <trkpt lat="43.46329" lon="5.86504">
        <ele>287.6</ele>
        <time>2016-01-23T13:32:48Z</time>
      </trkpt>
      <trkpt lat="43.46337" lon="5.86506">
        <ele>287.6</ele>
        <time>2016-01-23T13:32:49Z</time>
      </trkpt>
      <trkpt lat="43.46346" lon="5.86505">
        <ele>287.7</ele>
        <time>2016-01-23T13:32:50Z</time>
      </trkpt>
      <trkpt lat="43.46357" lon="5.86505">
        <ele>287.8</ele>
        <time>2016-01-23T13:32:51Z</time>
      </trkpt>
      <trkpt lat="43.46368" lon="5.86505">
        <ele>287.4</ele>
        <time>2016-01-23T13:32:52Z</time>
      </trkpt>
      <trkpt lat="43.4638" lon="5.86507">
        <ele>286.6</ele>
        <time>2016-01-23T13:32:53Z</time>
      </trkpt>
      <trkpt lat="43.46397" lon="5.86514">
        <ele>286.1</ele>
        <time>2016-01-23T13:32:54Z</time>
      </trkpt>
      <trkpt lat="43.46413" lon="5.86521">
        <ele>286.7</ele>
        <time>2016-01-23T13:32:55Z</time>
      </trkpt>
      <trkpt lat="43.4643" lon="5.86529">
        <ele>286.5</ele>
        <time>2016-01-23T13:32:56Z</time>
      </trkpt>
      <trkpt lat="43.46447" lon="5.86537">
        <ele>286</ele>
        <time>2016-01-23T13:32:57Z</time>
      </trkpt>
      <trkpt lat="43.46464" lon="5.86546">
        <ele>286.5</ele>
        <time>2016-01-23T13:32:58Z</time>
      </trkpt>
      <trkpt lat="43.46483" lon="5.86554">
        <ele>287</ele>
        <time>2016-01-23T13:32:59Z</time>
      </trkpt>
      <trkpt lat="43.46501" lon="5.86563">
        <ele>286.7</ele>
        <time>2016-01-23T13:33:00Z</time>
      </trkpt>
      <trkpt lat="43.4652" lon="5.86572">
        <ele>286.5</ele>
        <time>2016-01-23T13:33:01Z</time>
      </trkpt>
      <trkpt lat="43.46539" lon="5.86581">
        <ele>286.9</ele>
        <time>2016-01-23T13:33:02Z</time>
      </trkpt>
      <trkpt lat="43.46558" lon="5.8659">
        <ele>286.7</ele>
        <time>2016-01-23T13:33:03Z</time>
      </trkpt>
      <trkpt lat="43.46578" lon="5.866">
        <ele>286.6</ele>
        <time>2016-01-23T13:33:04Z</time>
      </trkpt>
      <trkpt lat="43.46598" lon="5.86609">
        <ele>286.9</ele>
        <time>2016-01-23T13:33:05Z</time>
      </trkpt>
      <trkpt lat="43.46618" lon="5.86618">
        <ele>286.6</ele>
        <time>2016-01-23T13:33:06Z</time>
      </trkpt>
      <trkpt lat="43.46638" lon="5.86626">
        <ele>286</ele>
        <time>2016-01-23T13:33:07Z</time>
      </trkpt>
      <trkpt lat="43.46657" lon="5.86635">
        <ele>286.6</ele>
        <time>2016-01-23T13:33:08Z</time>
      </trkpt>
      <trkpt lat="43.46676" lon="5.86643">
        <ele>286.6</ele>
        <time>2016-01-23T13:33:09Z</time>
      </trkpt>
      <trkpt lat="43.46695" lon="5.86651">
        <ele>286</ele>
        <time>2016-01-23T13:33:10Z</time>
      </trkpt>
      <trkpt lat="43.46714" lon="5.86659">
        <ele>286</ele>
        <time>2016-01-23T13:33:11Z</time>
      </trkpt>
      <trkpt lat="43.46732" lon="5.86668">
        <ele>286</ele>
        <time>2016-01-23T13:33:12Z</time>
      </trkpt>
      <trkpt lat="43.46751" lon="5.86677">
        <ele>286</ele>
        <time>2016-01-23T13:33:13Z</time>
      </trkpt>
      <trkpt lat="43.4677" lon="5.86685">
        <ele>286</ele>
        <time>2016-01-23T13:33:14Z</time>
      </trkpt>
      <trkpt lat="43.46789" lon="5.86694">
        <ele>285.6</ele>
        <time>2016-01-23T13:33:15Z</time>
      </trkpt>
      <trkpt lat="43.46809" lon="5.86703">
        <ele>285.4</ele>
        <time>2016-01-23T13:33:16Z</time>
      </trkpt>
      <trkpt lat="43.46828" lon="5.86712">
        <ele>285.9</ele>
        <time>2016-01-23T13:33:17Z</time>
      </trkpt>
      <trkpt lat="43.46848" lon="5.86721">
        <ele>286</ele>
        <time>2016-01-23T13:33:18Z</time>
      </trkpt>
      <trkpt lat="43.46868" lon="5.86729">
        <ele>286</ele>
        <time>2016-01-23T13:33:19Z</time>
      </trkpt>
      <trkpt lat="43.46888" lon="5.86738">
        <ele>286</ele>
        <time>2016-01-23T13:33:20Z</time>
      </trkpt>
      <trkpt lat="43.46909" lon="5.86747">
        <ele>286.6</ele>
        <time>2016-01-23T13:33:21Z</time>
      </trkpt>
      <trkpt lat="43.46929" lon="5.86756">
        <ele>286.4</ele>
        <time>2016-01-23T13:33:22Z</time>
      </trkpt>
      <trkpt lat="43.4695" lon="5.86765">
        <ele>286.1</ele>
        <time>2016-01-23T13:33:23Z</time>
      </trkpt>
      <trkpt lat="43.46972" lon="5.86775">
        <ele>286.9</ele>
        <time>2016-01-23T13:33:24Z</time>
      </trkpt>
      <trkpt lat="43.46994" lon="5.86785">
        <ele>286.2</ele>
        <time>2016-01-23T13:33:25Z</time>
      </trkpt>
      <trkpt lat="43.47016" lon="5.86795">
        <ele>286.4</ele>
        <time>2016-01-23T13:33:26Z</time>
      </trkpt>
      <trkpt lat="43.47038" lon="5.86805">
        <ele>287</ele>
        <time>2016-01-23T13:33:27Z</time>
      </trkpt>
      <trkpt lat="43.4706" lon="5.86815">
        <ele>287</ele>
        <time>2016-01-23T13:33:28Z</time>
      </trkpt>
      <trkpt lat="43.47081" lon="5.86825">
        <ele>287.6</ele>
        <time>2016-01-23T13:33:29Z</time>
      </trkpt>
      <trkpt lat="43.47102" lon="5.86834">
        <ele>288</ele>
        <time>2016-01-23T13:33:30Z</time>
      </trkpt>
      <trkpt lat="43.47124" lon="5.86843">
        <ele>288.2</ele>
        <time>2016-01-23T13:33:31Z</time>
      </trkpt>
      <trkpt lat="43.47145" lon="5.86853">
        <ele>288.8</ele>
        <time>2016-01-23T13:33:32Z</time>
      </trkpt>
      <trkpt lat="43.47166" lon="5.86862">
        <ele>289</ele>
        <time>2016-01-23T13:33:33Z</time>
      </trkpt>
      <trkpt lat="43.47187" lon="5.86871">
        <ele>289.8</ele>
        <time>2016-01-23T13:33:34Z</time>
      </trkpt>
      <trkpt lat="43.47207" lon="5.8688">
        <ele>290.3</ele>
        <time>2016-01-23T13:33:35Z</time>
      </trkpt>
      <trkpt lat="43.47227" lon="5.86889">
        <ele>290.8</ele>
        <time>2016-01-23T13:33:36Z</time>
      </trkpt>
      <trkpt lat="43.47247" lon="5.86897">
        <ele>290.4</ele>
        <time>2016-01-23T13:33:37Z</time>
      </trkpt>
      <trkpt lat="43.47267" lon="5.86906">
        <ele>290.6</ele>
        <time>2016-01-23T13:33:38Z</time>
      </trkpt>
      <trkpt lat="43.47286" lon="5.86915">
        <ele>290.9</ele>
        <time>2016-01-23T13:33:39Z</time>
      </trkpt>
      <trkpt lat="43.47306" lon="5.86923">
        <ele>291.2</ele>
        <time>2016-01-23T13:33:40Z</time>
      </trkpt>
      <trkpt lat="43.47324" lon="5.86932">
        <ele>291.2</ele>
        <time>2016-01-23T13:33:41Z</time>
      </trkpt>
      <trkpt lat="43.47343" lon="5.8694">
        <ele>292</ele>
        <time>2016-01-23T13:33:42Z</time>
      </trkpt>
      <trkpt lat="43.47362" lon="5.86949">
        <ele>292.8</ele>
        <time>2016-01-23T13:33:43Z</time>
      </trkpt>
      <trkpt lat="43.47381" lon="5.86958">
        <ele>292.8</ele>
        <time>2016-01-23T13:33:44Z</time>
      </trkpt>
      <trkpt lat="43.474" lon="5.86966">
        <ele>294</ele>
        <time>2016-01-23T13:33:45Z</time>
      </trkpt>
      <trkpt lat="43.4742" lon="5.86975">
        <ele>295.5</ele>
        <time>2016-01-23T13:33:46Z</time>
      </trkpt>
      <trkpt lat="43.47439" lon="5.86984">
        <ele>296.8</ele>
        <time>2016-01-23T13:33:47Z</time>
      </trkpt>
      <trkpt lat="43.47458" lon="5.86992">
        <ele>297.6</ele>
        <time>2016-01-23T13:33:48Z</time>
      </trkpt>
      <trkpt lat="43.47477" lon="5.87">
        <ele>298.2</ele>
        <time>2016-01-23T13:33:49Z</time>
      </trkpt>
      <trkpt lat="43.47496" lon="5.87008">
        <ele>299.2</ele>
        <time>2016-01-23T13:33:50Z</time>
      </trkpt>
      <trkpt lat="43.47514" lon="5.87015">
        <ele>299.3</ele>
        <time>2016-01-23T13:33:51Z</time>
      </trkpt>
      <trkpt lat="43.47532" lon="5.87023">
        <ele>299.6</ele>
        <time>2016-01-23T13:33:52Z</time>
      </trkpt>
      <trkpt lat="43.4755" lon="5.87031">
        <ele>300.1</ele>
        <time>2016-01-23T13:33:53Z</time>
      </trkpt>
      <trkpt lat="43.47568" lon="5.87039">
        <ele>300</ele>
        <time>2016-01-23T13:33:54Z</time>
      </trkpt>
      <trkpt lat="43.47585" lon="5.87049">
        <ele>299.7</ele>
        <time>2016-01-23T13:33:55Z</time>
      </trkpt>
      <trkpt lat="43.47601" lon="5.87058">
        <ele>300.1</ele>
        <time>2016-01-23T13:33:56Z</time>
      </trkpt>
      <trkpt lat="43.47614" lon="5.87068">
        <ele>300.4</ele>
        <time>2016-01-23T13:33:57Z</time>
      </trkpt>
      <trkpt lat="43.47627" lon="5.87077">
        <ele>300.6</ele>
        <time>2016-01-23T13:33:58Z</time>
      </trkpt>
      <trkpt lat="43.47638" lon="5.87085">
        <ele>301</ele>
        <time>2016-01-23T13:33:59Z</time>
      </trkpt>
      <trkpt lat="43.47648" lon="5.87092">
        <ele>300.5</ele>
        <time>2016-01-23T13:34:00Z</time>
      </trkpt>
      <trkpt lat="43.47659" lon="5.87101">
        <ele>300.5</ele>
        <time>2016-01-23T13:34:01Z</time>
      </trkpt>
      <trkpt lat="43.47671" lon="5.87112">
        <ele>300.7</ele>
        <time>2016-01-23T13:34:02Z</time>
      </trkpt>
      <trkpt lat="43.47685" lon="5.87126">
        <ele>300.8</ele>
        <time>2016-01-23T13:34:03Z</time>
      </trkpt>
      <trkpt lat="43.47699" lon="5.87141">
        <ele>300.8</ele>
        <time>2016-01-23T13:34:04Z</time>
      </trkpt>
      <trkpt lat="43.47714" lon="5.87159">
        <ele>300.3</ele>
        <time>2016-01-23T13:34:05Z</time>
      </trkpt>
      <trkpt lat="43.4773" lon="5.87178">
        <ele>300.9</ele>
        <time>2016-01-23T13:34:06Z</time>
      </trkpt>
      <trkpt lat="43.47746" lon="5.87197">
        <ele>302</ele>
        <time>2016-01-23T13:34:07Z</time>
      </trkpt>
      <trkpt lat="43.47761" lon="5.87216">
        <ele>304</ele>
        <time>2016-01-23T13:34:08Z</time>
      </trkpt>
      <trkpt lat="43.47777" lon="5.87237">
        <ele>304.4</ele>
        <time>2016-01-23T13:34:09Z</time>
      </trkpt>
      <trkpt lat="43.47793" lon="5.87258">
        <ele>304.8</ele>
        <time>2016-01-23T13:34:10Z</time>
      </trkpt>
      <trkpt lat="43.47811" lon="5.87278">
        <ele>305.4</ele>
        <time>2016-01-23T13:34:11Z</time>
      </trkpt>
      <trkpt lat="43.47829" lon="5.87298">
        <ele>305.4</ele>
        <time>2016-01-23T13:34:12Z</time>
      </trkpt>
      <trkpt lat="43.47848" lon="5.87318">
        <ele>307.2</ele>
        <time>2016-01-23T13:34:13Z</time>
      </trkpt>
      <trkpt lat="43.47867" lon="5.87337">
        <ele>307.1</ele>
        <time>2016-01-23T13:34:14Z</time>
      </trkpt>
      <trkpt lat="43.47886" lon="5.87355">
        <ele>306.9</ele>
        <time>2016-01-23T13:34:15Z</time>
      </trkpt>
      <trkpt lat="43.47906" lon="5.87373">
        <ele>307.7</ele>
        <time>2016-01-23T13:34:16Z</time>
      </trkpt>
      <trkpt lat="43.47926" lon="5.87389">
        <ele>306.3</ele>
        <time>2016-01-23T13:34:17Z</time>
      </trkpt>
      <trkpt lat="43.47946" lon="5.87405">
        <ele>305.8</ele>
        <time>2016-01-23T13:34:18Z</time>
      </trkpt>
      <trkpt lat="43.47967" lon="5.87421">
        <ele>304.9</ele>
        <time>2016-01-23T13:34:19Z</time>
      </trkpt>
      <trkpt lat="43.47987" lon="5.87436">
        <ele>304</ele>
        <time>2016-01-23T13:34:20Z</time>
      </trkpt>
      <trkpt lat="43.48006" lon="5.87452">
        <ele>303.6</ele>
        <time>2016-01-23T13:34:21Z</time>
      </trkpt>
      <trkpt lat="43.48026" lon="5.87468">
        <ele>302.9</ele>
        <time>2016-01-23T13:34:22Z</time>
      </trkpt>
      <trkpt lat="43.48045" lon="5.87484">
        <ele>302</ele>
        <time>2016-01-23T13:34:23Z</time>
      </trkpt>
      <trkpt lat="43.48065" lon="5.875">
        <ele>301.7</ele>
        <time>2016-01-23T13:34:24Z</time>
      </trkpt>
      <trkpt lat="43.48085" lon="5.87517">
        <ele>301.5</ele>
        <time>2016-01-23T13:34:25Z</time>
      </trkpt>
      <trkpt lat="43.48105" lon="5.87534">
        <ele>300.7</ele>
        <time>2016-01-23T13:34:26Z</time>
      </trkpt>
      <trkpt lat="43.48125" lon="5.87551">
        <ele>300.3</ele>
        <time>2016-01-23T13:34:27Z</time>
      </trkpt>
      <trkpt lat="43.48145" lon="5.87568">
        <ele>300.3</ele>
        <time>2016-01-23T13:34:28Z</time>
      </trkpt>
      <trkpt lat="43.48164" lon="5.87585">
        <ele>300.1</ele>
        <time>2016-01-23T13:34:29Z</time>
      </trkpt>
      <trkpt lat="43.48183" lon="5.87602">
        <ele>299.6</ele>
        <time>2016-01-23T13:34:30Z</time>
      </trkpt>
      <trkpt lat="43.48201" lon="5.87619">
        <ele>299.6</ele>
        <time>2016-01-23T13:34:31Z</time>
      </trkpt>
      <trkpt lat="43.48219" lon="5.87635">
        <ele>299</ele>
        <time>2016-01-23T13:34:32Z</time>
      </trkpt>
      <trkpt lat="43.48237" lon="5.87652">
        <ele>298.5</ele>
        <time>2016-01-23T13:34:33Z</time>
      </trkpt>
      <trkpt lat="43.48254" lon="5.87668">
        <ele>297.8</ele>
        <time>2016-01-23T13:34:34Z</time>
      </trkpt>
      <trkpt lat="43.48272" lon="5.87684">
        <ele>297.7</ele>
        <time>2016-01-23T13:34:35Z</time>
      </trkpt>
      <trkpt lat="43.48289" lon="5.87699">
        <ele>297.3</ele>
        <time>2016-01-23T13:34:36Z</time>
      </trkpt>
      <trkpt lat="43.48307" lon="5.87715">
        <ele>296.7</ele>
        <time>2016-01-23T13:34:37Z</time>
      </trkpt>
      <trkpt lat="43.48324" lon="5.87731">
        <ele>295.9</ele>
        <time>2016-01-23T13:34:38Z</time>
      </trkpt>
      <trkpt lat="43.48342" lon="5.87747">
        <ele>295.6</ele>
        <time>2016-01-23T13:34:39Z</time>
      </trkpt>
      <trkpt lat="43.48359" lon="5.87762">
        <ele>295.1</ele>
        <time>2016-01-23T13:34:40Z</time>
      </trkpt>
      <trkpt lat="43.48377" lon="5.87778">
        <ele>294.4</ele>
        <time>2016-01-23T13:34:41Z</time>
      </trkpt>
      <trkpt lat="43.48395" lon="5.87794">
        <ele>293.7</ele>
        <time>2016-01-23T13:34:42Z</time>
      </trkpt>
      <trkpt lat="43.48413" lon="5.8781">
        <ele>293.3</ele>
        <time>2016-01-23T13:34:43Z</time>
      </trkpt>
      <trkpt lat="43.48431" lon="5.87826">
        <ele>292.8</ele>
        <time>2016-01-23T13:34:44Z</time>
      </trkpt>
      <trkpt lat="43.48449" lon="5.87842">
        <ele>292.1</ele>
        <time>2016-01-23T13:34:45Z</time>
      </trkpt>
      <trkpt lat="43.48467" lon="5.87859">
        <ele>292.1</ele>
        <time>2016-01-23T13:34:46Z</time>
      </trkpt>
      <trkpt lat="43.48486" lon="5.87875">
        <ele>291.5</ele>
        <time>2016-01-23T13:34:47Z</time>
      </trkpt>
      <trkpt lat="43.48504" lon="5.87891">
        <ele>290.7</ele>
        <time>2016-01-23T13:34:48Z</time>
      </trkpt>
      <trkpt lat="43.48522" lon="5.87907">
        <ele>289.9</ele>
        <time>2016-01-23T13:34:49Z</time>
      </trkpt>
      <trkpt lat="43.4854" lon="5.87923">
        <ele>289.2</ele>
        <time>2016-01-23T13:34:50Z</time>
      </trkpt>
      <trkpt lat="43.48558" lon="5.87939">
        <ele>288.8</ele>
        <time>2016-01-23T13:34:51Z</time>
      </trkpt>
      <trkpt lat="43.48575" lon="5.87954">
        <ele>288.2</ele>
        <time>2016-01-23T13:34:52Z</time>
      </trkpt>
      <trkpt lat="43.48592" lon="5.8797">
        <ele>288</ele>
        <time>2016-01-23T13:34:53Z</time>
      </trkpt>
      <trkpt lat="43.4861" lon="5.87986">
        <ele>287.5</ele>
        <time>2016-01-23T13:34:54Z</time>
      </trkpt>
      <trkpt lat="43.48627" lon="5.88002">
        <ele>287.5</ele>
        <time>2016-01-23T13:34:55Z</time>
      </trkpt>
      <trkpt lat="43.48644" lon="5.88017">
        <ele>286.9</ele>
        <time>2016-01-23T13:34:56Z</time>
      </trkpt>
      <trkpt lat="43.4866" lon="5.88032">
        <ele>285.9</ele>
        <time>2016-01-23T13:34:57Z</time>
      </trkpt>
      <trkpt lat="43.48676" lon="5.88046">
        <ele>285.7</ele>
        <time>2016-01-23T13:34:58Z</time>
      </trkpt>
      <trkpt lat="43.48692" lon="5.88059">
        <ele>284.9</ele>
        <time>2016-01-23T13:34:59Z</time>
      </trkpt>
      <trkpt lat="43.48709" lon="5.88072">
        <ele>284.3</ele>
        <time>2016-01-23T13:35:00Z</time>
      </trkpt>
      <trkpt lat="43.48726" lon="5.88082">
        <ele>282.2</ele>
        <time>2016-01-23T13:35:01Z</time>
      </trkpt>
      <trkpt lat="43.48744" lon="5.88089">
        <ele>281.8</ele>
        <time>2016-01-23T13:35:02Z</time>
      </trkpt>
      <trkpt lat="43.48762" lon="5.88093">
        <ele>280.6</ele>
        <time>2016-01-23T13:35:03Z</time>
      </trkpt>
      <trkpt lat="43.4878" lon="5.88095">
        <ele>279.1</ele>
        <time>2016-01-23T13:35:04Z</time>
      </trkpt>
      <trkpt lat="43.48799" lon="5.88095">
        <ele>278.4</ele>
        <time>2016-01-23T13:35:05Z</time>
      </trkpt>
      <trkpt lat="43.48817" lon="5.88091">
        <ele>278.1</ele>
        <time>2016-01-23T13:35:06Z</time>
      </trkpt>
      <trkpt lat="43.48835" lon="5.88086">
        <ele>277.8</ele>
        <time>2016-01-23T13:35:07Z</time>
      </trkpt>
      <trkpt lat="43.48854" lon="5.88079">
        <ele>277.3</ele>
        <time>2016-01-23T13:35:08Z</time>
      </trkpt>
      <trkpt lat="43.48873" lon="5.88072">
        <ele>277.2</ele>
        <time>2016-01-23T13:35:09Z</time>
      </trkpt>
      <trkpt lat="43.48891" lon="5.88065">
        <ele>277.3</ele>
        <time>2016-01-23T13:35:10Z</time>
      </trkpt>
      <trkpt lat="43.4891" lon="5.88058">
        <ele>277.8</ele>
        <time>2016-01-23T13:35:11Z</time>
      </trkpt>
      <trkpt lat="43.48928" lon="5.88051">
        <ele>277.6</ele>
        <time>2016-01-23T13:35:12Z</time>
      </trkpt>
      <trkpt lat="43.48945" lon="5.88045">
        <ele>277.4</ele>
        <time>2016-01-23T13:35:13Z</time>
      </trkpt>
      <trkpt lat="43.48961" lon="5.88038">
        <ele>277</ele>
        <time>2016-01-23T13:35:14Z</time>
      </trkpt>
      <trkpt lat="43.48978" lon="5.88032">
        <ele>277.2</ele>
        <time>2016-01-23T13:35:15Z</time>
      </trkpt>
      <trkpt lat="43.48994" lon="5.88029">
        <ele>278.5</ele>
        <time>2016-01-23T13:35:16Z</time>
      </trkpt>
      <trkpt lat="43.4901" lon="5.8803">
        <ele>279.6</ele>
        <time>2016-01-23T13:35:17Z</time>
      </trkpt>
      <trkpt lat="43.49025" lon="5.88035">
        <ele>280.5</ele>
        <time>2016-01-23T13:35:18Z</time>
      </trkpt>
      <trkpt lat="43.49039" lon="5.88046">
        <ele>281</ele>
        <time>2016-01-23T13:35:19Z</time>
      </trkpt>
      <trkpt lat="43.4905" lon="5.8806">
        <ele>281.6</ele>
        <time>2016-01-23T13:35:20Z</time>
      </trkpt>
      <trkpt lat="43.4906" lon="5.88079">
        <ele>282.6</ele>
        <time>2016-01-23T13:35:21Z</time>
      </trkpt>
      <trkpt lat="43.49067" lon="5.88101">
        <ele>283.6</ele>
        <time>2016-01-23T13:35:22Z</time>
      </trkpt>
      <trkpt lat="43.49072" lon="5.88126">
        <ele>284.4</ele>
        <time>2016-01-23T13:35:23Z</time>
      </trkpt>
      <trkpt lat="43.49075" lon="5.88153">
        <ele>285.2</ele>
        <time>2016-01-23T13:35:24Z</time>
      </trkpt>
      <trkpt lat="43.49077" lon="5.88182">
        <ele>285.9</ele>
        <time>2016-01-23T13:35:25Z</time>
      </trkpt>
      <trkpt lat="43.4908" lon="5.88212">
        <ele>286.3</ele>
        <time>2016-01-23T13:35:26Z</time>
      </trkpt>
      <trkpt lat="43.49082" lon="5.88243">
        <ele>285.4</ele>
        <time>2016-01-23T13:35:27Z</time>
      </trkpt>
      <trkpt lat="43.49085" lon="5.88275">
        <ele>284.2</ele>
        <time>2016-01-23T13:35:28Z</time>
      </trkpt>
      <trkpt lat="43.49087" lon="5.88307">
        <ele>284.2</ele>
        <time>2016-01-23T13:35:29Z</time>
      </trkpt>
      <trkpt lat="43.4909" lon="5.88338">
        <ele>283.8</ele>
        <time>2016-01-23T13:35:30Z</time>
      </trkpt>
      <trkpt lat="43.49092" lon="5.88368">
        <ele>284.6</ele>
        <time>2016-01-23T13:35:31Z</time>
      </trkpt>
      <trkpt lat="43.49097" lon="5.88396">
        <ele>284.4</ele>
        <time>2016-01-23T13:35:32Z</time>
      </trkpt>
      <trkpt lat="43.49102" lon="5.88424">
        <ele>283.3</ele>
        <time>2016-01-23T13:35:33Z</time>
      </trkpt>
      <trkpt lat="43.49107" lon="5.88451">
        <ele>283.9</ele>
        <time>2016-01-23T13:35:34Z</time>
      </trkpt>
      <trkpt lat="43.49108" lon="5.88481">
        <ele>283.9</ele>
        <time>2016-01-23T13:35:35Z</time>
      </trkpt>
      <trkpt lat="43.49106" lon="5.88509">
        <ele>284.1</ele>
        <time>2016-01-23T13:35:36Z</time>
      </trkpt>
      <trkpt lat="43.49102" lon="5.88537">
        <ele>283.6</ele>
        <time>2016-01-23T13:35:37Z</time>
      </trkpt>
      <trkpt lat="43.491" lon="5.88564">
        <ele>284.1</ele>
        <time>2016-01-23T13:35:38Z</time>
      </trkpt>
      <trkpt lat="43.491" lon="5.88589">
        <ele>284.7</ele>
        <time>2016-01-23T13:35:39Z</time>
      </trkpt>
      <trkpt lat="43.49104" lon="5.88613">
        <ele>285</ele>
        <time>2016-01-23T13:35:40Z</time>
      </trkpt>
      <trkpt lat="43.49111" lon="5.88637">
        <ele>286</ele>
        <time>2016-01-23T13:35:41Z</time>
      </trkpt>
      <trkpt lat="43.49119" lon="5.8866">
        <ele>287.1</ele>
        <time>2016-01-23T13:35:42Z</time>
      </trkpt>
      <trkpt lat="43.49128" lon="5.88684">
        <ele>289.4</ele>
        <time>2016-01-23T13:35:43Z</time>
      </trkpt>
      <trkpt lat="43.49136" lon="5.88708">
        <ele>291</ele>
        <time>2016-01-23T13:35:44Z</time>
      </trkpt>
      <trkpt lat="43.49143" lon="5.88732">
        <ele>291.5</ele>
        <time>2016-01-23T13:35:45Z</time>
      </trkpt>
      <trkpt lat="43.4915" lon="5.88757">
        <ele>292.1</ele>
        <time>2016-01-23T13:35:46Z</time>
      </trkpt>
      <trkpt lat="43.49157" lon="5.88782">
        <ele>292.4</ele>
        <time>2016-01-23T13:35:47Z</time>
      </trkpt>
      <trkpt lat="43.49164" lon="5.88808">
        <ele>293</ele>
        <time>2016-01-23T13:35:48Z</time>
      </trkpt>
      <trkpt lat="43.49171" lon="5.88834">
        <ele>294.3</ele>
        <time>2016-01-23T13:35:49Z</time>
      </trkpt>
      <trkpt lat="43.49178" lon="5.88861">
        <ele>294.8</ele>
        <time>2016-01-23T13:35:50Z</time>
      </trkpt>
      <trkpt lat="43.49185" lon="5.88889">
        <ele>295.6</ele>
        <time>2016-01-23T13:35:51Z</time>
      </trkpt>
      <trkpt lat="43.49192" lon="5.88916">
        <ele>295.9</ele>
        <time>2016-01-23T13:35:52Z</time>
      </trkpt>
      <trkpt lat="43.49199" lon="5.88944">
        <ele>295.4</ele>
        <time>2016-01-23T13:35:53Z</time>
      </trkpt>
      <trkpt lat="43.49207" lon="5.88972">
        <ele>294</ele>
        <time>2016-01-23T13:35:54Z</time>
      </trkpt>
      <trkpt lat="43.49216" lon="5.89">
        <ele>292.5</ele>
        <time>2016-01-23T13:35:55Z</time>
      </trkpt>
      <trkpt lat="43.49225" lon="5.89029">
        <ele>291.2</ele>
        <time>2016-01-23T13:35:56Z</time>
      </trkpt>
      <trkpt lat="43.49236" lon="5.89057">
        <ele>290.9</ele>
        <time>2016-01-23T13:35:57Z</time>
      </trkpt>
      <trkpt lat="43.49249" lon="5.89083">
        <ele>289.9</ele>
        <time>2016-01-23T13:35:58Z</time>
      </trkpt>
      <trkpt lat="43.49262" lon="5.89107">
        <ele>289.9</ele>
        <time>2016-01-23T13:35:59Z</time>
      </trkpt>
      <trkpt lat="43.49275" lon="5.89132">
        <ele>290.2</ele>
        <time>2016-01-23T13:36:00Z</time>
      </trkpt>
      <trkpt lat="43.49289" lon="5.89157">
        <ele>289.3</ele>
        <time>2016-01-23T13:36:01Z</time>
      </trkpt>
      <trkpt lat="43.49304" lon="5.89183">
        <ele>288.4</ele>
        <time>2016-01-23T13:36:02Z</time>
      </trkpt>
      <trkpt lat="43.49319" lon="5.89208">
        <ele>287</ele>
        <time>2016-01-23T13:36:03Z</time>
      </trkpt>
      <trkpt lat="43.49336" lon="5.89232">
        <ele>285.7</ele>
        <time>2016-01-23T13:36:04Z</time>
      </trkpt>
      <trkpt lat="43.49352" lon="5.89256">
        <ele>285.3</ele>
        <time>2016-01-23T13:36:05Z</time>
      </trkpt>
      <trkpt lat="43.49369" lon="5.89279">
        <ele>284.7</ele>
        <time>2016-01-23T13:36:06Z</time>
      </trkpt>
      <trkpt lat="43.49386" lon="5.89302">
        <ele>285</ele>
        <time>2016-01-23T13:36:07Z</time>
      </trkpt>
      <trkpt lat="43.49404" lon="5.89324">
        <ele>284.7</ele>
        <time>2016-01-23T13:36:08Z</time>
      </trkpt>
      <trkpt lat="43.49422" lon="5.89345">
        <ele>284.2</ele>
        <time>2016-01-23T13:36:09Z</time>
      </trkpt>
      <trkpt lat="43.49439" lon="5.89366">
        <ele>283.5</ele>
        <time>2016-01-23T13:36:10Z</time>
      </trkpt>
      <trkpt lat="43.49457" lon="5.89387">
        <ele>282.6</ele>
        <time>2016-01-23T13:36:11Z</time>
      </trkpt>
      <trkpt lat="43.49476" lon="5.89409">
        <ele>282.3</ele>
        <time>2016-01-23T13:36:12Z</time>
      </trkpt>
      <trkpt lat="43.49493" lon="5.89432">
        <ele>281.3</ele>
        <time>2016-01-23T13:36:13Z</time>
      </trkpt>
      <trkpt lat="43.4951" lon="5.89456">
        <ele>280.7</ele>
        <time>2016-01-23T13:36:14Z</time>
      </trkpt>
      <trkpt lat="43.49526" lon="5.89481">
        <ele>280.6</ele>
        <time>2016-01-23T13:36:15Z</time>
      </trkpt>
      <trkpt lat="43.49541" lon="5.89506">
        <ele>280.3</ele>
        <time>2016-01-23T13:36:16Z</time>
      </trkpt>
      <trkpt lat="43.49558" lon="5.89532">
        <ele>279.9</ele>
        <time>2016-01-23T13:36:17Z</time>
      </trkpt>
      <trkpt lat="43.49576" lon="5.89558">
        <ele>279.6</ele>
        <time>2016-01-23T13:36:18Z</time>
      </trkpt>
      <trkpt lat="43.49596" lon="5.89586">
        <ele>278.9</ele>
        <time>2016-01-23T13:36:19Z</time>
      </trkpt>
      <trkpt lat="43.49616" lon="5.89614">
        <ele>277.9</ele>
        <time>2016-01-23T13:36:20Z</time>
      </trkpt>
      <trkpt lat="43.49637" lon="5.89641">
        <ele>277</ele>
        <time>2016-01-23T13:36:21Z</time>
      </trkpt>
      <trkpt lat="43.49657" lon="5.89668">
        <ele>277</ele>
        <time>2016-01-23T13:36:22Z</time>
      </trkpt>
      <trkpt lat="43.49676" lon="5.89694">
        <ele>276.4</ele>
        <time>2016-01-23T13:36:23Z</time>
      </trkpt>
      <trkpt lat="43.49695" lon="5.89719">
        <ele>277</ele>
        <time>2016-01-23T13:36:24Z</time>
      </trkpt>
      <trkpt lat="43.49713" lon="5.89744">
        <ele>276.1</ele>
        <time>2016-01-23T13:36:25Z</time>
      </trkpt>
      <trkpt lat="43.49731" lon="5.8977">
        <ele>275.5</ele>
        <time>2016-01-23T13:36:26Z</time>
      </trkpt>
      <trkpt lat="43.49749" lon="5.89796">
        <ele>276</ele>
        <time>2016-01-23T13:36:27Z</time>
      </trkpt>
      <trkpt lat="43.49769" lon="5.89824">
        <ele>275.8</ele>
        <time>2016-01-23T13:36:28Z</time>
      </trkpt>
      <trkpt lat="43.49788" lon="5.89852">
        <ele>275.9</ele>
        <time>2016-01-23T13:36:29Z</time>
      </trkpt>
      <trkpt lat="43.49807" lon="5.89879">
        <ele>277</ele>
        <time>2016-01-23T13:36:30Z</time>
      </trkpt>
      <trkpt lat="43.49825" lon="5.89906">
        <ele>277.4</ele>
        <time>2016-01-23T13:36:31Z</time>
      </trkpt>
      <trkpt lat="43.49844" lon="5.89934">
        <ele>278.1</ele>
        <time>2016-01-23T13:36:32Z</time>
      </trkpt>
      <trkpt lat="43.49863" lon="5.89961">
        <ele>278</ele>
        <time>2016-01-23T13:36:33Z</time>
      </trkpt>
      <trkpt lat="43.49881" lon="5.89988">
        <ele>278.3</ele>
        <time>2016-01-23T13:36:34Z</time>
      </trkpt>
      <trkpt lat="43.49899" lon="5.90014">
        <ele>277.7</ele>
        <time>2016-01-23T13:36:35Z</time>
      </trkpt>
      <trkpt lat="43.49916" lon="5.90038">
        <ele>277.6</ele>
        <time>2016-01-23T13:36:36Z</time>
      </trkpt>
      <trkpt lat="43.49933" lon="5.90064">
        <ele>277.6</ele>
        <time>2016-01-23T13:36:37Z</time>
      </trkpt>
      <trkpt lat="43.4995" lon="5.9009">
        <ele>277.8</ele>
        <time>2016-01-23T13:36:38Z</time>
      </trkpt>
      <trkpt lat="43.49967" lon="5.90116">
        <ele>277.7</ele>
        <time>2016-01-23T13:36:39Z</time>
      </trkpt>
      <trkpt lat="43.49982" lon="5.90143">
        <ele>277.3</ele>
        <time>2016-01-23T13:36:40Z</time>
      </trkpt>
      <trkpt lat="43.49997" lon="5.90169">
        <ele>277</ele>
        <time>2016-01-23T13:36:41Z</time>
      </trkpt>
      <trkpt lat="43.50012" lon="5.90194">
        <ele>277.4</ele>
        <time>2016-01-23T13:36:42Z</time>
      </trkpt>
      <trkpt lat="43.50026" lon="5.9022">
        <ele>277</ele>
        <time>2016-01-23T13:36:43Z</time>
      </trkpt>
      <trkpt lat="43.50039" lon="5.90245">
        <ele>276.6</ele>
        <time>2016-01-23T13:36:44Z</time>
      </trkpt>
      <trkpt lat="43.5005" lon="5.90271">
        <ele>276.6</ele>
        <time>2016-01-23T13:36:45Z</time>
      </trkpt>
      <trkpt lat="43.5006" lon="5.90299">
        <ele>276.4</ele>
        <time>2016-01-23T13:36:46Z</time>
      </trkpt>
      <trkpt lat="43.50069" lon="5.90328">
        <ele>276.5</ele>
        <time>2016-01-23T13:36:47Z</time>
      </trkpt>
      <trkpt lat="43.50077" lon="5.90358">
        <ele>276.6</ele>
        <time>2016-01-23T13:36:48Z</time>
      </trkpt>
      <trkpt lat="43.50086" lon="5.90388">
        <ele>277.1</ele>
        <time>2016-01-23T13:36:49Z</time>
      </trkpt>
      <trkpt lat="43.50094" lon="5.90417">
        <ele>276.4</ele>
        <time>2016-01-23T13:36:50Z</time>
      </trkpt>
      <trkpt lat="43.50102" lon="5.90445">
        <ele>276.7</ele>
        <time>2016-01-23T13:36:51Z</time>
      </trkpt>
      <trkpt lat="43.5011" lon="5.90473">
        <ele>276.9</ele>
        <time>2016-01-23T13:36:52Z</time>
      </trkpt>
      <trkpt lat="43.50118" lon="5.905">
        <ele>276.2</ele>
        <time>2016-01-23T13:36:53Z</time>
      </trkpt>
      <trkpt lat="43.50126" lon="5.90529">
        <ele>276</ele>
        <time>2016-01-23T13:36:54Z</time>
      </trkpt>
      <trkpt lat="43.50134" lon="5.90558">
        <ele>275.6</ele>
        <time>2016-01-23T13:36:55Z</time>
      </trkpt>
      <trkpt lat="43.50142" lon="5.90589">
        <ele>275.2</ele>
        <time>2016-01-23T13:36:56Z</time>
      </trkpt>
      <trkpt lat="43.50151" lon="5.9062">
        <ele>275.7</ele>
        <time>2016-01-23T13:36:57Z</time>
      </trkpt>
      <trkpt lat="43.5016" lon="5.90651">
        <ele>275.5</ele>
        <time>2016-01-23T13:36:58Z</time>
      </trkpt>
      <trkpt lat="43.50169" lon="5.90683">
        <ele>274.6</ele>
        <time>2016-01-23T13:36:59Z</time>
      </trkpt>
      <trkpt lat="43.50178" lon="5.90714">
        <ele>273.5</ele>
        <time>2016-01-23T13:37:00Z</time>
      </trkpt>
      <trkpt lat="43.50187" lon="5.90745">
        <ele>272</ele>
        <time>2016-01-23T13:37:01Z</time>
      </trkpt>
      <trkpt lat="43.50197" lon="5.90775">
        <ele>271.1</ele>
        <time>2016-01-23T13:37:02Z</time>
      </trkpt>
      <trkpt lat="43.50209" lon="5.90805">
        <ele>269</ele>
        <time>2016-01-23T13:37:03Z</time>
      </trkpt>
      <trkpt lat="43.50221" lon="5.90834">
        <ele>268.9</ele>
        <time>2016-01-23T13:37:04Z</time>
      </trkpt>
      <trkpt lat="43.50235" lon="5.90861">
        <ele>267</ele>
        <time>2016-01-23T13:37:05Z</time>
      </trkpt>
      <trkpt lat="43.5025" lon="5.90888">
        <ele>268</ele>
        <time>2016-01-23T13:37:06Z</time>
      </trkpt>
      <trkpt lat="43.50265" lon="5.90915">
        <ele>267.6</ele>
        <time>2016-01-23T13:37:07Z</time>
      </trkpt>
      <trkpt lat="43.50279" lon="5.90941">
        <ele>268.2</ele>
        <time>2016-01-23T13:37:08Z</time>
      </trkpt>
      <trkpt lat="43.50293" lon="5.90967">
        <ele>268.7</ele>
        <time>2016-01-23T13:37:09Z</time>
      </trkpt>
      <trkpt lat="43.50308" lon="5.90992">
        <ele>270.2</ele>
        <time>2016-01-23T13:37:10Z</time>
      </trkpt>
      <trkpt lat="43.50322" lon="5.91017">
        <ele>270.9</ele>
        <time>2016-01-23T13:37:11Z</time>
      </trkpt>
      <trkpt lat="43.50336" lon="5.91042">
        <ele>272.5</ele>
        <time>2016-01-23T13:37:12Z</time>
      </trkpt>
      <trkpt lat="43.50351" lon="5.91068">
        <ele>274</ele>
        <time>2016-01-23T13:37:13Z</time>
      </trkpt>
      <trkpt lat="43.50365" lon="5.91094">
        <ele>274.7</ele>
        <time>2016-01-23T13:37:14Z</time>
      </trkpt>
      <trkpt lat="43.5038" lon="5.9112">
        <ele>275.9</ele>
        <time>2016-01-23T13:37:15Z</time>
      </trkpt>
      <trkpt lat="43.50395" lon="5.91146">
        <ele>276.6</ele>
        <time>2016-01-23T13:37:16Z</time>
      </trkpt>
      <trkpt lat="43.5041" lon="5.91172">
        <ele>277.5</ele>
        <time>2016-01-23T13:37:17Z</time>
      </trkpt>
      <trkpt lat="43.50426" lon="5.91198">
        <ele>278.7</ele>
        <time>2016-01-23T13:37:18Z</time>
      </trkpt>
      <trkpt lat="43.50441" lon="5.91224">
        <ele>279.4</ele>
        <time>2016-01-23T13:37:19Z</time>
      </trkpt>
      <trkpt lat="43.50458" lon="5.91251">
        <ele>279.4</ele>
        <time>2016-01-23T13:37:20Z</time>
      </trkpt>
      <trkpt lat="43.50474" lon="5.91277">
        <ele>281.1</ele>
        <time>2016-01-23T13:37:21Z</time>
      </trkpt>
      <trkpt lat="43.5049" lon="5.91304">
        <ele>280.7</ele>
        <time>2016-01-23T13:37:22Z</time>
      </trkpt>
      <trkpt lat="43.50507" lon="5.9133">
        <ele>280</ele>
        <time>2016-01-23T13:37:23Z</time>
      </trkpt>
      <trkpt lat="43.50524" lon="5.91357">
        <ele>279.8</ele>
        <time>2016-01-23T13:37:24Z</time>
      </trkpt>
      <trkpt lat="43.5054" lon="5.91383">
        <ele>280.1</ele>
        <time>2016-01-23T13:37:25Z</time>
      </trkpt>
      <trkpt lat="43.50556" lon="5.91409">
        <ele>279.6</ele>
        <time>2016-01-23T13:37:26Z</time>
      </trkpt>
      <trkpt lat="43.50572" lon="5.91434">
        <ele>279.9</ele>
        <time>2016-01-23T13:37:27Z</time>
      </trkpt>
      <trkpt lat="43.50588" lon="5.9146">
        <ele>280.2</ele>
        <time>2016-01-23T13:37:28Z</time>
      </trkpt>
      <trkpt lat="43.50603" lon="5.91485">
        <ele>280.8</ele>
        <time>2016-01-23T13:37:29Z</time>
      </trkpt>
      <trkpt lat="43.50619" lon="5.91511">
        <ele>281.7</ele>
        <time>2016-01-23T13:37:30Z</time>
      </trkpt>
      <trkpt lat="43.50634" lon="5.91536">
        <ele>282.6</ele>
        <time>2016-01-23T13:37:31Z</time>
      </trkpt>
      <trkpt lat="43.50649" lon="5.9156">
        <ele>283.6</ele>
        <time>2016-01-23T13:37:32Z</time>
      </trkpt>
      <trkpt lat="43.50664" lon="5.91584">
        <ele>284.7</ele>
        <time>2016-01-23T13:37:33Z</time>
      </trkpt>
      <trkpt lat="43.50679" lon="5.91607">
        <ele>285.9</ele>
        <time>2016-01-23T13:37:34Z</time>
      </trkpt>
      <trkpt lat="43.50694" lon="5.91631">
        <ele>287.7</ele>
        <time>2016-01-23T13:37:35Z</time>
      </trkpt>
      <trkpt lat="43.50709" lon="5.91654">
        <ele>289</ele>
        <time>2016-01-23T13:37:36Z</time>
      </trkpt>
      <trkpt lat="43.50723" lon="5.91678">
        <ele>290.1</ele>
        <time>2016-01-23T13:37:37Z</time>
      </trkpt>
      <trkpt lat="43.50738" lon="5.91702">
        <ele>291</ele>
        <time>2016-01-23T13:37:38Z</time>
      </trkpt>
      <trkpt lat="43.50753" lon="5.91727">
        <ele>292</ele>
        <time>2016-01-23T13:37:39Z</time>
      </trkpt>
      <trkpt lat="43.50768" lon="5.91752">
        <ele>292.9</ele>
        <time>2016-01-23T13:37:40Z</time>
      </trkpt>
      <trkpt lat="43.50783" lon="5.91777">
        <ele>293.4</ele>
        <time>2016-01-23T13:37:41Z</time>
      </trkpt>
      <trkpt lat="43.50798" lon="5.91801">
        <ele>294.2</ele>
        <time>2016-01-23T13:37:42Z</time>
      </trkpt>
      <trkpt lat="43.50813" lon="5.91826">
        <ele>295.1</ele>
        <time>2016-01-23T13:37:43Z</time>
      </trkpt>
      <trkpt lat="43.50829" lon="5.91851">
        <ele>296.4</ele>
        <time>2016-01-23T13:37:44Z</time>
      </trkpt>
      <trkpt lat="43.50844" lon="5.91876">
        <ele>297.3</ele>
        <time>2016-01-23T13:37:45Z</time>
      </trkpt>
      <trkpt lat="43.5086" lon="5.91901">
        <ele>297.9</ele>
        <time>2016-01-23T13:37:46Z</time>
      </trkpt>
      <trkpt lat="43.50875" lon="5.91927">
        <ele>298.5</ele>
        <time>2016-01-23T13:37:47Z</time>
      </trkpt>
      <trkpt lat="43.50891" lon="5.91951">
        <ele>299.4</ele>
        <time>2016-01-23T13:37:48Z</time>
      </trkpt>
      <trkpt lat="43.50906" lon="5.91974">
        <ele>299.4</ele>
        <time>2016-01-23T13:37:49Z</time>
      </trkpt>
      <trkpt lat="43.50923" lon="5.91996">
        <ele>299.7</ele>
        <time>2016-01-23T13:37:50Z</time>
      </trkpt>
      <trkpt lat="43.50941" lon="5.92018">
        <ele>299.4</ele>
        <time>2016-01-23T13:37:51Z</time>
      </trkpt>
      <trkpt lat="43.5096" lon="5.9204">
        <ele>298.8</ele>
        <time>2016-01-23T13:37:52Z</time>
      </trkpt>
      <trkpt lat="43.50978" lon="5.92062">
        <ele>298.6</ele>
        <time>2016-01-23T13:37:53Z</time>
      </trkpt>
      <trkpt lat="43.50997" lon="5.92083">
        <ele>299.3</ele>
        <time>2016-01-23T13:37:54Z</time>
      </trkpt>
      <trkpt lat="43.51015" lon="5.92104">
        <ele>298.4</ele>
        <time>2016-01-23T13:37:55Z</time>
      </trkpt>
      <trkpt lat="43.51033" lon="5.92125">
        <ele>298.7</ele>
        <time>2016-01-23T13:37:56Z</time>
      </trkpt>
      <trkpt lat="43.51051" lon="5.92146">
        <ele>299.6</ele>
        <time>2016-01-23T13:37:57Z</time>
      </trkpt>
      <trkpt lat="43.51069" lon="5.92166">
        <ele>300</ele>
        <time>2016-01-23T13:37:58Z</time>
      </trkpt>
      <trkpt lat="43.51086" lon="5.92185">
        <ele>300.9</ele>
        <time>2016-01-23T13:37:59Z</time>
      </trkpt>
      <trkpt lat="43.51102" lon="5.92203">
        <ele>301.5</ele>
        <time>2016-01-23T13:38:00Z</time>
      </trkpt>
      <trkpt lat="43.51117" lon="5.9222">
        <ele>301.5</ele>
        <time>2016-01-23T13:38:01Z</time>
      </trkpt>
      <trkpt lat="43.51131" lon="5.92237">
        <ele>301.9</ele>
        <time>2016-01-23T13:38:02Z</time>
      </trkpt>
      <trkpt lat="43.51146" lon="5.92254">
        <ele>302.4</ele>
        <time>2016-01-23T13:38:03Z</time>
      </trkpt>
      <trkpt lat="43.51161" lon="5.92272">
        <ele>302.8</ele>
        <time>2016-01-23T13:38:04Z</time>
      </trkpt>
      <trkpt lat="43.51177" lon="5.9229">
        <ele>302.9</ele>
        <time>2016-01-23T13:38:05Z</time>
      </trkpt>
      <trkpt lat="43.51194" lon="5.92309">
        <ele>302.9</ele>
        <time>2016-01-23T13:38:06Z</time>
      </trkpt>
      <trkpt lat="43.5121" lon="5.92328">
        <ele>302.2</ele>
        <time>2016-01-23T13:38:07Z</time>
      </trkpt>
      <trkpt lat="43.51228" lon="5.92348">
        <ele>302</ele>
        <time>2016-01-23T13:38:08Z</time>
      </trkpt>
      <trkpt lat="43.51245" lon="5.92368">
        <ele>301.8</ele>
        <time>2016-01-23T13:38:09Z</time>
      </trkpt>
      <trkpt lat="43.51263" lon="5.92388">
        <ele>301</ele>
        <time>2016-01-23T13:38:10Z</time>
      </trkpt>
      <trkpt lat="43.5128" lon="5.92408">
        <ele>301</ele>
        <time>2016-01-23T13:38:11Z</time>
      </trkpt>
      <trkpt lat="43.51298" lon="5.92428">
        <ele>301</ele>
        <time>2016-01-23T13:38:12Z</time>
      </trkpt>
      <trkpt lat="43.51316" lon="5.92448">
        <ele>300.9</ele>
        <time>2016-01-23T13:38:13Z</time>
      </trkpt>
      <trkpt lat="43.51333" lon="5.92468">
        <ele>301</ele>
        <time>2016-01-23T13:38:14Z</time>
      </trkpt>
      <trkpt lat="43.51351" lon="5.92487">
        <ele>300.5</ele>
        <time>2016-01-23T13:38:15Z</time>
      </trkpt>
      <trkpt lat="43.51368" lon="5.92507">
        <ele>299.8</ele>
        <time>2016-01-23T13:38:16Z</time>
      </trkpt>
      <trkpt lat="43.51386" lon="5.92527">
        <ele>299.9</ele>
        <time>2016-01-23T13:38:17Z</time>
      </trkpt>
      <trkpt lat="43.51403" lon="5.92547">
        <ele>299.7</ele>
        <time>2016-01-23T13:38:18Z</time>
      </trkpt>
      <trkpt lat="43.51421" lon="5.92567">
        <ele>299.7</ele>
        <time>2016-01-23T13:38:19Z</time>
      </trkpt>
      <trkpt lat="43.51439" lon="5.92587">
        <ele>299.7</ele>
        <time>2016-01-23T13:38:20Z</time>
      </trkpt>
      <trkpt lat="43.51457" lon="5.92608">
        <ele>299.5</ele>
        <time>2016-01-23T13:38:21Z</time>
      </trkpt>
      <trkpt lat="43.51475" lon="5.92629">
        <ele>299.4</ele>
        <time>2016-01-23T13:38:22Z</time>
      </trkpt>
      <trkpt lat="43.51493" lon="5.9265">
        <ele>299.1</ele>
        <time>2016-01-23T13:38:23Z</time>
      </trkpt>
      <trkpt lat="43.51512" lon="5.9267">
        <ele>298.4</ele>
        <time>2016-01-23T13:38:24Z</time>
      </trkpt>
      <trkpt lat="43.5153" lon="5.92691">
        <ele>298.1</ele>
        <time>2016-01-23T13:38:25Z</time>
      </trkpt>
      <trkpt lat="43.51548" lon="5.92713">
        <ele>298</ele>
        <time>2016-01-23T13:38:26Z</time>
      </trkpt>
      <trkpt lat="43.51567" lon="5.92734">
        <ele>297.8</ele>
        <time>2016-01-23T13:38:27Z</time>
      </trkpt>
      <trkpt lat="43.51586" lon="5.92756">
        <ele>297.5</ele>
        <time>2016-01-23T13:38:28Z</time>
      </trkpt>
      <trkpt lat="43.51605" lon="5.92777">
        <ele>296.8</ele>
        <time>2016-01-23T13:38:29Z</time>
      </trkpt>
      <trkpt lat="43.51623" lon="5.92798">
        <ele>296.6</ele>
        <time>2016-01-23T13:38:30Z</time>
      </trkpt>
      <trkpt lat="43.51642" lon="5.92819">
        <ele>296.5</ele>
        <time>2016-01-23T13:38:31Z</time>
      </trkpt>
      <trkpt lat="43.5166" lon="5.9284">
        <ele>295.9</ele>
        <time>2016-01-23T13:38:32Z</time>
      </trkpt>
      <trkpt lat="43.51678" lon="5.92861">
        <ele>296</ele>
        <time>2016-01-23T13:38:33Z</time>
      </trkpt>
      <trkpt lat="43.51695" lon="5.9288">
        <ele>295.3</ele>
        <time>2016-01-23T13:38:34Z</time>
      </trkpt>
      <trkpt lat="43.51711" lon="5.92899">
        <ele>294.8</ele>
        <time>2016-01-23T13:38:35Z</time>
      </trkpt>
      <trkpt lat="43.51727" lon="5.92918">
        <ele>295</ele>
        <time>2016-01-23T13:38:36Z</time>
      </trkpt>
      <trkpt lat="43.51743" lon="5.92937">
        <ele>294.8</ele>
        <time>2016-01-23T13:38:37Z</time>
      </trkpt>
      <trkpt lat="43.51759" lon="5.92955">
        <ele>294.4</ele>
        <time>2016-01-23T13:38:38Z</time>
      </trkpt>
      <trkpt lat="43.51774" lon="5.92973">
        <ele>294</ele>
        <time>2016-01-23T13:38:39Z</time>
      </trkpt>
      <trkpt lat="43.5179" lon="5.9299">
        <ele>293.8</ele>
        <time>2016-01-23T13:38:40Z</time>
      </trkpt>
      <trkpt lat="43.51805" lon="5.93008">
        <ele>293.7</ele>
        <time>2016-01-23T13:38:41Z</time>
      </trkpt>
      <trkpt lat="43.5182" lon="5.93026">
        <ele>293</ele>
        <time>2016-01-23T13:38:42Z</time>
      </trkpt>
      <trkpt lat="43.51836" lon="5.93044">
        <ele>292.8</ele>
        <time>2016-01-23T13:38:43Z</time>
      </trkpt>
      <trkpt lat="43.51851" lon="5.93061">
        <ele>291.8</ele>
        <time>2016-01-23T13:38:44Z</time>
      </trkpt>
      <trkpt lat="43.51866" lon="5.93079">
        <ele>291.5</ele>
        <time>2016-01-23T13:38:45Z</time>
      </trkpt>
      <trkpt lat="43.51881" lon="5.93096">
        <ele>290.9</ele>
        <time>2016-01-23T13:38:46Z</time>
      </trkpt>
      <trkpt lat="43.51897" lon="5.93114">
        <ele>290.2</ele>
        <time>2016-01-23T13:38:47Z</time>
      </trkpt>
      <trkpt lat="43.51912" lon="5.93132">
        <ele>289.7</ele>
        <time>2016-01-23T13:38:48Z</time>
      </trkpt>
      <trkpt lat="43.51928" lon="5.9315">
        <ele>288.9</ele>
        <time>2016-01-23T13:38:49Z</time>
      </trkpt>
      <trkpt lat="43.51944" lon="5.93168">
        <ele>289</ele>
        <time>2016-01-23T13:38:50Z</time>
      </trkpt>
      <trkpt lat="43.5196" lon="5.93186">
        <ele>288.5</ele>
        <time>2016-01-23T13:38:51Z</time>
      </trkpt>
      <trkpt lat="43.51976" lon="5.93204">
        <ele>288.8</ele>
        <time>2016-01-23T13:38:52Z</time>
      </trkpt>
      <trkpt lat="43.51992" lon="5.93222">
        <ele>288.3</ele>
        <time>2016-01-23T13:38:53Z</time>
      </trkpt>
      <trkpt lat="43.52008" lon="5.93241">
        <ele>288.2</ele>
        <time>2016-01-23T13:38:54Z</time>
      </trkpt>
      <trkpt lat="43.52024" lon="5.93259">
        <ele>287.6</ele>
        <time>2016-01-23T13:38:55Z</time>
      </trkpt>
      <trkpt lat="43.5204" lon="5.93277">
        <ele>286.7</ele>
        <time>2016-01-23T13:38:56Z</time>
      </trkpt>
      <trkpt lat="43.52055" lon="5.93295">
        <ele>285.7</ele>
        <time>2016-01-23T13:38:57Z</time>
      </trkpt>
      <trkpt lat="43.52069" lon="5.93313">
        <ele>284.2</ele>
        <time>2016-01-23T13:38:58Z</time>
      </trkpt>
      <trkpt lat="43.52081" lon="5.93332">
        <ele>284.2</ele>
        <time>2016-01-23T13:38:59Z</time>
      </trkpt>
      <trkpt lat="43.52091" lon="5.93352">
        <ele>282.5</ele>
        <time>2016-01-23T13:39:00Z</time>
      </trkpt>
      <trkpt lat="43.52101" lon="5.93374">
        <ele>281.5</ele>
        <time>2016-01-23T13:39:01Z</time>
      </trkpt>
      <trkpt lat="43.52107" lon="5.93397">
        <ele>280.1</ele>
        <time>2016-01-23T13:39:02Z</time>
      </trkpt>
      <trkpt lat="43.52111" lon="5.93422">
        <ele>278.6</ele>
        <time>2016-01-23T13:39:03Z</time>
      </trkpt>
      <trkpt lat="43.52115" lon="5.93449">
        <ele>277.7</ele>
        <time>2016-01-23T13:39:04Z</time>
      </trkpt>
      <trkpt lat="43.52117" lon="5.93477">
        <ele>278.9</ele>
        <time>2016-01-23T13:39:05Z</time>
      </trkpt>
      <trkpt lat="43.52119" lon="5.93505">
        <ele>279</ele>
        <time>2016-01-23T13:39:06Z</time>
      </trkpt>
      <trkpt lat="43.52121" lon="5.93533">
        <ele>279.4</ele>
        <time>2016-01-23T13:39:07Z</time>
      </trkpt>
      <trkpt lat="43.52124" lon="5.9356">
        <ele>279.9</ele>
        <time>2016-01-23T13:39:08Z</time>
      </trkpt>
      <trkpt lat="43.52127" lon="5.93586">
        <ele>280.2</ele>
        <time>2016-01-23T13:39:09Z</time>
      </trkpt>
      <trkpt lat="43.52133" lon="5.93611">
        <ele>280.5</ele>
        <time>2016-01-23T13:39:10Z</time>
      </trkpt>
      <trkpt lat="43.52139" lon="5.93634">
        <ele>279.5</ele>
        <time>2016-01-23T13:39:11Z</time>
      </trkpt>
      <trkpt lat="43.52148" lon="5.93656">
        <ele>280.7</ele>
        <time>2016-01-23T13:39:12Z</time>
      </trkpt>
      <trkpt lat="43.52157" lon="5.93676">
        <ele>280.8</ele>
        <time>2016-01-23T13:39:13Z</time>
      </trkpt>
      <trkpt lat="43.52168" lon="5.93696">
        <ele>279.1</ele>
        <time>2016-01-23T13:39:14Z</time>
      </trkpt>
      <trkpt lat="43.5218" lon="5.93714">
        <ele>278.4</ele>
        <time>2016-01-23T13:39:15Z</time>
      </trkpt>
      <trkpt lat="43.52192" lon="5.93729">
        <ele>276.8</ele>
        <time>2016-01-23T13:39:16Z</time>
      </trkpt>
      <trkpt lat="43.52206" lon="5.93745">
        <ele>276</ele>
        <time>2016-01-23T13:39:17Z</time>
      </trkpt>
      <trkpt lat="43.5222" lon="5.9376">
        <ele>274.5</ele>
        <time>2016-01-23T13:39:18Z</time>
      </trkpt>
      <trkpt lat="43.52234" lon="5.93774">
        <ele>273.7</ele>
        <time>2016-01-23T13:39:19Z</time>
      </trkpt>
      <trkpt lat="43.52248" lon="5.93789">
        <ele>273.1</ele>
        <time>2016-01-23T13:39:20Z</time>
      </trkpt>
      <trkpt lat="43.52261" lon="5.93803">
        <ele>271.8</ele>
        <time>2016-01-23T13:39:21Z</time>
      </trkpt>
      <trkpt lat="43.52274" lon="5.93818">
        <ele>270.7</ele>
        <time>2016-01-23T13:39:22Z</time>
      </trkpt>
      <trkpt lat="43.52288" lon="5.93833">
        <ele>269.7</ele>
        <time>2016-01-23T13:39:23Z</time>
      </trkpt>
      <trkpt lat="43.52302" lon="5.93848">
        <ele>268.7</ele>
        <time>2016-01-23T13:39:24Z</time>
      </trkpt>
      <trkpt lat="43.52317" lon="5.93863">
        <ele>267.6</ele>
        <time>2016-01-23T13:39:25Z</time>
      </trkpt>
      <trkpt lat="43.52332" lon="5.9388">
        <ele>267.1</ele>
        <time>2016-01-23T13:39:26Z</time>
      </trkpt>
      <trkpt lat="43.52348" lon="5.93897">
        <ele>266.5</ele>
        <time>2016-01-23T13:39:27Z</time>
      </trkpt>
      <trkpt lat="43.52363" lon="5.93913">
        <ele>266</ele>
        <time>2016-01-23T13:39:28Z</time>
      </trkpt>
      <trkpt lat="43.52378" lon="5.9393">
        <ele>265.4</ele>
        <time>2016-01-23T13:39:29Z</time>
      </trkpt>
      <trkpt lat="43.52392" lon="5.93946">
        <ele>265</ele>
        <time>2016-01-23T13:39:30Z</time>
      </trkpt>
      <trkpt lat="43.52406" lon="5.93962">
        <ele>265.2</ele>
        <time>2016-01-23T13:39:31Z</time>
      </trkpt>
      <trkpt lat="43.52419" lon="5.93977">
        <ele>264.8</ele>
        <time>2016-01-23T13:39:32Z</time>
      </trkpt>
      <trkpt lat="43.52432" lon="5.93991">
        <ele>264.1</ele>
        <time>2016-01-23T13:39:33Z</time>
      </trkpt>
      <trkpt lat="43.52445" lon="5.94006">
        <ele>264</ele>
        <time>2016-01-23T13:39:34Z</time>
      </trkpt>
      <trkpt lat="43.52458" lon="5.9402">
        <ele>264.1</ele>
        <time>2016-01-23T13:39:35Z</time>
      </trkpt>
      <trkpt lat="43.5247" lon="5.94033">
        <ele>264</ele>
        <time>2016-01-23T13:39:36Z</time>
      </trkpt>
      <trkpt lat="43.52481" lon="5.94046">
        <ele>264.1</ele>
        <time>2016-01-23T13:39:37Z</time>
      </trkpt>
      <trkpt lat="43.52503" lon="5.94071">
        <ele>263.5</ele>
        <time>2016-01-23T13:39:39Z</time>
      </trkpt>
      <trkpt lat="43.52514" lon="5.94082">
        <ele>263.5</ele>
        <time>2016-01-23T13:39:40Z</time>
      </trkpt>
      <trkpt lat="43.52523" lon="5.94093">
        <ele>263.5</ele>
        <time>2016-01-23T13:39:41Z</time>
      </trkpt>
      <trkpt lat="43.52533" lon="5.94103">
        <ele>263.3</ele>
        <time>2016-01-23T13:39:42Z</time>
      </trkpt>
      <trkpt lat="43.52542" lon="5.94113">
        <ele>263</ele>
        <time>2016-01-23T13:39:43Z</time>
      </trkpt>
      <trkpt lat="43.52551" lon="5.94122">
        <ele>263</ele>
        <time>2016-01-23T13:39:44Z</time>
      </trkpt>
      <trkpt lat="43.5256" lon="5.94132">
        <ele>262.9</ele>
        <time>2016-01-23T13:39:45Z</time>
      </trkpt>
      <trkpt lat="43.52569" lon="5.94141">
        <ele>262.5</ele>
        <time>2016-01-23T13:39:46Z</time>
      </trkpt>
      <trkpt lat="43.52577" lon="5.94151">
        <ele>262.1</ele>
        <time>2016-01-23T13:39:47Z</time>
      </trkpt>
      <trkpt lat="43.52586" lon="5.9416">
        <ele>262.2</ele>
        <time>2016-01-23T13:39:48Z</time>
      </trkpt>
      <trkpt lat="43.52594" lon="5.9417">
        <ele>262.8</ele>
        <time>2016-01-23T13:39:49Z</time>
      </trkpt>
      <trkpt lat="43.52602" lon="5.9418">
        <ele>263.3</ele>
        <time>2016-01-23T13:39:50Z</time>
      </trkpt>
      <trkpt lat="43.52609" lon="5.94192">
        <ele>263.8</ele>
        <time>2016-01-23T13:39:51Z</time>
      </trkpt>
      <trkpt lat="43.52615" lon="5.94204">
        <ele>264.2</ele>
        <time>2016-01-23T13:39:52Z</time>
      </trkpt>
      <trkpt lat="43.52621" lon="5.94215">
        <ele>264.6</ele>
        <time>2016-01-23T13:39:53Z</time>
      </trkpt>
      <trkpt lat="43.5263" lon="5.94237">
        <ele>264.9</ele>
        <time>2016-01-23T13:39:55Z</time>
      </trkpt>
      <trkpt lat="43.52639" lon="5.94255">
        <ele>264.6</ele>
        <time>2016-01-23T13:39:57Z</time>
      </trkpt>
      <trkpt lat="43.52643" lon="5.94264">
        <ele>264.3</ele>
        <time>2016-01-23T13:39:58Z</time>
      </trkpt>
      <trkpt lat="43.52646" lon="5.94272">
        <ele>263.9</ele>
        <time>2016-01-23T13:39:59Z</time>
      </trkpt>
      <trkpt lat="43.52655" lon="5.94292">
        <ele>263.4</ele>
        <time>2016-01-23T13:40:01Z</time>
      </trkpt>
      <trkpt lat="43.52661" lon="5.94303">
        <ele>262.9</ele>
        <time>2016-01-23T13:40:02Z</time>
      </trkpt>
      <trkpt lat="43.52674" lon="5.94329">
        <ele>262.1</ele>
        <time>2016-01-23T13:40:04Z</time>
      </trkpt>
      <trkpt lat="43.52679" lon="5.94342">
        <ele>262</ele>
        <time>2016-01-23T13:40:05Z</time>
      </trkpt>
      <trkpt lat="43.52684" lon="5.94353">
        <ele>262</ele>
        <time>2016-01-23T13:40:06Z</time>
      </trkpt>
      <trkpt lat="43.52689" lon="5.94364">
        <ele>262</ele>
        <time>2016-01-23T13:40:07Z</time>
      </trkpt>
      <trkpt lat="43.52693" lon="5.94374">
        <ele>262</ele>
        <time>2016-01-23T13:40:08Z</time>
      </trkpt>
      <trkpt lat="43.52697" lon="5.94383">
        <ele>262.1</ele>
        <time>2016-01-23T13:40:09Z</time>
      </trkpt>
      <trkpt lat="43.52701" lon="5.94391">
        <ele>262.2</ele>
        <time>2016-01-23T13:40:10Z</time>
      </trkpt>
      <trkpt lat="43.52704" lon="5.94399">
        <ele>262.4</ele>
        <time>2016-01-23T13:40:11Z</time>
      </trkpt>
      <trkpt lat="43.52708" lon="5.94407">
        <ele>262.5</ele>
        <time>2016-01-23T13:40:12Z</time>
      </trkpt>
      <trkpt lat="43.52711" lon="5.94414">
        <ele>262.6</ele>
        <time>2016-01-23T13:40:13Z</time>
      </trkpt>
      <trkpt lat="43.52714" lon="5.94422">
        <ele>262.8</ele>
        <time>2016-01-23T13:40:14Z</time>
      </trkpt>
      <trkpt lat="43.52718" lon="5.94429">
        <ele>262.9</ele>
        <time>2016-01-23T13:40:15Z</time>
      </trkpt>
      <trkpt lat="43.52721" lon="5.94437">
        <ele>263</ele>
        <time>2016-01-23T13:40:16Z</time>
      </trkpt>
      <trkpt lat="43.52724" lon="5.94444">
        <ele>263.1</ele>
        <time>2016-01-23T13:40:17Z</time>
      </trkpt>
      <trkpt lat="43.52727" lon="5.94452">
        <ele>263.4</ele>
        <time>2016-01-23T13:40:18Z</time>
      </trkpt>
      <trkpt lat="43.52731" lon="5.9446">
        <ele>263.6</ele>
        <time>2016-01-23T13:40:19Z</time>
      </trkpt>
      <trkpt lat="43.52735" lon="5.94468">
        <ele>263.9</ele>
        <time>2016-01-23T13:40:20Z</time>
      </trkpt>
      <trkpt lat="43.52738" lon="5.94476">
        <ele>264.1</ele>
        <time>2016-01-23T13:40:21Z</time>
      </trkpt>
      <trkpt lat="43.52741" lon="5.94484">
        <ele>264.1</ele>
        <time>2016-01-23T13:40:22Z</time>
      </trkpt>
      <trkpt lat="43.52744" lon="5.94492">
        <ele>264</ele>
        <time>2016-01-23T13:40:23Z</time>
      </trkpt>
      <trkpt lat="43.52748" lon="5.94502">
        <ele>263.9</ele>
        <time>2016-01-23T13:40:24Z</time>
      </trkpt>
      <trkpt lat="43.52752" lon="5.94511">
        <ele>263.7</ele>
        <time>2016-01-23T13:40:25Z</time>
      </trkpt>
      <trkpt lat="43.52756" lon="5.94521">
        <ele>263.6</ele>
        <time>2016-01-23T13:40:26Z</time>
      </trkpt>
      <trkpt lat="43.52761" lon="5.94531">
        <ele>263.7</ele>
        <time>2016-01-23T13:40:27Z</time>
      </trkpt>
      <trkpt lat="43.52765" lon="5.94542">
        <ele>263.8</ele>
        <time>2016-01-23T13:40:28Z</time>
      </trkpt>
      <trkpt lat="43.52769" lon="5.94552">
        <ele>263.8</ele>
        <time>2016-01-23T13:40:29Z</time>
      </trkpt>
      <trkpt lat="43.52773" lon="5.94562">
        <ele>263.4</ele>
        <time>2016-01-23T13:40:30Z</time>
      </trkpt>
      <trkpt lat="43.52777" lon="5.94572">
        <ele>262.8</ele>
        <time>2016-01-23T13:40:31Z</time>
      </trkpt>
      <trkpt lat="43.5278" lon="5.9458">
        <ele>262.3</ele>
        <time>2016-01-23T13:40:32Z</time>
      </trkpt>
      <trkpt lat="43.52782" lon="5.94586">
        <ele>262.1</ele>
        <time>2016-01-23T13:40:33Z</time>
      </trkpt>
      <trkpt lat="43.52785" lon="5.94591">
        <ele>262.2</ele>
        <time>2016-01-23T13:40:34Z</time>
      </trkpt>
      <trkpt lat="43.52786" lon="5.94598">
        <ele>262.1</ele>
        <time>2016-01-23T13:40:35Z</time>
      </trkpt>
      <trkpt lat="43.52787" lon="5.94609">
        <ele>262</ele>
        <time>2016-01-23T13:40:36Z</time>
      </trkpt>
      <trkpt lat="43.52786" lon="5.9462">
        <ele>262.2</ele>
        <time>2016-01-23T13:40:37Z</time>
      </trkpt>
      <trkpt lat="43.52784" lon="5.94635">
        <ele>262.6</ele>
        <time>2016-01-23T13:40:38Z</time>
      </trkpt>
      <trkpt lat="43.52782" lon="5.94653">
        <ele>263.5</ele>
        <time>2016-01-23T13:40:39Z</time>
      </trkpt>
      <trkpt lat="43.52779" lon="5.94672">
        <ele>264.4</ele>
        <time>2016-01-23T13:40:40Z</time>
      </trkpt>
      <trkpt lat="43.52777" lon="5.94692">
        <ele>265.9</ele>
        <time>2016-01-23T13:40:41Z</time>
      </trkpt>
      <trkpt lat="43.52775" lon="5.94715">
        <ele>265.5</ele>
        <time>2016-01-23T13:40:42Z</time>
      </trkpt>
      <trkpt lat="43.52773" lon="5.94739">
        <ele>263.7</ele>
        <time>2016-01-23T13:40:43Z</time>
      </trkpt>
      <trkpt lat="43.5277" lon="5.94765">
        <ele>261.3</ele>
        <time>2016-01-23T13:40:44Z</time>
      </trkpt>
      <trkpt lat="43.52767" lon="5.94789">
        <ele>259.5</ele>
        <time>2016-01-23T13:40:45Z</time>
      </trkpt>
      <trkpt lat="43.52763" lon="5.94813">
        <ele>259.7</ele>
        <time>2016-01-23T13:40:46Z</time>
      </trkpt>
      <trkpt lat="43.52757" lon="5.94835">
        <ele>262</ele>
        <time>2016-01-23T13:40:47Z</time>
      </trkpt>
      <trkpt lat="43.52746" lon="5.94854">
        <ele>261.8</ele>
        <time>2016-01-23T13:40:48Z</time>
      </trkpt>
      <trkpt lat="43.52732" lon="5.94871">
        <ele>261.8</ele>
        <time>2016-01-23T13:40:49Z</time>
      </trkpt>
      <trkpt lat="43.52718" lon="5.94888">
        <ele>260.6</ele>
        <time>2016-01-23T13:40:50Z</time>
      </trkpt>
      <trkpt lat="43.52705" lon="5.94905">
        <ele>260.6</ele>
        <time>2016-01-23T13:40:51Z</time>
      </trkpt>
      <trkpt lat="43.52694" lon="5.94923">
        <ele>259.2</ele>
        <time>2016-01-23T13:40:52Z</time>
      </trkpt>
      <trkpt lat="43.52685" lon="5.94945">
        <ele>258.7</ele>
        <time>2016-01-23T13:40:53Z</time>
      </trkpt>
      <trkpt lat="43.52679" lon="5.94972">
        <ele>257.3</ele>
        <time>2016-01-23T13:40:54Z</time>
      </trkpt>
      <trkpt lat="43.52674" lon="5.95001">
        <ele>257</ele>
        <time>2016-01-23T13:40:55Z</time>
      </trkpt>
      <trkpt lat="43.5267" lon="5.95032">
        <ele>256.1</ele>
        <time>2016-01-23T13:40:56Z</time>
      </trkpt>
      <trkpt lat="43.52666" lon="5.95063">
        <ele>255</ele>
        <time>2016-01-23T13:40:57Z</time>
      </trkpt>
      <trkpt lat="43.52662" lon="5.95096">
        <ele>254.5</ele>
        <time>2016-01-23T13:40:58Z</time>
      </trkpt>
      <trkpt lat="43.52658" lon="5.95128">
        <ele>253.9</ele>
        <time>2016-01-23T13:40:59Z</time>
      </trkpt>
      <trkpt lat="43.52655" lon="5.95158">
        <ele>252.9</ele>
        <time>2016-01-23T13:41:00Z</time>
      </trkpt>
      <trkpt lat="43.52651" lon="5.95186">
        <ele>252.3</ele>
        <time>2016-01-23T13:41:01Z</time>
      </trkpt>
      <trkpt lat="43.52647" lon="5.95212">
        <ele>252.9</ele>
        <time>2016-01-23T13:41:02Z</time>
      </trkpt>
      <trkpt lat="43.5264" lon="5.95236">
        <ele>252.9</ele>
        <time>2016-01-23T13:41:03Z</time>
      </trkpt>
      <trkpt lat="43.52632" lon="5.9526">
        <ele>254.3</ele>
        <time>2016-01-23T13:41:04Z</time>
      </trkpt>
      <trkpt lat="43.52621" lon="5.95283">
        <ele>255.1</ele>
        <time>2016-01-23T13:41:05Z</time>
      </trkpt>
      <trkpt lat="43.52609" lon="5.95305">
        <ele>255.4</ele>
        <time>2016-01-23T13:41:06Z</time>
      </trkpt>
      <trkpt lat="43.52596" lon="5.95327">
        <ele>254.6</ele>
        <time>2016-01-23T13:41:07Z</time>
      </trkpt>
      <trkpt lat="43.52585" lon="5.9535">
        <ele>254.1</ele>
        <time>2016-01-23T13:41:08Z</time>
      </trkpt>
      <trkpt lat="43.5258" lon="5.95372">
        <ele>255.3</ele>
        <time>2016-01-23T13:41:09Z</time>
      </trkpt>
      <trkpt lat="43.52577" lon="5.95396">
        <ele>255.1</ele>
        <time>2016-01-23T13:41:10Z</time>
      </trkpt>
      <trkpt lat="43.52576" lon="5.9542">
        <ele>252.1</ele>
        <time>2016-01-23T13:41:11Z</time>
      </trkpt>
      <trkpt lat="43.52582" lon="5.95447">
        <ele>250.6</ele>
        <time>2016-01-23T13:41:12Z</time>
      </trkpt>
      <trkpt lat="43.52589" lon="5.95475">
        <ele>249.9</ele>
        <time>2016-01-23T13:41:13Z</time>
      </trkpt>
      <trkpt lat="43.52597" lon="5.95504">
        <ele>250.5</ele>
        <time>2016-01-23T13:41:14Z</time>
      </trkpt>
      <trkpt lat="43.52606" lon="5.95535">
        <ele>251.6</ele>
        <time>2016-01-23T13:41:15Z</time>
      </trkpt>
      <trkpt lat="43.52615" lon="5.95567">
        <ele>252.2</ele>
        <time>2016-01-23T13:41:16Z</time>
      </trkpt>
      <trkpt lat="43.52623" lon="5.95598">
        <ele>252.3</ele>
        <time>2016-01-23T13:41:17Z</time>
      </trkpt>
      <trkpt lat="43.52629" lon="5.95627">
        <ele>252.3</ele>
        <time>2016-01-23T13:41:18Z</time>
      </trkpt>
      <trkpt lat="43.52636" lon="5.95656">
        <ele>252.3</ele>
        <time>2016-01-23T13:41:19Z</time>
      </trkpt>
      <trkpt lat="43.52641" lon="5.95684">
        <ele>252.3</ele>
        <time>2016-01-23T13:41:20Z</time>
      </trkpt>
      <trkpt lat="43.52645" lon="5.9571">
        <ele>252.6</ele>
        <time>2016-01-23T13:41:21Z</time>
      </trkpt>
      <trkpt lat="43.52647" lon="5.95736">
        <ele>253.1</ele>
        <time>2016-01-23T13:41:22Z</time>
      </trkpt>
      <trkpt lat="43.52645" lon="5.95761">
        <ele>253.5</ele>
        <time>2016-01-23T13:41:23Z</time>
      </trkpt>
      <trkpt lat="43.52642" lon="5.95786">
        <ele>253.8</ele>
        <time>2016-01-23T13:41:24Z</time>
      </trkpt>
      <trkpt lat="43.52632" lon="5.95807">
        <ele>254.3</ele>
        <time>2016-01-23T13:41:25Z</time>
      </trkpt>
      <trkpt lat="43.52622" lon="5.95827">
        <ele>256.1</ele>
        <time>2016-01-23T13:41:26Z</time>
      </trkpt>
      <trkpt lat="43.52611" lon="5.95844">
        <ele>257.6</ele>
        <time>2016-01-23T13:41:27Z</time>
      </trkpt>
      <trkpt lat="43.52599" lon="5.95858">
        <ele>259.7</ele>
        <time>2016-01-23T13:41:28Z</time>
      </trkpt>
      <trkpt lat="43.52587" lon="5.95866">
        <ele>259.4</ele>
        <time>2016-01-23T13:41:29Z</time>
      </trkpt>
      <trkpt lat="43.52572" lon="5.95866">
        <ele>257.5</ele>
        <time>2016-01-23T13:41:30Z</time>
      </trkpt>
      <trkpt lat="43.52552" lon="5.9586">
        <ele>254.3</ele>
        <time>2016-01-23T13:41:31Z</time>
      </trkpt>
      <trkpt lat="43.52528" lon="5.95849">
        <ele>254</ele>
        <time>2016-01-23T13:41:32Z</time>
      </trkpt>
      <trkpt lat="43.52509" lon="5.95848">
        <ele>252</ele>
        <time>2016-01-23T13:41:33Z</time>
      </trkpt>
      <trkpt lat="43.5249" lon="5.9585">
        <ele>249.8</ele>
        <time>2016-01-23T13:41:34Z</time>
      </trkpt>
      <trkpt lat="43.52472" lon="5.95854">
        <ele>247.2</ele>
        <time>2016-01-23T13:41:35Z</time>
      </trkpt>
      <trkpt lat="43.52456" lon="5.9586">
        <ele>245.5</ele>
        <time>2016-01-23T13:41:36Z</time>
      </trkpt>
      <trkpt lat="43.52443" lon="5.95866">
        <ele>244.6</ele>
        <time>2016-01-23T13:41:37Z</time>
      </trkpt>
      <trkpt lat="43.52437" lon="5.95877">
        <ele>245</ele>
        <time>2016-01-23T13:41:38Z</time>
      </trkpt>
      <trkpt lat="43.52434" lon="5.95887">
        <ele>245.2</ele>
        <time>2016-01-23T13:41:39Z</time>
      </trkpt>
      <trkpt lat="43.52436" lon="5.95897">
        <ele>244.2</ele>
        <time>2016-01-23T13:41:40Z</time>
      </trkpt>
      <trkpt lat="43.52443" lon="5.95906">
        <ele>243</ele>
        <time>2016-01-23T13:41:41Z</time>
      </trkpt>
      <trkpt lat="43.52453" lon="5.95915">
        <ele>242.4</ele>
        <time>2016-01-23T13:41:42Z</time>
      </trkpt>
      <trkpt lat="43.52465" lon="5.95926">
        <ele>242.5</ele>
        <time>2016-01-23T13:41:43Z</time>
      </trkpt>
      <trkpt lat="43.52481" lon="5.95941">
        <ele>241.5</ele>
        <time>2016-01-23T13:41:44Z</time>
      </trkpt>
      <trkpt lat="43.525" lon="5.95957">
        <ele>240.8</ele>
        <time>2016-01-23T13:41:45Z</time>
      </trkpt>
      <trkpt lat="43.5252" lon="5.95973">
        <ele>240.1</ele>
        <time>2016-01-23T13:41:46Z</time>
      </trkpt>
      <trkpt lat="43.52541" lon="5.9599">
        <ele>241.6</ele>
        <time>2016-01-23T13:41:47Z</time>
      </trkpt>
      <trkpt lat="43.5256" lon="5.96006">
        <ele>241.3</ele>
        <time>2016-01-23T13:41:48Z</time>
      </trkpt>
      <trkpt lat="43.52578" lon="5.96023">
        <ele>240.7</ele>
        <time>2016-01-23T13:41:49Z</time>
      </trkpt>
      <trkpt lat="43.52593" lon="5.96042">
        <ele>241.4</ele>
        <time>2016-01-23T13:41:50Z</time>
      </trkpt>
      <trkpt lat="43.52607" lon="5.9606">
        <ele>241.8</ele>
        <time>2016-01-23T13:41:51Z</time>
      </trkpt>
      <trkpt lat="43.52613" lon="5.96078">
        <ele>240.9</ele>
        <time>2016-01-23T13:41:52Z</time>
      </trkpt>
      <trkpt lat="43.52617" lon="5.96095">
        <ele>241.5</ele>
        <time>2016-01-23T13:41:53Z</time>
      </trkpt>
      <trkpt lat="43.52613" lon="5.96118">
        <ele>240.6</ele>
        <time>2016-01-23T13:41:54Z</time>
      </trkpt>
      <trkpt lat="43.5261" lon="5.96139">
        <ele>241.7</ele>
        <time>2016-01-23T13:41:55Z</time>
      </trkpt>
      <trkpt lat="43.52602" lon="5.9616">
        <ele>243.3</ele>
        <time>2016-01-23T13:41:56Z</time>
      </trkpt>
      <trkpt lat="43.52591" lon="5.9618">
        <ele>244.5</ele>
        <time>2016-01-23T13:41:57Z</time>
      </trkpt>
      <trkpt lat="43.52577" lon="5.962">
        <ele>245.4</ele>
        <time>2016-01-23T13:41:58Z</time>
      </trkpt>
      <trkpt lat="43.52563" lon="5.96219">
        <ele>244.9</ele>
        <time>2016-01-23T13:41:59Z</time>
      </trkpt>
      <trkpt lat="43.52549" lon="5.9624">
        <ele>244</ele>
        <time>2016-01-23T13:42:00Z</time>
      </trkpt>
      <trkpt lat="43.52537" lon="5.96261">
        <ele>241.9</ele>
        <time>2016-01-23T13:42:01Z</time>
      </trkpt>
      <trkpt lat="43.52528" lon="5.96281">
        <ele>239.6</ele>
        <time>2016-01-23T13:42:02Z</time>
      </trkpt>
      <trkpt lat="43.5252" lon="5.963">
        <ele>240.7</ele>
        <time>2016-01-23T13:42:03Z</time>
      </trkpt>
      <trkpt lat="43.52518" lon="5.96318">
        <ele>239.7</ele>
        <time>2016-01-23T13:42:04Z</time>
      </trkpt>
      <trkpt lat="43.5252" lon="5.96335">
        <ele>238.8</ele>
        <time>2016-01-23T13:42:05Z</time>
      </trkpt>
      <trkpt lat="43.52526" lon="5.96349">
        <ele>237.3</ele>
        <time>2016-01-23T13:42:06Z</time>
      </trkpt>
      <trkpt lat="43.52535" lon="5.9636">
        <ele>235.6</ele>
        <time>2016-01-23T13:42:07Z</time>
      </trkpt>
      <trkpt lat="43.52548" lon="5.96367">
        <ele>234.7</ele>
        <time>2016-01-23T13:42:08Z</time>
      </trkpt>
      <trkpt lat="43.52564" lon="5.96372">
        <ele>233.5</ele>
        <time>2016-01-23T13:42:09Z</time>
      </trkpt>
      <trkpt lat="43.52583" lon="5.96377">
        <ele>231.8</ele>
        <time>2016-01-23T13:42:10Z</time>
      </trkpt>
      <trkpt lat="43.52603" lon="5.9638">
        <ele>232.4</ele>
        <time>2016-01-23T13:42:11Z</time>
      </trkpt>
      <trkpt lat="43.52623" lon="5.96384">
        <ele>232.4</ele>
        <time>2016-01-23T13:42:12Z</time>
      </trkpt>
      <trkpt lat="43.52644" lon="5.96387">
        <ele>232.5</ele>
        <time>2016-01-23T13:42:13Z</time>
      </trkpt>
      <trkpt lat="43.52665" lon="5.96392">
        <ele>232.6</ele>
        <time>2016-01-23T13:42:14Z</time>
      </trkpt>
      <trkpt lat="43.52687" lon="5.96398">
        <ele>234.1</ele>
        <time>2016-01-23T13:42:15Z</time>
      </trkpt>
      <trkpt lat="43.52708" lon="5.96408">
        <ele>237.3</ele>
        <time>2016-01-23T13:42:16Z</time>
      </trkpt>
      <trkpt lat="43.5273" lon="5.96421">
        <ele>241.3</ele>
        <time>2016-01-23T13:42:17Z</time>
      </trkpt>
      <trkpt lat="43.52747" lon="5.96444">
        <ele>241</ele>
        <time>2016-01-23T13:42:18Z</time>
      </trkpt>
      <trkpt lat="43.52764" lon="5.9647">
        <ele>239</ele>
        <time>2016-01-23T13:42:19Z</time>
      </trkpt>
      <trkpt lat="43.52779" lon="5.96498">
        <ele>233.4</ele>
        <time>2016-01-23T13:42:20Z</time>
      </trkpt>
      <trkpt lat="43.52793" lon="5.96527">
        <ele>244</ele>
        <time>2016-01-23T13:42:21Z</time>
      </trkpt>
      <trkpt lat="43.52798" lon="5.96564">
        <ele>241.1</ele>
        <time>2016-01-23T13:42:22Z</time>
      </trkpt>
      <trkpt lat="43.52807" lon="5.96593">
        <ele>239</ele>
        <time>2016-01-23T13:42:23Z</time>
      </trkpt>
      <trkpt lat="43.52812" lon="5.96624">
        <ele>238.4</ele>
        <time>2016-01-23T13:42:24Z</time>
      </trkpt>
      <trkpt lat="43.52816" lon="5.96653">
        <ele>238.1</ele>
        <time>2016-01-23T13:42:25Z</time>
      </trkpt>
      <trkpt lat="43.52818" lon="5.96684">
        <ele>237.2</ele>
        <time>2016-01-23T13:42:26Z</time>
      </trkpt>
      <trkpt lat="43.5282" lon="5.96712">
        <ele>236.9</ele>
        <time>2016-01-23T13:42:27Z</time>
      </trkpt>
      <trkpt lat="43.52826" lon="5.96739">
        <ele>235.6</ele>
        <time>2016-01-23T13:42:28Z</time>
      </trkpt>
      <trkpt lat="43.52834" lon="5.96765">
        <ele>233</ele>
        <time>2016-01-23T13:42:29Z</time>
      </trkpt>
      <trkpt lat="43.52845" lon="5.9679">
        <ele>232.4</ele>
        <time>2016-01-23T13:42:30Z</time>
      </trkpt>
      <trkpt lat="43.52859" lon="5.96815">
        <ele>230.4</ele>
        <time>2016-01-23T13:42:31Z</time>
      </trkpt>
      <trkpt lat="43.52872" lon="5.9684">
        <ele>229</ele>
        <time>2016-01-23T13:42:32Z</time>
      </trkpt>
      <trkpt lat="43.52887" lon="5.96864">
        <ele>228.2</ele>
        <time>2016-01-23T13:42:33Z</time>
      </trkpt>
      <trkpt lat="43.52901" lon="5.96888">
        <ele>228.2</ele>
        <time>2016-01-23T13:42:34Z</time>
      </trkpt>
      <trkpt lat="43.52915" lon="5.9691">
        <ele>228.1</ele>
        <time>2016-01-23T13:42:35Z</time>
      </trkpt>
      <trkpt lat="43.52927" lon="5.96931">
        <ele>228.1</ele>
        <time>2016-01-23T13:42:36Z</time>
      </trkpt>
      <trkpt lat="43.52937" lon="5.96952">
        <ele>228</ele>
        <time>2016-01-23T13:42:37Z</time>
      </trkpt>
      <trkpt lat="43.52942" lon="5.96973">
        <ele>225.4</ele>
        <time>2016-01-23T13:42:38Z</time>
      </trkpt>
      <trkpt lat="43.52941" lon="5.96995">
        <ele>223.3</ele>
        <time>2016-01-23T13:42:39Z</time>
      </trkpt>
      <trkpt lat="43.52938" lon="5.97016">
        <ele>222.7</ele>
        <time>2016-01-23T13:42:40Z</time>
      </trkpt>
      <trkpt lat="43.52934" lon="5.97036">
        <ele>222.6</ele>
        <time>2016-01-23T13:42:41Z</time>
      </trkpt>
      <trkpt lat="43.52925" lon="5.97051">
        <ele>222.3</ele>
        <time>2016-01-23T13:42:42Z</time>
      </trkpt>
      <trkpt lat="43.52912" lon="5.97063">
        <ele>222.5</ele>
        <time>2016-01-23T13:42:43Z</time>
      </trkpt>
      <trkpt lat="43.52899" lon="5.97076">
        <ele>223.7</ele>
        <time>2016-01-23T13:42:44Z</time>
      </trkpt>
      <trkpt lat="43.52877" lon="5.97087">
        <ele>228.1</ele>
        <time>2016-01-23T13:42:45Z</time>
      </trkpt>
      <trkpt lat="43.52852" lon="5.9709">
        <ele>230.2</ele>
        <time>2016-01-23T13:42:46Z</time>
      </trkpt>
      <trkpt lat="43.52834" lon="5.97103">
        <ele>233.3</ele>
        <time>2016-01-23T13:42:47Z</time>
      </trkpt>
      <trkpt lat="43.52816" lon="5.97116">
        <ele>230.6</ele>
        <time>2016-01-23T13:42:48Z</time>
      </trkpt>
      <trkpt lat="43.52798" lon="5.97132">
        <ele>233.2</ele>
        <time>2016-01-23T13:42:49Z</time>
      </trkpt>
      <trkpt lat="43.52781" lon="5.97149">
        <ele>231.6</ele>
        <time>2016-01-23T13:42:50Z</time>
      </trkpt>
      <trkpt lat="43.52765" lon="5.97166">
        <ele>228</ele>
        <time>2016-01-23T13:42:51Z</time>
      </trkpt>
      <trkpt lat="43.52757" lon="5.9719">
        <ele>229</ele>
        <time>2016-01-23T13:42:52Z</time>
      </trkpt>
      <trkpt lat="43.52752" lon="5.97213">
        <ele>229.4</ele>
        <time>2016-01-23T13:42:53Z</time>
      </trkpt>
      <trkpt lat="43.52749" lon="5.97237">
        <ele>228.5</ele>
        <time>2016-01-23T13:42:54Z</time>
      </trkpt>
      <trkpt lat="43.52748" lon="5.97265">
        <ele>227.4</ele>
        <time>2016-01-23T13:42:55Z</time>
      </trkpt>
      <trkpt lat="43.52749" lon="5.97296">
        <ele>226.3</ele>
        <time>2016-01-23T13:42:56Z</time>
      </trkpt>
      <trkpt lat="43.52751" lon="5.97328">
        <ele>222.3</ele>
        <time>2016-01-23T13:42:57Z</time>
      </trkpt>
      <trkpt lat="43.52755" lon="5.9736">
        <ele>221.1</ele>
        <time>2016-01-23T13:42:58Z</time>
      </trkpt>
      <trkpt lat="43.52762" lon="5.97393">
        <ele>219.6</ele>
        <time>2016-01-23T13:42:59Z</time>
      </trkpt>
      <trkpt lat="43.52771" lon="5.97424">
        <ele>217</ele>
        <time>2016-01-23T13:43:00Z</time>
      </trkpt>
      <trkpt lat="43.52781" lon="5.97454">
        <ele>216.1</ele>
        <time>2016-01-23T13:43:01Z</time>
      </trkpt>
      <trkpt lat="43.5279" lon="5.97481">
        <ele>216.5</ele>
        <time>2016-01-23T13:43:02Z</time>
      </trkpt>
      <trkpt lat="43.52797" lon="5.97506">
        <ele>218.1</ele>
        <time>2016-01-23T13:43:03Z</time>
      </trkpt>
      <trkpt lat="43.52802" lon="5.9753">
        <ele>220.3</ele>
        <time>2016-01-23T13:43:04Z</time>
      </trkpt>
      <trkpt lat="43.52803" lon="5.97554">
        <ele>220.4</ele>
        <time>2016-01-23T13:43:05Z</time>
      </trkpt>
      <trkpt lat="43.52801" lon="5.97577">
        <ele>220.3</ele>
        <time>2016-01-23T13:43:06Z</time>
      </trkpt>
      <trkpt lat="43.52797" lon="5.97598">
        <ele>221.7</ele>
        <time>2016-01-23T13:43:07Z</time>
      </trkpt>
      <trkpt lat="43.52792" lon="5.97618">
        <ele>222.5</ele>
        <time>2016-01-23T13:43:08Z</time>
      </trkpt>
      <trkpt lat="43.52784" lon="5.97638">
        <ele>221.5</ele>
        <time>2016-01-23T13:43:09Z</time>
      </trkpt>
      <trkpt lat="43.52769" lon="5.97655">
        <ele>219.5</ele>
        <time>2016-01-23T13:43:10Z</time>
      </trkpt>
      <trkpt lat="43.52754" lon="5.97671">
        <ele>218.5</ele>
        <time>2016-01-23T13:43:11Z</time>
      </trkpt>
      <trkpt lat="43.52737" lon="5.97686">
        <ele>224.6</ele>
        <time>2016-01-23T13:43:12Z</time>
      </trkpt>
      <trkpt lat="43.52717" lon="5.97698">
        <ele>232.2</ele>
        <time>2016-01-23T13:43:13Z</time>
      </trkpt>
      <trkpt lat="43.52696" lon="5.97705">
        <ele>236.9</ele>
        <time>2016-01-23T13:43:14Z</time>
      </trkpt>
      <trkpt lat="43.52674" lon="5.97709">
        <ele>234.3</ele>
        <time>2016-01-23T13:43:15Z</time>
      </trkpt>
      <trkpt lat="43.5265" lon="5.97704">
        <ele>227.4</ele>
        <time>2016-01-23T13:43:16Z</time>
      </trkpt>
      <trkpt lat="43.52623" lon="5.97692">
        <ele>221.4</ele>
        <time>2016-01-23T13:43:17Z</time>
      </trkpt>
      <trkpt lat="43.52603" lon="5.97687">
        <ele>220.3</ele>
        <time>2016-01-23T13:43:18Z</time>
      </trkpt>
      <trkpt lat="43.52583" lon="5.97682">
        <ele>219.4</ele>
        <time>2016-01-23T13:43:19Z</time>
      </trkpt>
      <trkpt lat="43.52568" lon="5.97678">
        <ele>216</ele>
        <time>2016-01-23T13:43:20Z</time>
      </trkpt>
      <trkpt lat="43.52556" lon="5.9768">
        <ele>214.8</ele>
        <time>2016-01-23T13:43:21Z</time>
      </trkpt>
      <trkpt lat="43.52541" lon="5.97685">
        <ele>213.3</ele>
        <time>2016-01-23T13:43:22Z</time>
      </trkpt>
      <trkpt lat="43.52527" lon="5.97693">
        <ele>211</ele>
        <time>2016-01-23T13:43:23Z</time>
      </trkpt>
      <trkpt lat="43.52512" lon="5.97708">
        <ele>211.3</ele>
        <time>2016-01-23T13:43:24Z</time>
      </trkpt>
      <trkpt lat="43.52496" lon="5.97722">
        <ele>210.7</ele>
        <time>2016-01-23T13:43:25Z</time>
      </trkpt>
      <trkpt lat="43.52479" lon="5.97735">
        <ele>212.2</ele>
        <time>2016-01-23T13:43:26Z</time>
      </trkpt>
      <trkpt lat="43.52461" lon="5.97747">
        <ele>212.6</ele>
        <time>2016-01-23T13:43:27Z</time>
      </trkpt>
      <trkpt lat="43.52444" lon="5.97755">
        <ele>212.4</ele>
        <time>2016-01-23T13:43:28Z</time>
      </trkpt>
      <trkpt lat="43.52428" lon="5.97764">
        <ele>211.8</ele>
        <time>2016-01-23T13:43:29Z</time>
      </trkpt>
      <trkpt lat="43.52416" lon="5.9777">
        <ele>209.1</ele>
        <time>2016-01-23T13:43:30Z</time>
      </trkpt>
      <trkpt lat="43.52409" lon="5.9778">
        <ele>209.4</ele>
        <time>2016-01-23T13:43:31Z</time>
      </trkpt>
      <trkpt lat="43.52407" lon="5.97792">
        <ele>209.1</ele>
        <time>2016-01-23T13:43:32Z</time>
      </trkpt>
      <trkpt lat="43.52407" lon="5.97807">
        <ele>208.9</ele>
        <time>2016-01-23T13:43:33Z</time>
      </trkpt>
      <trkpt lat="43.52411" lon="5.97826">
        <ele>208.3</ele>
        <time>2016-01-23T13:43:34Z</time>
      </trkpt>
      <trkpt lat="43.52416" lon="5.97846">
        <ele>207.1</ele>
        <time>2016-01-23T13:43:35Z</time>
      </trkpt>
      <trkpt lat="43.52422" lon="5.97867">
        <ele>207.4</ele>
        <time>2016-01-23T13:43:36Z</time>
      </trkpt>
      <trkpt lat="43.52431" lon="5.97888">
        <ele>208.1</ele>
        <time>2016-01-23T13:43:37Z</time>
      </trkpt>
      <trkpt lat="43.5244" lon="5.97906">
        <ele>208.2</ele>
        <time>2016-01-23T13:43:38Z</time>
      </trkpt>
      <trkpt lat="43.52451" lon="5.97925">
        <ele>207.6</ele>
        <time>2016-01-23T13:43:39Z</time>
      </trkpt>
      <trkpt lat="43.52461" lon="5.97941">
        <ele>206.9</ele>
        <time>2016-01-23T13:43:40Z</time>
      </trkpt>
      <trkpt lat="43.52475" lon="5.97953">
        <ele>206.4</ele>
        <time>2016-01-23T13:43:41Z</time>
      </trkpt>
      <trkpt lat="43.52487" lon="5.97964">
        <ele>205.6</ele>
        <time>2016-01-23T13:43:42Z</time>
      </trkpt>
      <trkpt lat="43.52513" lon="5.97965">
        <ele>205.5</ele>
        <time>2016-01-23T13:43:43Z</time>
      </trkpt>
      <trkpt lat="43.52536" lon="5.97973">
        <ele>204.8</ele>
        <time>2016-01-23T13:43:44Z</time>
      </trkpt>
      <trkpt lat="43.52559" lon="5.97986">
        <ele>205.5</ele>
        <time>2016-01-23T13:43:45Z</time>
      </trkpt>
      <trkpt lat="43.52582" lon="5.98">
        <ele>204.2</ele>
        <time>2016-01-23T13:43:46Z</time>
      </trkpt>
      <trkpt lat="43.52603" lon="5.98015">
        <ele>205</ele>
        <time>2016-01-23T13:43:47Z</time>
      </trkpt>
      <trkpt lat="43.52623" lon="5.98033">
        <ele>205</ele>
        <time>2016-01-23T13:43:48Z</time>
      </trkpt>
      <trkpt lat="43.52642" lon="5.98051">
        <ele>205.2</ele>
        <time>2016-01-23T13:43:49Z</time>
      </trkpt>
      <trkpt lat="43.52662" lon="5.98067">
        <ele>205.9</ele>
        <time>2016-01-23T13:43:50Z</time>
      </trkpt>
      <trkpt lat="43.52682" lon="5.9808">
        <ele>206.1</ele>
        <time>2016-01-23T13:43:51Z</time>
      </trkpt>
      <trkpt lat="43.52704" lon="5.98093">
        <ele>206.4</ele>
        <time>2016-01-23T13:43:52Z</time>
      </trkpt>
      <trkpt lat="43.52723" lon="5.98107">
        <ele>205.1</ele>
        <time>2016-01-23T13:43:53Z</time>
      </trkpt>
      <trkpt lat="43.52742" lon="5.98119">
        <ele>207.1</ele>
        <time>2016-01-23T13:43:54Z</time>
      </trkpt>
      <trkpt lat="43.52762" lon="5.98129">
        <ele>206.5</ele>
        <time>2016-01-23T13:43:55Z</time>
      </trkpt>
      <trkpt lat="43.52784" lon="5.98138">
        <ele>205.7</ele>
        <time>2016-01-23T13:43:56Z</time>
      </trkpt>
      <trkpt lat="43.52806" lon="5.98145">
        <ele>206.7</ele>
        <time>2016-01-23T13:43:57Z</time>
      </trkpt>
      <trkpt lat="43.52831" lon="5.98146">
        <ele>208.6</ele>
        <time>2016-01-23T13:43:58Z</time>
      </trkpt>
      <trkpt lat="43.52854" lon="5.98147">
        <ele>207.5</ele>
        <time>2016-01-23T13:43:59Z</time>
      </trkpt>
      <trkpt lat="43.52879" lon="5.98144">
        <ele>206.9</ele>
        <time>2016-01-23T13:44:00Z</time>
      </trkpt>
      <trkpt lat="43.52903" lon="5.98142">
        <ele>206.8</ele>
        <time>2016-01-23T13:44:01Z</time>
      </trkpt>
      <trkpt lat="43.52928" lon="5.98137">
        <ele>207</ele>
        <time>2016-01-23T13:44:02Z</time>
      </trkpt>
      <trkpt lat="43.52952" lon="5.98134">
        <ele>207.1</ele>
        <time>2016-01-23T13:44:03Z</time>
      </trkpt>
      <trkpt lat="43.52977" lon="5.98132">
        <ele>207.6</ele>
        <time>2016-01-23T13:44:04Z</time>
      </trkpt>
      <trkpt lat="43.53001" lon="5.98131">
        <ele>208.2</ele>
        <time>2016-01-23T13:44:05Z</time>
      </trkpt>
      <trkpt lat="43.53028" lon="5.98133">
        <ele>208.4</ele>
        <time>2016-01-23T13:44:06Z</time>
      </trkpt>
      <trkpt lat="43.53054" lon="5.98136">
        <ele>209</ele>
        <time>2016-01-23T13:44:07Z</time>
      </trkpt>
      <trkpt lat="43.53081" lon="5.98142">
        <ele>209.7</ele>
        <time>2016-01-23T13:44:08Z</time>
      </trkpt>
      <trkpt lat="43.53109" lon="5.98149">
        <ele>209.3</ele>
        <time>2016-01-23T13:44:09Z</time>
      </trkpt>
      <trkpt lat="43.53137" lon="5.98156">
        <ele>210</ele>
        <time>2016-01-23T13:44:10Z</time>
      </trkpt>
      <trkpt lat="43.53164" lon="5.98164">
        <ele>210</ele>
        <time>2016-01-23T13:44:11Z</time>
      </trkpt>
      <trkpt lat="43.53191" lon="5.98172">
        <ele>209.8</ele>
        <time>2016-01-23T13:44:12Z</time>
      </trkpt>
      <trkpt lat="43.53219" lon="5.9818">
        <ele>209.9</ele>
        <time>2016-01-23T13:44:13Z</time>
      </trkpt>
      <trkpt lat="43.53246" lon="5.98188">
        <ele>210.8</ele>
        <time>2016-01-23T13:44:14Z</time>
      </trkpt>
      <trkpt lat="43.53272" lon="5.98194">
        <ele>211.8</ele>
        <time>2016-01-23T13:44:15Z</time>
      </trkpt>
      <trkpt lat="43.53299" lon="5.98201">
        <ele>212.9</ele>
        <time>2016-01-23T13:44:16Z</time>
      </trkpt>
      <trkpt lat="43.53325" lon="5.98203">
        <ele>214.5</ele>
        <time>2016-01-23T13:44:17Z</time>
      </trkpt>
      <trkpt lat="43.53351" lon="5.98202">
        <ele>216.7</ele>
        <time>2016-01-23T13:44:18Z</time>
      </trkpt>
      <trkpt lat="43.53376" lon="5.982">
        <ele>217.8</ele>
        <time>2016-01-23T13:44:19Z</time>
      </trkpt>
      <trkpt lat="43.534" lon="5.98198">
        <ele>217.5</ele>
        <time>2016-01-23T13:44:20Z</time>
      </trkpt>
      <trkpt lat="43.53424" lon="5.98199">
        <ele>217.5</ele>
        <time>2016-01-23T13:44:21Z</time>
      </trkpt>
      <trkpt lat="43.53448" lon="5.98201">
        <ele>217.1</ele>
        <time>2016-01-23T13:44:22Z</time>
      </trkpt>
      <trkpt lat="43.53472" lon="5.98213">
        <ele>216.4</ele>
        <time>2016-01-23T13:44:23Z</time>
      </trkpt>
      <trkpt lat="43.53496" lon="5.98226">
        <ele>217.6</ele>
        <time>2016-01-23T13:44:24Z</time>
      </trkpt>
      <trkpt lat="43.53522" lon="5.98237">
        <ele>219.1</ele>
        <time>2016-01-23T13:44:25Z</time>
      </trkpt>
      <trkpt lat="43.53548" lon="5.98248">
        <ele>221.4</ele>
        <time>2016-01-23T13:44:26Z</time>
      </trkpt>
      <trkpt lat="43.53574" lon="5.98257">
        <ele>222.2</ele>
        <time>2016-01-23T13:44:27Z</time>
      </trkpt>
      <trkpt lat="43.536" lon="5.98268">
        <ele>223.6</ele>
        <time>2016-01-23T13:44:28Z</time>
      </trkpt>
      <trkpt lat="43.53626" lon="5.98283">
        <ele>225.2</ele>
        <time>2016-01-23T13:44:29Z</time>
      </trkpt>
      <trkpt lat="43.5365" lon="5.983">
        <ele>225.6</ele>
        <time>2016-01-23T13:44:30Z</time>
      </trkpt>
      <trkpt lat="43.53673" lon="5.98318">
        <ele>225.8</ele>
        <time>2016-01-23T13:44:31Z</time>
      </trkpt>
      <trkpt lat="43.53695" lon="5.98336">
        <ele>226.4</ele>
        <time>2016-01-23T13:44:32Z</time>
      </trkpt>
      <trkpt lat="43.53713" lon="5.98357">
        <ele>228.1</ele>
        <time>2016-01-23T13:44:33Z</time>
      </trkpt>
      <trkpt lat="43.53729" lon="5.9838">
        <ele>229.3</ele>
        <time>2016-01-23T13:44:34Z</time>
      </trkpt>
      <trkpt lat="43.53743" lon="5.98404">
        <ele>230.2</ele>
        <time>2016-01-23T13:44:35Z</time>
      </trkpt>
      <trkpt lat="43.53756" lon="5.98427">
        <ele>231</ele>
        <time>2016-01-23T13:44:36Z</time>
      </trkpt>
      <trkpt lat="43.53769" lon="5.98449">
        <ele>231</ele>
        <time>2016-01-23T13:44:37Z</time>
      </trkpt>
      <trkpt lat="43.53781" lon="5.98466">
        <ele>232.9</ele>
        <time>2016-01-23T13:44:38Z</time>
      </trkpt>
      <trkpt lat="43.53795" lon="5.98482">
        <ele>234.9</ele>
        <time>2016-01-23T13:44:39Z</time>
      </trkpt>
      <trkpt lat="43.53808" lon="5.98495">
        <ele>236.6</ele>
        <time>2016-01-23T13:44:40Z</time>
      </trkpt>
      <trkpt lat="43.53823" lon="5.98505">
        <ele>239</ele>
        <time>2016-01-23T13:44:41Z</time>
      </trkpt>
      <trkpt lat="43.53844" lon="5.98505">
        <ele>240</ele>
        <time>2016-01-23T13:44:42Z</time>
      </trkpt>
      <trkpt lat="43.53862" lon="5.98509">
        <ele>241.1</ele>
        <time>2016-01-23T13:44:43Z</time>
      </trkpt>
      <trkpt lat="43.5388" lon="5.98516">
        <ele>241.1</ele>
        <time>2016-01-23T13:44:44Z</time>
      </trkpt>
      <trkpt lat="43.53896" lon="5.98527">
        <ele>240.2</ele>
        <time>2016-01-23T13:44:45Z</time>
      </trkpt>
      <trkpt lat="43.53911" lon="5.98543">
        <ele>240.6</ele>
        <time>2016-01-23T13:44:46Z</time>
      </trkpt>
      <trkpt lat="43.53924" lon="5.98564">
        <ele>240.6</ele>
        <time>2016-01-23T13:44:47Z</time>
      </trkpt>
      <trkpt lat="43.53935" lon="5.98588">
        <ele>240.4</ele>
        <time>2016-01-23T13:44:48Z</time>
      </trkpt>
      <trkpt lat="43.53943" lon="5.98616">
        <ele>239.2</ele>
        <time>2016-01-23T13:44:49Z</time>
      </trkpt>
      <trkpt lat="43.53952" lon="5.98642">
        <ele>241.6</ele>
        <time>2016-01-23T13:44:50Z</time>
      </trkpt>
      <trkpt lat="43.53962" lon="5.98665">
        <ele>241.4</ele>
        <time>2016-01-23T13:44:51Z</time>
      </trkpt>
      <trkpt lat="43.53973" lon="5.98685">
        <ele>244.4</ele>
        <time>2016-01-23T13:44:52Z</time>
      </trkpt>
      <trkpt lat="43.53984" lon="5.98704">
        <ele>247.1</ele>
        <time>2016-01-23T13:44:53Z</time>
      </trkpt>
      <trkpt lat="43.53995" lon="5.98719">
        <ele>249.2</ele>
        <time>2016-01-23T13:44:54Z</time>
      </trkpt>
      <trkpt lat="43.54008" lon="5.9873">
        <ele>251</ele>
        <time>2016-01-23T13:44:55Z</time>
      </trkpt>
      <trkpt lat="43.54021" lon="5.98737">
        <ele>250.9</ele>
        <time>2016-01-23T13:44:56Z</time>
      </trkpt>
      <trkpt lat="43.54035" lon="5.98737">
        <ele>250.7</ele>
        <time>2016-01-23T13:44:57Z</time>
      </trkpt>
      <trkpt lat="43.54051" lon="5.98727">
        <ele>251.7</ele>
        <time>2016-01-23T13:44:58Z</time>
      </trkpt>
      <trkpt lat="43.5407" lon="5.9871">
        <ele>255.8</ele>
        <time>2016-01-23T13:44:59Z</time>
      </trkpt>
      <trkpt lat="43.54093" lon="5.9869">
        <ele>260.7</ele>
        <time>2016-01-23T13:45:00Z</time>
      </trkpt>
      <trkpt lat="43.54115" lon="5.98674">
        <ele>264</ele>
        <time>2016-01-23T13:45:01Z</time>
      </trkpt>
      <trkpt lat="43.54136" lon="5.98666">
        <ele>265.3</ele>
        <time>2016-01-23T13:45:02Z</time>
      </trkpt>
      <trkpt lat="43.54155" lon="5.98661">
        <ele>264.6</ele>
        <time>2016-01-23T13:45:03Z</time>
      </trkpt>
      <trkpt lat="43.54174" lon="5.98663">
        <ele>264.1</ele>
        <time>2016-01-23T13:45:04Z</time>
      </trkpt>
      <trkpt lat="43.54192" lon="5.98671">
        <ele>263.2</ele>
        <time>2016-01-23T13:45:05Z</time>
      </trkpt>
      <trkpt lat="43.54209" lon="5.98687">
        <ele>264.1</ele>
        <time>2016-01-23T13:45:06Z</time>
      </trkpt>
      <trkpt lat="43.54223" lon="5.98706">
        <ele>264.2</ele>
        <time>2016-01-23T13:45:07Z</time>
      </trkpt>
      <trkpt lat="43.54237" lon="5.98723">
        <ele>265.1</ele>
        <time>2016-01-23T13:45:08Z</time>
      </trkpt>
      <trkpt lat="43.54251" lon="5.98738">
        <ele>266.3</ele>
        <time>2016-01-23T13:45:09Z</time>
      </trkpt>
      <trkpt lat="43.54266" lon="5.98751">
        <ele>268.6</ele>
        <time>2016-01-23T13:45:10Z</time>
      </trkpt>
      <trkpt lat="43.54283" lon="5.98756">
        <ele>269.8</ele>
        <time>2016-01-23T13:45:11Z</time>
      </trkpt>
      <trkpt lat="43.54301" lon="5.98756">
        <ele>271</ele>
        <time>2016-01-23T13:45:12Z</time>
      </trkpt>
      <trkpt lat="43.5432" lon="5.98752">
        <ele>271.9</ele>
        <time>2016-01-23T13:45:13Z</time>
      </trkpt>
      <trkpt lat="43.54339" lon="5.98745">
        <ele>273</ele>
        <time>2016-01-23T13:45:14Z</time>
      </trkpt>
      <trkpt lat="43.54359" lon="5.98735">
        <ele>273.6</ele>
        <time>2016-01-23T13:45:15Z</time>
      </trkpt>
      <trkpt lat="43.54379" lon="5.98723">
        <ele>275.2</ele>
        <time>2016-01-23T13:45:16Z</time>
      </trkpt>
      <trkpt lat="43.54398" lon="5.98712">
        <ele>277.9</ele>
        <time>2016-01-23T13:45:17Z</time>
      </trkpt>
      <trkpt lat="43.54417" lon="5.98701">
        <ele>278.2</ele>
        <time>2016-01-23T13:45:18Z</time>
      </trkpt>
      <trkpt lat="43.54434" lon="5.98692">
        <ele>280.6</ele>
        <time>2016-01-23T13:45:19Z</time>
      </trkpt>
      <trkpt lat="43.54452" lon="5.98686">
        <ele>281.1</ele>
        <time>2016-01-23T13:45:20Z</time>
      </trkpt>
      <trkpt lat="43.54472" lon="5.98688">
        <ele>280.3</ele>
        <time>2016-01-23T13:45:21Z</time>
      </trkpt>
      <trkpt lat="43.5449" lon="5.9869">
        <ele>277.5</ele>
        <time>2016-01-23T13:45:22Z</time>
      </trkpt>
      <trkpt lat="43.54509" lon="5.98694">
        <ele>276.3</ele>
        <time>2016-01-23T13:45:23Z</time>
      </trkpt>
      <trkpt lat="43.54528" lon="5.98706">
        <ele>275.1</ele>
        <time>2016-01-23T13:45:24Z</time>
      </trkpt>
      <trkpt lat="43.54548" lon="5.98722">
        <ele>276.5</ele>
        <time>2016-01-23T13:45:25Z</time>
      </trkpt>
      <trkpt lat="43.54566" lon="5.9874">
        <ele>283.1</ele>
        <time>2016-01-23T13:45:26Z</time>
      </trkpt>
      <trkpt lat="43.54578" lon="5.98766">
        <ele>291.9</ele>
        <time>2016-01-23T13:45:27Z</time>
      </trkpt>
      <trkpt lat="43.54591" lon="5.98793">
        <ele>295</ele>
        <time>2016-01-23T13:45:28Z</time>
      </trkpt>
      <trkpt lat="43.546" lon="5.98823">
        <ele>293</ele>
        <time>2016-01-23T13:45:29Z</time>
      </trkpt>
      <trkpt lat="43.54606" lon="5.98853">
        <ele>291.4</ele>
        <time>2016-01-23T13:45:30Z</time>
      </trkpt>
      <trkpt lat="43.54609" lon="5.98883">
        <ele>291.7</ele>
        <time>2016-01-23T13:45:31Z</time>
      </trkpt>
      <trkpt lat="43.54609" lon="5.98913">
        <ele>291.8</ele>
        <time>2016-01-23T13:45:32Z</time>
      </trkpt>
      <trkpt lat="43.54607" lon="5.98941">
        <ele>292.4</ele>
        <time>2016-01-23T13:45:33Z</time>
      </trkpt>
      <trkpt lat="43.54603" lon="5.9897">
        <ele>294.6</ele>
        <time>2016-01-23T13:45:34Z</time>
      </trkpt>
      <trkpt lat="43.54598" lon="5.99001">
        <ele>293.6</ele>
        <time>2016-01-23T13:45:35Z</time>
      </trkpt>
      <trkpt lat="43.54594" lon="5.99034">
        <ele>292.3</ele>
        <time>2016-01-23T13:45:36Z</time>
      </trkpt>
      <trkpt lat="43.54589" lon="5.99067">
        <ele>291.1</ele>
        <time>2016-01-23T13:45:37Z</time>
      </trkpt>
      <trkpt lat="43.54582" lon="5.99101">
        <ele>290.2</ele>
        <time>2016-01-23T13:45:38Z</time>
      </trkpt>
      <trkpt lat="43.54567" lon="5.99143">
        <ele>287.3</ele>
        <time>2016-01-23T13:45:39Z</time>
      </trkpt>
      <trkpt lat="43.54559" lon="5.99176">
        <ele>287.2</ele>
        <time>2016-01-23T13:45:40Z</time>
      </trkpt>
      <trkpt lat="43.54556" lon="5.99204">
        <ele>286.3</ele>
        <time>2016-01-23T13:45:41Z</time>
      </trkpt>
      <trkpt lat="43.54555" lon="5.99231">
        <ele>284.7</ele>
        <time>2016-01-23T13:45:42Z</time>
      </trkpt>
      <trkpt lat="43.54557" lon="5.99256">
        <ele>283.6</ele>
        <time>2016-01-23T13:45:43Z</time>
      </trkpt>
      <trkpt lat="43.54564" lon="5.99282">
        <ele>282.5</ele>
        <time>2016-01-23T13:45:44Z</time>
      </trkpt>
      <trkpt lat="43.54575" lon="5.99308">
        <ele>283.2</ele>
        <time>2016-01-23T13:45:45Z</time>
      </trkpt>
      <trkpt lat="43.54587" lon="5.99334">
        <ele>279.2</ele>
        <time>2016-01-23T13:45:46Z</time>
      </trkpt>
      <trkpt lat="43.546" lon="5.99362">
        <ele>279.4</ele>
        <time>2016-01-23T13:45:47Z</time>
      </trkpt>
      <trkpt lat="43.54614" lon="5.9939">
        <ele>277.1</ele>
        <time>2016-01-23T13:45:48Z</time>
      </trkpt>
      <trkpt lat="43.54627" lon="5.99418">
        <ele>275.9</ele>
        <time>2016-01-23T13:45:49Z</time>
      </trkpt>
      <trkpt lat="43.5464" lon="5.99443">
        <ele>274.1</ele>
        <time>2016-01-23T13:45:50Z</time>
      </trkpt>
      <trkpt lat="43.54653" lon="5.99469">
        <ele>273.2</ele>
        <time>2016-01-23T13:45:51Z</time>
      </trkpt>
      <trkpt lat="43.54668" lon="5.99493">
        <ele>272.7</ele>
        <time>2016-01-23T13:45:52Z</time>
      </trkpt>
      <trkpt lat="43.54684" lon="5.99517">
        <ele>271.3</ele>
        <time>2016-01-23T13:45:53Z</time>
      </trkpt>
      <trkpt lat="43.54703" lon="5.99539">
        <ele>270.6</ele>
        <time>2016-01-23T13:45:54Z</time>
      </trkpt>
      <trkpt lat="43.54723" lon="5.9956">
        <ele>268.2</ele>
        <time>2016-01-23T13:45:55Z</time>
      </trkpt>
      <trkpt lat="43.54742" lon="5.99582">
        <ele>267.1</ele>
        <time>2016-01-23T13:45:56Z</time>
      </trkpt>
      <trkpt lat="43.54761" lon="5.99602">
        <ele>265.6</ele>
        <time>2016-01-23T13:45:57Z</time>
      </trkpt>
      <trkpt lat="43.5478" lon="5.9962">
        <ele>264.2</ele>
        <time>2016-01-23T13:45:58Z</time>
      </trkpt>
      <trkpt lat="43.54798" lon="5.99638">
        <ele>263.1</ele>
        <time>2016-01-23T13:45:59Z</time>
      </trkpt>
      <trkpt lat="43.54815" lon="5.99656">
        <ele>261.9</ele>
        <time>2016-01-23T13:46:00Z</time>
      </trkpt>
      <trkpt lat="43.54831" lon="5.99672">
        <ele>262</ele>
        <time>2016-01-23T13:46:01Z</time>
      </trkpt>
      <trkpt lat="43.54849" lon="5.99684">
        <ele>260.8</ele>
        <time>2016-01-23T13:46:02Z</time>
      </trkpt>
      <trkpt lat="43.54868" lon="5.99694">
        <ele>261.2</ele>
        <time>2016-01-23T13:46:03Z</time>
      </trkpt>
      <trkpt lat="43.54888" lon="5.99698">
        <ele>259.2</ele>
        <time>2016-01-23T13:46:04Z</time>
      </trkpt>
      <trkpt lat="43.54907" lon="5.99697">
        <ele>259.1</ele>
        <time>2016-01-23T13:46:05Z</time>
      </trkpt>
      <trkpt lat="43.54926" lon="5.99693">
        <ele>257.8</ele>
        <time>2016-01-23T13:46:06Z</time>
      </trkpt>
      <trkpt lat="43.54944" lon="5.99689">
        <ele>254.2</ele>
        <time>2016-01-23T13:46:07Z</time>
      </trkpt>
      <trkpt lat="43.54963" lon="5.99687">
        <ele>252.9</ele>
        <time>2016-01-23T13:46:08Z</time>
      </trkpt>
      <trkpt lat="43.54983" lon="5.99687">
        <ele>253.6</ele>
        <time>2016-01-23T13:46:09Z</time>
      </trkpt>
      <trkpt lat="43.55" lon="5.99695">
        <ele>254.7</ele>
        <time>2016-01-23T13:46:10Z</time>
      </trkpt>
      <trkpt lat="43.55019" lon="5.99704">
        <ele>252.7</ele>
        <time>2016-01-23T13:46:11Z</time>
      </trkpt>
      <trkpt lat="43.55039" lon="5.99712">
        <ele>251.6</ele>
        <time>2016-01-23T13:46:12Z</time>
      </trkpt>
      <trkpt lat="43.55058" lon="5.99719">
        <ele>251.8</ele>
        <time>2016-01-23T13:46:13Z</time>
      </trkpt>
      <trkpt lat="43.55072" lon="5.99723">
        <ele>250.4</ele>
        <time>2016-01-23T13:46:14Z</time>
      </trkpt>
      <trkpt lat="43.55086" lon="5.99725">
        <ele>249.1</ele>
        <time>2016-01-23T13:46:15Z</time>
      </trkpt>
      <trkpt lat="43.55099" lon="5.99724">
        <ele>246.2</ele>
        <time>2016-01-23T13:46:16Z</time>
      </trkpt>
      <trkpt lat="43.55111" lon="5.9972">
        <ele>244.9</ele>
        <time>2016-01-23T13:46:17Z</time>
      </trkpt>
      <trkpt lat="43.5512" lon="5.99711">
        <ele>244</ele>
        <time>2016-01-23T13:46:18Z</time>
      </trkpt>
      <trkpt lat="43.5513" lon="5.99699">
        <ele>243.5</ele>
        <time>2016-01-23T13:46:19Z</time>
      </trkpt>
      <trkpt lat="43.55141" lon="5.99689">
        <ele>242.8</ele>
        <time>2016-01-23T13:46:20Z</time>
      </trkpt>
      <trkpt lat="43.55155" lon="5.99681">
        <ele>243.7</ele>
        <time>2016-01-23T13:46:21Z</time>
      </trkpt>
      <trkpt lat="43.55172" lon="5.99674">
        <ele>244.4</ele>
        <time>2016-01-23T13:46:22Z</time>
      </trkpt>
      <trkpt lat="43.55187" lon="5.99669">
        <ele>246.4</ele>
        <time>2016-01-23T13:46:23Z</time>
      </trkpt>
      <trkpt lat="43.55203" lon="5.99665">
        <ele>247.3</ele>
        <time>2016-01-23T13:46:24Z</time>
      </trkpt>
      <trkpt lat="43.55218" lon="5.99664">
        <ele>247.3</ele>
        <time>2016-01-23T13:46:25Z</time>
      </trkpt>
      <trkpt lat="43.55231" lon="5.99664">
        <ele>249.1</ele>
        <time>2016-01-23T13:46:26Z</time>
      </trkpt>
      <trkpt lat="43.55243" lon="5.99668">
        <ele>251</ele>
        <time>2016-01-23T13:46:27Z</time>
      </trkpt>
      <trkpt lat="43.55255" lon="5.99675">
        <ele>254.4</ele>
        <time>2016-01-23T13:46:28Z</time>
      </trkpt>
      <trkpt lat="43.55264" lon="5.99689">
        <ele>255.5</ele>
        <time>2016-01-23T13:46:29Z</time>
      </trkpt>
      <trkpt lat="43.55269" lon="5.99704">
        <ele>252.1</ele>
        <time>2016-01-23T13:46:30Z</time>
      </trkpt>
      <trkpt lat="43.55275" lon="5.99719">
        <ele>246.8</ele>
        <time>2016-01-23T13:46:31Z</time>
      </trkpt>
      <trkpt lat="43.55283" lon="5.99732">
        <ele>243.6</ele>
        <time>2016-01-23T13:46:32Z</time>
      </trkpt>
      <trkpt lat="43.55292" lon="5.99744">
        <ele>241.3</ele>
        <time>2016-01-23T13:46:33Z</time>
      </trkpt>
      <trkpt lat="43.55301" lon="5.99755">
        <ele>238.6</ele>
        <time>2016-01-23T13:46:34Z</time>
      </trkpt>
      <trkpt lat="43.55312" lon="5.99764">
        <ele>235.8</ele>
        <time>2016-01-23T13:46:35Z</time>
      </trkpt>
      <trkpt lat="43.5532" lon="5.99775">
        <ele>232.8</ele>
        <time>2016-01-23T13:46:36Z</time>
      </trkpt>
      <trkpt lat="43.55327" lon="5.99791">
        <ele>231.4</ele>
        <time>2016-01-23T13:46:37Z</time>
      </trkpt>
      <trkpt lat="43.55333" lon="5.99808">
        <ele>231.4</ele>
        <time>2016-01-23T13:46:38Z</time>
      </trkpt>
      <trkpt lat="43.55335" lon="5.99825">
        <ele>227.9</ele>
        <time>2016-01-23T13:46:39Z</time>
      </trkpt>
      <trkpt lat="43.55336" lon="5.99842">
        <ele>230.4</ele>
        <time>2016-01-23T13:46:40Z</time>
      </trkpt>
      <trkpt lat="43.55336" lon="5.99857">
        <ele>236.8</ele>
        <time>2016-01-23T13:46:41Z</time>
      </trkpt>
      <trkpt lat="43.55335" lon="5.99871">
        <ele>242.7</ele>
        <time>2016-01-23T13:46:42Z</time>
      </trkpt>
      <trkpt lat="43.55331" lon="5.9988">
        <ele>246.6</ele>
        <time>2016-01-23T13:46:43Z</time>
      </trkpt>
      <trkpt lat="43.55328" lon="5.99888">
        <ele>250.5</ele>
        <time>2016-01-23T13:46:44Z</time>
      </trkpt>
      <trkpt lat="43.55313" lon="5.99889">
        <ele>250.5</ele>
        <time>2016-01-23T13:46:45Z</time>
      </trkpt>
      <trkpt lat="43.55306" lon="5.99893">
        <ele>252.5</ele>
        <time>2016-01-23T13:46:46Z</time>
      </trkpt>
      <trkpt lat="43.55285" lon="5.99882">
        <ele>245.9</ele>
        <time>2016-01-23T13:46:47Z</time>
      </trkpt>
      <trkpt lat="43.55274" lon="5.99879">
        <ele>245.1</ele>
        <time>2016-01-23T13:46:48Z</time>
      </trkpt>
      <trkpt lat="43.55267" lon="5.99877">
        <ele>245.1</ele>
        <time>2016-01-23T13:46:49Z</time>
      </trkpt>
      <trkpt lat="43.55261" lon="5.99876">
        <ele>245.3</ele>
        <time>2016-01-23T13:46:50Z</time>
      </trkpt>
      <trkpt lat="43.55256" lon="5.99875">
        <ele>245.5</ele>
        <time>2016-01-23T13:46:51Z</time>
      </trkpt>
      <trkpt lat="43.55253" lon="5.99875">
        <ele>245.7</ele>
        <time>2016-01-23T13:46:52Z</time>
      </trkpt>
      <trkpt lat="43.55251" lon="5.99875">
        <ele>245.8</ele>
        <time>2016-01-23T13:46:53Z</time>
      </trkpt>
      <trkpt lat="43.55249" lon="5.99874">
        <ele>245.6</ele>
        <time>2016-01-23T13:46:54Z</time>
      </trkpt>
      <trkpt lat="43.55249" lon="5.99873">
        <ele>245</ele>
        <time>2016-01-23T13:46:55Z</time>
      </trkpt>
      <trkpt lat="43.55248" lon="5.99873">
        <ele>244.6</ele>
        <time>2016-01-23T13:46:56Z</time>
      </trkpt>
      <trkpt lat="43.55246" lon="5.99873">
        <ele>244.3</ele>
        <time>2016-01-23T13:46:57Z</time>
      </trkpt>
      <trkpt lat="43.55245" lon="5.99873">
        <ele>244.5</ele>
        <time>2016-01-23T13:46:58Z</time>
      </trkpt>
      <trkpt lat="43.55242" lon="5.99874">
        <ele>244.6</ele>
        <time>2016-01-23T13:46:59Z</time>
      </trkpt>
      <trkpt lat="43.55238" lon="5.99876">
        <ele>244.7</ele>
        <time>2016-01-23T13:47:00Z</time>
      </trkpt>
      <trkpt lat="43.55232" lon="5.99879">
        <ele>244.4</ele>
        <time>2016-01-23T13:47:01Z</time>
      </trkpt>
      <trkpt lat="43.55225" lon="5.99882">
        <ele>243.6</ele>
        <time>2016-01-23T13:47:02Z</time>
      </trkpt>
      <trkpt lat="43.55215" lon="5.99886">
        <ele>242.4</ele>
        <time>2016-01-23T13:47:03Z</time>
      </trkpt>
      <trkpt lat="43.55204" lon="5.99892">
        <ele>241.8</ele>
        <time>2016-01-23T13:47:04Z</time>
      </trkpt>
      <trkpt lat="43.55192" lon="5.99898">
        <ele>241.1</ele>
        <time>2016-01-23T13:47:05Z</time>
      </trkpt>
      <trkpt lat="43.55181" lon="5.99904">
        <ele>240.7</ele>
        <time>2016-01-23T13:47:06Z</time>
      </trkpt>
      <trkpt lat="43.55168" lon="5.99909">
        <ele>239.9</ele>
        <time>2016-01-23T13:47:07Z</time>
      </trkpt>
      <trkpt lat="43.55156" lon="5.99916">
        <ele>240.4</ele>
        <time>2016-01-23T13:47:08Z</time>
      </trkpt>
      <trkpt lat="43.55143" lon="5.99922">
        <ele>241.4</ele>
        <time>2016-01-23T13:47:09Z</time>
      </trkpt>
      <trkpt lat="43.55131" lon="5.99929">
        <ele>241.6</ele>
        <time>2016-01-23T13:47:10Z</time>
      </trkpt>
      <trkpt lat="43.55118" lon="5.99935">
        <ele>241.1</ele>
        <time>2016-01-23T13:47:11Z</time>
      </trkpt>
      <trkpt lat="43.55105" lon="5.99941">
        <ele>240.9</ele>
        <time>2016-01-23T13:47:12Z</time>
      </trkpt>
      <trkpt lat="43.55093" lon="5.99946">
        <ele>241</ele>
        <time>2016-01-23T13:47:13Z</time>
      </trkpt>
      <trkpt lat="43.55081" lon="5.99952">
        <ele>241.1</ele>
        <time>2016-01-23T13:47:14Z</time>
      </trkpt>
      <trkpt lat="43.55069" lon="5.99958">
        <ele>241.3</ele>
        <time>2016-01-23T13:47:15Z</time>
      </trkpt>
      <trkpt lat="43.55058" lon="5.99966">
        <ele>242</ele>
        <time>2016-01-23T13:47:16Z</time>
      </trkpt>
      <trkpt lat="43.55049" lon="5.99978">
        <ele>241.8</ele>
        <time>2016-01-23T13:47:17Z</time>
      </trkpt>
      <trkpt lat="43.55042" lon="5.99992">
        <ele>241.4</ele>
        <time>2016-01-23T13:47:18Z</time>
      </trkpt>
      <trkpt lat="43.55037" lon="6.00008">
        <ele>241.1</ele>
        <time>2016-01-23T13:47:19Z</time>
      </trkpt>
      <trkpt lat="43.55032" lon="6.00025">
        <ele>240.8</ele>
        <time>2016-01-23T13:47:20Z</time>
      </trkpt>
      <trkpt lat="43.55032" lon="6.00045">
        <ele>241.9</ele>
        <time>2016-01-23T13:47:21Z</time>
      </trkpt>
      <trkpt lat="43.55033" lon="6.00065">
        <ele>243</ele>
        <time>2016-01-23T13:47:22Z</time>
      </trkpt>
      <trkpt lat="43.55038" lon="6.00087">
        <ele>244</ele>
        <time>2016-01-23T13:47:23Z</time>
      </trkpt>
      <trkpt lat="43.55044" lon="6.00109">
        <ele>243.9</ele>
        <time>2016-01-23T13:47:24Z</time>
      </trkpt>
      <trkpt lat="43.5505" lon="6.00131">
        <ele>242.7</ele>
        <time>2016-01-23T13:47:25Z</time>
      </trkpt>
      <trkpt lat="43.55055" lon="6.00152">
        <ele>241.5</ele>
        <time>2016-01-23T13:47:26Z</time>
      </trkpt>
      <trkpt lat="43.55061" lon="6.00172">
        <ele>241.1</ele>
        <time>2016-01-23T13:47:27Z</time>
      </trkpt>
      <trkpt lat="43.55067" lon="6.00191">
        <ele>239.4</ele>
        <time>2016-01-23T13:47:28Z</time>
      </trkpt>
      <trkpt lat="43.55073" lon="6.00211">
        <ele>239.4</ele>
        <time>2016-01-23T13:47:29Z</time>
      </trkpt>
      <trkpt lat="43.55077" lon="6.00231">
        <ele>239.9</ele>
        <time>2016-01-23T13:47:30Z</time>
      </trkpt>
      <trkpt lat="43.5508" lon="6.00252">
        <ele>240.8</ele>
        <time>2016-01-23T13:47:31Z</time>
      </trkpt>
      <trkpt lat="43.55081" lon="6.00274">
        <ele>241</ele>
        <time>2016-01-23T13:47:32Z</time>
      </trkpt>
      <trkpt lat="43.55079" lon="6.00296">
        <ele>241.2</ele>
        <time>2016-01-23T13:47:33Z</time>
      </trkpt>
      <trkpt lat="43.55076" lon="6.0032">
        <ele>240.9</ele>
        <time>2016-01-23T13:47:34Z</time>
      </trkpt>
      <trkpt lat="43.55075" lon="6.00343">
        <ele>241.7</ele>
        <time>2016-01-23T13:47:35Z</time>
      </trkpt>
      <trkpt lat="43.55077" lon="6.00366">
        <ele>243.5</ele>
        <time>2016-01-23T13:47:36Z</time>
      </trkpt>
      <trkpt lat="43.55079" lon="6.00389">
        <ele>244.4</ele>
        <time>2016-01-23T13:47:37Z</time>
      </trkpt>
      <trkpt lat="43.55082" lon="6.00411">
        <ele>243.5</ele>
        <time>2016-01-23T13:47:38Z</time>
      </trkpt>
      <trkpt lat="43.55086" lon="6.00431">
        <ele>244.6</ele>
        <time>2016-01-23T13:47:39Z</time>
      </trkpt>
      <trkpt lat="43.55097" lon="6.00444">
        <ele>245</ele>
        <time>2016-01-23T13:47:40Z</time>
      </trkpt>
      <trkpt lat="43.55108" lon="6.00457">
        <ele>243.3</ele>
        <time>2016-01-23T13:47:41Z</time>
      </trkpt>
      <trkpt lat="43.55119" lon="6.00467">
        <ele>242.5</ele>
        <time>2016-01-23T13:47:42Z</time>
      </trkpt>
      <trkpt lat="43.55138" lon="6.00469">
        <ele>242.5</ele>
        <time>2016-01-23T13:47:43Z</time>
      </trkpt>
      <trkpt lat="43.55155" lon="6.00471">
        <ele>243.3</ele>
        <time>2016-01-23T13:47:44Z</time>
      </trkpt>
      <trkpt lat="43.55171" lon="6.00473">
        <ele>243.3</ele>
        <time>2016-01-23T13:47:45Z</time>
      </trkpt>
      <trkpt lat="43.55188" lon="6.00475">
        <ele>241.6</ele>
        <time>2016-01-23T13:47:46Z</time>
      </trkpt>
      <trkpt lat="43.55205" lon="6.00479">
        <ele>240.7</ele>
        <time>2016-01-23T13:47:47Z</time>
      </trkpt>
      <trkpt lat="43.55221" lon="6.00483">
        <ele>239.9</ele>
        <time>2016-01-23T13:47:48Z</time>
      </trkpt>
      <trkpt lat="43.55238" lon="6.0049">
        <ele>240.8</ele>
        <time>2016-01-23T13:47:49Z</time>
      </trkpt>
      <trkpt lat="43.55254" lon="6.00498">
        <ele>241.7</ele>
        <time>2016-01-23T13:47:50Z</time>
      </trkpt>
      <trkpt lat="43.55269" lon="6.00508">
        <ele>243.9</ele>
        <time>2016-01-23T13:47:51Z</time>
      </trkpt>
      <trkpt lat="43.55283" lon="6.0052">
        <ele>244.7</ele>
        <time>2016-01-23T13:47:52Z</time>
      </trkpt>
      <trkpt lat="43.55297" lon="6.00533">
        <ele>244.8</ele>
        <time>2016-01-23T13:47:53Z</time>
      </trkpt>
      <trkpt lat="43.55309" lon="6.00548">
        <ele>246.4</ele>
        <time>2016-01-23T13:47:54Z</time>
      </trkpt>
      <trkpt lat="43.55321" lon="6.00563">
        <ele>247.9</ele>
        <time>2016-01-23T13:47:55Z</time>
      </trkpt>
      <trkpt lat="43.55332" lon="6.00577">
        <ele>247.7</ele>
        <time>2016-01-23T13:47:56Z</time>
      </trkpt>
      <trkpt lat="43.55344" lon="6.0059">
        <ele>248.9</ele>
        <time>2016-01-23T13:47:57Z</time>
      </trkpt>
      <trkpt lat="43.55355" lon="6.00602">
        <ele>247.7</ele>
        <time>2016-01-23T13:47:58Z</time>
      </trkpt>
      <trkpt lat="43.55367" lon="6.00612">
        <ele>243.6</ele>
        <time>2016-01-23T13:47:59Z</time>
      </trkpt>
      <trkpt lat="43.5538" lon="6.00618">
        <ele>241.7</ele>
        <time>2016-01-23T13:48:00Z</time>
      </trkpt>
      <trkpt lat="43.554" lon="6.00614">
        <ele>244.6</ele>
        <time>2016-01-23T13:48:01Z</time>
      </trkpt>
      <trkpt lat="43.55416" lon="6.00617">
        <ele>245.9</ele>
        <time>2016-01-23T13:48:02Z</time>
      </trkpt>
      <trkpt lat="43.55432" lon="6.00622">
        <ele>247.2</ele>
        <time>2016-01-23T13:48:03Z</time>
      </trkpt>
      <trkpt lat="43.55448" lon="6.00626">
        <ele>248.9</ele>
        <time>2016-01-23T13:48:04Z</time>
      </trkpt>
      <trkpt lat="43.55463" lon="6.00631">
        <ele>250.8</ele>
        <time>2016-01-23T13:48:05Z</time>
      </trkpt>
      <trkpt lat="43.55478" lon="6.00635">
        <ele>251</ele>
        <time>2016-01-23T13:48:06Z</time>
      </trkpt>
      <trkpt lat="43.55492" lon="6.00636">
        <ele>250.1</ele>
        <time>2016-01-23T13:48:07Z</time>
      </trkpt>
      <trkpt lat="43.55506" lon="6.00635">
        <ele>249.1</ele>
        <time>2016-01-23T13:48:08Z</time>
      </trkpt>
      <trkpt lat="43.55517" lon="6.00629">
        <ele>248.6</ele>
        <time>2016-01-23T13:48:09Z</time>
      </trkpt>
      <trkpt lat="43.55528" lon="6.0062">
        <ele>248.4</ele>
        <time>2016-01-23T13:48:10Z</time>
      </trkpt>
      <trkpt lat="43.5554" lon="6.00607">
        <ele>250.4</ele>
        <time>2016-01-23T13:48:11Z</time>
      </trkpt>
      <trkpt lat="43.55551" lon="6.00592">
        <ele>252</ele>
        <time>2016-01-23T13:48:12Z</time>
      </trkpt>
      <trkpt lat="43.55563" lon="6.00577">
        <ele>250.3</ele>
        <time>2016-01-23T13:48:13Z</time>
      </trkpt>
      <trkpt lat="43.55575" lon="6.00561">
        <ele>249.4</ele>
        <time>2016-01-23T13:48:14Z</time>
      </trkpt>
      <trkpt lat="43.55586" lon="6.00546">
        <ele>249.9</ele>
        <time>2016-01-23T13:48:15Z</time>
      </trkpt>
      <trkpt lat="43.55596" lon="6.00532">
        <ele>248.9</ele>
        <time>2016-01-23T13:48:16Z</time>
      </trkpt>
      <trkpt lat="43.55607" lon="6.00519">
        <ele>249.5</ele>
        <time>2016-01-23T13:48:17Z</time>
      </trkpt>
      <trkpt lat="43.55618" lon="6.0051">
        <ele>251.7</ele>
        <time>2016-01-23T13:48:18Z</time>
      </trkpt>
      <trkpt lat="43.55629" lon="6.00506">
        <ele>253.7</ele>
        <time>2016-01-23T13:48:19Z</time>
      </trkpt>
      <trkpt lat="43.5564" lon="6.00505">
        <ele>254.6</ele>
        <time>2016-01-23T13:48:20Z</time>
      </trkpt>
      <trkpt lat="43.5565" lon="6.00506">
        <ele>254.5</ele>
        <time>2016-01-23T13:48:21Z</time>
      </trkpt>
      <trkpt lat="43.55659" lon="6.00508">
        <ele>254</ele>
        <time>2016-01-23T13:48:22Z</time>
      </trkpt>
      <trkpt lat="43.55669" lon="6.0051">
        <ele>253.7</ele>
        <time>2016-01-23T13:48:23Z</time>
      </trkpt>
      <trkpt lat="43.55679" lon="6.0051">
        <ele>253.1</ele>
        <time>2016-01-23T13:48:24Z</time>
      </trkpt>
      <trkpt lat="43.55689" lon="6.00507">
        <ele>252.8</ele>
        <time>2016-01-23T13:48:25Z</time>
      </trkpt>
      <trkpt lat="43.557" lon="6.00505">
        <ele>253.1</ele>
        <time>2016-01-23T13:48:26Z</time>
      </trkpt>
      <trkpt lat="43.5571" lon="6.00503">
        <ele>253.7</ele>
        <time>2016-01-23T13:48:27Z</time>
      </trkpt>
      <trkpt lat="43.55718" lon="6.00501">
        <ele>253.9</ele>
        <time>2016-01-23T13:48:28Z</time>
      </trkpt>
      <trkpt lat="43.55725" lon="6.005">
        <ele>254.2</ele>
        <time>2016-01-23T13:48:29Z</time>
      </trkpt>
      <trkpt lat="43.55732" lon="6.005">
        <ele>254.7</ele>
        <time>2016-01-23T13:48:30Z</time>
      </trkpt>
      <trkpt lat="43.55738" lon="6.00504">
        <ele>255.1</ele>
        <time>2016-01-23T13:48:31Z</time>
      </trkpt>
      <trkpt lat="43.55744" lon="6.00511">
        <ele>255.5</ele>
        <time>2016-01-23T13:48:32Z</time>
      </trkpt>
      <trkpt lat="43.55749" lon="6.00521">
        <ele>255.9</ele>
        <time>2016-01-23T13:48:33Z</time>
      </trkpt>
      <trkpt lat="43.55753" lon="6.00534">
        <ele>255.8</ele>
        <time>2016-01-23T13:48:34Z</time>
      </trkpt>
      <trkpt lat="43.55756" lon="6.00546">
        <ele>255.5</ele>
        <time>2016-01-23T13:48:35Z</time>
      </trkpt>
      <trkpt lat="43.55759" lon="6.00558">
        <ele>255.3</ele>
        <time>2016-01-23T13:48:36Z</time>
      </trkpt>
      <trkpt lat="43.55761" lon="6.00568">
        <ele>255.1</ele>
        <time>2016-01-23T13:48:37Z</time>
      </trkpt>
      <trkpt lat="43.55763" lon="6.00577">
        <ele>255</ele>
        <time>2016-01-23T13:48:38Z</time>
      </trkpt>
      <trkpt lat="43.55762" lon="6.00587">
        <ele>254.9</ele>
        <time>2016-01-23T13:48:39Z</time>
      </trkpt>
      <trkpt lat="43.55762" lon="6.00596">
        <ele>255.1</ele>
        <time>2016-01-23T13:48:40Z</time>
      </trkpt>
      <trkpt lat="43.55762" lon="6.00602">
        <ele>255.2</ele>
        <time>2016-01-23T13:48:41Z</time>
      </trkpt>
      <trkpt lat="43.55762" lon="6.00608">
        <ele>255.4</ele>
        <time>2016-01-23T13:48:42Z</time>
      </trkpt>
      <trkpt lat="43.5576" lon="6.00615">
        <ele>255.4</ele>
        <time>2016-01-23T13:48:43Z</time>
      </trkpt>
      <trkpt lat="43.5576" lon="6.00618">
        <ele>255.5</ele>
        <time>2016-01-23T13:48:44Z</time>
      </trkpt>
      <trkpt lat="43.5576" lon="6.00621">
        <ele>255.5</ele>
        <time>2016-01-23T13:48:45Z</time>
      </trkpt>
      <trkpt lat="43.55761" lon="6.00622">
        <ele>255.5</ele>
        <time>2016-01-23T13:48:46Z</time>
      </trkpt>
      <trkpt lat="43.55761" lon="6.00622">
        <ele>255.6</ele>
        <time>2016-01-23T13:48:47Z</time>
      </trkpt>
      <trkpt lat="43.55761" lon="6.00622">
        <ele>255.5</ele>
        <time>2016-01-23T13:48:48Z</time>
      </trkpt>
      <trkpt lat="43.55761" lon="6.00623">
        <ele>255.5</ele>
        <time>2016-01-23T13:48:49Z</time>
      </trkpt>
      <trkpt lat="43.55761" lon="6.00623">
        <ele>255.5</ele>
        <time>2016-01-23T13:48:50Z</time>
      </trkpt>
      <trkpt lat="43.55761" lon="6.00623">
        <ele>255.5</ele>
        <time>2016-01-23T13:48:51Z</time>
      </trkpt>
      <trkpt lat="43.55761" lon="6.00623">
        <ele>255.5</ele>
        <time>2016-01-23T13:48:52Z</time>
      </trkpt>
      <trkpt lat="43.55761" lon="6.00622">
        <ele>255.6</ele>
        <time>2016-01-23T13:48:53Z</time>
      </trkpt>
      <trkpt lat="43.55761" lon="6.00623">
        <ele>255.6</ele>
        <time>2016-01-23T13:48:54Z</time>
      </trkpt>
      <trkpt lat="43.55762" lon="6.00623">
        <ele>255.6</ele>
        <time>2016-01-23T13:48:55Z</time>
      </trkpt>
      <trkpt lat="43.55762" lon="6.00623">
        <ele>255.6</ele>
        <time>2016-01-23T13:48:56Z</time>
      </trkpt>
      <trkpt lat="43.55762" lon="6.00623">
        <ele>255.6</ele>
        <time>2016-01-23T13:48:57Z</time>
      </trkpt>
      <trkpt lat="43.55762" lon="6.00623">
        <ele>255.6</ele>
        <time>2016-01-23T13:48:58Z</time>
      </trkpt>
      <trkpt lat="43.55762" lon="6.00622">
        <ele>255.6</ele>
        <time>2016-01-23T13:48:59Z</time>
      </trkpt>
      <trkpt lat="43.55762" lon="6.00622">
        <ele>255.6</ele>
        <time>2016-01-23T13:49:00Z</time>
      </trkpt>
      <trkpt lat="43.55762" lon="6.00622">
        <ele>255.6</ele>
        <time>2016-01-23T13:49:01Z</time>
      </trkpt>
      <trkpt lat="43.55762" lon="6.00622">
        <ele>255.6</ele>
        <time>2016-01-23T13:49:02Z</time>
      </trkpt>
      <trkpt lat="43.55762" lon="6.00622">
        <ele>255.6</ele>
        <time>2016-01-23T13:49:03Z</time>
      </trkpt>
      <trkpt lat="43.55762" lon="6.00622">
        <ele>255.6</ele>
        <time>2016-01-23T13:49:04Z</time>
      </trkpt>
      <trkpt lat="43.55762" lon="6.00622">
        <ele>255.6</ele>
        <time>2016-01-23T13:49:05Z</time>
      </trkpt>
      <trkpt lat="43.55762" lon="6.00622">
        <ele>255.6</ele>
        <time>2016-01-23T13:49:06Z</time>
      </trkpt>
      <trkpt lat="43.55761" lon="6.00622">
        <ele>255.6</ele>
        <time>2016-01-23T13:49:07Z</time>
      </trkpt>
      <trkpt lat="43.55761" lon="6.00622">
        <ele>255.6</ele>
        <time>2016-01-23T13:49:08Z</time>
      </trkpt>
      <trkpt lat="43.55761" lon="6.00622">
        <ele>255.6</ele>
        <time>2016-01-23T13:49:09Z</time>
      </trkpt>
      <trkpt lat="43.55761" lon="6.00622">
        <ele>255.6</ele>
        <time>2016-01-23T13:49:10Z</time>
      </trkpt>
      <trkpt lat="43.55761" lon="6.00622">
        <ele>255.6</ele>
        <time>2016-01-23T13:49:11Z</time>
      </trkpt>
      <trkpt lat="43.55761" lon="6.00622">
        <ele>255.6</ele>
        <time>2016-01-23T13:49:12Z</time>
      </trkpt>
      <trkpt lat="43.55761" lon="6.00622">
        <ele>255.6</ele>
        <time>2016-01-23T13:49:13Z</time>
      </trkpt>
      <trkpt lat="43.55761" lon="6.00622">
        <ele>255.5</ele>
        <time>2016-01-23T13:49:14Z</time>
      </trkpt>
      <trkpt lat="43.55761" lon="6.00622">
        <ele>255.5</ele>
        <time>2016-01-23T13:49:15Z</time>
      </trkpt>
      <trkpt lat="43.55761" lon="6.00622">
        <ele>255.5</ele>
        <time>2016-01-23T13:49:16Z</time>
      </trkpt>
      <trkpt lat="43.5576" lon="6.00622">
        <ele>255.5</ele>
        <time>2016-01-23T13:49:17Z</time>
      </trkpt>
      <trkpt lat="43.5576" lon="6.00622">
        <ele>255.5</ele>
        <time>2016-01-23T13:49:18Z</time>
      </trkpt>
      <trkpt lat="43.5576" lon="6.00623">
        <ele>255.5</ele>
        <time>2016-01-23T13:49:19Z</time>
      </trkpt>
      <trkpt lat="43.5576" lon="6.00627">
        <ele>255.6</ele>
        <time>2016-01-23T13:49:20Z</time>
      </trkpt>
      <trkpt lat="43.5576" lon="6.00632">
        <ele>255.7</ele>
        <time>2016-01-23T13:49:21Z</time>
      </trkpt>
      <trkpt lat="43.5576" lon="6.00637">
        <ele>255.7</ele>
        <time>2016-01-23T13:49:22Z</time>
      </trkpt>
      <trkpt lat="43.55762" lon="6.00643">
        <ele>256</ele>
        <time>2016-01-23T13:49:23Z</time>
      </trkpt>
      <trkpt lat="43.55764" lon="6.00648">
        <ele>256.3</ele>
        <time>2016-01-23T13:49:24Z</time>
      </trkpt>
      <trkpt lat="43.55765" lon="6.00652">
        <ele>256.6</ele>
        <time>2016-01-23T13:49:25Z</time>
      </trkpt>
      <trkpt lat="43.55766" lon="6.00656">
        <ele>256.9</ele>
        <time>2016-01-23T13:49:26Z</time>
      </trkpt>
      <trkpt lat="43.55767" lon="6.0066">
        <ele>257.2</ele>
        <time>2016-01-23T13:49:27Z</time>
      </trkpt>
      <trkpt lat="43.55768" lon="6.00665">
        <ele>257.5</ele>
        <time>2016-01-23T13:49:28Z</time>
      </trkpt>
      <trkpt lat="43.55768" lon="6.00669">
        <ele>257.5</ele>
        <time>2016-01-23T13:49:29Z</time>
      </trkpt>
      <trkpt lat="43.55767" lon="6.00675">
        <ele>257.4</ele>
        <time>2016-01-23T13:49:30Z</time>
      </trkpt>
      <trkpt lat="43.55766" lon="6.0068">
        <ele>257.2</ele>
        <time>2016-01-23T13:49:31Z</time>
      </trkpt>
      <trkpt lat="43.55765" lon="6.00684">
        <ele>257.1</ele>
        <time>2016-01-23T13:49:32Z</time>
      </trkpt>
      <trkpt lat="43.55763" lon="6.00689">
        <ele>256.9</ele>
        <time>2016-01-23T13:49:33Z</time>
      </trkpt>
      <trkpt lat="43.55763" lon="6.00695">
        <ele>256.9</ele>
        <time>2016-01-23T13:49:34Z</time>
      </trkpt>
      <trkpt lat="43.55762" lon="6.00701">
        <ele>257</ele>
        <time>2016-01-23T13:49:35Z</time>
      </trkpt>
      <trkpt lat="43.55762" lon="6.00707">
        <ele>257.1</ele>
        <time>2016-01-23T13:49:36Z</time>
      </trkpt>
      <trkpt lat="43.55761" lon="6.00712">
        <ele>257</ele>
        <time>2016-01-23T13:49:37Z</time>
      </trkpt>
      <trkpt lat="43.5576" lon="6.00718">
        <ele>257</ele>
        <time>2016-01-23T13:49:38Z</time>
      </trkpt>
      <trkpt lat="43.55759" lon="6.00725">
        <ele>256.9</ele>
        <time>2016-01-23T13:49:39Z</time>
      </trkpt>
      <trkpt lat="43.55757" lon="6.00731">
        <ele>256.5</ele>
        <time>2016-01-23T13:49:40Z</time>
      </trkpt>
      <trkpt lat="43.55755" lon="6.00737">
        <ele>256.1</ele>
        <time>2016-01-23T13:49:41Z</time>
      </trkpt>
      <trkpt lat="43.55753" lon="6.00743">
        <ele>255.6</ele>
        <time>2016-01-23T13:49:42Z</time>
      </trkpt>
      <trkpt lat="43.55752" lon="6.00749">
        <ele>255.3</ele>
        <time>2016-01-23T13:49:43Z</time>
      </trkpt>
      <trkpt lat="43.55752" lon="6.00755">
        <ele>255.2</ele>
        <time>2016-01-23T13:49:44Z</time>
      </trkpt>
      <trkpt lat="43.5575" lon="6.00762">
        <ele>255</ele>
        <time>2016-01-23T13:49:45Z</time>
      </trkpt>
      <trkpt lat="43.55748" lon="6.00768">
        <ele>254.8</ele>
        <time>2016-01-23T13:49:46Z</time>
      </trkpt>
      <trkpt lat="43.55745" lon="6.00776">
        <ele>254.6</ele>
        <time>2016-01-23T13:49:47Z</time>
      </trkpt>
      <trkpt lat="43.55742" lon="6.00785">
        <ele>254.4</ele>
        <time>2016-01-23T13:49:48Z</time>
      </trkpt>
      <trkpt lat="43.55741" lon="6.00793">
        <ele>254.3</ele>
        <time>2016-01-23T13:49:49Z</time>
      </trkpt>
      <trkpt lat="43.55739" lon="6.00801">
        <ele>254.2</ele>
        <time>2016-01-23T13:49:50Z</time>
      </trkpt>
      <trkpt lat="43.55739" lon="6.00809">
        <ele>254.1</ele>
        <time>2016-01-23T13:49:51Z</time>
      </trkpt>
      <trkpt lat="43.55738" lon="6.00817">
        <ele>253.9</ele>
        <time>2016-01-23T13:49:52Z</time>
      </trkpt>
      <trkpt lat="43.55737" lon="6.00823">
        <ele>253.7</ele>
        <time>2016-01-23T13:49:53Z</time>
      </trkpt>
      <trkpt lat="43.55736" lon="6.0083">
        <ele>253.6</ele>
        <time>2016-01-23T13:49:54Z</time>
      </trkpt>
      <trkpt lat="43.55736" lon="6.00836">
        <ele>253.4</ele>
        <time>2016-01-23T13:49:55Z</time>
      </trkpt>
      <trkpt lat="43.55735" lon="6.00843">
        <ele>253.1</ele>
        <time>2016-01-23T13:49:56Z</time>
      </trkpt>
      <trkpt lat="43.55734" lon="6.00851">
        <ele>252.8</ele>
        <time>2016-01-23T13:49:57Z</time>
      </trkpt>
      <trkpt lat="43.55732" lon="6.00859">
        <ele>252.5</ele>
        <time>2016-01-23T13:49:58Z</time>
      </trkpt>
      <trkpt lat="43.5573" lon="6.00868">
        <ele>251.9</ele>
        <time>2016-01-23T13:49:59Z</time>
      </trkpt>
      <trkpt lat="43.55727" lon="6.00878">
        <ele>251.2</ele>
        <time>2016-01-23T13:50:00Z</time>
      </trkpt>
      <trkpt lat="43.55723" lon="6.00888">
        <ele>250.2</ele>
        <time>2016-01-23T13:50:01Z</time>
      </trkpt>
      <trkpt lat="43.5572" lon="6.00898">
        <ele>249.8</ele>
        <time>2016-01-23T13:50:02Z</time>
      </trkpt>
      <trkpt lat="43.55717" lon="6.0091">
        <ele>249.5</ele>
        <time>2016-01-23T13:50:03Z</time>
      </trkpt>
      <trkpt lat="43.55714" lon="6.00922">
        <ele>249.3</ele>
        <time>2016-01-23T13:50:04Z</time>
      </trkpt>
      <trkpt lat="43.55711" lon="6.00935">
        <ele>249.5</ele>
        <time>2016-01-23T13:50:05Z</time>
      </trkpt>
      <trkpt lat="43.55711" lon="6.00949">
        <ele>250</ele>
        <time>2016-01-23T13:50:06Z</time>
      </trkpt>
      <trkpt lat="43.55711" lon="6.00962">
        <ele>250.8</ele>
        <time>2016-01-23T13:50:07Z</time>
      </trkpt>
      <trkpt lat="43.55712" lon="6.00975">
        <ele>251.8</ele>
        <time>2016-01-23T13:50:08Z</time>
      </trkpt>
      <trkpt lat="43.55712" lon="6.00988">
        <ele>252.9</ele>
        <time>2016-01-23T13:50:09Z</time>
      </trkpt>
      <trkpt lat="43.55711" lon="6.01">
        <ele>253.8</ele>
        <time>2016-01-23T13:50:10Z</time>
      </trkpt>
      <trkpt lat="43.55709" lon="6.01012">
        <ele>254.2</ele>
        <time>2016-01-23T13:50:11Z</time>
      </trkpt>
      <trkpt lat="43.55707" lon="6.01023">
        <ele>254.5</ele>
        <time>2016-01-23T13:50:12Z</time>
      </trkpt>
      <trkpt lat="43.55705" lon="6.01034">
        <ele>256.8</ele>
        <time>2016-01-23T13:50:13Z</time>
      </trkpt>
      <trkpt lat="43.55699" lon="6.01043">
        <ele>259.3</ele>
        <time>2016-01-23T13:50:14Z</time>
      </trkpt>
      <trkpt lat="43.55694" lon="6.01053">
        <ele>261.9</ele>
        <time>2016-01-23T13:50:15Z</time>
      </trkpt>
      <trkpt lat="43.55685" lon="6.01058">
        <ele>261.3</ele>
        <time>2016-01-23T13:50:16Z</time>
      </trkpt>
      <trkpt lat="43.55678" lon="6.01064">
        <ele>262.5</ele>
        <time>2016-01-23T13:50:17Z</time>
      </trkpt>
      <trkpt lat="43.5567" lon="6.0107">
        <ele>263.2</ele>
        <time>2016-01-23T13:50:18Z</time>
      </trkpt>
      <trkpt lat="43.55664" lon="6.01074">
        <ele>263.7</ele>
        <time>2016-01-23T13:50:19Z</time>
      </trkpt>
      <trkpt lat="43.55656" lon="6.01077">
        <ele>265.1</ele>
        <time>2016-01-23T13:50:20Z</time>
      </trkpt>
      <trkpt lat="43.55645" lon="6.01077">
        <ele>264.7</ele>
        <time>2016-01-23T13:50:21Z</time>
      </trkpt>
      <trkpt lat="43.55628" lon="6.01076">
        <ele>261.2</ele>
        <time>2016-01-23T13:50:22Z</time>
      </trkpt>
      <trkpt lat="43.55618" lon="6.01077">
        <ele>259.4</ele>
        <time>2016-01-23T13:50:23Z</time>
      </trkpt>
      <trkpt lat="43.55608" lon="6.01078">
        <ele>259.3</ele>
        <time>2016-01-23T13:50:24Z</time>
      </trkpt>
      <trkpt lat="43.556" lon="6.01078">
        <ele>262.3</ele>
        <time>2016-01-23T13:50:25Z</time>
      </trkpt>
      <trkpt lat="43.55593" lon="6.01078">
        <ele>264.9</ele>
        <time>2016-01-23T13:50:26Z</time>
      </trkpt>
      <trkpt lat="43.55585" lon="6.01078">
        <ele>267.4</ele>
        <time>2016-01-23T13:50:27Z</time>
      </trkpt>
      <trkpt lat="43.55577" lon="6.01079">
        <ele>274.2</ele>
        <time>2016-01-23T13:50:28Z</time>
      </trkpt>
      <trkpt lat="43.5557" lon="6.0108">
        <ele>282.6</ele>
        <time>2016-01-23T13:50:29Z</time>
      </trkpt>
      <trkpt lat="43.55562" lon="6.01075">
        <ele>288.9</ele>
        <time>2016-01-23T13:50:30Z</time>
      </trkpt>
      <trkpt lat="43.55555" lon="6.01072">
        <ele>292.5</ele>
        <time>2016-01-23T13:50:31Z</time>
      </trkpt>
      <trkpt lat="43.55539" lon="6.01059">
        <ele>287.1</ele>
        <time>2016-01-23T13:50:32Z</time>
      </trkpt>
      <trkpt lat="43.55529" lon="6.01042">
        <ele>277.6</ele>
        <time>2016-01-23T13:50:33Z</time>
      </trkpt>
      <trkpt lat="43.55521" lon="6.01022">
        <ele>266.1</ele>
        <time>2016-01-23T13:50:34Z</time>
      </trkpt>
      <trkpt lat="43.55513" lon="6.01007">
        <ele>261.2</ele>
        <time>2016-01-23T13:50:35Z</time>
      </trkpt>
      <trkpt lat="43.55503" lon="6.00995">
        <ele>260.7</ele>
        <time>2016-01-23T13:50:36Z</time>
      </trkpt>
      <trkpt lat="43.55492" lon="6.00984">
        <ele>260.6</ele>
        <time>2016-01-23T13:50:37Z</time>
      </trkpt>
      <trkpt lat="43.55482" lon="6.00973">
        <ele>260.4</ele>
        <time>2016-01-23T13:50:38Z</time>
      </trkpt>
      <trkpt lat="43.55469" lon="6.00963">
        <ele>257.9</ele>
        <time>2016-01-23T13:50:39Z</time>
      </trkpt>
      <trkpt lat="43.55457" lon="6.00954">
        <ele>251.5</ele>
        <time>2016-01-23T13:50:40Z</time>
      </trkpt>
      <trkpt lat="43.55443" lon="6.00946">
        <ele>246.9</ele>
        <time>2016-01-23T13:50:41Z</time>
      </trkpt>
      <trkpt lat="43.5543" lon="6.0094">
        <ele>245</ele>
        <time>2016-01-23T13:50:42Z</time>
      </trkpt>
      <trkpt lat="43.55416" lon="6.00934">
        <ele>243.7</ele>
        <time>2016-01-23T13:50:43Z</time>
      </trkpt>
      <trkpt lat="43.55402" lon="6.0093">
        <ele>242.3</ele>
        <time>2016-01-23T13:50:44Z</time>
      </trkpt>
      <trkpt lat="43.55388" lon="6.00927">
        <ele>241.2</ele>
        <time>2016-01-23T13:50:45Z</time>
      </trkpt>
      <trkpt lat="43.55374" lon="6.00927">
        <ele>240.5</ele>
        <time>2016-01-23T13:50:46Z</time>
      </trkpt>
      <trkpt lat="43.55361" lon="6.00931">
        <ele>240.7</ele>
        <time>2016-01-23T13:50:47Z</time>
      </trkpt>
      <trkpt lat="43.55348" lon="6.00938">
        <ele>238.7</ele>
        <time>2016-01-23T13:50:48Z</time>
      </trkpt>
      <trkpt lat="43.55335" lon="6.00944">
        <ele>237</ele>
        <time>2016-01-23T13:50:49Z</time>
      </trkpt>
      <trkpt lat="43.55321" lon="6.00947">
        <ele>236</ele>
        <time>2016-01-23T13:50:50Z</time>
      </trkpt>
      <trkpt lat="43.55306" lon="6.00946">
        <ele>235</ele>
        <time>2016-01-23T13:50:51Z</time>
      </trkpt>
      <trkpt lat="43.55291" lon="6.00942">
        <ele>234.1</ele>
        <time>2016-01-23T13:50:52Z</time>
      </trkpt>
      <trkpt lat="43.55276" lon="6.00935">
        <ele>233.8</ele>
        <time>2016-01-23T13:50:53Z</time>
      </trkpt>
      <trkpt lat="43.55261" lon="6.00928">
        <ele>234</ele>
        <time>2016-01-23T13:50:54Z</time>
      </trkpt>
      <trkpt lat="43.55245" lon="6.00922">
        <ele>233.2</ele>
        <time>2016-01-23T13:50:55Z</time>
      </trkpt>
      <trkpt lat="43.55229" lon="6.00917">
        <ele>232</ele>
        <time>2016-01-23T13:50:56Z</time>
      </trkpt>
      <trkpt lat="43.55212" lon="6.00912">
        <ele>231.4</ele>
        <time>2016-01-23T13:50:57Z</time>
      </trkpt>
      <trkpt lat="43.55195" lon="6.00908">
        <ele>231.1</ele>
        <time>2016-01-23T13:50:58Z</time>
      </trkpt>
      <trkpt lat="43.55178" lon="6.00904">
        <ele>229.9</ele>
        <time>2016-01-23T13:50:59Z</time>
      </trkpt>
      <trkpt lat="43.55161" lon="6.009">
        <ele>228.5</ele>
        <time>2016-01-23T13:51:00Z</time>
      </trkpt>
      <trkpt lat="43.55145" lon="6.00894">
        <ele>227.9</ele>
        <time>2016-01-23T13:51:01Z</time>
      </trkpt>
      <trkpt lat="43.55129" lon="6.00889">
        <ele>226.5</ele>
        <time>2016-01-23T13:51:02Z</time>
      </trkpt>
      <trkpt lat="43.55113" lon="6.00884">
        <ele>224.6</ele>
        <time>2016-01-23T13:51:03Z</time>
      </trkpt>
      <trkpt lat="43.55099" lon="6.00882">
        <ele>223.6</ele>
        <time>2016-01-23T13:51:04Z</time>
      </trkpt>
      <trkpt lat="43.55084" lon="6.00883">
        <ele>222.9</ele>
        <time>2016-01-23T13:51:05Z</time>
      </trkpt>
      <trkpt lat="43.5507" lon="6.00886">
        <ele>221.8</ele>
        <time>2016-01-23T13:51:06Z</time>
      </trkpt>
      <trkpt lat="43.55056" lon="6.00891">
        <ele>220.4</ele>
        <time>2016-01-23T13:51:07Z</time>
      </trkpt>
      <trkpt lat="43.55042" lon="6.00898">
        <ele>219.7</ele>
        <time>2016-01-23T13:51:08Z</time>
      </trkpt>
      <trkpt lat="43.55028" lon="6.00905">
        <ele>218.8</ele>
        <time>2016-01-23T13:51:09Z</time>
      </trkpt>
      <trkpt lat="43.55013" lon="6.0091">
        <ele>218.4</ele>
        <time>2016-01-23T13:51:10Z</time>
      </trkpt>
      <trkpt lat="43.54998" lon="6.00914">
        <ele>217.6</ele>
        <time>2016-01-23T13:51:11Z</time>
      </trkpt>
      <trkpt lat="43.54984" lon="6.00918">
        <ele>217</ele>
        <time>2016-01-23T13:51:12Z</time>
      </trkpt>
      <trkpt lat="43.54971" lon="6.0092">
        <ele>216.5</ele>
        <time>2016-01-23T13:51:13Z</time>
      </trkpt>
      <trkpt lat="43.54958" lon="6.00922">
        <ele>216.7</ele>
        <time>2016-01-23T13:51:14Z</time>
      </trkpt>
      <trkpt lat="43.54944" lon="6.00921">
        <ele>216.6</ele>
        <time>2016-01-23T13:51:15Z</time>
      </trkpt>
      <trkpt lat="43.54931" lon="6.00917">
        <ele>217</ele>
        <time>2016-01-23T13:51:16Z</time>
      </trkpt>
      <trkpt lat="43.54921" lon="6.00908">
        <ele>216.9</ele>
        <time>2016-01-23T13:51:17Z</time>
      </trkpt>
      <trkpt lat="43.5491" lon="6.00899">
        <ele>216.5</ele>
        <time>2016-01-23T13:51:18Z</time>
      </trkpt>
      <trkpt lat="43.54898" lon="6.00892">
        <ele>216.6</ele>
        <time>2016-01-23T13:51:19Z</time>
      </trkpt>
      <trkpt lat="43.54885" lon="6.00888">
        <ele>216.8</ele>
        <time>2016-01-23T13:51:20Z</time>
      </trkpt>
      <trkpt lat="43.5487" lon="6.00887">
        <ele>216.1</ele>
        <time>2016-01-23T13:51:21Z</time>
      </trkpt>
      <trkpt lat="43.54855" lon="6.00887">
        <ele>216.4</ele>
        <time>2016-01-23T13:51:22Z</time>
      </trkpt>
      <trkpt lat="43.54842" lon="6.00885">
        <ele>217.3</ele>
        <time>2016-01-23T13:51:23Z</time>
      </trkpt>
      <trkpt lat="43.54829" lon="6.00878">
        <ele>217.5</ele>
        <time>2016-01-23T13:51:24Z</time>
      </trkpt>
      <trkpt lat="43.54817" lon="6.00869">
        <ele>218.5</ele>
        <time>2016-01-23T13:51:25Z</time>
      </trkpt>
      <trkpt lat="43.54805" lon="6.00858">
        <ele>219.4</ele>
        <time>2016-01-23T13:51:26Z</time>
      </trkpt>
      <trkpt lat="43.54794" lon="6.00847">
        <ele>219.3</ele>
        <time>2016-01-23T13:51:27Z</time>
      </trkpt>
      <trkpt lat="43.54783" lon="6.00837">
        <ele>218.9</ele>
        <time>2016-01-23T13:51:28Z</time>
      </trkpt>
      <trkpt lat="43.54773" lon="6.00827">
        <ele>219.3</ele>
        <time>2016-01-23T13:51:29Z</time>
      </trkpt>
      <trkpt lat="43.54763" lon="6.00819">
        <ele>219.1</ele>
        <time>2016-01-23T13:51:30Z</time>
      </trkpt>
      <trkpt lat="43.54753" lon="6.00811">
        <ele>217.9</ele>
        <time>2016-01-23T13:51:31Z</time>
      </trkpt>
      <trkpt lat="43.54742" lon="6.00805">
        <ele>215.6</ele>
        <time>2016-01-23T13:51:32Z</time>
      </trkpt>
      <trkpt lat="43.5473" lon="6.008">
        <ele>214.7</ele>
        <time>2016-01-23T13:51:33Z</time>
      </trkpt>
      <trkpt lat="43.54716" lon="6.00797">
        <ele>214.1</ele>
        <time>2016-01-23T13:51:34Z</time>
      </trkpt>
      <trkpt lat="43.547" lon="6.00797">
        <ele>213.5</ele>
        <time>2016-01-23T13:51:35Z</time>
      </trkpt>
      <trkpt lat="43.54684" lon="6.00796">
        <ele>213.3</ele>
        <time>2016-01-23T13:51:36Z</time>
      </trkpt>
      <trkpt lat="43.54669" lon="6.00795">
        <ele>213.3</ele>
        <time>2016-01-23T13:51:37Z</time>
      </trkpt>
      <trkpt lat="43.54654" lon="6.00794">
        <ele>213</ele>
        <time>2016-01-23T13:51:38Z</time>
      </trkpt>
      <trkpt lat="43.54639" lon="6.00792">
        <ele>212.6</ele>
        <time>2016-01-23T13:51:39Z</time>
      </trkpt>
      <trkpt lat="43.54625" lon="6.0079">
        <ele>213</ele>
        <time>2016-01-23T13:51:40Z</time>
      </trkpt>
      <trkpt lat="43.5461" lon="6.00787">
        <ele>213.4</ele>
        <time>2016-01-23T13:51:41Z</time>
      </trkpt>
      <trkpt lat="43.54595" lon="6.00782">
        <ele>212.8</ele>
        <time>2016-01-23T13:51:42Z</time>
      </trkpt>
      <trkpt lat="43.5458" lon="6.00775">
        <ele>212.5</ele>
        <time>2016-01-23T13:51:43Z</time>
      </trkpt>
      <trkpt lat="43.54565" lon="6.00765">
        <ele>213.5</ele>
        <time>2016-01-23T13:51:44Z</time>
      </trkpt>
      <trkpt lat="43.5455" lon="6.00755">
        <ele>212.4</ele>
        <time>2016-01-23T13:51:45Z</time>
      </trkpt>
      <trkpt lat="43.54534" lon="6.00746">
        <ele>212.2</ele>
        <time>2016-01-23T13:51:46Z</time>
      </trkpt>
      <trkpt lat="43.54519" lon="6.00738">
        <ele>211.7</ele>
        <time>2016-01-23T13:51:47Z</time>
      </trkpt>
      <trkpt lat="43.54503" lon="6.00733">
        <ele>211.1</ele>
        <time>2016-01-23T13:51:48Z</time>
      </trkpt>
      <trkpt lat="43.54486" lon="6.00736">
        <ele>211.8</ele>
        <time>2016-01-23T13:51:49Z</time>
      </trkpt>
      <trkpt lat="43.54467" lon="6.00741">
        <ele>211.9</ele>
        <time>2016-01-23T13:51:50Z</time>
      </trkpt>
      <trkpt lat="43.54445" lon="6.0075">
        <ele>209.1</ele>
        <time>2016-01-23T13:51:51Z</time>
      </trkpt>
      <trkpt lat="43.54423" lon="6.00763">
        <ele>211.2</ele>
        <time>2016-01-23T13:51:52Z</time>
      </trkpt>
      <trkpt lat="43.54402" lon="6.00775">
        <ele>211.8</ele>
        <time>2016-01-23T13:51:53Z</time>
      </trkpt>
      <trkpt lat="43.5438" lon="6.00788">
        <ele>213</ele>
        <time>2016-01-23T13:51:54Z</time>
      </trkpt>
      <trkpt lat="43.54361" lon="6.00801">
        <ele>215.9</ele>
        <time>2016-01-23T13:51:55Z</time>
      </trkpt>
      <trkpt lat="43.54342" lon="6.00813">
        <ele>217.5</ele>
        <time>2016-01-23T13:51:56Z</time>
      </trkpt>
      <trkpt lat="43.54324" lon="6.00822">
        <ele>218.6</ele>
        <time>2016-01-23T13:51:57Z</time>
      </trkpt>
      <trkpt lat="43.54306" lon="6.00825">
        <ele>219.8</ele>
        <time>2016-01-23T13:51:58Z</time>
      </trkpt>
      <trkpt lat="43.54289" lon="6.00826">
        <ele>220.8</ele>
        <time>2016-01-23T13:51:59Z</time>
      </trkpt>
      <trkpt lat="43.54274" lon="6.00827">
        <ele>221.1</ele>
        <time>2016-01-23T13:52:00Z</time>
      </trkpt>
      <trkpt lat="43.5426" lon="6.00828">
        <ele>219.9</ele>
        <time>2016-01-23T13:52:01Z</time>
      </trkpt>
      <trkpt lat="43.54248" lon="6.00831">
        <ele>219</ele>
        <time>2016-01-23T13:52:02Z</time>
      </trkpt>
      <trkpt lat="43.54236" lon="6.00836">
        <ele>217.6</ele>
        <time>2016-01-23T13:52:03Z</time>
      </trkpt>
      <trkpt lat="43.54225" lon="6.00844">
        <ele>217.2</ele>
        <time>2016-01-23T13:52:04Z</time>
      </trkpt>
      <trkpt lat="43.54215" lon="6.00855">
        <ele>216.5</ele>
        <time>2016-01-23T13:52:05Z</time>
      </trkpt>
      <trkpt lat="43.5421" lon="6.00869">
        <ele>215.6</ele>
        <time>2016-01-23T13:52:06Z</time>
      </trkpt>
      <trkpt lat="43.54208" lon="6.00888">
        <ele>215.8</ele>
        <time>2016-01-23T13:52:07Z</time>
      </trkpt>
      <trkpt lat="43.54208" lon="6.00907">
        <ele>215.5</ele>
        <time>2016-01-23T13:52:08Z</time>
      </trkpt>
      <trkpt lat="43.54206" lon="6.00925">
        <ele>215.3</ele>
        <time>2016-01-23T13:52:09Z</time>
      </trkpt>
      <trkpt lat="43.54202" lon="6.00944">
        <ele>214.4</ele>
        <time>2016-01-23T13:52:10Z</time>
      </trkpt>
      <trkpt lat="43.54195" lon="6.00964">
        <ele>216.7</ele>
        <time>2016-01-23T13:52:11Z</time>
      </trkpt>
      <trkpt lat="43.54187" lon="6.00985">
        <ele>218.4</ele>
        <time>2016-01-23T13:52:12Z</time>
      </trkpt>
      <trkpt lat="43.54177" lon="6.01008">
        <ele>218.8</ele>
        <time>2016-01-23T13:52:13Z</time>
      </trkpt>
      <trkpt lat="43.54168" lon="6.01027">
        <ele>220.3</ele>
        <time>2016-01-23T13:52:14Z</time>
      </trkpt>
      <trkpt lat="43.54158" lon="6.01045">
        <ele>221.8</ele>
        <time>2016-01-23T13:52:15Z</time>
      </trkpt>
      <trkpt lat="43.54148" lon="6.0106">
        <ele>222.5</ele>
        <time>2016-01-23T13:52:16Z</time>
      </trkpt>
      <trkpt lat="43.54137" lon="6.01074">
        <ele>220.7</ele>
        <time>2016-01-23T13:52:17Z</time>
      </trkpt>
      <trkpt lat="43.54125" lon="6.01085">
        <ele>221.4</ele>
        <time>2016-01-23T13:52:18Z</time>
      </trkpt>
      <trkpt lat="43.54112" lon="6.01096">
        <ele>223.1</ele>
        <time>2016-01-23T13:52:19Z</time>
      </trkpt>
      <trkpt lat="43.54098" lon="6.01107">
        <ele>223.6</ele>
        <time>2016-01-23T13:52:20Z</time>
      </trkpt>
      <trkpt lat="43.54084" lon="6.01119">
        <ele>222.5</ele>
        <time>2016-01-23T13:52:21Z</time>
      </trkpt>
      <trkpt lat="43.54071" lon="6.01133">
        <ele>222.6</ele>
        <time>2016-01-23T13:52:22Z</time>
      </trkpt>
      <trkpt lat="43.5406" lon="6.01149">
        <ele>221.8</ele>
        <time>2016-01-23T13:52:23Z</time>
      </trkpt>
      <trkpt lat="43.5405" lon="6.01166">
        <ele>221.5</ele>
        <time>2016-01-23T13:52:24Z</time>
      </trkpt>
      <trkpt lat="43.54039" lon="6.01181">
        <ele>223.3</ele>
        <time>2016-01-23T13:52:25Z</time>
      </trkpt>
      <trkpt lat="43.54029" lon="6.01195">
        <ele>220.7</ele>
        <time>2016-01-23T13:52:26Z</time>
      </trkpt>
      <trkpt lat="43.54017" lon="6.01209">
        <ele>222.4</ele>
        <time>2016-01-23T13:52:27Z</time>
      </trkpt>
      <trkpt lat="43.54005" lon="6.01222">
        <ele>220.8</ele>
        <time>2016-01-23T13:52:28Z</time>
      </trkpt>
      <trkpt lat="43.53992" lon="6.01235">
        <ele>218.2</ele>
        <time>2016-01-23T13:52:29Z</time>
      </trkpt>
      <trkpt lat="43.5398" lon="6.01247">
        <ele>217.9</ele>
        <time>2016-01-23T13:52:30Z</time>
      </trkpt>
      <trkpt lat="43.53967" lon="6.01256">
        <ele>218.5</ele>
        <time>2016-01-23T13:52:31Z</time>
      </trkpt>
      <trkpt lat="43.53953" lon="6.01261">
        <ele>219.4</ele>
        <time>2016-01-23T13:52:32Z</time>
      </trkpt>
      <trkpt lat="43.53937" lon="6.01261">
        <ele>220</ele>
        <time>2016-01-23T13:52:33Z</time>
      </trkpt>
      <trkpt lat="43.53921" lon="6.01259">
        <ele>220.2</ele>
        <time>2016-01-23T13:52:34Z</time>
      </trkpt>
      <trkpt lat="43.53905" lon="6.01253">
        <ele>220.7</ele>
        <time>2016-01-23T13:52:35Z</time>
      </trkpt>
      <trkpt lat="43.53888" lon="6.01247">
        <ele>220.8</ele>
        <time>2016-01-23T13:52:36Z</time>
      </trkpt>
      <trkpt lat="43.5387" lon="6.01239">
        <ele>221.4</ele>
        <time>2016-01-23T13:52:37Z</time>
      </trkpt>
      <trkpt lat="43.53852" lon="6.01228">
        <ele>220.3</ele>
        <time>2016-01-23T13:52:38Z</time>
      </trkpt>
      <trkpt lat="43.53828" lon="6.0121">
        <ele>218.5</ele>
        <time>2016-01-23T13:52:39Z</time>
      </trkpt>
      <trkpt lat="43.53804" lon="6.01191">
        <ele>216.9</ele>
        <time>2016-01-23T13:52:40Z</time>
      </trkpt>
      <trkpt lat="43.53781" lon="6.0117">
        <ele>216.9</ele>
        <time>2016-01-23T13:52:41Z</time>
      </trkpt>
      <trkpt lat="43.53759" lon="6.0115">
        <ele>216.4</ele>
        <time>2016-01-23T13:52:42Z</time>
      </trkpt>
      <trkpt lat="43.53738" lon="6.01131">
        <ele>218</ele>
        <time>2016-01-23T13:52:43Z</time>
      </trkpt>
      <trkpt lat="43.53718" lon="6.01113">
        <ele>217.1</ele>
        <time>2016-01-23T13:52:44Z</time>
      </trkpt>
      <trkpt lat="43.53701" lon="6.01098">
        <ele>217.5</ele>
        <time>2016-01-23T13:52:45Z</time>
      </trkpt>
      <trkpt lat="43.53684" lon="6.01084">
        <ele>214.9</ele>
        <time>2016-01-23T13:52:46Z</time>
      </trkpt>
      <trkpt lat="43.53666" lon="6.01077">
        <ele>214.2</ele>
        <time>2016-01-23T13:52:47Z</time>
      </trkpt>
      <trkpt lat="43.53646" lon="6.01071">
        <ele>214.5</ele>
        <time>2016-01-23T13:52:48Z</time>
      </trkpt>
      <trkpt lat="43.53625" lon="6.01065">
        <ele>211.8</ele>
        <time>2016-01-23T13:52:49Z</time>
      </trkpt>
      <trkpt lat="43.53603" lon="6.0106">
        <ele>206.7</ele>
        <time>2016-01-23T13:52:50Z</time>
      </trkpt>
      <trkpt lat="43.53582" lon="6.01055">
        <ele>204.4</ele>
        <time>2016-01-23T13:52:51Z</time>
      </trkpt>
      <trkpt lat="43.53561" lon="6.01052">
        <ele>210</ele>
        <time>2016-01-23T13:52:52Z</time>
      </trkpt>
      <trkpt lat="43.5354" lon="6.0105">
        <ele>211.4</ele>
        <time>2016-01-23T13:52:53Z</time>
      </trkpt>
      <trkpt lat="43.5352" lon="6.0105">
        <ele>211.3</ele>
        <time>2016-01-23T13:52:54Z</time>
      </trkpt>
      <trkpt lat="43.53501" lon="6.0105">
        <ele>211.2</ele>
        <time>2016-01-23T13:52:55Z</time>
      </trkpt>
      <trkpt lat="43.53482" lon="6.01048">
        <ele>210.6</ele>
        <time>2016-01-23T13:52:56Z</time>
      </trkpt>
      <trkpt lat="43.53463" lon="6.01044">
        <ele>209.8</ele>
        <time>2016-01-23T13:52:57Z</time>
      </trkpt>
      <trkpt lat="43.53444" lon="6.01037">
        <ele>208</ele>
        <time>2016-01-23T13:52:58Z</time>
      </trkpt>
      <trkpt lat="43.53424" lon="6.01031">
        <ele>206.6</ele>
        <time>2016-01-23T13:52:59Z</time>
      </trkpt>
      <trkpt lat="43.53404" lon="6.01027">
        <ele>203.8</ele>
        <time>2016-01-23T13:53:00Z</time>
      </trkpt>
      <trkpt lat="43.53385" lon="6.01027">
        <ele>201.3</ele>
        <time>2016-01-23T13:53:01Z</time>
      </trkpt>
      <trkpt lat="43.53366" lon="6.01028">
        <ele>201.8</ele>
        <time>2016-01-23T13:53:02Z</time>
      </trkpt>
      <trkpt lat="43.53348" lon="6.01029">
        <ele>203.1</ele>
        <time>2016-01-23T13:53:03Z</time>
      </trkpt>
      <trkpt lat="43.53331" lon="6.01029">
        <ele>205</ele>
        <time>2016-01-23T13:53:04Z</time>
      </trkpt>
      <trkpt lat="43.53315" lon="6.01022">
        <ele>208.5</ele>
        <time>2016-01-23T13:53:05Z</time>
      </trkpt>
      <trkpt lat="43.53299" lon="6.01013">
        <ele>209.2</ele>
        <time>2016-01-23T13:53:06Z</time>
      </trkpt>
      <trkpt lat="43.53283" lon="6.01001">
        <ele>208.3</ele>
        <time>2016-01-23T13:53:07Z</time>
      </trkpt>
      <trkpt lat="43.53267" lon="6.00987">
        <ele>206.1</ele>
        <time>2016-01-23T13:53:08Z</time>
      </trkpt>
      <trkpt lat="43.53253" lon="6.00974">
        <ele>204.1</ele>
        <time>2016-01-23T13:53:09Z</time>
      </trkpt>
      <trkpt lat="43.53239" lon="6.00964">
        <ele>203.6</ele>
        <time>2016-01-23T13:53:10Z</time>
      </trkpt>
      <trkpt lat="43.53224" lon="6.0096">
        <ele>203.1</ele>
        <time>2016-01-23T13:53:11Z</time>
      </trkpt>
      <trkpt lat="43.53208" lon="6.00963">
        <ele>202.3</ele>
        <time>2016-01-23T13:53:12Z</time>
      </trkpt>
      <trkpt lat="43.53192" lon="6.00973">
        <ele>202</ele>
        <time>2016-01-23T13:53:13Z</time>
      </trkpt>
      <trkpt lat="43.53175" lon="6.00988">
        <ele>202.9</ele>
        <time>2016-01-23T13:53:14Z</time>
      </trkpt>
      <trkpt lat="43.53157" lon="6.01008">
        <ele>202.9</ele>
        <time>2016-01-23T13:53:15Z</time>
      </trkpt>
      <trkpt lat="43.53139" lon="6.01031">
        <ele>203.1</ele>
        <time>2016-01-23T13:53:16Z</time>
      </trkpt>
      <trkpt lat="43.5312" lon="6.01057">
        <ele>202.8</ele>
        <time>2016-01-23T13:53:17Z</time>
      </trkpt>
      <trkpt lat="43.53101" lon="6.01084">
        <ele>203.3</ele>
        <time>2016-01-23T13:53:18Z</time>
      </trkpt>
      <trkpt lat="43.53081" lon="6.01111">
        <ele>202.9</ele>
        <time>2016-01-23T13:53:19Z</time>
      </trkpt>
      <trkpt lat="43.53059" lon="6.01139">
        <ele>203.3</ele>
        <time>2016-01-23T13:53:20Z</time>
      </trkpt>
      <trkpt lat="43.53039" lon="6.01167">
        <ele>204.8</ele>
        <time>2016-01-23T13:53:21Z</time>
      </trkpt>
      <trkpt lat="43.53018" lon="6.01193">
        <ele>205.2</ele>
        <time>2016-01-23T13:53:22Z</time>
      </trkpt>
      <trkpt lat="43.52999" lon="6.01218">
        <ele>205.6</ele>
        <time>2016-01-23T13:53:23Z</time>
      </trkpt>
      <trkpt lat="43.5298" lon="6.01241">
        <ele>206.1</ele>
        <time>2016-01-23T13:53:24Z</time>
      </trkpt>
      <trkpt lat="43.52963" lon="6.01263">
        <ele>208.2</ele>
        <time>2016-01-23T13:53:25Z</time>
      </trkpt>
      <trkpt lat="43.52947" lon="6.01283">
        <ele>211.1</ele>
        <time>2016-01-23T13:53:26Z</time>
      </trkpt>
      <trkpt lat="43.52933" lon="6.01303">
        <ele>207.9</ele>
        <time>2016-01-23T13:53:27Z</time>
      </trkpt>
      <trkpt lat="43.52919" lon="6.01323">
        <ele>207.1</ele>
        <time>2016-01-23T13:53:28Z</time>
      </trkpt>
      <trkpt lat="43.52908" lon="6.01345">
        <ele>206.2</ele>
        <time>2016-01-23T13:53:29Z</time>
      </trkpt>
      <trkpt lat="43.52899" lon="6.01368">
        <ele>205.7</ele>
        <time>2016-01-23T13:53:30Z</time>
      </trkpt>
      <trkpt lat="43.52888" lon="6.01388">
        <ele>205</ele>
        <time>2016-01-23T13:53:31Z</time>
      </trkpt>
      <trkpt lat="43.52875" lon="6.01405">
        <ele>206</ele>
        <time>2016-01-23T13:53:32Z</time>
      </trkpt>
      <trkpt lat="43.52859" lon="6.01419">
        <ele>206.1</ele>
        <time>2016-01-23T13:53:33Z</time>
      </trkpt>
      <trkpt lat="43.52842" lon="6.01431">
        <ele>206.5</ele>
        <time>2016-01-23T13:53:34Z</time>
      </trkpt>
      <trkpt lat="43.52824" lon="6.01442">
        <ele>206.3</ele>
        <time>2016-01-23T13:53:35Z</time>
      </trkpt>
      <trkpt lat="43.52805" lon="6.01455">
        <ele>205.5</ele>
        <time>2016-01-23T13:53:36Z</time>
      </trkpt>
      <trkpt lat="43.52787" lon="6.01471">
        <ele>205.2</ele>
        <time>2016-01-23T13:53:37Z</time>
      </trkpt>
      <trkpt lat="43.5277" lon="6.0149">
        <ele>204</ele>
        <time>2016-01-23T13:53:38Z</time>
      </trkpt>
      <trkpt lat="43.52754" lon="6.01511">
        <ele>203.3</ele>
        <time>2016-01-23T13:53:39Z</time>
      </trkpt>
      <trkpt lat="43.52737" lon="6.0153">
        <ele>202.9</ele>
        <time>2016-01-23T13:53:40Z</time>
      </trkpt>
      <trkpt lat="43.52719" lon="6.01546">
        <ele>203</ele>
        <time>2016-01-23T13:53:41Z</time>
      </trkpt>
      <trkpt lat="43.52701" lon="6.01561">
        <ele>202.8</ele>
        <time>2016-01-23T13:53:42Z</time>
      </trkpt>
      <trkpt lat="43.52683" lon="6.01574">
        <ele>203</ele>
        <time>2016-01-23T13:53:43Z</time>
      </trkpt>
      <trkpt lat="43.52666" lon="6.01584">
        <ele>203.1</ele>
        <time>2016-01-23T13:53:44Z</time>
      </trkpt>
      <trkpt lat="43.52647" lon="6.01591">
        <ele>204</ele>
        <time>2016-01-23T13:53:45Z</time>
      </trkpt>
      <trkpt lat="43.52628" lon="6.01595">
        <ele>204.1</ele>
        <time>2016-01-23T13:53:46Z</time>
      </trkpt>
      <trkpt lat="43.52605" lon="6.01594">
        <ele>202.5</ele>
        <time>2016-01-23T13:53:47Z</time>
      </trkpt>
      <trkpt lat="43.52583" lon="6.01593">
        <ele>201.1</ele>
        <time>2016-01-23T13:53:48Z</time>
      </trkpt>
      <trkpt lat="43.52562" lon="6.0159">
        <ele>201.7</ele>
        <time>2016-01-23T13:53:49Z</time>
      </trkpt>
      <trkpt lat="43.52542" lon="6.01589">
        <ele>201</ele>
        <time>2016-01-23T13:53:50Z</time>
      </trkpt>
      <trkpt lat="43.52521" lon="6.01591">
        <ele>200.3</ele>
        <time>2016-01-23T13:53:51Z</time>
      </trkpt>
      <trkpt lat="43.52504" lon="6.016">
        <ele>198.9</ele>
        <time>2016-01-23T13:53:52Z</time>
      </trkpt>
      <trkpt lat="43.52484" lon="6.01609">
        <ele>198.3</ele>
        <time>2016-01-23T13:53:53Z</time>
      </trkpt>
      <trkpt lat="43.52465" lon="6.01618">
        <ele>197.8</ele>
        <time>2016-01-23T13:53:54Z</time>
      </trkpt>
      <trkpt lat="43.52446" lon="6.01626">
        <ele>197.1</ele>
        <time>2016-01-23T13:53:55Z</time>
      </trkpt>
      <trkpt lat="43.52427" lon="6.01632">
        <ele>197.4</ele>
        <time>2016-01-23T13:53:56Z</time>
      </trkpt>
      <trkpt lat="43.52409" lon="6.01634">
        <ele>198.4</ele>
        <time>2016-01-23T13:53:57Z</time>
      </trkpt>
      <trkpt lat="43.52391" lon="6.0163">
        <ele>199.9</ele>
        <time>2016-01-23T13:53:58Z</time>
      </trkpt>
      <trkpt lat="43.52373" lon="6.0162">
        <ele>200</ele>
        <time>2016-01-23T13:53:59Z</time>
      </trkpt>
      <trkpt lat="43.52354" lon="6.01608">
        <ele>199.3</ele>
        <time>2016-01-23T13:54:00Z</time>
      </trkpt>
      <trkpt lat="43.52334" lon="6.01592">
        <ele>199.1</ele>
        <time>2016-01-23T13:54:01Z</time>
      </trkpt>
      <trkpt lat="43.52314" lon="6.01577">
        <ele>196.8</ele>
        <time>2016-01-23T13:54:02Z</time>
      </trkpt>
      <trkpt lat="43.52294" lon="6.01561">
        <ele>195.7</ele>
        <time>2016-01-23T13:54:03Z</time>
      </trkpt>
      <trkpt lat="43.52274" lon="6.01547">
        <ele>194.5</ele>
        <time>2016-01-23T13:54:04Z</time>
      </trkpt>
      <trkpt lat="43.52254" lon="6.01535">
        <ele>194.1</ele>
        <time>2016-01-23T13:54:05Z</time>
      </trkpt>
      <trkpt lat="43.52232" lon="6.01526">
        <ele>191.3</ele>
        <time>2016-01-23T13:54:06Z</time>
      </trkpt>
      <trkpt lat="43.52208" lon="6.01519">
        <ele>190.7</ele>
        <time>2016-01-23T13:54:07Z</time>
      </trkpt>
      <trkpt lat="43.52183" lon="6.01514">
        <ele>190.2</ele>
        <time>2016-01-23T13:54:08Z</time>
      </trkpt>
      <trkpt lat="43.52159" lon="6.0151">
        <ele>190.3</ele>
        <time>2016-01-23T13:54:09Z</time>
      </trkpt>
      <trkpt lat="43.52137" lon="6.01506">
        <ele>190</ele>
        <time>2016-01-23T13:54:10Z</time>
      </trkpt>
      <trkpt lat="43.52117" lon="6.01503">
        <ele>190</ele>
        <time>2016-01-23T13:54:11Z</time>
      </trkpt>
      <trkpt lat="43.52098" lon="6.01501">
        <ele>190</ele>
        <time>2016-01-23T13:54:12Z</time>
      </trkpt>
      <trkpt lat="43.5208" lon="6.01503">
        <ele>189.9</ele>
        <time>2016-01-23T13:54:13Z</time>
      </trkpt>
      <trkpt lat="43.52061" lon="6.01507">
        <ele>189.4</ele>
        <time>2016-01-23T13:54:14Z</time>
      </trkpt>
      <trkpt lat="43.52041" lon="6.01515">
        <ele>189.5</ele>
        <time>2016-01-23T13:54:15Z</time>
      </trkpt>
      <trkpt lat="43.5202" lon="6.01525">
        <ele>189.7</ele>
        <time>2016-01-23T13:54:16Z</time>
      </trkpt>
      <trkpt lat="43.51999" lon="6.01537">
        <ele>189.3</ele>
        <time>2016-01-23T13:54:17Z</time>
      </trkpt>
      <trkpt lat="43.51979" lon="6.01549">
        <ele>189.8</ele>
        <time>2016-01-23T13:54:18Z</time>
      </trkpt>
      <trkpt lat="43.5196" lon="6.01561">
        <ele>189</ele>
        <time>2016-01-23T13:54:19Z</time>
      </trkpt>
      <trkpt lat="43.51942" lon="6.01571">
        <ele>188.7</ele>
        <time>2016-01-23T13:54:20Z</time>
      </trkpt>
      <trkpt lat="43.51925" lon="6.01581">
        <ele>189.2</ele>
        <time>2016-01-23T13:54:21Z</time>
      </trkpt>
      <trkpt lat="43.51912" lon="6.01585">
        <ele>190.5</ele>
        <time>2016-01-23T13:54:22Z</time>
      </trkpt>
      <trkpt lat="43.519" lon="6.01586">
        <ele>193.7</ele>
        <time>2016-01-23T13:54:23Z</time>
      </trkpt>
      <trkpt lat="43.5189" lon="6.0158">
        <ele>194.9</ele>
        <time>2016-01-23T13:54:24Z</time>
      </trkpt>
      <trkpt lat="43.51883" lon="6.01569">
        <ele>194.1</ele>
        <time>2016-01-23T13:54:25Z</time>
      </trkpt>
      <trkpt lat="43.51876" lon="6.01556">
        <ele>193.8</ele>
        <time>2016-01-23T13:54:26Z</time>
      </trkpt>
      <trkpt lat="43.51867" lon="6.01543">
        <ele>193.8</ele>
        <time>2016-01-23T13:54:27Z</time>
      </trkpt>
      <trkpt lat="43.51858" lon="6.01533">
        <ele>192.4</ele>
        <time>2016-01-23T13:54:28Z</time>
      </trkpt>
      <trkpt lat="43.51846" lon="6.01528">
        <ele>191.1</ele>
        <time>2016-01-23T13:54:29Z</time>
      </trkpt>
      <trkpt lat="43.51832" lon="6.01529">
        <ele>190.9</ele>
        <time>2016-01-23T13:54:30Z</time>
      </trkpt>
      <trkpt lat="43.51817" lon="6.01534">
        <ele>189.5</ele>
        <time>2016-01-23T13:54:31Z</time>
      </trkpt>
      <trkpt lat="43.518" lon="6.01545">
        <ele>188.4</ele>
        <time>2016-01-23T13:54:32Z</time>
      </trkpt>
      <trkpt lat="43.51784" lon="6.01556">
        <ele>187.7</ele>
        <time>2016-01-23T13:54:33Z</time>
      </trkpt>
      <trkpt lat="43.51768" lon="6.01569">
        <ele>187.6</ele>
        <time>2016-01-23T13:54:34Z</time>
      </trkpt>
      <trkpt lat="43.51754" lon="6.01586">
        <ele>188.2</ele>
        <time>2016-01-23T13:54:35Z</time>
      </trkpt>
      <trkpt lat="43.5174" lon="6.01605">
        <ele>187.3</ele>
        <time>2016-01-23T13:54:36Z</time>
      </trkpt>
      <trkpt lat="43.51731" lon="6.01629">
        <ele>187.5</ele>
        <time>2016-01-23T13:54:37Z</time>
      </trkpt>
      <trkpt lat="43.51723" lon="6.01654">
        <ele>186.3</ele>
        <time>2016-01-23T13:54:38Z</time>
      </trkpt>
      <trkpt lat="43.51717" lon="6.0168">
        <ele>186</ele>
        <time>2016-01-23T13:54:39Z</time>
      </trkpt>
      <trkpt lat="43.51711" lon="6.01704">
        <ele>186</ele>
        <time>2016-01-23T13:54:40Z</time>
      </trkpt>
      <trkpt lat="43.51704" lon="6.01727">
        <ele>186</ele>
        <time>2016-01-23T13:54:41Z</time>
      </trkpt>
      <trkpt lat="43.51694" lon="6.01748">
        <ele>186</ele>
        <time>2016-01-23T13:54:42Z</time>
      </trkpt>
      <trkpt lat="43.51683" lon="6.01767">
        <ele>186</ele>
        <time>2016-01-23T13:54:43Z</time>
      </trkpt>
      <trkpt lat="43.51668" lon="6.01783">
        <ele>186</ele>
        <time>2016-01-23T13:54:44Z</time>
      </trkpt>
      <trkpt lat="43.5165" lon="6.01797">
        <ele>185.6</ele>
        <time>2016-01-23T13:54:45Z</time>
      </trkpt>
      <trkpt lat="43.5163" lon="6.0181">
        <ele>185</ele>
        <time>2016-01-23T13:54:46Z</time>
      </trkpt>
      <trkpt lat="43.51608" lon="6.01823">
        <ele>185</ele>
        <time>2016-01-23T13:54:47Z</time>
      </trkpt>
      <trkpt lat="43.51585" lon="6.01836">
        <ele>185</ele>
        <time>2016-01-23T13:54:48Z</time>
      </trkpt>
      <trkpt lat="43.51562" lon="6.01849">
        <ele>185</ele>
        <time>2016-01-23T13:54:49Z</time>
      </trkpt>
      <trkpt lat="43.5154" lon="6.01861">
        <ele>185</ele>
        <time>2016-01-23T13:54:50Z</time>
      </trkpt>
      <trkpt lat="43.51519" lon="6.01873">
        <ele>185</ele>
        <time>2016-01-23T13:54:51Z</time>
      </trkpt>
      <trkpt lat="43.515" lon="6.01883">
        <ele>185</ele>
        <time>2016-01-23T13:54:52Z</time>
      </trkpt>
      <trkpt lat="43.51483" lon="6.01892">
        <ele>185.1</ele>
        <time>2016-01-23T13:54:53Z</time>
      </trkpt>
      <trkpt lat="43.51466" lon="6.01899">
        <ele>185.5</ele>
        <time>2016-01-23T13:54:54Z</time>
      </trkpt>
      <trkpt lat="43.51449" lon="6.01903">
        <ele>185.9</ele>
        <time>2016-01-23T13:54:55Z</time>
      </trkpt>
      <trkpt lat="43.51431" lon="6.01904">
        <ele>186.1</ele>
        <time>2016-01-23T13:54:56Z</time>
      </trkpt>
      <trkpt lat="43.51413" lon="6.01901">
        <ele>185.8</ele>
        <time>2016-01-23T13:54:57Z</time>
      </trkpt>
      <trkpt lat="43.51394" lon="6.01897">
        <ele>185.3</ele>
        <time>2016-01-23T13:54:58Z</time>
      </trkpt>
      <trkpt lat="43.51376" lon="6.01892">
        <ele>185.8</ele>
        <time>2016-01-23T13:54:59Z</time>
      </trkpt>
      <trkpt lat="43.51359" lon="6.01886">
        <ele>186.2</ele>
        <time>2016-01-23T13:55:00Z</time>
      </trkpt>
      <trkpt lat="43.51344" lon="6.01881">
        <ele>188.1</ele>
        <time>2016-01-23T13:55:01Z</time>
      </trkpt>
      <trkpt lat="43.51327" lon="6.01877">
        <ele>188</ele>
        <time>2016-01-23T13:55:02Z</time>
      </trkpt>
      <trkpt lat="43.51311" lon="6.01877">
        <ele>186</ele>
        <time>2016-01-23T13:55:03Z</time>
      </trkpt>
      <trkpt lat="43.51294" lon="6.01879">
        <ele>185.9</ele>
        <time>2016-01-23T13:55:04Z</time>
      </trkpt>
      <trkpt lat="43.51278" lon="6.0188">
        <ele>186.1</ele>
        <time>2016-01-23T13:55:05Z</time>
      </trkpt>
      <trkpt lat="43.51261" lon="6.0188">
        <ele>187</ele>
        <time>2016-01-23T13:55:06Z</time>
      </trkpt>
      <trkpt lat="43.51245" lon="6.01875">
        <ele>186.9</ele>
        <time>2016-01-23T13:55:07Z</time>
      </trkpt>
      <trkpt lat="43.51228" lon="6.01868">
        <ele>186.9</ele>
        <time>2016-01-23T13:55:08Z</time>
      </trkpt>
      <trkpt lat="43.51211" lon="6.01856">
        <ele>189.2</ele>
        <time>2016-01-23T13:55:09Z</time>
      </trkpt>
      <trkpt lat="43.51196" lon="6.01839">
        <ele>188.6</ele>
        <time>2016-01-23T13:55:10Z</time>
      </trkpt>
      <trkpt lat="43.5118" lon="6.01822">
        <ele>191.3</ele>
        <time>2016-01-23T13:55:11Z</time>
      </trkpt>
      <trkpt lat="43.51165" lon="6.01804">
        <ele>191.2</ele>
        <time>2016-01-23T13:55:12Z</time>
      </trkpt>
      <trkpt lat="43.51152" lon="6.01786">
        <ele>190.1</ele>
        <time>2016-01-23T13:55:13Z</time>
      </trkpt>
      <trkpt lat="43.51139" lon="6.01771">
        <ele>188.2</ele>
        <time>2016-01-23T13:55:14Z</time>
      </trkpt>
      <trkpt lat="43.51127" lon="6.0176">
        <ele>186.1</ele>
        <time>2016-01-23T13:55:15Z</time>
      </trkpt>
      <trkpt lat="43.51114" lon="6.01753">
        <ele>184</ele>
        <time>2016-01-23T13:55:16Z</time>
      </trkpt>
      <trkpt lat="43.51099" lon="6.0175">
        <ele>183.1</ele>
        <time>2016-01-23T13:55:17Z</time>
      </trkpt>
      <trkpt lat="43.51082" lon="6.01753">
        <ele>183.1</ele>
        <time>2016-01-23T13:55:18Z</time>
      </trkpt>
      <trkpt lat="43.51064" lon="6.0176">
        <ele>183</ele>
        <time>2016-01-23T13:55:19Z</time>
      </trkpt>
      <trkpt lat="43.51046" lon="6.0177">
        <ele>183</ele>
        <time>2016-01-23T13:55:20Z</time>
      </trkpt>
      <trkpt lat="43.51029" lon="6.01783">
        <ele>182.4</ele>
        <time>2016-01-23T13:55:21Z</time>
      </trkpt>
      <trkpt lat="43.51013" lon="6.01798">
        <ele>182.3</ele>
        <time>2016-01-23T13:55:22Z</time>
      </trkpt>
      <trkpt lat="43.50996" lon="6.01811">
        <ele>182.2</ele>
        <time>2016-01-23T13:55:23Z</time>
      </trkpt>
      <trkpt lat="43.50979" lon="6.01821">
        <ele>182.5</ele>
        <time>2016-01-23T13:55:24Z</time>
      </trkpt>
      <trkpt lat="43.50961" lon="6.01828">
        <ele>182.7</ele>
        <time>2016-01-23T13:55:25Z</time>
      </trkpt>
      <trkpt lat="43.50943" lon="6.01831">
        <ele>182.9</ele>
        <time>2016-01-23T13:55:26Z</time>
      </trkpt>
      <trkpt lat="43.50924" lon="6.0183">
        <ele>182.8</ele>
        <time>2016-01-23T13:55:27Z</time>
      </trkpt>
      <trkpt lat="43.50906" lon="6.01829">
        <ele>183.3</ele>
        <time>2016-01-23T13:55:28Z</time>
      </trkpt>
      <trkpt lat="43.5089" lon="6.01825">
        <ele>183.8</ele>
        <time>2016-01-23T13:55:29Z</time>
      </trkpt>
      <trkpt lat="43.50875" lon="6.01822">
        <ele>182.5</ele>
        <time>2016-01-23T13:55:30Z</time>
      </trkpt>
      <trkpt lat="43.50861" lon="6.01826">
        <ele>181.7</ele>
        <time>2016-01-23T13:55:31Z</time>
      </trkpt>
      <trkpt lat="43.50848" lon="6.01833">
        <ele>181.5</ele>
        <time>2016-01-23T13:55:32Z</time>
      </trkpt>
      <trkpt lat="43.50835" lon="6.01843">
        <ele>181.5</ele>
        <time>2016-01-23T13:55:33Z</time>
      </trkpt>
      <trkpt lat="43.50825" lon="6.0186">
        <ele>181.7</ele>
        <time>2016-01-23T13:55:34Z</time>
      </trkpt>
      <trkpt lat="43.50815" lon="6.01881">
        <ele>181.5</ele>
        <time>2016-01-23T13:55:35Z</time>
      </trkpt>
      <trkpt lat="43.50806" lon="6.01907">
        <ele>180.8</ele>
        <time>2016-01-23T13:55:36Z</time>
      </trkpt>
      <trkpt lat="43.50798" lon="6.01937">
        <ele>181.2</ele>
        <time>2016-01-23T13:55:37Z</time>
      </trkpt>
      <trkpt lat="43.50787" lon="6.01965">
        <ele>181.9</ele>
        <time>2016-01-23T13:55:38Z</time>
      </trkpt>
      <trkpt lat="43.50777" lon="6.01994">
        <ele>181</ele>
        <time>2016-01-23T13:55:39Z</time>
      </trkpt>
      <trkpt lat="43.50767" lon="6.02022">
        <ele>182.4</ele>
        <time>2016-01-23T13:55:40Z</time>
      </trkpt>
      <trkpt lat="43.50759" lon="6.02051">
        <ele>182.8</ele>
        <time>2016-01-23T13:55:41Z</time>
      </trkpt>
      <trkpt lat="43.50751" lon="6.02079">
        <ele>182.1</ele>
        <time>2016-01-23T13:55:42Z</time>
      </trkpt>
      <trkpt lat="43.50743" lon="6.02104">
        <ele>182.3</ele>
        <time>2016-01-23T13:55:43Z</time>
      </trkpt>
      <trkpt lat="43.50735" lon="6.02127">
        <ele>182.4</ele>
        <time>2016-01-23T13:55:44Z</time>
      </trkpt>
      <trkpt lat="43.50725" lon="6.02146">
        <ele>182.2</ele>
        <time>2016-01-23T13:55:45Z</time>
      </trkpt>
      <trkpt lat="43.50713" lon="6.02162">
        <ele>182.6</ele>
        <time>2016-01-23T13:55:46Z</time>
      </trkpt>
      <trkpt lat="43.50698" lon="6.02176">
        <ele>182.5</ele>
        <time>2016-01-23T13:55:47Z</time>
      </trkpt>
      <trkpt lat="43.50683" lon="6.02187">
        <ele>182.5</ele>
        <time>2016-01-23T13:55:48Z</time>
      </trkpt>
      <trkpt lat="43.50665" lon="6.02195">
        <ele>182</ele>
        <time>2016-01-23T13:55:49Z</time>
      </trkpt>
      <trkpt lat="43.50646" lon="6.02199">
        <ele>181.8</ele>
        <time>2016-01-23T13:55:50Z</time>
      </trkpt>
      <trkpt lat="43.5063" lon="6.02203">
        <ele>181.9</ele>
        <time>2016-01-23T13:55:51Z</time>
      </trkpt>
      <trkpt lat="43.50614" lon="6.02207">
        <ele>182.7</ele>
        <time>2016-01-23T13:55:52Z</time>
      </trkpt>
      <trkpt lat="43.50599" lon="6.0221">
        <ele>183</ele>
        <time>2016-01-23T13:55:53Z</time>
      </trkpt>
      <trkpt lat="43.50585" lon="6.02215">
        <ele>183.2</ele>
        <time>2016-01-23T13:55:54Z</time>
      </trkpt>
      <trkpt lat="43.50572" lon="6.02222">
        <ele>182.3</ele>
        <time>2016-01-23T13:55:55Z</time>
      </trkpt>
      <trkpt lat="43.5056" lon="6.02231">
        <ele>181.5</ele>
        <time>2016-01-23T13:55:56Z</time>
      </trkpt>
      <trkpt lat="43.50549" lon="6.02246">
        <ele>181.1</ele>
        <time>2016-01-23T13:55:57Z</time>
      </trkpt>
      <trkpt lat="43.5054" lon="6.02267">
        <ele>181.8</ele>
        <time>2016-01-23T13:55:58Z</time>
      </trkpt>
      <trkpt lat="43.5053" lon="6.02291">
        <ele>181.5</ele>
        <time>2016-01-23T13:55:59Z</time>
      </trkpt>
      <trkpt lat="43.50518" lon="6.02315">
        <ele>182.6</ele>
        <time>2016-01-23T13:56:00Z</time>
      </trkpt>
      <trkpt lat="43.50507" lon="6.0234">
        <ele>182.8</ele>
        <time>2016-01-23T13:56:01Z</time>
      </trkpt>
      <trkpt lat="43.50496" lon="6.02363">
        <ele>181.7</ele>
        <time>2016-01-23T13:56:02Z</time>
      </trkpt>
      <trkpt lat="43.50485" lon="6.02385">
        <ele>182</ele>
        <time>2016-01-23T13:56:03Z</time>
      </trkpt>
      <trkpt lat="43.50474" lon="6.02405">
        <ele>182.2</ele>
        <time>2016-01-23T13:56:04Z</time>
      </trkpt>
      <trkpt lat="43.50465" lon="6.02423">
        <ele>182.6</ele>
        <time>2016-01-23T13:56:05Z</time>
      </trkpt>
      <trkpt lat="43.50457" lon="6.02442">
        <ele>184.3</ele>
        <time>2016-01-23T13:56:06Z</time>
      </trkpt>
      <trkpt lat="43.50452" lon="6.02461">
        <ele>186.5</ele>
        <time>2016-01-23T13:56:07Z</time>
      </trkpt>
      <trkpt lat="43.50449" lon="6.02479">
        <ele>187.7</ele>
        <time>2016-01-23T13:56:08Z</time>
      </trkpt>
      <trkpt lat="43.50448" lon="6.02496">
        <ele>187.8</ele>
        <time>2016-01-23T13:56:09Z</time>
      </trkpt>
      <trkpt lat="43.50449" lon="6.02514">
        <ele>187.3</ele>
        <time>2016-01-23T13:56:10Z</time>
      </trkpt>
      <trkpt lat="43.50448" lon="6.02532">
        <ele>186.2</ele>
        <time>2016-01-23T13:56:11Z</time>
      </trkpt>
      <trkpt lat="43.50447" lon="6.02549">
        <ele>184</ele>
        <time>2016-01-23T13:56:12Z</time>
      </trkpt>
      <trkpt lat="43.50443" lon="6.02565">
        <ele>182.5</ele>
        <time>2016-01-23T13:56:13Z</time>
      </trkpt>
      <trkpt lat="43.50435" lon="6.0258">
        <ele>181.4</ele>
        <time>2016-01-23T13:56:14Z</time>
      </trkpt>
      <trkpt lat="43.50425" lon="6.02595">
        <ele>180.9</ele>
        <time>2016-01-23T13:56:15Z</time>
      </trkpt>
      <trkpt lat="43.50397" lon="6.0262">
        <ele>182</ele>
        <time>2016-01-23T13:56:17Z</time>
      </trkpt>
      <trkpt lat="43.50382" lon="6.02629">
        <ele>183.3</ele>
        <time>2016-01-23T13:56:18Z</time>
      </trkpt>
      <trkpt lat="43.50368" lon="6.02637">
        <ele>184</ele>
        <time>2016-01-23T13:56:19Z</time>
      </trkpt>
      <trkpt lat="43.50355" lon="6.02646">
        <ele>183.9</ele>
        <time>2016-01-23T13:56:20Z</time>
      </trkpt>
      <trkpt lat="43.50343" lon="6.02657">
        <ele>182.8</ele>
        <time>2016-01-23T13:56:21Z</time>
      </trkpt>
      <trkpt lat="43.50334" lon="6.0267">
        <ele>181.2</ele>
        <time>2016-01-23T13:56:22Z</time>
      </trkpt>
      <trkpt lat="43.5033" lon="6.02687">
        <ele>181.6</ele>
        <time>2016-01-23T13:56:23Z</time>
      </trkpt>
      <trkpt lat="43.50329" lon="6.02703">
        <ele>181.9</ele>
        <time>2016-01-23T13:56:24Z</time>
      </trkpt>
      <trkpt lat="43.50328" lon="6.02719">
        <ele>182</ele>
        <time>2016-01-23T13:56:25Z</time>
      </trkpt>
      <trkpt lat="43.50325" lon="6.02734">
        <ele>183</ele>
        <time>2016-01-23T13:56:26Z</time>
      </trkpt>
      <trkpt lat="43.50314" lon="6.02758">
        <ele>184.8</ele>
        <time>2016-01-23T13:56:28Z</time>
      </trkpt>
      <trkpt lat="43.50308" lon="6.02767">
        <ele>186.1</ele>
        <time>2016-01-23T13:56:29Z</time>
      </trkpt>
      <trkpt lat="43.50301" lon="6.02773">
        <ele>186.9</ele>
        <time>2016-01-23T13:56:30Z</time>
      </trkpt>
      <trkpt lat="43.50284" lon="6.02783">
        <ele>186.9</ele>
        <time>2016-01-23T13:56:32Z</time>
      </trkpt>
      <trkpt lat="43.50274" lon="6.02787">
        <ele>186.4</ele>
        <time>2016-01-23T13:56:33Z</time>
      </trkpt>
      <trkpt lat="43.50263" lon="6.0279">
        <ele>185.5</ele>
        <time>2016-01-23T13:56:34Z</time>
      </trkpt>
      <trkpt lat="43.50246" lon="6.0279">
        <ele>184.4</ele>
        <time>2016-01-23T13:56:35Z</time>
      </trkpt>
      <trkpt lat="43.5023" lon="6.02789">
        <ele>184.4</ele>
        <time>2016-01-23T13:56:36Z</time>
      </trkpt>
      <trkpt lat="43.5021" lon="6.02784">
        <ele>185.3</ele>
        <time>2016-01-23T13:56:37Z</time>
      </trkpt>
      <trkpt lat="43.50189" lon="6.02779">
        <ele>186.3</ele>
        <time>2016-01-23T13:56:38Z</time>
      </trkpt>
      <trkpt lat="43.50147" lon="6.02765">
        <ele>186.5</ele>
        <time>2016-01-23T13:56:40Z</time>
      </trkpt>
      <trkpt lat="43.50128" lon="6.02755">
        <ele>186.6</ele>
        <time>2016-01-23T13:56:41Z</time>
      </trkpt>
      <trkpt lat="43.50111" lon="6.02745">
        <ele>186.1</ele>
        <time>2016-01-23T13:56:42Z</time>
      </trkpt>
      <trkpt lat="43.5008" lon="6.02728">
        <ele>184.1</ele>
        <time>2016-01-23T13:56:44Z</time>
      </trkpt>
      <trkpt lat="43.50066" lon="6.02721">
        <ele>183.4</ele>
        <time>2016-01-23T13:56:45Z</time>
      </trkpt>
      <trkpt lat="43.50052" lon="6.02715">
        <ele>182.7</ele>
        <time>2016-01-23T13:56:46Z</time>
      </trkpt>
      <trkpt lat="43.5004" lon="6.02711">
        <ele>181.9</ele>
        <time>2016-01-23T13:56:47Z</time>
      </trkpt>
      <trkpt lat="43.50029" lon="6.02708">
        <ele>181.4</ele>
        <time>2016-01-23T13:56:48Z</time>
      </trkpt>
      <trkpt lat="43.5002" lon="6.02706">
        <ele>181.2</ele>
        <time>2016-01-23T13:56:49Z</time>
      </trkpt>
      <trkpt lat="43.50012" lon="6.02705">
        <ele>181</ele>
        <time>2016-01-23T13:56:50Z</time>
      </trkpt>
      <trkpt lat="43.50006" lon="6.02705">
        <ele>180.8</ele>
        <time>2016-01-23T13:56:51Z</time>
      </trkpt>
      <trkpt lat="43.50002" lon="6.02705">
        <ele>180.8</ele>
        <time>2016-01-23T13:56:52Z</time>
      </trkpt>
      <trkpt lat="43.5" lon="6.02704">
        <ele>180.7</ele>
        <time>2016-01-23T13:56:53Z</time>
      </trkpt>
      <trkpt lat="43.49999" lon="6.02705">
        <ele>180.7</ele>
        <time>2016-01-23T13:56:54Z</time>
      </trkpt>
      <trkpt lat="43.49998" lon="6.02704">
        <ele>180.7</ele>
        <time>2016-01-23T13:56:55Z</time>
      </trkpt>
      <trkpt lat="43.49997" lon="6.02704">
        <ele>180.7</ele>
        <time>2016-01-23T13:56:56Z</time>
      </trkpt>
      <trkpt lat="43.49995" lon="6.02705">
        <ele>180.7</ele>
        <time>2016-01-23T13:56:57Z</time>
      </trkpt>
      <trkpt lat="43.49993" lon="6.02707">
        <ele>180.9</ele>
        <time>2016-01-23T13:56:58Z</time>
      </trkpt>
      <trkpt lat="43.49989" lon="6.02709">
        <ele>181.1</ele>
        <time>2016-01-23T13:56:59Z</time>
      </trkpt>
      <trkpt lat="43.49985" lon="6.02711">
        <ele>181.2</ele>
        <time>2016-01-23T13:57:00Z</time>
      </trkpt>
      <trkpt lat="43.49981" lon="6.02711">
        <ele>181.3</ele>
        <time>2016-01-23T13:57:01Z</time>
      </trkpt>
      <trkpt lat="43.49975" lon="6.02711">
        <ele>181.4</ele>
        <time>2016-01-23T13:57:02Z</time>
      </trkpt>
      <trkpt lat="43.49969" lon="6.02708">
        <ele>182.9</ele>
        <time>2016-01-23T13:57:03Z</time>
      </trkpt>
      <trkpt lat="43.49962" lon="6.02703">
        <ele>185.5</ele>
        <time>2016-01-23T13:57:04Z</time>
      </trkpt>
      <trkpt lat="43.49955" lon="6.02694">
        <ele>185.6</ele>
        <time>2016-01-23T13:57:05Z</time>
      </trkpt>
      <trkpt lat="43.49943" lon="6.02683">
        <ele>185.6</ele>
        <time>2016-01-23T13:57:06Z</time>
      </trkpt>
      <trkpt lat="43.49934" lon="6.02673">
        <ele>184.1</ele>
        <time>2016-01-23T13:57:07Z</time>
      </trkpt>
      <trkpt lat="43.49925" lon="6.02663">
        <ele>183.9</ele>
        <time>2016-01-23T13:57:08Z</time>
      </trkpt>
      <trkpt lat="43.49917" lon="6.02654">
        <ele>183.3</ele>
        <time>2016-01-23T13:57:09Z</time>
      </trkpt>
      <trkpt lat="43.49908" lon="6.02647">
        <ele>181.7</ele>
        <time>2016-01-23T13:57:10Z</time>
      </trkpt>
      <trkpt lat="43.49899" lon="6.02642">
        <ele>180.2</ele>
        <time>2016-01-23T13:57:11Z</time>
      </trkpt>
      <trkpt lat="43.49889" lon="6.02638">
        <ele>178.9</ele>
        <time>2016-01-23T13:57:12Z</time>
      </trkpt>
      <trkpt lat="43.49877" lon="6.0264">
        <ele>179.1</ele>
        <time>2016-01-23T13:57:13Z</time>
      </trkpt>
      <trkpt lat="43.49867" lon="6.02643">
        <ele>179.3</ele>
        <time>2016-01-23T13:57:14Z</time>
      </trkpt>
      <trkpt lat="43.49857" lon="6.02649">
        <ele>179.5</ele>
        <time>2016-01-23T13:57:15Z</time>
      </trkpt>
      <trkpt lat="43.49849" lon="6.0266">
        <ele>180</ele>
        <time>2016-01-23T13:57:16Z</time>
      </trkpt>
      <trkpt lat="43.49845" lon="6.02674">
        <ele>180.1</ele>
        <time>2016-01-23T13:57:17Z</time>
      </trkpt>
      <trkpt lat="43.49842" lon="6.0269">
        <ele>179.5</ele>
        <time>2016-01-23T13:57:18Z</time>
      </trkpt>
      <trkpt lat="43.49842" lon="6.02709">
        <ele>179.1</ele>
        <time>2016-01-23T13:57:19Z</time>
      </trkpt>
      <trkpt lat="43.49843" lon="6.02729">
        <ele>178.6</ele>
        <time>2016-01-23T13:57:20Z</time>
      </trkpt>
      <trkpt lat="43.49847" lon="6.0275">
        <ele>178.5</ele>
        <time>2016-01-23T13:57:21Z</time>
      </trkpt>
      <trkpt lat="43.4985" lon="6.0277">
        <ele>177.7</ele>
        <time>2016-01-23T13:57:22Z</time>
      </trkpt>
      <trkpt lat="43.49853" lon="6.02792">
        <ele>177.8</ele>
        <time>2016-01-23T13:57:23Z</time>
      </trkpt>
      <trkpt lat="43.49855" lon="6.02814">
        <ele>178.5</ele>
        <time>2016-01-23T13:57:24Z</time>
      </trkpt>
      <trkpt lat="43.49855" lon="6.02836">
        <ele>179.4</ele>
        <time>2016-01-23T13:57:25Z</time>
      </trkpt>
      <trkpt lat="43.49855" lon="6.02858">
        <ele>179.8</ele>
        <time>2016-01-23T13:57:26Z</time>
      </trkpt>
      <trkpt lat="43.49852" lon="6.0288">
        <ele>180.6</ele>
        <time>2016-01-23T13:57:27Z</time>
      </trkpt>
      <trkpt lat="43.49849" lon="6.02902">
        <ele>181.9</ele>
        <time>2016-01-23T13:57:28Z</time>
      </trkpt>
      <trkpt lat="43.49843" lon="6.02924">
        <ele>183.5</ele>
        <time>2016-01-23T13:57:29Z</time>
      </trkpt>
      <trkpt lat="43.49836" lon="6.02945">
        <ele>184.6</ele>
        <time>2016-01-23T13:57:30Z</time>
      </trkpt>
      <trkpt lat="43.49827" lon="6.02965">
        <ele>186.7</ele>
        <time>2016-01-23T13:57:31Z</time>
      </trkpt>
      <trkpt lat="43.49818" lon="6.02984">
        <ele>187.9</ele>
        <time>2016-01-23T13:57:32Z</time>
      </trkpt>
      <trkpt lat="43.49805" lon="6.02999">
        <ele>186.4</ele>
        <time>2016-01-23T13:57:33Z</time>
      </trkpt>
      <trkpt lat="43.49791" lon="6.03015">
        <ele>186.3</ele>
        <time>2016-01-23T13:57:34Z</time>
      </trkpt>
      <trkpt lat="43.49776" lon="6.03028">
        <ele>181.9</ele>
        <time>2016-01-23T13:57:35Z</time>
      </trkpt>
      <trkpt lat="43.49759" lon="6.03038">
        <ele>184.7</ele>
        <time>2016-01-23T13:57:36Z</time>
      </trkpt>
      <trkpt lat="43.49741" lon="6.03047">
        <ele>184.5</ele>
        <time>2016-01-23T13:57:37Z</time>
      </trkpt>
      <trkpt lat="43.49725" lon="6.03057">
        <ele>184.1</ele>
        <time>2016-01-23T13:57:38Z</time>
      </trkpt>
      <trkpt lat="43.49708" lon="6.03068">
        <ele>184.2</ele>
        <time>2016-01-23T13:57:39Z</time>
      </trkpt>
      <trkpt lat="43.49691" lon="6.03081">
        <ele>183.5</ele>
        <time>2016-01-23T13:57:40Z</time>
      </trkpt>
      <trkpt lat="43.49675" lon="6.03095">
        <ele>182.2</ele>
        <time>2016-01-23T13:57:41Z</time>
      </trkpt>
      <trkpt lat="43.49661" lon="6.03112">
        <ele>181.3</ele>
        <time>2016-01-23T13:57:42Z</time>
      </trkpt>
      <trkpt lat="43.49648" lon="6.03131">
        <ele>181.4</ele>
        <time>2016-01-23T13:57:43Z</time>
      </trkpt>
      <trkpt lat="43.49636" lon="6.03149">
        <ele>181.3</ele>
        <time>2016-01-23T13:57:44Z</time>
      </trkpt>
      <trkpt lat="43.49626" lon="6.03167">
        <ele>181.7</ele>
        <time>2016-01-23T13:57:45Z</time>
      </trkpt>
      <trkpt lat="43.49617" lon="6.03185">
        <ele>180.6</ele>
        <time>2016-01-23T13:57:46Z</time>
      </trkpt>
      <trkpt lat="43.49611" lon="6.03205">
        <ele>179</ele>
        <time>2016-01-23T13:57:47Z</time>
      </trkpt>
      <trkpt lat="43.49607" lon="6.03226">
        <ele>178.5</ele>
        <time>2016-01-23T13:57:48Z</time>
      </trkpt>
      <trkpt lat="43.49606" lon="6.03251">
        <ele>178.4</ele>
        <time>2016-01-23T13:57:49Z</time>
      </trkpt>
      <trkpt lat="43.49607" lon="6.03279">
        <ele>178.5</ele>
        <time>2016-01-23T13:57:50Z</time>
      </trkpt>
      <trkpt lat="43.49609" lon="6.03308">
        <ele>177.8</ele>
        <time>2016-01-23T13:57:51Z</time>
      </trkpt>
      <trkpt lat="43.49613" lon="6.03337">
        <ele>177.1</ele>
        <time>2016-01-23T13:57:52Z</time>
      </trkpt>
      <trkpt lat="43.49615" lon="6.03366">
        <ele>175</ele>
        <time>2016-01-23T13:57:53Z</time>
      </trkpt>
      <trkpt lat="43.49617" lon="6.03396">
        <ele>176.1</ele>
        <time>2016-01-23T13:57:54Z</time>
      </trkpt>
      <trkpt lat="43.49618" lon="6.03425">
        <ele>176.7</ele>
        <time>2016-01-23T13:57:55Z</time>
      </trkpt>
      <trkpt lat="43.49617" lon="6.03455">
        <ele>177.6</ele>
        <time>2016-01-23T13:57:56Z</time>
      </trkpt>
      <trkpt lat="43.49616" lon="6.03484">
        <ele>177.6</ele>
        <time>2016-01-23T13:57:57Z</time>
      </trkpt>
      <trkpt lat="43.49614" lon="6.03511">
        <ele>176.9</ele>
        <time>2016-01-23T13:57:58Z</time>
      </trkpt>
      <trkpt lat="43.4961" lon="6.03538">
        <ele>176.9</ele>
        <time>2016-01-23T13:57:59Z</time>
      </trkpt>
      <trkpt lat="43.49605" lon="6.03563">
        <ele>178.2</ele>
        <time>2016-01-23T13:58:00Z</time>
      </trkpt>
      <trkpt lat="43.496" lon="6.03587">
        <ele>178.6</ele>
        <time>2016-01-23T13:58:01Z</time>
      </trkpt>
      <trkpt lat="43.49596" lon="6.03612">
        <ele>178.3</ele>
        <time>2016-01-23T13:58:02Z</time>
      </trkpt>
      <trkpt lat="43.49594" lon="6.03636">
        <ele>177.7</ele>
        <time>2016-01-23T13:58:03Z</time>
      </trkpt>
      <trkpt lat="43.49593" lon="6.03661">
        <ele>176.9</ele>
        <time>2016-01-23T13:58:04Z</time>
      </trkpt>
      <trkpt lat="43.49594" lon="6.03687">
        <ele>175.8</ele>
        <time>2016-01-23T13:58:05Z</time>
      </trkpt>
      <trkpt lat="43.49597" lon="6.03714">
        <ele>175.5</ele>
        <time>2016-01-23T13:58:06Z</time>
      </trkpt>
      <trkpt lat="43.49602" lon="6.03743">
        <ele>175.7</ele>
        <time>2016-01-23T13:58:07Z</time>
      </trkpt>
      <trkpt lat="43.49609" lon="6.03773">
        <ele>175.1</ele>
        <time>2016-01-23T13:58:08Z</time>
      </trkpt>
      <trkpt lat="43.49619" lon="6.03805">
        <ele>175.3</ele>
        <time>2016-01-23T13:58:09Z</time>
      </trkpt>
      <trkpt lat="43.49627" lon="6.03835">
        <ele>175.1</ele>
        <time>2016-01-23T13:58:10Z</time>
      </trkpt>
      <trkpt lat="43.49636" lon="6.03864">
        <ele>175.6</ele>
        <time>2016-01-23T13:58:11Z</time>
      </trkpt>
      <trkpt lat="43.49643" lon="6.03891">
        <ele>175</ele>
        <time>2016-01-23T13:58:12Z</time>
      </trkpt>
      <trkpt lat="43.49648" lon="6.03915">
        <ele>174.1</ele>
        <time>2016-01-23T13:58:13Z</time>
      </trkpt>
      <trkpt lat="43.49652" lon="6.03939">
        <ele>173.7</ele>
        <time>2016-01-23T13:58:14Z</time>
      </trkpt>
      <trkpt lat="43.49655" lon="6.03962">
        <ele>174.6</ele>
        <time>2016-01-23T13:58:15Z</time>
      </trkpt>
      <trkpt lat="43.49656" lon="6.03985">
        <ele>176.4</ele>
        <time>2016-01-23T13:58:16Z</time>
      </trkpt>
      <trkpt lat="43.49656" lon="6.04007">
        <ele>178.6</ele>
        <time>2016-01-23T13:58:17Z</time>
      </trkpt>
      <trkpt lat="43.49653" lon="6.04027">
        <ele>180</ele>
        <time>2016-01-23T13:58:18Z</time>
      </trkpt>
      <trkpt lat="43.49646" lon="6.04044">
        <ele>184.5</ele>
        <time>2016-01-23T13:58:19Z</time>
      </trkpt>
      <trkpt lat="43.49637" lon="6.04059">
        <ele>177.5</ele>
        <time>2016-01-23T13:58:20Z</time>
      </trkpt>
      <trkpt lat="43.49627" lon="6.04073">
        <ele>179.4</ele>
        <time>2016-01-23T13:58:21Z</time>
      </trkpt>
      <trkpt lat="43.49615" lon="6.04087">
        <ele>180</ele>
        <time>2016-01-23T13:58:22Z</time>
      </trkpt>
      <trkpt lat="43.49602" lon="6.04102">
        <ele>182.8</ele>
        <time>2016-01-23T13:58:23Z</time>
      </trkpt>
      <trkpt lat="43.4958" lon="6.04114">
        <ele>180.8</ele>
        <time>2016-01-23T13:58:24Z</time>
      </trkpt>
      <trkpt lat="43.49562" lon="6.04125">
        <ele>180.8</ele>
        <time>2016-01-23T13:58:25Z</time>
      </trkpt>
      <trkpt lat="43.49542" lon="6.04134">
        <ele>180.1</ele>
        <time>2016-01-23T13:58:26Z</time>
      </trkpt>
      <trkpt lat="43.49521" lon="6.04143">
        <ele>179.7</ele>
        <time>2016-01-23T13:58:27Z</time>
      </trkpt>
      <trkpt lat="43.49498" lon="6.04151">
        <ele>180.4</ele>
        <time>2016-01-23T13:58:28Z</time>
      </trkpt>
      <trkpt lat="43.49474" lon="6.04159">
        <ele>180.2</ele>
        <time>2016-01-23T13:58:29Z</time>
      </trkpt>
      <trkpt lat="43.4945" lon="6.04166">
        <ele>179.4</ele>
        <time>2016-01-23T13:58:30Z</time>
      </trkpt>
      <trkpt lat="43.49425" lon="6.04172">
        <ele>179.5</ele>
        <time>2016-01-23T13:58:31Z</time>
      </trkpt>
      <trkpt lat="43.494" lon="6.04179">
        <ele>179.3</ele>
        <time>2016-01-23T13:58:32Z</time>
      </trkpt>
      <trkpt lat="43.49375" lon="6.04184">
        <ele>177.7</ele>
        <time>2016-01-23T13:58:33Z</time>
      </trkpt>
      <trkpt lat="43.4935" lon="6.04189">
        <ele>176.1</ele>
        <time>2016-01-23T13:58:34Z</time>
      </trkpt>
      <trkpt lat="43.49326" lon="6.04192">
        <ele>175.6</ele>
        <time>2016-01-23T13:58:35Z</time>
      </trkpt>
      <trkpt lat="43.49303" lon="6.04196">
        <ele>175.2</ele>
        <time>2016-01-23T13:58:36Z</time>
      </trkpt>
      <trkpt lat="43.4928" lon="6.04199">
        <ele>175.2</ele>
        <time>2016-01-23T13:58:37Z</time>
      </trkpt>
      <trkpt lat="43.49258" lon="6.04202">
        <ele>176</ele>
        <time>2016-01-23T13:58:38Z</time>
      </trkpt>
      <trkpt lat="43.49237" lon="6.04204">
        <ele>178.2</ele>
        <time>2016-01-23T13:58:39Z</time>
      </trkpt>
      <trkpt lat="43.49218" lon="6.04206">
        <ele>180.2</ele>
        <time>2016-01-23T13:58:40Z</time>
      </trkpt>
      <trkpt lat="43.49199" lon="6.04208">
        <ele>179.1</ele>
        <time>2016-01-23T13:58:41Z</time>
      </trkpt>
      <trkpt lat="43.49183" lon="6.0421">
        <ele>176.9</ele>
        <time>2016-01-23T13:58:42Z</time>
      </trkpt>
      <trkpt lat="43.49169" lon="6.04214">
        <ele>174.6</ele>
        <time>2016-01-23T13:58:43Z</time>
      </trkpt>
      <trkpt lat="43.49159" lon="6.04224">
        <ele>174.9</ele>
        <time>2016-01-23T13:58:44Z</time>
      </trkpt>
      <trkpt lat="43.49148" lon="6.04234">
        <ele>175.3</ele>
        <time>2016-01-23T13:58:45Z</time>
      </trkpt>
      <trkpt lat="43.49142" lon="6.04249">
        <ele>175.1</ele>
        <time>2016-01-23T13:58:46Z</time>
      </trkpt>
      <trkpt lat="43.49136" lon="6.04263">
        <ele>173.8</ele>
        <time>2016-01-23T13:58:47Z</time>
      </trkpt>
      <trkpt lat="43.4913" lon="6.04279">
        <ele>173.4</ele>
        <time>2016-01-23T13:58:48Z</time>
      </trkpt>
      <trkpt lat="43.49126" lon="6.04295">
        <ele>173.3</ele>
        <time>2016-01-23T13:58:49Z</time>
      </trkpt>
      <trkpt lat="43.49123" lon="6.04311">
        <ele>173.2</ele>
        <time>2016-01-23T13:58:50Z</time>
      </trkpt>
      <trkpt lat="43.49136" lon="6.04331">
        <ele>173</ele>
        <time>2016-01-23T13:58:51Z</time>
      </trkpt>
      <trkpt lat="43.49147" lon="6.04346">
        <ele>173.2</ele>
        <time>2016-01-23T13:58:52Z</time>
      </trkpt>
      <trkpt lat="43.49159" lon="6.0436">
        <ele>172.4</ele>
        <time>2016-01-23T13:58:53Z</time>
      </trkpt>
      <trkpt lat="43.49171" lon="6.0437">
        <ele>172.4</ele>
        <time>2016-01-23T13:58:54Z</time>
      </trkpt>
      <trkpt lat="43.49186" lon="6.04378">
        <ele>172.7</ele>
        <time>2016-01-23T13:58:55Z</time>
      </trkpt>
      <trkpt lat="43.49202" lon="6.04384">
        <ele>172.2</ele>
        <time>2016-01-23T13:58:56Z</time>
      </trkpt>
      <trkpt lat="43.49219" lon="6.04388">
        <ele>171.2</ele>
        <time>2016-01-23T13:58:57Z</time>
      </trkpt>
      <trkpt lat="43.49236" lon="6.04394">
        <ele>172.3</ele>
        <time>2016-01-23T13:58:58Z</time>
      </trkpt>
      <trkpt lat="43.49253" lon="6.044">
        <ele>172.2</ele>
        <time>2016-01-23T13:58:59Z</time>
      </trkpt>
      <trkpt lat="43.49269" lon="6.04408">
        <ele>171.4</ele>
        <time>2016-01-23T13:59:00Z</time>
      </trkpt>
      <trkpt lat="43.49284" lon="6.04418">
        <ele>171</ele>
        <time>2016-01-23T13:59:01Z</time>
      </trkpt>
      <trkpt lat="43.493" lon="6.04429">
        <ele>172.2</ele>
        <time>2016-01-23T13:59:02Z</time>
      </trkpt>
      <trkpt lat="43.49314" lon="6.04442">
        <ele>176.3</ele>
        <time>2016-01-23T13:59:03Z</time>
      </trkpt>
      <trkpt lat="43.49329" lon="6.04456">
        <ele>181.7</ele>
        <time>2016-01-23T13:59:04Z</time>
      </trkpt>
      <trkpt lat="43.49338" lon="6.04476">
        <ele>185.6</ele>
        <time>2016-01-23T13:59:05Z</time>
      </trkpt>
      <trkpt lat="43.49346" lon="6.04498">
        <ele>192.3</ele>
        <time>2016-01-23T13:59:06Z</time>
      </trkpt>
      <trkpt lat="43.49342" lon="6.04536">
        <ele>180.3</ele>
        <time>2016-01-23T13:59:07Z</time>
      </trkpt>
      <trkpt lat="43.49345" lon="6.04563">
        <ele>178</ele>
        <time>2016-01-23T13:59:08Z</time>
      </trkpt>
      <trkpt lat="43.49348" lon="6.04589">
        <ele>179.3</ele>
        <time>2016-01-23T13:59:09Z</time>
      </trkpt>
      <trkpt lat="43.49349" lon="6.04615">
        <ele>178.7</ele>
        <time>2016-01-23T13:59:10Z</time>
      </trkpt>
      <trkpt lat="43.49349" lon="6.0464">
        <ele>179.7</ele>
        <time>2016-01-23T13:59:11Z</time>
      </trkpt>
      <trkpt lat="43.49346" lon="6.04664">
        <ele>179.4</ele>
        <time>2016-01-23T13:59:12Z</time>
      </trkpt>
      <trkpt lat="43.49344" lon="6.04687">
        <ele>180.4</ele>
        <time>2016-01-23T13:59:13Z</time>
      </trkpt>
      <trkpt lat="43.4934" lon="6.0471">
        <ele>182.4</ele>
        <time>2016-01-23T13:59:14Z</time>
      </trkpt>
      <trkpt lat="43.49335" lon="6.04732">
        <ele>178.1</ele>
        <time>2016-01-23T13:59:15Z</time>
      </trkpt>
      <trkpt lat="43.49331" lon="6.04754">
        <ele>177.5</ele>
        <time>2016-01-23T13:59:16Z</time>
      </trkpt>
      <trkpt lat="43.49325" lon="6.04774">
        <ele>181.3</ele>
        <time>2016-01-23T13:59:17Z</time>
      </trkpt>
      <trkpt lat="43.49319" lon="6.04794">
        <ele>191.2</ele>
        <time>2016-01-23T13:59:18Z</time>
      </trkpt>
      <trkpt lat="43.49312" lon="6.04812">
        <ele>196.6</ele>
        <time>2016-01-23T13:59:19Z</time>
      </trkpt>
      <trkpt lat="43.49305" lon="6.04828">
        <ele>195.7</ele>
        <time>2016-01-23T13:59:20Z</time>
      </trkpt>
      <trkpt lat="43.493" lon="6.04845">
        <ele>190.8</ele>
        <time>2016-01-23T13:59:21Z</time>
      </trkpt>
      <trkpt lat="43.49298" lon="6.04861">
        <ele>187.1</ele>
        <time>2016-01-23T13:59:22Z</time>
      </trkpt>
      <trkpt lat="43.49298" lon="6.04876">
        <ele>179.9</ele>
        <time>2016-01-23T13:59:23Z</time>
      </trkpt>
      <trkpt lat="43.49302" lon="6.04891">
        <ele>173.5</ele>
        <time>2016-01-23T13:59:24Z</time>
      </trkpt>
      <trkpt lat="43.49307" lon="6.04904">
        <ele>171.8</ele>
        <time>2016-01-23T13:59:25Z</time>
      </trkpt>
      <trkpt lat="43.49312" lon="6.04916">
        <ele>170.1</ele>
        <time>2016-01-23T13:59:26Z</time>
      </trkpt>
      <trkpt lat="43.49325" lon="6.04917">
        <ele>170</ele>
        <time>2016-01-23T13:59:27Z</time>
      </trkpt>
      <trkpt lat="43.49335" lon="6.0492">
        <ele>170.4</ele>
        <time>2016-01-23T13:59:28Z</time>
      </trkpt>
      <trkpt lat="43.49346" lon="6.04924">
        <ele>171.6</ele>
        <time>2016-01-23T13:59:29Z</time>
      </trkpt>
      <trkpt lat="43.49356" lon="6.04933">
        <ele>171.6</ele>
        <time>2016-01-23T13:59:30Z</time>
      </trkpt>
      <trkpt lat="43.49371" lon="6.04944">
        <ele>172.4</ele>
        <time>2016-01-23T13:59:31Z</time>
      </trkpt>
      <trkpt lat="43.49383" lon="6.04961">
        <ele>173.2</ele>
        <time>2016-01-23T13:59:32Z</time>
      </trkpt>
      <trkpt lat="43.49396" lon="6.04979">
        <ele>177.9</ele>
        <time>2016-01-23T13:59:33Z</time>
      </trkpt>
      <trkpt lat="43.49408" lon="6.04999">
        <ele>175.3</ele>
        <time>2016-01-23T13:59:34Z</time>
      </trkpt>
      <trkpt lat="43.49421" lon="6.05019">
        <ele>175.5</ele>
        <time>2016-01-23T13:59:35Z</time>
      </trkpt>
      <trkpt lat="43.49432" lon="6.0504">
        <ele>176.5</ele>
        <time>2016-01-23T13:59:36Z</time>
      </trkpt>
      <trkpt lat="43.49444" lon="6.05059">
        <ele>173.6</ele>
        <time>2016-01-23T13:59:37Z</time>
      </trkpt>
      <trkpt lat="43.49454" lon="6.05077">
        <ele>174.6</ele>
        <time>2016-01-23T13:59:38Z</time>
      </trkpt>
      <trkpt lat="43.49465" lon="6.05093">
        <ele>173.9</ele>
        <time>2016-01-23T13:59:39Z</time>
      </trkpt>
      <trkpt lat="43.49477" lon="6.05109">
        <ele>172.6</ele>
        <time>2016-01-23T13:59:40Z</time>
      </trkpt>
      <trkpt lat="43.49491" lon="6.05123">
        <ele>172.4</ele>
        <time>2016-01-23T13:59:41Z</time>
      </trkpt>
      <trkpt lat="43.49514" lon="6.0513">
        <ele>174</ele>
        <time>2016-01-23T13:59:42Z</time>
      </trkpt>
      <trkpt lat="43.49534" lon="6.05141">
        <ele>173.2</ele>
        <time>2016-01-23T13:59:43Z</time>
      </trkpt>
      <trkpt lat="43.49554" lon="6.05152">
        <ele>173</ele>
        <time>2016-01-23T13:59:44Z</time>
      </trkpt>
      <trkpt lat="43.49573" lon="6.05163">
        <ele>172.6</ele>
        <time>2016-01-23T13:59:45Z</time>
      </trkpt>
      <trkpt lat="43.4959" lon="6.05176">
        <ele>172.7</ele>
        <time>2016-01-23T13:59:46Z</time>
      </trkpt>
      <trkpt lat="43.49605" lon="6.05189">
        <ele>173.1</ele>
        <time>2016-01-23T13:59:47Z</time>
      </trkpt>
      <trkpt lat="43.49621" lon="6.05202">
        <ele>173.1</ele>
        <time>2016-01-23T13:59:48Z</time>
      </trkpt>
      <trkpt lat="43.49636" lon="6.05216">
        <ele>173.6</ele>
        <time>2016-01-23T13:59:49Z</time>
      </trkpt>
      <trkpt lat="43.4965" lon="6.05234">
        <ele>179.4</ele>
        <time>2016-01-23T13:59:50Z</time>
      </trkpt>
      <trkpt lat="43.49659" lon="6.05258">
        <ele>181.8</ele>
        <time>2016-01-23T13:59:51Z</time>
      </trkpt>
      <trkpt lat="43.4967" lon="6.05282">
        <ele>174.4</ele>
        <time>2016-01-23T13:59:52Z</time>
      </trkpt>
      <trkpt lat="43.49678" lon="6.05307">
        <ele>177.3</ele>
        <time>2016-01-23T13:59:53Z</time>
      </trkpt>
      <trkpt lat="43.49685" lon="6.05334">
        <ele>174.7</ele>
        <time>2016-01-23T13:59:54Z</time>
      </trkpt>
      <trkpt lat="43.4969" lon="6.05362">
        <ele>174.3</ele>
        <time>2016-01-23T13:59:55Z</time>
      </trkpt>
      <trkpt lat="43.49693" lon="6.05392">
        <ele>179.2</ele>
        <time>2016-01-23T13:59:56Z</time>
      </trkpt>
      <trkpt lat="43.49694" lon="6.05423">
        <ele>177.3</ele>
        <time>2016-01-23T13:59:57Z</time>
      </trkpt>
      <trkpt lat="43.49693" lon="6.05455">
        <ele>173.9</ele>
        <time>2016-01-23T13:59:58Z</time>
      </trkpt>
      <trkpt lat="43.49694" lon="6.05485">
        <ele>171.4</ele>
        <time>2016-01-23T13:59:59Z</time>
      </trkpt>
      <trkpt lat="43.49694" lon="6.05514">
        <ele>171.5</ele>
        <time>2016-01-23T14:00:00Z</time>
      </trkpt>
      <trkpt lat="43.49691" lon="6.05542">
        <ele>170.9</ele>
        <time>2016-01-23T14:00:01Z</time>
      </trkpt>
      <trkpt lat="43.49687" lon="6.05568">
        <ele>174.6</ele>
        <time>2016-01-23T14:00:02Z</time>
      </trkpt>
      <trkpt lat="43.49681" lon="6.05593">
        <ele>179.4</ele>
        <time>2016-01-23T14:00:03Z</time>
      </trkpt>
      <trkpt lat="43.49674" lon="6.05617">
        <ele>180.7</ele>
        <time>2016-01-23T14:00:04Z</time>
      </trkpt>
      <trkpt lat="43.49666" lon="6.05641">
        <ele>178.9</ele>
        <time>2016-01-23T14:00:05Z</time>
      </trkpt>
      <trkpt lat="43.49657" lon="6.05663">
        <ele>178.5</ele>
        <time>2016-01-23T14:00:06Z</time>
      </trkpt>
      <trkpt lat="43.49647" lon="6.05684">
        <ele>180.2</ele>
        <time>2016-01-23T14:00:07Z</time>
      </trkpt>
      <trkpt lat="43.49641" lon="6.05704">
        <ele>180.7</ele>
        <time>2016-01-23T14:00:08Z</time>
      </trkpt>
      <trkpt lat="43.49635" lon="6.05725">
        <ele>178.2</ele>
        <time>2016-01-23T14:00:09Z</time>
      </trkpt>
      <trkpt lat="43.49632" lon="6.05749">
        <ele>176.8</ele>
        <time>2016-01-23T14:00:10Z</time>
      </trkpt>
      <trkpt lat="43.4963" lon="6.05775">
        <ele>175.5</ele>
        <time>2016-01-23T14:00:11Z</time>
      </trkpt>
      <trkpt lat="43.49624" lon="6.05805">
        <ele>172.4</ele>
        <time>2016-01-23T14:00:12Z</time>
      </trkpt>
      <trkpt lat="43.49621" lon="6.05834">
        <ele>170.7</ele>
        <time>2016-01-23T14:00:13Z</time>
      </trkpt>
      <trkpt lat="43.49617" lon="6.05863">
        <ele>170.3</ele>
        <time>2016-01-23T14:00:14Z</time>
      </trkpt>
      <trkpt lat="43.49612" lon="6.05892">
        <ele>171</ele>
        <time>2016-01-23T14:00:15Z</time>
      </trkpt>
      <trkpt lat="43.49608" lon="6.05919">
        <ele>170.7</ele>
        <time>2016-01-23T14:00:16Z</time>
      </trkpt>
      <trkpt lat="43.49605" lon="6.05946">
        <ele>170.6</ele>
        <time>2016-01-23T14:00:17Z</time>
      </trkpt>
      <trkpt lat="43.49605" lon="6.05973">
        <ele>170.6</ele>
        <time>2016-01-23T14:00:18Z</time>
      </trkpt>
      <trkpt lat="43.49606" lon="6.05998">
        <ele>171.9</ele>
        <time>2016-01-23T14:00:19Z</time>
      </trkpt>
      <trkpt lat="43.49608" lon="6.06021">
        <ele>171.8</ele>
        <time>2016-01-23T14:00:20Z</time>
      </trkpt>
      <trkpt lat="43.49613" lon="6.06042">
        <ele>171.2</ele>
        <time>2016-01-23T14:00:21Z</time>
      </trkpt>
      <trkpt lat="43.49619" lon="6.06063">
        <ele>170.7</ele>
        <time>2016-01-23T14:00:22Z</time>
      </trkpt>
      <trkpt lat="43.49627" lon="6.06085">
        <ele>171.2</ele>
        <time>2016-01-23T14:00:23Z</time>
      </trkpt>
      <trkpt lat="43.49635" lon="6.06108">
        <ele>171.5</ele>
        <time>2016-01-23T14:00:24Z</time>
      </trkpt>
      <trkpt lat="43.49643" lon="6.06131">
        <ele>171.2</ele>
        <time>2016-01-23T14:00:25Z</time>
      </trkpt>
      <trkpt lat="43.4965" lon="6.06155">
        <ele>171.2</ele>
        <time>2016-01-23T14:00:26Z</time>
      </trkpt>
      <trkpt lat="43.49655" lon="6.06178">
        <ele>171.7</ele>
        <time>2016-01-23T14:00:27Z</time>
      </trkpt>
      <trkpt lat="43.49658" lon="6.06203">
        <ele>172.4</ele>
        <time>2016-01-23T14:00:28Z</time>
      </trkpt>
      <trkpt lat="43.49661" lon="6.06228">
        <ele>173.8</ele>
        <time>2016-01-23T14:00:29Z</time>
      </trkpt>
      <trkpt lat="43.49665" lon="6.06255">
        <ele>172.9</ele>
        <time>2016-01-23T14:00:30Z</time>
      </trkpt>
      <trkpt lat="43.4967" lon="6.06283">
        <ele>171.9</ele>
        <time>2016-01-23T14:00:31Z</time>
      </trkpt>
      <trkpt lat="43.49676" lon="6.0631">
        <ele>171.9</ele>
        <time>2016-01-23T14:00:32Z</time>
      </trkpt>
      <trkpt lat="43.49684" lon="6.06338">
        <ele>171.1</ele>
        <time>2016-01-23T14:00:33Z</time>
      </trkpt>
      <trkpt lat="43.49692" lon="6.06365">
        <ele>171.4</ele>
        <time>2016-01-23T14:00:34Z</time>
      </trkpt>
      <trkpt lat="43.49703" lon="6.06393">
        <ele>170.4</ele>
        <time>2016-01-23T14:00:35Z</time>
      </trkpt>
      <trkpt lat="43.49714" lon="6.0642">
        <ele>170.3</ele>
        <time>2016-01-23T14:00:36Z</time>
      </trkpt>
      <trkpt lat="43.49724" lon="6.06445">
        <ele>170.2</ele>
        <time>2016-01-23T14:00:37Z</time>
      </trkpt>
      <trkpt lat="43.49733" lon="6.0647">
        <ele>171</ele>
        <time>2016-01-23T14:00:38Z</time>
      </trkpt>
      <trkpt lat="43.4974" lon="6.06496">
        <ele>170</ele>
        <time>2016-01-23T14:00:39Z</time>
      </trkpt>
      <trkpt lat="43.49746" lon="6.06525">
        <ele>169.8</ele>
        <time>2016-01-23T14:00:40Z</time>
      </trkpt>
      <trkpt lat="43.49749" lon="6.06556">
        <ele>168.9</ele>
        <time>2016-01-23T14:00:41Z</time>
      </trkpt>
      <trkpt lat="43.49752" lon="6.06587">
        <ele>168.2</ele>
        <time>2016-01-23T14:00:42Z</time>
      </trkpt>
      <trkpt lat="43.49756" lon="6.06617">
        <ele>169.3</ele>
        <time>2016-01-23T14:00:43Z</time>
      </trkpt>
      <trkpt lat="43.4976" lon="6.06646">
        <ele>170</ele>
        <time>2016-01-23T14:00:44Z</time>
      </trkpt>
      <trkpt lat="43.49765" lon="6.06674">
        <ele>171.5</ele>
        <time>2016-01-23T14:00:45Z</time>
      </trkpt>
      <trkpt lat="43.49769" lon="6.06701">
        <ele>171</ele>
        <time>2016-01-23T14:00:46Z</time>
      </trkpt>
      <trkpt lat="43.4977" lon="6.06729">
        <ele>170</ele>
        <time>2016-01-23T14:00:47Z</time>
      </trkpt>
      <trkpt lat="43.49771" lon="6.06758">
        <ele>169.3</ele>
        <time>2016-01-23T14:00:48Z</time>
      </trkpt>
      <trkpt lat="43.4977" lon="6.06789">
        <ele>168.3</ele>
        <time>2016-01-23T14:00:49Z</time>
      </trkpt>
      <trkpt lat="43.49769" lon="6.06822">
        <ele>167.7</ele>
        <time>2016-01-23T14:00:50Z</time>
      </trkpt>
      <trkpt lat="43.49767" lon="6.06857">
        <ele>167.1</ele>
        <time>2016-01-23T14:00:51Z</time>
      </trkpt>
      <trkpt lat="43.49764" lon="6.06892">
        <ele>167</ele>
        <time>2016-01-23T14:00:52Z</time>
      </trkpt>
      <trkpt lat="43.49763" lon="6.06927">
        <ele>167</ele>
        <time>2016-01-23T14:00:53Z</time>
      </trkpt>
      <trkpt lat="43.4976" lon="6.06962">
        <ele>167</ele>
        <time>2016-01-23T14:00:54Z</time>
      </trkpt>
      <trkpt lat="43.49759" lon="6.06995">
        <ele>167</ele>
        <time>2016-01-23T14:00:55Z</time>
      </trkpt>
      <trkpt lat="43.49757" lon="6.07026">
        <ele>167</ele>
        <time>2016-01-23T14:00:56Z</time>
      </trkpt>
      <trkpt lat="43.49755" lon="6.07055">
        <ele>166.8</ele>
        <time>2016-01-23T14:00:57Z</time>
      </trkpt>
      <trkpt lat="43.49753" lon="6.07084">
        <ele>166.9</ele>
        <time>2016-01-23T14:00:58Z</time>
      </trkpt>
      <trkpt lat="43.49748" lon="6.07112">
        <ele>165.6</ele>
        <time>2016-01-23T14:00:59Z</time>
      </trkpt>
      <trkpt lat="43.49742" lon="6.07138">
        <ele>165.4</ele>
        <time>2016-01-23T14:01:00Z</time>
      </trkpt>
      <trkpt lat="43.49734" lon="6.07163">
        <ele>165.9</ele>
        <time>2016-01-23T14:01:01Z</time>
      </trkpt>
      <trkpt lat="43.49718" lon="6.07185">
        <ele>165.8</ele>
        <time>2016-01-23T14:01:02Z</time>
      </trkpt>
      <trkpt lat="43.49702" lon="6.07206">
        <ele>166</ele>
        <time>2016-01-23T14:01:03Z</time>
      </trkpt>
      <trkpt lat="43.49684" lon="6.07226">
        <ele>165.7</ele>
        <time>2016-01-23T14:01:04Z</time>
      </trkpt>
      <trkpt lat="43.49666" lon="6.07243">
        <ele>165.7</ele>
        <time>2016-01-23T14:01:05Z</time>
      </trkpt>
      <trkpt lat="43.49648" lon="6.0726">
        <ele>166</ele>
        <time>2016-01-23T14:01:06Z</time>
      </trkpt>
      <trkpt lat="43.49631" lon="6.07274">
        <ele>165.8</ele>
        <time>2016-01-23T14:01:07Z</time>
      </trkpt>
      <trkpt lat="43.49616" lon="6.07288">
        <ele>166</ele>
        <time>2016-01-23T14:01:08Z</time>
      </trkpt>
      <trkpt lat="43.49603" lon="6.07302">
        <ele>165.5</ele>
        <time>2016-01-23T14:01:09Z</time>
      </trkpt>
      <trkpt lat="43.49592" lon="6.07319">
        <ele>165.7</ele>
        <time>2016-01-23T14:01:10Z</time>
      </trkpt>
      <trkpt lat="43.49584" lon="6.07337">
        <ele>165.9</ele>
        <time>2016-01-23T14:01:11Z</time>
      </trkpt>
      <trkpt lat="43.49579" lon="6.07357">
        <ele>165</ele>
        <time>2016-01-23T14:01:12Z</time>
      </trkpt>
      <trkpt lat="43.49578" lon="6.07377">
        <ele>164.7</ele>
        <time>2016-01-23T14:01:13Z</time>
      </trkpt>
      <trkpt lat="43.49578" lon="6.07397">
        <ele>164.6</ele>
        <time>2016-01-23T14:01:14Z</time>
      </trkpt>
      <trkpt lat="43.49575" lon="6.07416">
        <ele>164.7</ele>
        <time>2016-01-23T14:01:15Z</time>
      </trkpt>
      <trkpt lat="43.49567" lon="6.07431">
        <ele>164.5</ele>
        <time>2016-01-23T14:01:16Z</time>
      </trkpt>
      <trkpt lat="43.49557" lon="6.07444">
        <ele>164.9</ele>
        <time>2016-01-23T14:01:17Z</time>
      </trkpt>
      <trkpt lat="43.49546" lon="6.07459">
        <ele>165.5</ele>
        <time>2016-01-23T14:01:18Z</time>
      </trkpt>
      <trkpt lat="43.49535" lon="6.07475">
        <ele>166</ele>
        <time>2016-01-23T14:01:19Z</time>
      </trkpt>
      <trkpt lat="43.49525" lon="6.07497">
        <ele>166</ele>
        <time>2016-01-23T14:01:20Z</time>
      </trkpt>
      <trkpt lat="43.49516" lon="6.07522">
        <ele>166</ele>
        <time>2016-01-23T14:01:21Z</time>
      </trkpt>
      <trkpt lat="43.49506" lon="6.07549">
        <ele>166</ele>
        <time>2016-01-23T14:01:22Z</time>
      </trkpt>
      <trkpt lat="43.49496" lon="6.07579">
        <ele>165.8</ele>
        <time>2016-01-23T14:01:23Z</time>
      </trkpt>
      <trkpt lat="43.49484" lon="6.0761">
        <ele>165.4</ele>
        <time>2016-01-23T14:01:24Z</time>
      </trkpt>
      <trkpt lat="43.49472" lon="6.07644">
        <ele>166</ele>
        <time>2016-01-23T14:01:25Z</time>
      </trkpt>
      <trkpt lat="43.49459" lon="6.07677">
        <ele>165.5</ele>
        <time>2016-01-23T14:01:26Z</time>
      </trkpt>
      <trkpt lat="43.49447" lon="6.07708">
        <ele>165.6</ele>
        <time>2016-01-23T14:01:27Z</time>
      </trkpt>
      <trkpt lat="43.49436" lon="6.07739">
        <ele>165.7</ele>
        <time>2016-01-23T14:01:28Z</time>
      </trkpt>
      <trkpt lat="43.49424" lon="6.07767">
        <ele>165.1</ele>
        <time>2016-01-23T14:01:29Z</time>
      </trkpt>
      <trkpt lat="43.49411" lon="6.07794">
        <ele>165</ele>
        <time>2016-01-23T14:01:30Z</time>
      </trkpt>
      <trkpt lat="43.49396" lon="6.07821">
        <ele>165</ele>
        <time>2016-01-23T14:01:31Z</time>
      </trkpt>
      <trkpt lat="43.4938" lon="6.07847">
        <ele>165</ele>
        <time>2016-01-23T14:01:32Z</time>
      </trkpt>
      <trkpt lat="43.49363" lon="6.07872">
        <ele>165</ele>
        <time>2016-01-23T14:01:33Z</time>
      </trkpt>
      <trkpt lat="43.49347" lon="6.07896">
        <ele>165</ele>
        <time>2016-01-23T14:01:34Z</time>
      </trkpt>
      <trkpt lat="43.4933" lon="6.07919">
        <ele>164.9</ele>
        <time>2016-01-23T14:01:35Z</time>
      </trkpt>
      <trkpt lat="43.49314" lon="6.07941">
        <ele>164.9</ele>
        <time>2016-01-23T14:01:36Z</time>
      </trkpt>
      <trkpt lat="43.49298" lon="6.07963">
        <ele>164.7</ele>
        <time>2016-01-23T14:01:37Z</time>
      </trkpt>
      <trkpt lat="43.49282" lon="6.07983">
        <ele>164.5</ele>
        <time>2016-01-23T14:01:38Z</time>
      </trkpt>
      <trkpt lat="43.49268" lon="6.08003">
        <ele>164.6</ele>
        <time>2016-01-23T14:01:39Z</time>
      </trkpt>
      <trkpt lat="43.49254" lon="6.08021">
        <ele>164.7</ele>
        <time>2016-01-23T14:01:40Z</time>
      </trkpt>
      <trkpt lat="43.49239" lon="6.08039">
        <ele>164.5</ele>
        <time>2016-01-23T14:01:41Z</time>
      </trkpt>
      <trkpt lat="43.49226" lon="6.08055">
        <ele>164.9</ele>
        <time>2016-01-23T14:01:42Z</time>
      </trkpt>
      <trkpt lat="43.49212" lon="6.0807">
        <ele>164.5</ele>
        <time>2016-01-23T14:01:43Z</time>
      </trkpt>
      <trkpt lat="43.49199" lon="6.08083">
        <ele>164.8</ele>
        <time>2016-01-23T14:01:44Z</time>
      </trkpt>
      <trkpt lat="43.49184" lon="6.08092">
        <ele>164.8</ele>
        <time>2016-01-23T14:01:45Z</time>
      </trkpt>
      <trkpt lat="43.49169" lon="6.08099">
        <ele>164.6</ele>
        <time>2016-01-23T14:01:46Z</time>
      </trkpt>
      <trkpt lat="43.49153" lon="6.08102">
        <ele>164.7</ele>
        <time>2016-01-23T14:01:47Z</time>
      </trkpt>
      <trkpt lat="43.49135" lon="6.08104">
        <ele>164.7</ele>
        <time>2016-01-23T14:01:48Z</time>
      </trkpt>
      <trkpt lat="43.49117" lon="6.08105">
        <ele>164.8</ele>
        <time>2016-01-23T14:01:49Z</time>
      </trkpt>
      <trkpt lat="43.49099" lon="6.08105">
        <ele>164.8</ele>
        <time>2016-01-23T14:01:50Z</time>
      </trkpt>
      <trkpt lat="43.49081" lon="6.08104">
        <ele>164.7</ele>
        <time>2016-01-23T14:01:51Z</time>
      </trkpt>
      <trkpt lat="43.49063" lon="6.08101">
        <ele>164.4</ele>
        <time>2016-01-23T14:01:52Z</time>
      </trkpt>
      <trkpt lat="43.49047" lon="6.08098">
        <ele>164.1</ele>
        <time>2016-01-23T14:01:53Z</time>
      </trkpt>
      <trkpt lat="43.4903" lon="6.08096">
        <ele>163.9</ele>
        <time>2016-01-23T14:01:54Z</time>
      </trkpt>
      <trkpt lat="43.49015" lon="6.08095">
        <ele>163.4</ele>
        <time>2016-01-23T14:01:55Z</time>
      </trkpt>
      <trkpt lat="43.49001" lon="6.08096">
        <ele>162.9</ele>
        <time>2016-01-23T14:01:56Z</time>
      </trkpt>
      <trkpt lat="43.48986" lon="6.08098">
        <ele>162.8</ele>
        <time>2016-01-23T14:01:57Z</time>
      </trkpt>
      <trkpt lat="43.48973" lon="6.08101">
        <ele>162.7</ele>
        <time>2016-01-23T14:01:58Z</time>
      </trkpt>
      <trkpt lat="43.4896" lon="6.08106">
        <ele>161.7</ele>
        <time>2016-01-23T14:01:59Z</time>
      </trkpt>
      <trkpt lat="43.48947" lon="6.08111">
        <ele>160.3</ele>
        <time>2016-01-23T14:02:00Z</time>
      </trkpt>
      <trkpt lat="43.48934" lon="6.08114">
        <ele>160.7</ele>
        <time>2016-01-23T14:02:01Z</time>
      </trkpt>
      <trkpt lat="43.48922" lon="6.08118">
        <ele>161.3</ele>
        <time>2016-01-23T14:02:02Z</time>
      </trkpt>
      <trkpt lat="43.4891" lon="6.08122">
        <ele>161.8</ele>
        <time>2016-01-23T14:02:03Z</time>
      </trkpt>
      <trkpt lat="43.489" lon="6.08126">
        <ele>162.1</ele>
        <time>2016-01-23T14:02:04Z</time>
      </trkpt>
      <trkpt lat="43.48889" lon="6.0813">
        <ele>162.3</ele>
        <time>2016-01-23T14:02:05Z</time>
      </trkpt>
      <trkpt lat="43.4888" lon="6.08134">
        <ele>162.1</ele>
        <time>2016-01-23T14:02:06Z</time>
      </trkpt>
      <trkpt lat="43.48871" lon="6.08137">
        <ele>161.6</ele>
        <time>2016-01-23T14:02:07Z</time>
      </trkpt>
      <trkpt lat="43.48863" lon="6.08139">
        <ele>161.1</ele>
        <time>2016-01-23T14:02:08Z</time>
      </trkpt>
      <trkpt lat="43.48856" lon="6.08142">
        <ele>161.1</ele>
        <time>2016-01-23T14:02:09Z</time>
      </trkpt>
      <trkpt lat="43.48848" lon="6.08143">
        <ele>160.9</ele>
        <time>2016-01-23T14:02:10Z</time>
      </trkpt>
      <trkpt lat="43.48842" lon="6.08146">
        <ele>161</ele>
        <time>2016-01-23T14:02:11Z</time>
      </trkpt>
      <trkpt lat="43.48835" lon="6.08149">
        <ele>161.1</ele>
        <time>2016-01-23T14:02:12Z</time>
      </trkpt>
      <trkpt lat="43.48828" lon="6.08152">
        <ele>161.1</ele>
        <time>2016-01-23T14:02:13Z</time>
      </trkpt>
      <trkpt lat="43.48821" lon="6.08155">
        <ele>161.1</ele>
        <time>2016-01-23T14:02:14Z</time>
      </trkpt>
      <trkpt lat="43.48815" lon="6.08157">
        <ele>161.1</ele>
        <time>2016-01-23T14:02:15Z</time>
      </trkpt>
      <trkpt lat="43.48809" lon="6.0816">
        <ele>161.1</ele>
        <time>2016-01-23T14:02:16Z</time>
      </trkpt>
      <trkpt lat="43.48803" lon="6.08161">
        <ele>160.9</ele>
        <time>2016-01-23T14:02:17Z</time>
      </trkpt>
      <trkpt lat="43.48799" lon="6.08162">
        <ele>160.3</ele>
        <time>2016-01-23T14:02:18Z</time>
      </trkpt>
      <trkpt lat="43.48795" lon="6.08162">
        <ele>159.8</ele>
        <time>2016-01-23T14:02:19Z</time>
      </trkpt>
      <trkpt lat="43.48792" lon="6.0816">
        <ele>159.2</ele>
        <time>2016-01-23T14:02:20Z</time>
      </trkpt>
      <trkpt lat="43.48789" lon="6.08158">
        <ele>158.6</ele>
        <time>2016-01-23T14:02:21Z</time>
      </trkpt>
      <trkpt lat="43.48786" lon="6.08155">
        <ele>158.2</ele>
        <time>2016-01-23T14:02:22Z</time>
      </trkpt>
      <trkpt lat="43.48782" lon="6.08151">
        <ele>157.9</ele>
        <time>2016-01-23T14:02:23Z</time>
      </trkpt>
      <trkpt lat="43.48779" lon="6.08147">
        <ele>157.8</ele>
        <time>2016-01-23T14:02:24Z</time>
      </trkpt>
      <trkpt lat="43.48776" lon="6.08143">
        <ele>157.9</ele>
        <time>2016-01-23T14:02:25Z</time>
      </trkpt>
      <trkpt lat="43.48773" lon="6.08139">
        <ele>158.2</ele>
        <time>2016-01-23T14:02:26Z</time>
      </trkpt>
      <trkpt lat="43.4877" lon="6.08134">
        <ele>159.1</ele>
        <time>2016-01-23T14:02:27Z</time>
      </trkpt>
      <trkpt lat="43.48766" lon="6.08128">
        <ele>160.1</ele>
        <time>2016-01-23T14:02:28Z</time>
      </trkpt>
      <trkpt lat="43.48763" lon="6.08122">
        <ele>160.9</ele>
        <time>2016-01-23T14:02:29Z</time>
      </trkpt>
      <trkpt lat="43.48759" lon="6.08116">
        <ele>161.6</ele>
        <time>2016-01-23T14:02:30Z</time>
      </trkpt>
      <trkpt lat="43.48755" lon="6.08111">
        <ele>162.3</ele>
        <time>2016-01-23T14:02:31Z</time>
      </trkpt>
      <trkpt lat="43.48752" lon="6.08105">
        <ele>163.5</ele>
        <time>2016-01-23T14:02:32Z</time>
      </trkpt>
      <trkpt lat="43.48748" lon="6.081">
        <ele>164.6</ele>
        <time>2016-01-23T14:02:33Z</time>
      </trkpt>
      <trkpt lat="43.48743" lon="6.08095">
        <ele>165.1</ele>
        <time>2016-01-23T14:02:34Z</time>
      </trkpt>
      <trkpt lat="43.48738" lon="6.08089">
        <ele>165.1</ele>
        <time>2016-01-23T14:02:35Z</time>
      </trkpt>
      <trkpt lat="43.48733" lon="6.08083">
        <ele>164.6</ele>
        <time>2016-01-23T14:02:36Z</time>
      </trkpt>
      <trkpt lat="43.48728" lon="6.08077">
        <ele>163.6</ele>
        <time>2016-01-23T14:02:37Z</time>
      </trkpt>
      <trkpt lat="43.48722" lon="6.08072">
        <ele>162.4</ele>
        <time>2016-01-23T14:02:38Z</time>
      </trkpt>
      <trkpt lat="43.48717" lon="6.08066">
        <ele>162.3</ele>
        <time>2016-01-23T14:02:39Z</time>
      </trkpt>
      <trkpt lat="43.48713" lon="6.0806">
        <ele>162.2</ele>
        <time>2016-01-23T14:02:40Z</time>
      </trkpt>
      <trkpt lat="43.48708" lon="6.08053">
        <ele>162</ele>
        <time>2016-01-23T14:02:41Z</time>
      </trkpt>
      <trkpt lat="43.48705" lon="6.08047">
        <ele>161.8</ele>
        <time>2016-01-23T14:02:42Z</time>
      </trkpt>
      <trkpt lat="43.48703" lon="6.08041">
        <ele>161.8</ele>
        <time>2016-01-23T14:02:43Z</time>
      </trkpt>
      <trkpt lat="43.487" lon="6.08035">
        <ele>161.8</ele>
        <time>2016-01-23T14:02:44Z</time>
      </trkpt>
      <trkpt lat="43.48698" lon="6.08029">
        <ele>162</ele>
        <time>2016-01-23T14:02:45Z</time>
      </trkpt>
      <trkpt lat="43.48696" lon="6.08024">
        <ele>162</ele>
        <time>2016-01-23T14:02:46Z</time>
      </trkpt>
      <trkpt lat="43.48693" lon="6.0802">
        <ele>162</ele>
        <time>2016-01-23T14:02:47Z</time>
      </trkpt>
      <trkpt lat="43.4869" lon="6.08015">
        <ele>161.8</ele>
        <time>2016-01-23T14:02:48Z</time>
      </trkpt>
      <trkpt lat="43.48683" lon="6.08011">
        <ele>161.6</ele>
        <time>2016-01-23T14:02:49Z</time>
      </trkpt>
      <trkpt lat="43.48677" lon="6.08008">
        <ele>161.4</ele>
        <time>2016-01-23T14:02:50Z</time>
      </trkpt>
      <trkpt lat="43.48671" lon="6.08005">
        <ele>161.2</ele>
        <time>2016-01-23T14:02:51Z</time>
      </trkpt>
      <trkpt lat="43.48665" lon="6.08002">
        <ele>161.1</ele>
        <time>2016-01-23T14:02:52Z</time>
      </trkpt>
      <trkpt lat="43.48659" lon="6.08">
        <ele>161.3</ele>
        <time>2016-01-23T14:02:53Z</time>
      </trkpt>
      <trkpt lat="43.48653" lon="6.07999">
        <ele>161.5</ele>
        <time>2016-01-23T14:02:54Z</time>
      </trkpt>
      <trkpt lat="43.48646" lon="6.07998">
        <ele>161.8</ele>
        <time>2016-01-23T14:02:55Z</time>
      </trkpt>
      <trkpt lat="43.4864" lon="6.07997">
        <ele>162</ele>
        <time>2016-01-23T14:02:56Z</time>
      </trkpt>
      <trkpt lat="43.48635" lon="6.07997">
        <ele>162</ele>
        <time>2016-01-23T14:02:57Z</time>
      </trkpt>
      <trkpt lat="43.4863" lon="6.07998">
        <ele>162</ele>
        <time>2016-01-23T14:02:58Z</time>
      </trkpt>
      <trkpt lat="43.48626" lon="6.08003">
        <ele>161.9</ele>
        <time>2016-01-23T14:02:59Z</time>
      </trkpt>
      <trkpt lat="43.48621" lon="6.08004">
        <ele>161.9</ele>
        <time>2016-01-23T14:03:00Z</time>
      </trkpt>
      <trkpt lat="43.48616" lon="6.08009">
        <ele>161.9</ele>
        <time>2016-01-23T14:03:01Z</time>
      </trkpt>
      <trkpt lat="43.48611" lon="6.08019">
        <ele>162</ele>
        <time>2016-01-23T14:03:02Z</time>
      </trkpt>
      <trkpt lat="43.48607" lon="6.08035">
        <ele>161.7</ele>
        <time>2016-01-23T14:03:03Z</time>
      </trkpt>
      <trkpt lat="43.48599" lon="6.08043">
        <ele>161.5</ele>
        <time>2016-01-23T14:03:04Z</time>
      </trkpt>
      <trkpt lat="43.48591" lon="6.08052">
        <ele>160.9</ele>
        <time>2016-01-23T14:03:05Z</time>
      </trkpt>
      <trkpt lat="43.48579" lon="6.08058">
        <ele>160.4</ele>
        <time>2016-01-23T14:03:06Z</time>
      </trkpt>
      <trkpt lat="43.48567" lon="6.08063">
        <ele>159</ele>
        <time>2016-01-23T14:03:07Z</time>
      </trkpt>
      <trkpt lat="43.48555" lon="6.08066">
        <ele>158.2</ele>
        <time>2016-01-23T14:03:08Z</time>
      </trkpt>
      <trkpt lat="43.48544" lon="6.08069">
        <ele>158.2</ele>
        <time>2016-01-23T14:03:09Z</time>
      </trkpt>
      <trkpt lat="43.48534" lon="6.08071">
        <ele>158.3</ele>
        <time>2016-01-23T14:03:10Z</time>
      </trkpt>
      <trkpt lat="43.48524" lon="6.08072">
        <ele>158.4</ele>
        <time>2016-01-23T14:03:11Z</time>
      </trkpt>
      <trkpt lat="43.48514" lon="6.08073">
        <ele>158.4</ele>
        <time>2016-01-23T14:03:12Z</time>
      </trkpt>
      <trkpt lat="43.48505" lon="6.08075">
        <ele>158.3</ele>
        <time>2016-01-23T14:03:13Z</time>
      </trkpt>
      <trkpt lat="43.485" lon="6.08076">
        <ele>158.3</ele>
        <time>2016-01-23T14:03:14Z</time>
      </trkpt>
      <trkpt lat="43.48493" lon="6.08077">
        <ele>158.2</ele>
        <time>2016-01-23T14:03:15Z</time>
      </trkpt>
      <trkpt lat="43.48484" lon="6.08075">
        <ele>158.3</ele>
        <time>2016-01-23T14:03:16Z</time>
      </trkpt>
      <trkpt lat="43.48475" lon="6.08076">
        <ele>158.3</ele>
        <time>2016-01-23T14:03:17Z</time>
      </trkpt>
      <trkpt lat="43.48465" lon="6.08076">
        <ele>158.3</ele>
        <time>2016-01-23T14:03:18Z</time>
      </trkpt>
      <trkpt lat="43.48454" lon="6.08078">
        <ele>158.2</ele>
        <time>2016-01-23T14:03:19Z</time>
      </trkpt>
      <trkpt lat="43.48441" lon="6.0808">
        <ele>158.2</ele>
        <time>2016-01-23T14:03:20Z</time>
      </trkpt>
      <trkpt lat="43.48428" lon="6.08081">
        <ele>158.6</ele>
        <time>2016-01-23T14:03:21Z</time>
      </trkpt>
      <trkpt lat="43.48413" lon="6.08082">
        <ele>159</ele>
        <time>2016-01-23T14:03:22Z</time>
      </trkpt>
      <trkpt lat="43.48397" lon="6.08082">
        <ele>159</ele>
        <time>2016-01-23T14:03:23Z</time>
      </trkpt>
      <trkpt lat="43.48382" lon="6.08079">
        <ele>159</ele>
        <time>2016-01-23T14:03:24Z</time>
      </trkpt>
      <trkpt lat="43.48365" lon="6.08074">
        <ele>159</ele>
        <time>2016-01-23T14:03:25Z</time>
      </trkpt>
      <trkpt lat="43.48349" lon="6.08068">
        <ele>158.8</ele>
        <time>2016-01-23T14:03:26Z</time>
      </trkpt>
      <trkpt lat="43.48333" lon="6.08061">
        <ele>158.8</ele>
        <time>2016-01-23T14:03:27Z</time>
      </trkpt>
      <trkpt lat="43.48317" lon="6.08055">
        <ele>159</ele>
        <time>2016-01-23T14:03:28Z</time>
      </trkpt>
      <trkpt lat="43.48303" lon="6.0805">
        <ele>159</ele>
        <time>2016-01-23T14:03:29Z</time>
      </trkpt>
      <trkpt lat="43.48289" lon="6.08049">
        <ele>159</ele>
        <time>2016-01-23T14:03:30Z</time>
      </trkpt>
      <trkpt lat="43.48274" lon="6.08052">
        <ele>159.1</ele>
        <time>2016-01-23T14:03:31Z</time>
      </trkpt>
      <trkpt lat="43.48259" lon="6.08061">
        <ele>159.1</ele>
        <time>2016-01-23T14:03:32Z</time>
      </trkpt>
      <trkpt lat="43.48244" lon="6.08074">
        <ele>158.8</ele>
        <time>2016-01-23T14:03:33Z</time>
      </trkpt>
      <trkpt lat="43.48228" lon="6.08088">
        <ele>158.6</ele>
        <time>2016-01-23T14:03:34Z</time>
      </trkpt>
      <trkpt lat="43.4821" lon="6.08102">
        <ele>158.6</ele>
        <time>2016-01-23T14:03:35Z</time>
      </trkpt>
      <trkpt lat="43.48191" lon="6.08116">
        <ele>158.8</ele>
        <time>2016-01-23T14:03:36Z</time>
      </trkpt>
      <trkpt lat="43.4817" lon="6.08129">
        <ele>158.9</ele>
        <time>2016-01-23T14:03:37Z</time>
      </trkpt>
      <trkpt lat="43.4815" lon="6.08141">
        <ele>158.9</ele>
        <time>2016-01-23T14:03:38Z</time>
      </trkpt>
      <trkpt lat="43.4813" lon="6.08154">
        <ele>158.6</ele>
        <time>2016-01-23T14:03:39Z</time>
      </trkpt>
      <trkpt lat="43.48112" lon="6.08167">
        <ele>159</ele>
        <time>2016-01-23T14:03:40Z</time>
      </trkpt>
      <trkpt lat="43.48096" lon="6.0818">
        <ele>159.1</ele>
        <time>2016-01-23T14:03:41Z</time>
      </trkpt>
      <trkpt lat="43.48082" lon="6.08193">
        <ele>159.1</ele>
        <time>2016-01-23T14:03:42Z</time>
      </trkpt>
      <trkpt lat="43.48068" lon="6.08208">
        <ele>159.1</ele>
        <time>2016-01-23T14:03:43Z</time>
      </trkpt>
      <trkpt lat="43.48055" lon="6.08224">
        <ele>159</ele>
        <time>2016-01-23T14:03:44Z</time>
      </trkpt>
      <trkpt lat="43.48043" lon="6.08244">
        <ele>159.4</ele>
        <time>2016-01-23T14:03:45Z</time>
      </trkpt>
      <trkpt lat="43.48035" lon="6.08271">
        <ele>159.2</ele>
        <time>2016-01-23T14:03:46Z</time>
      </trkpt>
      <trkpt lat="43.48025" lon="6.08298">
        <ele>159</ele>
        <time>2016-01-23T14:03:47Z</time>
      </trkpt>
      <trkpt lat="43.48016" lon="6.08326">
        <ele>158.6</ele>
        <time>2016-01-23T14:03:48Z</time>
      </trkpt>
      <trkpt lat="43.48006" lon="6.08354">
        <ele>158.8</ele>
        <time>2016-01-23T14:03:49Z</time>
      </trkpt>
      <trkpt lat="43.47997" lon="6.08382">
        <ele>159</ele>
        <time>2016-01-23T14:03:50Z</time>
      </trkpt>
      <trkpt lat="43.47989" lon="6.08411">
        <ele>158.2</ele>
        <time>2016-01-23T14:03:51Z</time>
      </trkpt>
      <trkpt lat="43.47982" lon="6.08442">
        <ele>158</ele>
        <time>2016-01-23T14:03:52Z</time>
      </trkpt>
      <trkpt lat="43.47975" lon="6.08474">
        <ele>158</ele>
        <time>2016-01-23T14:03:53Z</time>
      </trkpt>
      <trkpt lat="43.47965" lon="6.08505">
        <ele>158.6</ele>
        <time>2016-01-23T14:03:54Z</time>
      </trkpt>
      <trkpt lat="43.47954" lon="6.08536">
        <ele>158.2</ele>
        <time>2016-01-23T14:03:55Z</time>
      </trkpt>
      <trkpt lat="43.47942" lon="6.08565">
        <ele>158.6</ele>
        <time>2016-01-23T14:03:56Z</time>
      </trkpt>
      <trkpt lat="43.47931" lon="6.08592">
        <ele>158.2</ele>
        <time>2016-01-23T14:03:57Z</time>
      </trkpt>
      <trkpt lat="43.47919" lon="6.08618">
        <ele>158.9</ele>
        <time>2016-01-23T14:03:58Z</time>
      </trkpt>
      <trkpt lat="43.47909" lon="6.08643">
        <ele>160</ele>
        <time>2016-01-23T14:03:59Z</time>
      </trkpt>
      <trkpt lat="43.479" lon="6.08666">
        <ele>161.6</ele>
        <time>2016-01-23T14:04:00Z</time>
      </trkpt>
      <trkpt lat="43.47893" lon="6.0869">
        <ele>163.2</ele>
        <time>2016-01-23T14:04:01Z</time>
      </trkpt>
      <trkpt lat="43.47886" lon="6.08716">
        <ele>165.5</ele>
        <time>2016-01-23T14:04:02Z</time>
      </trkpt>
      <trkpt lat="43.47889" lon="6.08746">
        <ele>165.7</ele>
        <time>2016-01-23T14:04:03Z</time>
      </trkpt>
      <trkpt lat="43.4789" lon="6.08778">
        <ele>165.8</ele>
        <time>2016-01-23T14:04:04Z</time>
      </trkpt>
      <trkpt lat="43.47892" lon="6.0881">
        <ele>166.7</ele>
        <time>2016-01-23T14:04:05Z</time>
      </trkpt>
      <trkpt lat="43.47896" lon="6.08845">
        <ele>167.7</ele>
        <time>2016-01-23T14:04:06Z</time>
      </trkpt>
      <trkpt lat="43.479" lon="6.08879">
        <ele>168.8</ele>
        <time>2016-01-23T14:04:07Z</time>
      </trkpt>
      <trkpt lat="43.47903" lon="6.08912">
        <ele>171.5</ele>
        <time>2016-01-23T14:04:08Z</time>
      </trkpt>
      <trkpt lat="43.47905" lon="6.08945">
        <ele>170.7</ele>
        <time>2016-01-23T14:04:09Z</time>
      </trkpt>
      <trkpt lat="43.47907" lon="6.08978">
        <ele>169.4</ele>
        <time>2016-01-23T14:04:10Z</time>
      </trkpt>
      <trkpt lat="43.47907" lon="6.09009">
        <ele>169.2</ele>
        <time>2016-01-23T14:04:11Z</time>
      </trkpt>
      <trkpt lat="43.47906" lon="6.09039">
        <ele>172.5</ele>
        <time>2016-01-23T14:04:12Z</time>
      </trkpt>
      <trkpt lat="43.47905" lon="6.09067">
        <ele>176.4</ele>
        <time>2016-01-23T14:04:13Z</time>
      </trkpt>
      <trkpt lat="43.47905" lon="6.09093">
        <ele>178.2</ele>
        <time>2016-01-23T14:04:14Z</time>
      </trkpt>
      <trkpt lat="43.47903" lon="6.09117">
        <ele>178.1</ele>
        <time>2016-01-23T14:04:15Z</time>
      </trkpt>
      <trkpt lat="43.479" lon="6.0914">
        <ele>177.1</ele>
        <time>2016-01-23T14:04:16Z</time>
      </trkpt>
      <trkpt lat="43.47895" lon="6.0916">
        <ele>176.4</ele>
        <time>2016-01-23T14:04:17Z</time>
      </trkpt>
      <trkpt lat="43.47884" lon="6.09174">
        <ele>176.9</ele>
        <time>2016-01-23T14:04:18Z</time>
      </trkpt>
      <trkpt lat="43.47875" lon="6.09186">
        <ele>177.8</ele>
        <time>2016-01-23T14:04:19Z</time>
      </trkpt>
      <trkpt lat="43.47862" lon="6.09194">
        <ele>178.1</ele>
        <time>2016-01-23T14:04:20Z</time>
      </trkpt>
      <trkpt lat="43.47847" lon="6.092">
        <ele>177.3</ele>
        <time>2016-01-23T14:04:21Z</time>
      </trkpt>
      <trkpt lat="43.4783" lon="6.09206">
        <ele>177</ele>
        <time>2016-01-23T14:04:22Z</time>
      </trkpt>
      <trkpt lat="43.47814" lon="6.0921">
        <ele>176.1</ele>
        <time>2016-01-23T14:04:23Z</time>
      </trkpt>
      <trkpt lat="43.47796" lon="6.09215">
        <ele>174.8</ele>
        <time>2016-01-23T14:04:24Z</time>
      </trkpt>
      <trkpt lat="43.47779" lon="6.09223">
        <ele>172</ele>
        <time>2016-01-23T14:04:25Z</time>
      </trkpt>
      <trkpt lat="43.47762" lon="6.09234">
        <ele>171.5</ele>
        <time>2016-01-23T14:04:26Z</time>
      </trkpt>
      <trkpt lat="43.47745" lon="6.09246">
        <ele>169.9</ele>
        <time>2016-01-23T14:04:27Z</time>
      </trkpt>
      <trkpt lat="43.47728" lon="6.09256">
        <ele>167.8</ele>
        <time>2016-01-23T14:04:28Z</time>
      </trkpt>
      <trkpt lat="43.4771" lon="6.09265">
        <ele>165.2</ele>
        <time>2016-01-23T14:04:29Z</time>
      </trkpt>
      <trkpt lat="43.4769" lon="6.09273">
        <ele>163</ele>
        <time>2016-01-23T14:04:30Z</time>
      </trkpt>
      <trkpt lat="43.47669" lon="6.09283">
        <ele>163.2</ele>
        <time>2016-01-23T14:04:31Z</time>
      </trkpt>
      <trkpt lat="43.47649" lon="6.09293">
        <ele>161.8</ele>
        <time>2016-01-23T14:04:32Z</time>
      </trkpt>
      <trkpt lat="43.4763" lon="6.09304">
        <ele>161.4</ele>
        <time>2016-01-23T14:04:33Z</time>
      </trkpt>
      <trkpt lat="43.47613" lon="6.09317">
        <ele>162.5</ele>
        <time>2016-01-23T14:04:34Z</time>
      </trkpt>
      <trkpt lat="43.47601" lon="6.09333">
        <ele>164</ele>
        <time>2016-01-23T14:04:35Z</time>
      </trkpt>
      <trkpt lat="43.4759" lon="6.0935">
        <ele>165.6</ele>
        <time>2016-01-23T14:04:36Z</time>
      </trkpt>
      <trkpt lat="43.47581" lon="6.09369">
        <ele>166.3</ele>
        <time>2016-01-23T14:04:37Z</time>
      </trkpt>
      <trkpt lat="43.47575" lon="6.0939">
        <ele>168.2</ele>
        <time>2016-01-23T14:04:38Z</time>
      </trkpt>
      <trkpt lat="43.47572" lon="6.09412">
        <ele>169.1</ele>
        <time>2016-01-23T14:04:39Z</time>
      </trkpt>
      <trkpt lat="43.47568" lon="6.09434">
        <ele>169.3</ele>
        <time>2016-01-23T14:04:40Z</time>
      </trkpt>
      <trkpt lat="43.47562" lon="6.09457">
        <ele>168.9</ele>
        <time>2016-01-23T14:04:41Z</time>
      </trkpt>
      <trkpt lat="43.47555" lon="6.09478">
        <ele>169</ele>
        <time>2016-01-23T14:04:42Z</time>
      </trkpt>
      <trkpt lat="43.47548" lon="6.09498">
        <ele>169.1</ele>
        <time>2016-01-23T14:04:43Z</time>
      </trkpt>
      <trkpt lat="43.47541" lon="6.09516">
        <ele>166.8</ele>
        <time>2016-01-23T14:04:44Z</time>
      </trkpt>
      <trkpt lat="43.47532" lon="6.0953">
        <ele>163.3</ele>
        <time>2016-01-23T14:04:45Z</time>
      </trkpt>
      <trkpt lat="43.47524" lon="6.09543">
        <ele>160</ele>
        <time>2016-01-23T14:04:46Z</time>
      </trkpt>
      <trkpt lat="43.47515" lon="6.09553">
        <ele>158</ele>
        <time>2016-01-23T14:04:47Z</time>
      </trkpt>
      <trkpt lat="43.47503" lon="6.0956">
        <ele>157.9</ele>
        <time>2016-01-23T14:04:48Z</time>
      </trkpt>
      <trkpt lat="43.47484" lon="6.09568">
        <ele>157.7</ele>
        <time>2016-01-23T14:04:49Z</time>
      </trkpt>
      <trkpt lat="43.47466" lon="6.09579">
        <ele>156.8</ele>
        <time>2016-01-23T14:04:50Z</time>
      </trkpt>
      <trkpt lat="43.47448" lon="6.09594">
        <ele>158.2</ele>
        <time>2016-01-23T14:04:51Z</time>
      </trkpt>
      <trkpt lat="43.47428" lon="6.09611">
        <ele>158.2</ele>
        <time>2016-01-23T14:04:52Z</time>
      </trkpt>
      <trkpt lat="43.47404" lon="6.0963">
        <ele>161.1</ele>
        <time>2016-01-23T14:04:53Z</time>
      </trkpt>
      <trkpt lat="43.47382" lon="6.09648">
        <ele>162.1</ele>
        <time>2016-01-23T14:04:54Z</time>
      </trkpt>
      <trkpt lat="43.47361" lon="6.09666">
        <ele>162.6</ele>
        <time>2016-01-23T14:04:55Z</time>
      </trkpt>
      <trkpt lat="43.4734" lon="6.09682">
        <ele>163.7</ele>
        <time>2016-01-23T14:04:56Z</time>
      </trkpt>
      <trkpt lat="43.47319" lon="6.09697">
        <ele>162.7</ele>
        <time>2016-01-23T14:04:57Z</time>
      </trkpt>
      <trkpt lat="43.47298" lon="6.09711">
        <ele>162.6</ele>
        <time>2016-01-23T14:04:58Z</time>
      </trkpt>
      <trkpt lat="43.47275" lon="6.09723">
        <ele>162.4</ele>
        <time>2016-01-23T14:04:59Z</time>
      </trkpt>
      <trkpt lat="43.4725" lon="6.09734">
        <ele>162.2</ele>
        <time>2016-01-23T14:05:00Z</time>
      </trkpt>
      <trkpt lat="43.47225" lon="6.09746">
        <ele>162.9</ele>
        <time>2016-01-23T14:05:01Z</time>
      </trkpt>
      <trkpt lat="43.47202" lon="6.09757">
        <ele>163.5</ele>
        <time>2016-01-23T14:05:02Z</time>
      </trkpt>
      <trkpt lat="43.4718" lon="6.09767">
        <ele>163.4</ele>
        <time>2016-01-23T14:05:03Z</time>
      </trkpt>
      <trkpt lat="43.47159" lon="6.09778">
        <ele>164.1</ele>
        <time>2016-01-23T14:05:04Z</time>
      </trkpt>
      <trkpt lat="43.4714" lon="6.09787">
        <ele>163.8</ele>
        <time>2016-01-23T14:05:05Z</time>
      </trkpt>
      <trkpt lat="43.47121" lon="6.09795">
        <ele>161.7</ele>
        <time>2016-01-23T14:05:06Z</time>
      </trkpt>
      <trkpt lat="43.47103" lon="6.09801">
        <ele>160.2</ele>
        <time>2016-01-23T14:05:07Z</time>
      </trkpt>
      <trkpt lat="43.47086" lon="6.09803">
        <ele>161.4</ele>
        <time>2016-01-23T14:05:08Z</time>
      </trkpt>
      <trkpt lat="43.47069" lon="6.09803">
        <ele>161.2</ele>
        <time>2016-01-23T14:05:09Z</time>
      </trkpt>
      <trkpt lat="43.47052" lon="6.09801">
        <ele>161.1</ele>
        <time>2016-01-23T14:05:10Z</time>
      </trkpt>
      <trkpt lat="43.47035" lon="6.098">
        <ele>161.5</ele>
        <time>2016-01-23T14:05:11Z</time>
      </trkpt>
      <trkpt lat="43.47019" lon="6.09801">
        <ele>161.6</ele>
        <time>2016-01-23T14:05:12Z</time>
      </trkpt>
      <trkpt lat="43.47002" lon="6.09805">
        <ele>161.9</ele>
        <time>2016-01-23T14:05:13Z</time>
      </trkpt>
      <trkpt lat="43.46984" lon="6.09808">
        <ele>160.9</ele>
        <time>2016-01-23T14:05:14Z</time>
      </trkpt>
      <trkpt lat="43.46967" lon="6.09813">
        <ele>159.9</ele>
        <time>2016-01-23T14:05:15Z</time>
      </trkpt>
      <trkpt lat="43.4695" lon="6.09821">
        <ele>159.1</ele>
        <time>2016-01-23T14:05:16Z</time>
      </trkpt>
      <trkpt lat="43.46933" lon="6.09833">
        <ele>160.6</ele>
        <time>2016-01-23T14:05:17Z</time>
      </trkpt>
      <trkpt lat="43.46915" lon="6.09846">
        <ele>160.9</ele>
        <time>2016-01-23T14:05:18Z</time>
      </trkpt>
      <trkpt lat="43.46898" lon="6.09858">
        <ele>159.2</ele>
        <time>2016-01-23T14:05:19Z</time>
      </trkpt>
      <trkpt lat="43.46881" lon="6.09869">
        <ele>159.6</ele>
        <time>2016-01-23T14:05:20Z</time>
      </trkpt>
      <trkpt lat="43.46865" lon="6.09883">
        <ele>160</ele>
        <time>2016-01-23T14:05:21Z</time>
      </trkpt>
      <trkpt lat="43.46849" lon="6.09901">
        <ele>161.5</ele>
        <time>2016-01-23T14:05:22Z</time>
      </trkpt>
      <trkpt lat="43.46833" lon="6.0992">
        <ele>160.5</ele>
        <time>2016-01-23T14:05:23Z</time>
      </trkpt>
      <trkpt lat="43.46817" lon="6.0994">
        <ele>159.9</ele>
        <time>2016-01-23T14:05:24Z</time>
      </trkpt>
      <trkpt lat="43.46804" lon="6.09961">
        <ele>158.8</ele>
        <time>2016-01-23T14:05:25Z</time>
      </trkpt>
      <trkpt lat="43.4679" lon="6.09982">
        <ele>160.5</ele>
        <time>2016-01-23T14:05:26Z</time>
      </trkpt>
      <trkpt lat="43.46778" lon="6.10006">
        <ele>161</ele>
        <time>2016-01-23T14:05:27Z</time>
      </trkpt>
      <trkpt lat="43.46769" lon="6.10033">
        <ele>160.7</ele>
        <time>2016-01-23T14:05:28Z</time>
      </trkpt>
      <trkpt lat="43.46762" lon="6.10063">
        <ele>161.2</ele>
        <time>2016-01-23T14:05:29Z</time>
      </trkpt>
      <trkpt lat="43.46755" lon="6.10093">
        <ele>159.9</ele>
        <time>2016-01-23T14:05:30Z</time>
      </trkpt>
      <trkpt lat="43.46748" lon="6.10122">
        <ele>158.2</ele>
        <time>2016-01-23T14:05:31Z</time>
      </trkpt>
      <trkpt lat="43.46741" lon="6.1015">
        <ele>159</ele>
        <time>2016-01-23T14:05:32Z</time>
      </trkpt>
      <trkpt lat="43.46735" lon="6.10177">
        <ele>159</ele>
        <time>2016-01-23T14:05:33Z</time>
      </trkpt>
      <trkpt lat="43.46732" lon="6.10204">
        <ele>157.8</ele>
        <time>2016-01-23T14:05:34Z</time>
      </trkpt>
      <trkpt lat="43.4673" lon="6.1023">
        <ele>157.8</ele>
        <time>2016-01-23T14:05:35Z</time>
      </trkpt>
      <trkpt lat="43.4673" lon="6.10256">
        <ele>158.6</ele>
        <time>2016-01-23T14:05:36Z</time>
      </trkpt>
      <trkpt lat="43.46731" lon="6.10282">
        <ele>159.2</ele>
        <time>2016-01-23T14:05:37Z</time>
      </trkpt>
      <trkpt lat="43.46733" lon="6.10307">
        <ele>159.5</ele>
        <time>2016-01-23T14:05:38Z</time>
      </trkpt>
      <trkpt lat="43.46733" lon="6.10333">
        <ele>158.9</ele>
        <time>2016-01-23T14:05:39Z</time>
      </trkpt>
      <trkpt lat="43.46732" lon="6.10362">
        <ele>157.5</ele>
        <time>2016-01-23T14:05:40Z</time>
      </trkpt>
      <trkpt lat="43.4673" lon="6.10391">
        <ele>156</ele>
        <time>2016-01-23T14:05:41Z</time>
      </trkpt>
      <trkpt lat="43.46728" lon="6.1042">
        <ele>156.7</ele>
        <time>2016-01-23T14:05:42Z</time>
      </trkpt>
      <trkpt lat="43.46724" lon="6.10447">
        <ele>157.3</ele>
        <time>2016-01-23T14:05:43Z</time>
      </trkpt>
      <trkpt lat="43.46718" lon="6.10474">
        <ele>155.5</ele>
        <time>2016-01-23T14:05:44Z</time>
      </trkpt>
      <trkpt lat="43.46711" lon="6.105">
        <ele>156.8</ele>
        <time>2016-01-23T14:05:45Z</time>
      </trkpt>
      <trkpt lat="43.46708" lon="6.10525">
        <ele>156.1</ele>
        <time>2016-01-23T14:05:46Z</time>
      </trkpt>
      <trkpt lat="43.46705" lon="6.10552">
        <ele>154.9</ele>
        <time>2016-01-23T14:05:47Z</time>
      </trkpt>
      <trkpt lat="43.46702" lon="6.10581">
        <ele>154.7</ele>
        <time>2016-01-23T14:05:48Z</time>
      </trkpt>
      <trkpt lat="43.46701" lon="6.10614">
        <ele>154.8</ele>
        <time>2016-01-23T14:05:49Z</time>
      </trkpt>
      <trkpt lat="43.46701" lon="6.10649">
        <ele>154.4</ele>
        <time>2016-01-23T14:05:50Z</time>
      </trkpt>
      <trkpt lat="43.46703" lon="6.10684">
        <ele>153.7</ele>
        <time>2016-01-23T14:05:51Z</time>
      </trkpt>
      <trkpt lat="43.46706" lon="6.10719">
        <ele>153.1</ele>
        <time>2016-01-23T14:05:52Z</time>
      </trkpt>
      <trkpt lat="43.46709" lon="6.10753">
        <ele>152.5</ele>
        <time>2016-01-23T14:05:53Z</time>
      </trkpt>
      <trkpt lat="43.46712" lon="6.10787">
        <ele>152.4</ele>
        <time>2016-01-23T14:05:54Z</time>
      </trkpt>
      <trkpt lat="43.46714" lon="6.10817">
        <ele>152.3</ele>
        <time>2016-01-23T14:05:55Z</time>
      </trkpt>
      <trkpt lat="43.46715" lon="6.10845">
        <ele>151.8</ele>
        <time>2016-01-23T14:05:56Z</time>
      </trkpt>
      <trkpt lat="43.46716" lon="6.10871">
        <ele>151.2</ele>
        <time>2016-01-23T14:05:57Z</time>
      </trkpt>
      <trkpt lat="43.46715" lon="6.10895">
        <ele>151.1</ele>
        <time>2016-01-23T14:05:58Z</time>
      </trkpt>
      <trkpt lat="43.4671" lon="6.10917">
        <ele>150.4</ele>
        <time>2016-01-23T14:05:59Z</time>
      </trkpt>
      <trkpt lat="43.46702" lon="6.10939">
        <ele>150.1</ele>
        <time>2016-01-23T14:06:00Z</time>
      </trkpt>
      <trkpt lat="43.46689" lon="6.10961">
        <ele>150.2</ele>
        <time>2016-01-23T14:06:01Z</time>
      </trkpt>
      <trkpt lat="43.46672" lon="6.10983">
        <ele>150.4</ele>
        <time>2016-01-23T14:06:02Z</time>
      </trkpt>
      <trkpt lat="43.46656" lon="6.11006">
        <ele>150.3</ele>
        <time>2016-01-23T14:06:03Z</time>
      </trkpt>
      <trkpt lat="43.4664" lon="6.11029">
        <ele>150</ele>
        <time>2016-01-23T14:06:04Z</time>
      </trkpt>
      <trkpt lat="43.46626" lon="6.11051">
        <ele>150.1</ele>
        <time>2016-01-23T14:06:05Z</time>
      </trkpt>
      <trkpt lat="43.46612" lon="6.11072">
        <ele>149.4</ele>
        <time>2016-01-23T14:06:06Z</time>
      </trkpt>
      <trkpt lat="43.466" lon="6.11091">
        <ele>149.3</ele>
        <time>2016-01-23T14:06:07Z</time>
      </trkpt>
      <trkpt lat="43.46589" lon="6.11108">
        <ele>149.1</ele>
        <time>2016-01-23T14:06:08Z</time>
      </trkpt>
      <trkpt lat="43.4658" lon="6.11122">
        <ele>149.1</ele>
        <time>2016-01-23T14:06:09Z</time>
      </trkpt>
      <trkpt lat="43.46572" lon="6.11134">
        <ele>149.1</ele>
        <time>2016-01-23T14:06:10Z</time>
      </trkpt>
      <trkpt lat="43.46566" lon="6.11143">
        <ele>148.9</ele>
        <time>2016-01-23T14:06:11Z</time>
      </trkpt>
      <trkpt lat="43.46561" lon="6.11149">
        <ele>148.9</ele>
        <time>2016-01-23T14:06:12Z</time>
      </trkpt>
      <trkpt lat="43.46557" lon="6.11153">
        <ele>149</ele>
        <time>2016-01-23T14:06:13Z</time>
      </trkpt>
      <trkpt lat="43.46553" lon="6.11153">
        <ele>149</ele>
        <time>2016-01-23T14:06:14Z</time>
      </trkpt>
      <trkpt lat="43.46551" lon="6.11153">
        <ele>149</ele>
        <time>2016-01-23T14:06:15Z</time>
      </trkpt>
      <trkpt lat="43.4655" lon="6.11153">
        <ele>149</ele>
        <time>2016-01-23T14:06:16Z</time>
      </trkpt>
      <trkpt lat="43.46549" lon="6.11153">
        <ele>149</ele>
        <time>2016-01-23T14:06:17Z</time>
      </trkpt>
      <trkpt lat="43.46548" lon="6.11154">
        <ele>149</ele>
        <time>2016-01-23T14:06:18Z</time>
      </trkpt>
      <trkpt lat="43.46548" lon="6.11153">
        <ele>149</ele>
        <time>2016-01-23T14:06:19Z</time>
      </trkpt>
      <trkpt lat="43.46548" lon="6.11152">
        <ele>149</ele>
        <time>2016-01-23T14:06:20Z</time>
      </trkpt>
      <trkpt lat="43.46548" lon="6.11152">
        <ele>149</ele>
        <time>2016-01-23T14:06:21Z</time>
      </trkpt>
      <trkpt lat="43.46548" lon="6.11152">
        <ele>149</ele>
        <time>2016-01-23T14:06:22Z</time>
      </trkpt>
      <trkpt lat="43.46548" lon="6.11153">
        <ele>149</ele>
        <time>2016-01-23T14:06:23Z</time>
      </trkpt>
      <trkpt lat="43.46546" lon="6.11155">
        <ele>149</ele>
        <time>2016-01-23T14:06:24Z</time>
      </trkpt>
      <trkpt lat="43.46544" lon="6.11158">
        <ele>149</ele>
        <time>2016-01-23T14:06:25Z</time>
      </trkpt>
      <trkpt lat="43.46542" lon="6.11161">
        <ele>149</ele>
        <time>2016-01-23T14:06:26Z</time>
      </trkpt>
      <trkpt lat="43.4654" lon="6.11165">
        <ele>149</ele>
        <time>2016-01-23T14:06:27Z</time>
      </trkpt>
      <trkpt lat="43.46538" lon="6.11171">
        <ele>148.9</ele>
        <time>2016-01-23T14:06:28Z</time>
      </trkpt>
      <trkpt lat="43.46535" lon="6.11178">
        <ele>148.6</ele>
        <time>2016-01-23T14:06:29Z</time>
      </trkpt>
      <trkpt lat="43.46531" lon="6.11187">
        <ele>148.3</ele>
        <time>2016-01-23T14:06:30Z</time>
      </trkpt>
      <trkpt lat="43.46525" lon="6.11198">
        <ele>147.9</ele>
        <time>2016-01-23T14:06:31Z</time>
      </trkpt>
      <trkpt lat="43.46516" lon="6.11213">
        <ele>147.4</ele>
        <time>2016-01-23T14:06:32Z</time>
      </trkpt>
      <trkpt lat="43.46506" lon="6.1123">
        <ele>147</ele>
        <time>2016-01-23T14:06:33Z</time>
      </trkpt>
      <trkpt lat="43.46494" lon="6.11249">
        <ele>147</ele>
        <time>2016-01-23T14:06:34Z</time>
      </trkpt>
      <trkpt lat="43.46482" lon="6.11268">
        <ele>146.8</ele>
        <time>2016-01-23T14:06:35Z</time>
      </trkpt>
      <trkpt lat="43.46472" lon="6.11285">
        <ele>147</ele>
        <time>2016-01-23T14:06:36Z</time>
      </trkpt>
      <trkpt lat="43.46462" lon="6.11303">
        <ele>147</ele>
        <time>2016-01-23T14:06:37Z</time>
      </trkpt>
      <trkpt lat="43.46452" lon="6.1132">
        <ele>146.9</ele>
        <time>2016-01-23T14:06:38Z</time>
      </trkpt>
      <trkpt lat="43.46442" lon="6.11337">
        <ele>147.2</ele>
        <time>2016-01-23T14:06:39Z</time>
      </trkpt>
      <trkpt lat="43.46432" lon="6.11354">
        <ele>147.6</ele>
        <time>2016-01-23T14:06:40Z</time>
      </trkpt>
      <trkpt lat="43.46421" lon="6.11372">
        <ele>147.8</ele>
        <time>2016-01-23T14:06:41Z</time>
      </trkpt>
      <trkpt lat="43.46411" lon="6.11389">
        <ele>148.4</ele>
        <time>2016-01-23T14:06:42Z</time>
      </trkpt>
      <trkpt lat="43.46399" lon="6.11406">
        <ele>148.5</ele>
        <time>2016-01-23T14:06:43Z</time>
      </trkpt>
      <trkpt lat="43.46387" lon="6.11422">
        <ele>147.7</ele>
        <time>2016-01-23T14:06:44Z</time>
      </trkpt>
      <trkpt lat="43.46373" lon="6.11435">
        <ele>147.1</ele>
        <time>2016-01-23T14:06:45Z</time>
      </trkpt>
      <trkpt lat="43.46359" lon="6.11446">
        <ele>146.7</ele>
        <time>2016-01-23T14:06:46Z</time>
      </trkpt>
      <trkpt lat="43.46345" lon="6.11454">
        <ele>144.9</ele>
        <time>2016-01-23T14:06:47Z</time>
      </trkpt>
      <trkpt lat="43.46331" lon="6.11459">
        <ele>143.9</ele>
        <time>2016-01-23T14:06:48Z</time>
      </trkpt>
      <trkpt lat="43.46319" lon="6.11464">
        <ele>145.8</ele>
        <time>2016-01-23T14:06:49Z</time>
      </trkpt>
      <trkpt lat="43.46308" lon="6.11472">
        <ele>147.5</ele>
        <time>2016-01-23T14:06:50Z</time>
      </trkpt>
      <trkpt lat="43.46299" lon="6.11482">
        <ele>149</ele>
        <time>2016-01-23T14:06:51Z</time>
      </trkpt>
      <trkpt lat="43.46292" lon="6.11495">
        <ele>150.6</ele>
        <time>2016-01-23T14:06:52Z</time>
      </trkpt>
      <trkpt lat="43.46288" lon="6.1151">
        <ele>151.7</ele>
        <time>2016-01-23T14:06:53Z</time>
      </trkpt>
      <trkpt lat="43.46285" lon="6.11523">
        <ele>152.2</ele>
        <time>2016-01-23T14:06:54Z</time>
      </trkpt>
      <trkpt lat="43.46283" lon="6.11534">
        <ele>152.9</ele>
        <time>2016-01-23T14:06:55Z</time>
      </trkpt>
      <trkpt lat="43.46292" lon="6.11546">
        <ele>153.7</ele>
        <time>2016-01-23T14:06:56Z</time>
      </trkpt>
      <trkpt lat="43.463" lon="6.11555">
        <ele>155.4</ele>
        <time>2016-01-23T14:06:57Z</time>
      </trkpt>
      <trkpt lat="43.46312" lon="6.11566">
        <ele>159</ele>
        <time>2016-01-23T14:06:58Z</time>
      </trkpt>
      <trkpt lat="43.46323" lon="6.1158">
        <ele>162.4</ele>
        <time>2016-01-23T14:06:59Z</time>
      </trkpt>
      <trkpt lat="43.46333" lon="6.11596">
        <ele>164.7</ele>
        <time>2016-01-23T14:07:00Z</time>
      </trkpt>
      <trkpt lat="43.46343" lon="6.11614">
        <ele>163.8</ele>
        <time>2016-01-23T14:07:01Z</time>
      </trkpt>
      <trkpt lat="43.46353" lon="6.11632">
        <ele>161.9</ele>
        <time>2016-01-23T14:07:02Z</time>
      </trkpt>
      <trkpt lat="43.46362" lon="6.11651">
        <ele>160.1</ele>
        <time>2016-01-23T14:07:03Z</time>
      </trkpt>
      <trkpt lat="43.46369" lon="6.11671">
        <ele>159.2</ele>
        <time>2016-01-23T14:07:04Z</time>
      </trkpt>
      <trkpt lat="43.46374" lon="6.11694">
        <ele>157.3</ele>
        <time>2016-01-23T14:07:05Z</time>
      </trkpt>
      <trkpt lat="43.46379" lon="6.1172">
        <ele>155.3</ele>
        <time>2016-01-23T14:07:06Z</time>
      </trkpt>
      <trkpt lat="43.46385" lon="6.11748">
        <ele>151.7</ele>
        <time>2016-01-23T14:07:07Z</time>
      </trkpt>
      <trkpt lat="43.46385" lon="6.11781">
        <ele>151.2</ele>
        <time>2016-01-23T14:07:08Z</time>
      </trkpt>
      <trkpt lat="43.46385" lon="6.11815">
        <ele>151</ele>
        <time>2016-01-23T14:07:09Z</time>
      </trkpt>
      <trkpt lat="43.46384" lon="6.11849">
        <ele>150.7</ele>
        <time>2016-01-23T14:07:10Z</time>
      </trkpt>
      <trkpt lat="43.46382" lon="6.11884">
        <ele>150.6</ele>
        <time>2016-01-23T14:07:11Z</time>
      </trkpt>
      <trkpt lat="43.4638" lon="6.11917">
        <ele>149.9</ele>
        <time>2016-01-23T14:07:12Z</time>
      </trkpt>
      <trkpt lat="43.46379" lon="6.1195">
        <ele>149.8</ele>
        <time>2016-01-23T14:07:13Z</time>
      </trkpt>
      <trkpt lat="43.46378" lon="6.1198">
        <ele>149.6</ele>
        <time>2016-01-23T14:07:14Z</time>
      </trkpt>
      <trkpt lat="43.46378" lon="6.1201">
        <ele>149.7</ele>
        <time>2016-01-23T14:07:15Z</time>
      </trkpt>
      <trkpt lat="43.46381" lon="6.12039">
        <ele>150.1</ele>
        <time>2016-01-23T14:07:16Z</time>
      </trkpt>
      <trkpt lat="43.46385" lon="6.12068">
        <ele>150.2</ele>
        <time>2016-01-23T14:07:17Z</time>
      </trkpt>
      <trkpt lat="43.46392" lon="6.12096">
        <ele>150.6</ele>
        <time>2016-01-23T14:07:18Z</time>
      </trkpt>
      <trkpt lat="43.464" lon="6.12123">
        <ele>150.8</ele>
        <time>2016-01-23T14:07:19Z</time>
      </trkpt>
      <trkpt lat="43.46408" lon="6.12149">
        <ele>150.4</ele>
        <time>2016-01-23T14:07:20Z</time>
      </trkpt>
      <trkpt lat="43.46414" lon="6.12175">
        <ele>150</ele>
        <time>2016-01-23T14:07:21Z</time>
      </trkpt>
      <trkpt lat="43.46418" lon="6.122">
        <ele>148.9</ele>
        <time>2016-01-23T14:07:22Z</time>
      </trkpt>
      <trkpt lat="43.46421" lon="6.12225">
        <ele>148.6</ele>
        <time>2016-01-23T14:07:23Z</time>
      </trkpt>
      <trkpt lat="43.4642" lon="6.1225">
        <ele>148.5</ele>
        <time>2016-01-23T14:07:24Z</time>
      </trkpt>
      <trkpt lat="43.46416" lon="6.12277">
        <ele>148.1</ele>
        <time>2016-01-23T14:07:25Z</time>
      </trkpt>
      <trkpt lat="43.46408" lon="6.12306">
        <ele>147.3</ele>
        <time>2016-01-23T14:07:26Z</time>
      </trkpt>
      <trkpt lat="43.46402" lon="6.12335">
        <ele>148</ele>
        <time>2016-01-23T14:07:27Z</time>
      </trkpt>
      <trkpt lat="43.46397" lon="6.12364">
        <ele>147.7</ele>
        <time>2016-01-23T14:07:28Z</time>
      </trkpt>
      <trkpt lat="43.46392" lon="6.12394">
        <ele>147.9</ele>
        <time>2016-01-23T14:07:29Z</time>
      </trkpt>
      <trkpt lat="43.46389" lon="6.12424">
        <ele>148</ele>
        <time>2016-01-23T14:07:30Z</time>
      </trkpt>
      <trkpt lat="43.46387" lon="6.12455">
        <ele>147.6</ele>
        <time>2016-01-23T14:07:31Z</time>
      </trkpt>
      <trkpt lat="43.46388" lon="6.12487">
        <ele>147</ele>
        <time>2016-01-23T14:07:32Z</time>
      </trkpt>
      <trkpt lat="43.46387" lon="6.12519">
        <ele>146.3</ele>
        <time>2016-01-23T14:07:33Z</time>
      </trkpt>
      <trkpt lat="43.46385" lon="6.12549">
        <ele>146.1</ele>
        <time>2016-01-23T14:07:34Z</time>
      </trkpt>
      <trkpt lat="43.46383" lon="6.12578">
        <ele>146.2</ele>
        <time>2016-01-23T14:07:35Z</time>
      </trkpt>
      <trkpt lat="43.46379" lon="6.12604">
        <ele>145.9</ele>
        <time>2016-01-23T14:07:36Z</time>
      </trkpt>
      <trkpt lat="43.46377" lon="6.12627">
        <ele>146.2</ele>
        <time>2016-01-23T14:07:37Z</time>
      </trkpt>
      <trkpt lat="43.46378" lon="6.12648">
        <ele>146.4</ele>
        <time>2016-01-23T14:07:38Z</time>
      </trkpt>
      <trkpt lat="43.4638" lon="6.12669">
        <ele>146.3</ele>
        <time>2016-01-23T14:07:39Z</time>
      </trkpt>
      <trkpt lat="43.46385" lon="6.12691">
        <ele>146.2</ele>
        <time>2016-01-23T14:07:40Z</time>
      </trkpt>
      <trkpt lat="43.46391" lon="6.12714">
        <ele>145.9</ele>
        <time>2016-01-23T14:07:41Z</time>
      </trkpt>
      <trkpt lat="43.46398" lon="6.12739">
        <ele>145.7</ele>
        <time>2016-01-23T14:07:42Z</time>
      </trkpt>
      <trkpt lat="43.46403" lon="6.12765">
        <ele>145.5</ele>
        <time>2016-01-23T14:07:43Z</time>
      </trkpt>
      <trkpt lat="43.46406" lon="6.12792">
        <ele>145.4</ele>
        <time>2016-01-23T14:07:44Z</time>
      </trkpt>
      <trkpt lat="43.46405" lon="6.12819">
        <ele>145.7</ele>
        <time>2016-01-23T14:07:45Z</time>
      </trkpt>
      <trkpt lat="43.46402" lon="6.12847">
        <ele>145.8</ele>
        <time>2016-01-23T14:07:46Z</time>
      </trkpt>
      <trkpt lat="43.46398" lon="6.12874">
        <ele>145.7</ele>
        <time>2016-01-23T14:07:47Z</time>
      </trkpt>
      <trkpt lat="43.46394" lon="6.129">
        <ele>145.8</ele>
        <time>2016-01-23T14:07:48Z</time>
      </trkpt>
      <trkpt lat="43.46391" lon="6.12925">
        <ele>145.9</ele>
        <time>2016-01-23T14:07:49Z</time>
      </trkpt>
      <trkpt lat="43.46387" lon="6.12948">
        <ele>146.1</ele>
        <time>2016-01-23T14:07:50Z</time>
      </trkpt>
      <trkpt lat="43.46384" lon="6.12969">
        <ele>146.2</ele>
        <time>2016-01-23T14:07:51Z</time>
      </trkpt>
      <trkpt lat="43.46381" lon="6.12987">
        <ele>145.9</ele>
        <time>2016-01-23T14:07:52Z</time>
      </trkpt>
      <trkpt lat="43.46378" lon="6.13004">
        <ele>145.8</ele>
        <time>2016-01-23T14:07:53Z</time>
      </trkpt>
      <trkpt lat="43.46376" lon="6.13018">
        <ele>146</ele>
        <time>2016-01-23T14:07:54Z</time>
      </trkpt>
      <trkpt lat="43.46373" lon="6.13029">
        <ele>146.1</ele>
        <time>2016-01-23T14:07:55Z</time>
      </trkpt>
      <trkpt lat="43.46372" lon="6.13038">
        <ele>146</ele>
        <time>2016-01-23T14:07:56Z</time>
      </trkpt>
      <trkpt lat="43.46371" lon="6.13046">
        <ele>145.9</ele>
        <time>2016-01-23T14:07:57Z</time>
      </trkpt>
      <trkpt lat="43.46372" lon="6.13054">
        <ele>145.6</ele>
        <time>2016-01-23T14:07:58Z</time>
      </trkpt>
      <trkpt lat="43.46376" lon="6.13063">
        <ele>145.5</ele>
        <time>2016-01-23T14:07:59Z</time>
      </trkpt>
      <trkpt lat="43.46383" lon="6.13072">
        <ele>145.2</ele>
        <time>2016-01-23T14:08:00Z</time>
      </trkpt>
      <trkpt lat="43.4639" lon="6.13082">
        <ele>145</ele>
        <time>2016-01-23T14:08:01Z</time>
      </trkpt>
      <trkpt lat="43.46399" lon="6.13095">
        <ele>144.8</ele>
        <time>2016-01-23T14:08:02Z</time>
      </trkpt>
      <trkpt lat="43.4641" lon="6.13115">
        <ele>145</ele>
        <time>2016-01-23T14:08:03Z</time>
      </trkpt>
      <trkpt lat="43.46421" lon="6.13136">
        <ele>144.9</ele>
        <time>2016-01-23T14:08:04Z</time>
      </trkpt>
      <trkpt lat="43.4643" lon="6.1316">
        <ele>144.1</ele>
        <time>2016-01-23T14:08:05Z</time>
      </trkpt>
      <trkpt lat="43.46439" lon="6.13186">
        <ele>143.4</ele>
        <time>2016-01-23T14:08:06Z</time>
      </trkpt>
      <trkpt lat="43.46448" lon="6.13213">
        <ele>143</ele>
        <time>2016-01-23T14:08:07Z</time>
      </trkpt>
      <trkpt lat="43.46455" lon="6.13242">
        <ele>142.3</ele>
        <time>2016-01-23T14:08:08Z</time>
      </trkpt>
      <trkpt lat="43.46463" lon="6.13271">
        <ele>142</ele>
        <time>2016-01-23T14:08:09Z</time>
      </trkpt>
      <trkpt lat="43.46469" lon="6.133">
        <ele>141.3</ele>
        <time>2016-01-23T14:08:10Z</time>
      </trkpt>
      <trkpt lat="43.46474" lon="6.1333">
        <ele>141</ele>
        <time>2016-01-23T14:08:11Z</time>
      </trkpt>
      <trkpt lat="43.46479" lon="6.13361">
        <ele>141</ele>
        <time>2016-01-23T14:08:12Z</time>
      </trkpt>
      <trkpt lat="43.46483" lon="6.13392">
        <ele>140.6</ele>
        <time>2016-01-23T14:08:13Z</time>
      </trkpt>
      <trkpt lat="43.46487" lon="6.13423">
        <ele>140</ele>
        <time>2016-01-23T14:08:14Z</time>
      </trkpt>
      <trkpt lat="43.46491" lon="6.13454">
        <ele>140</ele>
        <time>2016-01-23T14:08:15Z</time>
      </trkpt>
      <trkpt lat="43.46495" lon="6.13487">
        <ele>139.9</ele>
        <time>2016-01-23T14:08:16Z</time>
      </trkpt>
      <trkpt lat="43.46499" lon="6.13519">
        <ele>140</ele>
        <time>2016-01-23T14:08:17Z</time>
      </trkpt>
      <trkpt lat="43.46503" lon="6.13551">
        <ele>139.9</ele>
        <time>2016-01-23T14:08:18Z</time>
      </trkpt>
      <trkpt lat="43.46505" lon="6.13584">
        <ele>139</ele>
        <time>2016-01-23T14:08:19Z</time>
      </trkpt>
      <trkpt lat="43.46507" lon="6.13616">
        <ele>139</ele>
        <time>2016-01-23T14:08:20Z</time>
      </trkpt>
      <trkpt lat="43.46508" lon="6.13648">
        <ele>139</ele>
        <time>2016-01-23T14:08:21Z</time>
      </trkpt>
      <trkpt lat="43.46508" lon="6.1368">
        <ele>138.9</ele>
        <time>2016-01-23T14:08:22Z</time>
      </trkpt>
      <trkpt lat="43.46508" lon="6.13712">
        <ele>138.7</ele>
        <time>2016-01-23T14:08:23Z</time>
      </trkpt>
      <trkpt lat="43.4651" lon="6.13744">
        <ele>138.4</ele>
        <time>2016-01-23T14:08:24Z</time>
      </trkpt>
      <trkpt lat="43.46512" lon="6.13776">
        <ele>138.2</ele>
        <time>2016-01-23T14:08:25Z</time>
      </trkpt>
      <trkpt lat="43.46515" lon="6.13809">
        <ele>137.5</ele>
        <time>2016-01-23T14:08:26Z</time>
      </trkpt>
      <trkpt lat="43.4652" lon="6.13841">
        <ele>137.5</ele>
        <time>2016-01-23T14:08:27Z</time>
      </trkpt>
      <trkpt lat="43.46526" lon="6.13873">
        <ele>138</ele>
        <time>2016-01-23T14:08:28Z</time>
      </trkpt>
      <trkpt lat="43.46534" lon="6.13904">
        <ele>137.5</ele>
        <time>2016-01-23T14:08:29Z</time>
      </trkpt>
      <trkpt lat="43.46544" lon="6.13934">
        <ele>137.6</ele>
        <time>2016-01-23T14:08:30Z</time>
      </trkpt>
      <trkpt lat="43.46553" lon="6.13965">
        <ele>138</ele>
        <time>2016-01-23T14:08:31Z</time>
      </trkpt>
      <trkpt lat="43.46563" lon="6.13996">
        <ele>137.9</ele>
        <time>2016-01-23T14:08:32Z</time>
      </trkpt>
      <trkpt lat="43.46572" lon="6.14025">
        <ele>138</ele>
        <time>2016-01-23T14:08:33Z</time>
      </trkpt>
      <trkpt lat="43.46581" lon="6.14054">
        <ele>138</ele>
        <time>2016-01-23T14:08:34Z</time>
      </trkpt>
      <trkpt lat="43.4659" lon="6.14083">
        <ele>138</ele>
        <time>2016-01-23T14:08:35Z</time>
      </trkpt>
      <trkpt lat="43.46599" lon="6.14113">
        <ele>138</ele>
        <time>2016-01-23T14:08:36Z</time>
      </trkpt>
      <trkpt lat="43.46605" lon="6.14143">
        <ele>138</ele>
        <time>2016-01-23T14:08:37Z</time>
      </trkpt>
      <trkpt lat="43.4661" lon="6.14174">
        <ele>138</ele>
        <time>2016-01-23T14:08:38Z</time>
      </trkpt>
      <trkpt lat="43.46612" lon="6.14208">
        <ele>138</ele>
        <time>2016-01-23T14:08:39Z</time>
      </trkpt>
      <trkpt lat="43.46613" lon="6.14243">
        <ele>138</ele>
        <time>2016-01-23T14:08:40Z</time>
      </trkpt>
      <trkpt lat="43.46613" lon="6.14281">
        <ele>138</ele>
        <time>2016-01-23T14:08:41Z</time>
      </trkpt>
      <trkpt lat="43.46613" lon="6.1432">
        <ele>138</ele>
        <time>2016-01-23T14:08:42Z</time>
      </trkpt>
      <trkpt lat="43.46613" lon="6.1436">
        <ele>138</ele>
        <time>2016-01-23T14:08:43Z</time>
      </trkpt>
      <trkpt lat="43.46613" lon="6.14399">
        <ele>138</ele>
        <time>2016-01-23T14:08:44Z</time>
      </trkpt>
      <trkpt lat="43.46613" lon="6.14437">
        <ele>138</ele>
        <time>2016-01-23T14:08:45Z</time>
      </trkpt>
      <trkpt lat="43.46612" lon="6.14472">
        <ele>138</ele>
        <time>2016-01-23T14:08:46Z</time>
      </trkpt>
      <trkpt lat="43.46613" lon="6.14507">
        <ele>138</ele>
        <time>2016-01-23T14:08:47Z</time>
      </trkpt>
      <trkpt lat="43.46613" lon="6.14541">
        <ele>137.9</ele>
        <time>2016-01-23T14:08:48Z</time>
      </trkpt>
      <trkpt lat="43.46613" lon="6.14576">
        <ele>137.3</ele>
        <time>2016-01-23T14:08:49Z</time>
      </trkpt>
      <trkpt lat="43.46612" lon="6.1461">
        <ele>137</ele>
        <time>2016-01-23T14:08:50Z</time>
      </trkpt>
      <trkpt lat="43.46612" lon="6.14644">
        <ele>137</ele>
        <time>2016-01-23T14:08:51Z</time>
      </trkpt>
      <trkpt lat="43.46612" lon="6.14679">
        <ele>137</ele>
        <time>2016-01-23T14:08:52Z</time>
      </trkpt>
      <trkpt lat="43.46611" lon="6.14714">
        <ele>137.7</ele>
        <time>2016-01-23T14:08:53Z</time>
      </trkpt>
      <trkpt lat="43.46611" lon="6.14749">
        <ele>138</ele>
        <time>2016-01-23T14:08:54Z</time>
      </trkpt>
      <trkpt lat="43.4661" lon="6.14783">
        <ele>139</ele>
        <time>2016-01-23T14:08:55Z</time>
      </trkpt>
      <trkpt lat="43.46609" lon="6.14816">
        <ele>139.1</ele>
        <time>2016-01-23T14:08:56Z</time>
      </trkpt>
      <trkpt lat="43.46607" lon="6.14849">
        <ele>139.2</ele>
        <time>2016-01-23T14:08:57Z</time>
      </trkpt>
      <trkpt lat="43.46603" lon="6.14882">
        <ele>139.3</ele>
        <time>2016-01-23T14:08:58Z</time>
      </trkpt>
      <trkpt lat="43.46599" lon="6.14915">
        <ele>139.4</ele>
        <time>2016-01-23T14:08:59Z</time>
      </trkpt>
      <trkpt lat="43.46594" lon="6.14949">
        <ele>140.2</ele>
        <time>2016-01-23T14:09:00Z</time>
      </trkpt>
      <trkpt lat="43.46589" lon="6.14982">
        <ele>140.5</ele>
        <time>2016-01-23T14:09:01Z</time>
      </trkpt>
      <trkpt lat="43.46584" lon="6.15016">
        <ele>140.4</ele>
        <time>2016-01-23T14:09:02Z</time>
      </trkpt>
      <trkpt lat="43.46578" lon="6.15049">
        <ele>139.4</ele>
        <time>2016-01-23T14:09:03Z</time>
      </trkpt>
      <trkpt lat="43.46572" lon="6.15082">
        <ele>138.8</ele>
        <time>2016-01-23T14:09:04Z</time>
      </trkpt>
      <trkpt lat="43.46568" lon="6.15116">
        <ele>139.2</ele>
        <time>2016-01-23T14:09:05Z</time>
      </trkpt>
      <trkpt lat="43.46567" lon="6.15153">
        <ele>139.8</ele>
        <time>2016-01-23T14:09:06Z</time>
      </trkpt>
      <trkpt lat="43.46568" lon="6.1519">
        <ele>140</ele>
        <time>2016-01-23T14:09:07Z</time>
      </trkpt>
      <trkpt lat="43.4657" lon="6.15228">
        <ele>140.5</ele>
        <time>2016-01-23T14:09:08Z</time>
      </trkpt>
      <trkpt lat="43.46573" lon="6.15266">
        <ele>140.4</ele>
        <time>2016-01-23T14:09:09Z</time>
      </trkpt>
      <trkpt lat="43.46575" lon="6.15302">
        <ele>140.5</ele>
        <time>2016-01-23T14:09:10Z</time>
      </trkpt>
      <trkpt lat="43.46577" lon="6.15337">
        <ele>141.2</ele>
        <time>2016-01-23T14:09:11Z</time>
      </trkpt>
      <trkpt lat="43.4658" lon="6.15372">
        <ele>141.1</ele>
        <time>2016-01-23T14:09:12Z</time>
      </trkpt>
      <trkpt lat="43.46583" lon="6.15406">
        <ele>140.4</ele>
        <time>2016-01-23T14:09:13Z</time>
      </trkpt>
      <trkpt lat="43.46587" lon="6.15441">
        <ele>140.6</ele>
        <time>2016-01-23T14:09:14Z</time>
      </trkpt>
      <trkpt lat="43.46591" lon="6.15475">
        <ele>140.4</ele>
        <time>2016-01-23T14:09:15Z</time>
      </trkpt>
      <trkpt lat="43.46596" lon="6.15508">
        <ele>139.5</ele>
        <time>2016-01-23T14:09:16Z</time>
      </trkpt>
      <trkpt lat="43.466" lon="6.15542">
        <ele>138.8</ele>
        <time>2016-01-23T14:09:17Z</time>
      </trkpt>
      <trkpt lat="43.46605" lon="6.15576">
        <ele>138.3</ele>
        <time>2016-01-23T14:09:18Z</time>
      </trkpt>
      <trkpt lat="43.4661" lon="6.1561">
        <ele>139</ele>
        <time>2016-01-23T14:09:19Z</time>
      </trkpt>
      <trkpt lat="43.46615" lon="6.15643">
        <ele>138.9</ele>
        <time>2016-01-23T14:09:20Z</time>
      </trkpt>
      <trkpt lat="43.4662" lon="6.15676">
        <ele>139</ele>
        <time>2016-01-23T14:09:21Z</time>
      </trkpt>
      <trkpt lat="43.46625" lon="6.15709">
        <ele>139.5</ele>
        <time>2016-01-23T14:09:22Z</time>
      </trkpt>
      <trkpt lat="43.4663" lon="6.15741">
        <ele>140.7</ele>
        <time>2016-01-23T14:09:23Z</time>
      </trkpt>
      <trkpt lat="43.46635" lon="6.15773">
        <ele>141.1</ele>
        <time>2016-01-23T14:09:24Z</time>
      </trkpt>
      <trkpt lat="43.46641" lon="6.15805">
        <ele>141.9</ele>
        <time>2016-01-23T14:09:25Z</time>
      </trkpt>
      <trkpt lat="43.46647" lon="6.15836">
        <ele>142.5</ele>
        <time>2016-01-23T14:09:26Z</time>
      </trkpt>
      <trkpt lat="43.46651" lon="6.15868">
        <ele>142.6</ele>
        <time>2016-01-23T14:09:27Z</time>
      </trkpt>
      <trkpt lat="43.46654" lon="6.15901">
        <ele>142.4</ele>
        <time>2016-01-23T14:09:28Z</time>
      </trkpt>
      <trkpt lat="43.46657" lon="6.15936">
        <ele>142.4</ele>
        <time>2016-01-23T14:09:29Z</time>
      </trkpt>
      <trkpt lat="43.46658" lon="6.15971">
        <ele>142.3</ele>
        <time>2016-01-23T14:09:30Z</time>
      </trkpt>
      <trkpt lat="43.46658" lon="6.16006">
        <ele>141.5</ele>
        <time>2016-01-23T14:09:31Z</time>
      </trkpt>
      <trkpt lat="43.46659" lon="6.1604">
        <ele>141.1</ele>
        <time>2016-01-23T14:09:32Z</time>
      </trkpt>
      <trkpt lat="43.46661" lon="6.16074">
        <ele>141</ele>
        <time>2016-01-23T14:09:33Z</time>
      </trkpt>
      <trkpt lat="43.46664" lon="6.16106">
        <ele>141.7</ele>
        <time>2016-01-23T14:09:34Z</time>
      </trkpt>
      <trkpt lat="43.46668" lon="6.16136">
        <ele>140.9</ele>
        <time>2016-01-23T14:09:35Z</time>
      </trkpt>
      <trkpt lat="43.46674" lon="6.16164">
        <ele>140</ele>
        <time>2016-01-23T14:09:36Z</time>
      </trkpt>
      <trkpt lat="43.46681" lon="6.16189">
        <ele>140.8</ele>
        <time>2016-01-23T14:09:37Z</time>
      </trkpt>
      <trkpt lat="43.46686" lon="6.16214">
        <ele>140.5</ele>
        <time>2016-01-23T14:09:38Z</time>
      </trkpt>
      <trkpt lat="43.4669" lon="6.16239">
        <ele>139.7</ele>
        <time>2016-01-23T14:09:39Z</time>
      </trkpt>
      <trkpt lat="43.46691" lon="6.16265">
        <ele>138.1</ele>
        <time>2016-01-23T14:09:40Z</time>
      </trkpt>
      <trkpt lat="43.46685" lon="6.16291">
        <ele>136.9</ele>
        <time>2016-01-23T14:09:41Z</time>
      </trkpt>
      <trkpt lat="43.46679" lon="6.16319">
        <ele>136.5</ele>
        <time>2016-01-23T14:09:42Z</time>
      </trkpt>
      <trkpt lat="43.46673" lon="6.1635">
        <ele>136.3</ele>
        <time>2016-01-23T14:09:43Z</time>
      </trkpt>
      <trkpt lat="43.46666" lon="6.16382">
        <ele>136.2</ele>
        <time>2016-01-23T14:09:44Z</time>
      </trkpt>
      <trkpt lat="43.46658" lon="6.16414">
        <ele>136.4</ele>
        <time>2016-01-23T14:09:45Z</time>
      </trkpt>
      <trkpt lat="43.46648" lon="6.16447">
        <ele>136.3</ele>
        <time>2016-01-23T14:09:46Z</time>
      </trkpt>
      <trkpt lat="43.46638" lon="6.1648">
        <ele>135.9</ele>
        <time>2016-01-23T14:09:47Z</time>
      </trkpt>
      <trkpt lat="43.46624" lon="6.16513">
        <ele>135.8</ele>
        <time>2016-01-23T14:09:48Z</time>
      </trkpt>
      <trkpt lat="43.46609" lon="6.16545">
        <ele>135.6</ele>
        <time>2016-01-23T14:09:49Z</time>
      </trkpt>
      <trkpt lat="43.46594" lon="6.16576">
        <ele>135.8</ele>
        <time>2016-01-23T14:09:50Z</time>
      </trkpt>
      <trkpt lat="43.4658" lon="6.16605">
        <ele>136.4</ele>
        <time>2016-01-23T14:09:51Z</time>
      </trkpt>
      <trkpt lat="43.46565" lon="6.16633">
        <ele>136.8</ele>
        <time>2016-01-23T14:09:52Z</time>
      </trkpt>
      <trkpt lat="43.46551" lon="6.1666">
        <ele>136.5</ele>
        <time>2016-01-23T14:09:53Z</time>
      </trkpt>
      <trkpt lat="43.4654" lon="6.16687">
        <ele>136.6</ele>
        <time>2016-01-23T14:09:54Z</time>
      </trkpt>
      <trkpt lat="43.46531" lon="6.16713">
        <ele>136.8</ele>
        <time>2016-01-23T14:09:55Z</time>
      </trkpt>
      <trkpt lat="43.46524" lon="6.16741">
        <ele>137</ele>
        <time>2016-01-23T14:09:56Z</time>
      </trkpt>
      <trkpt lat="43.4652" lon="6.16768">
        <ele>137</ele>
        <time>2016-01-23T14:09:57Z</time>
      </trkpt>
      <trkpt lat="43.46519" lon="6.16795">
        <ele>137</ele>
        <time>2016-01-23T14:09:58Z</time>
      </trkpt>
      <trkpt lat="43.4652" lon="6.16821">
        <ele>137</ele>
        <time>2016-01-23T14:09:59Z</time>
      </trkpt>
      <trkpt lat="43.46522" lon="6.16847">
        <ele>137.4</ele>
        <time>2016-01-23T14:10:00Z</time>
      </trkpt>
      <trkpt lat="43.46528" lon="6.16873">
        <ele>138</ele>
        <time>2016-01-23T14:10:01Z</time>
      </trkpt>
      <trkpt lat="43.46536" lon="6.16898">
        <ele>139.6</ele>
        <time>2016-01-23T14:10:02Z</time>
      </trkpt>
      <trkpt lat="43.46547" lon="6.16921">
        <ele>142.3</ele>
        <time>2016-01-23T14:10:03Z</time>
      </trkpt>
      <trkpt lat="43.4656" lon="6.16944">
        <ele>143.6</ele>
        <time>2016-01-23T14:10:04Z</time>
      </trkpt>
      <trkpt lat="43.46577" lon="6.16964">
        <ele>143.5</ele>
        <time>2016-01-23T14:10:05Z</time>
      </trkpt>
      <trkpt lat="43.46596" lon="6.16983">
        <ele>141.5</ele>
        <time>2016-01-23T14:10:06Z</time>
      </trkpt>
      <trkpt lat="43.46615" lon="6.17001">
        <ele>139.6</ele>
        <time>2016-01-23T14:10:07Z</time>
      </trkpt>
      <trkpt lat="43.46636" lon="6.17017">
        <ele>139.2</ele>
        <time>2016-01-23T14:10:08Z</time>
      </trkpt>
      <trkpt lat="43.46657" lon="6.17032">
        <ele>139.1</ele>
        <time>2016-01-23T14:10:09Z</time>
      </trkpt>
      <trkpt lat="43.46678" lon="6.17046">
        <ele>139.3</ele>
        <time>2016-01-23T14:10:10Z</time>
      </trkpt>
      <trkpt lat="43.46698" lon="6.17059">
        <ele>139.4</ele>
        <time>2016-01-23T14:10:11Z</time>
      </trkpt>
      <trkpt lat="43.46718" lon="6.17072">
        <ele>138.5</ele>
        <time>2016-01-23T14:10:12Z</time>
      </trkpt>
      <trkpt lat="43.46738" lon="6.17085">
        <ele>137.9</ele>
        <time>2016-01-23T14:10:13Z</time>
      </trkpt>
      <trkpt lat="43.46759" lon="6.17097">
        <ele>137.3</ele>
        <time>2016-01-23T14:10:14Z</time>
      </trkpt>
      <trkpt lat="43.4678" lon="6.17107">
        <ele>137.8</ele>
        <time>2016-01-23T14:10:15Z</time>
      </trkpt>
      <trkpt lat="43.46803" lon="6.17114">
        <ele>140.9</ele>
        <time>2016-01-23T14:10:16Z</time>
      </trkpt>
      <trkpt lat="43.46827" lon="6.17117">
        <ele>140.7</ele>
        <time>2016-01-23T14:10:17Z</time>
      </trkpt>
      <trkpt lat="43.46852" lon="6.17116">
        <ele>141.2</ele>
        <time>2016-01-23T14:10:18Z</time>
      </trkpt>
      <trkpt lat="43.46877" lon="6.17115">
        <ele>139.6</ele>
        <time>2016-01-23T14:10:19Z</time>
      </trkpt>
      <trkpt lat="43.46901" lon="6.17113">
        <ele>137.1</ele>
        <time>2016-01-23T14:10:20Z</time>
      </trkpt>
      <trkpt lat="43.46925" lon="6.17112">
        <ele>135.7</ele>
        <time>2016-01-23T14:10:21Z</time>
      </trkpt>
      <trkpt lat="43.46949" lon="6.17109">
        <ele>135.4</ele>
        <time>2016-01-23T14:10:22Z</time>
      </trkpt>
      <trkpt lat="43.46972" lon="6.17108">
        <ele>137.7</ele>
        <time>2016-01-23T14:10:23Z</time>
      </trkpt>
      <trkpt lat="43.46995" lon="6.17108">
        <ele>136.9</ele>
        <time>2016-01-23T14:10:24Z</time>
      </trkpt>
      <trkpt lat="43.47017" lon="6.1711">
        <ele>136.9</ele>
        <time>2016-01-23T14:10:25Z</time>
      </trkpt>
      <trkpt lat="43.47038" lon="6.17113">
        <ele>137.9</ele>
        <time>2016-01-23T14:10:26Z</time>
      </trkpt>
      <trkpt lat="43.4706" lon="6.17119">
        <ele>140.2</ele>
        <time>2016-01-23T14:10:27Z</time>
      </trkpt>
      <trkpt lat="43.47081" lon="6.17128">
        <ele>141.2</ele>
        <time>2016-01-23T14:10:28Z</time>
      </trkpt>
      <trkpt lat="43.47099" lon="6.17139">
        <ele>141.4</ele>
        <time>2016-01-23T14:10:29Z</time>
      </trkpt>
      <trkpt lat="43.47115" lon="6.17152">
        <ele>141.9</ele>
        <time>2016-01-23T14:10:30Z</time>
      </trkpt>
      <trkpt lat="43.4713" lon="6.17164">
        <ele>142.3</ele>
        <time>2016-01-23T14:10:31Z</time>
      </trkpt>
      <trkpt lat="43.47144" lon="6.17176">
        <ele>142.7</ele>
        <time>2016-01-23T14:10:32Z</time>
      </trkpt>
      <trkpt lat="43.47156" lon="6.17188">
        <ele>143.8</ele>
        <time>2016-01-23T14:10:33Z</time>
      </trkpt>
      <trkpt lat="43.47168" lon="6.17201">
        <ele>144.8</ele>
        <time>2016-01-23T14:10:34Z</time>
      </trkpt>
      <trkpt lat="43.47176" lon="6.17214">
        <ele>146.2</ele>
        <time>2016-01-23T14:10:35Z</time>
      </trkpt>
      <trkpt lat="43.47183" lon="6.17228">
        <ele>147.1</ele>
        <time>2016-01-23T14:10:36Z</time>
      </trkpt>
      <trkpt lat="43.47186" lon="6.17244">
        <ele>145.7</ele>
        <time>2016-01-23T14:10:37Z</time>
      </trkpt>
      <trkpt lat="43.47186" lon="6.17261">
        <ele>145</ele>
        <time>2016-01-23T14:10:38Z</time>
      </trkpt>
      <trkpt lat="43.47184" lon="6.17276">
        <ele>144.9</ele>
        <time>2016-01-23T14:10:39Z</time>
      </trkpt>
      <trkpt lat="43.47183" lon="6.1729">
        <ele>146.1</ele>
        <time>2016-01-23T14:10:40Z</time>
      </trkpt>
      <trkpt lat="43.47183" lon="6.17301">
        <ele>147</ele>
        <time>2016-01-23T14:10:41Z</time>
      </trkpt>
      <trkpt lat="43.47187" lon="6.17309">
        <ele>147.5</ele>
        <time>2016-01-23T14:10:42Z</time>
      </trkpt>
      <trkpt lat="43.4719" lon="6.17315">
        <ele>148</ele>
        <time>2016-01-23T14:10:43Z</time>
      </trkpt>
      <trkpt lat="43.47197" lon="6.17322">
        <ele>148.8</ele>
        <time>2016-01-23T14:10:44Z</time>
      </trkpt>
      <trkpt lat="43.47205" lon="6.17327">
        <ele>149.6</ele>
        <time>2016-01-23T14:10:45Z</time>
      </trkpt>
      <trkpt lat="43.47216" lon="6.17334">
        <ele>150</ele>
        <time>2016-01-23T14:10:46Z</time>
      </trkpt>
      <trkpt lat="43.47228" lon="6.17342">
        <ele>150.9</ele>
        <time>2016-01-23T14:10:47Z</time>
      </trkpt>
      <trkpt lat="43.47241" lon="6.17353">
        <ele>151.8</ele>
        <time>2016-01-23T14:10:48Z</time>
      </trkpt>
      <trkpt lat="43.47253" lon="6.17365">
        <ele>152</ele>
        <time>2016-01-23T14:10:49Z</time>
      </trkpt>
      <trkpt lat="43.47265" lon="6.17377">
        <ele>151.7</ele>
        <time>2016-01-23T14:10:50Z</time>
      </trkpt>
      <trkpt lat="43.47278" lon="6.1739">
        <ele>151.1</ele>
        <time>2016-01-23T14:10:51Z</time>
      </trkpt>
      <trkpt lat="43.47291" lon="6.17403">
        <ele>150.8</ele>
        <time>2016-01-23T14:10:52Z</time>
      </trkpt>
      <trkpt lat="43.47304" lon="6.17417">
        <ele>151.1</ele>
        <time>2016-01-23T14:10:53Z</time>
      </trkpt>
      <trkpt lat="43.47316" lon="6.1743">
        <ele>150.7</ele>
        <time>2016-01-23T14:10:54Z</time>
      </trkpt>
      <trkpt lat="43.47328" lon="6.17443">
        <ele>150.3</ele>
        <time>2016-01-23T14:10:55Z</time>
      </trkpt>
      <trkpt lat="43.4734" lon="6.17455">
        <ele>150.3</ele>
        <time>2016-01-23T14:10:56Z</time>
      </trkpt>
      <trkpt lat="43.47351" lon="6.17467">
        <ele>149.8</ele>
        <time>2016-01-23T14:10:57Z</time>
      </trkpt>
      <trkpt lat="43.47363" lon="6.17479">
        <ele>149.3</ele>
        <time>2016-01-23T14:10:58Z</time>
      </trkpt>
      <trkpt lat="43.47373" lon="6.17492">
        <ele>148.9</ele>
        <time>2016-01-23T14:10:59Z</time>
      </trkpt>
      <trkpt lat="43.4738" lon="6.17507">
        <ele>148.6</ele>
        <time>2016-01-23T14:11:00Z</time>
      </trkpt>
      <trkpt lat="43.47387" lon="6.17523">
        <ele>148.9</ele>
        <time>2016-01-23T14:11:01Z</time>
      </trkpt>
      <trkpt lat="43.47395" lon="6.17542">
        <ele>148.7</ele>
        <time>2016-01-23T14:11:02Z</time>
      </trkpt>
      <trkpt lat="43.47402" lon="6.17562">
        <ele>148.5</ele>
        <time>2016-01-23T14:11:03Z</time>
      </trkpt>
      <trkpt lat="43.47411" lon="6.17581">
        <ele>149.7</ele>
        <time>2016-01-23T14:11:04Z</time>
      </trkpt>
      <trkpt lat="43.47421" lon="6.176">
        <ele>150.6</ele>
        <time>2016-01-23T14:11:05Z</time>
      </trkpt>
      <trkpt lat="43.47433" lon="6.17618">
        <ele>150.5</ele>
        <time>2016-01-23T14:11:06Z</time>
      </trkpt>
      <trkpt lat="43.47444" lon="6.17634">
        <ele>151.5</ele>
        <time>2016-01-23T14:11:07Z</time>
      </trkpt>
      <trkpt lat="43.47454" lon="6.1765">
        <ele>152.8</ele>
        <time>2016-01-23T14:11:08Z</time>
      </trkpt>
      <trkpt lat="43.47463" lon="6.17665">
        <ele>153.4</ele>
        <time>2016-01-23T14:11:09Z</time>
      </trkpt>
      <trkpt lat="43.47471" lon="6.1768">
        <ele>152.8</ele>
        <time>2016-01-23T14:11:10Z</time>
      </trkpt>
      <trkpt lat="43.47477" lon="6.17696">
        <ele>152.9</ele>
        <time>2016-01-23T14:11:11Z</time>
      </trkpt>
      <trkpt lat="43.47481" lon="6.17711">
        <ele>153.4</ele>
        <time>2016-01-23T14:11:12Z</time>
      </trkpt>
      <trkpt lat="43.47483" lon="6.17728">
        <ele>153.1</ele>
        <time>2016-01-23T14:11:13Z</time>
      </trkpt>
      <trkpt lat="43.47483" lon="6.17746">
        <ele>152.3</ele>
        <time>2016-01-23T14:11:14Z</time>
      </trkpt>
      <trkpt lat="43.47481" lon="6.17764">
        <ele>152</ele>
        <time>2016-01-23T14:11:15Z</time>
      </trkpt>
      <trkpt lat="43.47474" lon="6.17782">
        <ele>152.4</ele>
        <time>2016-01-23T14:11:16Z</time>
      </trkpt>
      <trkpt lat="43.47466" lon="6.17799">
        <ele>152.2</ele>
        <time>2016-01-23T14:11:17Z</time>
      </trkpt>
      <trkpt lat="43.47459" lon="6.17816">
        <ele>152.2</ele>
        <time>2016-01-23T14:11:18Z</time>
      </trkpt>
      <trkpt lat="43.47451" lon="6.17833">
        <ele>153</ele>
        <time>2016-01-23T14:11:19Z</time>
      </trkpt>
      <trkpt lat="43.47444" lon="6.17851">
        <ele>152.1</ele>
        <time>2016-01-23T14:11:20Z</time>
      </trkpt>
      <trkpt lat="43.47437" lon="6.1787">
        <ele>152.7</ele>
        <time>2016-01-23T14:11:21Z</time>
      </trkpt>
      <trkpt lat="43.4743" lon="6.1789">
        <ele>153.1</ele>
        <time>2016-01-23T14:11:22Z</time>
      </trkpt>
      <trkpt lat="43.47423" lon="6.17909">
        <ele>153.4</ele>
        <time>2016-01-23T14:11:23Z</time>
      </trkpt>
      <trkpt lat="43.47416" lon="6.17927">
        <ele>153.6</ele>
        <time>2016-01-23T14:11:24Z</time>
      </trkpt>
      <trkpt lat="43.47409" lon="6.17945">
        <ele>154.1</ele>
        <time>2016-01-23T14:11:25Z</time>
      </trkpt>
      <trkpt lat="43.47403" lon="6.17961">
        <ele>155.5</ele>
        <time>2016-01-23T14:11:26Z</time>
      </trkpt>
      <trkpt lat="43.47399" lon="6.17978">
        <ele>156.5</ele>
        <time>2016-01-23T14:11:27Z</time>
      </trkpt>
      <trkpt lat="43.47397" lon="6.17996">
        <ele>157.3</ele>
        <time>2016-01-23T14:11:28Z</time>
      </trkpt>
      <trkpt lat="43.47396" lon="6.18012">
        <ele>157.7</ele>
        <time>2016-01-23T14:11:29Z</time>
      </trkpt>
      <trkpt lat="43.47396" lon="6.18025">
        <ele>158</ele>
        <time>2016-01-23T14:11:30Z</time>
      </trkpt>
      <trkpt lat="43.47398" lon="6.18036">
        <ele>158.3</ele>
        <time>2016-01-23T14:11:31Z</time>
      </trkpt>
      <trkpt lat="43.474" lon="6.18045">
        <ele>158.6</ele>
        <time>2016-01-23T14:11:32Z</time>
      </trkpt>
      <trkpt lat="43.47402" lon="6.18051">
        <ele>158.7</ele>
        <time>2016-01-23T14:11:33Z</time>
      </trkpt>
      <trkpt lat="43.47406" lon="6.18055">
        <ele>158.6</ele>
        <time>2016-01-23T14:11:34Z</time>
      </trkpt>
      <trkpt lat="43.4741" lon="6.18058">
        <ele>158.2</ele>
        <time>2016-01-23T14:11:35Z</time>
      </trkpt>
      <trkpt lat="43.47414" lon="6.1806">
        <ele>157.8</ele>
        <time>2016-01-23T14:11:36Z</time>
      </trkpt>
      <trkpt lat="43.47419" lon="6.18061">
        <ele>157.5</ele>
        <time>2016-01-23T14:11:37Z</time>
      </trkpt>
      <trkpt lat="43.47425" lon="6.18063">
        <ele>157.6</ele>
        <time>2016-01-23T14:11:38Z</time>
      </trkpt>
      <trkpt lat="43.47434" lon="6.18065">
        <ele>157.6</ele>
        <time>2016-01-23T14:11:39Z</time>
      </trkpt>
      <trkpt lat="43.47441" lon="6.18067">
        <ele>157.7</ele>
        <time>2016-01-23T14:11:40Z</time>
      </trkpt>
      <trkpt lat="43.47449" lon="6.18068">
        <ele>157.5</ele>
        <time>2016-01-23T14:11:41Z</time>
      </trkpt>
      <trkpt lat="43.47458" lon="6.1807">
        <ele>157.1</ele>
        <time>2016-01-23T14:11:42Z</time>
      </trkpt>
      <trkpt lat="43.47465" lon="6.18072">
        <ele>156.8</ele>
        <time>2016-01-23T14:11:43Z</time>
      </trkpt>
      <trkpt lat="43.47473" lon="6.18075">
        <ele>156.3</ele>
        <time>2016-01-23T14:11:44Z</time>
      </trkpt>
      <trkpt lat="43.47481" lon="6.18077">
        <ele>155.9</ele>
        <time>2016-01-23T14:11:45Z</time>
      </trkpt>
      <trkpt lat="43.47489" lon="6.18079">
        <ele>155.4</ele>
        <time>2016-01-23T14:11:46Z</time>
      </trkpt>
      <trkpt lat="43.47498" lon="6.18081">
        <ele>155</ele>
        <time>2016-01-23T14:11:47Z</time>
      </trkpt>
      <trkpt lat="43.47506" lon="6.18083">
        <ele>154.5</ele>
        <time>2016-01-23T14:11:48Z</time>
      </trkpt>
      <trkpt lat="43.47516" lon="6.18085">
        <ele>153.9</ele>
        <time>2016-01-23T14:11:49Z</time>
      </trkpt>
      <trkpt lat="43.47525" lon="6.18087">
        <ele>153.2</ele>
        <time>2016-01-23T14:11:50Z</time>
      </trkpt>
      <trkpt lat="43.47532" lon="6.18091">
        <ele>152.6</ele>
        <time>2016-01-23T14:11:51Z</time>
      </trkpt>
      <trkpt lat="43.47541" lon="6.18093">
        <ele>152.2</ele>
        <time>2016-01-23T14:11:52Z</time>
      </trkpt>
      <trkpt lat="43.47549" lon="6.18096">
        <ele>151.8</ele>
        <time>2016-01-23T14:11:53Z</time>
      </trkpt>
      <trkpt lat="43.47554" lon="6.18102">
        <ele>151.4</ele>
        <time>2016-01-23T14:11:54Z</time>
      </trkpt>
      <trkpt lat="43.47557" lon="6.18108">
        <ele>151.1</ele>
        <time>2016-01-23T14:11:55Z</time>
      </trkpt>
      <trkpt lat="43.47557" lon="6.18117">
        <ele>150.4</ele>
        <time>2016-01-23T14:11:56Z</time>
      </trkpt>
      <trkpt lat="43.47557" lon="6.18127">
        <ele>149.4</ele>
        <time>2016-01-23T14:11:57Z</time>
      </trkpt>
      <trkpt lat="43.47557" lon="6.18137">
        <ele>148.2</ele>
        <time>2016-01-23T14:11:58Z</time>
      </trkpt>
      <trkpt lat="43.47557" lon="6.18148">
        <ele>147.7</ele>
        <time>2016-01-23T14:11:59Z</time>
      </trkpt>
      <trkpt lat="43.47556" lon="6.18159">
        <ele>147.3</ele>
        <time>2016-01-23T14:12:00Z</time>
      </trkpt>
      <trkpt lat="43.47556" lon="6.18171">
        <ele>146.5</ele>
        <time>2016-01-23T14:12:01Z</time>
      </trkpt>
      <trkpt lat="43.47555" lon="6.18182">
        <ele>145.3</ele>
        <time>2016-01-23T14:12:02Z</time>
      </trkpt>
      <trkpt lat="43.47554" lon="6.18194">
        <ele>144.1</ele>
        <time>2016-01-23T14:12:03Z</time>
      </trkpt>
      <trkpt lat="43.47552" lon="6.18206">
        <ele>143.6</ele>
        <time>2016-01-23T14:12:04Z</time>
      </trkpt>
      <trkpt lat="43.47551" lon="6.18219">
        <ele>143.3</ele>
        <time>2016-01-23T14:12:05Z</time>
      </trkpt>
      <trkpt lat="43.4755" lon="6.18232">
        <ele>142.7</ele>
        <time>2016-01-23T14:12:06Z</time>
      </trkpt>
      <trkpt lat="43.47548" lon="6.18246">
        <ele>142</ele>
        <time>2016-01-23T14:12:07Z</time>
      </trkpt>
      <trkpt lat="43.47547" lon="6.1826">
        <ele>141.6</ele>
        <time>2016-01-23T14:12:08Z</time>
      </trkpt>
      <trkpt lat="43.47547" lon="6.18274">
        <ele>141.1</ele>
        <time>2016-01-23T14:12:09Z</time>
      </trkpt>
      <trkpt lat="43.47545" lon="6.18289">
        <ele>140.8</ele>
        <time>2016-01-23T14:12:10Z</time>
      </trkpt>
      <trkpt lat="43.47544" lon="6.18303">
        <ele>140.5</ele>
        <time>2016-01-23T14:12:11Z</time>
      </trkpt>
      <trkpt lat="43.47543" lon="6.18316">
        <ele>139.9</ele>
        <time>2016-01-23T14:12:12Z</time>
      </trkpt>
      <trkpt lat="43.47541" lon="6.18329">
        <ele>139.3</ele>
        <time>2016-01-23T14:12:13Z</time>
      </trkpt>
      <trkpt lat="43.4754" lon="6.18341">
        <ele>138.8</ele>
        <time>2016-01-23T14:12:14Z</time>
      </trkpt>
      <trkpt lat="43.4754" lon="6.18353">
        <ele>138.4</ele>
        <time>2016-01-23T14:12:15Z</time>
      </trkpt>
      <trkpt lat="43.47539" lon="6.18365">
        <ele>138</ele>
        <time>2016-01-23T14:12:16Z</time>
      </trkpt>
      <trkpt lat="43.47538" lon="6.18377">
        <ele>137.5</ele>
        <time>2016-01-23T14:12:17Z</time>
      </trkpt>
      <trkpt lat="43.47537" lon="6.18389">
        <ele>137</ele>
        <time>2016-01-23T14:12:18Z</time>
      </trkpt>
      <trkpt lat="43.47536" lon="6.184">
        <ele>136.5</ele>
        <time>2016-01-23T14:12:19Z</time>
      </trkpt>
      <trkpt lat="43.47535" lon="6.1841">
        <ele>135.9</ele>
        <time>2016-01-23T14:12:20Z</time>
      </trkpt>
      <trkpt lat="43.47535" lon="6.18419">
        <ele>135.4</ele>
        <time>2016-01-23T14:12:21Z</time>
      </trkpt>
      <trkpt lat="43.47534" lon="6.18426">
        <ele>134.7</ele>
        <time>2016-01-23T14:12:22Z</time>
      </trkpt>
      <trkpt lat="43.47533" lon="6.18432">
        <ele>134.1</ele>
        <time>2016-01-23T14:12:23Z</time>
      </trkpt>
      <trkpt lat="43.47533" lon="6.18435">
        <ele>133.8</ele>
        <time>2016-01-23T14:12:24Z</time>
      </trkpt>
      <trkpt lat="43.47533" lon="6.18437">
        <ele>133.6</ele>
        <time>2016-01-23T14:12:25Z</time>
      </trkpt>
      <trkpt lat="43.47533" lon="6.18439">
        <ele>133.5</ele>
        <time>2016-01-23T14:12:26Z</time>
      </trkpt>
      <trkpt lat="43.47533" lon="6.1844">
        <ele>133.3</ele>
        <time>2016-01-23T14:12:27Z</time>
      </trkpt>
      <trkpt lat="43.47533" lon="6.18442">
        <ele>133.2</ele>
        <time>2016-01-23T14:12:28Z</time>
      </trkpt>
      <trkpt lat="43.47532" lon="6.18443">
        <ele>133.1</ele>
        <time>2016-01-23T14:12:29Z</time>
      </trkpt>
      <trkpt lat="43.47531" lon="6.18444">
        <ele>133</ele>
        <time>2016-01-23T14:12:30Z</time>
      </trkpt>
      <trkpt lat="43.47531" lon="6.18446">
        <ele>132.9</ele>
        <time>2016-01-23T14:12:31Z</time>
      </trkpt>
      <trkpt lat="43.4753" lon="6.18447">
        <ele>132.8</ele>
        <time>2016-01-23T14:12:32Z</time>
      </trkpt>
      <trkpt lat="43.4753" lon="6.18449">
        <ele>132.7</ele>
        <time>2016-01-23T14:12:33Z</time>
      </trkpt>
      <trkpt lat="43.47528" lon="6.18451">
        <ele>132.6</ele>
        <time>2016-01-23T14:12:34Z</time>
      </trkpt>
      <trkpt lat="43.47524" lon="6.18451">
        <ele>132.5</ele>
        <time>2016-01-23T14:12:35Z</time>
      </trkpt>
      <trkpt lat="43.47519" lon="6.1845">
        <ele>132.5</ele>
        <time>2016-01-23T14:12:36Z</time>
      </trkpt>
      <trkpt lat="43.47512" lon="6.18448">
        <ele>132.7</ele>
        <time>2016-01-23T14:12:37Z</time>
      </trkpt>
      <trkpt lat="43.47501" lon="6.18444">
        <ele>133</ele>
        <time>2016-01-23T14:12:38Z</time>
      </trkpt>
      <trkpt lat="43.47491" lon="6.18442">
        <ele>133.2</ele>
        <time>2016-01-23T14:12:39Z</time>
      </trkpt>
      <trkpt lat="43.4748" lon="6.18439">
        <ele>133.3</ele>
        <time>2016-01-23T14:12:40Z</time>
      </trkpt>
      <trkpt lat="43.47469" lon="6.18435">
        <ele>133.2</ele>
        <time>2016-01-23T14:12:41Z</time>
      </trkpt>
      <trkpt lat="43.47458" lon="6.18433">
        <ele>132.9</ele>
        <time>2016-01-23T14:12:42Z</time>
      </trkpt>
      <trkpt lat="43.47448" lon="6.1843">
        <ele>132.7</ele>
        <time>2016-01-23T14:12:43Z</time>
      </trkpt>
      <trkpt lat="43.47425" lon="6.18422">
        <ele>132.8</ele>
        <time>2016-01-23T14:12:45Z</time>
      </trkpt>
      <trkpt lat="43.47413" lon="6.18418">
        <ele>132.9</ele>
        <time>2016-01-23T14:12:46Z</time>
      </trkpt>
      <trkpt lat="43.47399" lon="6.18415">
        <ele>133</ele>
        <time>2016-01-23T14:12:47Z</time>
      </trkpt>
      <trkpt lat="43.47386" lon="6.18411">
        <ele>133</ele>
        <time>2016-01-23T14:12:48Z</time>
      </trkpt>
      <trkpt lat="43.47373" lon="6.18409">
        <ele>133</ele>
        <time>2016-01-23T14:12:49Z</time>
      </trkpt>
      <trkpt lat="43.47361" lon="6.18406">
        <ele>133</ele>
        <time>2016-01-23T14:12:50Z</time>
      </trkpt>
      <trkpt lat="43.47347" lon="6.18404">
        <ele>133</ele>
        <time>2016-01-23T14:12:51Z</time>
      </trkpt>
      <trkpt lat="43.47335" lon="6.18404">
        <ele>133</ele>
        <time>2016-01-23T14:12:52Z</time>
      </trkpt>
      <trkpt lat="43.47324" lon="6.18405">
        <ele>133.7</ele>
        <time>2016-01-23T14:12:53Z</time>
      </trkpt>
      <trkpt lat="43.47315" lon="6.18411">
        <ele>134</ele>
        <time>2016-01-23T14:12:54Z</time>
      </trkpt>
      <trkpt lat="43.47307" lon="6.18419">
        <ele>133.9</ele>
        <time>2016-01-23T14:12:55Z</time>
      </trkpt>
      <trkpt lat="43.473" lon="6.1843">
        <ele>133.6</ele>
        <time>2016-01-23T14:12:56Z</time>
      </trkpt>
      <trkpt lat="43.47295" lon="6.18442">
        <ele>133.1</ele>
        <time>2016-01-23T14:12:57Z</time>
      </trkpt>
      <trkpt lat="43.47293" lon="6.18458">
        <ele>132.7</ele>
        <time>2016-01-23T14:12:58Z</time>
      </trkpt>
      <trkpt lat="43.47292" lon="6.18475">
        <ele>132.5</ele>
        <time>2016-01-23T14:12:59Z</time>
      </trkpt>
      <trkpt lat="43.47294" lon="6.185">
        <ele>131.9</ele>
        <time>2016-01-23T14:13:00Z</time>
      </trkpt>
      <trkpt lat="43.47297" lon="6.18546">
        <ele>131</ele>
        <time>2016-01-23T14:13:02Z</time>
      </trkpt>
      <trkpt lat="43.47299" lon="6.18569">
        <ele>130.9</ele>
        <time>2016-01-23T14:13:03Z</time>
      </trkpt>
      <trkpt lat="43.47302" lon="6.1859">
        <ele>131.3</ele>
        <time>2016-01-23T14:13:04Z</time>
      </trkpt>
      <trkpt lat="43.47304" lon="6.1861">
        <ele>131.1</ele>
        <time>2016-01-23T14:13:05Z</time>
      </trkpt>
      <trkpt lat="43.47307" lon="6.18626">
        <ele>130.7</ele>
        <time>2016-01-23T14:13:06Z</time>
      </trkpt>
      <trkpt lat="43.47314" lon="6.1865">
        <ele>129.4</ele>
        <time>2016-01-23T14:13:08Z</time>
      </trkpt>
      <trkpt lat="43.47327" lon="6.1866">
        <ele>127.6</ele>
        <time>2016-01-23T14:13:10Z</time>
      </trkpt>
      <trkpt lat="43.47337" lon="6.18656">
        <ele>126.8</ele>
        <time>2016-01-23T14:13:11Z</time>
      </trkpt>
      <trkpt lat="43.47345" lon="6.18653">
        <ele>127.9</ele>
        <time>2016-01-23T14:13:12Z</time>
      </trkpt>
      <trkpt lat="43.47359" lon="6.18652">
        <ele>130.2</ele>
        <time>2016-01-23T14:13:14Z</time>
      </trkpt>
      <trkpt lat="43.47366" lon="6.18656">
        <ele>131.8</ele>
        <time>2016-01-23T14:13:15Z</time>
      </trkpt>
      <trkpt lat="43.4738" lon="6.18686">
        <ele>131.8</ele>
        <time>2016-01-23T14:13:17Z</time>
      </trkpt>
      <trkpt lat="43.47387" lon="6.18706">
        <ele>130.4</ele>
        <time>2016-01-23T14:13:18Z</time>
      </trkpt>
      <trkpt lat="43.47405" lon="6.18751">
        <ele>131.5</ele>
        <time>2016-01-23T14:13:20Z</time>
      </trkpt>
      <trkpt lat="43.47414" lon="6.18774">
        <ele>131.9</ele>
        <time>2016-01-23T14:13:21Z</time>
      </trkpt>
      <trkpt lat="43.47428" lon="6.18817">
        <ele>134.2</ele>
        <time>2016-01-23T14:13:23Z</time>
      </trkpt>
      <trkpt lat="43.47431" lon="6.1884">
        <ele>134.2</ele>
        <time>2016-01-23T14:13:24Z</time>
      </trkpt>
      <trkpt lat="43.47432" lon="6.18863">
        <ele>134</ele>
        <time>2016-01-23T14:13:25Z</time>
      </trkpt>
      <trkpt lat="43.47432" lon="6.18887">
        <ele>133.9</ele>
        <time>2016-01-23T14:13:26Z</time>
      </trkpt>
      <trkpt lat="43.47425" lon="6.18938">
        <ele>134</ele>
        <time>2016-01-23T14:13:28Z</time>
      </trkpt>
      <trkpt lat="43.47418" lon="6.18965">
        <ele>132.4</ele>
        <time>2016-01-23T14:13:29Z</time>
      </trkpt>
      <trkpt lat="43.47412" lon="6.1899">
        <ele>133.6</ele>
        <time>2016-01-23T14:13:30Z</time>
      </trkpt>
      <trkpt lat="43.47406" lon="6.19015">
        <ele>135.4</ele>
        <time>2016-01-23T14:13:31Z</time>
      </trkpt>
      <trkpt lat="43.47399" lon="6.19039">
        <ele>135.1</ele>
        <time>2016-01-23T14:13:32Z</time>
      </trkpt>
      <trkpt lat="43.47393" lon="6.19063">
        <ele>133.9</ele>
        <time>2016-01-23T14:13:33Z</time>
      </trkpt>
      <trkpt lat="43.47387" lon="6.19087">
        <ele>134.9</ele>
        <time>2016-01-23T14:13:34Z</time>
      </trkpt>
      <trkpt lat="43.47381" lon="6.19112">
        <ele>135.1</ele>
        <time>2016-01-23T14:13:35Z</time>
      </trkpt>
      <trkpt lat="43.47374" lon="6.19138">
        <ele>133.5</ele>
        <time>2016-01-23T14:13:36Z</time>
      </trkpt>
      <trkpt lat="43.47367" lon="6.19163">
        <ele>132.3</ele>
        <time>2016-01-23T14:13:37Z</time>
      </trkpt>
      <trkpt lat="43.4736" lon="6.19188">
        <ele>130.6</ele>
        <time>2016-01-23T14:13:38Z</time>
      </trkpt>
      <trkpt lat="43.47353" lon="6.19213">
        <ele>133.3</ele>
        <time>2016-01-23T14:13:39Z</time>
      </trkpt>
      <trkpt lat="43.47345" lon="6.19237">
        <ele>134.3</ele>
        <time>2016-01-23T14:13:40Z</time>
      </trkpt>
      <trkpt lat="43.47338" lon="6.1926">
        <ele>133.5</ele>
        <time>2016-01-23T14:13:41Z</time>
      </trkpt>
      <trkpt lat="43.47331" lon="6.19284">
        <ele>134.2</ele>
        <time>2016-01-23T14:13:42Z</time>
      </trkpt>
      <trkpt lat="43.47322" lon="6.19307">
        <ele>132.6</ele>
        <time>2016-01-23T14:13:43Z</time>
      </trkpt>
      <trkpt lat="43.47314" lon="6.1933">
        <ele>132</ele>
        <time>2016-01-23T14:13:44Z</time>
      </trkpt>
      <trkpt lat="43.47303" lon="6.19353">
        <ele>131.7</ele>
        <time>2016-01-23T14:13:45Z</time>
      </trkpt>
      <trkpt lat="43.47292" lon="6.19374">
        <ele>132</ele>
        <time>2016-01-23T14:13:46Z</time>
      </trkpt>
      <trkpt lat="43.47281" lon="6.19394">
        <ele>132.3</ele>
        <time>2016-01-23T14:13:47Z</time>
      </trkpt>
      <trkpt lat="43.47269" lon="6.19412">
        <ele>132.8</ele>
        <time>2016-01-23T14:13:48Z</time>
      </trkpt>
      <trkpt lat="43.47257" lon="6.19427">
        <ele>133.4</ele>
        <time>2016-01-23T14:13:49Z</time>
      </trkpt>
      <trkpt lat="43.47246" lon="6.19441">
        <ele>134</ele>
        <time>2016-01-23T14:13:50Z</time>
      </trkpt>
      <trkpt lat="43.47235" lon="6.19451">
        <ele>134.9</ele>
        <time>2016-01-23T14:13:51Z</time>
      </trkpt>
      <trkpt lat="43.47223" lon="6.19456">
        <ele>135.8</ele>
        <time>2016-01-23T14:13:52Z</time>
      </trkpt>
      <trkpt lat="43.47211" lon="6.19459">
        <ele>136.9</ele>
        <time>2016-01-23T14:13:53Z</time>
      </trkpt>
      <trkpt lat="43.47198" lon="6.19461">
        <ele>137.9</ele>
        <time>2016-01-23T14:13:54Z</time>
      </trkpt>
      <trkpt lat="43.47184" lon="6.19459">
        <ele>141.7</ele>
        <time>2016-01-23T14:13:55Z</time>
      </trkpt>
      <trkpt lat="43.4717" lon="6.1946">
        <ele>146.5</ele>
        <time>2016-01-23T14:13:56Z</time>
      </trkpt>
      <trkpt lat="43.47153" lon="6.19462">
        <ele>148.6</ele>
        <time>2016-01-23T14:13:57Z</time>
      </trkpt>
      <trkpt lat="43.47135" lon="6.1947">
        <ele>150.6</ele>
        <time>2016-01-23T14:13:58Z</time>
      </trkpt>
      <trkpt lat="43.47116" lon="6.19478">
        <ele>148.6</ele>
        <time>2016-01-23T14:13:59Z</time>
      </trkpt>
      <trkpt lat="43.47097" lon="6.19487">
        <ele>148.6</ele>
        <time>2016-01-23T14:14:00Z</time>
      </trkpt>
      <trkpt lat="43.47078" lon="6.19494">
        <ele>148.5</ele>
        <time>2016-01-23T14:14:01Z</time>
      </trkpt>
      <trkpt lat="43.47059" lon="6.19499">
        <ele>149.8</ele>
        <time>2016-01-23T14:14:02Z</time>
      </trkpt>
      <trkpt lat="43.47039" lon="6.19506">
        <ele>149.1</ele>
        <time>2016-01-23T14:14:03Z</time>
      </trkpt>
      <trkpt lat="43.47021" lon="6.19514">
        <ele>148.4</ele>
        <time>2016-01-23T14:14:04Z</time>
      </trkpt>
      <trkpt lat="43.47004" lon="6.19525">
        <ele>150.2</ele>
        <time>2016-01-23T14:14:05Z</time>
      </trkpt>
      <trkpt lat="43.46988" lon="6.19536">
        <ele>150.5</ele>
        <time>2016-01-23T14:14:06Z</time>
      </trkpt>
      <trkpt lat="43.46973" lon="6.19546">
        <ele>150.1</ele>
        <time>2016-01-23T14:14:07Z</time>
      </trkpt>
      <trkpt lat="43.4696" lon="6.19551">
        <ele>151.1</ele>
        <time>2016-01-23T14:14:08Z</time>
      </trkpt>
      <trkpt lat="43.46946" lon="6.19552">
        <ele>151.5</ele>
        <time>2016-01-23T14:14:09Z</time>
      </trkpt>
      <trkpt lat="43.46932" lon="6.1955">
        <ele>153.1</ele>
        <time>2016-01-23T14:14:10Z</time>
      </trkpt>
      <trkpt lat="43.46919" lon="6.19547">
        <ele>154.8</ele>
        <time>2016-01-23T14:14:11Z</time>
      </trkpt>
      <trkpt lat="43.46906" lon="6.19544">
        <ele>154.6</ele>
        <time>2016-01-23T14:14:12Z</time>
      </trkpt>
      <trkpt lat="43.46894" lon="6.19546">
        <ele>154.7</ele>
        <time>2016-01-23T14:14:13Z</time>
      </trkpt>
      <trkpt lat="43.46885" lon="6.19554">
        <ele>155.1</ele>
        <time>2016-01-23T14:14:14Z</time>
      </trkpt>
      <trkpt lat="43.46878" lon="6.19565">
        <ele>155.5</ele>
        <time>2016-01-23T14:14:15Z</time>
      </trkpt>
      <trkpt lat="43.46873" lon="6.19578">
        <ele>157.1</ele>
        <time>2016-01-23T14:14:16Z</time>
      </trkpt>
      <trkpt lat="43.46872" lon="6.19594">
        <ele>158.2</ele>
        <time>2016-01-23T14:14:17Z</time>
      </trkpt>
      <trkpt lat="43.46876" lon="6.19611">
        <ele>158.5</ele>
        <time>2016-01-23T14:14:18Z</time>
      </trkpt>
      <trkpt lat="43.46885" lon="6.19627">
        <ele>159.2</ele>
        <time>2016-01-23T14:14:19Z</time>
      </trkpt>
      <trkpt lat="43.469" lon="6.19642">
        <ele>159.7</ele>
        <time>2016-01-23T14:14:20Z</time>
      </trkpt>
      <trkpt lat="43.4692" lon="6.19653">
        <ele>160</ele>
        <time>2016-01-23T14:14:21Z</time>
      </trkpt>
      <trkpt lat="43.4694" lon="6.19664">
        <ele>160.8</ele>
        <time>2016-01-23T14:14:22Z</time>
      </trkpt>
      <trkpt lat="43.46961" lon="6.19676">
        <ele>161.3</ele>
        <time>2016-01-23T14:14:23Z</time>
      </trkpt>
      <trkpt lat="43.46981" lon="6.19687">
        <ele>161.6</ele>
        <time>2016-01-23T14:14:24Z</time>
      </trkpt>
      <trkpt lat="43.47" lon="6.19697">
        <ele>162.1</ele>
        <time>2016-01-23T14:14:25Z</time>
      </trkpt>
      <trkpt lat="43.47017" lon="6.19706">
        <ele>163</ele>
        <time>2016-01-23T14:14:26Z</time>
      </trkpt>
      <trkpt lat="43.47032" lon="6.19715">
        <ele>163.6</ele>
        <time>2016-01-23T14:14:27Z</time>
      </trkpt>
      <trkpt lat="43.47044" lon="6.19724">
        <ele>163.4</ele>
        <time>2016-01-23T14:14:28Z</time>
      </trkpt>
      <trkpt lat="43.47054" lon="6.19734">
        <ele>163</ele>
        <time>2016-01-23T14:14:29Z</time>
      </trkpt>
      <trkpt lat="43.47063" lon="6.19745">
        <ele>163</ele>
        <time>2016-01-23T14:14:30Z</time>
      </trkpt>
      <trkpt lat="43.4707" lon="6.1976">
        <ele>163</ele>
        <time>2016-01-23T14:14:31Z</time>
      </trkpt>
      <trkpt lat="43.4707" lon="6.19786">
        <ele>163.2</ele>
        <time>2016-01-23T14:14:32Z</time>
      </trkpt>
      <trkpt lat="43.4707" lon="6.19812">
        <ele>163.6</ele>
        <time>2016-01-23T14:14:33Z</time>
      </trkpt>
      <trkpt lat="43.4707" lon="6.1984">
        <ele>164.1</ele>
        <time>2016-01-23T14:14:34Z</time>
      </trkpt>
      <trkpt lat="43.4707" lon="6.19869">
        <ele>164.4</ele>
        <time>2016-01-23T14:14:35Z</time>
      </trkpt>
      <trkpt lat="43.47071" lon="6.19898">
        <ele>164</ele>
        <time>2016-01-23T14:14:36Z</time>
      </trkpt>
      <trkpt lat="43.47073" lon="6.19926">
        <ele>163.8</ele>
        <time>2016-01-23T14:14:37Z</time>
      </trkpt>
      <trkpt lat="43.47075" lon="6.19952">
        <ele>163.2</ele>
        <time>2016-01-23T14:14:38Z</time>
      </trkpt>
      <trkpt lat="43.47078" lon="6.19978">
        <ele>162.8</ele>
        <time>2016-01-23T14:14:39Z</time>
      </trkpt>
      <trkpt lat="43.47082" lon="6.20001">
        <ele>162</ele>
        <time>2016-01-23T14:14:40Z</time>
      </trkpt>
      <trkpt lat="43.47086" lon="6.20023">
        <ele>162.1</ele>
        <time>2016-01-23T14:14:41Z</time>
      </trkpt>
      <trkpt lat="43.47089" lon="6.20043">
        <ele>161.8</ele>
        <time>2016-01-23T14:14:42Z</time>
      </trkpt>
      <trkpt lat="43.47092" lon="6.20061">
        <ele>161.6</ele>
        <time>2016-01-23T14:14:43Z</time>
      </trkpt>
      <trkpt lat="43.47092" lon="6.20078">
        <ele>161.6</ele>
        <time>2016-01-23T14:14:44Z</time>
      </trkpt>
      <trkpt lat="43.47088" lon="6.20093">
        <ele>161.6</ele>
        <time>2016-01-23T14:14:45Z</time>
      </trkpt>
      <trkpt lat="43.4708" lon="6.20106">
        <ele>161.6</ele>
        <time>2016-01-23T14:14:46Z</time>
      </trkpt>
      <trkpt lat="43.47071" lon="6.20119">
        <ele>161.5</ele>
        <time>2016-01-23T14:14:47Z</time>
      </trkpt>
      <trkpt lat="43.4706" lon="6.20131">
        <ele>161.6</ele>
        <time>2016-01-23T14:14:48Z</time>
      </trkpt>
      <trkpt lat="43.47048" lon="6.20143">
        <ele>161.5</ele>
        <time>2016-01-23T14:14:49Z</time>
      </trkpt>
      <trkpt lat="43.47038" lon="6.20155">
        <ele>161.8</ele>
        <time>2016-01-23T14:14:50Z</time>
      </trkpt>
      <trkpt lat="43.47029" lon="6.20168">
        <ele>163</ele>
        <time>2016-01-23T14:14:51Z</time>
      </trkpt>
      <trkpt lat="43.4702" lon="6.20181">
        <ele>162.8</ele>
        <time>2016-01-23T14:14:52Z</time>
      </trkpt>
      <trkpt lat="43.47012" lon="6.20197">
        <ele>162.9</ele>
        <time>2016-01-23T14:14:53Z</time>
      </trkpt>
      <trkpt lat="43.47005" lon="6.20214">
        <ele>162.9</ele>
        <time>2016-01-23T14:14:54Z</time>
      </trkpt>
      <trkpt lat="43.46997" lon="6.20234">
        <ele>162.9</ele>
        <time>2016-01-23T14:14:55Z</time>
      </trkpt>
      <trkpt lat="43.4699" lon="6.20254">
        <ele>162.4</ele>
        <time>2016-01-23T14:14:56Z</time>
      </trkpt>
      <trkpt lat="43.46983" lon="6.20275">
        <ele>163.1</ele>
        <time>2016-01-23T14:14:57Z</time>
      </trkpt>
      <trkpt lat="43.46975" lon="6.20296">
        <ele>163.7</ele>
        <time>2016-01-23T14:14:58Z</time>
      </trkpt>
      <trkpt lat="43.46967" lon="6.20318">
        <ele>164.3</ele>
        <time>2016-01-23T14:14:59Z</time>
      </trkpt>
      <trkpt lat="43.46958" lon="6.20341">
        <ele>165</ele>
        <time>2016-01-23T14:15:00Z</time>
      </trkpt>
      <trkpt lat="43.46949" lon="6.20366">
        <ele>165</ele>
        <time>2016-01-23T14:15:01Z</time>
      </trkpt>
      <trkpt lat="43.4694" lon="6.20391">
        <ele>165.2</ele>
        <time>2016-01-23T14:15:02Z</time>
      </trkpt>
      <trkpt lat="43.46931" lon="6.20415">
        <ele>166</ele>
        <time>2016-01-23T14:15:03Z</time>
      </trkpt>
      <trkpt lat="43.46922" lon="6.20437">
        <ele>166</ele>
        <time>2016-01-23T14:15:04Z</time>
      </trkpt>
      <trkpt lat="43.46915" lon="6.2046">
        <ele>166</ele>
        <time>2016-01-23T14:15:05Z</time>
      </trkpt>
      <trkpt lat="43.46908" lon="6.20481">
        <ele>165.6</ele>
        <time>2016-01-23T14:15:06Z</time>
      </trkpt>
      <trkpt lat="43.46902" lon="6.205">
        <ele>164.9</ele>
        <time>2016-01-23T14:15:07Z</time>
      </trkpt>
      <trkpt lat="43.46896" lon="6.20519">
        <ele>164</ele>
        <time>2016-01-23T14:15:08Z</time>
      </trkpt>
      <trkpt lat="43.46889" lon="6.20536">
        <ele>163.3</ele>
        <time>2016-01-23T14:15:09Z</time>
      </trkpt>
      <trkpt lat="43.46881" lon="6.20553">
        <ele>163</ele>
        <time>2016-01-23T14:15:10Z</time>
      </trkpt>
      <trkpt lat="43.46871" lon="6.20571">
        <ele>161.6</ele>
        <time>2016-01-23T14:15:11Z</time>
      </trkpt>
      <trkpt lat="43.46858" lon="6.20589">
        <ele>160.1</ele>
        <time>2016-01-23T14:15:12Z</time>
      </trkpt>
      <trkpt lat="43.46845" lon="6.20608">
        <ele>159.6</ele>
        <time>2016-01-23T14:15:13Z</time>
      </trkpt>
      <trkpt lat="43.46832" lon="6.20627">
        <ele>158.8</ele>
        <time>2016-01-23T14:15:14Z</time>
      </trkpt>
      <trkpt lat="43.4682" lon="6.20647">
        <ele>158.4</ele>
        <time>2016-01-23T14:15:15Z</time>
      </trkpt>
      <trkpt lat="43.46809" lon="6.20667">
        <ele>158.5</ele>
        <time>2016-01-23T14:15:16Z</time>
      </trkpt>
      <trkpt lat="43.46799" lon="6.20689">
        <ele>157.5</ele>
        <time>2016-01-23T14:15:17Z</time>
      </trkpt>
      <trkpt lat="43.46789" lon="6.20715">
        <ele>159.4</ele>
        <time>2016-01-23T14:15:18Z</time>
      </trkpt>
      <trkpt lat="43.4678" lon="6.20741">
        <ele>158.9</ele>
        <time>2016-01-23T14:15:19Z</time>
      </trkpt>
      <trkpt lat="43.46771" lon="6.20766">
        <ele>159.8</ele>
        <time>2016-01-23T14:15:20Z</time>
      </trkpt>
      <trkpt lat="43.46763" lon="6.20792">
        <ele>162</ele>
        <time>2016-01-23T14:15:21Z</time>
      </trkpt>
      <trkpt lat="43.46754" lon="6.20815">
        <ele>162.5</ele>
        <time>2016-01-23T14:15:22Z</time>
      </trkpt>
      <trkpt lat="43.46744" lon="6.20835">
        <ele>163.8</ele>
        <time>2016-01-23T14:15:23Z</time>
      </trkpt>
      <trkpt lat="43.46732" lon="6.20853">
        <ele>163.9</ele>
        <time>2016-01-23T14:15:24Z</time>
      </trkpt>
      <trkpt lat="43.46718" lon="6.2087">
        <ele>163.7</ele>
        <time>2016-01-23T14:15:25Z</time>
      </trkpt>
      <trkpt lat="43.46703" lon="6.20887">
        <ele>164.5</ele>
        <time>2016-01-23T14:15:26Z</time>
      </trkpt>
      <trkpt lat="43.46687" lon="6.20903">
        <ele>165</ele>
        <time>2016-01-23T14:15:27Z</time>
      </trkpt>
      <trkpt lat="43.46672" lon="6.2092">
        <ele>165.1</ele>
        <time>2016-01-23T14:15:28Z</time>
      </trkpt>
      <trkpt lat="43.46657" lon="6.20938">
        <ele>165.5</ele>
        <time>2016-01-23T14:15:29Z</time>
      </trkpt>
      <trkpt lat="43.46645" lon="6.20955">
        <ele>164.8</ele>
        <time>2016-01-23T14:15:30Z</time>
      </trkpt>
      <trkpt lat="43.46633" lon="6.20972">
        <ele>164.5</ele>
        <time>2016-01-23T14:15:31Z</time>
      </trkpt>
      <trkpt lat="43.46621" lon="6.20989">
        <ele>163.1</ele>
        <time>2016-01-23T14:15:32Z</time>
      </trkpt>
      <trkpt lat="43.46609" lon="6.21005">
        <ele>163.3</ele>
        <time>2016-01-23T14:15:33Z</time>
      </trkpt>
      <trkpt lat="43.46595" lon="6.21017">
        <ele>165.1</ele>
        <time>2016-01-23T14:15:34Z</time>
      </trkpt>
      <trkpt lat="43.4658" lon="6.21025">
        <ele>167.8</ele>
        <time>2016-01-23T14:15:35Z</time>
      </trkpt>
      <trkpt lat="43.46564" lon="6.21032">
        <ele>168.5</ele>
        <time>2016-01-23T14:15:36Z</time>
      </trkpt>
      <trkpt lat="43.46549" lon="6.2104">
        <ele>169.2</ele>
        <time>2016-01-23T14:15:37Z</time>
      </trkpt>
      <trkpt lat="43.46535" lon="6.21051">
        <ele>169.2</ele>
        <time>2016-01-23T14:15:38Z</time>
      </trkpt>
      <trkpt lat="43.46523" lon="6.21065">
        <ele>169.1</ele>
        <time>2016-01-23T14:15:39Z</time>
      </trkpt>
      <trkpt lat="43.46511" lon="6.21079">
        <ele>169.3</ele>
        <time>2016-01-23T14:15:40Z</time>
      </trkpt>
      <trkpt lat="43.465" lon="6.21092">
        <ele>168.5</ele>
        <time>2016-01-23T14:15:41Z</time>
      </trkpt>
      <trkpt lat="43.46486" lon="6.21102">
        <ele>169.2</ele>
        <time>2016-01-23T14:15:42Z</time>
      </trkpt>
      <trkpt lat="43.4647" lon="6.2111">
        <ele>169.7</ele>
        <time>2016-01-23T14:15:43Z</time>
      </trkpt>
      <trkpt lat="43.46454" lon="6.21118">
        <ele>172.4</ele>
        <time>2016-01-23T14:15:44Z</time>
      </trkpt>
      <trkpt lat="43.46438" lon="6.21127">
        <ele>173.5</ele>
        <time>2016-01-23T14:15:45Z</time>
      </trkpt>
      <trkpt lat="43.46421" lon="6.21138">
        <ele>172.7</ele>
        <time>2016-01-23T14:15:46Z</time>
      </trkpt>
      <trkpt lat="43.46405" lon="6.21146">
        <ele>173.5</ele>
        <time>2016-01-23T14:15:47Z</time>
      </trkpt>
      <trkpt lat="43.46388" lon="6.21154">
        <ele>173.8</ele>
        <time>2016-01-23T14:15:48Z</time>
      </trkpt>
      <trkpt lat="43.46372" lon="6.21163">
        <ele>172.4</ele>
        <time>2016-01-23T14:15:49Z</time>
      </trkpt>
      <trkpt lat="43.46357" lon="6.21173">
        <ele>171.9</ele>
        <time>2016-01-23T14:15:50Z</time>
      </trkpt>
      <trkpt lat="43.46344" lon="6.21185">
        <ele>171.8</ele>
        <time>2016-01-23T14:15:51Z</time>
      </trkpt>
      <trkpt lat="43.46331" lon="6.21199">
        <ele>169.2</ele>
        <time>2016-01-23T14:15:52Z</time>
      </trkpt>
      <trkpt lat="43.46318" lon="6.21211">
        <ele>169.5</ele>
        <time>2016-01-23T14:15:53Z</time>
      </trkpt>
      <trkpt lat="43.46305" lon="6.2122">
        <ele>169.7</ele>
        <time>2016-01-23T14:15:54Z</time>
      </trkpt>
      <trkpt lat="43.4629" lon="6.21222">
        <ele>169.9</ele>
        <time>2016-01-23T14:15:55Z</time>
      </trkpt>
      <trkpt lat="43.46275" lon="6.21219">
        <ele>170.7</ele>
        <time>2016-01-23T14:15:56Z</time>
      </trkpt>
      <trkpt lat="43.4626" lon="6.21214">
        <ele>174</ele>
        <time>2016-01-23T14:15:57Z</time>
      </trkpt>
      <trkpt lat="43.46245" lon="6.21212">
        <ele>175.9</ele>
        <time>2016-01-23T14:15:58Z</time>
      </trkpt>
      <trkpt lat="43.46229" lon="6.21213">
        <ele>176.2</ele>
        <time>2016-01-23T14:15:59Z</time>
      </trkpt>
      <trkpt lat="43.46211" lon="6.21214">
        <ele>175.3</ele>
        <time>2016-01-23T14:16:00Z</time>
      </trkpt>
      <trkpt lat="43.46192" lon="6.21216">
        <ele>173.1</ele>
        <time>2016-01-23T14:16:01Z</time>
      </trkpt>
      <trkpt lat="43.46173" lon="6.21216">
        <ele>173.7</ele>
        <time>2016-01-23T14:16:02Z</time>
      </trkpt>
      <trkpt lat="43.46153" lon="6.21214">
        <ele>173.1</ele>
        <time>2016-01-23T14:16:03Z</time>
      </trkpt>
      <trkpt lat="43.46134" lon="6.21212">
        <ele>172.7</ele>
        <time>2016-01-23T14:16:04Z</time>
      </trkpt>
      <trkpt lat="43.46116" lon="6.21206">
        <ele>173.2</ele>
        <time>2016-01-23T14:16:05Z</time>
      </trkpt>
      <trkpt lat="43.46097" lon="6.21196">
        <ele>172.6</ele>
        <time>2016-01-23T14:16:06Z</time>
      </trkpt>
      <trkpt lat="43.4608" lon="6.21183">
        <ele>173.6</ele>
        <time>2016-01-23T14:16:07Z</time>
      </trkpt>
      <trkpt lat="43.46064" lon="6.21167">
        <ele>173.9</ele>
        <time>2016-01-23T14:16:08Z</time>
      </trkpt>
      <trkpt lat="43.46049" lon="6.21149">
        <ele>174.9</ele>
        <time>2016-01-23T14:16:09Z</time>
      </trkpt>
      <trkpt lat="43.46035" lon="6.21128">
        <ele>175.1</ele>
        <time>2016-01-23T14:16:10Z</time>
      </trkpt>
      <trkpt lat="43.46021" lon="6.21105">
        <ele>174.2</ele>
        <time>2016-01-23T14:16:11Z</time>
      </trkpt>
      <trkpt lat="43.46008" lon="6.21081">
        <ele>174.9</ele>
        <time>2016-01-23T14:16:12Z</time>
      </trkpt>
      <trkpt lat="43.45995" lon="6.21058">
        <ele>174.3</ele>
        <time>2016-01-23T14:16:13Z</time>
      </trkpt>
      <trkpt lat="43.45984" lon="6.21034">
        <ele>175.2</ele>
        <time>2016-01-23T14:16:14Z</time>
      </trkpt>
      <trkpt lat="43.45975" lon="6.21009">
        <ele>174.2</ele>
        <time>2016-01-23T14:16:15Z</time>
      </trkpt>
      <trkpt lat="43.45968" lon="6.20984">
        <ele>173.4</ele>
        <time>2016-01-23T14:16:16Z</time>
      </trkpt>
      <trkpt lat="43.45963" lon="6.20957">
        <ele>173.7</ele>
        <time>2016-01-23T14:16:17Z</time>
      </trkpt>
      <trkpt lat="43.45957" lon="6.20931">
        <ele>173.7</ele>
        <time>2016-01-23T14:16:18Z</time>
      </trkpt>
      <trkpt lat="43.4595" lon="6.20906">
        <ele>172.8</ele>
        <time>2016-01-23T14:16:19Z</time>
      </trkpt>
      <trkpt lat="43.4594" lon="6.20884">
        <ele>171.8</ele>
        <time>2016-01-23T14:16:20Z</time>
      </trkpt>
      <trkpt lat="43.4593" lon="6.20864">
        <ele>171.1</ele>
        <time>2016-01-23T14:16:21Z</time>
      </trkpt>
      <trkpt lat="43.45919" lon="6.20846">
        <ele>171.3</ele>
        <time>2016-01-23T14:16:22Z</time>
      </trkpt>
      <trkpt lat="43.45908" lon="6.20831">
        <ele>170.7</ele>
        <time>2016-01-23T14:16:23Z</time>
      </trkpt>
      <trkpt lat="43.45896" lon="6.20819">
        <ele>170.4</ele>
        <time>2016-01-23T14:16:24Z</time>
      </trkpt>
      <trkpt lat="43.45882" lon="6.20811">
        <ele>169.3</ele>
        <time>2016-01-23T14:16:25Z</time>
      </trkpt>
      <trkpt lat="43.45865" lon="6.20812">
        <ele>168.4</ele>
        <time>2016-01-23T14:16:26Z</time>
      </trkpt>
      <trkpt lat="43.45845" lon="6.20817">
        <ele>168.8</ele>
        <time>2016-01-23T14:16:27Z</time>
      </trkpt>
      <trkpt lat="43.45824" lon="6.20825">
        <ele>169.1</ele>
        <time>2016-01-23T14:16:28Z</time>
      </trkpt>
      <trkpt lat="43.45803" lon="6.20831">
        <ele>167.9</ele>
        <time>2016-01-23T14:16:29Z</time>
      </trkpt>
      <trkpt lat="43.4578" lon="6.20836">
        <ele>168.5</ele>
        <time>2016-01-23T14:16:30Z</time>
      </trkpt>
      <trkpt lat="43.45756" lon="6.20839">
        <ele>168.5</ele>
        <time>2016-01-23T14:16:31Z</time>
      </trkpt>
      <trkpt lat="43.45733" lon="6.20844">
        <ele>168.8</ele>
        <time>2016-01-23T14:16:32Z</time>
      </trkpt>
      <trkpt lat="43.45712" lon="6.20852">
        <ele>168.9</ele>
        <time>2016-01-23T14:16:33Z</time>
      </trkpt>
      <trkpt lat="43.45692" lon="6.20863">
        <ele>168.1</ele>
        <time>2016-01-23T14:16:34Z</time>
      </trkpt>
      <trkpt lat="43.45675" lon="6.20876">
        <ele>168.7</ele>
        <time>2016-01-23T14:16:35Z</time>
      </trkpt>
      <trkpt lat="43.45661" lon="6.20892">
        <ele>168.9</ele>
        <time>2016-01-23T14:16:36Z</time>
      </trkpt>
      <trkpt lat="43.4565" lon="6.20911">
        <ele>168.7</ele>
        <time>2016-01-23T14:16:37Z</time>
      </trkpt>
      <trkpt lat="43.4564" lon="6.20932">
        <ele>169</ele>
        <time>2016-01-23T14:16:38Z</time>
      </trkpt>
      <trkpt lat="43.45636" lon="6.20956">
        <ele>169.6</ele>
        <time>2016-01-23T14:16:39Z</time>
      </trkpt>
      <trkpt lat="43.45632" lon="6.20982">
        <ele>169.3</ele>
        <time>2016-01-23T14:16:40Z</time>
      </trkpt>
      <trkpt lat="43.4563" lon="6.21013">
        <ele>169.3</ele>
        <time>2016-01-23T14:16:41Z</time>
      </trkpt>
      <trkpt lat="43.45627" lon="6.21044">
        <ele>169.7</ele>
        <time>2016-01-23T14:16:42Z</time>
      </trkpt>
      <trkpt lat="43.45625" lon="6.21076">
        <ele>170.1</ele>
        <time>2016-01-23T14:16:43Z</time>
      </trkpt>
      <trkpt lat="43.45621" lon="6.21108">
        <ele>171.7</ele>
        <time>2016-01-23T14:16:44Z</time>
      </trkpt>
      <trkpt lat="43.45618" lon="6.2114">
        <ele>171</ele>
        <time>2016-01-23T14:16:45Z</time>
      </trkpt>
      <trkpt lat="43.45614" lon="6.21171">
        <ele>169.2</ele>
        <time>2016-01-23T14:16:46Z</time>
      </trkpt>
      <trkpt lat="43.45609" lon="6.21202">
        <ele>169.1</ele>
        <time>2016-01-23T14:16:47Z</time>
      </trkpt>
      <trkpt lat="43.45604" lon="6.2123">
        <ele>172.1</ele>
        <time>2016-01-23T14:16:48Z</time>
      </trkpt>
      <trkpt lat="43.45599" lon="6.21258">
        <ele>176.9</ele>
        <time>2016-01-23T14:16:49Z</time>
      </trkpt>
      <trkpt lat="43.45595" lon="6.21282">
        <ele>175.5</ele>
        <time>2016-01-23T14:16:50Z</time>
      </trkpt>
      <trkpt lat="43.45591" lon="6.21303">
        <ele>172.7</ele>
        <time>2016-01-23T14:16:51Z</time>
      </trkpt>
      <trkpt lat="43.45589" lon="6.21323">
        <ele>170.8</ele>
        <time>2016-01-23T14:16:52Z</time>
      </trkpt>
      <trkpt lat="43.45589" lon="6.21342">
        <ele>170.1</ele>
        <time>2016-01-23T14:16:53Z</time>
      </trkpt>
      <trkpt lat="43.45593" lon="6.21359">
        <ele>169.7</ele>
        <time>2016-01-23T14:16:54Z</time>
      </trkpt>
      <trkpt lat="43.45599" lon="6.21376">
        <ele>169.4</ele>
        <time>2016-01-23T14:16:55Z</time>
      </trkpt>
      <trkpt lat="43.45604" lon="6.21394">
        <ele>168.4</ele>
        <time>2016-01-23T14:16:56Z</time>
      </trkpt>
      <trkpt lat="43.4561" lon="6.21413">
        <ele>168.1</ele>
        <time>2016-01-23T14:16:57Z</time>
      </trkpt>
      <trkpt lat="43.45616" lon="6.21434">
        <ele>169.8</ele>
        <time>2016-01-23T14:16:58Z</time>
      </trkpt>
      <trkpt lat="43.45623" lon="6.21453">
        <ele>171.1</ele>
        <time>2016-01-23T14:16:59Z</time>
      </trkpt>
      <trkpt lat="43.45629" lon="6.21472">
        <ele>170.2</ele>
        <time>2016-01-23T14:17:00Z</time>
      </trkpt>
      <trkpt lat="43.45632" lon="6.21491">
        <ele>170.3</ele>
        <time>2016-01-23T14:17:01Z</time>
      </trkpt>
      <trkpt lat="43.45632" lon="6.2151">
        <ele>169.7</ele>
        <time>2016-01-23T14:17:02Z</time>
      </trkpt>
      <trkpt lat="43.45629" lon="6.21526">
        <ele>169</ele>
        <time>2016-01-23T14:17:03Z</time>
      </trkpt>
      <trkpt lat="43.45622" lon="6.21538">
        <ele>170.7</ele>
        <time>2016-01-23T14:17:04Z</time>
      </trkpt>
      <trkpt lat="43.45611" lon="6.21546">
        <ele>172.2</ele>
        <time>2016-01-23T14:17:05Z</time>
      </trkpt>
      <trkpt lat="43.45599" lon="6.21549">
        <ele>172.8</ele>
        <time>2016-01-23T14:17:06Z</time>
      </trkpt>
      <trkpt lat="43.45588" lon="6.2155">
        <ele>173</ele>
        <time>2016-01-23T14:17:07Z</time>
      </trkpt>
      <trkpt lat="43.45579" lon="6.2155">
        <ele>172.4</ele>
        <time>2016-01-23T14:17:08Z</time>
      </trkpt>
      <trkpt lat="43.4557" lon="6.21549">
        <ele>171.2</ele>
        <time>2016-01-23T14:17:09Z</time>
      </trkpt>
      <trkpt lat="43.45561" lon="6.21549">
        <ele>170.1</ele>
        <time>2016-01-23T14:17:10Z</time>
      </trkpt>
      <trkpt lat="43.45552" lon="6.21548">
        <ele>169.8</ele>
        <time>2016-01-23T14:17:11Z</time>
      </trkpt>
      <trkpt lat="43.45541" lon="6.21545">
        <ele>170.4</ele>
        <time>2016-01-23T14:17:12Z</time>
      </trkpt>
      <trkpt lat="43.45532" lon="6.21543">
        <ele>170.8</ele>
        <time>2016-01-23T14:17:13Z</time>
      </trkpt>
      <trkpt lat="43.45524" lon="6.21541">
        <ele>171.4</ele>
        <time>2016-01-23T14:17:14Z</time>
      </trkpt>
      <trkpt lat="43.45517" lon="6.21537">
        <ele>171.9</ele>
        <time>2016-01-23T14:17:15Z</time>
      </trkpt>
      <trkpt lat="43.4551" lon="6.21533">
        <ele>171.9</ele>
        <time>2016-01-23T14:17:16Z</time>
      </trkpt>
      <trkpt lat="43.45504" lon="6.21528">
        <ele>171.6</ele>
        <time>2016-01-23T14:17:17Z</time>
      </trkpt>
      <trkpt lat="43.45498" lon="6.21522">
        <ele>172</ele>
        <time>2016-01-23T14:17:18Z</time>
      </trkpt>
      <trkpt lat="43.45492" lon="6.21514">
        <ele>173.6</ele>
        <time>2016-01-23T14:17:19Z</time>
      </trkpt>
      <trkpt lat="43.45487" lon="6.21505">
        <ele>174.6</ele>
        <time>2016-01-23T14:17:20Z</time>
      </trkpt>
      <trkpt lat="43.45483" lon="6.21495">
        <ele>175.3</ele>
        <time>2016-01-23T14:17:21Z</time>
      </trkpt>
      <trkpt lat="43.4548" lon="6.21483">
        <ele>175</ele>
        <time>2016-01-23T14:17:22Z</time>
      </trkpt>
      <trkpt lat="43.45477" lon="6.21471">
        <ele>174.3</ele>
        <time>2016-01-23T14:17:23Z</time>
      </trkpt>
      <trkpt lat="43.45474" lon="6.21459">
        <ele>173.6</ele>
        <time>2016-01-23T14:17:24Z</time>
      </trkpt>
      <trkpt lat="43.45471" lon="6.21447">
        <ele>172.9</ele>
        <time>2016-01-23T14:17:25Z</time>
      </trkpt>
      <trkpt lat="43.45466" lon="6.21434">
        <ele>172.7</ele>
        <time>2016-01-23T14:17:26Z</time>
      </trkpt>
      <trkpt lat="43.45461" lon="6.21421">
        <ele>172.7</ele>
        <time>2016-01-23T14:17:27Z</time>
      </trkpt>
      <trkpt lat="43.45454" lon="6.21409">
        <ele>173.4</ele>
        <time>2016-01-23T14:17:28Z</time>
      </trkpt>
      <trkpt lat="43.45447" lon="6.21398">
        <ele>174</ele>
        <time>2016-01-23T14:17:29Z</time>
      </trkpt>
      <trkpt lat="43.45439" lon="6.2139">
        <ele>173</ele>
        <time>2016-01-23T14:17:30Z</time>
      </trkpt>
      <trkpt lat="43.45432" lon="6.21384">
        <ele>171.8</ele>
        <time>2016-01-23T14:17:31Z</time>
      </trkpt>
      <trkpt lat="43.45421" lon="6.21385">
        <ele>171.4</ele>
        <time>2016-01-23T14:17:32Z</time>
      </trkpt>
      <trkpt lat="43.45407" lon="6.21389">
        <ele>171</ele>
        <time>2016-01-23T14:17:33Z</time>
      </trkpt>
      <trkpt lat="43.45396" lon="6.21392">
        <ele>170.8</ele>
        <time>2016-01-23T14:17:34Z</time>
      </trkpt>
      <trkpt lat="43.45386" lon="6.21396">
        <ele>171.2</ele>
        <time>2016-01-23T14:17:35Z</time>
      </trkpt>
      <trkpt lat="43.45378" lon="6.21402">
        <ele>171.3</ele>
        <time>2016-01-23T14:17:36Z</time>
      </trkpt>
      <trkpt lat="43.4537" lon="6.21409">
        <ele>170.9</ele>
        <time>2016-01-23T14:17:37Z</time>
      </trkpt>
      <trkpt lat="43.45363" lon="6.21419">
        <ele>169.9</ele>
        <time>2016-01-23T14:17:38Z</time>
      </trkpt>
      <trkpt lat="43.45355" lon="6.21426">
        <ele>170.5</ele>
        <time>2016-01-23T14:17:39Z</time>
      </trkpt>
      <trkpt lat="43.45348" lon="6.21433">
        <ele>171.1</ele>
        <time>2016-01-23T14:17:40Z</time>
      </trkpt>
      <trkpt lat="43.45342" lon="6.21438">
        <ele>171.2</ele>
        <time>2016-01-23T14:17:41Z</time>
      </trkpt>
      <trkpt lat="43.45337" lon="6.21441">
        <ele>171.1</ele>
        <time>2016-01-23T14:17:42Z</time>
      </trkpt>
      <trkpt lat="43.45332" lon="6.21445">
        <ele>171</ele>
        <time>2016-01-23T14:17:43Z</time>
      </trkpt>
      <trkpt lat="43.45329" lon="6.21447">
        <ele>171.1</ele>
        <time>2016-01-23T14:17:44Z</time>
      </trkpt>
      <trkpt lat="43.45327" lon="6.21449">
        <ele>171.1</ele>
        <time>2016-01-23T14:17:45Z</time>
      </trkpt>
      <trkpt lat="43.45324" lon="6.2145">
        <ele>171.1</ele>
        <time>2016-01-23T14:17:46Z</time>
      </trkpt>
      <trkpt lat="43.45321" lon="6.21449">
        <ele>171.1</ele>
        <time>2016-01-23T14:17:47Z</time>
      </trkpt>
      <trkpt lat="43.45319" lon="6.21449">
        <ele>171.1</ele>
        <time>2016-01-23T14:17:48Z</time>
      </trkpt>
      <trkpt lat="43.45317" lon="6.21449">
        <ele>171.1</ele>
        <time>2016-01-23T14:17:49Z</time>
      </trkpt>
      <trkpt lat="43.45315" lon="6.21449">
        <ele>171.1</ele>
        <time>2016-01-23T14:17:50Z</time>
      </trkpt>
      <trkpt lat="43.45314" lon="6.21449">
        <ele>171</ele>
        <time>2016-01-23T14:17:51Z</time>
      </trkpt>
      <trkpt lat="43.45313" lon="6.21449">
        <ele>171</ele>
        <time>2016-01-23T14:17:52Z</time>
      </trkpt>
      <trkpt lat="43.45312" lon="6.2145">
        <ele>171</ele>
        <time>2016-01-23T14:17:53Z</time>
      </trkpt>
      <trkpt lat="43.45311" lon="6.21451">
        <ele>171</ele>
        <time>2016-01-23T14:17:54Z</time>
      </trkpt>
      <trkpt lat="43.4531" lon="6.21453">
        <ele>171</ele>
        <time>2016-01-23T14:17:55Z</time>
      </trkpt>
      <trkpt lat="43.4531" lon="6.21455">
        <ele>171.1</ele>
        <time>2016-01-23T14:17:56Z</time>
      </trkpt>
      <trkpt lat="43.4531" lon="6.21458">
        <ele>171.1</ele>
        <time>2016-01-23T14:17:57Z</time>
      </trkpt>
      <trkpt lat="43.4531" lon="6.2146">
        <ele>171.1</ele>
        <time>2016-01-23T14:17:58Z</time>
      </trkpt>
      <trkpt lat="43.45311" lon="6.21463">
        <ele>171.1</ele>
        <time>2016-01-23T14:17:59Z</time>
      </trkpt>
      <trkpt lat="43.45312" lon="6.21465">
        <ele>171.2</ele>
        <time>2016-01-23T14:18:00Z</time>
      </trkpt>
      <trkpt lat="43.45314" lon="6.21468">
        <ele>171.2</ele>
        <time>2016-01-23T14:18:01Z</time>
      </trkpt>
      <trkpt lat="43.45315" lon="6.2147">
        <ele>171.3</ele>
        <time>2016-01-23T14:18:02Z</time>
      </trkpt>
      <trkpt lat="43.45317" lon="6.21472">
        <ele>171.4</ele>
        <time>2016-01-23T14:18:03Z</time>
      </trkpt>
      <trkpt lat="43.45319" lon="6.21473">
        <ele>171.5</ele>
        <time>2016-01-23T14:18:04Z</time>
      </trkpt>
      <trkpt lat="43.4532" lon="6.21474">
        <ele>171.5</ele>
        <time>2016-01-23T14:18:05Z</time>
      </trkpt>
      <trkpt lat="43.45322" lon="6.21475">
        <ele>171.6</ele>
        <time>2016-01-23T14:18:06Z</time>
      </trkpt>
      <trkpt lat="43.45324" lon="6.21474">
        <ele>171.7</ele>
        <time>2016-01-23T14:18:07Z</time>
      </trkpt>
      <trkpt lat="43.45326" lon="6.21473">
        <ele>171.7</ele>
        <time>2016-01-23T14:18:08Z</time>
      </trkpt>
      <trkpt lat="43.45327" lon="6.21472">
        <ele>171.8</ele>
        <time>2016-01-23T14:18:09Z</time>
      </trkpt>
      <trkpt lat="43.45327" lon="6.21472">
        <ele>171.7</ele>
        <time>2016-01-23T14:18:10Z</time>
      </trkpt>
      <trkpt lat="43.45327" lon="6.21472">
        <ele>171.7</ele>
        <time>2016-01-23T14:18:11Z</time>
      </trkpt>
      <trkpt lat="43.45327" lon="6.21471">
        <ele>171.7</ele>
        <time>2016-01-23T14:18:12Z</time>
      </trkpt>
      <trkpt lat="43.45327" lon="6.21471">
        <ele>171.7</ele>
        <time>2016-01-23T14:18:13Z</time>
      </trkpt>
      <trkpt lat="43.45327" lon="6.21471">
        <ele>171.8</ele>
        <time>2016-01-23T14:18:14Z</time>
      </trkpt>
      <trkpt lat="43.45327" lon="6.21471">
        <ele>171.8</ele>
        <time>2016-01-23T14:18:15Z</time>
      </trkpt>
      <trkpt lat="43.45327" lon="6.21471">
        <ele>171.8</ele>
        <time>2016-01-23T14:18:16Z</time>
      </trkpt>
      <trkpt lat="43.45327" lon="6.21471">
        <ele>171.8</ele>
        <time>2016-01-23T14:18:17Z</time>
      </trkpt>
      <trkpt lat="43.45327" lon="6.21471">
        <ele>171.8</ele>
        <time>2016-01-23T14:18:18Z</time>
      </trkpt>
      <trkpt lat="43.45327" lon="6.21471">
        <ele>171.8</ele>
        <time>2016-01-23T14:18:19Z</time>
      </trkpt>
      <trkpt lat="43.45327" lon="6.21471">
        <ele>171.8</ele>
        <time>2016-01-23T14:18:20Z</time>
      </trkpt>
      <trkpt lat="43.45327" lon="6.21471">
        <ele>171.8</ele>
        <time>2016-01-23T14:18:21Z</time>
      </trkpt>
      <trkpt lat="43.45327" lon="6.21471">
        <ele>171.8</ele>
        <time>2016-01-23T14:18:22Z</time>
      </trkpt>
      <trkpt lat="43.45327" lon="6.21471">
        <ele>171.8</ele>
        <time>2016-01-23T14:18:23Z</time>
      </trkpt>
      <trkpt lat="43.45327" lon="6.21471">
        <ele>171.7</ele>
        <time>2016-01-23T14:18:24Z</time>
      </trkpt>
      <trkpt lat="43.45327" lon="6.21471">
        <ele>171.8</ele>
        <time>2016-01-23T14:18:25Z</time>
      </trkpt>
      <trkpt lat="43.45327" lon="6.21471">
        <ele>171.8</ele>
        <time>2016-01-23T14:18:26Z</time>
      </trkpt>
      <trkpt lat="43.45327" lon="6.21471">
        <ele>171.8</ele>
        <time>2016-01-23T14:18:27Z</time>
      </trkpt>
      <trkpt lat="43.45327" lon="6.21471">
        <ele>171.8</ele>
        <time>2016-01-23T14:18:28Z</time>
      </trkpt>
      <trkpt lat="43.45327" lon="6.21471">
        <ele>171.8</ele>
        <time>2016-01-23T14:18:29Z</time>
      </trkpt>
      <trkpt lat="43.45327" lon="6.21472">
        <ele>171.8</ele>
        <time>2016-01-23T14:18:30Z</time>
      </trkpt>
      <trkpt lat="43.45328" lon="6.21472">
        <ele>171.8</ele>
        <time>2016-01-23T14:18:31Z</time>
      </trkpt>
      <trkpt lat="43.45328" lon="6.21472">
        <ele>171.8</ele>
        <time>2016-01-23T14:18:32Z</time>
      </trkpt>
      <trkpt lat="43.45328" lon="6.21472">
        <ele>171.8</ele>
        <time>2016-01-23T14:18:33Z</time>
      </trkpt>
      <trkpt lat="43.45328" lon="6.21472">
        <ele>171.8</ele>
        <time>2016-01-23T14:18:34Z</time>
      </trkpt>
      <trkpt lat="43.45328" lon="6.21472">
        <ele>171.8</ele>
        <time>2016-01-23T14:18:35Z</time>
      </trkpt>
      <trkpt lat="43.45328" lon="6.21472">
        <ele>171.8</ele>
        <time>2016-01-23T14:18:36Z</time>
      </trkpt>
      <trkpt lat="43.45328" lon="6.21472">
        <ele>171.8</ele>
        <time>2016-01-23T14:18:37Z</time>
      </trkpt>
      <trkpt lat="43.45328" lon="6.21472">
        <ele>171.8</ele>
        <time>2016-01-23T14:18:38Z</time>
      </trkpt>
      <trkpt lat="43.45328" lon="6.21472">
        <ele>171.8</ele>
        <time>2016-01-23T14:18:39Z</time>
      </trkpt>
      <trkpt lat="43.45329" lon="6.21472">
        <ele>171.8</ele>
        <time>2016-01-23T14:18:40Z</time>
      </trkpt>
      <trkpt lat="43.45329" lon="6.21472">
        <ele>171.8</ele>
        <time>2016-01-23T14:18:41Z</time>
      </trkpt>
      <trkpt lat="43.45329" lon="6.21472">
        <ele>171.8</ele>
        <time>2016-01-23T14:18:42Z</time>
      </trkpt>
      <trkpt lat="43.45329" lon="6.21472">
        <ele>171.8</ele>
        <time>2016-01-23T14:18:43Z</time>
      </trkpt>
      <trkpt lat="43.45329" lon="6.21472">
        <ele>171.8</ele>
        <time>2016-01-23T14:18:44Z</time>
      </trkpt>
      <trkpt lat="43.45329" lon="6.21472">
        <ele>171.8</ele>
        <time>2016-01-23T14:18:45Z</time>
      </trkpt>
      <trkpt lat="43.45329" lon="6.21472">
        <ele>171.8</ele>
        <time>2016-01-23T14:18:46Z</time>
      </trkpt>
      <trkpt lat="43.45329" lon="6.21472">
        <ele>171.8</ele>
        <time>2016-01-23T14:18:47Z</time>
      </trkpt>
      <trkpt lat="43.45329" lon="6.21472">
        <ele>171.8</ele>
        <time>2016-01-23T14:18:48Z</time>
      </trkpt>
      <trkpt lat="43.45329" lon="6.21472">
        <ele>171.8</ele>
        <time>2016-01-23T14:18:49Z</time>
      </trkpt>
      <trkpt lat="43.45329" lon="6.21472">
        <ele>171.8</ele>
        <time>2016-01-23T14:18:50Z</time>
      </trkpt>
      <trkpt lat="43.45329" lon="6.21472">
        <ele>171.8</ele>
        <time>2016-01-23T14:18:51Z</time>
      </trkpt>
      <trkpt lat="43.45329" lon="6.21472">
        <ele>171.8</ele>
        <time>2016-01-23T14:18:52Z</time>
      </trkpt>
      <trkpt lat="43.45329" lon="6.21472">
        <ele>171.8</ele>
        <time>2016-01-23T14:18:53Z</time>
      </trkpt>
      <trkpt lat="43.45329" lon="6.21472">
        <ele>171.8</ele>
        <time>2016-01-23T14:18:54Z</time>
      </trkpt>
      <trkpt lat="43.45328" lon="6.21472">
        <ele>171.8</ele>
        <time>2016-01-23T14:29:51Z</time>
      </trkpt>
      <trkpt lat="43.45328" lon="6.21472">
        <ele>171.8</ele>
        <time>2016-01-23T14:29:52Z</time>
      </trkpt>
      <trkpt lat="43.45328" lon="6.21472">
        <ele>171.8</ele>
        <time>2016-01-23T14:29:53Z</time>
      </trkpt>
      <trkpt lat="43.45328" lon="6.21472">
        <ele>171.8</ele>
        <time>2016-01-23T14:29:54Z</time>
      </trkpt>
      <trkpt lat="43.45328" lon="6.21472">
        <ele>171.8</ele>
        <time>2016-01-23T14:29:55Z</time>
      </trkpt>
      <trkpt lat="43.45328" lon="6.21472">
        <ele>171.8</ele>
        <time>2016-01-23T14:29:56Z</time>
      </trkpt>
      <trkpt lat="43.45328" lon="6.21472">
        <ele>171.8</ele>
        <time>2016-01-23T14:29:57Z</time>
      </trkpt>
      <trkpt lat="43.45328" lon="6.21472">
        <ele>171.8</ele>
        <time>2016-01-23T14:29:58Z</time>
      </trkpt>
      <trkpt lat="43.45328" lon="6.21472">
        <ele>171.8</ele>
        <time>2016-01-23T14:29:59Z</time>
      </trkpt>
      <trkpt lat="43.45328" lon="6.21472">
        <ele>171.8</ele>
        <time>2016-01-23T14:30:00Z</time>
      </trkpt>
      <trkpt lat="43.45328" lon="6.21472">
        <ele>171.8</ele>
        <time>2016-01-23T14:30:01Z</time>
      </trkpt>
      <trkpt lat="43.45328" lon="6.21472">
        <ele>171.8</ele>
        <time>2016-01-23T14:30:02Z</time>
      </trkpt>
      <trkpt lat="43.45328" lon="6.21472">
        <ele>171.8</ele>
        <time>2016-01-23T14:30:03Z</time>
      </trkpt>
      <trkpt lat="43.45328" lon="6.21472">
        <ele>171.8</ele>
        <time>2016-01-23T14:30:04Z</time>
      </trkpt>
      <trkpt lat="43.45328" lon="6.21472">
        <ele>171.8</ele>
        <time>2016-01-23T14:30:05Z</time>
      </trkpt>
      <trkpt lat="43.45328" lon="6.21472">
        <ele>171.8</ele>
        <time>2016-01-23T14:30:06Z</time>
      </trkpt>
      <trkpt lat="43.45328" lon="6.21471">
        <ele>171.8</ele>
        <time>2016-01-23T14:30:07Z</time>
      </trkpt>
      <trkpt lat="43.45328" lon="6.21471">
        <ele>171.8</ele>
        <time>2016-01-23T14:30:08Z</time>
      </trkpt>
      <trkpt lat="43.45328" lon="6.21471">
        <ele>171.8</ele>
        <time>2016-01-23T14:30:09Z</time>
      </trkpt>
      <trkpt lat="43.45328" lon="6.21471">
        <ele>171.8</ele>
        <time>2016-01-23T14:30:10Z</time>
      </trkpt>
      <trkpt lat="43.45328" lon="6.21471">
        <ele>171.8</ele>
        <time>2016-01-23T14:30:11Z</time>
      </trkpt>
      <trkpt lat="43.45328" lon="6.21471">
        <ele>171.8</ele>
        <time>2016-01-23T14:30:12Z</time>
      </trkpt>
      <trkpt lat="43.45328" lon="6.21471">
        <ele>171.8</ele>
        <time>2016-01-23T14:30:13Z</time>
      </trkpt>
      <trkpt lat="43.45328" lon="6.21471">
        <ele>171.8</ele>
        <time>2016-01-23T14:30:14Z</time>
      </trkpt>
      <trkpt lat="43.45328" lon="6.21471">
        <ele>171.8</ele>
        <time>2016-01-23T14:30:15Z</time>
      </trkpt>
      <trkpt lat="43.45328" lon="6.21471">
        <ele>171.8</ele>
        <time>2016-01-23T14:30:16Z</time>
      </trkpt>
      <trkpt lat="43.45328" lon="6.21471">
        <ele>171.8</ele>
        <time>2016-01-23T14:30:17Z</time>
      </trkpt>
      <trkpt lat="43.45328" lon="6.21471">
        <ele>171.8</ele>
        <time>2016-01-23T14:30:18Z</time>
      </trkpt>
      <trkpt lat="43.45328" lon="6.21471">
        <ele>171.8</ele>
        <time>2016-01-23T14:30:19Z</time>
      </trkpt>
      <trkpt lat="43.45328" lon="6.21471">
        <ele>171.8</ele>
        <time>2016-01-23T14:30:20Z</time>
      </trkpt>
      <trkpt lat="43.45328" lon="6.21471">
        <ele>171.8</ele>
        <time>2016-01-23T14:30:21Z</time>
      </trkpt>
      <trkpt lat="43.45328" lon="6.21471">
        <ele>171.8</ele>
        <time>2016-01-23T14:30:22Z</time>
      </trkpt>
      <trkpt lat="43.45328" lon="6.21471">
        <ele>171.8</ele>
        <time>2016-01-23T14:30:23Z</time>
      </trkpt>
      <trkpt lat="43.45328" lon="6.21471">
        <ele>171.8</ele>
        <time>2016-01-23T14:30:24Z</time>
      </trkpt>
      <trkpt lat="43.45328" lon="6.21471">
        <ele>171.8</ele>
        <time>2016-01-23T14:30:25Z</time>
      </trkpt>
      <trkpt lat="43.45328" lon="6.21471">
        <ele>171.8</ele>
        <time>2016-01-23T14:30:26Z</time>
      </trkpt>
      <trkpt lat="43.45328" lon="6.21471">
        <ele>171.8</ele>
        <time>2016-01-23T14:30:27Z</time>
      </trkpt>
      <trkpt lat="43.45328" lon="6.21471">
        <ele>171.8</ele>
        <time>2016-01-23T14:30:28Z</time>
      </trkpt>
      <trkpt lat="43.45328" lon="6.21471">
        <ele>171.8</ele>
        <time>2016-01-23T14:30:29Z</time>
      </trkpt>
      <trkpt lat="43.45328" lon="6.21471">
        <ele>171.8</ele>
        <time>2016-01-23T14:30:30Z</time>
      </trkpt>
      <trkpt lat="43.45328" lon="6.21471">
        <ele>171.8</ele>
        <time>2016-01-23T14:30:31Z</time>
      </trkpt>
      <trkpt lat="43.45328" lon="6.21471">
        <ele>171.8</ele>
        <time>2016-01-23T14:30:32Z</time>
      </trkpt>
      <trkpt lat="43.45328" lon="6.21471">
        <ele>171.8</ele>
        <time>2016-01-23T14:30:33Z</time>
      </trkpt>
      <trkpt lat="43.45328" lon="6.21471">
        <ele>171.8</ele>
        <time>2016-01-23T14:30:34Z</time>
      </trkpt>
      <trkpt lat="43.45328" lon="6.21471">
        <ele>171.8</ele>
        <time>2016-01-23T14:30:35Z</time>
      </trkpt>
      <trkpt lat="43.45328" lon="6.21471">
        <ele>171.8</ele>
        <time>2016-01-23T14:30:36Z</time>
      </trkpt>
      <trkpt lat="43.45328" lon="6.21471">
        <ele>171.8</ele>
        <time>2016-01-23T14:30:37Z</time>
      </trkpt>
      <trkpt lat="43.45328" lon="6.21471">
        <ele>171.8</ele>
        <time>2016-01-23T14:30:38Z</time>
      </trkpt>
      <trkpt lat="43.45328" lon="6.21471">
        <ele>171.8</ele>
        <time>2016-01-23T14:30:39Z</time>
      </trkpt>
      <trkpt lat="43.45328" lon="6.21471">
        <ele>171.8</ele>
        <time>2016-01-23T14:30:40Z</time>
      </trkpt>
      <trkpt lat="43.45328" lon="6.21471">
        <ele>171.8</ele>
        <time>2016-01-23T14:30:41Z</time>
      </trkpt>
      <trkpt lat="43.45328" lon="6.21471">
        <ele>171.8</ele>
        <time>2016-01-23T14:30:42Z</time>
      </trkpt>
      <trkpt lat="43.45328" lon="6.21471">
        <ele>171.8</ele>
        <time>2016-01-23T14:30:43Z</time>
      </trkpt>
      <trkpt lat="43.45328" lon="6.21471">
        <ele>171.8</ele>
        <time>2016-01-23T14:30:44Z</time>
      </trkpt>
      <trkpt lat="43.45328" lon="6.21471">
        <ele>171.8</ele>
        <time>2016-01-23T14:30:45Z</time>
      </trkpt>
      <trkpt lat="43.45328" lon="6.21471">
        <ele>171.8</ele>
        <time>2016-01-23T14:30:46Z</time>
      </trkpt>
      <trkpt lat="43.45328" lon="6.21471">
        <ele>171.8</ele>
        <time>2016-01-23T14:30:47Z</time>
      </trkpt>
      <trkpt lat="43.45328" lon="6.21471">
        <ele>171.8</ele>
        <time>2016-01-23T14:30:48Z</time>
      </trkpt>
      <trkpt lat="43.45328" lon="6.21469">
        <ele>171.7</ele>
        <time>2016-01-23T14:30:49Z</time>
      </trkpt>
      <trkpt lat="43.45328" lon="6.21467">
        <ele>171.7</ele>
        <time>2016-01-23T14:30:50Z</time>
      </trkpt>
      <trkpt lat="43.45329" lon="6.21464">
        <ele>171.6</ele>
        <time>2016-01-23T14:30:51Z</time>
      </trkpt>
      <trkpt lat="43.45328" lon="6.21458">
        <ele>171.4</ele>
        <time>2016-01-23T14:30:52Z</time>
      </trkpt>
      <trkpt lat="43.45327" lon="6.21453">
        <ele>171.2</ele>
        <time>2016-01-23T14:30:53Z</time>
      </trkpt>
      <trkpt lat="43.45324" lon="6.21449">
        <ele>171.1</ele>
        <time>2016-01-23T14:30:54Z</time>
      </trkpt>
      <trkpt lat="43.4532" lon="6.21446">
        <ele>171</ele>
        <time>2016-01-23T14:30:55Z</time>
      </trkpt>
      <trkpt lat="43.45312" lon="6.21444">
        <ele>170.9</ele>
        <time>2016-01-23T14:30:56Z</time>
      </trkpt>
      <trkpt lat="43.45305" lon="6.21442">
        <ele>170.8</ele>
        <time>2016-01-23T14:30:57Z</time>
      </trkpt>
      <trkpt lat="43.45297" lon="6.21438">
        <ele>171.6</ele>
        <time>2016-01-23T14:30:58Z</time>
      </trkpt>
      <trkpt lat="43.45289" lon="6.21432">
        <ele>171.9</ele>
        <time>2016-01-23T14:30:59Z</time>
      </trkpt>
      <trkpt lat="43.45281" lon="6.21424">
        <ele>171.9</ele>
        <time>2016-01-23T14:31:00Z</time>
      </trkpt>
      <trkpt lat="43.45273" lon="6.21416">
        <ele>172</ele>
        <time>2016-01-23T14:31:01Z</time>
      </trkpt>
      <trkpt lat="43.45265" lon="6.21408">
        <ele>172.6</ele>
        <time>2016-01-23T14:31:02Z</time>
      </trkpt>
      <trkpt lat="43.45257" lon="6.21398">
        <ele>172.6</ele>
        <time>2016-01-23T14:31:03Z</time>
      </trkpt>
      <trkpt lat="43.4525" lon="6.21388">
        <ele>172</ele>
        <time>2016-01-23T14:31:04Z</time>
      </trkpt>
      <trkpt lat="43.45241" lon="6.21379">
        <ele>172</ele>
        <time>2016-01-23T14:31:05Z</time>
      </trkpt>
      <trkpt lat="43.45234" lon="6.21369">
        <ele>171.9</ele>
        <time>2016-01-23T14:31:06Z</time>
      </trkpt>
      <trkpt lat="43.45227" lon="6.2136">
        <ele>171.8</ele>
        <time>2016-01-23T14:31:07Z</time>
      </trkpt>
      <trkpt lat="43.45219" lon="6.21351">
        <ele>171.8</ele>
        <time>2016-01-23T14:31:08Z</time>
      </trkpt>
      <trkpt lat="43.45212" lon="6.21342">
        <ele>171.8</ele>
        <time>2016-01-23T14:31:09Z</time>
      </trkpt>
      <trkpt lat="43.45205" lon="6.21334">
        <ele>171.8</ele>
        <time>2016-01-23T14:31:10Z</time>
      </trkpt>
      <trkpt lat="43.45197" lon="6.21324">
        <ele>171.6</ele>
        <time>2016-01-23T14:31:11Z</time>
      </trkpt>
      <trkpt lat="43.45189" lon="6.21313">
        <ele>171.4</ele>
        <time>2016-01-23T14:31:12Z</time>
      </trkpt>
      <trkpt lat="43.4518" lon="6.21301">
        <ele>172.1</ele>
        <time>2016-01-23T14:31:13Z</time>
      </trkpt>
      <trkpt lat="43.45173" lon="6.21287">
        <ele>172.8</ele>
        <time>2016-01-23T14:31:14Z</time>
      </trkpt>
      <trkpt lat="43.45166" lon="6.21273">
        <ele>173</ele>
        <time>2016-01-23T14:31:15Z</time>
      </trkpt>
      <trkpt lat="43.45159" lon="6.21257">
        <ele>175.1</ele>
        <time>2016-01-23T14:31:16Z</time>
      </trkpt>
      <trkpt lat="43.45153" lon="6.21238">
        <ele>176.8</ele>
        <time>2016-01-23T14:31:17Z</time>
      </trkpt>
      <trkpt lat="43.45147" lon="6.2122">
        <ele>177.7</ele>
        <time>2016-01-23T14:31:18Z</time>
      </trkpt>
      <trkpt lat="43.45141" lon="6.212">
        <ele>175.7</ele>
        <time>2016-01-23T14:31:19Z</time>
      </trkpt>
      <trkpt lat="43.45136" lon="6.21179">
        <ele>174.6</ele>
        <time>2016-01-23T14:31:20Z</time>
      </trkpt>
      <trkpt lat="43.45133" lon="6.21157">
        <ele>173.9</ele>
        <time>2016-01-23T14:31:21Z</time>
      </trkpt>
      <trkpt lat="43.4513" lon="6.21134">
        <ele>173.8</ele>
        <time>2016-01-23T14:31:22Z</time>
      </trkpt>
      <trkpt lat="43.45129" lon="6.21112">
        <ele>174.8</ele>
        <time>2016-01-23T14:31:23Z</time>
      </trkpt>
      <trkpt lat="43.45129" lon="6.2109">
        <ele>175.7</ele>
        <time>2016-01-23T14:31:24Z</time>
      </trkpt>
      <trkpt lat="43.45127" lon="6.21069">
        <ele>175.4</ele>
        <time>2016-01-23T14:31:25Z</time>
      </trkpt>
      <trkpt lat="43.45125" lon="6.21046">
        <ele>174.5</ele>
        <time>2016-01-23T14:31:26Z</time>
      </trkpt>
      <trkpt lat="43.45121" lon="6.21023">
        <ele>173.8</ele>
        <time>2016-01-23T14:31:27Z</time>
      </trkpt>
      <trkpt lat="43.45116" lon="6.21">
        <ele>173.6</ele>
        <time>2016-01-23T14:31:28Z</time>
      </trkpt>
      <trkpt lat="43.45111" lon="6.20977">
        <ele>172.5</ele>
        <time>2016-01-23T14:31:29Z</time>
      </trkpt>
      <trkpt lat="43.45106" lon="6.20954">
        <ele>172.9</ele>
        <time>2016-01-23T14:31:30Z</time>
      </trkpt>
      <trkpt lat="43.45101" lon="6.20931">
        <ele>173</ele>
        <time>2016-01-23T14:31:31Z</time>
      </trkpt>
      <trkpt lat="43.45095" lon="6.20908">
        <ele>172.5</ele>
        <time>2016-01-23T14:31:32Z</time>
      </trkpt>
      <trkpt lat="43.45087" lon="6.20885">
        <ele>171</ele>
        <time>2016-01-23T14:31:33Z</time>
      </trkpt>
      <trkpt lat="43.45079" lon="6.20862">
        <ele>171.4</ele>
        <time>2016-01-23T14:31:34Z</time>
      </trkpt>
      <trkpt lat="43.45071" lon="6.20839">
        <ele>172.4</ele>
        <time>2016-01-23T14:31:35Z</time>
      </trkpt>
      <trkpt lat="43.45062" lon="6.20815">
        <ele>172.3</ele>
        <time>2016-01-23T14:31:36Z</time>
      </trkpt>
      <trkpt lat="43.45055" lon="6.2079">
        <ele>170.8</ele>
        <time>2016-01-23T14:31:37Z</time>
      </trkpt>
      <trkpt lat="43.45048" lon="6.20764">
        <ele>173.2</ele>
        <time>2016-01-23T14:31:38Z</time>
      </trkpt>
      <trkpt lat="43.45041" lon="6.20738">
        <ele>173.4</ele>
        <time>2016-01-23T14:31:39Z</time>
      </trkpt>
      <trkpt lat="43.45035" lon="6.20712">
        <ele>171.4</ele>
        <time>2016-01-23T14:31:40Z</time>
      </trkpt>
      <trkpt lat="43.45028" lon="6.20686">
        <ele>170.6</ele>
        <time>2016-01-23T14:31:41Z</time>
      </trkpt>
      <trkpt lat="43.4502" lon="6.20661">
        <ele>172.8</ele>
        <time>2016-01-23T14:31:42Z</time>
      </trkpt>
      <trkpt lat="43.45011" lon="6.20637">
        <ele>170.4</ele>
        <time>2016-01-23T14:31:43Z</time>
      </trkpt>
      <trkpt lat="43.45002" lon="6.20613">
        <ele>170</ele>
        <time>2016-01-23T14:31:44Z</time>
      </trkpt>
      <trkpt lat="43.44995" lon="6.2059">
        <ele>170.8</ele>
        <time>2016-01-23T14:31:45Z</time>
      </trkpt>
      <trkpt lat="43.44989" lon="6.20565">
        <ele>173.3</ele>
        <time>2016-01-23T14:31:46Z</time>
      </trkpt>
      <trkpt lat="43.44983" lon="6.20539">
        <ele>173.2</ele>
        <time>2016-01-23T14:31:47Z</time>
      </trkpt>
      <trkpt lat="43.44977" lon="6.20513">
        <ele>171.5</ele>
        <time>2016-01-23T14:31:48Z</time>
      </trkpt>
      <trkpt lat="43.44971" lon="6.20487">
        <ele>170.6</ele>
        <time>2016-01-23T14:31:49Z</time>
      </trkpt>
      <trkpt lat="43.44965" lon="6.20461">
        <ele>171.9</ele>
        <time>2016-01-23T14:31:50Z</time>
      </trkpt>
      <trkpt lat="43.44962" lon="6.20435">
        <ele>173.3</ele>
        <time>2016-01-23T14:31:51Z</time>
      </trkpt>
      <trkpt lat="43.44959" lon="6.20407">
        <ele>172.5</ele>
        <time>2016-01-23T14:31:52Z</time>
      </trkpt>
      <trkpt lat="43.44956" lon="6.20377">
        <ele>171.1</ele>
        <time>2016-01-23T14:31:53Z</time>
      </trkpt>
      <trkpt lat="43.44952" lon="6.20348">
        <ele>169.6</ele>
        <time>2016-01-23T14:31:54Z</time>
      </trkpt>
      <trkpt lat="43.44948" lon="6.20318">
        <ele>169.6</ele>
        <time>2016-01-23T14:31:55Z</time>
      </trkpt>
      <trkpt lat="43.44944" lon="6.20288">
        <ele>168.9</ele>
        <time>2016-01-23T14:31:56Z</time>
      </trkpt>
      <trkpt lat="43.4494" lon="6.2026">
        <ele>169.6</ele>
        <time>2016-01-23T14:31:57Z</time>
      </trkpt>
      <trkpt lat="43.44938" lon="6.20231">
        <ele>170.3</ele>
        <time>2016-01-23T14:31:58Z</time>
      </trkpt>
      <trkpt lat="43.44937" lon="6.20204">
        <ele>170.4</ele>
        <time>2016-01-23T14:31:59Z</time>
      </trkpt>
      <trkpt lat="43.44936" lon="6.20178">
        <ele>170.1</ele>
        <time>2016-01-23T14:32:00Z</time>
      </trkpt>
      <trkpt lat="43.44935" lon="6.20153">
        <ele>170.2</ele>
        <time>2016-01-23T14:32:01Z</time>
      </trkpt>
      <trkpt lat="43.44935" lon="6.2013">
        <ele>170.5</ele>
        <time>2016-01-23T14:32:02Z</time>
      </trkpt>
      <trkpt lat="43.44934" lon="6.20107">
        <ele>170.6</ele>
        <time>2016-01-23T14:32:03Z</time>
      </trkpt>
      <trkpt lat="43.44933" lon="6.20084">
        <ele>170.7</ele>
        <time>2016-01-23T14:32:04Z</time>
      </trkpt>
      <trkpt lat="43.44932" lon="6.2006">
        <ele>170.4</ele>
        <time>2016-01-23T14:32:05Z</time>
      </trkpt>
      <trkpt lat="43.4493" lon="6.20035">
        <ele>170.3</ele>
        <time>2016-01-23T14:32:06Z</time>
      </trkpt>
      <trkpt lat="43.44927" lon="6.20007">
        <ele>170.4</ele>
        <time>2016-01-23T14:32:07Z</time>
      </trkpt>
      <trkpt lat="43.44922" lon="6.19978">
        <ele>169.7</ele>
        <time>2016-01-23T14:32:08Z</time>
      </trkpt>
      <trkpt lat="43.44917" lon="6.19949">
        <ele>169.2</ele>
        <time>2016-01-23T14:32:09Z</time>
      </trkpt>
      <trkpt lat="43.44911" lon="6.1992">
        <ele>169.7</ele>
        <time>2016-01-23T14:32:10Z</time>
      </trkpt>
      <trkpt lat="43.44906" lon="6.19891">
        <ele>169.9</ele>
        <time>2016-01-23T14:32:11Z</time>
      </trkpt>
      <trkpt lat="43.44901" lon="6.19864">
        <ele>170.5</ele>
        <time>2016-01-23T14:32:12Z</time>
      </trkpt>
      <trkpt lat="43.44896" lon="6.19839">
        <ele>170.3</ele>
        <time>2016-01-23T14:32:13Z</time>
      </trkpt>
      <trkpt lat="43.4489" lon="6.19816">
        <ele>169</ele>
        <time>2016-01-23T14:32:14Z</time>
      </trkpt>
      <trkpt lat="43.44883" lon="6.19795">
        <ele>168.6</ele>
        <time>2016-01-23T14:32:15Z</time>
      </trkpt>
      <trkpt lat="43.44871" lon="6.1978">
        <ele>169.2</ele>
        <time>2016-01-23T14:32:16Z</time>
      </trkpt>
      <trkpt lat="43.44861" lon="6.19769">
        <ele>169.1</ele>
        <time>2016-01-23T14:32:17Z</time>
      </trkpt>
      <trkpt lat="43.44847" lon="6.19762">
        <ele>168.8</ele>
        <time>2016-01-23T14:32:18Z</time>
      </trkpt>
      <trkpt lat="43.44832" lon="6.19761">
        <ele>169</ele>
        <time>2016-01-23T14:32:19Z</time>
      </trkpt>
      <trkpt lat="43.44816" lon="6.19766">
        <ele>169.2</ele>
        <time>2016-01-23T14:32:20Z</time>
      </trkpt>
      <trkpt lat="43.44801" lon="6.19777">
        <ele>169.4</ele>
        <time>2016-01-23T14:32:21Z</time>
      </trkpt>
      <trkpt lat="43.44784" lon="6.19794">
        <ele>169.1</ele>
        <time>2016-01-23T14:32:22Z</time>
      </trkpt>
      <trkpt lat="43.4477" lon="6.19815">
        <ele>168.6</ele>
        <time>2016-01-23T14:32:23Z</time>
      </trkpt>
      <trkpt lat="43.44756" lon="6.19836">
        <ele>168.5</ele>
        <time>2016-01-23T14:32:24Z</time>
      </trkpt>
      <trkpt lat="43.44743" lon="6.19858">
        <ele>169.7</ele>
        <time>2016-01-23T14:32:25Z</time>
      </trkpt>
      <trkpt lat="43.44734" lon="6.19881">
        <ele>168.9</ele>
        <time>2016-01-23T14:32:26Z</time>
      </trkpt>
      <trkpt lat="43.44726" lon="6.19906">
        <ele>168.8</ele>
        <time>2016-01-23T14:32:27Z</time>
      </trkpt>
      <trkpt lat="43.4472" lon="6.19931">
        <ele>167.5</ele>
        <time>2016-01-23T14:32:28Z</time>
      </trkpt>
      <trkpt lat="43.44714" lon="6.19955">
        <ele>168.5</ele>
        <time>2016-01-23T14:32:29Z</time>
      </trkpt>
      <trkpt lat="43.44706" lon="6.19978">
        <ele>169.2</ele>
        <time>2016-01-23T14:32:30Z</time>
      </trkpt>
      <trkpt lat="43.44697" lon="6.19998">
        <ele>168</ele>
        <time>2016-01-23T14:32:31Z</time>
      </trkpt>
      <trkpt lat="43.44687" lon="6.20014">
        <ele>168.9</ele>
        <time>2016-01-23T14:32:32Z</time>
      </trkpt>
      <trkpt lat="43.44676" lon="6.20025">
        <ele>171.6</ele>
        <time>2016-01-23T14:32:33Z</time>
      </trkpt>
      <trkpt lat="43.44663" lon="6.20032">
        <ele>172.7</ele>
        <time>2016-01-23T14:32:34Z</time>
      </trkpt>
      <trkpt lat="43.4465" lon="6.20034">
        <ele>170.4</ele>
        <time>2016-01-23T14:32:35Z</time>
      </trkpt>
      <trkpt lat="43.44637" lon="6.20032">
        <ele>168.6</ele>
        <time>2016-01-23T14:32:36Z</time>
      </trkpt>
      <trkpt lat="43.44625" lon="6.20027">
        <ele>169.5</ele>
        <time>2016-01-23T14:32:37Z</time>
      </trkpt>
      <trkpt lat="43.44614" lon="6.20021">
        <ele>169.7</ele>
        <time>2016-01-23T14:32:38Z</time>
      </trkpt>
      <trkpt lat="43.44604" lon="6.20012">
        <ele>170.2</ele>
        <time>2016-01-23T14:32:39Z</time>
      </trkpt>
      <trkpt lat="43.44596" lon="6.20003">
        <ele>169.9</ele>
        <time>2016-01-23T14:32:40Z</time>
      </trkpt>
      <trkpt lat="43.44589" lon="6.19995">
        <ele>170.4</ele>
        <time>2016-01-23T14:32:41Z</time>
      </trkpt>
      <trkpt lat="43.44584" lon="6.19989">
        <ele>171.3</ele>
        <time>2016-01-23T14:32:42Z</time>
      </trkpt>
      <trkpt lat="43.4458" lon="6.19987">
        <ele>171.2</ele>
        <time>2016-01-23T14:32:43Z</time>
      </trkpt>
      <trkpt lat="43.44579" lon="6.19986">
        <ele>171.1</ele>
        <time>2016-01-23T14:32:44Z</time>
      </trkpt>
      <trkpt lat="43.44578" lon="6.19984">
        <ele>171</ele>
        <time>2016-01-23T14:32:45Z</time>
      </trkpt>
      <trkpt lat="43.44577" lon="6.19983">
        <ele>170.8</ele>
        <time>2016-01-23T14:32:46Z</time>
      </trkpt>
      <trkpt lat="43.44574" lon="6.19981">
        <ele>170.5</ele>
        <time>2016-01-23T14:32:47Z</time>
      </trkpt>
      <trkpt lat="43.44572" lon="6.19981">
        <ele>170.2</ele>
        <time>2016-01-23T14:32:48Z</time>
      </trkpt>
      <trkpt lat="43.4457" lon="6.19981">
        <ele>169.9</ele>
        <time>2016-01-23T14:32:49Z</time>
      </trkpt>
      <trkpt lat="43.44569" lon="6.19982">
        <ele>169.7</ele>
        <time>2016-01-23T14:32:50Z</time>
      </trkpt>
      <trkpt lat="43.44567" lon="6.19981">
        <ele>169.5</ele>
        <time>2016-01-23T14:32:51Z</time>
      </trkpt>
      <trkpt lat="43.44566" lon="6.19981">
        <ele>169.4</ele>
        <time>2016-01-23T14:32:52Z</time>
      </trkpt>
      <trkpt lat="43.44566" lon="6.19982">
        <ele>169.4</ele>
        <time>2016-01-23T14:32:53Z</time>
      </trkpt>
      <trkpt lat="43.44566" lon="6.19982">
        <ele>169.3</ele>
        <time>2016-01-23T14:32:54Z</time>
      </trkpt>
      <trkpt lat="43.44566" lon="6.19981">
        <ele>169.4</ele>
        <time>2016-01-23T14:32:55Z</time>
      </trkpt>
      <trkpt lat="43.44567" lon="6.19982">
        <ele>169.5</ele>
        <time>2016-01-23T14:32:56Z</time>
      </trkpt>
      <trkpt lat="43.44566" lon="6.19982">
        <ele>169.4</ele>
        <time>2016-01-23T14:32:57Z</time>
      </trkpt>
      <trkpt lat="43.44566" lon="6.19982">
        <ele>169.4</ele>
        <time>2016-01-23T14:32:58Z</time>
      </trkpt>
      <trkpt lat="43.44566" lon="6.19982">
        <ele>169.4</ele>
        <time>2016-01-23T14:32:59Z</time>
      </trkpt>
      <trkpt lat="43.44566" lon="6.19982">
        <ele>169.4</ele>
        <time>2016-01-23T14:33:00Z</time>
      </trkpt>
      <trkpt lat="43.44566" lon="6.19982">
        <ele>169.4</ele>
        <time>2016-01-23T14:33:01Z</time>
      </trkpt>
      <trkpt lat="43.44566" lon="6.19982">
        <ele>169.4</ele>
        <time>2016-01-23T14:33:02Z</time>
      </trkpt>
      <trkpt lat="43.44566" lon="6.19982">
        <ele>169.4</ele>
        <time>2016-01-23T14:33:03Z</time>
      </trkpt>
      <trkpt lat="43.44566" lon="6.19982">
        <ele>169.4</ele>
        <time>2016-01-23T14:33:04Z</time>
      </trkpt>
      <trkpt lat="43.44566" lon="6.19982">
        <ele>169.4</ele>
        <time>2016-01-23T14:33:05Z</time>
      </trkpt>
      <trkpt lat="43.44565" lon="6.19982">
        <ele>169.3</ele>
        <time>2016-01-23T14:33:06Z</time>
      </trkpt>
      <trkpt lat="43.44565" lon="6.19982">
        <ele>169.3</ele>
        <time>2016-01-23T14:33:07Z</time>
      </trkpt>
      <trkpt lat="43.44564" lon="6.19983">
        <ele>169.2</ele>
        <time>2016-01-23T14:33:08Z</time>
      </trkpt>
      <trkpt lat="43.44562" lon="6.19983">
        <ele>168.9</ele>
        <time>2016-01-23T14:33:09Z</time>
      </trkpt>
      <trkpt lat="43.44559" lon="6.19983">
        <ele>168.6</ele>
        <time>2016-01-23T14:33:10Z</time>
      </trkpt>
      <trkpt lat="43.44555" lon="6.19981">
        <ele>167.9</ele>
        <time>2016-01-23T14:33:11Z</time>
      </trkpt>
      <trkpt lat="43.44549" lon="6.19977">
        <ele>167.4</ele>
        <time>2016-01-23T14:33:12Z</time>
      </trkpt>
      <trkpt lat="43.44541" lon="6.19972">
        <ele>167</ele>
        <time>2016-01-23T14:33:13Z</time>
      </trkpt>
      <trkpt lat="43.44533" lon="6.19968">
        <ele>167</ele>
        <time>2016-01-23T14:33:14Z</time>
      </trkpt>
      <trkpt lat="43.44522" lon="6.19963">
        <ele>167.2</ele>
        <time>2016-01-23T14:33:15Z</time>
      </trkpt>
      <trkpt lat="43.44511" lon="6.19958">
        <ele>167.6</ele>
        <time>2016-01-23T14:33:16Z</time>
      </trkpt>
      <trkpt lat="43.445" lon="6.19952">
        <ele>168</ele>
        <time>2016-01-23T14:33:17Z</time>
      </trkpt>
      <trkpt lat="43.44489" lon="6.19946">
        <ele>168.8</ele>
        <time>2016-01-23T14:33:18Z</time>
      </trkpt>
      <trkpt lat="43.44477" lon="6.1994">
        <ele>169.2</ele>
        <time>2016-01-23T14:33:19Z</time>
      </trkpt>
      <trkpt lat="43.44467" lon="6.19935">
        <ele>169.3</ele>
        <time>2016-01-23T14:33:20Z</time>
      </trkpt>
      <trkpt lat="43.44458" lon="6.19929">
        <ele>169.8</ele>
        <time>2016-01-23T14:33:21Z</time>
      </trkpt>
      <trkpt lat="43.44448" lon="6.19923">
        <ele>171</ele>
        <time>2016-01-23T14:33:22Z</time>
      </trkpt>
      <trkpt lat="43.44439" lon="6.19915">
        <ele>173.4</ele>
        <time>2016-01-23T14:33:23Z</time>
      </trkpt>
      <trkpt lat="43.44431" lon="6.19906">
        <ele>175</ele>
        <time>2016-01-23T14:33:24Z</time>
      </trkpt>
      <trkpt lat="43.44423" lon="6.19895">
        <ele>175.2</ele>
        <time>2016-01-23T14:33:25Z</time>
      </trkpt>
      <trkpt lat="43.44417" lon="6.19883">
        <ele>174.3</ele>
        <time>2016-01-23T14:33:26Z</time>
      </trkpt>
      <trkpt lat="43.44412" lon="6.19868">
        <ele>173.4</ele>
        <time>2016-01-23T14:33:27Z</time>
      </trkpt>
      <trkpt lat="43.4441" lon="6.19852">
        <ele>172.2</ele>
        <time>2016-01-23T14:33:28Z</time>
      </trkpt>
      <trkpt lat="43.44409" lon="6.19834">
        <ele>170.3</ele>
        <time>2016-01-23T14:33:29Z</time>
      </trkpt>
      <trkpt lat="43.44412" lon="6.19812">
        <ele>167.8</ele>
        <time>2016-01-23T14:33:30Z</time>
      </trkpt>
      <trkpt lat="43.44417" lon="6.19788">
        <ele>167</ele>
        <time>2016-01-23T14:33:31Z</time>
      </trkpt>
      <trkpt lat="43.44425" lon="6.19762">
        <ele>167.5</ele>
        <time>2016-01-23T14:33:32Z</time>
      </trkpt>
      <trkpt lat="43.44432" lon="6.19737">
        <ele>169.3</ele>
        <time>2016-01-23T14:33:33Z</time>
      </trkpt>
      <trkpt lat="43.4444" lon="6.19712">
        <ele>173.3</ele>
        <time>2016-01-23T14:33:34Z</time>
      </trkpt>
      <trkpt lat="43.44448" lon="6.19687">
        <ele>177.8</ele>
        <time>2016-01-23T14:33:35Z</time>
      </trkpt>
      <trkpt lat="43.44455" lon="6.19663">
        <ele>179</ele>
        <time>2016-01-23T14:33:36Z</time>
      </trkpt>
      <trkpt lat="43.44463" lon="6.1964">
        <ele>177.7</ele>
        <time>2016-01-23T14:33:37Z</time>
      </trkpt>
      <trkpt lat="43.4447" lon="6.19619">
        <ele>178.6</ele>
        <time>2016-01-23T14:33:38Z</time>
      </trkpt>
      <trkpt lat="43.44478" lon="6.196">
        <ele>178.7</ele>
        <time>2016-01-23T14:33:39Z</time>
      </trkpt>
      <trkpt lat="43.44488" lon="6.19583">
        <ele>178.5</ele>
        <time>2016-01-23T14:33:40Z</time>
      </trkpt>
      <trkpt lat="43.44498" lon="6.19567">
        <ele>179.8</ele>
        <time>2016-01-23T14:33:41Z</time>
      </trkpt>
      <trkpt lat="43.44509" lon="6.19555">
        <ele>181.4</ele>
        <time>2016-01-23T14:33:42Z</time>
      </trkpt>
      <trkpt lat="43.44518" lon="6.19543">
        <ele>182.7</ele>
        <time>2016-01-23T14:33:43Z</time>
      </trkpt>
      <trkpt lat="43.44524" lon="6.19531">
        <ele>183.3</ele>
        <time>2016-01-23T14:33:44Z</time>
      </trkpt>
      <trkpt lat="43.44524" lon="6.1952">
        <ele>184.5</ele>
        <time>2016-01-23T14:33:45Z</time>
      </trkpt>
      <trkpt lat="43.4452" lon="6.19512">
        <ele>186.1</ele>
        <time>2016-01-23T14:33:46Z</time>
      </trkpt>
      <trkpt lat="43.44515" lon="6.19507">
        <ele>187.5</ele>
        <time>2016-01-23T14:33:47Z</time>
      </trkpt>
      <trkpt lat="43.44508" lon="6.19504">
        <ele>188.6</ele>
        <time>2016-01-23T14:33:48Z</time>
      </trkpt>
      <trkpt lat="43.44497" lon="6.19505">
        <ele>189</ele>
        <time>2016-01-23T14:33:49Z</time>
      </trkpt>
      <trkpt lat="43.44487" lon="6.19506">
        <ele>187.8</ele>
        <time>2016-01-23T14:33:50Z</time>
      </trkpt>
      <trkpt lat="43.44473" lon="6.19508">
        <ele>186.4</ele>
        <time>2016-01-23T14:33:51Z</time>
      </trkpt>
      <trkpt lat="43.44462" lon="6.19503">
        <ele>186.7</ele>
        <time>2016-01-23T14:33:52Z</time>
      </trkpt>
      <trkpt lat="43.44452" lon="6.19493">
        <ele>187.2</ele>
        <time>2016-01-23T14:33:53Z</time>
      </trkpt>
      <trkpt lat="43.44444" lon="6.19477">
        <ele>187.2</ele>
        <time>2016-01-23T14:33:54Z</time>
      </trkpt>
      <trkpt lat="43.44437" lon="6.19456">
        <ele>187.6</ele>
        <time>2016-01-23T14:33:55Z</time>
      </trkpt>
      <trkpt lat="43.44431" lon="6.19431">
        <ele>187.2</ele>
        <time>2016-01-23T14:33:56Z</time>
      </trkpt>
      <trkpt lat="43.44424" lon="6.19405">
        <ele>189</ele>
        <time>2016-01-23T14:33:57Z</time>
      </trkpt>
      <trkpt lat="43.44418" lon="6.19377">
        <ele>191.6</ele>
        <time>2016-01-23T14:33:58Z</time>
      </trkpt>
      <trkpt lat="43.44411" lon="6.19351">
        <ele>192</ele>
        <time>2016-01-23T14:33:59Z</time>
      </trkpt>
      <trkpt lat="43.44406" lon="6.19326">
        <ele>192.2</ele>
        <time>2016-01-23T14:34:00Z</time>
      </trkpt>
      <trkpt lat="43.44402" lon="6.19306">
        <ele>193.1</ele>
        <time>2016-01-23T14:34:01Z</time>
      </trkpt>
      <trkpt lat="43.44399" lon="6.1929">
        <ele>194.2</ele>
        <time>2016-01-23T14:34:02Z</time>
      </trkpt>
      <trkpt lat="43.444" lon="6.19278">
        <ele>194.8</ele>
        <time>2016-01-23T14:34:03Z</time>
      </trkpt>
      <trkpt lat="43.44404" lon="6.19267">
        <ele>194.9</ele>
        <time>2016-01-23T14:34:04Z</time>
      </trkpt>
      <trkpt lat="43.44412" lon="6.19259">
        <ele>194.3</ele>
        <time>2016-01-23T14:34:05Z</time>
      </trkpt>
      <trkpt lat="43.44423" lon="6.19251">
        <ele>193.5</ele>
        <time>2016-01-23T14:34:06Z</time>
      </trkpt>
      <trkpt lat="43.44435" lon="6.19243">
        <ele>192.7</ele>
        <time>2016-01-23T14:34:07Z</time>
      </trkpt>
      <trkpt lat="43.44447" lon="6.19235">
        <ele>192.3</ele>
        <time>2016-01-23T14:34:08Z</time>
      </trkpt>
      <trkpt lat="43.44459" lon="6.19224">
        <ele>191.7</ele>
        <time>2016-01-23T14:34:09Z</time>
      </trkpt>
      <trkpt lat="43.44471" lon="6.19209">
        <ele>191</ele>
        <time>2016-01-23T14:34:10Z</time>
      </trkpt>
      <trkpt lat="43.44482" lon="6.19191">
        <ele>192.8</ele>
        <time>2016-01-23T14:34:11Z</time>
      </trkpt>
      <trkpt lat="43.44493" lon="6.19171">
        <ele>190.8</ele>
        <time>2016-01-23T14:34:12Z</time>
      </trkpt>
      <trkpt lat="43.44504" lon="6.19149">
        <ele>188.9</ele>
        <time>2016-01-23T14:34:13Z</time>
      </trkpt>
      <trkpt lat="43.44514" lon="6.19127">
        <ele>187</ele>
        <time>2016-01-23T14:34:14Z</time>
      </trkpt>
      <trkpt lat="43.44524" lon="6.19107">
        <ele>185.6</ele>
        <time>2016-01-23T14:34:15Z</time>
      </trkpt>
      <trkpt lat="43.44532" lon="6.19086">
        <ele>186.8</ele>
        <time>2016-01-23T14:34:16Z</time>
      </trkpt>
      <trkpt lat="43.44539" lon="6.19066">
        <ele>188.8</ele>
        <time>2016-01-23T14:34:17Z</time>
      </trkpt>
      <trkpt lat="43.44541" lon="6.19042">
        <ele>190</ele>
        <time>2016-01-23T14:34:18Z</time>
      </trkpt>
      <trkpt lat="43.44542" lon="6.19016">
        <ele>190.3</ele>
        <time>2016-01-23T14:34:19Z</time>
      </trkpt>
      <trkpt lat="43.44541" lon="6.18989">
        <ele>189.4</ele>
        <time>2016-01-23T14:34:20Z</time>
      </trkpt>
      <trkpt lat="43.4454" lon="6.18961">
        <ele>188.5</ele>
        <time>2016-01-23T14:34:21Z</time>
      </trkpt>
      <trkpt lat="43.44539" lon="6.18934">
        <ele>188.5</ele>
        <time>2016-01-23T14:34:22Z</time>
      </trkpt>
      <trkpt lat="43.44538" lon="6.18907">
        <ele>188.5</ele>
        <time>2016-01-23T14:34:23Z</time>
      </trkpt>
      <trkpt lat="43.44536" lon="6.1888">
        <ele>187.5</ele>
        <time>2016-01-23T14:34:24Z</time>
      </trkpt>
      <trkpt lat="43.44534" lon="6.18854">
        <ele>186.6</ele>
        <time>2016-01-23T14:34:25Z</time>
      </trkpt>
      <trkpt lat="43.44531" lon="6.1883">
        <ele>185.6</ele>
        <time>2016-01-23T14:34:26Z</time>
      </trkpt>
      <trkpt lat="43.44527" lon="6.18807">
        <ele>185.7</ele>
        <time>2016-01-23T14:34:27Z</time>
      </trkpt>
      <trkpt lat="43.44517" lon="6.18788">
        <ele>187.3</ele>
        <time>2016-01-23T14:34:28Z</time>
      </trkpt>
      <trkpt lat="43.44504" lon="6.1877">
        <ele>188</ele>
        <time>2016-01-23T14:34:29Z</time>
      </trkpt>
      <trkpt lat="43.44492" lon="6.18751">
        <ele>188.7</ele>
        <time>2016-01-23T14:34:30Z</time>
      </trkpt>
      <trkpt lat="43.4448" lon="6.18733">
        <ele>188</ele>
        <time>2016-01-23T14:34:31Z</time>
      </trkpt>
      <trkpt lat="43.44468" lon="6.18716">
        <ele>186.6</ele>
        <time>2016-01-23T14:34:32Z</time>
      </trkpt>
      <trkpt lat="43.44456" lon="6.18702">
        <ele>187.4</ele>
        <time>2016-01-23T14:34:33Z</time>
      </trkpt>
      <trkpt lat="43.44442" lon="6.18691">
        <ele>189.6</ele>
        <time>2016-01-23T14:34:34Z</time>
      </trkpt>
      <trkpt lat="43.44429" lon="6.18681">
        <ele>189.9</ele>
        <time>2016-01-23T14:34:35Z</time>
      </trkpt>
      <trkpt lat="43.44414" lon="6.18673">
        <ele>190</ele>
        <time>2016-01-23T14:34:36Z</time>
      </trkpt>
      <trkpt lat="43.444" lon="6.18665">
        <ele>189.4</ele>
        <time>2016-01-23T14:34:37Z</time>
      </trkpt>
      <trkpt lat="43.44388" lon="6.18656">
        <ele>188.3</ele>
        <time>2016-01-23T14:34:38Z</time>
      </trkpt>
      <trkpt lat="43.4438" lon="6.18644">
        <ele>191.2</ele>
        <time>2016-01-23T14:34:39Z</time>
      </trkpt>
      <trkpt lat="43.44376" lon="6.18629">
        <ele>192.3</ele>
        <time>2016-01-23T14:34:40Z</time>
      </trkpt>
      <trkpt lat="43.44372" lon="6.18613">
        <ele>191.9</ele>
        <time>2016-01-23T14:34:41Z</time>
      </trkpt>
      <trkpt lat="43.44372" lon="6.18591">
        <ele>189.4</ele>
        <time>2016-01-23T14:34:42Z</time>
      </trkpt>
      <trkpt lat="43.44371" lon="6.18569">
        <ele>186.9</ele>
        <time>2016-01-23T14:34:43Z</time>
      </trkpt>
      <trkpt lat="43.44371" lon="6.18545">
        <ele>185.1</ele>
        <time>2016-01-23T14:34:44Z</time>
      </trkpt>
      <trkpt lat="43.44369" lon="6.18521">
        <ele>183.9</ele>
        <time>2016-01-23T14:34:45Z</time>
      </trkpt>
      <trkpt lat="43.44368" lon="6.18496">
        <ele>182.4</ele>
        <time>2016-01-23T14:34:46Z</time>
      </trkpt>
      <trkpt lat="43.44365" lon="6.18471">
        <ele>180.8</ele>
        <time>2016-01-23T14:34:47Z</time>
      </trkpt>
      <trkpt lat="43.44361" lon="6.18447">
        <ele>180.8</ele>
        <time>2016-01-23T14:34:48Z</time>
      </trkpt>
      <trkpt lat="43.44355" lon="6.18423">
        <ele>180.3</ele>
        <time>2016-01-23T14:34:49Z</time>
      </trkpt>
      <trkpt lat="43.44348" lon="6.184">
        <ele>181.1</ele>
        <time>2016-01-23T14:34:50Z</time>
      </trkpt>
      <trkpt lat="43.44339" lon="6.18377">
        <ele>182.3</ele>
        <time>2016-01-23T14:34:51Z</time>
      </trkpt>
      <trkpt lat="43.44329" lon="6.18356">
        <ele>183.1</ele>
        <time>2016-01-23T14:34:52Z</time>
      </trkpt>
      <trkpt lat="43.44319" lon="6.18334">
        <ele>181.9</ele>
        <time>2016-01-23T14:34:53Z</time>
      </trkpt>
      <trkpt lat="43.44312" lon="6.18309">
        <ele>179.4</ele>
        <time>2016-01-23T14:34:54Z</time>
      </trkpt>
      <trkpt lat="43.44303" lon="6.18282">
        <ele>176.4</ele>
        <time>2016-01-23T14:34:55Z</time>
      </trkpt>
      <trkpt lat="43.44295" lon="6.18253">
        <ele>178.8</ele>
        <time>2016-01-23T14:34:56Z</time>
      </trkpt>
      <trkpt lat="43.44287" lon="6.18223">
        <ele>177.5</ele>
        <time>2016-01-23T14:34:57Z</time>
      </trkpt>
      <trkpt lat="43.44279" lon="6.18192">
        <ele>174.9</ele>
        <time>2016-01-23T14:34:58Z</time>
      </trkpt>
      <trkpt lat="43.4427" lon="6.1816">
        <ele>175.6</ele>
        <time>2016-01-23T14:34:59Z</time>
      </trkpt>
      <trkpt lat="43.44261" lon="6.18127">
        <ele>176.5</ele>
        <time>2016-01-23T14:35:00Z</time>
      </trkpt>
      <trkpt lat="43.44252" lon="6.18094">
        <ele>174.6</ele>
        <time>2016-01-23T14:35:01Z</time>
      </trkpt>
      <trkpt lat="43.44244" lon="6.18061">
        <ele>174.6</ele>
        <time>2016-01-23T14:35:02Z</time>
      </trkpt>
      <trkpt lat="43.44236" lon="6.18029">
        <ele>175.4</ele>
        <time>2016-01-23T14:35:03Z</time>
      </trkpt>
      <trkpt lat="43.44227" lon="6.17997">
        <ele>175.8</ele>
        <time>2016-01-23T14:35:04Z</time>
      </trkpt>
      <trkpt lat="43.4422" lon="6.17966">
        <ele>174.7</ele>
        <time>2016-01-23T14:35:05Z</time>
      </trkpt>
      <trkpt lat="43.44212" lon="6.17936">
        <ele>175.4</ele>
        <time>2016-01-23T14:35:06Z</time>
      </trkpt>
      <trkpt lat="43.44206" lon="6.17908">
        <ele>177.2</ele>
        <time>2016-01-23T14:35:07Z</time>
      </trkpt>
      <trkpt lat="43.44199" lon="6.17882">
        <ele>176.4</ele>
        <time>2016-01-23T14:35:08Z</time>
      </trkpt>
      <trkpt lat="43.44193" lon="6.17857">
        <ele>174.9</ele>
        <time>2016-01-23T14:35:09Z</time>
      </trkpt>
      <trkpt lat="43.44189" lon="6.17835">
        <ele>174.4</ele>
        <time>2016-01-23T14:35:10Z</time>
      </trkpt>
      <trkpt lat="43.44188" lon="6.17813">
        <ele>174</ele>
        <time>2016-01-23T14:35:11Z</time>
      </trkpt>
      <trkpt lat="43.44191" lon="6.1779">
        <ele>173.1</ele>
        <time>2016-01-23T14:35:12Z</time>
      </trkpt>
      <trkpt lat="43.44195" lon="6.17765">
        <ele>171.2</ele>
        <time>2016-01-23T14:35:13Z</time>
      </trkpt>
      <trkpt lat="43.44202" lon="6.17739">
        <ele>172.3</ele>
        <time>2016-01-23T14:35:14Z</time>
      </trkpt>
      <trkpt lat="43.44209" lon="6.17713">
        <ele>174.5</ele>
        <time>2016-01-23T14:35:15Z</time>
      </trkpt>
      <trkpt lat="43.44215" lon="6.17686">
        <ele>174.3</ele>
        <time>2016-01-23T14:35:16Z</time>
      </trkpt>
      <trkpt lat="43.4422" lon="6.17659">
        <ele>172.3</ele>
        <time>2016-01-23T14:35:17Z</time>
      </trkpt>
      <trkpt lat="43.44225" lon="6.17633">
        <ele>170.7</ele>
        <time>2016-01-23T14:35:18Z</time>
      </trkpt>
      <trkpt lat="43.4423" lon="6.17609">
        <ele>172.5</ele>
        <time>2016-01-23T14:35:19Z</time>
      </trkpt>
      <trkpt lat="43.44235" lon="6.17587">
        <ele>175.6</ele>
        <time>2016-01-23T14:35:20Z</time>
      </trkpt>
      <trkpt lat="43.44241" lon="6.17566">
        <ele>176.6</ele>
        <time>2016-01-23T14:35:21Z</time>
      </trkpt>
      <trkpt lat="43.44246" lon="6.17545">
        <ele>176.8</ele>
        <time>2016-01-23T14:35:22Z</time>
      </trkpt>
      <trkpt lat="43.44247" lon="6.17523">
        <ele>177.1</ele>
        <time>2016-01-23T14:35:23Z</time>
      </trkpt>
      <trkpt lat="43.44245" lon="6.17499">
        <ele>177.7</ele>
        <time>2016-01-23T14:35:24Z</time>
      </trkpt>
      <trkpt lat="43.44242" lon="6.17475">
        <ele>179</ele>
        <time>2016-01-23T14:35:25Z</time>
      </trkpt>
      <trkpt lat="43.44237" lon="6.1745">
        <ele>179.8</ele>
        <time>2016-01-23T14:35:26Z</time>
      </trkpt>
      <trkpt lat="43.44229" lon="6.17425">
        <ele>180.5</ele>
        <time>2016-01-23T14:35:27Z</time>
      </trkpt>
      <trkpt lat="43.4422" lon="6.17399">
        <ele>179.6</ele>
        <time>2016-01-23T14:35:28Z</time>
      </trkpt>
      <trkpt lat="43.4421" lon="6.17374">
        <ele>181.3</ele>
        <time>2016-01-23T14:35:29Z</time>
      </trkpt>
      <trkpt lat="43.44199" lon="6.17351">
        <ele>181.5</ele>
        <time>2016-01-23T14:35:30Z</time>
      </trkpt>
      <trkpt lat="43.44188" lon="6.17328">
        <ele>182</ele>
        <time>2016-01-23T14:35:31Z</time>
      </trkpt>
      <trkpt lat="43.44174" lon="6.1731">
        <ele>180.3</ele>
        <time>2016-01-23T14:35:32Z</time>
      </trkpt>
      <trkpt lat="43.44159" lon="6.17293">
        <ele>178.9</ele>
        <time>2016-01-23T14:35:33Z</time>
      </trkpt>
      <trkpt lat="43.44142" lon="6.17278">
        <ele>178.2</ele>
        <time>2016-01-23T14:35:34Z</time>
      </trkpt>
      <trkpt lat="43.44117" lon="6.17268">
        <ele>178.1</ele>
        <time>2016-01-23T14:35:35Z</time>
      </trkpt>
      <trkpt lat="43.44093" lon="6.17256">
        <ele>177.9</ele>
        <time>2016-01-23T14:35:36Z</time>
      </trkpt>
      <trkpt lat="43.44069" lon="6.17243">
        <ele>178.4</ele>
        <time>2016-01-23T14:35:37Z</time>
      </trkpt>
      <trkpt lat="43.44044" lon="6.17231">
        <ele>180.6</ele>
        <time>2016-01-23T14:35:38Z</time>
      </trkpt>
      <trkpt lat="43.4402" lon="6.17218">
        <ele>180.2</ele>
        <time>2016-01-23T14:35:39Z</time>
      </trkpt>
      <trkpt lat="43.43997" lon="6.17207">
        <ele>178.5</ele>
        <time>2016-01-23T14:35:40Z</time>
      </trkpt>
      <trkpt lat="43.43975" lon="6.17197">
        <ele>178.9</ele>
        <time>2016-01-23T14:35:41Z</time>
      </trkpt>
      <trkpt lat="43.43954" lon="6.17186">
        <ele>180.7</ele>
        <time>2016-01-23T14:35:42Z</time>
      </trkpt>
      <trkpt lat="43.43935" lon="6.17175">
        <ele>181.4</ele>
        <time>2016-01-23T14:35:43Z</time>
      </trkpt>
      <trkpt lat="43.43916" lon="6.17163">
        <ele>179.8</ele>
        <time>2016-01-23T14:35:44Z</time>
      </trkpt>
      <trkpt lat="43.43897" lon="6.17147">
        <ele>180.5</ele>
        <time>2016-01-23T14:35:45Z</time>
      </trkpt>
      <trkpt lat="43.43879" lon="6.17131">
        <ele>179.6</ele>
        <time>2016-01-23T14:35:46Z</time>
      </trkpt>
      <trkpt lat="43.43861" lon="6.17116">
        <ele>178.7</ele>
        <time>2016-01-23T14:35:47Z</time>
      </trkpt>
      <trkpt lat="43.43844" lon="6.17099">
        <ele>179.6</ele>
        <time>2016-01-23T14:35:48Z</time>
      </trkpt>
      <trkpt lat="43.43827" lon="6.17082">
        <ele>178.8</ele>
        <time>2016-01-23T14:35:49Z</time>
      </trkpt>
      <trkpt lat="43.4381" lon="6.17063">
        <ele>178.9</ele>
        <time>2016-01-23T14:35:50Z</time>
      </trkpt>
      <trkpt lat="43.43794" lon="6.17041">
        <ele>179.5</ele>
        <time>2016-01-23T14:35:51Z</time>
      </trkpt>
      <trkpt lat="43.43779" lon="6.17018">
        <ele>179.4</ele>
        <time>2016-01-23T14:35:52Z</time>
      </trkpt>
      <trkpt lat="43.43765" lon="6.16994">
        <ele>180.3</ele>
        <time>2016-01-23T14:35:53Z</time>
      </trkpt>
      <trkpt lat="43.43751" lon="6.16969">
        <ele>179.6</ele>
        <time>2016-01-23T14:35:54Z</time>
      </trkpt>
      <trkpt lat="43.43737" lon="6.16942">
        <ele>179.8</ele>
        <time>2016-01-23T14:35:55Z</time>
      </trkpt>
      <trkpt lat="43.43723" lon="6.16914">
        <ele>179.3</ele>
        <time>2016-01-23T14:35:56Z</time>
      </trkpt>
      <trkpt lat="43.43709" lon="6.16886">
        <ele>179.5</ele>
        <time>2016-01-23T14:35:57Z</time>
      </trkpt>
      <trkpt lat="43.43697" lon="6.16858">
        <ele>179.7</ele>
        <time>2016-01-23T14:35:58Z</time>
      </trkpt>
      <trkpt lat="43.43685" lon="6.16831">
        <ele>179.5</ele>
        <time>2016-01-23T14:35:59Z</time>
      </trkpt>
      <trkpt lat="43.43674" lon="6.16802">
        <ele>179.8</ele>
        <time>2016-01-23T14:36:00Z</time>
      </trkpt>
      <trkpt lat="43.43664" lon="6.16771">
        <ele>178.9</ele>
        <time>2016-01-23T14:36:01Z</time>
      </trkpt>
      <trkpt lat="43.43656" lon="6.1674">
        <ele>178.7</ele>
        <time>2016-01-23T14:36:02Z</time>
      </trkpt>
      <trkpt lat="43.43647" lon="6.16709">
        <ele>179.6</ele>
        <time>2016-01-23T14:36:03Z</time>
      </trkpt>
      <trkpt lat="43.4364" lon="6.16679">
        <ele>179.3</ele>
        <time>2016-01-23T14:36:04Z</time>
      </trkpt>
      <trkpt lat="43.43633" lon="6.16648">
        <ele>179</ele>
        <time>2016-01-23T14:36:05Z</time>
      </trkpt>
      <trkpt lat="43.43628" lon="6.16619">
        <ele>179.1</ele>
        <time>2016-01-23T14:36:06Z</time>
      </trkpt>
      <trkpt lat="43.43623" lon="6.16591">
        <ele>180.1</ele>
        <time>2016-01-23T14:36:07Z</time>
      </trkpt>
      <trkpt lat="43.4362" lon="6.16565">
        <ele>180.2</ele>
        <time>2016-01-23T14:36:08Z</time>
      </trkpt>
      <trkpt lat="43.4362" lon="6.16538">
        <ele>180.3</ele>
        <time>2016-01-23T14:36:09Z</time>
      </trkpt>
      <trkpt lat="43.43623" lon="6.16509">
        <ele>180.6</ele>
        <time>2016-01-23T14:36:10Z</time>
      </trkpt>
      <trkpt lat="43.43626" lon="6.16476">
        <ele>181.2</ele>
        <time>2016-01-23T14:36:11Z</time>
      </trkpt>
      <trkpt lat="43.4363" lon="6.16441">
        <ele>181.7</ele>
        <time>2016-01-23T14:36:12Z</time>
      </trkpt>
      <trkpt lat="43.43633" lon="6.16405">
        <ele>182.4</ele>
        <time>2016-01-23T14:36:13Z</time>
      </trkpt>
      <trkpt lat="43.43635" lon="6.16371">
        <ele>182.8</ele>
        <time>2016-01-23T14:36:14Z</time>
      </trkpt>
      <trkpt lat="43.43637" lon="6.16338">
        <ele>183.2</ele>
        <time>2016-01-23T14:36:15Z</time>
      </trkpt>
      <trkpt lat="43.4364" lon="6.16306">
        <ele>183.7</ele>
        <time>2016-01-23T14:36:16Z</time>
      </trkpt>
      <trkpt lat="43.43645" lon="6.16272">
        <ele>183.2</ele>
        <time>2016-01-23T14:36:17Z</time>
      </trkpt>
      <trkpt lat="43.43651" lon="6.16237">
        <ele>182.5</ele>
        <time>2016-01-23T14:36:18Z</time>
      </trkpt>
      <trkpt lat="43.43656" lon="6.16201">
        <ele>183.3</ele>
        <time>2016-01-23T14:36:19Z</time>
      </trkpt>
      <trkpt lat="43.43661" lon="6.16163">
        <ele>183.9</ele>
        <time>2016-01-23T14:36:20Z</time>
      </trkpt>
      <trkpt lat="43.43664" lon="6.16124">
        <ele>184.6</ele>
        <time>2016-01-23T14:36:21Z</time>
      </trkpt>
      <trkpt lat="43.43667" lon="6.16085">
        <ele>185.1</ele>
        <time>2016-01-23T14:36:22Z</time>
      </trkpt>
      <trkpt lat="43.4367" lon="6.16046">
        <ele>184.5</ele>
        <time>2016-01-23T14:36:23Z</time>
      </trkpt>
      <trkpt lat="43.43672" lon="6.16008">
        <ele>184.9</ele>
        <time>2016-01-23T14:36:24Z</time>
      </trkpt>
      <trkpt lat="43.43673" lon="6.15971">
        <ele>186.4</ele>
        <time>2016-01-23T14:36:25Z</time>
      </trkpt>
      <trkpt lat="43.43674" lon="6.15937">
        <ele>185.5</ele>
        <time>2016-01-23T14:36:26Z</time>
      </trkpt>
      <trkpt lat="43.43674" lon="6.15905">
        <ele>185.2</ele>
        <time>2016-01-23T14:36:27Z</time>
      </trkpt>
      <trkpt lat="43.43676" lon="6.15875">
        <ele>185.7</ele>
        <time>2016-01-23T14:36:28Z</time>
      </trkpt>
      <trkpt lat="43.43678" lon="6.15848">
        <ele>186.1</ele>
        <time>2016-01-23T14:36:29Z</time>
      </trkpt>
      <trkpt lat="43.43682" lon="6.15822">
        <ele>185.9</ele>
        <time>2016-01-23T14:36:30Z</time>
      </trkpt>
      <trkpt lat="43.43689" lon="6.15795">
        <ele>185.1</ele>
        <time>2016-01-23T14:36:31Z</time>
      </trkpt>
      <trkpt lat="43.437" lon="6.15766">
        <ele>185.5</ele>
        <time>2016-01-23T14:36:32Z</time>
      </trkpt>
      <trkpt lat="43.43711" lon="6.15736">
        <ele>185.2</ele>
        <time>2016-01-23T14:36:33Z</time>
      </trkpt>
      <trkpt lat="43.43723" lon="6.15707">
        <ele>184.5</ele>
        <time>2016-01-23T14:36:34Z</time>
      </trkpt>
      <trkpt lat="43.43734" lon="6.1568">
        <ele>185.2</ele>
        <time>2016-01-23T14:36:35Z</time>
      </trkpt>
      <trkpt lat="43.43745" lon="6.15654">
        <ele>184.9</ele>
        <time>2016-01-23T14:36:36Z</time>
      </trkpt>
      <trkpt lat="43.43756" lon="6.15629">
        <ele>185.2</ele>
        <time>2016-01-23T14:36:37Z</time>
      </trkpt>
      <trkpt lat="43.43766" lon="6.15604">
        <ele>185.6</ele>
        <time>2016-01-23T14:36:38Z</time>
      </trkpt>
      <trkpt lat="43.43775" lon="6.15579">
        <ele>185.8</ele>
        <time>2016-01-23T14:36:39Z</time>
      </trkpt>
      <trkpt lat="43.43783" lon="6.15555">
        <ele>186.4</ele>
        <time>2016-01-23T14:36:40Z</time>
      </trkpt>
      <trkpt lat="43.43789" lon="6.15531">
        <ele>186.3</ele>
        <time>2016-01-23T14:36:41Z</time>
      </trkpt>
      <trkpt lat="43.43791" lon="6.15507">
        <ele>186.5</ele>
        <time>2016-01-23T14:36:42Z</time>
      </trkpt>
      <trkpt lat="43.4379" lon="6.15481">
        <ele>186.4</ele>
        <time>2016-01-23T14:36:43Z</time>
      </trkpt>
      <trkpt lat="43.43785" lon="6.15452">
        <ele>187.2</ele>
        <time>2016-01-23T14:36:44Z</time>
      </trkpt>
      <trkpt lat="43.43778" lon="6.15422">
        <ele>187.1</ele>
        <time>2016-01-23T14:36:45Z</time>
      </trkpt>
      <trkpt lat="43.4377" lon="6.15391">
        <ele>187.7</ele>
        <time>2016-01-23T14:36:46Z</time>
      </trkpt>
      <trkpt lat="43.43762" lon="6.15363">
        <ele>190.5</ele>
        <time>2016-01-23T14:36:47Z</time>
      </trkpt>
      <trkpt lat="43.43752" lon="6.15336">
        <ele>190</ele>
        <time>2016-01-23T14:36:48Z</time>
      </trkpt>
      <trkpt lat="43.43742" lon="6.1531">
        <ele>189.3</ele>
        <time>2016-01-23T14:36:49Z</time>
      </trkpt>
      <trkpt lat="43.43729" lon="6.15284">
        <ele>189.9</ele>
        <time>2016-01-23T14:36:50Z</time>
      </trkpt>
      <trkpt lat="43.43713" lon="6.15259">
        <ele>189.8</ele>
        <time>2016-01-23T14:36:51Z</time>
      </trkpt>
      <trkpt lat="43.43697" lon="6.15234">
        <ele>190.8</ele>
        <time>2016-01-23T14:36:52Z</time>
      </trkpt>
      <trkpt lat="43.43682" lon="6.15211">
        <ele>191.1</ele>
        <time>2016-01-23T14:36:53Z</time>
      </trkpt>
      <trkpt lat="43.43666" lon="6.15188">
        <ele>190.9</ele>
        <time>2016-01-23T14:36:54Z</time>
      </trkpt>
      <trkpt lat="43.43649" lon="6.15166">
        <ele>190.4</ele>
        <time>2016-01-23T14:36:55Z</time>
      </trkpt>
      <trkpt lat="43.43632" lon="6.15146">
        <ele>190</ele>
        <time>2016-01-23T14:36:56Z</time>
      </trkpt>
      <trkpt lat="43.43615" lon="6.15127">
        <ele>189.4</ele>
        <time>2016-01-23T14:36:57Z</time>
      </trkpt>
      <trkpt lat="43.43598" lon="6.15109">
        <ele>189.1</ele>
        <time>2016-01-23T14:36:58Z</time>
      </trkpt>
      <trkpt lat="43.4358" lon="6.15091">
        <ele>187.5</ele>
        <time>2016-01-23T14:36:59Z</time>
      </trkpt>
      <trkpt lat="43.43559" lon="6.15075">
        <ele>187.5</ele>
        <time>2016-01-23T14:37:00Z</time>
      </trkpt>
      <trkpt lat="43.43539" lon="6.1506">
        <ele>187.2</ele>
        <time>2016-01-23T14:37:01Z</time>
      </trkpt>
      <trkpt lat="43.43519" lon="6.15046">
        <ele>188.1</ele>
        <time>2016-01-23T14:37:02Z</time>
      </trkpt>
      <trkpt lat="43.43499" lon="6.15032">
        <ele>187.8</ele>
        <time>2016-01-23T14:37:03Z</time>
      </trkpt>
      <trkpt lat="43.43481" lon="6.15017">
        <ele>188.9</ele>
        <time>2016-01-23T14:37:04Z</time>
      </trkpt>
      <trkpt lat="43.43463" lon="6.15002">
        <ele>188.8</ele>
        <time>2016-01-23T14:37:05Z</time>
      </trkpt>
      <trkpt lat="43.43446" lon="6.14985">
        <ele>188.8</ele>
        <time>2016-01-23T14:37:06Z</time>
      </trkpt>
      <trkpt lat="43.4343" lon="6.14966">
        <ele>188.4</ele>
        <time>2016-01-23T14:37:07Z</time>
      </trkpt>
      <trkpt lat="43.43415" lon="6.14944">
        <ele>186.9</ele>
        <time>2016-01-23T14:37:08Z</time>
      </trkpt>
      <trkpt lat="43.43402" lon="6.14918">
        <ele>187.3</ele>
        <time>2016-01-23T14:37:09Z</time>
      </trkpt>
      <trkpt lat="43.43388" lon="6.14892">
        <ele>186.8</ele>
        <time>2016-01-23T14:37:10Z</time>
      </trkpt>
      <trkpt lat="43.43375" lon="6.14867">
        <ele>187.7</ele>
        <time>2016-01-23T14:37:11Z</time>
      </trkpt>
      <trkpt lat="43.43363" lon="6.14844">
        <ele>187.9</ele>
        <time>2016-01-23T14:37:12Z</time>
      </trkpt>
      <trkpt lat="43.43354" lon="6.14823">
        <ele>188.6</ele>
        <time>2016-01-23T14:37:13Z</time>
      </trkpt>
      <trkpt lat="43.43346" lon="6.14803">
        <ele>189.4</ele>
        <time>2016-01-23T14:37:14Z</time>
      </trkpt>
      <trkpt lat="43.4334" lon="6.14782">
        <ele>188.8</ele>
        <time>2016-01-23T14:37:15Z</time>
      </trkpt>
      <trkpt lat="43.43336" lon="6.14759">
        <ele>187.5</ele>
        <time>2016-01-23T14:37:16Z</time>
      </trkpt>
      <trkpt lat="43.43333" lon="6.14734">
        <ele>185.8</ele>
        <time>2016-01-23T14:37:17Z</time>
      </trkpt>
      <trkpt lat="43.43336" lon="6.14705">
        <ele>185.3</ele>
        <time>2016-01-23T14:37:18Z</time>
      </trkpt>
      <trkpt lat="43.43336" lon="6.14677">
        <ele>184.8</ele>
        <time>2016-01-23T14:37:19Z</time>
      </trkpt>
      <trkpt lat="43.43334" lon="6.14651">
        <ele>185.8</ele>
        <time>2016-01-23T14:37:20Z</time>
      </trkpt>
      <trkpt lat="43.43327" lon="6.14625">
        <ele>186.2</ele>
        <time>2016-01-23T14:37:21Z</time>
      </trkpt>
      <trkpt lat="43.43315" lon="6.146">
        <ele>186.4</ele>
        <time>2016-01-23T14:37:22Z</time>
      </trkpt>
      <trkpt lat="43.43301" lon="6.14575">
        <ele>185.9</ele>
        <time>2016-01-23T14:37:23Z</time>
      </trkpt>
      <trkpt lat="43.43284" lon="6.14549">
        <ele>186.2</ele>
        <time>2016-01-23T14:37:24Z</time>
      </trkpt>
      <trkpt lat="43.43268" lon="6.14524">
        <ele>186</ele>
        <time>2016-01-23T14:37:25Z</time>
      </trkpt>
      <trkpt lat="43.43252" lon="6.14501">
        <ele>186.9</ele>
        <time>2016-01-23T14:37:26Z</time>
      </trkpt>
      <trkpt lat="43.43237" lon="6.14478">
        <ele>186</ele>
        <time>2016-01-23T14:37:27Z</time>
      </trkpt>
      <trkpt lat="43.43224" lon="6.14457">
        <ele>186.6</ele>
        <time>2016-01-23T14:37:28Z</time>
      </trkpt>
      <trkpt lat="43.43211" lon="6.14438">
        <ele>186.7</ele>
        <time>2016-01-23T14:37:29Z</time>
      </trkpt>
      <trkpt lat="43.43201" lon="6.14419">
        <ele>186.9</ele>
        <time>2016-01-23T14:37:30Z</time>
      </trkpt>
      <trkpt lat="43.43193" lon="6.14398">
        <ele>186.9</ele>
        <time>2016-01-23T14:37:31Z</time>
      </trkpt>
      <trkpt lat="43.43188" lon="6.14376">
        <ele>187</ele>
        <time>2016-01-23T14:37:32Z</time>
      </trkpt>
      <trkpt lat="43.43185" lon="6.14352">
        <ele>187</ele>
        <time>2016-01-23T14:37:33Z</time>
      </trkpt>
      <trkpt lat="43.43186" lon="6.14324">
        <ele>186.3</ele>
        <time>2016-01-23T14:37:34Z</time>
      </trkpt>
      <trkpt lat="43.43193" lon="6.14292">
        <ele>186.9</ele>
        <time>2016-01-23T14:37:35Z</time>
      </trkpt>
      <trkpt lat="43.43199" lon="6.14263">
        <ele>187.2</ele>
        <time>2016-01-23T14:37:36Z</time>
      </trkpt>
      <trkpt lat="43.43207" lon="6.14235">
        <ele>187.4</ele>
        <time>2016-01-23T14:37:37Z</time>
      </trkpt>
      <trkpt lat="43.43216" lon="6.14207">
        <ele>187.8</ele>
        <time>2016-01-23T14:37:38Z</time>
      </trkpt>
      <trkpt lat="43.43226" lon="6.1418">
        <ele>187.7</ele>
        <time>2016-01-23T14:37:39Z</time>
      </trkpt>
      <trkpt lat="43.43236" lon="6.14155">
        <ele>187.5</ele>
        <time>2016-01-23T14:37:40Z</time>
      </trkpt>
      <trkpt lat="43.43245" lon="6.14132">
        <ele>187.3</ele>
        <time>2016-01-23T14:37:41Z</time>
      </trkpt>
      <trkpt lat="43.43253" lon="6.14109">
        <ele>186.3</ele>
        <time>2016-01-23T14:37:42Z</time>
      </trkpt>
      <trkpt lat="43.4326" lon="6.14082">
        <ele>187</ele>
        <time>2016-01-23T14:37:43Z</time>
      </trkpt>
      <trkpt lat="43.43265" lon="6.14054">
        <ele>187.1</ele>
        <time>2016-01-23T14:37:44Z</time>
      </trkpt>
      <trkpt lat="43.43267" lon="6.14024">
        <ele>188.2</ele>
        <time>2016-01-23T14:37:45Z</time>
      </trkpt>
      <trkpt lat="43.43266" lon="6.13994">
        <ele>188.2</ele>
        <time>2016-01-23T14:37:46Z</time>
      </trkpt>
      <trkpt lat="43.43262" lon="6.13965">
        <ele>188</ele>
        <time>2016-01-23T14:37:47Z</time>
      </trkpt>
      <trkpt lat="43.43255" lon="6.13936">
        <ele>188.6</ele>
        <time>2016-01-23T14:37:48Z</time>
      </trkpt>
      <trkpt lat="43.43244" lon="6.13908">
        <ele>189.2</ele>
        <time>2016-01-23T14:37:49Z</time>
      </trkpt>
      <trkpt lat="43.43232" lon="6.1388">
        <ele>190.1</ele>
        <time>2016-01-23T14:37:50Z</time>
      </trkpt>
      <trkpt lat="43.43216" lon="6.13851">
        <ele>189.8</ele>
        <time>2016-01-23T14:37:51Z</time>
      </trkpt>
      <trkpt lat="43.43199" lon="6.13821">
        <ele>189.3</ele>
        <time>2016-01-23T14:37:52Z</time>
      </trkpt>
      <trkpt lat="43.43181" lon="6.13789">
        <ele>188.8</ele>
        <time>2016-01-23T14:37:53Z</time>
      </trkpt>
      <trkpt lat="43.43164" lon="6.13758">
        <ele>189</ele>
        <time>2016-01-23T14:37:54Z</time>
      </trkpt>
      <trkpt lat="43.43147" lon="6.13728">
        <ele>189.2</ele>
        <time>2016-01-23T14:37:55Z</time>
      </trkpt>
      <trkpt lat="43.43132" lon="6.137">
        <ele>188.7</ele>
        <time>2016-01-23T14:37:56Z</time>
      </trkpt>
      <trkpt lat="43.43118" lon="6.13674">
        <ele>189</ele>
        <time>2016-01-23T14:37:57Z</time>
      </trkpt>
      <trkpt lat="43.43106" lon="6.13649">
        <ele>189.4</ele>
        <time>2016-01-23T14:37:58Z</time>
      </trkpt>
      <trkpt lat="43.43096" lon="6.13625">
        <ele>189.9</ele>
        <time>2016-01-23T14:37:59Z</time>
      </trkpt>
      <trkpt lat="43.43087" lon="6.136">
        <ele>189.8</ele>
        <time>2016-01-23T14:38:00Z</time>
      </trkpt>
      <trkpt lat="43.4308" lon="6.13576">
        <ele>189.8</ele>
        <time>2016-01-23T14:38:01Z</time>
      </trkpt>
      <trkpt lat="43.43074" lon="6.13552">
        <ele>189.6</ele>
        <time>2016-01-23T14:38:02Z</time>
      </trkpt>
      <trkpt lat="43.4307" lon="6.13529">
        <ele>190</ele>
        <time>2016-01-23T14:38:03Z</time>
      </trkpt>
      <trkpt lat="43.43067" lon="6.13507">
        <ele>188.4</ele>
        <time>2016-01-23T14:38:04Z</time>
      </trkpt>
      <trkpt lat="43.43069" lon="6.13486">
        <ele>188.1</ele>
        <time>2016-01-23T14:38:05Z</time>
      </trkpt>
      <trkpt lat="43.43074" lon="6.13465">
        <ele>188.6</ele>
        <time>2016-01-23T14:38:06Z</time>
      </trkpt>
      <trkpt lat="43.43081" lon="6.13443">
        <ele>189.6</ele>
        <time>2016-01-23T14:38:07Z</time>
      </trkpt>
      <trkpt lat="43.4309" lon="6.1342">
        <ele>188.9</ele>
        <time>2016-01-23T14:38:08Z</time>
      </trkpt>
      <trkpt lat="43.43099" lon="6.13395">
        <ele>189.2</ele>
        <time>2016-01-23T14:38:09Z</time>
      </trkpt>
      <trkpt lat="43.43106" lon="6.13369">
        <ele>189.5</ele>
        <time>2016-01-23T14:38:10Z</time>
      </trkpt>
      <trkpt lat="43.43112" lon="6.13344">
        <ele>189.5</ele>
        <time>2016-01-23T14:38:11Z</time>
      </trkpt>
      <trkpt lat="43.43117" lon="6.13319">
        <ele>189.5</ele>
        <time>2016-01-23T14:38:12Z</time>
      </trkpt>
      <trkpt lat="43.4312" lon="6.13294">
        <ele>189.3</ele>
        <time>2016-01-23T14:38:13Z</time>
      </trkpt>
      <trkpt lat="43.43122" lon="6.13269">
        <ele>189.2</ele>
        <time>2016-01-23T14:38:14Z</time>
      </trkpt>
      <trkpt lat="43.43121" lon="6.13244">
        <ele>189.2</ele>
        <time>2016-01-23T14:38:15Z</time>
      </trkpt>
      <trkpt lat="43.43119" lon="6.13217">
        <ele>189.6</ele>
        <time>2016-01-23T14:38:16Z</time>
      </trkpt>
      <trkpt lat="43.43113" lon="6.13189">
        <ele>190</ele>
        <time>2016-01-23T14:38:17Z</time>
      </trkpt>
      <trkpt lat="43.43108" lon="6.13162">
        <ele>189.8</ele>
        <time>2016-01-23T14:38:18Z</time>
      </trkpt>
      <trkpt lat="43.43102" lon="6.13137">
        <ele>189.7</ele>
        <time>2016-01-23T14:38:19Z</time>
      </trkpt>
      <trkpt lat="43.4309" lon="6.13091">
        <ele>190.2</ele>
        <time>2016-01-23T14:38:21Z</time>
      </trkpt>
      <trkpt lat="43.43085" lon="6.13071">
        <ele>190.1</ele>
        <time>2016-01-23T14:38:22Z</time>
      </trkpt>
      <trkpt lat="43.43074" lon="6.1303">
        <ele>190.6</ele>
        <time>2016-01-23T14:38:24Z</time>
      </trkpt>
      <trkpt lat="43.43069" lon="6.13008">
        <ele>190.1</ele>
        <time>2016-01-23T14:38:25Z</time>
      </trkpt>
      <trkpt lat="43.43056" lon="6.12959">
        <ele>190.4</ele>
        <time>2016-01-23T14:38:27Z</time>
      </trkpt>
      <trkpt lat="43.43043" lon="6.12907">
        <ele>188.1</ele>
        <time>2016-01-23T14:38:29Z</time>
      </trkpt>
      <trkpt lat="43.4303" lon="6.12857">
        <ele>190.9</ele>
        <time>2016-01-23T14:38:31Z</time>
      </trkpt>
      <trkpt lat="43.43019" lon="6.1281">
        <ele>189.9</ele>
        <time>2016-01-23T14:38:33Z</time>
      </trkpt>
      <trkpt lat="43.43014" lon="6.12786">
        <ele>189.9</ele>
        <time>2016-01-23T14:38:34Z</time>
      </trkpt>
      <trkpt lat="43.43012" lon="6.12761">
        <ele>190.3</ele>
        <time>2016-01-23T14:38:35Z</time>
      </trkpt>
      <trkpt lat="43.43011" lon="6.12736">
        <ele>190.4</ele>
        <time>2016-01-23T14:38:36Z</time>
      </trkpt>
      <trkpt lat="43.43012" lon="6.12687">
        <ele>190.1</ele>
        <time>2016-01-23T14:38:38Z</time>
      </trkpt>
      <trkpt lat="43.43013" lon="6.12665">
        <ele>190.5</ele>
        <time>2016-01-23T14:38:39Z</time>
      </trkpt>
      <trkpt lat="43.43014" lon="6.12644">
        <ele>190.5</ele>
        <time>2016-01-23T14:38:40Z</time>
      </trkpt>
      <trkpt lat="43.43017" lon="6.12608">
        <ele>190.1</ele>
        <time>2016-01-23T14:38:42Z</time>
      </trkpt>
      <trkpt lat="43.43017" lon="6.1259">
        <ele>190.5</ele>
        <time>2016-01-23T14:38:43Z</time>
      </trkpt>
      <trkpt lat="43.43016" lon="6.12571">
        <ele>191.3</ele>
        <time>2016-01-23T14:38:44Z</time>
      </trkpt>
      <trkpt lat="43.43015" lon="6.12553">
        <ele>192.2</ele>
        <time>2016-01-23T14:38:45Z</time>
      </trkpt>
      <trkpt lat="43.43012" lon="6.12534">
        <ele>192.9</ele>
        <time>2016-01-23T14:38:46Z</time>
      </trkpt>
      <trkpt lat="43.43009" lon="6.12515">
        <ele>193.5</ele>
        <time>2016-01-23T14:38:47Z</time>
      </trkpt>
      <trkpt lat="43.43006" lon="6.12494">
        <ele>193.8</ele>
        <time>2016-01-23T14:38:48Z</time>
      </trkpt>
      <trkpt lat="43.43002" lon="6.12474">
        <ele>193.6</ele>
        <time>2016-01-23T14:38:49Z</time>
      </trkpt>
      <trkpt lat="43.42998" lon="6.12453">
        <ele>194</ele>
        <time>2016-01-23T14:38:50Z</time>
      </trkpt>
      <trkpt lat="43.42993" lon="6.12433">
        <ele>195.2</ele>
        <time>2016-01-23T14:38:51Z</time>
      </trkpt>
      <trkpt lat="43.42988" lon="6.12413">
        <ele>195.9</ele>
        <time>2016-01-23T14:38:52Z</time>
      </trkpt>
      <trkpt lat="43.42983" lon="6.12394">
        <ele>195.5</ele>
        <time>2016-01-23T14:38:53Z</time>
      </trkpt>
      <trkpt lat="43.42978" lon="6.12376">
        <ele>195.8</ele>
        <time>2016-01-23T14:38:54Z</time>
      </trkpt>
      <trkpt lat="43.4297" lon="6.12345">
        <ele>195.5</ele>
        <time>2016-01-23T14:38:56Z</time>
      </trkpt>
      <trkpt lat="43.42967" lon="6.12331">
        <ele>195.1</ele>
        <time>2016-01-23T14:38:57Z</time>
      </trkpt>
      <trkpt lat="43.42962" lon="6.12317">
        <ele>197.7</ele>
        <time>2016-01-23T14:38:58Z</time>
      </trkpt>
      <trkpt lat="43.42957" lon="6.12307">
        <ele>201.3</ele>
        <time>2016-01-23T14:38:59Z</time>
      </trkpt>
      <trkpt lat="43.42949" lon="6.12299">
        <ele>204.9</ele>
        <time>2016-01-23T14:39:00Z</time>
      </trkpt>
      <trkpt lat="43.42939" lon="6.12294">
        <ele>206.4</ele>
        <time>2016-01-23T14:39:01Z</time>
      </trkpt>
      <trkpt lat="43.42926" lon="6.12293">
        <ele>205</ele>
        <time>2016-01-23T14:39:02Z</time>
      </trkpt>
      <trkpt lat="43.429" lon="6.12302">
        <ele>202.7</ele>
        <time>2016-01-23T14:39:04Z</time>
      </trkpt>
      <trkpt lat="43.42885" lon="6.12316">
        <ele>201.3</ele>
        <time>2016-01-23T14:39:05Z</time>
      </trkpt>
      <trkpt lat="43.42873" lon="6.12332">
        <ele>199.2</ele>
        <time>2016-01-23T14:39:06Z</time>
      </trkpt>
      <trkpt lat="43.42852" lon="6.12358">
        <ele>197.6</ele>
        <time>2016-01-23T14:39:07Z</time>
      </trkpt>
      <trkpt lat="43.42834" lon="6.12383">
        <ele>197.2</ele>
        <time>2016-01-23T14:39:08Z</time>
      </trkpt>
      <trkpt lat="43.42818" lon="6.12405">
        <ele>199.5</ele>
        <time>2016-01-23T14:39:09Z</time>
      </trkpt>
      <trkpt lat="43.42803" lon="6.12423">
        <ele>199.9</ele>
        <time>2016-01-23T14:39:10Z</time>
      </trkpt>
      <trkpt lat="43.42789" lon="6.12438">
        <ele>199.7</ele>
        <time>2016-01-23T14:39:11Z</time>
      </trkpt>
      <trkpt lat="43.42773" lon="6.12449">
        <ele>199.3</ele>
        <time>2016-01-23T14:39:12Z</time>
      </trkpt>
      <trkpt lat="43.42756" lon="6.12457">
        <ele>199.2</ele>
        <time>2016-01-23T14:39:13Z</time>
      </trkpt>
      <trkpt lat="43.42738" lon="6.12462">
        <ele>199.3</ele>
        <time>2016-01-23T14:39:14Z</time>
      </trkpt>
      <trkpt lat="43.4272" lon="6.12465">
        <ele>199.2</ele>
        <time>2016-01-23T14:39:15Z</time>
      </trkpt>
      <trkpt lat="43.42702" lon="6.12467">
        <ele>198.6</ele>
        <time>2016-01-23T14:39:16Z</time>
      </trkpt>
      <trkpt lat="43.42684" lon="6.12468">
        <ele>198</ele>
        <time>2016-01-23T14:39:17Z</time>
      </trkpt>
      <trkpt lat="43.42667" lon="6.12468">
        <ele>198</ele>
        <time>2016-01-23T14:39:18Z</time>
      </trkpt>
      <trkpt lat="43.42651" lon="6.12466">
        <ele>197</ele>
        <time>2016-01-23T14:39:19Z</time>
      </trkpt>
      <trkpt lat="43.42634" lon="6.12461">
        <ele>196</ele>
        <time>2016-01-23T14:39:20Z</time>
      </trkpt>
      <trkpt lat="43.42616" lon="6.12453">
        <ele>193.8</ele>
        <time>2016-01-23T14:39:21Z</time>
      </trkpt>
      <trkpt lat="43.42598" lon="6.1244">
        <ele>192.3</ele>
        <time>2016-01-23T14:39:22Z</time>
      </trkpt>
      <trkpt lat="43.42583" lon="6.12423">
        <ele>192.3</ele>
        <time>2016-01-23T14:39:23Z</time>
      </trkpt>
      <trkpt lat="43.42569" lon="6.12404">
        <ele>192.5</ele>
        <time>2016-01-23T14:39:24Z</time>
      </trkpt>
      <trkpt lat="43.42564" lon="6.12374">
        <ele>192.2</ele>
        <time>2016-01-23T14:39:25Z</time>
      </trkpt>
      <trkpt lat="43.4255" lon="6.12348">
        <ele>191.9</ele>
        <time>2016-01-23T14:39:26Z</time>
      </trkpt>
      <trkpt lat="43.42537" lon="6.1232">
        <ele>192.2</ele>
        <time>2016-01-23T14:39:27Z</time>
      </trkpt>
      <trkpt lat="43.42525" lon="6.12292">
        <ele>191.3</ele>
        <time>2016-01-23T14:39:28Z</time>
      </trkpt>
      <trkpt lat="43.42513" lon="6.12263">
        <ele>192.3</ele>
        <time>2016-01-23T14:39:29Z</time>
      </trkpt>
      <trkpt lat="43.42501" lon="6.12234">
        <ele>191.4</ele>
        <time>2016-01-23T14:39:30Z</time>
      </trkpt>
      <trkpt lat="43.42489" lon="6.12206">
        <ele>192.6</ele>
        <time>2016-01-23T14:39:31Z</time>
      </trkpt>
      <trkpt lat="43.42478" lon="6.1218">
        <ele>191.4</ele>
        <time>2016-01-23T14:39:32Z</time>
      </trkpt>
      <trkpt lat="43.42463" lon="6.12155">
        <ele>192.3</ele>
        <time>2016-01-23T14:39:33Z</time>
      </trkpt>
      <trkpt lat="43.42448" lon="6.1213">
        <ele>192.8</ele>
        <time>2016-01-23T14:39:34Z</time>
      </trkpt>
      <trkpt lat="43.42432" lon="6.12107">
        <ele>195.6</ele>
        <time>2016-01-23T14:39:35Z</time>
      </trkpt>
      <trkpt lat="43.42419" lon="6.12084">
        <ele>195.6</ele>
        <time>2016-01-23T14:39:36Z</time>
      </trkpt>
      <trkpt lat="43.42406" lon="6.12059">
        <ele>196.2</ele>
        <time>2016-01-23T14:39:37Z</time>
      </trkpt>
      <trkpt lat="43.42393" lon="6.12033">
        <ele>196.4</ele>
        <time>2016-01-23T14:39:38Z</time>
      </trkpt>
      <trkpt lat="43.42381" lon="6.12005">
        <ele>195.6</ele>
        <time>2016-01-23T14:39:39Z</time>
      </trkpt>
      <trkpt lat="43.42372" lon="6.11971">
        <ele>195.8</ele>
        <time>2016-01-23T14:39:40Z</time>
      </trkpt>
      <trkpt lat="43.42364" lon="6.11936">
        <ele>195.5</ele>
        <time>2016-01-23T14:39:41Z</time>
      </trkpt>
      <trkpt lat="43.42355" lon="6.11902">
        <ele>196.3</ele>
        <time>2016-01-23T14:39:42Z</time>
      </trkpt>
      <trkpt lat="43.42349" lon="6.1187">
        <ele>197.3</ele>
        <time>2016-01-23T14:39:43Z</time>
      </trkpt>
      <trkpt lat="43.42341" lon="6.1184">
        <ele>198</ele>
        <time>2016-01-23T14:39:44Z</time>
      </trkpt>
      <trkpt lat="43.42332" lon="6.11813">
        <ele>198.6</ele>
        <time>2016-01-23T14:39:45Z</time>
      </trkpt>
      <trkpt lat="43.4232" lon="6.11787">
        <ele>198.3</ele>
        <time>2016-01-23T14:39:46Z</time>
      </trkpt>
      <trkpt lat="43.42305" lon="6.11763">
        <ele>199.5</ele>
        <time>2016-01-23T14:39:47Z</time>
      </trkpt>
      <trkpt lat="43.42288" lon="6.1174">
        <ele>200.4</ele>
        <time>2016-01-23T14:39:48Z</time>
      </trkpt>
      <trkpt lat="43.42271" lon="6.11717">
        <ele>199.6</ele>
        <time>2016-01-23T14:39:49Z</time>
      </trkpt>
      <trkpt lat="43.42254" lon="6.11696">
        <ele>199.3</ele>
        <time>2016-01-23T14:39:50Z</time>
      </trkpt>
      <trkpt lat="43.42238" lon="6.11674">
        <ele>200.2</ele>
        <time>2016-01-23T14:39:51Z</time>
      </trkpt>
      <trkpt lat="43.42222" lon="6.11651">
        <ele>199.2</ele>
        <time>2016-01-23T14:39:52Z</time>
      </trkpt>
      <trkpt lat="43.42207" lon="6.11628">
        <ele>199.9</ele>
        <time>2016-01-23T14:39:53Z</time>
      </trkpt>
      <trkpt lat="43.42192" lon="6.11603">
        <ele>198.3</ele>
        <time>2016-01-23T14:39:54Z</time>
      </trkpt>
      <trkpt lat="43.42177" lon="6.11579">
        <ele>198.1</ele>
        <time>2016-01-23T14:39:55Z</time>
      </trkpt>
      <trkpt lat="43.42163" lon="6.11554">
        <ele>197.9</ele>
        <time>2016-01-23T14:39:56Z</time>
      </trkpt>
      <trkpt lat="43.42149" lon="6.11528">
        <ele>198.4</ele>
        <time>2016-01-23T14:39:57Z</time>
      </trkpt>
      <trkpt lat="43.42135" lon="6.11503">
        <ele>197.7</ele>
        <time>2016-01-23T14:39:58Z</time>
      </trkpt>
      <trkpt lat="43.4212" lon="6.11478">
        <ele>198.4</ele>
        <time>2016-01-23T14:39:59Z</time>
      </trkpt>
      <trkpt lat="43.42106" lon="6.11454">
        <ele>197.4</ele>
        <time>2016-01-23T14:40:00Z</time>
      </trkpt>
      <trkpt lat="43.42092" lon="6.11429">
        <ele>197.7</ele>
        <time>2016-01-23T14:40:01Z</time>
      </trkpt>
      <trkpt lat="43.42078" lon="6.11404">
        <ele>197</ele>
        <time>2016-01-23T14:40:02Z</time>
      </trkpt>
      <trkpt lat="43.42064" lon="6.11379">
        <ele>197.1</ele>
        <time>2016-01-23T14:40:03Z</time>
      </trkpt>
      <trkpt lat="43.42049" lon="6.11354">
        <ele>196</ele>
        <time>2016-01-23T14:40:04Z</time>
      </trkpt>
      <trkpt lat="43.42034" lon="6.11328">
        <ele>195.8</ele>
        <time>2016-01-23T14:40:05Z</time>
      </trkpt>
      <trkpt lat="43.42019" lon="6.11303">
        <ele>196.2</ele>
        <time>2016-01-23T14:40:06Z</time>
      </trkpt>
      <trkpt lat="43.42005" lon="6.11279">
        <ele>196.1</ele>
        <time>2016-01-23T14:40:07Z</time>
      </trkpt>
      <trkpt lat="43.4199" lon="6.11257">
        <ele>195.8</ele>
        <time>2016-01-23T14:40:08Z</time>
      </trkpt>
      <trkpt lat="43.41974" lon="6.11236">
        <ele>196</ele>
        <time>2016-01-23T14:40:09Z</time>
      </trkpt>
      <trkpt lat="43.4196" lon="6.11216">
        <ele>195.3</ele>
        <time>2016-01-23T14:40:10Z</time>
      </trkpt>
      <trkpt lat="43.41946" lon="6.11195">
        <ele>196</ele>
        <time>2016-01-23T14:40:11Z</time>
      </trkpt>
      <trkpt lat="43.41934" lon="6.11174">
        <ele>194.8</ele>
        <time>2016-01-23T14:40:12Z</time>
      </trkpt>
      <trkpt lat="43.41924" lon="6.11152">
        <ele>195.5</ele>
        <time>2016-01-23T14:40:13Z</time>
      </trkpt>
      <trkpt lat="43.41917" lon="6.1113">
        <ele>197</ele>
        <time>2016-01-23T14:40:14Z</time>
      </trkpt>
      <trkpt lat="43.41911" lon="6.11106">
        <ele>196.4</ele>
        <time>2016-01-23T14:40:15Z</time>
      </trkpt>
      <trkpt lat="43.4191" lon="6.11082">
        <ele>196</ele>
        <time>2016-01-23T14:40:16Z</time>
      </trkpt>
      <trkpt lat="43.4191" lon="6.11056">
        <ele>196.1</ele>
        <time>2016-01-23T14:40:17Z</time>
      </trkpt>
      <trkpt lat="43.41913" lon="6.11029">
        <ele>197.4</ele>
        <time>2016-01-23T14:40:18Z</time>
      </trkpt>
      <trkpt lat="43.41914" lon="6.11001">
        <ele>197.7</ele>
        <time>2016-01-23T14:40:19Z</time>
      </trkpt>
      <trkpt lat="43.41913" lon="6.10973">
        <ele>198.5</ele>
        <time>2016-01-23T14:40:20Z</time>
      </trkpt>
      <trkpt lat="43.41909" lon="6.10947">
        <ele>198.2</ele>
        <time>2016-01-23T14:40:21Z</time>
      </trkpt>
      <trkpt lat="43.41905" lon="6.10922">
        <ele>199</ele>
        <time>2016-01-23T14:40:22Z</time>
      </trkpt>
      <trkpt lat="43.41901" lon="6.10899">
        <ele>198.9</ele>
        <time>2016-01-23T14:40:23Z</time>
      </trkpt>
      <trkpt lat="43.41897" lon="6.10876">
        <ele>198.2</ele>
        <time>2016-01-23T14:40:24Z</time>
      </trkpt>
      <trkpt lat="43.41895" lon="6.10851">
        <ele>197.6</ele>
        <time>2016-01-23T14:40:25Z</time>
      </trkpt>
      <trkpt lat="43.41896" lon="6.10825">
        <ele>197.5</ele>
        <time>2016-01-23T14:40:26Z</time>
      </trkpt>
      <trkpt lat="43.41899" lon="6.10796">
        <ele>197.9</ele>
        <time>2016-01-23T14:40:27Z</time>
      </trkpt>
      <trkpt lat="43.41903" lon="6.10767">
        <ele>198.3</ele>
        <time>2016-01-23T14:40:28Z</time>
      </trkpt>
      <trkpt lat="43.41908" lon="6.1074">
        <ele>198.1</ele>
        <time>2016-01-23T14:40:29Z</time>
      </trkpt>
      <trkpt lat="43.41915" lon="6.10711">
        <ele>198.4</ele>
        <time>2016-01-23T14:40:30Z</time>
      </trkpt>
      <trkpt lat="43.41926" lon="6.10683">
        <ele>198.5</ele>
        <time>2016-01-23T14:40:31Z</time>
      </trkpt>
      <trkpt lat="43.41936" lon="6.10654">
        <ele>198.1</ele>
        <time>2016-01-23T14:40:32Z</time>
      </trkpt>
      <trkpt lat="43.41946" lon="6.10625">
        <ele>198.6</ele>
        <time>2016-01-23T14:40:33Z</time>
      </trkpt>
      <trkpt lat="43.41957" lon="6.10597">
        <ele>198</ele>
        <time>2016-01-23T14:40:34Z</time>
      </trkpt>
      <trkpt lat="43.41967" lon="6.10568">
        <ele>199</ele>
        <time>2016-01-23T14:40:35Z</time>
      </trkpt>
      <trkpt lat="43.41975" lon="6.1054">
        <ele>199.1</ele>
        <time>2016-01-23T14:40:36Z</time>
      </trkpt>
      <trkpt lat="43.41982" lon="6.10511">
        <ele>200.3</ele>
        <time>2016-01-23T14:40:37Z</time>
      </trkpt>
      <trkpt lat="43.41985" lon="6.1048">
        <ele>202.4</ele>
        <time>2016-01-23T14:40:38Z</time>
      </trkpt>
      <trkpt lat="43.41987" lon="6.10447">
        <ele>203.3</ele>
        <time>2016-01-23T14:40:39Z</time>
      </trkpt>
      <trkpt lat="43.4199" lon="6.10414">
        <ele>203.3</ele>
        <time>2016-01-23T14:40:40Z</time>
      </trkpt>
      <trkpt lat="43.41993" lon="6.10379">
        <ele>202.3</ele>
        <time>2016-01-23T14:40:41Z</time>
      </trkpt>
      <trkpt lat="43.41998" lon="6.10343">
        <ele>201</ele>
        <time>2016-01-23T14:40:42Z</time>
      </trkpt>
      <trkpt lat="43.42003" lon="6.10304">
        <ele>201.8</ele>
        <time>2016-01-23T14:40:43Z</time>
      </trkpt>
      <trkpt lat="43.42009" lon="6.10265">
        <ele>202.7</ele>
        <time>2016-01-23T14:40:44Z</time>
      </trkpt>
      <trkpt lat="43.42014" lon="6.10225">
        <ele>203.1</ele>
        <time>2016-01-23T14:40:45Z</time>
      </trkpt>
      <trkpt lat="43.42019" lon="6.10186">
        <ele>203.6</ele>
        <time>2016-01-23T14:40:46Z</time>
      </trkpt>
      <trkpt lat="43.42024" lon="6.10149">
        <ele>203.6</ele>
        <time>2016-01-23T14:40:47Z</time>
      </trkpt>
      <trkpt lat="43.42028" lon="6.10114">
        <ele>203.1</ele>
        <time>2016-01-23T14:40:48Z</time>
      </trkpt>
      <trkpt lat="43.42033" lon="6.1008">
        <ele>203.9</ele>
        <time>2016-01-23T14:40:49Z</time>
      </trkpt>
      <trkpt lat="43.42038" lon="6.10048">
        <ele>205.2</ele>
        <time>2016-01-23T14:40:50Z</time>
      </trkpt>
      <trkpt lat="43.42043" lon="6.10017">
        <ele>205</ele>
        <time>2016-01-23T14:40:51Z</time>
      </trkpt>
      <trkpt lat="43.42049" lon="6.09988">
        <ele>204.4</ele>
        <time>2016-01-23T14:40:52Z</time>
      </trkpt>
      <trkpt lat="43.42054" lon="6.09961">
        <ele>203.4</ele>
        <time>2016-01-23T14:40:53Z</time>
      </trkpt>
      <trkpt lat="43.4206" lon="6.09936">
        <ele>204.2</ele>
        <time>2016-01-23T14:40:54Z</time>
      </trkpt>
      <trkpt lat="43.42067" lon="6.09912">
        <ele>204.1</ele>
        <time>2016-01-23T14:40:55Z</time>
      </trkpt>
      <trkpt lat="43.42075" lon="6.0989">
        <ele>203.6</ele>
        <time>2016-01-23T14:40:56Z</time>
      </trkpt>
      <trkpt lat="43.42082" lon="6.09868">
        <ele>203.3</ele>
        <time>2016-01-23T14:40:57Z</time>
      </trkpt>
      <trkpt lat="43.42088" lon="6.09844">
        <ele>202.8</ele>
        <time>2016-01-23T14:40:58Z</time>
      </trkpt>
      <trkpt lat="43.42091" lon="6.09819">
        <ele>203.9</ele>
        <time>2016-01-23T14:40:59Z</time>
      </trkpt>
      <trkpt lat="43.42091" lon="6.09791">
        <ele>206.6</ele>
        <time>2016-01-23T14:41:00Z</time>
      </trkpt>
      <trkpt lat="43.42088" lon="6.09762">
        <ele>207.2</ele>
        <time>2016-01-23T14:41:01Z</time>
      </trkpt>
      <trkpt lat="43.42082" lon="6.09735">
        <ele>204.3</ele>
        <time>2016-01-23T14:41:02Z</time>
      </trkpt>
      <trkpt lat="43.42072" lon="6.09711">
        <ele>205.4</ele>
        <time>2016-01-23T14:41:03Z</time>
      </trkpt>
      <trkpt lat="43.42062" lon="6.09687">
        <ele>206.2</ele>
        <time>2016-01-23T14:41:04Z</time>
      </trkpt>
      <trkpt lat="43.4205" lon="6.09665">
        <ele>205</ele>
        <time>2016-01-23T14:41:05Z</time>
      </trkpt>
      <trkpt lat="43.42036" lon="6.09648">
        <ele>205.8</ele>
        <time>2016-01-23T14:41:06Z</time>
      </trkpt>
      <trkpt lat="43.42018" lon="6.09636">
        <ele>205.3</ele>
        <time>2016-01-23T14:41:07Z</time>
      </trkpt>
      <trkpt lat="43.42006" lon="6.09621">
        <ele>206.3</ele>
        <time>2016-01-23T14:41:08Z</time>
      </trkpt>
      <trkpt lat="43.41995" lon="6.09605">
        <ele>207.7</ele>
        <time>2016-01-23T14:41:09Z</time>
      </trkpt>
      <trkpt lat="43.4198" lon="6.09593">
        <ele>210.9</ele>
        <time>2016-01-23T14:41:10Z</time>
      </trkpt>
      <trkpt lat="43.4195" lon="6.096">
        <ele>213.7</ele>
        <time>2016-01-23T14:41:11Z</time>
      </trkpt>
      <trkpt lat="43.41917" lon="6.09609">
        <ele>214.8</ele>
        <time>2016-01-23T14:41:12Z</time>
      </trkpt>
      <trkpt lat="43.41883" lon="6.09621">
        <ele>209.8</ele>
        <time>2016-01-23T14:41:13Z</time>
      </trkpt>
      <trkpt lat="43.4186" lon="6.09623">
        <ele>207.6</ele>
        <time>2016-01-23T14:41:14Z</time>
      </trkpt>
      <trkpt lat="43.4184" lon="6.09622">
        <ele>205.2</ele>
        <time>2016-01-23T14:41:15Z</time>
      </trkpt>
      <trkpt lat="43.4182" lon="6.09617">
        <ele>203.9</ele>
        <time>2016-01-23T14:41:16Z</time>
      </trkpt>
      <trkpt lat="43.41801" lon="6.09607">
        <ele>203.4</ele>
        <time>2016-01-23T14:41:17Z</time>
      </trkpt>
      <trkpt lat="43.41783" lon="6.09593">
        <ele>203.7</ele>
        <time>2016-01-23T14:41:18Z</time>
      </trkpt>
      <trkpt lat="43.4177" lon="6.09571">
        <ele>202.7</ele>
        <time>2016-01-23T14:41:19Z</time>
      </trkpt>
      <trkpt lat="43.41755" lon="6.0955">
        <ele>202.2</ele>
        <time>2016-01-23T14:41:20Z</time>
      </trkpt>
      <trkpt lat="43.41745" lon="6.09522">
        <ele>201.5</ele>
        <time>2016-01-23T14:41:21Z</time>
      </trkpt>
      <trkpt lat="43.41736" lon="6.09492">
        <ele>201</ele>
        <time>2016-01-23T14:41:22Z</time>
      </trkpt>
      <trkpt lat="43.41732" lon="6.09456">
        <ele>201.3</ele>
        <time>2016-01-23T14:41:23Z</time>
      </trkpt>
      <trkpt lat="43.4173" lon="6.09419">
        <ele>201.8</ele>
        <time>2016-01-23T14:41:24Z</time>
      </trkpt>
      <trkpt lat="43.41723" lon="6.09388">
        <ele>201.2</ele>
        <time>2016-01-23T14:41:25Z</time>
      </trkpt>
      <trkpt lat="43.41717" lon="6.09357">
        <ele>201.6</ele>
        <time>2016-01-23T14:41:26Z</time>
      </trkpt>
      <trkpt lat="43.41711" lon="6.09325">
        <ele>201.3</ele>
        <time>2016-01-23T14:41:27Z</time>
      </trkpt>
      <trkpt lat="43.41707" lon="6.0929">
        <ele>200.5</ele>
        <time>2016-01-23T14:41:28Z</time>
      </trkpt>
      <trkpt lat="43.41705" lon="6.09253">
        <ele>200.5</ele>
        <time>2016-01-23T14:41:29Z</time>
      </trkpt>
      <trkpt lat="43.41705" lon="6.09213">
        <ele>200.9</ele>
        <time>2016-01-23T14:41:30Z</time>
      </trkpt>
      <trkpt lat="43.41706" lon="6.09174">
        <ele>201.8</ele>
        <time>2016-01-23T14:41:31Z</time>
      </trkpt>
      <trkpt lat="43.41707" lon="6.09137">
        <ele>201.9</ele>
        <time>2016-01-23T14:41:32Z</time>
      </trkpt>
      <trkpt lat="43.41708" lon="6.09102">
        <ele>202.5</ele>
        <time>2016-01-23T14:41:33Z</time>
      </trkpt>
      <trkpt lat="43.4171" lon="6.09068">
        <ele>202.5</ele>
        <time>2016-01-23T14:41:34Z</time>
      </trkpt>
      <trkpt lat="43.41712" lon="6.09036">
        <ele>202.6</ele>
        <time>2016-01-23T14:41:35Z</time>
      </trkpt>
      <trkpt lat="43.41716" lon="6.09006">
        <ele>202.4</ele>
        <time>2016-01-23T14:41:36Z</time>
      </trkpt>
      <trkpt lat="43.4172" lon="6.08978">
        <ele>202</ele>
        <time>2016-01-23T14:41:37Z</time>
      </trkpt>
      <trkpt lat="43.41724" lon="6.08951">
        <ele>201.3</ele>
        <time>2016-01-23T14:41:38Z</time>
      </trkpt>
      <trkpt lat="43.41727" lon="6.08925">
        <ele>201.3</ele>
        <time>2016-01-23T14:41:39Z</time>
      </trkpt>
      <trkpt lat="43.41728" lon="6.089">
        <ele>202</ele>
        <time>2016-01-23T14:41:40Z</time>
      </trkpt>
      <trkpt lat="43.41726" lon="6.08876">
        <ele>203.1</ele>
        <time>2016-01-23T14:41:41Z</time>
      </trkpt>
      <trkpt lat="43.4172" lon="6.08851">
        <ele>203.7</ele>
        <time>2016-01-23T14:41:42Z</time>
      </trkpt>
      <trkpt lat="43.4171" lon="6.08827">
        <ele>203.3</ele>
        <time>2016-01-23T14:41:43Z</time>
      </trkpt>
      <trkpt lat="43.41696" lon="6.08802">
        <ele>204</ele>
        <time>2016-01-23T14:41:44Z</time>
      </trkpt>
      <trkpt lat="43.41683" lon="6.08776">
        <ele>203.6</ele>
        <time>2016-01-23T14:41:45Z</time>
      </trkpt>
      <trkpt lat="43.41669" lon="6.08751">
        <ele>204</ele>
        <time>2016-01-23T14:41:46Z</time>
      </trkpt>
      <trkpt lat="43.41656" lon="6.08726">
        <ele>203.6</ele>
        <time>2016-01-23T14:41:47Z</time>
      </trkpt>
      <trkpt lat="43.41643" lon="6.08702">
        <ele>203.8</ele>
        <time>2016-01-23T14:41:48Z</time>
      </trkpt>
      <trkpt lat="43.41631" lon="6.0868">
        <ele>203.7</ele>
        <time>2016-01-23T14:41:49Z</time>
      </trkpt>
      <trkpt lat="43.4162" lon="6.08658">
        <ele>204</ele>
        <time>2016-01-23T14:41:50Z</time>
      </trkpt>
      <trkpt lat="43.4161" lon="6.08637">
        <ele>204</ele>
        <time>2016-01-23T14:41:51Z</time>
      </trkpt>
      <trkpt lat="43.41601" lon="6.08614">
        <ele>204.2</ele>
        <time>2016-01-23T14:41:52Z</time>
      </trkpt>
      <trkpt lat="43.41591" lon="6.0859">
        <ele>204.1</ele>
        <time>2016-01-23T14:41:53Z</time>
      </trkpt>
      <trkpt lat="43.41583" lon="6.08563">
        <ele>204</ele>
        <time>2016-01-23T14:41:54Z</time>
      </trkpt>
      <trkpt lat="43.41576" lon="6.08532">
        <ele>203.7</ele>
        <time>2016-01-23T14:41:55Z</time>
      </trkpt>
      <trkpt lat="43.41577" lon="6.08491">
        <ele>204.5</ele>
        <time>2016-01-23T14:41:56Z</time>
      </trkpt>
      <trkpt lat="43.41573" lon="6.08453">
        <ele>204.3</ele>
        <time>2016-01-23T14:41:57Z</time>
      </trkpt>
      <trkpt lat="43.41569" lon="6.08418">
        <ele>203.5</ele>
        <time>2016-01-23T14:41:58Z</time>
      </trkpt>
      <trkpt lat="43.41564" lon="6.08385">
        <ele>203.2</ele>
        <time>2016-01-23T14:41:59Z</time>
      </trkpt>
      <trkpt lat="43.4156" lon="6.08353">
        <ele>204.4</ele>
        <time>2016-01-23T14:42:00Z</time>
      </trkpt>
      <trkpt lat="43.41555" lon="6.08324">
        <ele>204.9</ele>
        <time>2016-01-23T14:42:01Z</time>
      </trkpt>
      <trkpt lat="43.4155" lon="6.08295">
        <ele>204.3</ele>
        <time>2016-01-23T14:42:02Z</time>
      </trkpt>
      <trkpt lat="43.41544" lon="6.08267">
        <ele>204.6</ele>
        <time>2016-01-23T14:42:03Z</time>
      </trkpt>
      <trkpt lat="43.41536" lon="6.0824">
        <ele>204.9</ele>
        <time>2016-01-23T14:42:04Z</time>
      </trkpt>
      <trkpt lat="43.41526" lon="6.08213">
        <ele>205.2</ele>
        <time>2016-01-23T14:42:05Z</time>
      </trkpt>
      <trkpt lat="43.41514" lon="6.08186">
        <ele>205.5</ele>
        <time>2016-01-23T14:42:06Z</time>
      </trkpt>
      <trkpt lat="43.41501" lon="6.08159">
        <ele>206.6</ele>
        <time>2016-01-23T14:42:07Z</time>
      </trkpt>
      <trkpt lat="43.41486" lon="6.08131">
        <ele>207</ele>
        <time>2016-01-23T14:42:08Z</time>
      </trkpt>
      <trkpt lat="43.4147" lon="6.08103">
        <ele>206.2</ele>
        <time>2016-01-23T14:42:09Z</time>
      </trkpt>
      <trkpt lat="43.41455" lon="6.08078">
        <ele>206.2</ele>
        <time>2016-01-23T14:42:10Z</time>
      </trkpt>
      <trkpt lat="43.4144" lon="6.08053">
        <ele>205.8</ele>
        <time>2016-01-23T14:42:11Z</time>
      </trkpt>
      <trkpt lat="43.41426" lon="6.0803">
        <ele>205.3</ele>
        <time>2016-01-23T14:42:12Z</time>
      </trkpt>
      <trkpt lat="43.41412" lon="6.08008">
        <ele>205.6</ele>
        <time>2016-01-23T14:42:13Z</time>
      </trkpt>
      <trkpt lat="43.414" lon="6.07987">
        <ele>205.4</ele>
        <time>2016-01-23T14:42:14Z</time>
      </trkpt>
      <trkpt lat="43.41388" lon="6.07966">
        <ele>205.2</ele>
        <time>2016-01-23T14:42:15Z</time>
      </trkpt>
      <trkpt lat="43.41375" lon="6.07948">
        <ele>205.9</ele>
        <time>2016-01-23T14:42:16Z</time>
      </trkpt>
      <trkpt lat="43.41362" lon="6.07931">
        <ele>206</ele>
        <time>2016-01-23T14:42:17Z</time>
      </trkpt>
      <trkpt lat="43.41349" lon="6.07917">
        <ele>206.5</ele>
        <time>2016-01-23T14:42:18Z</time>
      </trkpt>
      <trkpt lat="43.41333" lon="6.07904">
        <ele>206.5</ele>
        <time>2016-01-23T14:42:19Z</time>
      </trkpt>
      <trkpt lat="43.41316" lon="6.07893">
        <ele>206.1</ele>
        <time>2016-01-23T14:42:20Z</time>
      </trkpt>
      <trkpt lat="43.41298" lon="6.07884">
        <ele>206.1</ele>
        <time>2016-01-23T14:42:21Z</time>
      </trkpt>
      <trkpt lat="43.41282" lon="6.07874">
        <ele>206.3</ele>
        <time>2016-01-23T14:42:22Z</time>
      </trkpt>
      <trkpt lat="43.41265" lon="6.07864">
        <ele>206</ele>
        <time>2016-01-23T14:42:23Z</time>
      </trkpt>
      <trkpt lat="43.4125" lon="6.07852">
        <ele>206.7</ele>
        <time>2016-01-23T14:42:24Z</time>
      </trkpt>
      <trkpt lat="43.41236" lon="6.07837">
        <ele>206.2</ele>
        <time>2016-01-23T14:42:25Z</time>
      </trkpt>
      <trkpt lat="43.41222" lon="6.07819">
        <ele>205</ele>
        <time>2016-01-23T14:42:26Z</time>
      </trkpt>
      <trkpt lat="43.41212" lon="6.07795">
        <ele>205.3</ele>
        <time>2016-01-23T14:42:27Z</time>
      </trkpt>
      <trkpt lat="43.41201" lon="6.0777">
        <ele>204.8</ele>
        <time>2016-01-23T14:42:28Z</time>
      </trkpt>
      <trkpt lat="43.41196" lon="6.07743">
        <ele>204.7</ele>
        <time>2016-01-23T14:42:29Z</time>
      </trkpt>
      <trkpt lat="43.41193" lon="6.07717">
        <ele>206.1</ele>
        <time>2016-01-23T14:42:30Z</time>
      </trkpt>
      <trkpt lat="43.41195" lon="6.07689">
        <ele>207</ele>
        <time>2016-01-23T14:42:31Z</time>
      </trkpt>
      <trkpt lat="43.412" lon="6.07662">
        <ele>207.1</ele>
        <time>2016-01-23T14:42:32Z</time>
      </trkpt>
      <trkpt lat="43.4121" lon="6.07638">
        <ele>207.1</ele>
        <time>2016-01-23T14:42:33Z</time>
      </trkpt>
      <trkpt lat="43.41225" lon="6.07615">
        <ele>206.4</ele>
        <time>2016-01-23T14:42:34Z</time>
      </trkpt>
      <trkpt lat="43.4124" lon="6.07593">
        <ele>207.1</ele>
        <time>2016-01-23T14:42:35Z</time>
      </trkpt>
      <trkpt lat="43.41255" lon="6.07569">
        <ele>207.2</ele>
        <time>2016-01-23T14:42:36Z</time>
      </trkpt>
      <trkpt lat="43.41266" lon="6.07544">
        <ele>207.6</ele>
        <time>2016-01-23T14:42:37Z</time>
      </trkpt>
      <trkpt lat="43.41276" lon="6.07519">
        <ele>208.2</ele>
        <time>2016-01-23T14:42:38Z</time>
      </trkpt>
      <trkpt lat="43.4128" lon="6.07489">
        <ele>209</ele>
        <time>2016-01-23T14:42:39Z</time>
      </trkpt>
      <trkpt lat="43.41282" lon="6.07458">
        <ele>209</ele>
        <time>2016-01-23T14:42:40Z</time>
      </trkpt>
      <trkpt lat="43.4128" lon="6.07425">
        <ele>209</ele>
        <time>2016-01-23T14:42:41Z</time>
      </trkpt>
      <trkpt lat="43.41278" lon="6.07395">
        <ele>209</ele>
        <time>2016-01-23T14:42:42Z</time>
      </trkpt>
      <trkpt lat="43.41275" lon="6.07368">
        <ele>208.9</ele>
        <time>2016-01-23T14:42:43Z</time>
      </trkpt>
      <trkpt lat="43.41273" lon="6.07344">
        <ele>209.3</ele>
        <time>2016-01-23T14:42:44Z</time>
      </trkpt>
      <trkpt lat="43.41269" lon="6.07321">
        <ele>209.5</ele>
        <time>2016-01-23T14:42:45Z</time>
      </trkpt>
      <trkpt lat="43.41261" lon="6.073">
        <ele>209.3</ele>
        <time>2016-01-23T14:42:46Z</time>
      </trkpt>
      <trkpt lat="43.4125" lon="6.0728">
        <ele>209</ele>
        <time>2016-01-23T14:42:47Z</time>
      </trkpt>
      <trkpt lat="43.41236" lon="6.07259">
        <ele>208.8</ele>
        <time>2016-01-23T14:42:48Z</time>
      </trkpt>
      <trkpt lat="43.41221" lon="6.07236">
        <ele>208.5</ele>
        <time>2016-01-23T14:42:49Z</time>
      </trkpt>
      <trkpt lat="43.41206" lon="6.07211">
        <ele>208.2</ele>
        <time>2016-01-23T14:42:50Z</time>
      </trkpt>
      <trkpt lat="43.41192" lon="6.07183">
        <ele>208.5</ele>
        <time>2016-01-23T14:42:51Z</time>
      </trkpt>
      <trkpt lat="43.41178" lon="6.07155">
        <ele>208.4</ele>
        <time>2016-01-23T14:42:52Z</time>
      </trkpt>
      <trkpt lat="43.41164" lon="6.07127">
        <ele>208.6</ele>
        <time>2016-01-23T14:42:53Z</time>
      </trkpt>
      <trkpt lat="43.4115" lon="6.07102">
        <ele>208.6</ele>
        <time>2016-01-23T14:42:54Z</time>
      </trkpt>
      <trkpt lat="43.41136" lon="6.07079">
        <ele>209</ele>
        <time>2016-01-23T14:42:55Z</time>
      </trkpt>
      <trkpt lat="43.41124" lon="6.07059">
        <ele>208.5</ele>
        <time>2016-01-23T14:42:56Z</time>
      </trkpt>
      <trkpt lat="43.41114" lon="6.0704">
        <ele>208.1</ele>
        <time>2016-01-23T14:42:57Z</time>
      </trkpt>
      <trkpt lat="43.41107" lon="6.07019">
        <ele>207.9</ele>
        <time>2016-01-23T14:42:58Z</time>
      </trkpt>
      <trkpt lat="43.41102" lon="6.06997">
        <ele>208</ele>
        <time>2016-01-23T14:42:59Z</time>
      </trkpt>
      <trkpt lat="43.41098" lon="6.06974">
        <ele>207.2</ele>
        <time>2016-01-23T14:43:00Z</time>
      </trkpt>
      <trkpt lat="43.41094" lon="6.06953">
        <ele>206.9</ele>
        <time>2016-01-23T14:43:01Z</time>
      </trkpt>
      <trkpt lat="43.4109" lon="6.06934">
        <ele>207.3</ele>
        <time>2016-01-23T14:43:02Z</time>
      </trkpt>
      <trkpt lat="43.41086" lon="6.06916">
        <ele>208.1</ele>
        <time>2016-01-23T14:43:03Z</time>
      </trkpt>
      <trkpt lat="43.41082" lon="6.06899">
        <ele>208.5</ele>
        <time>2016-01-23T14:43:04Z</time>
      </trkpt>
      <trkpt lat="43.41077" lon="6.06884">
        <ele>208.3</ele>
        <time>2016-01-23T14:43:05Z</time>
      </trkpt>
      <trkpt lat="43.41073" lon="6.06867">
        <ele>207.9</ele>
        <time>2016-01-23T14:43:06Z</time>
      </trkpt>
      <trkpt lat="43.4107" lon="6.0685">
        <ele>207.5</ele>
        <time>2016-01-23T14:43:07Z</time>
      </trkpt>
      <trkpt lat="43.41068" lon="6.06832">
        <ele>207.4</ele>
        <time>2016-01-23T14:43:08Z</time>
      </trkpt>
      <trkpt lat="43.41069" lon="6.06813">
        <ele>207.8</ele>
        <time>2016-01-23T14:43:09Z</time>
      </trkpt>
      <trkpt lat="43.41071" lon="6.06794">
        <ele>208.1</ele>
        <time>2016-01-23T14:43:10Z</time>
      </trkpt>
      <trkpt lat="43.41073" lon="6.06776">
        <ele>208.2</ele>
        <time>2016-01-23T14:43:11Z</time>
      </trkpt>
      <trkpt lat="43.41075" lon="6.0676">
        <ele>208.4</ele>
        <time>2016-01-23T14:43:12Z</time>
      </trkpt>
      <trkpt lat="43.41076" lon="6.06744">
        <ele>208.4</ele>
        <time>2016-01-23T14:43:13Z</time>
      </trkpt>
      <trkpt lat="43.41075" lon="6.06727">
        <ele>208.1</ele>
        <time>2016-01-23T14:43:14Z</time>
      </trkpt>
      <trkpt lat="43.41073" lon="6.06709">
        <ele>207.8</ele>
        <time>2016-01-23T14:43:15Z</time>
      </trkpt>
      <trkpt lat="43.41071" lon="6.06691">
        <ele>207.6</ele>
        <time>2016-01-23T14:43:16Z</time>
      </trkpt>
      <trkpt lat="43.41068" lon="6.06674">
        <ele>207.3</ele>
        <time>2016-01-23T14:43:17Z</time>
      </trkpt>
      <trkpt lat="43.41064" lon="6.06658">
        <ele>207.2</ele>
        <time>2016-01-23T14:43:18Z</time>
      </trkpt>
      <trkpt lat="43.41061" lon="6.06642">
        <ele>207.3</ele>
        <time>2016-01-23T14:43:19Z</time>
      </trkpt>
      <trkpt lat="43.41058" lon="6.06627">
        <ele>208</ele>
        <time>2016-01-23T14:43:20Z</time>
      </trkpt>
      <trkpt lat="43.41055" lon="6.06611">
        <ele>209</ele>
        <time>2016-01-23T14:43:21Z</time>
      </trkpt>
      <trkpt lat="43.41051" lon="6.06596">
        <ele>209.1</ele>
        <time>2016-01-23T14:43:22Z</time>
      </trkpt>
      <trkpt lat="43.41048" lon="6.0658">
        <ele>209</ele>
        <time>2016-01-23T14:43:23Z</time>
      </trkpt>
      <trkpt lat="43.41045" lon="6.06564">
        <ele>208.6</ele>
        <time>2016-01-23T14:43:24Z</time>
      </trkpt>
      <trkpt lat="43.41041" lon="6.06549">
        <ele>208.1</ele>
        <time>2016-01-23T14:43:25Z</time>
      </trkpt>
      <trkpt lat="43.41038" lon="6.06535">
        <ele>207.9</ele>
        <time>2016-01-23T14:43:26Z</time>
      </trkpt>
      <trkpt lat="43.41034" lon="6.06521">
        <ele>208.1</ele>
        <time>2016-01-23T14:43:27Z</time>
      </trkpt>
      <trkpt lat="43.41032" lon="6.06507">
        <ele>208.7</ele>
        <time>2016-01-23T14:43:28Z</time>
      </trkpt>
      <trkpt lat="43.41028" lon="6.06494">
        <ele>209.2</ele>
        <time>2016-01-23T14:43:29Z</time>
      </trkpt>
      <trkpt lat="43.41024" lon="6.06481">
        <ele>209.4</ele>
        <time>2016-01-23T14:43:30Z</time>
      </trkpt>
      <trkpt lat="43.4102" lon="6.06468">
        <ele>209.5</ele>
        <time>2016-01-23T14:43:31Z</time>
      </trkpt>
      <trkpt lat="43.41015" lon="6.06454">
        <ele>209.7</ele>
        <time>2016-01-23T14:43:32Z</time>
      </trkpt>
      <trkpt lat="43.41009" lon="6.0644">
        <ele>210</ele>
        <time>2016-01-23T14:43:33Z</time>
      </trkpt>
      <trkpt lat="43.41003" lon="6.06427">
        <ele>210</ele>
        <time>2016-01-23T14:43:34Z</time>
      </trkpt>
      <trkpt lat="43.40997" lon="6.06416">
        <ele>210</ele>
        <time>2016-01-23T14:43:35Z</time>
      </trkpt>
      <trkpt lat="43.40992" lon="6.06405">
        <ele>210</ele>
        <time>2016-01-23T14:43:36Z</time>
      </trkpt>
      <trkpt lat="43.40987" lon="6.06399">
        <ele>210</ele>
        <time>2016-01-23T14:43:37Z</time>
      </trkpt>
      <trkpt lat="43.40984" lon="6.06394">
        <ele>210</ele>
        <time>2016-01-23T14:43:38Z</time>
      </trkpt>
      <trkpt lat="43.40982" lon="6.06391">
        <ele>210</ele>
        <time>2016-01-23T14:43:39Z</time>
      </trkpt>
      <trkpt lat="43.4098" lon="6.06389">
        <ele>210</ele>
        <time>2016-01-23T14:43:40Z</time>
      </trkpt>
      <trkpt lat="43.4098" lon="6.06387">
        <ele>210</ele>
        <time>2016-01-23T14:43:41Z</time>
      </trkpt>
      <trkpt lat="43.40979" lon="6.06385">
        <ele>210.1</ele>
        <time>2016-01-23T14:43:42Z</time>
      </trkpt>
      <trkpt lat="43.4098" lon="6.06382">
        <ele>210.2</ele>
        <time>2016-01-23T14:43:43Z</time>
      </trkpt>
      <trkpt lat="43.40981" lon="6.0638">
        <ele>210.2</ele>
        <time>2016-01-23T14:43:44Z</time>
      </trkpt>
      <trkpt lat="43.40982" lon="6.06379">
        <ele>210.2</ele>
        <time>2016-01-23T14:43:45Z</time>
      </trkpt>
      <trkpt lat="43.40982" lon="6.06379">
        <ele>210.2</ele>
        <time>2016-01-23T14:43:46Z</time>
      </trkpt>
      <trkpt lat="43.40982" lon="6.06379">
        <ele>210.2</ele>
        <time>2016-01-23T14:43:47Z</time>
      </trkpt>
      <trkpt lat="43.40982" lon="6.06379">
        <ele>210.2</ele>
        <time>2016-01-23T14:43:48Z</time>
      </trkpt>
      <trkpt lat="43.40982" lon="6.0638">
        <ele>210.2</ele>
        <time>2016-01-23T14:43:49Z</time>
      </trkpt>
      <trkpt lat="43.40982" lon="6.0638">
        <ele>210.2</ele>
        <time>2016-01-23T14:43:50Z</time>
      </trkpt>
      <trkpt lat="43.40982" lon="6.0638">
        <ele>210.2</ele>
        <time>2016-01-23T14:43:51Z</time>
      </trkpt>
      <trkpt lat="43.40982" lon="6.0638">
        <ele>210.2</ele>
        <time>2016-01-23T14:43:52Z</time>
      </trkpt>
      <trkpt lat="43.40982" lon="6.0638">
        <ele>210.2</ele>
        <time>2016-01-23T14:43:53Z</time>
      </trkpt>
      <trkpt lat="43.40982" lon="6.0638">
        <ele>210.2</ele>
        <time>2016-01-23T14:43:54Z</time>
      </trkpt>
      <trkpt lat="43.40982" lon="6.0638">
        <ele>210.2</ele>
        <time>2016-01-23T14:43:55Z</time>
      </trkpt>
      <trkpt lat="43.40982" lon="6.0638">
        <ele>210.2</ele>
        <time>2016-01-23T14:43:56Z</time>
      </trkpt>
      <trkpt lat="43.40982" lon="6.0638">
        <ele>210.2</ele>
        <time>2016-01-23T14:43:57Z</time>
      </trkpt>
      <trkpt lat="43.40981" lon="6.0638">
        <ele>210.2</ele>
        <time>2016-01-23T14:43:58Z</time>
      </trkpt>
      <trkpt lat="43.40981" lon="6.0638">
        <ele>210.2</ele>
        <time>2016-01-23T14:43:59Z</time>
      </trkpt>
      <trkpt lat="43.40981" lon="6.0638">
        <ele>210.2</ele>
        <time>2016-01-23T14:44:00Z</time>
      </trkpt>
      <trkpt lat="43.40981" lon="6.0638">
        <ele>210.2</ele>
        <time>2016-01-23T14:44:01Z</time>
      </trkpt>
      <trkpt lat="43.40981" lon="6.0638">
        <ele>210.2</ele>
        <time>2016-01-23T14:44:02Z</time>
      </trkpt>
      <trkpt lat="43.40981" lon="6.0638">
        <ele>210.2</ele>
        <time>2016-01-23T14:44:03Z</time>
      </trkpt>
      <trkpt lat="43.40981" lon="6.0638">
        <ele>210.2</ele>
        <time>2016-01-23T14:44:04Z</time>
      </trkpt>
      <trkpt lat="43.40981" lon="6.0638">
        <ele>210.2</ele>
        <time>2016-01-23T14:44:05Z</time>
      </trkpt>
      <trkpt lat="43.40981" lon="6.0638">
        <ele>210.2</ele>
        <time>2016-01-23T14:44:06Z</time>
      </trkpt>
      <trkpt lat="43.40981" lon="6.0638">
        <ele>210.2</ele>
        <time>2016-01-23T14:44:07Z</time>
      </trkpt>
      <trkpt lat="43.40981" lon="6.0638">
        <ele>210.2</ele>
        <time>2016-01-23T14:44:08Z</time>
      </trkpt>
      <trkpt lat="43.40981" lon="6.0638">
        <ele>210.2</ele>
        <time>2016-01-23T14:44:09Z</time>
      </trkpt>
      <trkpt lat="43.40981" lon="6.0638">
        <ele>210.2</ele>
        <time>2016-01-23T14:44:10Z</time>
      </trkpt>
      <trkpt lat="43.40981" lon="6.0638">
        <ele>210.2</ele>
        <time>2016-01-23T14:44:11Z</time>
      </trkpt>
      <trkpt lat="43.40981" lon="6.0638">
        <ele>210.2</ele>
        <time>2016-01-23T14:44:12Z</time>
      </trkpt>
      <trkpt lat="43.40981" lon="6.0638">
        <ele>210.2</ele>
        <time>2016-01-23T14:44:13Z</time>
      </trkpt>
      <trkpt lat="43.40981" lon="6.0638">
        <ele>210.2</ele>
        <time>2016-01-23T14:44:14Z</time>
      </trkpt>
      <trkpt lat="43.40981" lon="6.0638">
        <ele>210.2</ele>
        <time>2016-01-23T14:44:15Z</time>
      </trkpt>
      <trkpt lat="43.40981" lon="6.0638">
        <ele>210.2</ele>
        <time>2016-01-23T14:44:16Z</time>
      </trkpt>
      <trkpt lat="43.40981" lon="6.06379">
        <ele>210.2</ele>
        <time>2016-01-23T14:44:17Z</time>
      </trkpt>
      <trkpt lat="43.40982" lon="6.06377">
        <ele>210.3</ele>
        <time>2016-01-23T14:44:18Z</time>
      </trkpt>
      <trkpt lat="43.40981" lon="6.06374">
        <ele>210.4</ele>
        <time>2016-01-23T14:44:19Z</time>
      </trkpt>
      <trkpt lat="43.40981" lon="6.06368">
        <ele>210.5</ele>
        <time>2016-01-23T14:44:20Z</time>
      </trkpt>
      <trkpt lat="43.40979" lon="6.06358">
        <ele>210.8</ele>
        <time>2016-01-23T14:44:21Z</time>
      </trkpt>
      <trkpt lat="43.40976" lon="6.06348">
        <ele>210.9</ele>
        <time>2016-01-23T14:44:22Z</time>
      </trkpt>
      <trkpt lat="43.40975" lon="6.06338">
        <ele>210.9</ele>
        <time>2016-01-23T14:44:23Z</time>
      </trkpt>
      <trkpt lat="43.40973" lon="6.0633">
        <ele>211</ele>
        <time>2016-01-23T14:44:24Z</time>
      </trkpt>
      <trkpt lat="43.40973" lon="6.06325">
        <ele>211</ele>
        <time>2016-01-23T14:44:25Z</time>
      </trkpt>
      <trkpt lat="43.40972" lon="6.06321">
        <ele>211</ele>
        <time>2016-01-23T14:44:26Z</time>
      </trkpt>
      <trkpt lat="43.40972" lon="6.06317">
        <ele>211</ele>
        <time>2016-01-23T14:44:27Z</time>
      </trkpt>
      <trkpt lat="43.40971" lon="6.06314">
        <ele>211</ele>
        <time>2016-01-23T14:44:28Z</time>
      </trkpt>
      <trkpt lat="43.40971" lon="6.06313">
        <ele>211</ele>
        <time>2016-01-23T14:44:29Z</time>
      </trkpt>
      <trkpt lat="43.4097" lon="6.06312">
        <ele>211.1</ele>
        <time>2016-01-23T14:44:30Z</time>
      </trkpt>
      <trkpt lat="43.4097" lon="6.06312">
        <ele>211.1</ele>
        <time>2016-01-23T14:44:31Z</time>
      </trkpt>
      <trkpt lat="43.40969" lon="6.06312">
        <ele>211.1</ele>
        <time>2016-01-23T14:44:32Z</time>
      </trkpt>
      <trkpt lat="43.40969" lon="6.06312">
        <ele>211.1</ele>
        <time>2016-01-23T14:44:33Z</time>
      </trkpt>
      <trkpt lat="43.40969" lon="6.06312">
        <ele>211.1</ele>
        <time>2016-01-23T14:44:34Z</time>
      </trkpt>
      <trkpt lat="43.40969" lon="6.06312">
        <ele>211.1</ele>
        <time>2016-01-23T14:44:35Z</time>
      </trkpt>
      <trkpt lat="43.40968" lon="6.06312">
        <ele>211.1</ele>
        <time>2016-01-23T14:44:36Z</time>
      </trkpt>
      <trkpt lat="43.40968" lon="6.06312">
        <ele>211.1</ele>
        <time>2016-01-23T14:44:37Z</time>
      </trkpt>
      <trkpt lat="43.40968" lon="6.06312">
        <ele>211.1</ele>
        <time>2016-01-23T14:44:38Z</time>
      </trkpt>
      <trkpt lat="43.40968" lon="6.06312">
        <ele>211.1</ele>
        <time>2016-01-23T14:44:39Z</time>
      </trkpt>
      <trkpt lat="43.40968" lon="6.06312">
        <ele>211.1</ele>
        <time>2016-01-23T14:44:40Z</time>
      </trkpt>
      <trkpt lat="43.40968" lon="6.06312">
        <ele>211.1</ele>
        <time>2016-01-23T14:44:41Z</time>
      </trkpt>
      <trkpt lat="43.40968" lon="6.06312">
        <ele>211.1</ele>
        <time>2016-01-23T14:44:42Z</time>
      </trkpt>
      <trkpt lat="43.40968" lon="6.06312">
        <ele>211.1</ele>
        <time>2016-01-23T14:44:43Z</time>
      </trkpt>
      <trkpt lat="43.40967" lon="6.06312">
        <ele>211.1</ele>
        <time>2016-01-23T14:44:44Z</time>
      </trkpt>
      <trkpt lat="43.40967" lon="6.06312">
        <ele>211.1</ele>
        <time>2016-01-23T14:44:45Z</time>
      </trkpt>
      <trkpt lat="43.40967" lon="6.06312">
        <ele>211.1</ele>
        <time>2016-01-23T14:44:46Z</time>
      </trkpt>
      <trkpt lat="43.40967" lon="6.06312">
        <ele>211.1</ele>
        <time>2016-01-23T14:44:47Z</time>
      </trkpt>
      <trkpt lat="43.40967" lon="6.06312">
        <ele>211.2</ele>
        <time>2016-01-23T14:44:48Z</time>
      </trkpt>
      <trkpt lat="43.40967" lon="6.06312">
        <ele>211.2</ele>
        <time>2016-01-23T14:44:49Z</time>
      </trkpt>
      <trkpt lat="43.40966" lon="6.06312">
        <ele>211.2</ele>
        <time>2016-01-23T14:44:50Z</time>
      </trkpt>
      <trkpt lat="43.40966" lon="6.06312">
        <ele>211.2</ele>
        <time>2016-01-23T14:44:51Z</time>
      </trkpt>
      <trkpt lat="43.40966" lon="6.06312">
        <ele>211.2</ele>
        <time>2016-01-23T14:44:52Z</time>
      </trkpt>
      <trkpt lat="43.40966" lon="6.06312">
        <ele>211.2</ele>
        <time>2016-01-23T14:44:53Z</time>
      </trkpt>
      <trkpt lat="43.40966" lon="6.06312">
        <ele>211.2</ele>
        <time>2016-01-23T14:44:54Z</time>
      </trkpt>
      <trkpt lat="43.40966" lon="6.06312">
        <ele>211.2</ele>
        <time>2016-01-23T14:44:55Z</time>
      </trkpt>
      <trkpt lat="43.40966" lon="6.06312">
        <ele>211.2</ele>
        <time>2016-01-23T14:44:56Z</time>
      </trkpt>
      <trkpt lat="43.40966" lon="6.06312">
        <ele>211.2</ele>
        <time>2016-01-23T14:44:57Z</time>
      </trkpt>
      <trkpt lat="43.40966" lon="6.06312">
        <ele>211.2</ele>
        <time>2016-01-23T14:44:58Z</time>
      </trkpt>
      <trkpt lat="43.40966" lon="6.06312">
        <ele>211.2</ele>
        <time>2016-01-23T14:44:59Z</time>
      </trkpt>
      <trkpt lat="43.40966" lon="6.06311">
        <ele>211.2</ele>
        <time>2016-01-23T14:45:00Z</time>
      </trkpt>
      <trkpt lat="43.40965" lon="6.06312">
        <ele>211.2</ele>
        <time>2016-01-23T14:45:01Z</time>
      </trkpt>
      <trkpt lat="43.40965" lon="6.06312">
        <ele>211.2</ele>
        <time>2016-01-23T14:45:02Z</time>
      </trkpt>
      <trkpt lat="43.40965" lon="6.06311">
        <ele>211.2</ele>
        <time>2016-01-23T14:45:03Z</time>
      </trkpt>
      <trkpt lat="43.40965" lon="6.06311">
        <ele>211.2</ele>
        <time>2016-01-23T14:45:04Z</time>
      </trkpt>
      <trkpt lat="43.40965" lon="6.06311">
        <ele>211.2</ele>
        <time>2016-01-23T14:45:05Z</time>
      </trkpt>
      <trkpt lat="43.40965" lon="6.06311">
        <ele>211.2</ele>
        <time>2016-01-23T14:45:06Z</time>
      </trkpt>
      <trkpt lat="43.40965" lon="6.06311">
        <ele>211.2</ele>
        <time>2016-01-23T14:45:07Z</time>
      </trkpt>
      <trkpt lat="43.40965" lon="6.06311">
        <ele>211.2</ele>
        <time>2016-01-23T14:45:08Z</time>
      </trkpt>
      <trkpt lat="43.40965" lon="6.06311">
        <ele>211.2</ele>
        <time>2016-01-23T14:45:09Z</time>
      </trkpt>
      <trkpt lat="43.40965" lon="6.06311">
        <ele>211.2</ele>
        <time>2016-01-23T14:45:10Z</time>
      </trkpt>
      <trkpt lat="43.40965" lon="6.06311">
        <ele>211.2</ele>
        <time>2016-01-23T14:45:11Z</time>
      </trkpt>
      <trkpt lat="43.40965" lon="6.06312">
        <ele>211.2</ele>
        <time>2016-01-23T14:45:12Z</time>
      </trkpt>
      <trkpt lat="43.40965" lon="6.06312">
        <ele>211.2</ele>
        <time>2016-01-23T14:45:13Z</time>
      </trkpt>
      <trkpt lat="43.40965" lon="6.06312">
        <ele>211.2</ele>
        <time>2016-01-23T14:45:14Z</time>
      </trkpt>
      <trkpt lat="43.40965" lon="6.06312">
        <ele>211.2</ele>
        <time>2016-01-23T14:45:15Z</time>
      </trkpt>
      <trkpt lat="43.40965" lon="6.06312">
        <ele>211.2</ele>
        <time>2016-01-23T14:45:16Z</time>
      </trkpt>
      <trkpt lat="43.40965" lon="6.06312">
        <ele>211.2</ele>
        <time>2016-01-23T14:45:17Z</time>
      </trkpt>
      <trkpt lat="43.40965" lon="6.06312">
        <ele>211.2</ele>
        <time>2016-01-23T14:45:18Z</time>
      </trkpt>
      <trkpt lat="43.40965" lon="6.06312">
        <ele>211.2</ele>
        <time>2016-01-23T14:45:19Z</time>
      </trkpt>
      <trkpt lat="43.40965" lon="6.06312">
        <ele>211.2</ele>
        <time>2016-01-23T14:45:20Z</time>
      </trkpt>
      <trkpt lat="43.40965" lon="6.06312">
        <ele>211.2</ele>
        <time>2016-01-23T14:45:21Z</time>
      </trkpt>
      <trkpt lat="43.40965" lon="6.06312">
        <ele>211.2</ele>
        <time>2016-01-23T14:45:22Z</time>
      </trkpt>
      <trkpt lat="43.40965" lon="6.06312">
        <ele>211.2</ele>
        <time>2016-01-23T14:45:23Z</time>
      </trkpt>
      <trkpt lat="43.40965" lon="6.06312">
        <ele>211.2</ele>
        <time>2016-01-23T14:45:24Z</time>
      </trkpt>
      <trkpt lat="43.40965" lon="6.06312">
        <ele>211.2</ele>
        <time>2016-01-23T14:45:25Z</time>
      </trkpt>
      <trkpt lat="43.40965" lon="6.06312">
        <ele>211.2</ele>
        <time>2016-01-23T14:45:26Z</time>
      </trkpt>
      <trkpt lat="43.40965" lon="6.06312">
        <ele>211.2</ele>
        <time>2016-01-23T14:45:27Z</time>
      </trkpt>
      <trkpt lat="43.40965" lon="6.06312">
        <ele>211.2</ele>
        <time>2016-01-23T14:45:28Z</time>
      </trkpt>
      <trkpt lat="43.40965" lon="6.06312">
        <ele>211.2</ele>
        <time>2016-01-23T14:45:29Z</time>
      </trkpt>
      <trkpt lat="43.40965" lon="6.06312">
        <ele>211.2</ele>
        <time>2016-01-23T14:45:30Z</time>
      </trkpt>
      <trkpt lat="43.40965" lon="6.06312">
        <ele>211.2</ele>
        <time>2016-01-23T14:45:31Z</time>
      </trkpt>
      <trkpt lat="43.40965" lon="6.06312">
        <ele>211.2</ele>
        <time>2016-01-23T14:45:32Z</time>
      </trkpt>
      <trkpt lat="43.40965" lon="6.06312">
        <ele>211.2</ele>
        <time>2016-01-23T14:45:33Z</time>
      </trkpt>
      <trkpt lat="43.40965" lon="6.06309">
        <ele>211.2</ele>
        <time>2016-01-23T14:45:34Z</time>
      </trkpt>
      <trkpt lat="43.40959" lon="6.06305">
        <ele>211.5</ele>
        <time>2016-01-23T14:45:35Z</time>
      </trkpt>
      <trkpt lat="43.40956" lon="6.06298">
        <ele>211.7</ele>
        <time>2016-01-23T14:45:36Z</time>
      </trkpt>
      <trkpt lat="43.40954" lon="6.06289">
        <ele>211.9</ele>
        <time>2016-01-23T14:45:37Z</time>
      </trkpt>
      <trkpt lat="43.40953" lon="6.06276">
        <ele>212</ele>
        <time>2016-01-23T14:45:38Z</time>
      </trkpt>
      <trkpt lat="43.4095" lon="6.06264">
        <ele>212</ele>
        <time>2016-01-23T14:45:39Z</time>
      </trkpt>
      <trkpt lat="43.40946" lon="6.06251">
        <ele>212</ele>
        <time>2016-01-23T14:45:40Z</time>
      </trkpt>
      <trkpt lat="43.40941" lon="6.0624">
        <ele>211.8</ele>
        <time>2016-01-23T14:45:41Z</time>
      </trkpt>
      <trkpt lat="43.40936" lon="6.06229">
        <ele>211.6</ele>
        <time>2016-01-23T14:45:42Z</time>
      </trkpt>
      <trkpt lat="43.40932" lon="6.06218">
        <ele>211.5</ele>
        <time>2016-01-23T14:45:43Z</time>
      </trkpt>
      <trkpt lat="43.40929" lon="6.06209">
        <ele>211.2</ele>
        <time>2016-01-23T14:45:44Z</time>
      </trkpt>
      <trkpt lat="43.40926" lon="6.06202">
        <ele>211.1</ele>
        <time>2016-01-23T14:45:45Z</time>
      </trkpt>
      <trkpt lat="43.40924" lon="6.06197">
        <ele>211</ele>
        <time>2016-01-23T14:45:46Z</time>
      </trkpt>
      <trkpt lat="43.40923" lon="6.06193">
        <ele>211</ele>
        <time>2016-01-23T14:45:47Z</time>
      </trkpt>
      <trkpt lat="43.40921" lon="6.0619">
        <ele>211</ele>
        <time>2016-01-23T14:45:48Z</time>
      </trkpt>
      <trkpt lat="43.40921" lon="6.06188">
        <ele>211</ele>
        <time>2016-01-23T14:45:49Z</time>
      </trkpt>
      <trkpt lat="43.40921" lon="6.06186">
        <ele>211</ele>
        <time>2016-01-23T14:45:50Z</time>
      </trkpt>
      <trkpt lat="43.40921" lon="6.06184">
        <ele>211</ele>
        <time>2016-01-23T14:45:51Z</time>
      </trkpt>
      <trkpt lat="43.40921" lon="6.06182">
        <ele>211</ele>
        <time>2016-01-23T14:45:52Z</time>
      </trkpt>
      <trkpt lat="43.4092" lon="6.0618">
        <ele>211</ele>
        <time>2016-01-23T14:45:53Z</time>
      </trkpt>
      <trkpt lat="43.40921" lon="6.06177">
        <ele>211</ele>
        <time>2016-01-23T14:45:54Z</time>
      </trkpt>
      <trkpt lat="43.40922" lon="6.06173">
        <ele>211</ele>
        <time>2016-01-23T14:45:55Z</time>
      </trkpt>
      <trkpt lat="43.40924" lon="6.0617">
        <ele>211</ele>
        <time>2016-01-23T14:45:56Z</time>
      </trkpt>
      <trkpt lat="43.40927" lon="6.06168">
        <ele>211</ele>
        <time>2016-01-23T14:45:57Z</time>
      </trkpt>
      <trkpt lat="43.4093" lon="6.06167">
        <ele>211</ele>
        <time>2016-01-23T14:45:58Z</time>
      </trkpt>
      <trkpt lat="43.40934" lon="6.06168">
        <ele>211</ele>
        <time>2016-01-23T14:45:59Z</time>
      </trkpt>
      <trkpt lat="43.40938" lon="6.06172">
        <ele>211</ele>
        <time>2016-01-23T14:46:00Z</time>
      </trkpt>
      <trkpt lat="43.40941" lon="6.06177">
        <ele>211</ele>
        <time>2016-01-23T14:46:01Z</time>
      </trkpt>
      <trkpt lat="43.40944" lon="6.06184">
        <ele>211</ele>
        <time>2016-01-23T14:46:02Z</time>
      </trkpt>
      <trkpt lat="43.40947" lon="6.06191">
        <ele>211</ele>
        <time>2016-01-23T14:46:03Z</time>
      </trkpt>
      <trkpt lat="43.4095" lon="6.06198">
        <ele>211.1</ele>
        <time>2016-01-23T14:46:04Z</time>
      </trkpt>
      <trkpt lat="43.40953" lon="6.06203">
        <ele>211.2</ele>
        <time>2016-01-23T14:46:05Z</time>
      </trkpt>
      <trkpt lat="43.40955" lon="6.06209">
        <ele>211.3</ele>
        <time>2016-01-23T14:46:06Z</time>
      </trkpt>
      <trkpt lat="43.40957" lon="6.06213">
        <ele>211.4</ele>
        <time>2016-01-23T14:46:07Z</time>
      </trkpt>
      <trkpt lat="43.40961" lon="6.06215">
        <ele>211.3</ele>
        <time>2016-01-23T14:46:08Z</time>
      </trkpt>
      <trkpt lat="43.40964" lon="6.06216">
        <ele>211.2</ele>
        <time>2016-01-23T14:46:09Z</time>
      </trkpt>
      <trkpt lat="43.40967" lon="6.06216">
        <ele>211.2</ele>
        <time>2016-01-23T14:46:10Z</time>
      </trkpt>
      <trkpt lat="43.40969" lon="6.06216">
        <ele>211.1</ele>
        <time>2016-01-23T14:46:11Z</time>
      </trkpt>
      <trkpt lat="43.40972" lon="6.06214">
        <ele>211</ele>
        <time>2016-01-23T14:46:12Z</time>
      </trkpt>
      <trkpt lat="43.40974" lon="6.0621">
        <ele>211</ele>
        <time>2016-01-23T14:46:13Z</time>
      </trkpt>
      <trkpt lat="43.40976" lon="6.06206">
        <ele>211.1</ele>
        <time>2016-01-23T14:46:14Z</time>
      </trkpt>
      <trkpt lat="43.40977" lon="6.06202">
        <ele>211.1</ele>
        <time>2016-01-23T14:46:15Z</time>
      </trkpt>
      <trkpt lat="43.40978" lon="6.06198">
        <ele>211.2</ele>
        <time>2016-01-23T14:46:16Z</time>
      </trkpt>
      <trkpt lat="43.40978" lon="6.06194">
        <ele>211.2</ele>
        <time>2016-01-23T14:46:17Z</time>
      </trkpt>
      <trkpt lat="43.40978" lon="6.06191">
        <ele>211.2</ele>
        <time>2016-01-23T14:46:18Z</time>
      </trkpt>
      <trkpt lat="43.40978" lon="6.0619">
        <ele>211.2</ele>
        <time>2016-01-23T14:46:19Z</time>
      </trkpt>
      <trkpt lat="43.40978" lon="6.06189">
        <ele>211.2</ele>
        <time>2016-01-23T14:46:20Z</time>
      </trkpt>
      <trkpt lat="43.40979" lon="6.06188">
        <ele>211.2</ele>
        <time>2016-01-23T14:46:21Z</time>
      </trkpt>
      <trkpt lat="43.40979" lon="6.06187">
        <ele>211.3</ele>
        <time>2016-01-23T14:46:22Z</time>
      </trkpt>
      <trkpt lat="43.40979" lon="6.06187">
        <ele>211.3</ele>
        <time>2016-01-23T14:46:23Z</time>
      </trkpt>
      <trkpt lat="43.40979" lon="6.06187">
        <ele>211.2</ele>
        <time>2016-01-23T14:46:24Z</time>
      </trkpt>
      <trkpt lat="43.40979" lon="6.06187">
        <ele>211.2</ele>
        <time>2016-01-23T14:46:25Z</time>
      </trkpt>
      <trkpt lat="43.40979" lon="6.06187">
        <ele>211.2</ele>
        <time>2016-01-23T14:46:26Z</time>
      </trkpt>
      <trkpt lat="43.40978" lon="6.06188">
        <ele>211.2</ele>
        <time>2016-01-23T14:46:27Z</time>
      </trkpt>
      <trkpt lat="43.40978" lon="6.06188">
        <ele>211.2</ele>
        <time>2016-01-23T14:46:28Z</time>
      </trkpt>
      <trkpt lat="43.40978" lon="6.06188">
        <ele>211.2</ele>
        <time>2016-01-23T14:46:29Z</time>
      </trkpt>
      <trkpt lat="43.40978" lon="6.06187">
        <ele>211.2</ele>
        <time>2016-01-23T14:46:30Z</time>
      </trkpt>
      <trkpt lat="43.40978" lon="6.06187">
        <ele>211.2</ele>
        <time>2016-01-23T14:46:31Z</time>
      </trkpt>
      <trkpt lat="43.40978" lon="6.06187">
        <ele>211.2</ele>
        <time>2016-01-23T14:46:32Z</time>
      </trkpt>
      <trkpt lat="43.40978" lon="6.06187">
        <ele>211.2</ele>
        <time>2016-01-23T14:46:33Z</time>
      </trkpt>
      <trkpt lat="43.40978" lon="6.06187">
        <ele>211.2</ele>
        <time>2016-01-23T14:46:34Z</time>
      </trkpt>
      <trkpt lat="43.40978" lon="6.06188">
        <ele>211.2</ele>
        <time>2016-01-23T14:46:35Z</time>
      </trkpt>
      <trkpt lat="43.40978" lon="6.06188">
        <ele>211.2</ele>
        <time>2016-01-23T14:46:36Z</time>
      </trkpt>
      <trkpt lat="43.40978" lon="6.06188">
        <ele>211.2</ele>
        <time>2016-01-23T14:46:37Z</time>
      </trkpt>
      <trkpt lat="43.40977" lon="6.06187">
        <ele>211.2</ele>
        <time>2016-01-23T14:46:38Z</time>
      </trkpt>
      <trkpt lat="43.40977" lon="6.06187">
        <ele>211.2</ele>
        <time>2016-01-23T14:46:39Z</time>
      </trkpt>
      <trkpt lat="43.40977" lon="6.06187">
        <ele>211.2</ele>
        <time>2016-01-23T14:46:40Z</time>
      </trkpt>
      <trkpt lat="43.40977" lon="6.06187">
        <ele>211.2</ele>
        <time>2016-01-23T14:46:41Z</time>
      </trkpt>
      <trkpt lat="43.40977" lon="6.06187">
        <ele>211.2</ele>
        <time>2016-01-23T14:46:42Z</time>
      </trkpt>
      <trkpt lat="43.40977" lon="6.06187">
        <ele>211.2</ele>
        <time>2016-01-23T14:46:43Z</time>
      </trkpt>
      <trkpt lat="43.40977" lon="6.06187">
        <ele>211.2</ele>
        <time>2016-01-23T14:46:44Z</time>
      </trkpt>
      <trkpt lat="43.40977" lon="6.06187">
        <ele>211.2</ele>
        <time>2016-01-23T14:46:45Z</time>
      </trkpt>
      <trkpt lat="43.40977" lon="6.06187">
        <ele>211.2</ele>
        <time>2016-01-23T14:46:46Z</time>
      </trkpt>
      <trkpt lat="43.40977" lon="6.06187">
        <ele>211.2</ele>
        <time>2016-01-23T14:46:47Z</time>
      </trkpt>
      <trkpt lat="43.40977" lon="6.06187">
        <ele>211.2</ele>
        <time>2016-01-23T14:46:48Z</time>
      </trkpt>
      <trkpt lat="43.40977" lon="6.06187">
        <ele>211.2</ele>
        <time>2016-01-23T14:46:49Z</time>
      </trkpt>
      <trkpt lat="43.40977" lon="6.06187">
        <ele>211.2</ele>
        <time>2016-01-23T14:46:50Z</time>
      </trkpt>
      <trkpt lat="43.40977" lon="6.06187">
        <ele>211.2</ele>
        <time>2016-01-23T14:46:51Z</time>
      </trkpt>
      <trkpt lat="43.40977" lon="6.06187">
        <ele>211.2</ele>
        <time>2016-01-23T14:46:52Z</time>
      </trkpt>
      <trkpt lat="43.40977" lon="6.06187">
        <ele>211.2</ele>
        <time>2016-01-23T14:46:53Z</time>
      </trkpt>
      <trkpt lat="43.40977" lon="6.06187">
        <ele>211.2</ele>
        <time>2016-01-23T14:46:54Z</time>
      </trkpt>
      <trkpt lat="43.40976" lon="6.06187">
        <ele>211.1</ele>
        <time>2016-01-23T14:46:55Z</time>
      </trkpt>
      <trkpt lat="43.40976" lon="6.06187">
        <ele>211.1</ele>
        <time>2016-01-23T14:46:56Z</time>
      </trkpt>
      <trkpt lat="43.40976" lon="6.06187">
        <ele>211.1</ele>
        <time>2016-01-23T14:46:57Z</time>
      </trkpt>
      <trkpt lat="43.40976" lon="6.06187">
        <ele>211.1</ele>
        <time>2016-01-23T14:46:58Z</time>
      </trkpt>
      <trkpt lat="43.40976" lon="6.06187">
        <ele>211.1</ele>
        <time>2016-01-23T14:46:59Z</time>
      </trkpt>
      <trkpt lat="43.40976" lon="6.06187">
        <ele>211.1</ele>
        <time>2016-01-23T14:47:00Z</time>
      </trkpt>
      <trkpt lat="43.40976" lon="6.06187">
        <ele>211.1</ele>
        <time>2016-01-23T14:47:01Z</time>
      </trkpt>
      <trkpt lat="43.40976" lon="6.06187">
        <ele>211.1</ele>
        <time>2016-01-23T14:47:02Z</time>
      </trkpt>
      <trkpt lat="43.40976" lon="6.06187">
        <ele>211.1</ele>
        <time>2016-01-23T14:47:03Z</time>
      </trkpt>
      <trkpt lat="43.40976" lon="6.06187">
        <ele>211.1</ele>
        <time>2016-01-23T14:47:04Z</time>
      </trkpt>
      <trkpt lat="43.40976" lon="6.06187">
        <ele>211.1</ele>
        <time>2016-01-23T14:47:05Z</time>
      </trkpt>
      <trkpt lat="43.40976" lon="6.06187">
        <ele>211.1</ele>
        <time>2016-01-23T14:47:06Z</time>
      </trkpt>
      <trkpt lat="43.40976" lon="6.06187">
        <ele>211.1</ele>
        <time>2016-01-23T14:47:07Z</time>
      </trkpt>
      <trkpt lat="43.40976" lon="6.06187">
        <ele>211.1</ele>
        <time>2016-01-23T14:47:08Z</time>
      </trkpt>
      <trkpt lat="43.40976" lon="6.06187">
        <ele>211.1</ele>
        <time>2016-01-23T14:47:09Z</time>
      </trkpt>
      <trkpt lat="43.40976" lon="6.06188">
        <ele>211.1</ele>
        <time>2016-01-23T14:47:10Z</time>
      </trkpt>
      <trkpt lat="43.40976" lon="6.06188">
        <ele>211.1</ele>
        <time>2016-01-23T14:47:11Z</time>
      </trkpt>
      <trkpt lat="43.40976" lon="6.06188">
        <ele>211.1</ele>
        <time>2016-01-23T14:47:12Z</time>
      </trkpt>
      <trkpt lat="43.40976" lon="6.06188">
        <ele>211.1</ele>
        <time>2016-01-23T14:47:13Z</time>
      </trkpt>
      <trkpt lat="43.40977" lon="6.06186">
        <ele>211.2</ele>
        <time>2016-01-23T14:50:46Z</time>
      </trkpt>
      <trkpt lat="43.40977" lon="6.06186">
        <ele>211.2</ele>
        <time>2016-01-23T14:50:47Z</time>
      </trkpt>
      <trkpt lat="43.40977" lon="6.06186">
        <ele>211.2</ele>
        <time>2016-01-23T14:50:48Z</time>
      </trkpt>
      <trkpt lat="43.40976" lon="6.06186">
        <ele>211.1</ele>
        <time>2016-01-23T14:50:49Z</time>
      </trkpt>
      <trkpt lat="43.40976" lon="6.06186">
        <ele>211.1</ele>
        <time>2016-01-23T14:50:50Z</time>
      </trkpt>
      <trkpt lat="43.40976" lon="6.06186">
        <ele>211.1</ele>
        <time>2016-01-23T14:50:51Z</time>
      </trkpt>
      <trkpt lat="43.40976" lon="6.06186">
        <ele>211.1</ele>
        <time>2016-01-23T14:50:52Z</time>
      </trkpt>
      <trkpt lat="43.40976" lon="6.06186">
        <ele>211.1</ele>
        <time>2016-01-23T14:50:53Z</time>
      </trkpt>
      <trkpt lat="43.40976" lon="6.06186">
        <ele>211.1</ele>
        <time>2016-01-23T14:50:54Z</time>
      </trkpt>
      <trkpt lat="43.40976" lon="6.06186">
        <ele>211.1</ele>
        <time>2016-01-23T14:50:55Z</time>
      </trkpt>
      <trkpt lat="43.40976" lon="6.06186">
        <ele>211.1</ele>
        <time>2016-01-23T14:50:56Z</time>
      </trkpt>
      <trkpt lat="43.40976" lon="6.06186">
        <ele>211.1</ele>
        <time>2016-01-23T14:50:57Z</time>
      </trkpt>
      <trkpt lat="43.40976" lon="6.06186">
        <ele>211.1</ele>
        <time>2016-01-23T14:50:58Z</time>
      </trkpt>
      <trkpt lat="43.40976" lon="6.06186">
        <ele>211.1</ele>
        <time>2016-01-23T14:50:59Z</time>
      </trkpt>
      <trkpt lat="43.40976" lon="6.06186">
        <ele>211.1</ele>
        <time>2016-01-23T14:51:00Z</time>
      </trkpt>
      <trkpt lat="43.40976" lon="6.06186">
        <ele>211.1</ele>
        <time>2016-01-23T14:51:01Z</time>
      </trkpt>
      <trkpt lat="43.40976" lon="6.06185">
        <ele>211.1</ele>
        <time>2016-01-23T14:51:02Z</time>
      </trkpt>
      <trkpt lat="43.40976" lon="6.06185">
        <ele>211.1</ele>
        <time>2016-01-23T14:51:03Z</time>
      </trkpt>
      <trkpt lat="43.40976" lon="6.06185">
        <ele>211.1</ele>
        <time>2016-01-23T14:51:04Z</time>
      </trkpt>
      <trkpt lat="43.40976" lon="6.06185">
        <ele>211.1</ele>
        <time>2016-01-23T14:51:05Z</time>
      </trkpt>
      <trkpt lat="43.40976" lon="6.06185">
        <ele>211.1</ele>
        <time>2016-01-23T14:51:06Z</time>
      </trkpt>
      <trkpt lat="43.40976" lon="6.06185">
        <ele>211.1</ele>
        <time>2016-01-23T14:51:07Z</time>
      </trkpt>
      <trkpt lat="43.40976" lon="6.06185">
        <ele>211.1</ele>
        <time>2016-01-23T14:51:08Z</time>
      </trkpt>
      <trkpt lat="43.40976" lon="6.06185">
        <ele>211.1</ele>
        <time>2016-01-23T14:51:09Z</time>
      </trkpt>
      <trkpt lat="43.40976" lon="6.06185">
        <ele>211.1</ele>
        <time>2016-01-23T14:51:10Z</time>
      </trkpt>
      <trkpt lat="43.40976" lon="6.06185">
        <ele>211.1</ele>
        <time>2016-01-23T14:51:11Z</time>
      </trkpt>
      <trkpt lat="43.40976" lon="6.06185">
        <ele>211.1</ele>
        <time>2016-01-23T14:51:12Z</time>
      </trkpt>
      <trkpt lat="43.40976" lon="6.06185">
        <ele>211.1</ele>
        <time>2016-01-23T14:51:13Z</time>
      </trkpt>
      <trkpt lat="43.40976" lon="6.06185">
        <ele>211.1</ele>
        <time>2016-01-23T14:51:14Z</time>
      </trkpt>
      <trkpt lat="43.40976" lon="6.06185">
        <ele>211.1</ele>
        <time>2016-01-23T14:51:15Z</time>
      </trkpt>
      <trkpt lat="43.40976" lon="6.06185">
        <ele>211.1</ele>
        <time>2016-01-23T14:51:16Z</time>
      </trkpt>
      <trkpt lat="43.40976" lon="6.06185">
        <ele>211.1</ele>
        <time>2016-01-23T14:51:17Z</time>
      </trkpt>
      <trkpt lat="43.40976" lon="6.06185">
        <ele>211.1</ele>
        <time>2016-01-23T14:51:18Z</time>
      </trkpt>
      <trkpt lat="43.40976" lon="6.06185">
        <ele>211.1</ele>
        <time>2016-01-23T14:51:19Z</time>
      </trkpt>
      <trkpt lat="43.40976" lon="6.06185">
        <ele>211.1</ele>
        <time>2016-01-23T14:51:20Z</time>
      </trkpt>
      <trkpt lat="43.40976" lon="6.06185">
        <ele>211.1</ele>
        <time>2016-01-23T14:51:21Z</time>
      </trkpt>
      <trkpt lat="43.40976" lon="6.06185">
        <ele>211.1</ele>
        <time>2016-01-23T14:51:22Z</time>
      </trkpt>
      <trkpt lat="43.40975" lon="6.06185">
        <ele>211.1</ele>
        <time>2016-01-23T14:51:23Z</time>
      </trkpt>
      <trkpt lat="43.40975" lon="6.06185">
        <ele>211.1</ele>
        <time>2016-01-23T14:51:24Z</time>
      </trkpt>
      <trkpt lat="43.40975" lon="6.06185">
        <ele>211.1</ele>
        <time>2016-01-23T14:51:25Z</time>
      </trkpt>
      <trkpt lat="43.40975" lon="6.06185">
        <ele>211.1</ele>
        <time>2016-01-23T14:51:26Z</time>
      </trkpt>
      <trkpt lat="43.40975" lon="6.06185">
        <ele>211.1</ele>
        <time>2016-01-23T14:51:27Z</time>
      </trkpt>
      <trkpt lat="43.40975" lon="6.06185">
        <ele>211.1</ele>
        <time>2016-01-23T14:51:28Z</time>
      </trkpt>
      <trkpt lat="43.40973" lon="6.06182">
        <ele>211</ele>
        <time>2016-01-23T14:51:29Z</time>
      </trkpt>
      <trkpt lat="43.40972" lon="6.06179">
        <ele>211</ele>
        <time>2016-01-23T14:51:30Z</time>
      </trkpt>
      <trkpt lat="43.40969" lon="6.06175">
        <ele>211</ele>
        <time>2016-01-23T14:51:31Z</time>
      </trkpt>
      <trkpt lat="43.40968" lon="6.06171">
        <ele>211</ele>
        <time>2016-01-23T14:51:32Z</time>
      </trkpt>
      <trkpt lat="43.40966" lon="6.06167">
        <ele>211</ele>
        <time>2016-01-23T14:51:33Z</time>
      </trkpt>
      <trkpt lat="43.40966" lon="6.06164">
        <ele>211</ele>
        <time>2016-01-23T14:51:34Z</time>
      </trkpt>
      <trkpt lat="43.40963" lon="6.06162">
        <ele>210.9</ele>
        <time>2016-01-23T14:51:35Z</time>
      </trkpt>
      <trkpt lat="43.4096" lon="6.06161">
        <ele>210.9</ele>
        <time>2016-01-23T14:51:36Z</time>
      </trkpt>
      <trkpt lat="43.40957" lon="6.06161">
        <ele>210.9</ele>
        <time>2016-01-23T14:51:37Z</time>
      </trkpt>
      <trkpt lat="43.40953" lon="6.06162">
        <ele>210.9</ele>
        <time>2016-01-23T14:51:38Z</time>
      </trkpt>
      <trkpt lat="43.40949" lon="6.06163">
        <ele>210.9</ele>
        <time>2016-01-23T14:51:39Z</time>
      </trkpt>
      <trkpt lat="43.40944" lon="6.06163">
        <ele>210.9</ele>
        <time>2016-01-23T14:51:40Z</time>
      </trkpt>
      <trkpt lat="43.40939" lon="6.06162">
        <ele>210.9</ele>
        <time>2016-01-23T14:51:41Z</time>
      </trkpt>
      <trkpt lat="43.40933" lon="6.06161">
        <ele>210.9</ele>
        <time>2016-01-23T14:51:42Z</time>
      </trkpt>
      <trkpt lat="43.40928" lon="6.06161">
        <ele>210.9</ele>
        <time>2016-01-23T14:51:43Z</time>
      </trkpt>
      <trkpt lat="43.40924" lon="6.0616">
        <ele>210.9</ele>
        <time>2016-01-23T14:51:44Z</time>
      </trkpt>
      <trkpt lat="43.40919" lon="6.06158">
        <ele>211</ele>
        <time>2016-01-23T14:51:45Z</time>
      </trkpt>
      <trkpt lat="43.40915" lon="6.06154">
        <ele>210.9</ele>
        <time>2016-01-23T14:51:46Z</time>
      </trkpt>
      <trkpt lat="43.4091" lon="6.06146">
        <ele>210.9</ele>
        <time>2016-01-23T14:51:47Z</time>
      </trkpt>
      <trkpt lat="43.40904" lon="6.06135">
        <ele>211</ele>
        <time>2016-01-23T14:51:48Z</time>
      </trkpt>
      <trkpt lat="43.40899" lon="6.06123">
        <ele>211</ele>
        <time>2016-01-23T14:51:49Z</time>
      </trkpt>
      <trkpt lat="43.40893" lon="6.06109">
        <ele>211</ele>
        <time>2016-01-23T14:51:50Z</time>
      </trkpt>
      <trkpt lat="43.40888" lon="6.06096">
        <ele>210.9</ele>
        <time>2016-01-23T14:51:51Z</time>
      </trkpt>
      <trkpt lat="43.40882" lon="6.06082">
        <ele>210.3</ele>
        <time>2016-01-23T14:51:52Z</time>
      </trkpt>
      <trkpt lat="43.40877" lon="6.0607">
        <ele>210.1</ele>
        <time>2016-01-23T14:51:53Z</time>
      </trkpt>
      <trkpt lat="43.40872" lon="6.0606">
        <ele>210.2</ele>
        <time>2016-01-23T14:51:54Z</time>
      </trkpt>
      <trkpt lat="43.40869" lon="6.06051">
        <ele>210.4</ele>
        <time>2016-01-23T14:51:55Z</time>
      </trkpt>
      <trkpt lat="43.40866" lon="6.06044">
        <ele>210.5</ele>
        <time>2016-01-23T14:51:56Z</time>
      </trkpt>
      <trkpt lat="43.40864" lon="6.06038">
        <ele>210.7</ele>
        <time>2016-01-23T14:51:57Z</time>
      </trkpt>
      <trkpt lat="43.40862" lon="6.06033">
        <ele>210.8</ele>
        <time>2016-01-23T14:51:58Z</time>
      </trkpt>
      <trkpt lat="43.40861" lon="6.06028">
        <ele>210.9</ele>
        <time>2016-01-23T14:51:59Z</time>
      </trkpt>
      <trkpt lat="43.4086" lon="6.06025">
        <ele>210.9</ele>
        <time>2016-01-23T14:52:00Z</time>
      </trkpt>
      <trkpt lat="43.40859" lon="6.06021">
        <ele>210.8</ele>
        <time>2016-01-23T14:52:01Z</time>
      </trkpt>
      <trkpt lat="43.40858" lon="6.06019">
        <ele>210.8</ele>
        <time>2016-01-23T14:52:02Z</time>
      </trkpt>
      <trkpt lat="43.40858" lon="6.06017">
        <ele>210.7</ele>
        <time>2016-01-23T14:52:03Z</time>
      </trkpt>
      <trkpt lat="43.40858" lon="6.06016">
        <ele>210.7</ele>
        <time>2016-01-23T14:52:04Z</time>
      </trkpt>
      <trkpt lat="43.40857" lon="6.06016">
        <ele>210.7</ele>
        <time>2016-01-23T14:52:05Z</time>
      </trkpt>
      <trkpt lat="43.40857" lon="6.06016">
        <ele>210.6</ele>
        <time>2016-01-23T14:52:06Z</time>
      </trkpt>
      <trkpt lat="43.40857" lon="6.06017">
        <ele>210.7</ele>
        <time>2016-01-23T14:52:07Z</time>
      </trkpt>
      <trkpt lat="43.40858" lon="6.06017">
        <ele>210.7</ele>
        <time>2016-01-23T14:52:08Z</time>
      </trkpt>
      <trkpt lat="43.40858" lon="6.06017">
        <ele>210.7</ele>
        <time>2016-01-23T14:52:09Z</time>
      </trkpt>
      <trkpt lat="43.40858" lon="6.06017">
        <ele>210.7</ele>
        <time>2016-01-23T14:52:10Z</time>
      </trkpt>
      <trkpt lat="43.40858" lon="6.06017">
        <ele>210.7</ele>
        <time>2016-01-23T14:52:11Z</time>
      </trkpt>
      <trkpt lat="43.40858" lon="6.06017">
        <ele>210.7</ele>
        <time>2016-01-23T14:52:12Z</time>
      </trkpt>
      <trkpt lat="43.40858" lon="6.06017">
        <ele>210.7</ele>
        <time>2016-01-23T14:52:13Z</time>
      </trkpt>
      <trkpt lat="43.40858" lon="6.06017">
        <ele>210.7</ele>
        <time>2016-01-23T14:52:14Z</time>
      </trkpt>
      <trkpt lat="43.40858" lon="6.06018">
        <ele>210.7</ele>
        <time>2016-01-23T14:52:15Z</time>
      </trkpt>
      <trkpt lat="43.40858" lon="6.06017">
        <ele>210.7</ele>
        <time>2016-01-23T14:52:16Z</time>
      </trkpt>
      <trkpt lat="43.40857" lon="6.06013">
        <ele>210.6</ele>
        <time>2016-01-23T14:52:17Z</time>
      </trkpt>
      <trkpt lat="43.40855" lon="6.06007">
        <ele>210.4</ele>
        <time>2016-01-23T14:52:18Z</time>
      </trkpt>
      <trkpt lat="43.40852" lon="6.05999">
        <ele>210.1</ele>
        <time>2016-01-23T14:52:19Z</time>
      </trkpt>
      <trkpt lat="43.4085" lon="6.05989">
        <ele>210.3</ele>
        <time>2016-01-23T14:52:20Z</time>
      </trkpt>
      <trkpt lat="43.40847" lon="6.05977">
        <ele>210.7</ele>
        <time>2016-01-23T14:52:21Z</time>
      </trkpt>
      <trkpt lat="43.40843" lon="6.05964">
        <ele>211</ele>
        <time>2016-01-23T14:52:22Z</time>
      </trkpt>
      <trkpt lat="43.4084" lon="6.05951">
        <ele>211</ele>
        <time>2016-01-23T14:52:23Z</time>
      </trkpt>
      <trkpt lat="43.40836" lon="6.05936">
        <ele>211</ele>
        <time>2016-01-23T14:52:24Z</time>
      </trkpt>
      <trkpt lat="43.40832" lon="6.0592">
        <ele>210.9</ele>
        <time>2016-01-23T14:52:25Z</time>
      </trkpt>
      <trkpt lat="43.40827" lon="6.05902">
        <ele>210.8</ele>
        <time>2016-01-23T14:52:26Z</time>
      </trkpt>
      <trkpt lat="43.40822" lon="6.05884">
        <ele>210.7</ele>
        <time>2016-01-23T14:52:27Z</time>
      </trkpt>
      <trkpt lat="43.40819" lon="6.05865">
        <ele>210.9</ele>
        <time>2016-01-23T14:52:28Z</time>
      </trkpt>
      <trkpt lat="43.40816" lon="6.05845">
        <ele>210.6</ele>
        <time>2016-01-23T14:52:29Z</time>
      </trkpt>
      <trkpt lat="43.40813" lon="6.05824">
        <ele>210.3</ele>
        <time>2016-01-23T14:52:30Z</time>
      </trkpt>
      <trkpt lat="43.40811" lon="6.05803">
        <ele>210.2</ele>
        <time>2016-01-23T14:52:31Z</time>
      </trkpt>
      <trkpt lat="43.40809" lon="6.05782">
        <ele>210.1</ele>
        <time>2016-01-23T14:52:32Z</time>
      </trkpt>
      <trkpt lat="43.40809" lon="6.0576">
        <ele>210.1</ele>
        <time>2016-01-23T14:52:33Z</time>
      </trkpt>
      <trkpt lat="43.40809" lon="6.05738">
        <ele>210.5</ele>
        <time>2016-01-23T14:52:34Z</time>
      </trkpt>
      <trkpt lat="43.4081" lon="6.05717">
        <ele>210.9</ele>
        <time>2016-01-23T14:52:35Z</time>
      </trkpt>
      <trkpt lat="43.4081" lon="6.05696">
        <ele>210.4</ele>
        <time>2016-01-23T14:52:36Z</time>
      </trkpt>
      <trkpt lat="43.40811" lon="6.05674">
        <ele>210.4</ele>
        <time>2016-01-23T14:52:37Z</time>
      </trkpt>
      <trkpt lat="43.40812" lon="6.05653">
        <ele>210.4</ele>
        <time>2016-01-23T14:52:38Z</time>
      </trkpt>
      <trkpt lat="43.40812" lon="6.05633">
        <ele>210.8</ele>
        <time>2016-01-23T14:52:39Z</time>
      </trkpt>
      <trkpt lat="43.40812" lon="6.05613">
        <ele>211.9</ele>
        <time>2016-01-23T14:52:40Z</time>
      </trkpt>
      <trkpt lat="43.40813" lon="6.05594">
        <ele>212.5</ele>
        <time>2016-01-23T14:52:41Z</time>
      </trkpt>
      <trkpt lat="43.40813" lon="6.05576">
        <ele>212.8</ele>
        <time>2016-01-23T14:52:42Z</time>
      </trkpt>
      <trkpt lat="43.40813" lon="6.05559">
        <ele>213</ele>
        <time>2016-01-23T14:52:43Z</time>
      </trkpt>
      <trkpt lat="43.40812" lon="6.05543">
        <ele>213.3</ele>
        <time>2016-01-23T14:52:44Z</time>
      </trkpt>
      <trkpt lat="43.4081" lon="6.05529">
        <ele>213.8</ele>
        <time>2016-01-23T14:52:45Z</time>
      </trkpt>
      <trkpt lat="43.40806" lon="6.05514">
        <ele>214</ele>
        <time>2016-01-23T14:52:46Z</time>
      </trkpt>
      <trkpt lat="43.40802" lon="6.055">
        <ele>213.7</ele>
        <time>2016-01-23T14:52:47Z</time>
      </trkpt>
      <trkpt lat="43.40796" lon="6.05487">
        <ele>213.1</ele>
        <time>2016-01-23T14:52:48Z</time>
      </trkpt>
      <trkpt lat="43.40789" lon="6.05472">
        <ele>213</ele>
        <time>2016-01-23T14:52:49Z</time>
      </trkpt>
      <trkpt lat="43.40782" lon="6.05458">
        <ele>212.9</ele>
        <time>2016-01-23T14:52:50Z</time>
      </trkpt>
      <trkpt lat="43.40774" lon="6.05444">
        <ele>212.6</ele>
        <time>2016-01-23T14:52:51Z</time>
      </trkpt>
      <trkpt lat="43.40767" lon="6.05431">
        <ele>212.4</ele>
        <time>2016-01-23T14:52:52Z</time>
      </trkpt>
      <trkpt lat="43.4076" lon="6.0542">
        <ele>212.8</ele>
        <time>2016-01-23T14:52:53Z</time>
      </trkpt>
      <trkpt lat="43.40753" lon="6.05409">
        <ele>213</ele>
        <time>2016-01-23T14:52:54Z</time>
      </trkpt>
      <trkpt lat="43.40748" lon="6.05399">
        <ele>213</ele>
        <time>2016-01-23T14:52:55Z</time>
      </trkpt>
      <trkpt lat="43.40743" lon="6.0539">
        <ele>213.2</ele>
        <time>2016-01-23T14:52:56Z</time>
      </trkpt>
      <trkpt lat="43.40739" lon="6.05379">
        <ele>213.3</ele>
        <time>2016-01-23T14:52:57Z</time>
      </trkpt>
      <trkpt lat="43.40736" lon="6.05369">
        <ele>213.1</ele>
        <time>2016-01-23T14:52:58Z</time>
      </trkpt>
      <trkpt lat="43.40734" lon="6.05357">
        <ele>213</ele>
        <time>2016-01-23T14:52:59Z</time>
      </trkpt>
      <trkpt lat="43.40736" lon="6.05342">
        <ele>213</ele>
        <time>2016-01-23T14:53:00Z</time>
      </trkpt>
      <trkpt lat="43.4074" lon="6.05327">
        <ele>212.9</ele>
        <time>2016-01-23T14:53:01Z</time>
      </trkpt>
      <trkpt lat="43.40744" lon="6.05313">
        <ele>212.8</ele>
        <time>2016-01-23T14:53:02Z</time>
      </trkpt>
      <trkpt lat="43.40748" lon="6.05299">
        <ele>212.9</ele>
        <time>2016-01-23T14:53:03Z</time>
      </trkpt>
      <trkpt lat="43.40752" lon="6.05285">
        <ele>213</ele>
        <time>2016-01-23T14:53:04Z</time>
      </trkpt>
      <trkpt lat="43.40756" lon="6.05272">
        <ele>213</ele>
        <time>2016-01-23T14:53:05Z</time>
      </trkpt>
      <trkpt lat="43.40759" lon="6.0526">
        <ele>213</ele>
        <time>2016-01-23T14:53:06Z</time>
      </trkpt>
      <trkpt lat="43.40761" lon="6.05248">
        <ele>213</ele>
        <time>2016-01-23T14:53:07Z</time>
      </trkpt>
      <trkpt lat="43.40763" lon="6.05238">
        <ele>213</ele>
        <time>2016-01-23T14:53:08Z</time>
      </trkpt>
      <trkpt lat="43.40764" lon="6.05227">
        <ele>213</ele>
        <time>2016-01-23T14:53:09Z</time>
      </trkpt>
      <trkpt lat="43.40766" lon="6.05215">
        <ele>213</ele>
        <time>2016-01-23T14:53:10Z</time>
      </trkpt>
      <trkpt lat="43.40768" lon="6.05205">
        <ele>213</ele>
        <time>2016-01-23T14:53:11Z</time>
      </trkpt>
      <trkpt lat="43.4077" lon="6.05194">
        <ele>213</ele>
        <time>2016-01-23T14:53:12Z</time>
      </trkpt>
      <trkpt lat="43.40772" lon="6.05183">
        <ele>213</ele>
        <time>2016-01-23T14:53:13Z</time>
      </trkpt>
      <trkpt lat="43.40773" lon="6.05171">
        <ele>213</ele>
        <time>2016-01-23T14:53:14Z</time>
      </trkpt>
      <trkpt lat="43.40774" lon="6.05158">
        <ele>213</ele>
        <time>2016-01-23T14:53:15Z</time>
      </trkpt>
      <trkpt lat="43.40776" lon="6.05146">
        <ele>213</ele>
        <time>2016-01-23T14:53:16Z</time>
      </trkpt>
      <trkpt lat="43.40778" lon="6.05134">
        <ele>213</ele>
        <time>2016-01-23T14:53:17Z</time>
      </trkpt>
      <trkpt lat="43.40779" lon="6.05122">
        <ele>213</ele>
        <time>2016-01-23T14:53:18Z</time>
      </trkpt>
      <trkpt lat="43.4078" lon="6.0511">
        <ele>213.1</ele>
        <time>2016-01-23T14:53:19Z</time>
      </trkpt>
      <trkpt lat="43.40781" lon="6.05099">
        <ele>213.1</ele>
        <time>2016-01-23T14:53:20Z</time>
      </trkpt>
      <trkpt lat="43.40783" lon="6.05087">
        <ele>213.2</ele>
        <time>2016-01-23T14:53:21Z</time>
      </trkpt>
      <trkpt lat="43.40784" lon="6.05076">
        <ele>213.4</ele>
        <time>2016-01-23T14:53:22Z</time>
      </trkpt>
      <trkpt lat="43.40785" lon="6.05064">
        <ele>213.8</ele>
        <time>2016-01-23T14:53:23Z</time>
      </trkpt>
      <trkpt lat="43.40786" lon="6.05054">
        <ele>214</ele>
        <time>2016-01-23T14:53:24Z</time>
      </trkpt>
      <trkpt lat="43.40788" lon="6.05045">
        <ele>214</ele>
        <time>2016-01-23T14:53:25Z</time>
      </trkpt>
      <trkpt lat="43.40789" lon="6.05036">
        <ele>214</ele>
        <time>2016-01-23T14:53:26Z</time>
      </trkpt>
      <trkpt lat="43.40791" lon="6.05028">
        <ele>214</ele>
        <time>2016-01-23T14:53:27Z</time>
      </trkpt>
      <trkpt lat="43.40792" lon="6.05021">
        <ele>214</ele>
        <time>2016-01-23T14:53:28Z</time>
      </trkpt>
      <trkpt lat="43.40794" lon="6.05014">
        <ele>214</ele>
        <time>2016-01-23T14:53:29Z</time>
      </trkpt>
      <trkpt lat="43.40795" lon="6.05009">
        <ele>214</ele>
        <time>2016-01-23T14:53:30Z</time>
      </trkpt>
      <trkpt lat="43.40796" lon="6.05004">
        <ele>214</ele>
        <time>2016-01-23T14:53:31Z</time>
      </trkpt>
      <trkpt lat="43.40797" lon="6.05">
        <ele>214</ele>
        <time>2016-01-23T14:53:32Z</time>
      </trkpt>
      <trkpt lat="43.40798" lon="6.04997">
        <ele>214.1</ele>
        <time>2016-01-23T14:53:33Z</time>
      </trkpt>
      <trkpt lat="43.40799" lon="6.04994">
        <ele>214.2</ele>
        <time>2016-01-23T14:53:34Z</time>
      </trkpt>
      <trkpt lat="43.408" lon="6.04991">
        <ele>214.3</ele>
        <time>2016-01-23T14:53:35Z</time>
      </trkpt>
      <trkpt lat="43.40802" lon="6.04988">
        <ele>214.4</ele>
        <time>2016-01-23T14:53:36Z</time>
      </trkpt>
      <trkpt lat="43.40804" lon="6.04983">
        <ele>214.6</ele>
        <time>2016-01-23T14:53:37Z</time>
      </trkpt>
      <trkpt lat="43.40808" lon="6.04977">
        <ele>214.7</ele>
        <time>2016-01-23T14:53:38Z</time>
      </trkpt>
      <trkpt lat="43.40812" lon="6.04971">
        <ele>214.8</ele>
        <time>2016-01-23T14:53:39Z</time>
      </trkpt>
      <trkpt lat="43.40815" lon="6.04963">
        <ele>214.8</ele>
        <time>2016-01-23T14:53:40Z</time>
      </trkpt>
      <trkpt lat="43.40817" lon="6.04956">
        <ele>214.8</ele>
        <time>2016-01-23T14:53:41Z</time>
      </trkpt>
      <trkpt lat="43.40816" lon="6.04949">
        <ele>214.9</ele>
        <time>2016-01-23T14:53:42Z</time>
      </trkpt>
      <trkpt lat="43.40814" lon="6.04941">
        <ele>215</ele>
        <time>2016-01-23T14:53:43Z</time>
      </trkpt>
      <trkpt lat="43.4081" lon="6.04935">
        <ele>215</ele>
        <time>2016-01-23T14:53:44Z</time>
      </trkpt>
      <trkpt lat="43.40805" lon="6.04929">
        <ele>215</ele>
        <time>2016-01-23T14:53:45Z</time>
      </trkpt>
      <trkpt lat="43.40796" lon="6.04927">
        <ele>214.8</ele>
        <time>2016-01-23T14:53:46Z</time>
      </trkpt>
      <trkpt lat="43.40788" lon="6.04929">
        <ele>214.6</ele>
        <time>2016-01-23T14:53:47Z</time>
      </trkpt>
      <trkpt lat="43.4078" lon="6.04934">
        <ele>214.6</ele>
        <time>2016-01-23T14:53:48Z</time>
      </trkpt>
      <trkpt lat="43.40772" lon="6.0494">
        <ele>214.7</ele>
        <time>2016-01-23T14:53:49Z</time>
      </trkpt>
      <trkpt lat="43.40764" lon="6.04946">
        <ele>214.5</ele>
        <time>2016-01-23T14:53:50Z</time>
      </trkpt>
      <trkpt lat="43.40756" lon="6.0495">
        <ele>214.2</ele>
        <time>2016-01-23T14:53:51Z</time>
      </trkpt>
      <trkpt lat="43.40747" lon="6.04953">
        <ele>214.1</ele>
        <time>2016-01-23T14:53:52Z</time>
      </trkpt>
      <trkpt lat="43.40737" lon="6.04954">
        <ele>214.5</ele>
        <time>2016-01-23T14:53:53Z</time>
      </trkpt>
      <trkpt lat="43.40728" lon="6.04955">
        <ele>214.8</ele>
        <time>2016-01-23T14:53:54Z</time>
      </trkpt>
      <trkpt lat="43.40718" lon="6.04955">
        <ele>214.9</ele>
        <time>2016-01-23T14:53:55Z</time>
      </trkpt>
      <trkpt lat="43.40708" lon="6.04956">
        <ele>214.8</ele>
        <time>2016-01-23T14:53:56Z</time>
      </trkpt>
      <trkpt lat="43.40699" lon="6.04957">
        <ele>214.6</ele>
        <time>2016-01-23T14:53:57Z</time>
      </trkpt>
      <trkpt lat="43.40689" lon="6.04958">
        <ele>214.5</ele>
        <time>2016-01-23T14:53:58Z</time>
      </trkpt>
      <trkpt lat="43.40679" lon="6.04959">
        <ele>214.5</ele>
        <time>2016-01-23T14:53:59Z</time>
      </trkpt>
      <trkpt lat="43.4067" lon="6.0496">
        <ele>214.5</ele>
        <time>2016-01-23T14:54:00Z</time>
      </trkpt>
      <trkpt lat="43.40662" lon="6.04961">
        <ele>214.3</ele>
        <time>2016-01-23T14:54:01Z</time>
      </trkpt>
      <trkpt lat="43.40654" lon="6.04963">
        <ele>214.2</ele>
        <time>2016-01-23T14:54:02Z</time>
      </trkpt>
      <trkpt lat="43.40647" lon="6.04965">
        <ele>214.1</ele>
        <time>2016-01-23T14:54:03Z</time>
      </trkpt>
      <trkpt lat="43.40641" lon="6.04968">
        <ele>214</ele>
        <time>2016-01-23T14:54:04Z</time>
      </trkpt>
      <trkpt lat="43.40635" lon="6.0497">
        <ele>213.9</ele>
        <time>2016-01-23T14:54:05Z</time>
      </trkpt>
      <trkpt lat="43.40631" lon="6.04973">
        <ele>213.7</ele>
        <time>2016-01-23T14:54:06Z</time>
      </trkpt>
      <trkpt lat="43.40628" lon="6.04977">
        <ele>213.6</ele>
        <time>2016-01-23T14:54:07Z</time>
      </trkpt>
      <trkpt lat="43.40626" lon="6.04983">
        <ele>213.5</ele>
        <time>2016-01-23T14:54:08Z</time>
      </trkpt>
      <trkpt lat="43.40626" lon="6.04989">
        <ele>213.5</ele>
        <time>2016-01-23T14:54:09Z</time>
      </trkpt>
      <trkpt lat="43.40627" lon="6.04995">
        <ele>213.6</ele>
        <time>2016-01-23T14:54:10Z</time>
      </trkpt>
      <trkpt lat="43.40629" lon="6.05">
        <ele>213.7</ele>
        <time>2016-01-23T14:54:11Z</time>
      </trkpt>
      <trkpt lat="43.40633" lon="6.05003">
        <ele>213.7</ele>
        <time>2016-01-23T14:54:12Z</time>
      </trkpt>
      <trkpt lat="43.40636" lon="6.05006">
        <ele>213.7</ele>
        <time>2016-01-23T14:54:13Z</time>
      </trkpt>
      <trkpt lat="43.40638" lon="6.05008">
        <ele>213.7</ele>
        <time>2016-01-23T14:54:14Z</time>
      </trkpt>
      <trkpt lat="43.40641" lon="6.05009">
        <ele>213.7</ele>
        <time>2016-01-23T14:54:15Z</time>
      </trkpt>
      <trkpt lat="43.40643" lon="6.0501">
        <ele>213.6</ele>
        <time>2016-01-23T14:54:16Z</time>
      </trkpt>
      <trkpt lat="43.40645" lon="6.0501">
        <ele>213.6</ele>
        <time>2016-01-23T14:54:17Z</time>
      </trkpt>
      <trkpt lat="43.40646" lon="6.0501">
        <ele>213.6</ele>
        <time>2016-01-23T14:54:18Z</time>
      </trkpt>
      <trkpt lat="43.40646" lon="6.05011">
        <ele>213.6</ele>
        <time>2016-01-23T14:54:19Z</time>
      </trkpt>
      <trkpt lat="43.40646" lon="6.05011">
        <ele>213.6</ele>
        <time>2016-01-23T14:54:20Z</time>
      </trkpt>
      <trkpt lat="43.40646" lon="6.05011">
        <ele>213.6</ele>
        <time>2016-01-23T14:54:21Z</time>
      </trkpt>
      <trkpt lat="43.40646" lon="6.05011">
        <ele>213.6</ele>
        <time>2016-01-23T14:54:22Z</time>
      </trkpt>
      <trkpt lat="43.40647" lon="6.05011">
        <ele>213.6</ele>
        <time>2016-01-23T14:54:23Z</time>
      </trkpt>
      <trkpt lat="43.40647" lon="6.05011">
        <ele>213.6</ele>
        <time>2016-01-23T14:54:24Z</time>
      </trkpt>
      <trkpt lat="43.40647" lon="6.05011">
        <ele>213.6</ele>
        <time>2016-01-23T14:54:25Z</time>
      </trkpt>
      <trkpt lat="43.40647" lon="6.05011">
        <ele>213.6</ele>
        <time>2016-01-23T14:54:26Z</time>
      </trkpt>
      <trkpt lat="43.40647" lon="6.05011">
        <ele>213.6</ele>
        <time>2016-01-23T14:54:27Z</time>
      </trkpt>
      <trkpt lat="43.40648" lon="6.0501">
        <ele>213.6</ele>
        <time>2016-01-23T14:54:28Z</time>
      </trkpt>
      <trkpt lat="43.40649" lon="6.05008">
        <ele>213.7</ele>
        <time>2016-01-23T14:54:29Z</time>
      </trkpt>
      <trkpt lat="43.4065" lon="6.05005">
        <ele>213.8</ele>
        <time>2016-01-23T14:54:30Z</time>
      </trkpt>
      <trkpt lat="43.40651" lon="6.05001">
        <ele>214</ele>
        <time>2016-01-23T14:54:31Z</time>
      </trkpt>
      <trkpt lat="43.40652" lon="6.04997">
        <ele>214</ele>
        <time>2016-01-23T14:54:32Z</time>
      </trkpt>
      <trkpt lat="43.40654" lon="6.04994">
        <ele>214</ele>
        <time>2016-01-23T14:54:33Z</time>
      </trkpt>
      <trkpt lat="43.40655" lon="6.0499">
        <ele>214</ele>
        <time>2016-01-23T14:54:34Z</time>
      </trkpt>
      <trkpt lat="43.40657" lon="6.04988">
        <ele>214</ele>
        <time>2016-01-23T14:54:35Z</time>
      </trkpt>
      <trkpt lat="43.40659" lon="6.04987">
        <ele>214</ele>
        <time>2016-01-23T14:54:36Z</time>
      </trkpt>
      <trkpt lat="43.40661" lon="6.04985">
        <ele>214</ele>
        <time>2016-01-23T14:54:37Z</time>
      </trkpt>
      <trkpt lat="43.40662" lon="6.04985">
        <ele>214</ele>
        <time>2016-01-23T14:54:38Z</time>
      </trkpt>
      <trkpt lat="43.40662" lon="6.04984">
        <ele>214</ele>
        <time>2016-01-23T14:54:39Z</time>
      </trkpt>
      <trkpt lat="43.40662" lon="6.04985">
        <ele>214</ele>
        <time>2016-01-23T14:54:40Z</time>
      </trkpt>
      <trkpt lat="43.40663" lon="6.04985">
        <ele>214</ele>
        <time>2016-01-23T14:54:41Z</time>
      </trkpt>
      <trkpt lat="43.40663" lon="6.04985">
        <ele>214</ele>
        <time>2016-01-23T14:54:42Z</time>
      </trkpt>
      <trkpt lat="43.40663" lon="6.04985">
        <ele>214</ele>
        <time>2016-01-23T14:54:43Z</time>
      </trkpt>
      <trkpt lat="43.40663" lon="6.04985">
        <ele>214</ele>
        <time>2016-01-23T14:54:44Z</time>
      </trkpt>
      <trkpt lat="43.40663" lon="6.04985">
        <ele>214</ele>
        <time>2016-01-23T14:54:45Z</time>
      </trkpt>
      <trkpt lat="43.40663" lon="6.04985">
        <ele>214</ele>
        <time>2016-01-23T14:54:46Z</time>
      </trkpt>
      <trkpt lat="43.40663" lon="6.04985">
        <ele>214</ele>
        <time>2016-01-23T14:54:47Z</time>
      </trkpt>
      <trkpt lat="43.40664" lon="6.04985">
        <ele>214</ele>
        <time>2016-01-23T14:54:48Z</time>
      </trkpt>
      <trkpt lat="43.40666" lon="6.04984">
        <ele>214</ele>
        <time>2016-01-23T14:54:49Z</time>
      </trkpt>
      <trkpt lat="43.40666" lon="6.04984">
        <ele>214</ele>
        <time>2016-01-23T14:54:50Z</time>
      </trkpt>
      <trkpt lat="43.40667" lon="6.04984">
        <ele>214</ele>
        <time>2016-01-23T14:54:51Z</time>
      </trkpt>
      <trkpt lat="43.40667" lon="6.04983">
        <ele>214</ele>
        <time>2016-01-23T14:54:52Z</time>
      </trkpt>
      <trkpt lat="43.40667" lon="6.04983">
        <ele>214</ele>
        <time>2016-01-23T14:54:53Z</time>
      </trkpt>
      <trkpt lat="43.40667" lon="6.04983">
        <ele>214</ele>
        <time>2016-01-23T14:54:54Z</time>
      </trkpt>
      <trkpt lat="43.40667" lon="6.04983">
        <ele>214</ele>
        <time>2016-01-23T14:54:55Z</time>
      </trkpt>
      <trkpt lat="43.40667" lon="6.04982">
        <ele>214</ele>
        <time>2016-01-23T14:54:56Z</time>
      </trkpt>
      <trkpt lat="43.40667" lon="6.04982">
        <ele>214</ele>
        <time>2016-01-23T14:54:57Z</time>
      </trkpt>
      <trkpt lat="43.40667" lon="6.04982">
        <ele>214</ele>
        <time>2016-01-23T14:54:58Z</time>
      </trkpt>
      <trkpt lat="43.40667" lon="6.04982">
        <ele>214</ele>
        <time>2016-01-23T14:54:59Z</time>
      </trkpt>
      <trkpt lat="43.40667" lon="6.04982">
        <ele>214</ele>
        <time>2016-01-23T14:55:00Z</time>
      </trkpt>
      <trkpt lat="43.40667" lon="6.04982">
        <ele>214</ele>
        <time>2016-01-23T14:55:01Z</time>
      </trkpt>
      <trkpt lat="43.40667" lon="6.04982">
        <ele>214</ele>
        <time>2016-01-23T14:55:02Z</time>
      </trkpt>
      <trkpt lat="43.40668" lon="6.04982">
        <ele>214</ele>
        <time>2016-01-23T14:55:03Z</time>
      </trkpt>
      <trkpt lat="43.40668" lon="6.04982">
        <ele>214</ele>
        <time>2016-01-23T14:55:04Z</time>
      </trkpt>
      <trkpt lat="43.40668" lon="6.04982">
        <ele>214</ele>
        <time>2016-01-23T14:55:05Z</time>
      </trkpt>
      <trkpt lat="43.40668" lon="6.04982">
        <ele>214</ele>
        <time>2016-01-23T14:55:06Z</time>
      </trkpt>
      <trkpt lat="43.40668" lon="6.04982">
        <ele>214</ele>
        <time>2016-01-23T14:55:07Z</time>
      </trkpt>
      <trkpt lat="43.40668" lon="6.04981">
        <ele>214</ele>
        <time>2016-01-23T14:55:08Z</time>
      </trkpt>
      <trkpt lat="43.40668" lon="6.04981">
        <ele>214</ele>
        <time>2016-01-23T14:55:09Z</time>
      </trkpt>
      <trkpt lat="43.40668" lon="6.04981">
        <ele>214</ele>
        <time>2016-01-23T14:55:10Z</time>
      </trkpt>
      <trkpt lat="43.40668" lon="6.04981">
        <ele>214</ele>
        <time>2016-01-23T14:55:11Z</time>
      </trkpt>
      <trkpt lat="43.40668" lon="6.04981">
        <ele>214</ele>
        <time>2016-01-23T14:55:12Z</time>
      </trkpt>
      <trkpt lat="43.40667" lon="6.04981">
        <ele>214</ele>
        <time>2016-01-23T14:55:13Z</time>
      </trkpt>
      <trkpt lat="43.40667" lon="6.0498">
        <ele>214</ele>
        <time>2016-01-23T14:55:14Z</time>
      </trkpt>
      <trkpt lat="43.40667" lon="6.0498">
        <ele>214</ele>
        <time>2016-01-23T14:55:15Z</time>
      </trkpt>
      <trkpt lat="43.40667" lon="6.0498">
        <ele>214</ele>
        <time>2016-01-23T14:55:16Z</time>
      </trkpt>
      <trkpt lat="43.40667" lon="6.0498">
        <ele>214</ele>
        <time>2016-01-23T14:55:17Z</time>
      </trkpt>
      <trkpt lat="43.40667" lon="6.0498">
        <ele>214</ele>
        <time>2016-01-23T14:55:18Z</time>
      </trkpt>
      <trkpt lat="43.40667" lon="6.0498">
        <ele>214</ele>
        <time>2016-01-23T14:55:19Z</time>
      </trkpt>
      <trkpt lat="43.40667" lon="6.0498">
        <ele>214</ele>
        <time>2016-01-23T14:55:20Z</time>
      </trkpt>
      <trkpt lat="43.40667" lon="6.0498">
        <ele>214</ele>
        <time>2016-01-23T14:55:21Z</time>
      </trkpt>
      <trkpt lat="43.40667" lon="6.0498">
        <ele>214</ele>
        <time>2016-01-23T14:55:22Z</time>
      </trkpt>
      <trkpt lat="43.40667" lon="6.0498">
        <ele>214</ele>
        <time>2016-01-23T14:55:23Z</time>
      </trkpt>
      <trkpt lat="43.40667" lon="6.0498">
        <ele>214</ele>
        <time>2016-01-23T14:55:24Z</time>
      </trkpt>
      <trkpt lat="43.40667" lon="6.0498">
        <ele>214</ele>
        <time>2016-01-23T14:55:25Z</time>
      </trkpt>
      <trkpt lat="43.40667" lon="6.0498">
        <ele>214</ele>
        <time>2016-01-23T14:55:26Z</time>
      </trkpt>
      <trkpt lat="43.40667" lon="6.0498">
        <ele>214</ele>
        <time>2016-01-23T14:55:27Z</time>
      </trkpt>
      <trkpt lat="43.40666" lon="6.0498">
        <ele>214</ele>
        <time>2016-01-23T14:55:28Z</time>
      </trkpt>
      <trkpt lat="43.40666" lon="6.0498">
        <ele>214</ele>
        <time>2016-01-23T14:55:29Z</time>
      </trkpt>
      <trkpt lat="43.40666" lon="6.04979">
        <ele>214</ele>
        <time>2016-01-23T14:55:30Z</time>
      </trkpt>
      <trkpt lat="43.40666" lon="6.04979">
        <ele>214</ele>
        <time>2016-01-23T14:55:31Z</time>
      </trkpt>
      <trkpt lat="43.40666" lon="6.04979">
        <ele>214</ele>
        <time>2016-01-23T14:55:32Z</time>
      </trkpt>
      <trkpt lat="43.40666" lon="6.04979">
        <ele>214</ele>
        <time>2016-01-23T14:55:33Z</time>
      </trkpt>
      <trkpt lat="43.40666" lon="6.04979">
        <ele>214</ele>
        <time>2016-01-23T14:55:34Z</time>
      </trkpt>
      <trkpt lat="43.40666" lon="6.04979">
        <ele>214</ele>
        <time>2016-01-23T14:55:35Z</time>
      </trkpt>
      <trkpt lat="43.40665" lon="6.04979">
        <ele>214</ele>
        <time>2016-01-23T14:55:36Z</time>
      </trkpt>
      <trkpt lat="43.40665" lon="6.04979">
        <ele>214</ele>
        <time>2016-01-23T14:55:37Z</time>
      </trkpt>
      <trkpt lat="43.40666" lon="6.04979">
        <ele>214</ele>
        <time>2016-01-23T14:55:38Z</time>
      </trkpt>
      <trkpt lat="43.40666" lon="6.04979">
        <ele>214</ele>
        <time>2016-01-23T14:55:39Z</time>
      </trkpt>
      <trkpt lat="43.40666" lon="6.04978">
        <ele>214</ele>
        <time>2016-01-23T14:55:40Z</time>
      </trkpt>
      <trkpt lat="43.40666" lon="6.04978">
        <ele>214</ele>
        <time>2016-01-23T14:55:41Z</time>
      </trkpt>
      <trkpt lat="43.40665" lon="6.04978">
        <ele>214</ele>
        <time>2016-01-23T14:55:42Z</time>
      </trkpt>
      <trkpt lat="43.40665" lon="6.04979">
        <ele>214</ele>
        <time>2016-01-23T14:55:43Z</time>
      </trkpt>
      <trkpt lat="43.40665" lon="6.04978">
        <ele>214</ele>
        <time>2016-01-23T14:55:44Z</time>
      </trkpt>
      <trkpt lat="43.40665" lon="6.04978">
        <ele>214</ele>
        <time>2016-01-23T14:55:45Z</time>
      </trkpt>
      <trkpt lat="43.40665" lon="6.04979">
        <ele>214</ele>
        <time>2016-01-23T14:55:46Z</time>
      </trkpt>
      <trkpt lat="43.40665" lon="6.04979">
        <ele>214</ele>
        <time>2016-01-23T14:55:47Z</time>
      </trkpt>
      <trkpt lat="43.40665" lon="6.04978">
        <ele>214</ele>
        <time>2016-01-23T14:55:48Z</time>
      </trkpt>
      <trkpt lat="43.40665" lon="6.04978">
        <ele>214</ele>
        <time>2016-01-23T14:55:49Z</time>
      </trkpt>
      <trkpt lat="43.40665" lon="6.04978">
        <ele>214</ele>
        <time>2016-01-23T14:55:50Z</time>
      </trkpt>
      <trkpt lat="43.40665" lon="6.04978">
        <ele>214</ele>
        <time>2016-01-23T14:55:51Z</time>
      </trkpt>
      <trkpt lat="43.40665" lon="6.04978">
        <ele>214</ele>
        <time>2016-01-23T14:55:52Z</time>
      </trkpt>
      <trkpt lat="43.40665" lon="6.04979">
        <ele>214</ele>
        <time>2016-01-23T14:55:53Z</time>
      </trkpt>
      <trkpt lat="43.40665" lon="6.04979">
        <ele>214</ele>
        <time>2016-01-23T14:55:54Z</time>
      </trkpt>
      <trkpt lat="43.40665" lon="6.04979">
        <ele>214</ele>
        <time>2016-01-23T14:55:55Z</time>
      </trkpt>
      <trkpt lat="43.40665" lon="6.04979">
        <ele>214</ele>
        <time>2016-01-23T14:55:56Z</time>
      </trkpt>
      <trkpt lat="43.40665" lon="6.04978">
        <ele>214</ele>
        <time>2016-01-23T14:55:57Z</time>
      </trkpt>
      <trkpt lat="43.40665" lon="6.04978">
        <ele>214</ele>
        <time>2016-01-23T14:55:58Z</time>
      </trkpt>
      <trkpt lat="43.40665" lon="6.04979">
        <ele>214</ele>
        <time>2016-01-23T14:55:59Z</time>
      </trkpt>
      <trkpt lat="43.40664" lon="6.04979">
        <ele>214</ele>
        <time>2016-01-23T14:56:00Z</time>
      </trkpt>
      <trkpt lat="43.40664" lon="6.04979">
        <ele>214</ele>
        <time>2016-01-23T14:56:01Z</time>
      </trkpt>
      <trkpt lat="43.40664" lon="6.04979">
        <ele>214</ele>
        <time>2016-01-23T14:56:02Z</time>
      </trkpt>
      <trkpt lat="43.40664" lon="6.04979">
        <ele>214</ele>
        <time>2016-01-23T14:56:03Z</time>
      </trkpt>
      <trkpt lat="43.40664" lon="6.04979">
        <ele>214</ele>
        <time>2016-01-23T14:56:04Z</time>
      </trkpt>
      <trkpt lat="43.40664" lon="6.04979">
        <ele>214</ele>
        <time>2016-01-23T14:56:05Z</time>
      </trkpt>
      <trkpt lat="43.40664" lon="6.04979">
        <ele>214</ele>
        <time>2016-01-23T14:56:06Z</time>
      </trkpt>
      <trkpt lat="43.40664" lon="6.04979">
        <ele>214</ele>
        <time>2016-01-23T14:56:07Z</time>
      </trkpt>
      <trkpt lat="43.40664" lon="6.04979">
        <ele>214</ele>
        <time>2016-01-23T14:56:08Z</time>
      </trkpt>
      <trkpt lat="43.40664" lon="6.04979">
        <ele>214</ele>
        <time>2016-01-23T14:56:09Z</time>
      </trkpt>
      <trkpt lat="43.40664" lon="6.04979">
        <ele>214</ele>
        <time>2016-01-23T14:56:10Z</time>
      </trkpt>
      <trkpt lat="43.40664" lon="6.04979">
        <ele>214</ele>
        <time>2016-01-23T14:56:11Z</time>
      </trkpt>
      <trkpt lat="43.40664" lon="6.04979">
        <ele>214</ele>
        <time>2016-01-23T14:56:12Z</time>
      </trkpt>
      <trkpt lat="43.40664" lon="6.04979">
        <ele>214</ele>
        <time>2016-01-23T14:56:13Z</time>
      </trkpt>
      <trkpt lat="43.40664" lon="6.04979">
        <ele>214</ele>
        <time>2016-01-23T14:56:14Z</time>
      </trkpt>
      <trkpt lat="43.40664" lon="6.04979">
        <ele>214</ele>
        <time>2016-01-23T14:56:15Z</time>
      </trkpt>
      <trkpt lat="43.40664" lon="6.04979">
        <ele>214</ele>
        <time>2016-01-23T14:56:16Z</time>
      </trkpt>
      <trkpt lat="43.40664" lon="6.04979">
        <ele>214</ele>
        <time>2016-01-23T14:56:17Z</time>
      </trkpt>
      <trkpt lat="43.40664" lon="6.04979">
        <ele>214</ele>
        <time>2016-01-23T14:56:18Z</time>
      </trkpt>
      <trkpt lat="43.40664" lon="6.04979">
        <ele>214</ele>
        <time>2016-01-23T14:56:19Z</time>
      </trkpt>
      <trkpt lat="43.40664" lon="6.04979">
        <ele>214</ele>
        <time>2016-01-23T14:56:20Z</time>
      </trkpt>
      <trkpt lat="43.40664" lon="6.04979">
        <ele>214</ele>
        <time>2016-01-23T14:56:21Z</time>
      </trkpt>
      <trkpt lat="43.40664" lon="6.04979">
        <ele>214</ele>
        <time>2016-01-23T14:56:22Z</time>
      </trkpt>
      <trkpt lat="43.40663" lon="6.04979">
        <ele>214</ele>
        <time>2016-01-23T14:56:23Z</time>
      </trkpt>
      <trkpt lat="43.40663" lon="6.04979">
        <ele>214</ele>
        <time>2016-01-23T14:56:24Z</time>
      </trkpt>
      <trkpt lat="43.40663" lon="6.04979">
        <ele>214</ele>
        <time>2016-01-23T14:56:25Z</time>
      </trkpt>
      <trkpt lat="43.40663" lon="6.04979">
        <ele>214</ele>
        <time>2016-01-23T14:56:26Z</time>
      </trkpt>
      <trkpt lat="43.40663" lon="6.04979">
        <ele>214</ele>
        <time>2016-01-23T14:56:27Z</time>
      </trkpt>
      <trkpt lat="43.40663" lon="6.04979">
        <ele>214</ele>
        <time>2016-01-23T14:56:28Z</time>
      </trkpt>
      <trkpt lat="43.40663" lon="6.04979">
        <ele>214</ele>
        <time>2016-01-23T14:56:29Z</time>
      </trkpt>
      <trkpt lat="43.40663" lon="6.04979">
        <ele>214</ele>
        <time>2016-01-23T14:56:30Z</time>
      </trkpt>
      <trkpt lat="43.40663" lon="6.04979">
        <ele>214</ele>
        <time>2016-01-23T14:56:31Z</time>
      </trkpt>
      <trkpt lat="43.40665" lon="6.0498">
        <ele>214</ele>
        <time>2016-01-23T15:12:10Z</time>
      </trkpt>
      <trkpt lat="43.40665" lon="6.0498">
        <ele>214</ele>
        <time>2016-01-23T15:12:11Z</time>
      </trkpt>
      <trkpt lat="43.40665" lon="6.0498">
        <ele>214</ele>
        <time>2016-01-23T15:12:12Z</time>
      </trkpt>
      <trkpt lat="43.40665" lon="6.0498">
        <ele>214</ele>
        <time>2016-01-23T15:12:13Z</time>
      </trkpt>
      <trkpt lat="43.40665" lon="6.0498">
        <ele>214</ele>
        <time>2016-01-23T15:12:14Z</time>
      </trkpt>
      <trkpt lat="43.40665" lon="6.0498">
        <ele>214</ele>
        <time>2016-01-23T15:12:15Z</time>
      </trkpt>
      <trkpt lat="43.40665" lon="6.0498">
        <ele>214</ele>
        <time>2016-01-23T15:12:16Z</time>
      </trkpt>
      <trkpt lat="43.40665" lon="6.0498">
        <ele>214</ele>
        <time>2016-01-23T15:12:17Z</time>
      </trkpt>
      <trkpt lat="43.40665" lon="6.0498">
        <ele>214</ele>
        <time>2016-01-23T15:12:18Z</time>
      </trkpt>
      <trkpt lat="43.40665" lon="6.0498">
        <ele>214</ele>
        <time>2016-01-23T15:12:19Z</time>
      </trkpt>
      <trkpt lat="43.40665" lon="6.0498">
        <ele>214</ele>
        <time>2016-01-23T15:12:20Z</time>
      </trkpt>
      <trkpt lat="43.40665" lon="6.0498">
        <ele>214</ele>
        <time>2016-01-23T15:12:21Z</time>
      </trkpt>
      <trkpt lat="43.40665" lon="6.0498">
        <ele>214</ele>
        <time>2016-01-23T15:12:22Z</time>
      </trkpt>
      <trkpt lat="43.40665" lon="6.0498">
        <ele>214</ele>
        <time>2016-01-23T15:12:23Z</time>
      </trkpt>
      <trkpt lat="43.40665" lon="6.0498">
        <ele>214</ele>
        <time>2016-01-23T15:12:24Z</time>
      </trkpt>
      <trkpt lat="43.40665" lon="6.0498">
        <ele>214</ele>
        <time>2016-01-23T15:12:25Z</time>
      </trkpt>
      <trkpt lat="43.40665" lon="6.0498">
        <ele>214</ele>
        <time>2016-01-23T15:12:26Z</time>
      </trkpt>
      <trkpt lat="43.40665" lon="6.0498">
        <ele>214</ele>
        <time>2016-01-23T15:12:27Z</time>
      </trkpt>
      <trkpt lat="43.40665" lon="6.0498">
        <ele>214</ele>
        <time>2016-01-23T15:12:28Z</time>
      </trkpt>
      <trkpt lat="43.40665" lon="6.0498">
        <ele>214</ele>
        <time>2016-01-23T15:12:29Z</time>
      </trkpt>
      <trkpt lat="43.40665" lon="6.0498">
        <ele>214</ele>
        <time>2016-01-23T15:12:30Z</time>
      </trkpt>
      <trkpt lat="43.40665" lon="6.0498">
        <ele>214</ele>
        <time>2016-01-23T15:12:31Z</time>
      </trkpt>
      <trkpt lat="43.40665" lon="6.0498">
        <ele>214</ele>
        <time>2016-01-23T15:12:32Z</time>
      </trkpt>
      <trkpt lat="43.40665" lon="6.0498">
        <ele>214</ele>
        <time>2016-01-23T15:12:33Z</time>
      </trkpt>
      <trkpt lat="43.40665" lon="6.0498">
        <ele>214</ele>
        <time>2016-01-23T15:12:34Z</time>
      </trkpt>
      <trkpt lat="43.40665" lon="6.0498">
        <ele>214</ele>
        <time>2016-01-23T15:12:35Z</time>
      </trkpt>
      <trkpt lat="43.40665" lon="6.0498">
        <ele>214</ele>
        <time>2016-01-23T15:12:36Z</time>
      </trkpt>
      <trkpt lat="43.40665" lon="6.0498">
        <ele>214</ele>
        <time>2016-01-23T15:12:37Z</time>
      </trkpt>
      <trkpt lat="43.40665" lon="6.0498">
        <ele>214</ele>
        <time>2016-01-23T15:12:38Z</time>
      </trkpt>
      <trkpt lat="43.40665" lon="6.0498">
        <ele>214</ele>
        <time>2016-01-23T15:12:39Z</time>
      </trkpt>
      <trkpt lat="43.40665" lon="6.0498">
        <ele>214</ele>
        <time>2016-01-23T15:12:40Z</time>
      </trkpt>
      <trkpt lat="43.40665" lon="6.0498">
        <ele>214</ele>
        <time>2016-01-23T15:12:41Z</time>
      </trkpt>
      <trkpt lat="43.40665" lon="6.0498">
        <ele>214</ele>
        <time>2016-01-23T15:12:42Z</time>
      </trkpt>
      <trkpt lat="43.40665" lon="6.0498">
        <ele>214</ele>
        <time>2016-01-23T15:12:43Z</time>
      </trkpt>
      <trkpt lat="43.40665" lon="6.0498">
        <ele>214</ele>
        <time>2016-01-23T15:12:44Z</time>
      </trkpt>
      <trkpt lat="43.40665" lon="6.0498">
        <ele>214</ele>
        <time>2016-01-23T15:12:45Z</time>
      </trkpt>
      <trkpt lat="43.40665" lon="6.0498">
        <ele>214</ele>
        <time>2016-01-23T15:12:46Z</time>
      </trkpt>
      <trkpt lat="43.40665" lon="6.0498">
        <ele>214</ele>
        <time>2016-01-23T15:12:47Z</time>
      </trkpt>
      <trkpt lat="43.40665" lon="6.0498">
        <ele>214</ele>
        <time>2016-01-23T15:12:48Z</time>
      </trkpt>
      <trkpt lat="43.40665" lon="6.0498">
        <ele>214</ele>
        <time>2016-01-23T15:12:49Z</time>
      </trkpt>
      <trkpt lat="43.40665" lon="6.0498">
        <ele>214</ele>
        <time>2016-01-23T15:12:50Z</time>
      </trkpt>
      <trkpt lat="43.40665" lon="6.0498">
        <ele>214</ele>
        <time>2016-01-23T15:12:51Z</time>
      </trkpt>
      <trkpt lat="43.40665" lon="6.0498">
        <ele>214</ele>
        <time>2016-01-23T15:12:52Z</time>
      </trkpt>
      <trkpt lat="43.40666" lon="6.0498">
        <ele>214</ele>
        <time>2016-01-23T15:12:53Z</time>
      </trkpt>
      <trkpt lat="43.40666" lon="6.0498">
        <ele>214</ele>
        <time>2016-01-23T15:12:54Z</time>
      </trkpt>
      <trkpt lat="43.40666" lon="6.04979">
        <ele>214</ele>
        <time>2016-01-23T15:12:55Z</time>
      </trkpt>
      <trkpt lat="43.40666" lon="6.04979">
        <ele>214</ele>
        <time>2016-01-23T15:12:56Z</time>
      </trkpt>
      <trkpt lat="43.40666" lon="6.04979">
        <ele>214</ele>
        <time>2016-01-23T15:12:57Z</time>
      </trkpt>
      <trkpt lat="43.40666" lon="6.04979">
        <ele>214</ele>
        <time>2016-01-23T15:12:58Z</time>
      </trkpt>
      <trkpt lat="43.40666" lon="6.04979">
        <ele>214</ele>
        <time>2016-01-23T15:12:59Z</time>
      </trkpt>
      <trkpt lat="43.40666" lon="6.04979">
        <ele>214</ele>
        <time>2016-01-23T15:13:00Z</time>
      </trkpt>
      <trkpt lat="43.40666" lon="6.04979">
        <ele>214</ele>
        <time>2016-01-23T15:13:01Z</time>
      </trkpt>
      <trkpt lat="43.40666" lon="6.04979">
        <ele>214</ele>
        <time>2016-01-23T15:13:02Z</time>
      </trkpt>
      <trkpt lat="43.40666" lon="6.04979">
        <ele>214</ele>
        <time>2016-01-23T15:13:03Z</time>
      </trkpt>
      <trkpt lat="43.40666" lon="6.0498">
        <ele>214</ele>
        <time>2016-01-23T15:13:04Z</time>
      </trkpt>
      <trkpt lat="43.40666" lon="6.0498">
        <ele>214</ele>
        <time>2016-01-23T15:13:05Z</time>
      </trkpt>
      <trkpt lat="43.40666" lon="6.0498">
        <ele>214</ele>
        <time>2016-01-23T15:13:06Z</time>
      </trkpt>
      <trkpt lat="43.40666" lon="6.0498">
        <ele>214</ele>
        <time>2016-01-23T15:13:07Z</time>
      </trkpt>
      <trkpt lat="43.40666" lon="6.0498">
        <ele>214</ele>
        <time>2016-01-23T15:13:08Z</time>
      </trkpt>
      <trkpt lat="43.40666" lon="6.0498">
        <ele>214</ele>
        <time>2016-01-23T15:13:09Z</time>
      </trkpt>
      <trkpt lat="43.40666" lon="6.0498">
        <ele>214</ele>
        <time>2016-01-23T15:13:10Z</time>
      </trkpt>
      <trkpt lat="43.40666" lon="6.0498">
        <ele>214</ele>
        <time>2016-01-23T15:13:11Z</time>
      </trkpt>
      <trkpt lat="43.40666" lon="6.0498">
        <ele>214</ele>
        <time>2016-01-23T15:13:12Z</time>
      </trkpt>
      <trkpt lat="43.40666" lon="6.0498">
        <ele>214</ele>
        <time>2016-01-23T15:13:13Z</time>
      </trkpt>
      <trkpt lat="43.40666" lon="6.0498">
        <ele>214</ele>
        <time>2016-01-23T15:13:14Z</time>
      </trkpt>
      <trkpt lat="43.40666" lon="6.0498">
        <ele>214</ele>
        <time>2016-01-23T15:13:15Z</time>
      </trkpt>
      <trkpt lat="43.40666" lon="6.0498">
        <ele>214</ele>
        <time>2016-01-23T15:13:16Z</time>
      </trkpt>
      <trkpt lat="43.40666" lon="6.0498">
        <ele>214</ele>
        <time>2016-01-23T15:13:17Z</time>
      </trkpt>
      <trkpt lat="43.40666" lon="6.0498">
        <ele>214</ele>
        <time>2016-01-23T15:13:18Z</time>
      </trkpt>
      <trkpt lat="43.40666" lon="6.0498">
        <ele>214</ele>
        <time>2016-01-23T15:13:19Z</time>
      </trkpt>
      <trkpt lat="43.40666" lon="6.0498">
        <ele>214</ele>
        <time>2016-01-23T15:13:20Z</time>
      </trkpt>
      <trkpt lat="43.40666" lon="6.0498">
        <ele>214</ele>
        <time>2016-01-23T15:13:21Z</time>
      </trkpt>
      <trkpt lat="43.40666" lon="6.0498">
        <ele>214</ele>
        <time>2016-01-23T15:13:22Z</time>
      </trkpt>
      <trkpt lat="43.40666" lon="6.0498">
        <ele>214</ele>
        <time>2016-01-23T15:13:23Z</time>
      </trkpt>
      <trkpt lat="43.40666" lon="6.0498">
        <ele>214</ele>
        <time>2016-01-23T15:13:24Z</time>
      </trkpt>
      <trkpt lat="43.40666" lon="6.0498">
        <ele>214</ele>
        <time>2016-01-23T15:13:25Z</time>
      </trkpt>
      <trkpt lat="43.4067" lon="6.0498">
        <ele>214</ele>
        <time>2016-01-23T15:13:26Z</time>
      </trkpt>
      <trkpt lat="43.40673" lon="6.04981">
        <ele>214</ele>
        <time>2016-01-23T15:13:27Z</time>
      </trkpt>
      <trkpt lat="43.40677" lon="6.0498">
        <ele>214</ele>
        <time>2016-01-23T15:13:28Z</time>
      </trkpt>
      <trkpt lat="43.40681" lon="6.04979">
        <ele>214</ele>
        <time>2016-01-23T15:13:29Z</time>
      </trkpt>
      <trkpt lat="43.40683" lon="6.04978">
        <ele>214</ele>
        <time>2016-01-23T15:13:30Z</time>
      </trkpt>
      <trkpt lat="43.40686" lon="6.04978">
        <ele>214</ele>
        <time>2016-01-23T15:13:31Z</time>
      </trkpt>
      <trkpt lat="43.4069" lon="6.04978">
        <ele>214</ele>
        <time>2016-01-23T15:13:32Z</time>
      </trkpt>
      <trkpt lat="43.40693" lon="6.04976">
        <ele>214</ele>
        <time>2016-01-23T15:13:33Z</time>
      </trkpt>
      <trkpt lat="43.40695" lon="6.04975">
        <ele>214</ele>
        <time>2016-01-23T15:13:34Z</time>
      </trkpt>
      <trkpt lat="43.40698" lon="6.04973">
        <ele>214.1</ele>
        <time>2016-01-23T15:13:35Z</time>
      </trkpt>
      <trkpt lat="43.40703" lon="6.04971">
        <ele>214.3</ele>
        <time>2016-01-23T15:13:36Z</time>
      </trkpt>
      <trkpt lat="43.40707" lon="6.04969">
        <ele>214.5</ele>
        <time>2016-01-23T15:13:37Z</time>
      </trkpt>
      <trkpt lat="43.40713" lon="6.04967">
        <ele>214.7</ele>
        <time>2016-01-23T15:13:38Z</time>
      </trkpt>
      <trkpt lat="43.40718" lon="6.04967">
        <ele>214.9</ele>
        <time>2016-01-23T15:13:39Z</time>
      </trkpt>
      <trkpt lat="43.40722" lon="6.04967">
        <ele>215</ele>
        <time>2016-01-23T15:13:40Z</time>
      </trkpt>
      <trkpt lat="43.40726" lon="6.04967">
        <ele>214.9</ele>
        <time>2016-01-23T15:13:41Z</time>
      </trkpt>
      <trkpt lat="43.40729" lon="6.04967">
        <ele>214.8</ele>
        <time>2016-01-23T15:13:42Z</time>
      </trkpt>
      <trkpt lat="43.40732" lon="6.04967">
        <ele>214.6</ele>
        <time>2016-01-23T15:13:43Z</time>
      </trkpt>
      <trkpt lat="43.40735" lon="6.04967">
        <ele>214.5</ele>
        <time>2016-01-23T15:13:44Z</time>
      </trkpt>
      <trkpt lat="43.40738" lon="6.04967">
        <ele>214.4</ele>
        <time>2016-01-23T15:13:45Z</time>
      </trkpt>
      <trkpt lat="43.40739" lon="6.04967">
        <ele>214.4</ele>
        <time>2016-01-23T15:13:46Z</time>
      </trkpt>
      <trkpt lat="43.4074" lon="6.04967">
        <ele>214.4</ele>
        <time>2016-01-23T15:13:47Z</time>
      </trkpt>
      <trkpt lat="43.40741" lon="6.04966">
        <ele>214.3</ele>
        <time>2016-01-23T15:13:48Z</time>
      </trkpt>
      <trkpt lat="43.40741" lon="6.04966">
        <ele>214.3</ele>
        <time>2016-01-23T15:13:49Z</time>
      </trkpt>
      <trkpt lat="43.40741" lon="6.04966">
        <ele>214.3</ele>
        <time>2016-01-23T15:13:50Z</time>
      </trkpt>
      <trkpt lat="43.40741" lon="6.04966">
        <ele>214.3</ele>
        <time>2016-01-23T15:13:51Z</time>
      </trkpt>
      <trkpt lat="43.40741" lon="6.04966">
        <ele>214.3</ele>
        <time>2016-01-23T15:13:52Z</time>
      </trkpt>
      <trkpt lat="43.40741" lon="6.04966">
        <ele>214.3</ele>
        <time>2016-01-23T15:13:53Z</time>
      </trkpt>
      <trkpt lat="43.40742" lon="6.04966">
        <ele>214.3</ele>
        <time>2016-01-23T15:13:54Z</time>
      </trkpt>
      <trkpt lat="43.40745" lon="6.04967">
        <ele>214.2</ele>
        <time>2016-01-23T15:13:55Z</time>
      </trkpt>
      <trkpt lat="43.40749" lon="6.04967">
        <ele>214</ele>
        <time>2016-01-23T15:13:56Z</time>
      </trkpt>
      <trkpt lat="43.40751" lon="6.04967">
        <ele>214</ele>
        <time>2016-01-23T15:13:57Z</time>
      </trkpt>
      <trkpt lat="43.40756" lon="6.04967">
        <ele>214</ele>
        <time>2016-01-23T15:13:58Z</time>
      </trkpt>
      <trkpt lat="43.40761" lon="6.04968">
        <ele>214.1</ele>
        <time>2016-01-23T15:13:59Z</time>
      </trkpt>
      <trkpt lat="43.40766" lon="6.04971">
        <ele>214</ele>
        <time>2016-01-23T15:14:00Z</time>
      </trkpt>
      <trkpt lat="43.40771" lon="6.04975">
        <ele>214</ele>
        <time>2016-01-23T15:14:01Z</time>
      </trkpt>
      <trkpt lat="43.40778" lon="6.0498">
        <ele>214</ele>
        <time>2016-01-23T15:14:02Z</time>
      </trkpt>
      <trkpt lat="43.40785" lon="6.04983">
        <ele>214.2</ele>
        <time>2016-01-23T15:14:03Z</time>
      </trkpt>
      <trkpt lat="43.40794" lon="6.04984">
        <ele>214.3</ele>
        <time>2016-01-23T15:14:04Z</time>
      </trkpt>
      <trkpt lat="43.40801" lon="6.04982">
        <ele>214.5</ele>
        <time>2016-01-23T15:14:05Z</time>
      </trkpt>
      <trkpt lat="43.40808" lon="6.04976">
        <ele>214.8</ele>
        <time>2016-01-23T15:14:06Z</time>
      </trkpt>
      <trkpt lat="43.40814" lon="6.04969">
        <ele>214.7</ele>
        <time>2016-01-23T15:14:07Z</time>
      </trkpt>
      <trkpt lat="43.40819" lon="6.04961">
        <ele>214.7</ele>
        <time>2016-01-23T15:14:08Z</time>
      </trkpt>
      <trkpt lat="43.40821" lon="6.04951">
        <ele>214.9</ele>
        <time>2016-01-23T15:14:09Z</time>
      </trkpt>
      <trkpt lat="43.40816" lon="6.04937">
        <ele>215</ele>
        <time>2016-01-23T15:14:10Z</time>
      </trkpt>
      <trkpt lat="43.40812" lon="6.04922">
        <ele>215</ele>
        <time>2016-01-23T15:14:11Z</time>
      </trkpt>
      <trkpt lat="43.40811" lon="6.04906">
        <ele>215</ele>
        <time>2016-01-23T15:14:12Z</time>
      </trkpt>
      <trkpt lat="43.4081" lon="6.04888">
        <ele>215</ele>
        <time>2016-01-23T15:14:13Z</time>
      </trkpt>
      <trkpt lat="43.4081" lon="6.04869">
        <ele>215</ele>
        <time>2016-01-23T15:14:14Z</time>
      </trkpt>
      <trkpt lat="43.40811" lon="6.0485">
        <ele>215</ele>
        <time>2016-01-23T15:14:15Z</time>
      </trkpt>
      <trkpt lat="43.40813" lon="6.04831">
        <ele>215</ele>
        <time>2016-01-23T15:14:16Z</time>
      </trkpt>
      <trkpt lat="43.40815" lon="6.04814">
        <ele>215.2</ele>
        <time>2016-01-23T15:14:17Z</time>
      </trkpt>
      <trkpt lat="43.40817" lon="6.04799">
        <ele>215.6</ele>
        <time>2016-01-23T15:14:18Z</time>
      </trkpt>
      <trkpt lat="43.40819" lon="6.04784">
        <ele>215.9</ele>
        <time>2016-01-23T15:14:19Z</time>
      </trkpt>
      <trkpt lat="43.40822" lon="6.04768">
        <ele>216</ele>
        <time>2016-01-23T15:14:20Z</time>
      </trkpt>
      <trkpt lat="43.40825" lon="6.04751">
        <ele>216</ele>
        <time>2016-01-23T15:14:21Z</time>
      </trkpt>
      <trkpt lat="43.40828" lon="6.04735">
        <ele>216</ele>
        <time>2016-01-23T15:14:22Z</time>
      </trkpt>
      <trkpt lat="43.40831" lon="6.04721">
        <ele>216</ele>
        <time>2016-01-23T15:14:23Z</time>
      </trkpt>
      <trkpt lat="43.40834" lon="6.04707">
        <ele>216</ele>
        <time>2016-01-23T15:14:24Z</time>
      </trkpt>
      <trkpt lat="43.40836" lon="6.04694">
        <ele>216</ele>
        <time>2016-01-23T15:14:25Z</time>
      </trkpt>
      <trkpt lat="43.40838" lon="6.0468">
        <ele>216.5</ele>
        <time>2016-01-23T15:14:26Z</time>
      </trkpt>
      <trkpt lat="43.40841" lon="6.04665">
        <ele>217</ele>
        <time>2016-01-23T15:14:27Z</time>
      </trkpt>
      <trkpt lat="43.40843" lon="6.04649">
        <ele>217</ele>
        <time>2016-01-23T15:14:28Z</time>
      </trkpt>
      <trkpt lat="43.40846" lon="6.04632">
        <ele>217.1</ele>
        <time>2016-01-23T15:14:29Z</time>
      </trkpt>
      <trkpt lat="43.40849" lon="6.04617">
        <ele>217.4</ele>
        <time>2016-01-23T15:14:30Z</time>
      </trkpt>
      <trkpt lat="43.40852" lon="6.04602">
        <ele>217.8</ele>
        <time>2016-01-23T15:14:31Z</time>
      </trkpt>
      <trkpt lat="43.40854" lon="6.04588">
        <ele>218</ele>
        <time>2016-01-23T15:14:32Z</time>
      </trkpt>
      <trkpt lat="43.40856" lon="6.04575">
        <ele>218</ele>
        <time>2016-01-23T15:14:33Z</time>
      </trkpt>
      <trkpt lat="43.40858" lon="6.04563">
        <ele>218</ele>
        <time>2016-01-23T15:14:34Z</time>
      </trkpt>
      <trkpt lat="43.4086" lon="6.0455">
        <ele>218.2</ele>
        <time>2016-01-23T15:14:35Z</time>
      </trkpt>
      <trkpt lat="43.40863" lon="6.04537">
        <ele>218.7</ele>
        <time>2016-01-23T15:14:36Z</time>
      </trkpt>
      <trkpt lat="43.40865" lon="6.04521">
        <ele>219</ele>
        <time>2016-01-23T15:14:37Z</time>
      </trkpt>
      <trkpt lat="43.40867" lon="6.04506">
        <ele>219</ele>
        <time>2016-01-23T15:14:38Z</time>
      </trkpt>
      <trkpt lat="43.4087" lon="6.04491">
        <ele>219.2</ele>
        <time>2016-01-23T15:14:39Z</time>
      </trkpt>
      <trkpt lat="43.40873" lon="6.04476">
        <ele>219.5</ele>
        <time>2016-01-23T15:14:40Z</time>
      </trkpt>
      <trkpt lat="43.40875" lon="6.04461">
        <ele>219.7</ele>
        <time>2016-01-23T15:14:41Z</time>
      </trkpt>
      <trkpt lat="43.40878" lon="6.04446">
        <ele>220</ele>
        <time>2016-01-23T15:14:42Z</time>
      </trkpt>
      <trkpt lat="43.40881" lon="6.04432">
        <ele>220.1</ele>
        <time>2016-01-23T15:14:43Z</time>
      </trkpt>
      <trkpt lat="43.40883" lon="6.04417">
        <ele>220.2</ele>
        <time>2016-01-23T15:14:44Z</time>
      </trkpt>
      <trkpt lat="43.40886" lon="6.04403">
        <ele>220.1</ele>
        <time>2016-01-23T15:14:45Z</time>
      </trkpt>
      <trkpt lat="43.40888" lon="6.0439">
        <ele>220</ele>
        <time>2016-01-23T15:14:46Z</time>
      </trkpt>
      <trkpt lat="43.4089" lon="6.04379">
        <ele>220.4</ele>
        <time>2016-01-23T15:14:47Z</time>
      </trkpt>
      <trkpt lat="43.40892" lon="6.04368">
        <ele>220.8</ele>
        <time>2016-01-23T15:14:48Z</time>
      </trkpt>
      <trkpt lat="43.40893" lon="6.0436">
        <ele>221</ele>
        <time>2016-01-23T15:14:49Z</time>
      </trkpt>
      <trkpt lat="43.40894" lon="6.04354">
        <ele>221</ele>
        <time>2016-01-23T15:14:50Z</time>
      </trkpt>
      <trkpt lat="43.40894" lon="6.04351">
        <ele>221</ele>
        <time>2016-01-23T15:14:51Z</time>
      </trkpt>
      <trkpt lat="43.40895" lon="6.04348">
        <ele>221</ele>
        <time>2016-01-23T15:14:52Z</time>
      </trkpt>
      <trkpt lat="43.40895" lon="6.04346">
        <ele>221</ele>
        <time>2016-01-23T15:14:53Z</time>
      </trkpt>
      <trkpt lat="43.40896" lon="6.04345">
        <ele>221</ele>
        <time>2016-01-23T15:14:54Z</time>
      </trkpt>
      <trkpt lat="43.40896" lon="6.04344">
        <ele>221</ele>
        <time>2016-01-23T15:14:55Z</time>
      </trkpt>
      <trkpt lat="43.40896" lon="6.04344">
        <ele>221</ele>
        <time>2016-01-23T15:14:56Z</time>
      </trkpt>
      <trkpt lat="43.40896" lon="6.04344">
        <ele>221</ele>
        <time>2016-01-23T15:14:57Z</time>
      </trkpt>
      <trkpt lat="43.40896" lon="6.04344">
        <ele>221</ele>
        <time>2016-01-23T15:14:58Z</time>
      </trkpt>
      <trkpt lat="43.40896" lon="6.04344">
        <ele>221</ele>
        <time>2016-01-23T15:14:59Z</time>
      </trkpt>
      <trkpt lat="43.40897" lon="6.04342">
        <ele>221</ele>
        <time>2016-01-23T15:15:00Z</time>
      </trkpt>
      <trkpt lat="43.409" lon="6.04339">
        <ele>221</ele>
        <time>2016-01-23T15:15:01Z</time>
      </trkpt>
      <trkpt lat="43.40905" lon="6.04335">
        <ele>221</ele>
        <time>2016-01-23T15:15:02Z</time>
      </trkpt>
      <trkpt lat="43.4091" lon="6.0433">
        <ele>221.2</ele>
        <time>2016-01-23T15:15:03Z</time>
      </trkpt>
      <trkpt lat="43.40916" lon="6.04323">
        <ele>221.8</ele>
        <time>2016-01-23T15:15:04Z</time>
      </trkpt>
      <trkpt lat="43.4092" lon="6.04313">
        <ele>222.4</ele>
        <time>2016-01-23T15:15:05Z</time>
      </trkpt>
      <trkpt lat="43.40922" lon="6.04301">
        <ele>222.7</ele>
        <time>2016-01-23T15:15:06Z</time>
      </trkpt>
      <trkpt lat="43.40922" lon="6.0429">
        <ele>222.3</ele>
        <time>2016-01-23T15:15:07Z</time>
      </trkpt>
      <trkpt lat="43.40919" lon="6.04278">
        <ele>222</ele>
        <time>2016-01-23T15:15:08Z</time>
      </trkpt>
      <trkpt lat="43.40916" lon="6.04265">
        <ele>222</ele>
        <time>2016-01-23T15:15:09Z</time>
      </trkpt>
      <trkpt lat="43.40915" lon="6.04251">
        <ele>222.1</ele>
        <time>2016-01-23T15:15:10Z</time>
      </trkpt>
      <trkpt lat="43.40915" lon="6.04236">
        <ele>222.6</ele>
        <time>2016-01-23T15:15:11Z</time>
      </trkpt>
      <trkpt lat="43.40917" lon="6.04217">
        <ele>223</ele>
        <time>2016-01-23T15:15:12Z</time>
      </trkpt>
      <trkpt lat="43.40921" lon="6.04196">
        <ele>223</ele>
        <time>2016-01-23T15:15:13Z</time>
      </trkpt>
      <trkpt lat="43.40926" lon="6.04172">
        <ele>223</ele>
        <time>2016-01-23T15:15:14Z</time>
      </trkpt>
      <trkpt lat="43.4093" lon="6.04146">
        <ele>223.7</ele>
        <time>2016-01-23T15:15:15Z</time>
      </trkpt>
      <trkpt lat="43.40935" lon="6.04119">
        <ele>224.2</ele>
        <time>2016-01-23T15:15:16Z</time>
      </trkpt>
      <trkpt lat="43.4094" lon="6.04092">
        <ele>224.7</ele>
        <time>2016-01-23T15:15:17Z</time>
      </trkpt>
      <trkpt lat="43.40944" lon="6.04065">
        <ele>225</ele>
        <time>2016-01-23T15:15:18Z</time>
      </trkpt>
      <trkpt lat="43.40948" lon="6.04039">
        <ele>225</ele>
        <time>2016-01-23T15:15:19Z</time>
      </trkpt>
      <trkpt lat="43.40951" lon="6.04013">
        <ele>225.4</ele>
        <time>2016-01-23T15:15:20Z</time>
      </trkpt>
      <trkpt lat="43.40953" lon="6.03985">
        <ele>225.7</ele>
        <time>2016-01-23T15:15:21Z</time>
      </trkpt>
      <trkpt lat="43.40955" lon="6.03957">
        <ele>225.8</ele>
        <time>2016-01-23T15:15:22Z</time>
      </trkpt>
      <trkpt lat="43.40955" lon="6.03931">
        <ele>226</ele>
        <time>2016-01-23T15:15:23Z</time>
      </trkpt>
      <trkpt lat="43.40955" lon="6.03906">
        <ele>226</ele>
        <time>2016-01-23T15:15:24Z</time>
      </trkpt>
      <trkpt lat="43.40955" lon="6.03882">
        <ele>226</ele>
        <time>2016-01-23T15:15:25Z</time>
      </trkpt>
      <trkpt lat="43.40954" lon="6.03858">
        <ele>226</ele>
        <time>2016-01-23T15:15:26Z</time>
      </trkpt>
      <trkpt lat="43.40954" lon="6.03834">
        <ele>226</ele>
        <time>2016-01-23T15:15:27Z</time>
      </trkpt>
      <trkpt lat="43.40954" lon="6.0381">
        <ele>226</ele>
        <time>2016-01-23T15:15:28Z</time>
      </trkpt>
      <trkpt lat="43.40953" lon="6.03786">
        <ele>226</ele>
        <time>2016-01-23T15:15:29Z</time>
      </trkpt>
      <trkpt lat="43.40953" lon="6.03762">
        <ele>226</ele>
        <time>2016-01-23T15:15:30Z</time>
      </trkpt>
      <trkpt lat="43.40952" lon="6.03739">
        <ele>226.1</ele>
        <time>2016-01-23T15:15:31Z</time>
      </trkpt>
      <trkpt lat="43.40952" lon="6.03715">
        <ele>226.3</ele>
        <time>2016-01-23T15:15:32Z</time>
      </trkpt>
      <trkpt lat="43.40952" lon="6.0369">
        <ele>226.4</ele>
        <time>2016-01-23T15:15:33Z</time>
      </trkpt>
      <trkpt lat="43.40951" lon="6.03664">
        <ele>227</ele>
        <time>2016-01-23T15:15:34Z</time>
      </trkpt>
      <trkpt lat="43.40951" lon="6.03638">
        <ele>227</ele>
        <time>2016-01-23T15:15:35Z</time>
      </trkpt>
      <trkpt lat="43.40951" lon="6.03612">
        <ele>227</ele>
        <time>2016-01-23T15:15:36Z</time>
      </trkpt>
      <trkpt lat="43.40951" lon="6.03585">
        <ele>227</ele>
        <time>2016-01-23T15:15:37Z</time>
      </trkpt>
      <trkpt lat="43.40951" lon="6.03559">
        <ele>227.2</ele>
        <time>2016-01-23T15:15:38Z</time>
      </trkpt>
      <trkpt lat="43.4095" lon="6.03532">
        <ele>227.9</ele>
        <time>2016-01-23T15:15:39Z</time>
      </trkpt>
      <trkpt lat="43.40951" lon="6.03505">
        <ele>228</ele>
        <time>2016-01-23T15:15:40Z</time>
      </trkpt>
      <trkpt lat="43.4095" lon="6.03452">
        <ele>228.2</ele>
        <time>2016-01-23T15:15:42Z</time>
      </trkpt>
      <trkpt lat="43.40949" lon="6.03426">
        <ele>228.3</ele>
        <time>2016-01-23T15:15:43Z</time>
      </trkpt>
      <trkpt lat="43.40948" lon="6.03402">
        <ele>228.2</ele>
        <time>2016-01-23T15:15:44Z</time>
      </trkpt>
      <trkpt lat="43.40947" lon="6.03378">
        <ele>228.1</ele>
        <time>2016-01-23T15:15:45Z</time>
      </trkpt>
      <trkpt lat="43.40945" lon="6.03353">
        <ele>228.1</ele>
        <time>2016-01-23T15:15:46Z</time>
      </trkpt>
      <trkpt lat="43.40944" lon="6.03329">
        <ele>228</ele>
        <time>2016-01-23T15:15:47Z</time>
      </trkpt>
      <trkpt lat="43.40941" lon="6.0328">
        <ele>227.9</ele>
        <time>2016-01-23T15:15:49Z</time>
      </trkpt>
      <trkpt lat="43.40936" lon="6.0323">
        <ele>228.4</ele>
        <time>2016-01-23T15:15:51Z</time>
      </trkpt>
      <trkpt lat="43.40934" lon="6.03205">
        <ele>228.2</ele>
        <time>2016-01-23T15:15:52Z</time>
      </trkpt>
      <trkpt lat="43.4093" lon="6.03179">
        <ele>228</ele>
        <time>2016-01-23T15:15:53Z</time>
      </trkpt>
      <trkpt lat="43.40927" lon="6.03152">
        <ele>228.2</ele>
        <time>2016-01-23T15:15:54Z</time>
      </trkpt>
      <trkpt lat="43.40922" lon="6.03125">
        <ele>228.4</ele>
        <time>2016-01-23T15:15:55Z</time>
      </trkpt>
      <trkpt lat="43.40914" lon="6.03069">
        <ele>228.3</ele>
        <time>2016-01-23T15:15:57Z</time>
      </trkpt>
      <trkpt lat="43.40909" lon="6.03042">
        <ele>228.4</ele>
        <time>2016-01-23T15:15:58Z</time>
      </trkpt>
      <trkpt lat="43.40903" lon="6.03015">
        <ele>228.2</ele>
        <time>2016-01-23T15:15:59Z</time>
      </trkpt>
      <trkpt lat="43.40888" lon="6.02964">
        <ele>229</ele>
        <time>2016-01-23T15:16:01Z</time>
      </trkpt>
      <trkpt lat="43.4088" lon="6.02939">
        <ele>228.7</ele>
        <time>2016-01-23T15:16:02Z</time>
      </trkpt>
      <trkpt lat="43.40872" lon="6.02914">
        <ele>228.4</ele>
        <time>2016-01-23T15:16:03Z</time>
      </trkpt>
      <trkpt lat="43.40864" lon="6.02889">
        <ele>229</ele>
        <time>2016-01-23T15:16:04Z</time>
      </trkpt>
      <trkpt lat="43.40847" lon="6.02841">
        <ele>228.9</ele>
        <time>2016-01-23T15:16:06Z</time>
      </trkpt>
      <trkpt lat="43.40839" lon="6.02818">
        <ele>229</ele>
        <time>2016-01-23T15:16:07Z</time>
      </trkpt>
      <trkpt lat="43.4083" lon="6.02793">
        <ele>229.2</ele>
        <time>2016-01-23T15:16:08Z</time>
      </trkpt>
      <trkpt lat="43.40812" lon="6.02744">
        <ele>230</ele>
        <time>2016-01-23T15:16:10Z</time>
      </trkpt>
      <trkpt lat="43.40801" lon="6.02716">
        <ele>229.1</ele>
        <time>2016-01-23T15:16:11Z</time>
      </trkpt>
      <trkpt lat="43.40789" lon="6.02685">
        <ele>229.8</ele>
        <time>2016-01-23T15:16:12Z</time>
      </trkpt>
      <trkpt lat="43.40777" lon="6.02652">
        <ele>230</ele>
        <time>2016-01-23T15:16:13Z</time>
      </trkpt>
      <trkpt lat="43.40765" lon="6.02618">
        <ele>229.4</ele>
        <time>2016-01-23T15:16:14Z</time>
      </trkpt>
      <trkpt lat="43.40753" lon="6.02584">
        <ele>230</ele>
        <time>2016-01-23T15:16:15Z</time>
      </trkpt>
      <trkpt lat="43.4074" lon="6.0255">
        <ele>229.2</ele>
        <time>2016-01-23T15:16:16Z</time>
      </trkpt>
      <trkpt lat="43.40728" lon="6.02516">
        <ele>230</ele>
        <time>2016-01-23T15:16:17Z</time>
      </trkpt>
      <trkpt lat="43.40716" lon="6.02483">
        <ele>229.4</ele>
        <time>2016-01-23T15:16:18Z</time>
      </trkpt>
      <trkpt lat="43.40704" lon="6.0245">
        <ele>229.6</ele>
        <time>2016-01-23T15:16:19Z</time>
      </trkpt>
      <trkpt lat="43.40694" lon="6.02417">
        <ele>229.1</ele>
        <time>2016-01-23T15:16:20Z</time>
      </trkpt>
      <trkpt lat="43.40683" lon="6.02386">
        <ele>229</ele>
        <time>2016-01-23T15:16:21Z</time>
      </trkpt>
      <trkpt lat="43.40674" lon="6.02356">
        <ele>229</ele>
        <time>2016-01-23T15:16:22Z</time>
      </trkpt>
      <trkpt lat="43.40666" lon="6.02327">
        <ele>229</ele>
        <time>2016-01-23T15:16:23Z</time>
      </trkpt>
      <trkpt lat="43.40659" lon="6.02299">
        <ele>228.9</ele>
        <time>2016-01-23T15:16:24Z</time>
      </trkpt>
      <trkpt lat="43.40652" lon="6.02272">
        <ele>228.6</ele>
        <time>2016-01-23T15:16:25Z</time>
      </trkpt>
      <trkpt lat="43.40645" lon="6.02244">
        <ele>228.8</ele>
        <time>2016-01-23T15:16:26Z</time>
      </trkpt>
      <trkpt lat="43.40638" lon="6.02216">
        <ele>228</ele>
        <time>2016-01-23T15:16:27Z</time>
      </trkpt>
      <trkpt lat="43.40631" lon="6.02188">
        <ele>228.3</ele>
        <time>2016-01-23T15:16:28Z</time>
      </trkpt>
      <trkpt lat="43.40623" lon="6.02158">
        <ele>229</ele>
        <time>2016-01-23T15:16:29Z</time>
      </trkpt>
      <trkpt lat="43.40616" lon="6.02127">
        <ele>229</ele>
        <time>2016-01-23T15:16:30Z</time>
      </trkpt>
      <trkpt lat="43.40609" lon="6.02097">
        <ele>228.5</ele>
        <time>2016-01-23T15:16:31Z</time>
      </trkpt>
      <trkpt lat="43.40602" lon="6.02068">
        <ele>228</ele>
        <time>2016-01-23T15:16:32Z</time>
      </trkpt>
      <trkpt lat="43.40595" lon="6.02039">
        <ele>228</ele>
        <time>2016-01-23T15:16:33Z</time>
      </trkpt>
      <trkpt lat="43.40589" lon="6.0201">
        <ele>228</ele>
        <time>2016-01-23T15:16:34Z</time>
      </trkpt>
      <trkpt lat="43.40582" lon="6.01982">
        <ele>228</ele>
        <time>2016-01-23T15:16:35Z</time>
      </trkpt>
      <trkpt lat="43.40576" lon="6.01955">
        <ele>228.2</ele>
        <time>2016-01-23T15:16:36Z</time>
      </trkpt>
      <trkpt lat="43.40569" lon="6.01928">
        <ele>228.8</ele>
        <time>2016-01-23T15:16:37Z</time>
      </trkpt>
      <trkpt lat="43.40562" lon="6.01902">
        <ele>228.9</ele>
        <time>2016-01-23T15:16:38Z</time>
      </trkpt>
      <trkpt lat="43.40555" lon="6.01877">
        <ele>229</ele>
        <time>2016-01-23T15:16:39Z</time>
      </trkpt>
      <trkpt lat="43.40549" lon="6.01851">
        <ele>228.8</ele>
        <time>2016-01-23T15:16:40Z</time>
      </trkpt>
      <trkpt lat="43.40542" lon="6.01824">
        <ele>228.7</ele>
        <time>2016-01-23T15:16:41Z</time>
      </trkpt>
      <trkpt lat="43.40535" lon="6.01797">
        <ele>228.8</ele>
        <time>2016-01-23T15:16:42Z</time>
      </trkpt>
      <trkpt lat="43.40528" lon="6.0177">
        <ele>228</ele>
        <time>2016-01-23T15:16:43Z</time>
      </trkpt>
      <trkpt lat="43.40522" lon="6.01743">
        <ele>228.3</ele>
        <time>2016-01-23T15:16:44Z</time>
      </trkpt>
      <trkpt lat="43.40515" lon="6.01716">
        <ele>229</ele>
        <time>2016-01-23T15:16:45Z</time>
      </trkpt>
      <trkpt lat="43.40509" lon="6.01689">
        <ele>229</ele>
        <time>2016-01-23T15:16:46Z</time>
      </trkpt>
      <trkpt lat="43.40502" lon="6.01662">
        <ele>229</ele>
        <time>2016-01-23T15:16:47Z</time>
      </trkpt>
      <trkpt lat="43.40495" lon="6.01634">
        <ele>229</ele>
        <time>2016-01-23T15:16:48Z</time>
      </trkpt>
      <trkpt lat="43.40488" lon="6.01607">
        <ele>229</ele>
        <time>2016-01-23T15:16:49Z</time>
      </trkpt>
      <trkpt lat="43.40481" lon="6.01579">
        <ele>229</ele>
        <time>2016-01-23T15:16:50Z</time>
      </trkpt>
      <trkpt lat="43.40473" lon="6.01551">
        <ele>229</ele>
        <time>2016-01-23T15:16:51Z</time>
      </trkpt>
      <trkpt lat="43.40466" lon="6.01524">
        <ele>229</ele>
        <time>2016-01-23T15:16:52Z</time>
      </trkpt>
      <trkpt lat="43.40458" lon="6.01495">
        <ele>229</ele>
        <time>2016-01-23T15:16:53Z</time>
      </trkpt>
      <trkpt lat="43.40451" lon="6.01465">
        <ele>229.2</ele>
        <time>2016-01-23T15:16:54Z</time>
      </trkpt>
      <trkpt lat="43.40443" lon="6.01436">
        <ele>229</ele>
        <time>2016-01-23T15:16:55Z</time>
      </trkpt>
      <trkpt lat="43.40434" lon="6.01405">
        <ele>229</ele>
        <time>2016-01-23T15:16:56Z</time>
      </trkpt>
      <trkpt lat="43.40427" lon="6.01375">
        <ele>229.2</ele>
        <time>2016-01-23T15:16:57Z</time>
      </trkpt>
      <trkpt lat="43.40419" lon="6.01346">
        <ele>229.2</ele>
        <time>2016-01-23T15:16:58Z</time>
      </trkpt>
      <trkpt lat="43.40413" lon="6.01317">
        <ele>229.4</ele>
        <time>2016-01-23T15:16:59Z</time>
      </trkpt>
      <trkpt lat="43.40408" lon="6.01289">
        <ele>229.4</ele>
        <time>2016-01-23T15:17:00Z</time>
      </trkpt>
      <trkpt lat="43.40404" lon="6.0126">
        <ele>229.1</ele>
        <time>2016-01-23T15:17:01Z</time>
      </trkpt>
      <trkpt lat="43.404" lon="6.01231">
        <ele>229.5</ele>
        <time>2016-01-23T15:17:02Z</time>
      </trkpt>
      <trkpt lat="43.40398" lon="6.01202">
        <ele>230.1</ele>
        <time>2016-01-23T15:17:03Z</time>
      </trkpt>
      <trkpt lat="43.40395" lon="6.01173">
        <ele>230.4</ele>
        <time>2016-01-23T15:17:04Z</time>
      </trkpt>
      <trkpt lat="43.40393" lon="6.01144">
        <ele>230.3</ele>
        <time>2016-01-23T15:17:05Z</time>
      </trkpt>
      <trkpt lat="43.40391" lon="6.01114">
        <ele>230.1</ele>
        <time>2016-01-23T15:17:06Z</time>
      </trkpt>
      <trkpt lat="43.40388" lon="6.01085">
        <ele>229.9</ele>
        <time>2016-01-23T15:17:07Z</time>
      </trkpt>
      <trkpt lat="43.40386" lon="6.01055">
        <ele>229.8</ele>
        <time>2016-01-23T15:17:08Z</time>
      </trkpt>
      <trkpt lat="43.40383" lon="6.01026">
        <ele>229.6</ele>
        <time>2016-01-23T15:17:09Z</time>
      </trkpt>
      <trkpt lat="43.40381" lon="6.00996">
        <ele>229.4</ele>
        <time>2016-01-23T15:17:10Z</time>
      </trkpt>
      <trkpt lat="43.40378" lon="6.00967">
        <ele>229.6</ele>
        <time>2016-01-23T15:17:11Z</time>
      </trkpt>
      <trkpt lat="43.40375" lon="6.00937">
        <ele>229.4</ele>
        <time>2016-01-23T15:17:12Z</time>
      </trkpt>
      <trkpt lat="43.40372" lon="6.00905">
        <ele>229</ele>
        <time>2016-01-23T15:17:13Z</time>
      </trkpt>
      <trkpt lat="43.40369" lon="6.00872">
        <ele>229</ele>
        <time>2016-01-23T15:17:14Z</time>
      </trkpt>
      <trkpt lat="43.40367" lon="6.00838">
        <ele>229</ele>
        <time>2016-01-23T15:17:15Z</time>
      </trkpt>
      <trkpt lat="43.40364" lon="6.00805">
        <ele>229</ele>
        <time>2016-01-23T15:17:16Z</time>
      </trkpt>
      <trkpt lat="43.40361" lon="6.00772">
        <ele>230</ele>
        <time>2016-01-23T15:17:17Z</time>
      </trkpt>
      <trkpt lat="43.40358" lon="6.00739">
        <ele>229.5</ele>
        <time>2016-01-23T15:17:18Z</time>
      </trkpt>
      <trkpt lat="43.40355" lon="6.00706">
        <ele>229.5</ele>
        <time>2016-01-23T15:17:19Z</time>
      </trkpt>
      <trkpt lat="43.40352" lon="6.00673">
        <ele>229.9</ele>
        <time>2016-01-23T15:17:20Z</time>
      </trkpt>
      <trkpt lat="43.40349" lon="6.0064">
        <ele>230</ele>
        <time>2016-01-23T15:17:21Z</time>
      </trkpt>
      <trkpt lat="43.40346" lon="6.00605">
        <ele>230</ele>
        <time>2016-01-23T15:17:22Z</time>
      </trkpt>
      <trkpt lat="43.40342" lon="6.00568">
        <ele>230</ele>
        <time>2016-01-23T15:17:23Z</time>
      </trkpt>
      <trkpt lat="43.40339" lon="6.00529">
        <ele>230</ele>
        <time>2016-01-23T15:17:24Z</time>
      </trkpt>
      <trkpt lat="43.40335" lon="6.00487">
        <ele>230.6</ele>
        <time>2016-01-23T15:17:25Z</time>
      </trkpt>
      <trkpt lat="43.40333" lon="6.00445">
        <ele>230.9</ele>
        <time>2016-01-23T15:17:26Z</time>
      </trkpt>
      <trkpt lat="43.4033" lon="6.00403">
        <ele>230.9</ele>
        <time>2016-01-23T15:17:27Z</time>
      </trkpt>
      <trkpt lat="43.40328" lon="6.00359">
        <ele>231</ele>
        <time>2016-01-23T15:17:28Z</time>
      </trkpt>
      <trkpt lat="43.40325" lon="6.00316">
        <ele>230.7</ele>
        <time>2016-01-23T15:17:29Z</time>
      </trkpt>
      <trkpt lat="43.40322" lon="6.00273">
        <ele>230.8</ele>
        <time>2016-01-23T15:17:30Z</time>
      </trkpt>
      <trkpt lat="43.4032" lon="6.00232">
        <ele>231.5</ele>
        <time>2016-01-23T15:17:31Z</time>
      </trkpt>
      <trkpt lat="43.40317" lon="6.00192">
        <ele>232</ele>
        <time>2016-01-23T15:17:32Z</time>
      </trkpt>
      <trkpt lat="43.40315" lon="6.00153">
        <ele>232.5</ele>
        <time>2016-01-23T15:17:33Z</time>
      </trkpt>
      <trkpt lat="43.40312" lon="6.00116">
        <ele>232.8</ele>
        <time>2016-01-23T15:17:34Z</time>
      </trkpt>
      <trkpt lat="43.4031" lon="6.00079">
        <ele>232.9</ele>
        <time>2016-01-23T15:17:35Z</time>
      </trkpt>
      <trkpt lat="43.40308" lon="6.00043">
        <ele>232.9</ele>
        <time>2016-01-23T15:17:36Z</time>
      </trkpt>
      <trkpt lat="43.40306" lon="6.00007">
        <ele>232.2</ele>
        <time>2016-01-23T15:17:37Z</time>
      </trkpt>
      <trkpt lat="43.40304" lon="5.99971">
        <ele>232.9</ele>
        <time>2016-01-23T15:17:38Z</time>
      </trkpt>
      <trkpt lat="43.40303" lon="5.99935">
        <ele>232.9</ele>
        <time>2016-01-23T15:17:39Z</time>
      </trkpt>
      <trkpt lat="43.40302" lon="5.999">
        <ele>232.9</ele>
        <time>2016-01-23T15:17:40Z</time>
      </trkpt>
      <trkpt lat="43.40302" lon="5.99864">
        <ele>233</ele>
        <time>2016-01-23T15:17:41Z</time>
      </trkpt>
      <trkpt lat="43.40302" lon="5.99829">
        <ele>232.9</ele>
        <time>2016-01-23T15:17:42Z</time>
      </trkpt>
      <trkpt lat="43.40302" lon="5.99793">
        <ele>232.9</ele>
        <time>2016-01-23T15:17:43Z</time>
      </trkpt>
      <trkpt lat="43.40302" lon="5.99758">
        <ele>232.9</ele>
        <time>2016-01-23T15:17:44Z</time>
      </trkpt>
      <trkpt lat="43.40302" lon="5.99723">
        <ele>232.9</ele>
        <time>2016-01-23T15:17:45Z</time>
      </trkpt>
      <trkpt lat="43.40303" lon="5.99687">
        <ele>233.9</ele>
        <time>2016-01-23T15:17:46Z</time>
      </trkpt>
      <trkpt lat="43.40303" lon="5.99651">
        <ele>233.8</ele>
        <time>2016-01-23T15:17:47Z</time>
      </trkpt>
      <trkpt lat="43.40303" lon="5.99614">
        <ele>233.8</ele>
        <time>2016-01-23T15:17:48Z</time>
      </trkpt>
      <trkpt lat="43.40303" lon="5.99577">
        <ele>233.8</ele>
        <time>2016-01-23T15:17:49Z</time>
      </trkpt>
      <trkpt lat="43.40303" lon="5.9954">
        <ele>233.8</ele>
        <time>2016-01-23T15:17:50Z</time>
      </trkpt>
      <trkpt lat="43.40303" lon="5.99503">
        <ele>234.7</ele>
        <time>2016-01-23T15:17:51Z</time>
      </trkpt>
      <trkpt lat="43.40302" lon="5.99467">
        <ele>234.2</ele>
        <time>2016-01-23T15:17:52Z</time>
      </trkpt>
      <trkpt lat="43.40302" lon="5.99431">
        <ele>234.9</ele>
        <time>2016-01-23T15:17:53Z</time>
      </trkpt>
      <trkpt lat="43.40302" lon="5.99395">
        <ele>234.9</ele>
        <time>2016-01-23T15:17:54Z</time>
      </trkpt>
      <trkpt lat="43.40302" lon="5.99359">
        <ele>234.9</ele>
        <time>2016-01-23T15:17:55Z</time>
      </trkpt>
      <trkpt lat="43.40302" lon="5.99323">
        <ele>235</ele>
        <time>2016-01-23T15:17:56Z</time>
      </trkpt>
      <trkpt lat="43.40302" lon="5.99287">
        <ele>235</ele>
        <time>2016-01-23T15:17:57Z</time>
      </trkpt>
      <trkpt lat="43.40303" lon="5.99252">
        <ele>235.8</ele>
        <time>2016-01-23T15:17:58Z</time>
      </trkpt>
      <trkpt lat="43.40304" lon="5.99217">
        <ele>235.9</ele>
        <time>2016-01-23T15:17:59Z</time>
      </trkpt>
      <trkpt lat="43.40305" lon="5.99182">
        <ele>236</ele>
        <time>2016-01-23T15:18:00Z</time>
      </trkpt>
      <trkpt lat="43.40308" lon="5.99148">
        <ele>236.6</ele>
        <time>2016-01-23T15:18:01Z</time>
      </trkpt>
      <trkpt lat="43.40312" lon="5.99113">
        <ele>236</ele>
        <time>2016-01-23T15:18:02Z</time>
      </trkpt>
      <trkpt lat="43.40318" lon="5.99078">
        <ele>236</ele>
        <time>2016-01-23T15:18:03Z</time>
      </trkpt>
      <trkpt lat="43.40324" lon="5.99043">
        <ele>236.3</ele>
        <time>2016-01-23T15:18:04Z</time>
      </trkpt>
      <trkpt lat="43.40331" lon="5.99008">
        <ele>236.9</ele>
        <time>2016-01-23T15:18:05Z</time>
      </trkpt>
      <trkpt lat="43.40339" lon="5.98973">
        <ele>236</ele>
        <time>2016-01-23T15:18:06Z</time>
      </trkpt>
      <trkpt lat="43.40348" lon="5.98938">
        <ele>236.5</ele>
        <time>2016-01-23T15:18:07Z</time>
      </trkpt>
      <trkpt lat="43.40359" lon="5.98904">
        <ele>236.9</ele>
        <time>2016-01-23T15:18:08Z</time>
      </trkpt>
      <trkpt lat="43.4037" lon="5.9887">
        <ele>237</ele>
        <time>2016-01-23T15:18:09Z</time>
      </trkpt>
      <trkpt lat="43.40382" lon="5.98837">
        <ele>237.7</ele>
        <time>2016-01-23T15:18:10Z</time>
      </trkpt>
      <trkpt lat="43.40396" lon="5.98805">
        <ele>237.2</ele>
        <time>2016-01-23T15:18:11Z</time>
      </trkpt>
      <trkpt lat="43.40409" lon="5.98774">
        <ele>237.7</ele>
        <time>2016-01-23T15:18:12Z</time>
      </trkpt>
      <trkpt lat="43.40423" lon="5.98743">
        <ele>238.1</ele>
        <time>2016-01-23T15:18:13Z</time>
      </trkpt>
      <trkpt lat="43.40436" lon="5.98712">
        <ele>238.7</ele>
        <time>2016-01-23T15:18:14Z</time>
      </trkpt>
      <trkpt lat="43.4045" lon="5.98682">
        <ele>238.5</ele>
        <time>2016-01-23T15:18:15Z</time>
      </trkpt>
      <trkpt lat="43.40465" lon="5.98652">
        <ele>238.7</ele>
        <time>2016-01-23T15:18:16Z</time>
      </trkpt>
      <trkpt lat="43.40481" lon="5.98622">
        <ele>239</ele>
        <time>2016-01-23T15:18:17Z</time>
      </trkpt>
      <trkpt lat="43.40498" lon="5.98594">
        <ele>239.6</ele>
        <time>2016-01-23T15:18:18Z</time>
      </trkpt>
      <trkpt lat="43.40517" lon="5.98568">
        <ele>239.7</ele>
        <time>2016-01-23T15:18:19Z</time>
      </trkpt>
      <trkpt lat="43.40535" lon="5.98542">
        <ele>239.5</ele>
        <time>2016-01-23T15:18:20Z</time>
      </trkpt>
      <trkpt lat="43.40553" lon="5.98515">
        <ele>239.5</ele>
        <time>2016-01-23T15:18:21Z</time>
      </trkpt>
      <trkpt lat="43.40571" lon="5.9849">
        <ele>239.4</ele>
        <time>2016-01-23T15:18:22Z</time>
      </trkpt>
      <trkpt lat="43.40588" lon="5.98465">
        <ele>239.4</ele>
        <time>2016-01-23T15:18:23Z</time>
      </trkpt>
      <trkpt lat="43.40605" lon="5.9844">
        <ele>239</ele>
        <time>2016-01-23T15:18:24Z</time>
      </trkpt>
      <trkpt lat="43.4062" lon="5.98413">
        <ele>237.6</ele>
        <time>2016-01-23T15:18:25Z</time>
      </trkpt>
      <trkpt lat="43.40635" lon="5.98383">
        <ele>238.4</ele>
        <time>2016-01-23T15:18:26Z</time>
      </trkpt>
      <trkpt lat="43.4065" lon="5.98349">
        <ele>237.8</ele>
        <time>2016-01-23T15:18:27Z</time>
      </trkpt>
      <trkpt lat="43.40665" lon="5.98312">
        <ele>238.9</ele>
        <time>2016-01-23T15:18:28Z</time>
      </trkpt>
      <trkpt lat="43.4068" lon="5.98274">
        <ele>238.5</ele>
        <time>2016-01-23T15:18:29Z</time>
      </trkpt>
      <trkpt lat="43.40696" lon="5.98235">
        <ele>239</ele>
        <time>2016-01-23T15:18:30Z</time>
      </trkpt>
      <trkpt lat="43.40712" lon="5.98198">
        <ele>239.2</ele>
        <time>2016-01-23T15:18:31Z</time>
      </trkpt>
      <trkpt lat="43.40728" lon="5.98161">
        <ele>238.8</ele>
        <time>2016-01-23T15:18:32Z</time>
      </trkpt>
      <trkpt lat="43.40744" lon="5.98125">
        <ele>239.2</ele>
        <time>2016-01-23T15:18:33Z</time>
      </trkpt>
      <trkpt lat="43.40759" lon="5.98091">
        <ele>239.4</ele>
        <time>2016-01-23T15:18:34Z</time>
      </trkpt>
      <trkpt lat="43.40772" lon="5.98058">
        <ele>239.6</ele>
        <time>2016-01-23T15:18:35Z</time>
      </trkpt>
      <trkpt lat="43.40786" lon="5.98025">
        <ele>239.8</ele>
        <time>2016-01-23T15:18:36Z</time>
      </trkpt>
      <trkpt lat="43.40799" lon="5.97991">
        <ele>239.8</ele>
        <time>2016-01-23T15:18:37Z</time>
      </trkpt>
      <trkpt lat="43.40811" lon="5.97955">
        <ele>240.4</ele>
        <time>2016-01-23T15:18:38Z</time>
      </trkpt>
      <trkpt lat="43.40821" lon="5.97919">
        <ele>240.2</ele>
        <time>2016-01-23T15:18:39Z</time>
      </trkpt>
      <trkpt lat="43.4083" lon="5.97884">
        <ele>240.7</ele>
        <time>2016-01-23T15:18:40Z</time>
      </trkpt>
      <trkpt lat="43.40836" lon="5.97849">
        <ele>241</ele>
        <time>2016-01-23T15:18:41Z</time>
      </trkpt>
      <trkpt lat="43.4084" lon="5.97815">
        <ele>241</ele>
        <time>2016-01-23T15:18:42Z</time>
      </trkpt>
      <trkpt lat="43.40843" lon="5.97782">
        <ele>241</ele>
        <time>2016-01-23T15:18:43Z</time>
      </trkpt>
      <trkpt lat="43.40844" lon="5.97749">
        <ele>241</ele>
        <time>2016-01-23T15:18:44Z</time>
      </trkpt>
      <trkpt lat="43.40845" lon="5.97717">
        <ele>241.6</ele>
        <time>2016-01-23T15:18:45Z</time>
      </trkpt>
      <trkpt lat="43.40843" lon="5.97685">
        <ele>241.8</ele>
        <time>2016-01-23T15:18:46Z</time>
      </trkpt>
      <trkpt lat="43.4084" lon="5.97654">
        <ele>242.4</ele>
        <time>2016-01-23T15:18:47Z</time>
      </trkpt>
      <trkpt lat="43.40837" lon="5.97621">
        <ele>242.9</ele>
        <time>2016-01-23T15:18:48Z</time>
      </trkpt>
      <trkpt lat="43.40833" lon="5.97589">
        <ele>242.9</ele>
        <time>2016-01-23T15:18:49Z</time>
      </trkpt>
      <trkpt lat="43.40829" lon="5.97555">
        <ele>242.7</ele>
        <time>2016-01-23T15:18:50Z</time>
      </trkpt>
      <trkpt lat="43.40825" lon="5.97522">
        <ele>242.7</ele>
        <time>2016-01-23T15:18:51Z</time>
      </trkpt>
      <trkpt lat="43.40821" lon="5.97487">
        <ele>243.8</ele>
        <time>2016-01-23T15:18:52Z</time>
      </trkpt>
      <trkpt lat="43.40817" lon="5.97451">
        <ele>244.4</ele>
        <time>2016-01-23T15:18:53Z</time>
      </trkpt>
      <trkpt lat="43.40814" lon="5.97416">
        <ele>244.7</ele>
        <time>2016-01-23T15:18:54Z</time>
      </trkpt>
      <trkpt lat="43.40811" lon="5.97381">
        <ele>244.8</ele>
        <time>2016-01-23T15:18:55Z</time>
      </trkpt>
      <trkpt lat="43.40808" lon="5.97348">
        <ele>244.9</ele>
        <time>2016-01-23T15:18:56Z</time>
      </trkpt>
      <trkpt lat="43.40805" lon="5.97318">
        <ele>245</ele>
        <time>2016-01-23T15:18:57Z</time>
      </trkpt>
      <trkpt lat="43.40803" lon="5.97289">
        <ele>245.5</ele>
        <time>2016-01-23T15:18:58Z</time>
      </trkpt>
      <trkpt lat="43.40801" lon="5.97261">
        <ele>245.8</ele>
        <time>2016-01-23T15:18:59Z</time>
      </trkpt>
      <trkpt lat="43.40798" lon="5.97233">
        <ele>245.7</ele>
        <time>2016-01-23T15:19:00Z</time>
      </trkpt>
      <trkpt lat="43.40796" lon="5.97205">
        <ele>245.6</ele>
        <time>2016-01-23T15:19:01Z</time>
      </trkpt>
      <trkpt lat="43.40794" lon="5.97178">
        <ele>246.4</ele>
        <time>2016-01-23T15:19:02Z</time>
      </trkpt>
      <trkpt lat="43.40792" lon="5.97149">
        <ele>246.4</ele>
        <time>2016-01-23T15:19:03Z</time>
      </trkpt>
      <trkpt lat="43.40791" lon="5.97119">
        <ele>246.7</ele>
        <time>2016-01-23T15:19:04Z</time>
      </trkpt>
      <trkpt lat="43.40791" lon="5.97088">
        <ele>247.4</ele>
        <time>2016-01-23T15:19:05Z</time>
      </trkpt>
      <trkpt lat="43.40793" lon="5.97052">
        <ele>247.5</ele>
        <time>2016-01-23T15:19:06Z</time>
      </trkpt>
      <trkpt lat="43.40796" lon="5.97013">
        <ele>247.7</ele>
        <time>2016-01-23T15:19:07Z</time>
      </trkpt>
      <trkpt lat="43.408" lon="5.96973">
        <ele>247.8</ele>
        <time>2016-01-23T15:19:08Z</time>
      </trkpt>
      <trkpt lat="43.40804" lon="5.96934">
        <ele>248.3</ele>
        <time>2016-01-23T15:19:09Z</time>
      </trkpt>
      <trkpt lat="43.40809" lon="5.96896">
        <ele>248.9</ele>
        <time>2016-01-23T15:19:10Z</time>
      </trkpt>
      <trkpt lat="43.40813" lon="5.9686">
        <ele>248</ele>
        <time>2016-01-23T15:19:11Z</time>
      </trkpt>
      <trkpt lat="43.40817" lon="5.96828">
        <ele>247.9</ele>
        <time>2016-01-23T15:19:12Z</time>
      </trkpt>
      <trkpt lat="43.4082" lon="5.96795">
        <ele>248.3</ele>
        <time>2016-01-23T15:19:13Z</time>
      </trkpt>
      <trkpt lat="43.40822" lon="5.9676">
        <ele>248.8</ele>
        <time>2016-01-23T15:19:14Z</time>
      </trkpt>
      <trkpt lat="43.40824" lon="5.96722">
        <ele>249.6</ele>
        <time>2016-01-23T15:19:15Z</time>
      </trkpt>
      <trkpt lat="43.40825" lon="5.96681">
        <ele>249.7</ele>
        <time>2016-01-23T15:19:16Z</time>
      </trkpt>
      <trkpt lat="43.40827" lon="5.96637">
        <ele>249.8</ele>
        <time>2016-01-23T15:19:17Z</time>
      </trkpt>
      <trkpt lat="43.40829" lon="5.96589">
        <ele>250.5</ele>
        <time>2016-01-23T15:19:18Z</time>
      </trkpt>
      <trkpt lat="43.40831" lon="5.9654">
        <ele>250.9</ele>
        <time>2016-01-23T15:19:19Z</time>
      </trkpt>
      <trkpt lat="43.40833" lon="5.96493">
        <ele>251</ele>
        <time>2016-01-23T15:19:20Z</time>
      </trkpt>
      <trkpt lat="43.40834" lon="5.96449">
        <ele>251</ele>
        <time>2016-01-23T15:19:21Z</time>
      </trkpt>
      <trkpt lat="43.40835" lon="5.96408">
        <ele>251.3</ele>
        <time>2016-01-23T15:19:22Z</time>
      </trkpt>
      <trkpt lat="43.40837" lon="5.9637">
        <ele>251.9</ele>
        <time>2016-01-23T15:19:23Z</time>
      </trkpt>
      <trkpt lat="43.40838" lon="5.96335">
        <ele>251.8</ele>
        <time>2016-01-23T15:19:24Z</time>
      </trkpt>
      <trkpt lat="43.40838" lon="5.96302">
        <ele>252</ele>
        <time>2016-01-23T15:19:25Z</time>
      </trkpt>
      <trkpt lat="43.40839" lon="5.96269">
        <ele>252</ele>
        <time>2016-01-23T15:19:26Z</time>
      </trkpt>
      <trkpt lat="43.40839" lon="5.96237">
        <ele>252</ele>
        <time>2016-01-23T15:19:27Z</time>
      </trkpt>
      <trkpt lat="43.4084" lon="5.96205">
        <ele>252</ele>
        <time>2016-01-23T15:19:28Z</time>
      </trkpt>
      <trkpt lat="43.40841" lon="5.96172">
        <ele>252.6</ele>
        <time>2016-01-23T15:19:29Z</time>
      </trkpt>
      <trkpt lat="43.40841" lon="5.96136">
        <ele>252.8</ele>
        <time>2016-01-23T15:19:30Z</time>
      </trkpt>
      <trkpt lat="43.40842" lon="5.96099">
        <ele>253</ele>
        <time>2016-01-23T15:19:31Z</time>
      </trkpt>
      <trkpt lat="43.40843" lon="5.96063">
        <ele>253</ele>
        <time>2016-01-23T15:19:32Z</time>
      </trkpt>
      <trkpt lat="43.40844" lon="5.96028">
        <ele>253</ele>
        <time>2016-01-23T15:19:33Z</time>
      </trkpt>
      <trkpt lat="43.40845" lon="5.95991">
        <ele>253</ele>
        <time>2016-01-23T15:19:34Z</time>
      </trkpt>
      <trkpt lat="43.40846" lon="5.95953">
        <ele>253.3</ele>
        <time>2016-01-23T15:19:35Z</time>
      </trkpt>
      <trkpt lat="43.40849" lon="5.95913">
        <ele>253.1</ele>
        <time>2016-01-23T15:19:36Z</time>
      </trkpt>
      <trkpt lat="43.40852" lon="5.95873">
        <ele>253.9</ele>
        <time>2016-01-23T15:19:37Z</time>
      </trkpt>
      <trkpt lat="43.40855" lon="5.95834">
        <ele>254.8</ele>
        <time>2016-01-23T15:19:38Z</time>
      </trkpt>
      <trkpt lat="43.40859" lon="5.95795">
        <ele>254.9</ele>
        <time>2016-01-23T15:19:39Z</time>
      </trkpt>
      <trkpt lat="43.40862" lon="5.95757">
        <ele>255</ele>
        <time>2016-01-23T15:19:40Z</time>
      </trkpt>
      <trkpt lat="43.40866" lon="5.95721">
        <ele>254.8</ele>
        <time>2016-01-23T15:19:41Z</time>
      </trkpt>
      <trkpt lat="43.40869" lon="5.95685">
        <ele>255</ele>
        <time>2016-01-23T15:19:42Z</time>
      </trkpt>
      <trkpt lat="43.40873" lon="5.9565">
        <ele>255</ele>
        <time>2016-01-23T15:19:43Z</time>
      </trkpt>
      <trkpt lat="43.40875" lon="5.95615">
        <ele>255</ele>
        <time>2016-01-23T15:19:44Z</time>
      </trkpt>
      <trkpt lat="43.40878" lon="5.95581">
        <ele>255.6</ele>
        <time>2016-01-23T15:19:45Z</time>
      </trkpt>
      <trkpt lat="43.40879" lon="5.95546">
        <ele>255.6</ele>
        <time>2016-01-23T15:19:46Z</time>
      </trkpt>
      <trkpt lat="43.40879" lon="5.95511">
        <ele>255.7</ele>
        <time>2016-01-23T15:19:47Z</time>
      </trkpt>
      <trkpt lat="43.40879" lon="5.95477">
        <ele>256.2</ele>
        <time>2016-01-23T15:19:48Z</time>
      </trkpt>
      <trkpt lat="43.40878" lon="5.95442">
        <ele>256.2</ele>
        <time>2016-01-23T15:19:49Z</time>
      </trkpt>
      <trkpt lat="43.40878" lon="5.95406">
        <ele>256.3</ele>
        <time>2016-01-23T15:19:50Z</time>
      </trkpt>
      <trkpt lat="43.40877" lon="5.95371">
        <ele>256.6</ele>
        <time>2016-01-23T15:19:51Z</time>
      </trkpt>
      <trkpt lat="43.40876" lon="5.95336">
        <ele>256.5</ele>
        <time>2016-01-23T15:19:52Z</time>
      </trkpt>
      <trkpt lat="43.40874" lon="5.95303">
        <ele>257</ele>
        <time>2016-01-23T15:19:53Z</time>
      </trkpt>
      <trkpt lat="43.40873" lon="5.95271">
        <ele>257.3</ele>
        <time>2016-01-23T15:19:54Z</time>
      </trkpt>
      <trkpt lat="43.40873" lon="5.95239">
        <ele>257.4</ele>
        <time>2016-01-23T15:19:55Z</time>
      </trkpt>
      <trkpt lat="43.40873" lon="5.95209">
        <ele>257.5</ele>
        <time>2016-01-23T15:19:56Z</time>
      </trkpt>
      <trkpt lat="43.40876" lon="5.95179">
        <ele>257.6</ele>
        <time>2016-01-23T15:19:57Z</time>
      </trkpt>
      <trkpt lat="43.40878" lon="5.95149">
        <ele>257.4</ele>
        <time>2016-01-23T15:19:58Z</time>
      </trkpt>
      <trkpt lat="43.40881" lon="5.95118">
        <ele>256.9</ele>
        <time>2016-01-23T15:19:59Z</time>
      </trkpt>
      <trkpt lat="43.40885" lon="5.95088">
        <ele>256.8</ele>
        <time>2016-01-23T15:20:00Z</time>
      </trkpt>
      <trkpt lat="43.40888" lon="5.95059">
        <ele>257</ele>
        <time>2016-01-23T15:20:01Z</time>
      </trkpt>
      <trkpt lat="43.40891" lon="5.95028">
        <ele>257.1</ele>
        <time>2016-01-23T15:20:02Z</time>
      </trkpt>
      <trkpt lat="43.40895" lon="5.94995">
        <ele>257.2</ele>
        <time>2016-01-23T15:20:03Z</time>
      </trkpt>
      <trkpt lat="43.40899" lon="5.9496">
        <ele>256.9</ele>
        <time>2016-01-23T15:20:04Z</time>
      </trkpt>
      <trkpt lat="43.40903" lon="5.94923">
        <ele>257</ele>
        <time>2016-01-23T15:20:05Z</time>
      </trkpt>
      <trkpt lat="43.40907" lon="5.94886">
        <ele>257.3</ele>
        <time>2016-01-23T15:20:06Z</time>
      </trkpt>
      <trkpt lat="43.4091" lon="5.94851">
        <ele>257.5</ele>
        <time>2016-01-23T15:20:07Z</time>
      </trkpt>
      <trkpt lat="43.40913" lon="5.94819">
        <ele>257.8</ele>
        <time>2016-01-23T15:20:08Z</time>
      </trkpt>
      <trkpt lat="43.40916" lon="5.94789">
        <ele>258</ele>
        <time>2016-01-23T15:20:09Z</time>
      </trkpt>
      <trkpt lat="43.40919" lon="5.94761">
        <ele>258</ele>
        <time>2016-01-23T15:20:10Z</time>
      </trkpt>
      <trkpt lat="43.40922" lon="5.94738">
        <ele>258</ele>
        <time>2016-01-23T15:20:11Z</time>
      </trkpt>
      <trkpt lat="43.40924" lon="5.94718">
        <ele>258</ele>
        <time>2016-01-23T15:20:12Z</time>
      </trkpt>
      <trkpt lat="43.40927" lon="5.94703">
        <ele>258</ele>
        <time>2016-01-23T15:20:13Z</time>
      </trkpt>
      <trkpt lat="43.40929" lon="5.94691">
        <ele>258.1</ele>
        <time>2016-01-23T15:20:14Z</time>
      </trkpt>
      <trkpt lat="43.4093" lon="5.94684">
        <ele>258.2</ele>
        <time>2016-01-23T15:20:15Z</time>
      </trkpt>
      <trkpt lat="43.40931" lon="5.94682">
        <ele>258.2</ele>
        <time>2016-01-23T15:20:16Z</time>
      </trkpt>
      <trkpt lat="43.40931" lon="5.94683">
        <ele>258.2</ele>
        <time>2016-01-23T15:20:17Z</time>
      </trkpt>
      <trkpt lat="43.40931" lon="5.94683">
        <ele>258.2</ele>
        <time>2016-01-23T15:20:18Z</time>
      </trkpt>
      <trkpt lat="43.40931" lon="5.94684">
        <ele>258.2</ele>
        <time>2016-01-23T15:20:19Z</time>
      </trkpt>
      <trkpt lat="43.40931" lon="5.94686">
        <ele>258.2</ele>
        <time>2016-01-23T15:20:20Z</time>
      </trkpt>
      <trkpt lat="43.40931" lon="5.94686">
        <ele>258.2</ele>
        <time>2016-01-23T15:20:21Z</time>
      </trkpt>
      <trkpt lat="43.40931" lon="5.94686">
        <ele>258.2</ele>
        <time>2016-01-23T15:20:22Z</time>
      </trkpt>
      <trkpt lat="43.40931" lon="5.94686">
        <ele>258.2</ele>
        <time>2016-01-23T15:20:23Z</time>
      </trkpt>
      <trkpt lat="43.40931" lon="5.94686">
        <ele>258.2</ele>
        <time>2016-01-23T15:20:24Z</time>
      </trkpt>
      <trkpt lat="43.40931" lon="5.94686">
        <ele>258.2</ele>
        <time>2016-01-23T15:20:25Z</time>
      </trkpt>
      <trkpt lat="43.40931" lon="5.94686">
        <ele>258.2</ele>
        <time>2016-01-23T15:20:26Z</time>
      </trkpt>
      <trkpt lat="43.40931" lon="5.94686">
        <ele>258.2</ele>
        <time>2016-01-23T15:20:27Z</time>
      </trkpt>
      <trkpt lat="43.40931" lon="5.94686">
        <ele>258.2</ele>
        <time>2016-01-23T15:20:28Z</time>
      </trkpt>
      <trkpt lat="43.40931" lon="5.94686">
        <ele>258.2</ele>
        <time>2016-01-23T15:20:29Z</time>
      </trkpt>
      <trkpt lat="43.40931" lon="5.94686">
        <ele>258.2</ele>
        <time>2016-01-23T15:20:30Z</time>
      </trkpt>
      <trkpt lat="43.40931" lon="5.94686">
        <ele>258.2</ele>
        <time>2016-01-23T15:20:31Z</time>
      </trkpt>
      <trkpt lat="43.40931" lon="5.94686">
        <ele>258.2</ele>
        <time>2016-01-23T15:20:32Z</time>
      </trkpt>
      <trkpt lat="43.40931" lon="5.94686">
        <ele>258.2</ele>
        <time>2016-01-23T15:20:33Z</time>
      </trkpt>
      <trkpt lat="43.40931" lon="5.94686">
        <ele>258.2</ele>
        <time>2016-01-23T15:20:34Z</time>
      </trkpt>
      <trkpt lat="43.40931" lon="5.94687">
        <ele>258.2</ele>
        <time>2016-01-23T15:20:35Z</time>
      </trkpt>
      <trkpt lat="43.40931" lon="5.94687">
        <ele>258.1</ele>
        <time>2016-01-23T15:20:36Z</time>
      </trkpt>
      <trkpt lat="43.40931" lon="5.94687">
        <ele>258.1</ele>
        <time>2016-01-23T15:20:37Z</time>
      </trkpt>
      <trkpt lat="43.40931" lon="5.94687">
        <ele>258.1</ele>
        <time>2016-01-23T15:20:38Z</time>
      </trkpt>
      <trkpt lat="43.40931" lon="5.94687">
        <ele>258.1</ele>
        <time>2016-01-23T15:20:39Z</time>
      </trkpt>
      <trkpt lat="43.40931" lon="5.94687">
        <ele>258.1</ele>
        <time>2016-01-23T15:20:40Z</time>
      </trkpt>
      <trkpt lat="43.40931" lon="5.94687">
        <ele>258.1</ele>
        <time>2016-01-23T15:20:41Z</time>
      </trkpt>
      <trkpt lat="43.40931" lon="5.94687">
        <ele>258.1</ele>
        <time>2016-01-23T15:20:42Z</time>
      </trkpt>
      <trkpt lat="43.40931" lon="5.94687">
        <ele>258.1</ele>
        <time>2016-01-23T15:20:43Z</time>
      </trkpt>
      <trkpt lat="43.40931" lon="5.94687">
        <ele>258.1</ele>
        <time>2016-01-23T15:20:44Z</time>
      </trkpt>
      <trkpt lat="43.40931" lon="5.94687">
        <ele>258.1</ele>
        <time>2016-01-23T15:20:45Z</time>
      </trkpt>
      <trkpt lat="43.40931" lon="5.94688">
        <ele>258.1</ele>
        <time>2016-01-23T15:20:46Z</time>
      </trkpt>
      <trkpt lat="43.40931" lon="5.94688">
        <ele>258.1</ele>
        <time>2016-01-23T15:20:47Z</time>
      </trkpt>
      <trkpt lat="43.40931" lon="5.94688">
        <ele>258.1</ele>
        <time>2016-01-23T15:20:48Z</time>
      </trkpt>
      <trkpt lat="43.40931" lon="5.94688">
        <ele>258.1</ele>
        <time>2016-01-23T15:20:49Z</time>
      </trkpt>
      <trkpt lat="43.40931" lon="5.94688">
        <ele>258.1</ele>
        <time>2016-01-23T15:20:50Z</time>
      </trkpt>
      <trkpt lat="43.40931" lon="5.94688">
        <ele>258.1</ele>
        <time>2016-01-23T15:20:51Z</time>
      </trkpt>
      <trkpt lat="43.40931" lon="5.94688">
        <ele>258.1</ele>
        <time>2016-01-23T15:20:52Z</time>
      </trkpt>
      <trkpt lat="43.4093" lon="5.94688">
        <ele>258.1</ele>
        <time>2016-01-23T15:20:53Z</time>
      </trkpt>
      <trkpt lat="43.4093" lon="5.94688">
        <ele>258.1</ele>
        <time>2016-01-23T15:20:54Z</time>
      </trkpt>
      <trkpt lat="43.4093" lon="5.94688">
        <ele>258.1</ele>
        <time>2016-01-23T15:20:55Z</time>
      </trkpt>
      <trkpt lat="43.4093" lon="5.94689">
        <ele>258.1</ele>
        <time>2016-01-23T15:20:56Z</time>
      </trkpt>
      <trkpt lat="43.4093" lon="5.94689">
        <ele>258.1</ele>
        <time>2016-01-23T15:20:57Z</time>
      </trkpt>
      <trkpt lat="43.4093" lon="5.94689">
        <ele>258.1</ele>
        <time>2016-01-23T15:20:58Z</time>
      </trkpt>
      <trkpt lat="43.4093" lon="5.94689">
        <ele>258.1</ele>
        <time>2016-01-23T15:20:59Z</time>
      </trkpt>
      <trkpt lat="43.4093" lon="5.9469">
        <ele>258.1</ele>
        <time>2016-01-23T15:21:00Z</time>
      </trkpt>
      <trkpt lat="43.4093" lon="5.9469">
        <ele>258.1</ele>
        <time>2016-01-23T15:21:01Z</time>
      </trkpt>
      <trkpt lat="43.4093" lon="5.94689">
        <ele>258.1</ele>
        <time>2016-01-23T15:21:02Z</time>
      </trkpt>
      <trkpt lat="43.4093" lon="5.94689">
        <ele>258.1</ele>
        <time>2016-01-23T15:21:03Z</time>
      </trkpt>
      <trkpt lat="43.40929" lon="5.94689">
        <ele>258.1</ele>
        <time>2016-01-23T15:21:04Z</time>
      </trkpt>
      <trkpt lat="43.40929" lon="5.94689">
        <ele>258.1</ele>
        <time>2016-01-23T15:21:05Z</time>
      </trkpt>
      <trkpt lat="43.40929" lon="5.94688">
        <ele>258.1</ele>
        <time>2016-01-23T15:21:06Z</time>
      </trkpt>
      <trkpt lat="43.40929" lon="5.94688">
        <ele>258.1</ele>
        <time>2016-01-23T15:21:07Z</time>
      </trkpt>
      <trkpt lat="43.40929" lon="5.94688">
        <ele>258.1</ele>
        <time>2016-01-23T15:21:08Z</time>
      </trkpt>
      <trkpt lat="43.40929" lon="5.94688">
        <ele>258.1</ele>
        <time>2016-01-23T15:21:09Z</time>
      </trkpt>
      <trkpt lat="43.40929" lon="5.94688">
        <ele>258.1</ele>
        <time>2016-01-23T15:21:10Z</time>
      </trkpt>
      <trkpt lat="43.40929" lon="5.94687">
        <ele>258.1</ele>
        <time>2016-01-23T15:21:11Z</time>
      </trkpt>
      <trkpt lat="43.40927" lon="5.9468">
        <ele>258.2</ele>
        <time>2016-01-23T15:21:12Z</time>
      </trkpt>
      <trkpt lat="43.40926" lon="5.94667">
        <ele>258.3</ele>
        <time>2016-01-23T15:21:13Z</time>
      </trkpt>
      <trkpt lat="43.40926" lon="5.9465">
        <ele>258.3</ele>
        <time>2016-01-23T15:21:14Z</time>
      </trkpt>
      <trkpt lat="43.40927" lon="5.94627">
        <ele>258.5</ele>
        <time>2016-01-23T15:21:15Z</time>
      </trkpt>
      <trkpt lat="43.40925" lon="5.94598">
        <ele>258.9</ele>
        <time>2016-01-23T15:21:16Z</time>
      </trkpt>
      <trkpt lat="43.40924" lon="5.94567">
        <ele>259.3</ele>
        <time>2016-01-23T15:21:17Z</time>
      </trkpt>
      <trkpt lat="43.40922" lon="5.94535">
        <ele>260.4</ele>
        <time>2016-01-23T15:21:18Z</time>
      </trkpt>
      <trkpt lat="43.40918" lon="5.94501">
        <ele>260</ele>
        <time>2016-01-23T15:21:19Z</time>
      </trkpt>
      <trkpt lat="43.40912" lon="5.94468">
        <ele>261.7</ele>
        <time>2016-01-23T15:21:20Z</time>
      </trkpt>
      <trkpt lat="43.40906" lon="5.94435">
        <ele>261.5</ele>
        <time>2016-01-23T15:21:21Z</time>
      </trkpt>
      <trkpt lat="43.40896" lon="5.94399">
        <ele>261</ele>
        <time>2016-01-23T15:21:22Z</time>
      </trkpt>
      <trkpt lat="43.40886" lon="5.94363">
        <ele>260.9</ele>
        <time>2016-01-23T15:21:23Z</time>
      </trkpt>
      <trkpt lat="43.40867" lon="5.94319">
        <ele>261.1</ele>
        <time>2016-01-23T15:21:24Z</time>
      </trkpt>
      <trkpt lat="43.40851" lon="5.94278">
        <ele>261.2</ele>
        <time>2016-01-23T15:21:25Z</time>
      </trkpt>
      <trkpt lat="43.40835" lon="5.9424">
        <ele>261.4</ele>
        <time>2016-01-23T15:21:26Z</time>
      </trkpt>
      <trkpt lat="43.4082" lon="5.94202">
        <ele>262.7</ele>
        <time>2016-01-23T15:21:27Z</time>
      </trkpt>
      <trkpt lat="43.40805" lon="5.94165">
        <ele>261.9</ele>
        <time>2016-01-23T15:21:28Z</time>
      </trkpt>
      <trkpt lat="43.4079" lon="5.94128">
        <ele>262</ele>
        <time>2016-01-23T15:21:29Z</time>
      </trkpt>
      <trkpt lat="43.40776" lon="5.94092">
        <ele>262</ele>
        <time>2016-01-23T15:21:30Z</time>
      </trkpt>
      <trkpt lat="43.40762" lon="5.94057">
        <ele>262</ele>
        <time>2016-01-23T15:21:31Z</time>
      </trkpt>
      <trkpt lat="43.40748" lon="5.94022">
        <ele>263.3</ele>
        <time>2016-01-23T15:21:32Z</time>
      </trkpt>
      <trkpt lat="43.40734" lon="5.93988">
        <ele>264.4</ele>
        <time>2016-01-23T15:21:33Z</time>
      </trkpt>
      <trkpt lat="43.40719" lon="5.93954">
        <ele>263.8</ele>
        <time>2016-01-23T15:21:34Z</time>
      </trkpt>
      <trkpt lat="43.40703" lon="5.93921">
        <ele>263.9</ele>
        <time>2016-01-23T15:21:35Z</time>
      </trkpt>
      <trkpt lat="43.40685" lon="5.9389">
        <ele>264</ele>
        <time>2016-01-23T15:21:36Z</time>
      </trkpt>
      <trkpt lat="43.40667" lon="5.93861">
        <ele>265</ele>
        <time>2016-01-23T15:21:37Z</time>
      </trkpt>
      <trkpt lat="43.40649" lon="5.93832">
        <ele>265.6</ele>
        <time>2016-01-23T15:21:38Z</time>
      </trkpt>
      <trkpt lat="43.40631" lon="5.93803">
        <ele>265.2</ele>
        <time>2016-01-23T15:21:39Z</time>
      </trkpt>
      <trkpt lat="43.40612" lon="5.93774">
        <ele>266</ele>
        <time>2016-01-23T15:21:40Z</time>
      </trkpt>
      <trkpt lat="43.40593" lon="5.93744">
        <ele>267.2</ele>
        <time>2016-01-23T15:21:41Z</time>
      </trkpt>
      <trkpt lat="43.40575" lon="5.93714">
        <ele>265.6</ele>
        <time>2016-01-23T15:21:42Z</time>
      </trkpt>
      <trkpt lat="43.40559" lon="5.93682">
        <ele>265.2</ele>
        <time>2016-01-23T15:21:43Z</time>
      </trkpt>
      <trkpt lat="43.40545" lon="5.93649">
        <ele>266</ele>
        <time>2016-01-23T15:21:44Z</time>
      </trkpt>
      <trkpt lat="43.40532" lon="5.93615">
        <ele>268.1</ele>
        <time>2016-01-23T15:21:45Z</time>
      </trkpt>
      <trkpt lat="43.40521" lon="5.9358">
        <ele>267.6</ele>
        <time>2016-01-23T15:21:46Z</time>
      </trkpt>
      <trkpt lat="43.40512" lon="5.93542">
        <ele>267.4</ele>
        <time>2016-01-23T15:21:47Z</time>
      </trkpt>
      <trkpt lat="43.40508" lon="5.935">
        <ele>268</ele>
        <time>2016-01-23T15:21:48Z</time>
      </trkpt>
      <trkpt lat="43.40505" lon="5.93457">
        <ele>268.5</ele>
        <time>2016-01-23T15:21:49Z</time>
      </trkpt>
      <trkpt lat="43.40504" lon="5.93413">
        <ele>268.9</ele>
        <time>2016-01-23T15:21:50Z</time>
      </trkpt>
      <trkpt lat="43.40505" lon="5.93369">
        <ele>268.8</ele>
        <time>2016-01-23T15:21:51Z</time>
      </trkpt>
      <trkpt lat="43.40508" lon="5.93325">
        <ele>269.4</ele>
        <time>2016-01-23T15:21:52Z</time>
      </trkpt>
      <trkpt lat="43.40513" lon="5.93283">
        <ele>270.8</ele>
        <time>2016-01-23T15:21:53Z</time>
      </trkpt>
      <trkpt lat="43.40519" lon="5.93242">
        <ele>271.4</ele>
        <time>2016-01-23T15:21:54Z</time>
      </trkpt>
      <trkpt lat="43.40525" lon="5.93201">
        <ele>271.9</ele>
        <time>2016-01-23T15:21:55Z</time>
      </trkpt>
      <trkpt lat="43.40531" lon="5.93161">
        <ele>272.4</ele>
        <time>2016-01-23T15:21:56Z</time>
      </trkpt>
      <trkpt lat="43.40536" lon="5.93121">
        <ele>273.3</ele>
        <time>2016-01-23T15:21:57Z</time>
      </trkpt>
      <trkpt lat="43.40542" lon="5.93082">
        <ele>273.5</ele>
        <time>2016-01-23T15:21:58Z</time>
      </trkpt>
      <trkpt lat="43.40548" lon="5.93045">
        <ele>274.5</ele>
        <time>2016-01-23T15:21:59Z</time>
      </trkpt>
      <trkpt lat="43.40554" lon="5.93009">
        <ele>274.9</ele>
        <time>2016-01-23T15:22:00Z</time>
      </trkpt>
      <trkpt lat="43.40559" lon="5.92974">
        <ele>275.1</ele>
        <time>2016-01-23T15:22:01Z</time>
      </trkpt>
      <trkpt lat="43.40563" lon="5.92941">
        <ele>274.8</ele>
        <time>2016-01-23T15:22:02Z</time>
      </trkpt>
      <trkpt lat="43.40567" lon="5.92908">
        <ele>275.3</ele>
        <time>2016-01-23T15:22:03Z</time>
      </trkpt>
      <trkpt lat="43.4057" lon="5.92875">
        <ele>275.6</ele>
        <time>2016-01-23T15:22:04Z</time>
      </trkpt>
      <trkpt lat="43.40571" lon="5.9284">
        <ele>276.1</ele>
        <time>2016-01-23T15:22:05Z</time>
      </trkpt>
      <trkpt lat="43.40572" lon="5.92804">
        <ele>277.9</ele>
        <time>2016-01-23T15:22:06Z</time>
      </trkpt>
      <trkpt lat="43.40571" lon="5.92767">
        <ele>278.3</ele>
        <time>2016-01-23T15:22:07Z</time>
      </trkpt>
      <trkpt lat="43.40569" lon="5.92728">
        <ele>278.3</ele>
        <time>2016-01-23T15:22:08Z</time>
      </trkpt>
      <trkpt lat="43.40567" lon="5.9269">
        <ele>278.7</ele>
        <time>2016-01-23T15:22:09Z</time>
      </trkpt>
      <trkpt lat="43.40565" lon="5.92653">
        <ele>279.5</ele>
        <time>2016-01-23T15:22:10Z</time>
      </trkpt>
      <trkpt lat="43.40563" lon="5.92617">
        <ele>279.8</ele>
        <time>2016-01-23T15:22:11Z</time>
      </trkpt>
      <trkpt lat="43.40562" lon="5.92583">
        <ele>280.5</ele>
        <time>2016-01-23T15:22:12Z</time>
      </trkpt>
      <trkpt lat="43.40561" lon="5.92551">
        <ele>282.2</ele>
        <time>2016-01-23T15:22:13Z</time>
      </trkpt>
      <trkpt lat="43.4056" lon="5.92522">
        <ele>283.3</ele>
        <time>2016-01-23T15:22:14Z</time>
      </trkpt>
      <trkpt lat="43.40558" lon="5.92492">
        <ele>284.7</ele>
        <time>2016-01-23T15:22:15Z</time>
      </trkpt>
      <trkpt lat="43.40557" lon="5.92461">
        <ele>284.9</ele>
        <time>2016-01-23T15:22:16Z</time>
      </trkpt>
      <trkpt lat="43.40556" lon="5.92427">
        <ele>285.6</ele>
        <time>2016-01-23T15:22:17Z</time>
      </trkpt>
      <trkpt lat="43.40554" lon="5.92392">
        <ele>283.9</ele>
        <time>2016-01-23T15:22:18Z</time>
      </trkpt>
      <trkpt lat="43.40552" lon="5.92356">
        <ele>286.5</ele>
        <time>2016-01-23T15:22:19Z</time>
      </trkpt>
      <trkpt lat="43.40552" lon="5.92318">
        <ele>288.5</ele>
        <time>2016-01-23T15:22:20Z</time>
      </trkpt>
      <trkpt lat="43.40552" lon="5.9228">
        <ele>290.6</ele>
        <time>2016-01-23T15:22:21Z</time>
      </trkpt>
      <trkpt lat="43.40555" lon="5.92243">
        <ele>292.4</ele>
        <time>2016-01-23T15:22:22Z</time>
      </trkpt>
      <trkpt lat="43.4056" lon="5.92206">
        <ele>293.7</ele>
        <time>2016-01-23T15:22:23Z</time>
      </trkpt>
      <trkpt lat="43.40567" lon="5.9217">
        <ele>297.7</ele>
        <time>2016-01-23T15:22:24Z</time>
      </trkpt>
      <trkpt lat="43.40578" lon="5.92135">
        <ele>298</ele>
        <time>2016-01-23T15:22:25Z</time>
      </trkpt>
      <trkpt lat="43.4059" lon="5.92099">
        <ele>296.7</ele>
        <time>2016-01-23T15:22:26Z</time>
      </trkpt>
      <trkpt lat="43.40601" lon="5.92061">
        <ele>299.1</ele>
        <time>2016-01-23T15:22:27Z</time>
      </trkpt>
      <trkpt lat="43.40613" lon="5.92022">
        <ele>300.4</ele>
        <time>2016-01-23T15:22:28Z</time>
      </trkpt>
      <trkpt lat="43.40625" lon="5.91984">
        <ele>299.1</ele>
        <time>2016-01-23T15:22:29Z</time>
      </trkpt>
      <trkpt lat="43.40637" lon="5.91945">
        <ele>303.1</ele>
        <time>2016-01-23T15:22:30Z</time>
      </trkpt>
      <trkpt lat="43.40649" lon="5.91907">
        <ele>301.3</ele>
        <time>2016-01-23T15:22:31Z</time>
      </trkpt>
      <trkpt lat="43.4066" lon="5.91869">
        <ele>304.2</ele>
        <time>2016-01-23T15:22:32Z</time>
      </trkpt>
      <trkpt lat="43.40672" lon="5.9183">
        <ele>307.8</ele>
        <time>2016-01-23T15:22:33Z</time>
      </trkpt>
      <trkpt lat="43.40683" lon="5.91793">
        <ele>311.4</ele>
        <time>2016-01-23T15:22:34Z</time>
      </trkpt>
      <trkpt lat="43.40695" lon="5.91756">
        <ele>310.9</ele>
        <time>2016-01-23T15:22:35Z</time>
      </trkpt>
      <trkpt lat="43.40706" lon="5.91719">
        <ele>313.3</ele>
        <time>2016-01-23T15:22:36Z</time>
      </trkpt>
      <trkpt lat="43.40717" lon="5.91683">
        <ele>314.5</ele>
        <time>2016-01-23T15:22:37Z</time>
      </trkpt>
      <trkpt lat="43.40728" lon="5.91647">
        <ele>314.1</ele>
        <time>2016-01-23T15:22:38Z</time>
      </trkpt>
      <trkpt lat="43.40738" lon="5.91611">
        <ele>314.4</ele>
        <time>2016-01-23T15:22:39Z</time>
      </trkpt>
      <trkpt lat="43.40749" lon="5.91573">
        <ele>314.6</ele>
        <time>2016-01-23T15:22:40Z</time>
      </trkpt>
      <trkpt lat="43.4076" lon="5.91535">
        <ele>313.6</ele>
        <time>2016-01-23T15:22:41Z</time>
      </trkpt>
      <trkpt lat="43.40771" lon="5.91497">
        <ele>312.7</ele>
        <time>2016-01-23T15:22:42Z</time>
      </trkpt>
      <trkpt lat="43.40783" lon="5.91459">
        <ele>312</ele>
        <time>2016-01-23T15:22:43Z</time>
      </trkpt>
      <trkpt lat="43.40794" lon="5.91422">
        <ele>310.1</ele>
        <time>2016-01-23T15:22:44Z</time>
      </trkpt>
      <trkpt lat="43.40805" lon="5.91385">
        <ele>311.5</ele>
        <time>2016-01-23T15:22:45Z</time>
      </trkpt>
      <trkpt lat="43.40816" lon="5.91348">
        <ele>308.4</ele>
        <time>2016-01-23T15:22:46Z</time>
      </trkpt>
      <trkpt lat="43.40828" lon="5.91311">
        <ele>308</ele>
        <time>2016-01-23T15:22:47Z</time>
      </trkpt>
      <trkpt lat="43.40841" lon="5.91275">
        <ele>307.2</ele>
        <time>2016-01-23T15:22:48Z</time>
      </trkpt>
      <trkpt lat="43.40854" lon="5.91239">
        <ele>305.4</ele>
        <time>2016-01-23T15:22:49Z</time>
      </trkpt>
      <trkpt lat="43.40869" lon="5.91203">
        <ele>306</ele>
        <time>2016-01-23T15:22:50Z</time>
      </trkpt>
      <trkpt lat="43.40885" lon="5.91167">
        <ele>304.4</ele>
        <time>2016-01-23T15:22:51Z</time>
      </trkpt>
      <trkpt lat="43.40903" lon="5.91133">
        <ele>302.9</ele>
        <time>2016-01-23T15:22:52Z</time>
      </trkpt>
      <trkpt lat="43.40922" lon="5.91099">
        <ele>303.7</ele>
        <time>2016-01-23T15:22:53Z</time>
      </trkpt>
      <trkpt lat="43.40944" lon="5.91066">
        <ele>300.5</ele>
        <time>2016-01-23T15:22:54Z</time>
      </trkpt>
      <trkpt lat="43.40966" lon="5.91034">
        <ele>300.6</ele>
        <time>2016-01-23T15:22:55Z</time>
      </trkpt>
      <trkpt lat="43.4099" lon="5.91006">
        <ele>301.6</ele>
        <time>2016-01-23T15:22:56Z</time>
      </trkpt>
      <trkpt lat="43.41014" lon="5.9098">
        <ele>303</ele>
        <time>2016-01-23T15:22:57Z</time>
      </trkpt>
      <trkpt lat="43.41039" lon="5.90955">
        <ele>303.6</ele>
        <time>2016-01-23T15:22:58Z</time>
      </trkpt>
      <trkpt lat="43.41064" lon="5.90932">
        <ele>301.8</ele>
        <time>2016-01-23T15:22:59Z</time>
      </trkpt>
      <trkpt lat="43.4109" lon="5.90913">
        <ele>300</ele>
        <time>2016-01-23T15:23:00Z</time>
      </trkpt>
      <trkpt lat="43.41117" lon="5.90897">
        <ele>298.7</ele>
        <time>2016-01-23T15:23:01Z</time>
      </trkpt>
      <trkpt lat="43.41145" lon="5.90885">
        <ele>300.2</ele>
        <time>2016-01-23T15:23:02Z</time>
      </trkpt>
      <trkpt lat="43.41174" lon="5.90877">
        <ele>301.2</ele>
        <time>2016-01-23T15:23:03Z</time>
      </trkpt>
      <trkpt lat="43.41202" lon="5.90874">
        <ele>303.6</ele>
        <time>2016-01-23T15:23:04Z</time>
      </trkpt>
      <trkpt lat="43.41232" lon="5.90875">
        <ele>306.2</ele>
        <time>2016-01-23T15:23:05Z</time>
      </trkpt>
      <trkpt lat="43.41262" lon="5.90879">
        <ele>305.7</ele>
        <time>2016-01-23T15:23:06Z</time>
      </trkpt>
      <trkpt lat="43.41293" lon="5.90885">
        <ele>302.7</ele>
        <time>2016-01-23T15:23:07Z</time>
      </trkpt>
      <trkpt lat="43.41323" lon="5.90892">
        <ele>302.6</ele>
        <time>2016-01-23T15:23:08Z</time>
      </trkpt>
      <trkpt lat="43.41353" lon="5.90898">
        <ele>302.3</ele>
        <time>2016-01-23T15:23:09Z</time>
      </trkpt>
      <trkpt lat="43.41381" lon="5.90902">
        <ele>302</ele>
        <time>2016-01-23T15:23:10Z</time>
      </trkpt>
      <trkpt lat="43.4141" lon="5.90902">
        <ele>302.1</ele>
        <time>2016-01-23T15:23:11Z</time>
      </trkpt>
      <trkpt lat="43.4144" lon="5.909">
        <ele>301.4</ele>
        <time>2016-01-23T15:23:12Z</time>
      </trkpt>
      <trkpt lat="43.41472" lon="5.90897">
        <ele>300.7</ele>
        <time>2016-01-23T15:23:13Z</time>
      </trkpt>
      <trkpt lat="43.41506" lon="5.90892">
        <ele>299.9</ele>
        <time>2016-01-23T15:23:14Z</time>
      </trkpt>
      <trkpt lat="43.4154" lon="5.90886">
        <ele>300</ele>
        <time>2016-01-23T15:23:15Z</time>
      </trkpt>
      <trkpt lat="43.41575" lon="5.9088">
        <ele>300</ele>
        <time>2016-01-23T15:23:16Z</time>
      </trkpt>
      <trkpt lat="43.4161" lon="5.90874">
        <ele>300</ele>
        <time>2016-01-23T15:23:17Z</time>
      </trkpt>
      <trkpt lat="43.41646" lon="5.90868">
        <ele>300</ele>
        <time>2016-01-23T15:23:18Z</time>
      </trkpt>
      <trkpt lat="43.41682" lon="5.90861">
        <ele>301.6</ele>
        <time>2016-01-23T15:23:19Z</time>
      </trkpt>
      <trkpt lat="43.41716" lon="5.90854">
        <ele>302.8</ele>
        <time>2016-01-23T15:23:20Z</time>
      </trkpt>
      <trkpt lat="43.41749" lon="5.90847">
        <ele>302.5</ele>
        <time>2016-01-23T15:23:21Z</time>
      </trkpt>
      <trkpt lat="43.41781" lon="5.90839">
        <ele>305.5</ele>
        <time>2016-01-23T15:23:22Z</time>
      </trkpt>
      <trkpt lat="43.41814" lon="5.9083">
        <ele>307.3</ele>
        <time>2016-01-23T15:23:23Z</time>
      </trkpt>
      <trkpt lat="43.41845" lon="5.90821">
        <ele>308.7</ele>
        <time>2016-01-23T15:23:24Z</time>
      </trkpt>
      <trkpt lat="43.41875" lon="5.90811">
        <ele>309</ele>
        <time>2016-01-23T15:23:25Z</time>
      </trkpt>
      <trkpt lat="43.41904" lon="5.90802">
        <ele>308.6</ele>
        <time>2016-01-23T15:23:26Z</time>
      </trkpt>
      <trkpt lat="43.41932" lon="5.90793">
        <ele>308</ele>
        <time>2016-01-23T15:23:27Z</time>
      </trkpt>
      <trkpt lat="43.4196" lon="5.90784">
        <ele>309.3</ele>
        <time>2016-01-23T15:23:28Z</time>
      </trkpt>
      <trkpt lat="43.41986" lon="5.90775">
        <ele>309.9</ele>
        <time>2016-01-23T15:23:29Z</time>
      </trkpt>
      <trkpt lat="43.42011" lon="5.90766">
        <ele>309.3</ele>
        <time>2016-01-23T15:23:30Z</time>
      </trkpt>
      <trkpt lat="43.42037" lon="5.90758">
        <ele>310.5</ele>
        <time>2016-01-23T15:23:31Z</time>
      </trkpt>
      <trkpt lat="43.42063" lon="5.90749">
        <ele>310</ele>
        <time>2016-01-23T15:23:32Z</time>
      </trkpt>
      <trkpt lat="43.4209" lon="5.90739">
        <ele>307.7</ele>
        <time>2016-01-23T15:23:33Z</time>
      </trkpt>
      <trkpt lat="43.42118" lon="5.9073">
        <ele>308.7</ele>
        <time>2016-01-23T15:23:34Z</time>
      </trkpt>
      <trkpt lat="43.42145" lon="5.9072">
        <ele>308</ele>
        <time>2016-01-23T15:23:35Z</time>
      </trkpt>
      <trkpt lat="43.42172" lon="5.9071">
        <ele>306.1</ele>
        <time>2016-01-23T15:23:36Z</time>
      </trkpt>
      <trkpt lat="43.42198" lon="5.90699">
        <ele>307.4</ele>
        <time>2016-01-23T15:23:37Z</time>
      </trkpt>
      <trkpt lat="43.42224" lon="5.90687">
        <ele>306.5</ele>
        <time>2016-01-23T15:23:38Z</time>
      </trkpt>
      <trkpt lat="43.4225" lon="5.90673">
        <ele>308.1</ele>
        <time>2016-01-23T15:23:39Z</time>
      </trkpt>
      <trkpt lat="43.42276" lon="5.90657">
        <ele>307.9</ele>
        <time>2016-01-23T15:23:40Z</time>
      </trkpt>
      <trkpt lat="43.42301" lon="5.90639">
        <ele>309.6</ele>
        <time>2016-01-23T15:23:41Z</time>
      </trkpt>
      <trkpt lat="43.42326" lon="5.90618">
        <ele>310.1</ele>
        <time>2016-01-23T15:23:42Z</time>
      </trkpt>
      <trkpt lat="43.4235" lon="5.90593">
        <ele>310.8</ele>
        <time>2016-01-23T15:23:43Z</time>
      </trkpt>
      <trkpt lat="43.42374" lon="5.90567">
        <ele>312.8</ele>
        <time>2016-01-23T15:23:44Z</time>
      </trkpt>
      <trkpt lat="43.42396" lon="5.90538">
        <ele>314.5</ele>
        <time>2016-01-23T15:23:45Z</time>
      </trkpt>
      <trkpt lat="43.42417" lon="5.90506">
        <ele>313.7</ele>
        <time>2016-01-23T15:23:46Z</time>
      </trkpt>
      <trkpt lat="43.42438" lon="5.90473">
        <ele>317.3</ele>
        <time>2016-01-23T15:23:47Z</time>
      </trkpt>
      <trkpt lat="43.42455" lon="5.90439">
        <ele>314.4</ele>
        <time>2016-01-23T15:23:48Z</time>
      </trkpt>
      <trkpt lat="43.42468" lon="5.90404">
        <ele>314.1</ele>
        <time>2016-01-23T15:23:49Z</time>
      </trkpt>
      <trkpt lat="43.4248" lon="5.90369">
        <ele>312.1</ele>
        <time>2016-01-23T15:23:50Z</time>
      </trkpt>
      <trkpt lat="43.42491" lon="5.90334">
        <ele>309.7</ele>
        <time>2016-01-23T15:23:51Z</time>
      </trkpt>
      <trkpt lat="43.42501" lon="5.90299">
        <ele>307.3</ele>
        <time>2016-01-23T15:23:52Z</time>
      </trkpt>
      <trkpt lat="43.4251" lon="5.90262">
        <ele>306.2</ele>
        <time>2016-01-23T15:23:53Z</time>
      </trkpt>
      <trkpt lat="43.4252" lon="5.90224">
        <ele>304.1</ele>
        <time>2016-01-23T15:23:54Z</time>
      </trkpt>
      <trkpt lat="43.4253" lon="5.90185">
        <ele>304.8</ele>
        <time>2016-01-23T15:23:55Z</time>
      </trkpt>
      <trkpt lat="43.4254" lon="5.90146">
        <ele>302.8</ele>
        <time>2016-01-23T15:23:56Z</time>
      </trkpt>
      <trkpt lat="43.42551" lon="5.90106">
        <ele>300</ele>
        <time>2016-01-23T15:23:57Z</time>
      </trkpt>
      <trkpt lat="43.42561" lon="5.90067">
        <ele>300.8</ele>
        <time>2016-01-23T15:23:58Z</time>
      </trkpt>
      <trkpt lat="43.42572" lon="5.90027">
        <ele>297.2</ele>
        <time>2016-01-23T15:23:59Z</time>
      </trkpt>
      <trkpt lat="43.42583" lon="5.89986">
        <ele>298</ele>
        <time>2016-01-23T15:24:00Z</time>
      </trkpt>
      <trkpt lat="43.42595" lon="5.89944">
        <ele>297.2</ele>
        <time>2016-01-23T15:24:01Z</time>
      </trkpt>
      <trkpt lat="43.42606" lon="5.89901">
        <ele>296.6</ele>
        <time>2016-01-23T15:24:02Z</time>
      </trkpt>
      <trkpt lat="43.42618" lon="5.89858">
        <ele>296.6</ele>
        <time>2016-01-23T15:24:03Z</time>
      </trkpt>
      <trkpt lat="43.42629" lon="5.89815">
        <ele>295.3</ele>
        <time>2016-01-23T15:24:04Z</time>
      </trkpt>
      <trkpt lat="43.42641" lon="5.89772">
        <ele>294.1</ele>
        <time>2016-01-23T15:24:05Z</time>
      </trkpt>
      <trkpt lat="43.42652" lon="5.89732">
        <ele>292.9</ele>
        <time>2016-01-23T15:24:06Z</time>
      </trkpt>
      <trkpt lat="43.42663" lon="5.89693">
        <ele>293.8</ele>
        <time>2016-01-23T15:24:07Z</time>
      </trkpt>
      <trkpt lat="43.42674" lon="5.89656">
        <ele>292.2</ele>
        <time>2016-01-23T15:24:08Z</time>
      </trkpt>
      <trkpt lat="43.42684" lon="5.89621">
        <ele>290.6</ele>
        <time>2016-01-23T15:24:09Z</time>
      </trkpt>
      <trkpt lat="43.42693" lon="5.89588">
        <ele>291.6</ele>
        <time>2016-01-23T15:24:10Z</time>
      </trkpt>
      <trkpt lat="43.42702" lon="5.89557">
        <ele>290.5</ele>
        <time>2016-01-23T15:24:11Z</time>
      </trkpt>
      <trkpt lat="43.4271" lon="5.89527">
        <ele>290.4</ele>
        <time>2016-01-23T15:24:12Z</time>
      </trkpt>
      <trkpt lat="43.42718" lon="5.89496">
        <ele>290</ele>
        <time>2016-01-23T15:24:13Z</time>
      </trkpt>
      <trkpt lat="43.42727" lon="5.89465">
        <ele>290</ele>
        <time>2016-01-23T15:24:14Z</time>
      </trkpt>
      <trkpt lat="43.42735" lon="5.89434">
        <ele>291</ele>
        <time>2016-01-23T15:24:15Z</time>
      </trkpt>
      <trkpt lat="43.42743" lon="5.89402">
        <ele>291.5</ele>
        <time>2016-01-23T15:24:16Z</time>
      </trkpt>
      <trkpt lat="43.42753" lon="5.89369">
        <ele>289.6</ele>
        <time>2016-01-23T15:24:17Z</time>
      </trkpt>
      <trkpt lat="43.42762" lon="5.89335">
        <ele>288.5</ele>
        <time>2016-01-23T15:24:18Z</time>
      </trkpt>
      <trkpt lat="43.42772" lon="5.89301">
        <ele>287.8</ele>
        <time>2016-01-23T15:24:19Z</time>
      </trkpt>
      <trkpt lat="43.42782" lon="5.89266">
        <ele>287.9</ele>
        <time>2016-01-23T15:24:20Z</time>
      </trkpt>
      <trkpt lat="43.42791" lon="5.89232">
        <ele>287.5</ele>
        <time>2016-01-23T15:24:21Z</time>
      </trkpt>
      <trkpt lat="43.42801" lon="5.89197">
        <ele>287.9</ele>
        <time>2016-01-23T15:24:22Z</time>
      </trkpt>
      <trkpt lat="43.42811" lon="5.89163">
        <ele>288.3</ele>
        <time>2016-01-23T15:24:23Z</time>
      </trkpt>
      <trkpt lat="43.4282" lon="5.89129">
        <ele>287.4</ele>
        <time>2016-01-23T15:24:24Z</time>
      </trkpt>
      <trkpt lat="43.4283" lon="5.89095">
        <ele>288.6</ele>
        <time>2016-01-23T15:24:25Z</time>
      </trkpt>
      <trkpt lat="43.42839" lon="5.89061">
        <ele>289.2</ele>
        <time>2016-01-23T15:24:26Z</time>
      </trkpt>
      <trkpt lat="43.42848" lon="5.89028">
        <ele>290.6</ele>
        <time>2016-01-23T15:24:27Z</time>
      </trkpt>
      <trkpt lat="43.42858" lon="5.88996">
        <ele>290.7</ele>
        <time>2016-01-23T15:24:28Z</time>
      </trkpt>
      <trkpt lat="43.42867" lon="5.88962">
        <ele>290.2</ele>
        <time>2016-01-23T15:24:29Z</time>
      </trkpt>
      <trkpt lat="43.42876" lon="5.88929">
        <ele>290</ele>
        <time>2016-01-23T15:24:30Z</time>
      </trkpt>
      <trkpt lat="43.42885" lon="5.88897">
        <ele>290</ele>
        <time>2016-01-23T15:24:31Z</time>
      </trkpt>
      <trkpt lat="43.42894" lon="5.88866">
        <ele>290.3</ele>
        <time>2016-01-23T15:24:32Z</time>
      </trkpt>
      <trkpt lat="43.42903" lon="5.88834">
        <ele>291.4</ele>
        <time>2016-01-23T15:24:33Z</time>
      </trkpt>
      <trkpt lat="43.42913" lon="5.88803">
        <ele>290</ele>
        <time>2016-01-23T15:24:34Z</time>
      </trkpt>
      <trkpt lat="43.42924" lon="5.88771">
        <ele>289.1</ele>
        <time>2016-01-23T15:24:35Z</time>
      </trkpt>
      <trkpt lat="43.42938" lon="5.88739">
        <ele>288.4</ele>
        <time>2016-01-23T15:24:36Z</time>
      </trkpt>
      <trkpt lat="43.42954" lon="5.88708">
        <ele>287.7</ele>
        <time>2016-01-23T15:24:37Z</time>
      </trkpt>
      <trkpt lat="43.42972" lon="5.88678">
        <ele>288.7</ele>
        <time>2016-01-23T15:24:38Z</time>
      </trkpt>
      <trkpt lat="43.4299" lon="5.8865">
        <ele>286.8</ele>
        <time>2016-01-23T15:24:39Z</time>
      </trkpt>
      <trkpt lat="43.43007" lon="5.88624">
        <ele>287.4</ele>
        <time>2016-01-23T15:24:40Z</time>
      </trkpt>
      <trkpt lat="43.43024" lon="5.88598">
        <ele>291.4</ele>
        <time>2016-01-23T15:24:41Z</time>
      </trkpt>
      <trkpt lat="43.43042" lon="5.88573">
        <ele>294.1</ele>
        <time>2016-01-23T15:24:42Z</time>
      </trkpt>
      <trkpt lat="43.43058" lon="5.88548">
        <ele>296.6</ele>
        <time>2016-01-23T15:24:43Z</time>
      </trkpt>
      <trkpt lat="43.43075" lon="5.88524">
        <ele>297.4</ele>
        <time>2016-01-23T15:24:44Z</time>
      </trkpt>
      <trkpt lat="43.43091" lon="5.88498">
        <ele>297.1</ele>
        <time>2016-01-23T15:24:45Z</time>
      </trkpt>
      <trkpt lat="43.43108" lon="5.88473">
        <ele>297.2</ele>
        <time>2016-01-23T15:24:46Z</time>
      </trkpt>
      <trkpt lat="43.43125" lon="5.88447">
        <ele>295.5</ele>
        <time>2016-01-23T15:24:47Z</time>
      </trkpt>
      <trkpt lat="43.43143" lon="5.8842">
        <ele>296</ele>
        <time>2016-01-23T15:24:48Z</time>
      </trkpt>
      <trkpt lat="43.43161" lon="5.88391">
        <ele>297.2</ele>
        <time>2016-01-23T15:24:49Z</time>
      </trkpt>
      <trkpt lat="43.43182" lon="5.88361">
        <ele>300.4</ele>
        <time>2016-01-23T15:24:50Z</time>
      </trkpt>
      <trkpt lat="43.43202" lon="5.88329">
        <ele>300.1</ele>
        <time>2016-01-23T15:24:51Z</time>
      </trkpt>
      <trkpt lat="43.43223" lon="5.88297">
        <ele>300.5</ele>
        <time>2016-01-23T15:24:52Z</time>
      </trkpt>
      <trkpt lat="43.43244" lon="5.88266">
        <ele>300.3</ele>
        <time>2016-01-23T15:24:53Z</time>
      </trkpt>
      <trkpt lat="43.43263" lon="5.88238">
        <ele>299.6</ele>
        <time>2016-01-23T15:24:54Z</time>
      </trkpt>
      <trkpt lat="43.43282" lon="5.8821">
        <ele>298.7</ele>
        <time>2016-01-23T15:24:55Z</time>
      </trkpt>
      <trkpt lat="43.43301" lon="5.88183">
        <ele>299.1</ele>
        <time>2016-01-23T15:24:56Z</time>
      </trkpt>
      <trkpt lat="43.43319" lon="5.88157">
        <ele>298.5</ele>
        <time>2016-01-23T15:24:57Z</time>
      </trkpt>
      <trkpt lat="43.43336" lon="5.88131">
        <ele>300</ele>
        <time>2016-01-23T15:24:58Z</time>
      </trkpt>
      <trkpt lat="43.43354" lon="5.88105">
        <ele>300.3</ele>
        <time>2016-01-23T15:24:59Z</time>
      </trkpt>
      <trkpt lat="43.4337" lon="5.8808">
        <ele>302.3</ele>
        <time>2016-01-23T15:25:00Z</time>
      </trkpt>
      <trkpt lat="43.43386" lon="5.88056">
        <ele>305.4</ele>
        <time>2016-01-23T15:25:01Z</time>
      </trkpt>
      <trkpt lat="43.43401" lon="5.88031">
        <ele>308.1</ele>
        <time>2016-01-23T15:25:02Z</time>
      </trkpt>
      <trkpt lat="43.43418" lon="5.88005">
        <ele>311.1</ele>
        <time>2016-01-23T15:25:03Z</time>
      </trkpt>
      <trkpt lat="43.43435" lon="5.87979">
        <ele>311.9</ele>
        <time>2016-01-23T15:25:04Z</time>
      </trkpt>
      <trkpt lat="43.43453" lon="5.87951">
        <ele>308.7</ele>
        <time>2016-01-23T15:25:05Z</time>
      </trkpt>
      <trkpt lat="43.43471" lon="5.87922">
        <ele>308.7</ele>
        <time>2016-01-23T15:25:06Z</time>
      </trkpt>
      <trkpt lat="43.43491" lon="5.87891">
        <ele>308.9</ele>
        <time>2016-01-23T15:25:07Z</time>
      </trkpt>
      <trkpt lat="43.43512" lon="5.8786">
        <ele>308.8</ele>
        <time>2016-01-23T15:25:08Z</time>
      </trkpt>
      <trkpt lat="43.43532" lon="5.87829">
        <ele>311</ele>
        <time>2016-01-23T15:25:09Z</time>
      </trkpt>
      <trkpt lat="43.43551" lon="5.87799">
        <ele>313.1</ele>
        <time>2016-01-23T15:25:10Z</time>
      </trkpt>
      <trkpt lat="43.43571" lon="5.87769">
        <ele>315</ele>
        <time>2016-01-23T15:25:11Z</time>
      </trkpt>
      <trkpt lat="43.43591" lon="5.8774">
        <ele>316.9</ele>
        <time>2016-01-23T15:25:12Z</time>
      </trkpt>
      <trkpt lat="43.43613" lon="5.87714">
        <ele>317.5</ele>
        <time>2016-01-23T15:25:13Z</time>
      </trkpt>
      <trkpt lat="43.43634" lon="5.8769">
        <ele>317.2</ele>
        <time>2016-01-23T15:25:14Z</time>
      </trkpt>
      <trkpt lat="43.43656" lon="5.87667">
        <ele>315.8</ele>
        <time>2016-01-23T15:25:15Z</time>
      </trkpt>
      <trkpt lat="43.4368" lon="5.87646">
        <ele>314.3</ele>
        <time>2016-01-23T15:25:16Z</time>
      </trkpt>
      <trkpt lat="43.43703" lon="5.87625">
        <ele>312.9</ele>
        <time>2016-01-23T15:25:17Z</time>
      </trkpt>
      <trkpt lat="43.43727" lon="5.87605">
        <ele>311.1</ele>
        <time>2016-01-23T15:25:18Z</time>
      </trkpt>
      <trkpt lat="43.43751" lon="5.87586">
        <ele>310.1</ele>
        <time>2016-01-23T15:25:19Z</time>
      </trkpt>
      <trkpt lat="43.43775" lon="5.87567">
        <ele>308.3</ele>
        <time>2016-01-23T15:25:20Z</time>
      </trkpt>
      <trkpt lat="43.43798" lon="5.87547">
        <ele>307.5</ele>
        <time>2016-01-23T15:25:21Z</time>
      </trkpt>
      <trkpt lat="43.4382" lon="5.87524">
        <ele>306.6</ele>
        <time>2016-01-23T15:25:22Z</time>
      </trkpt>
      <trkpt lat="43.43842" lon="5.87498">
        <ele>305.8</ele>
        <time>2016-01-23T15:25:23Z</time>
      </trkpt>
      <trkpt lat="43.43864" lon="5.87468">
        <ele>306.8</ele>
        <time>2016-01-23T15:25:24Z</time>
      </trkpt>
      <trkpt lat="43.43885" lon="5.87438">
        <ele>307.8</ele>
        <time>2016-01-23T15:25:25Z</time>
      </trkpt>
      <trkpt lat="43.43906" lon="5.87408">
        <ele>308.6</ele>
        <time>2016-01-23T15:25:26Z</time>
      </trkpt>
      <trkpt lat="43.43926" lon="5.8738">
        <ele>311</ele>
        <time>2016-01-23T15:25:27Z</time>
      </trkpt>
      <trkpt lat="43.43946" lon="5.87353">
        <ele>311.4</ele>
        <time>2016-01-23T15:25:28Z</time>
      </trkpt>
      <trkpt lat="43.43964" lon="5.87327">
        <ele>312.8</ele>
        <time>2016-01-23T15:25:29Z</time>
      </trkpt>
      <trkpt lat="43.43982" lon="5.87302">
        <ele>313.1</ele>
        <time>2016-01-23T15:25:30Z</time>
      </trkpt>
      <trkpt lat="43.43999" lon="5.87278">
        <ele>314</ele>
        <time>2016-01-23T15:25:31Z</time>
      </trkpt>
      <trkpt lat="43.44017" lon="5.87253">
        <ele>314.9</ele>
        <time>2016-01-23T15:25:32Z</time>
      </trkpt>
      <trkpt lat="43.44033" lon="5.87229">
        <ele>315.1</ele>
        <time>2016-01-23T15:25:33Z</time>
      </trkpt>
      <trkpt lat="43.4405" lon="5.87205">
        <ele>315.9</ele>
        <time>2016-01-23T15:25:34Z</time>
      </trkpt>
      <trkpt lat="43.44065" lon="5.87183">
        <ele>316.4</ele>
        <time>2016-01-23T15:25:35Z</time>
      </trkpt>
      <trkpt lat="43.4408" lon="5.87163">
        <ele>317</ele>
        <time>2016-01-23T15:25:36Z</time>
      </trkpt>
      <trkpt lat="43.44094" lon="5.87144">
        <ele>316.9</ele>
        <time>2016-01-23T15:25:37Z</time>
      </trkpt>
      <trkpt lat="43.44107" lon="5.87124">
        <ele>317</ele>
        <time>2016-01-23T15:25:38Z</time>
      </trkpt>
      <trkpt lat="43.44121" lon="5.87104">
        <ele>316.3</ele>
        <time>2016-01-23T15:25:39Z</time>
      </trkpt>
      <trkpt lat="43.44134" lon="5.87085">
        <ele>316.7</ele>
        <time>2016-01-23T15:25:40Z</time>
      </trkpt>
      <trkpt lat="43.44147" lon="5.87067">
        <ele>316.6</ele>
        <time>2016-01-23T15:25:41Z</time>
      </trkpt>
      <trkpt lat="43.4416" lon="5.8705">
        <ele>316.4</ele>
        <time>2016-01-23T15:25:42Z</time>
      </trkpt>
      <trkpt lat="43.44173" lon="5.87033">
        <ele>316.6</ele>
        <time>2016-01-23T15:25:43Z</time>
      </trkpt>
      <trkpt lat="43.44185" lon="5.87018">
        <ele>316.6</ele>
        <time>2016-01-23T15:25:44Z</time>
      </trkpt>
      <trkpt lat="43.44196" lon="5.87004">
        <ele>316.8</ele>
        <time>2016-01-23T15:25:45Z</time>
      </trkpt>
      <trkpt lat="43.44208" lon="5.86992">
        <ele>316.5</ele>
        <time>2016-01-23T15:25:46Z</time>
      </trkpt>
      <trkpt lat="43.44221" lon="5.86982">
        <ele>316.6</ele>
        <time>2016-01-23T15:25:47Z</time>
      </trkpt>
      <trkpt lat="43.44236" lon="5.86977">
        <ele>316.8</ele>
        <time>2016-01-23T15:25:48Z</time>
      </trkpt>
      <trkpt lat="43.44252" lon="5.86975">
        <ele>317</ele>
        <time>2016-01-23T15:25:49Z</time>
      </trkpt>
      <trkpt lat="43.44269" lon="5.86977">
        <ele>317.5</ele>
        <time>2016-01-23T15:25:50Z</time>
      </trkpt>
      <trkpt lat="43.44288" lon="5.86982">
        <ele>318.2</ele>
        <time>2016-01-23T15:25:51Z</time>
      </trkpt>
      <trkpt lat="43.44307" lon="5.86988">
        <ele>318.8</ele>
        <time>2016-01-23T15:25:52Z</time>
      </trkpt>
      <trkpt lat="43.44327" lon="5.86995">
        <ele>318.1</ele>
        <time>2016-01-23T15:25:53Z</time>
      </trkpt>
      <trkpt lat="43.44347" lon="5.87003">
        <ele>317.4</ele>
        <time>2016-01-23T15:25:54Z</time>
      </trkpt>
      <trkpt lat="43.44366" lon="5.87013">
        <ele>317</ele>
        <time>2016-01-23T15:25:55Z</time>
      </trkpt>
      <trkpt lat="43.44386" lon="5.87026">
        <ele>316.2</ele>
        <time>2016-01-23T15:25:56Z</time>
      </trkpt>
      <trkpt lat="43.44407" lon="5.87042">
        <ele>315.7</ele>
        <time>2016-01-23T15:25:57Z</time>
      </trkpt>
      <trkpt lat="43.4443" lon="5.87059">
        <ele>314.5</ele>
        <time>2016-01-23T15:25:58Z</time>
      </trkpt>
      <trkpt lat="43.44455" lon="5.87077">
        <ele>313.1</ele>
        <time>2016-01-23T15:25:59Z</time>
      </trkpt>
      <trkpt lat="43.44479" lon="5.87095">
        <ele>311.9</ele>
        <time>2016-01-23T15:26:00Z</time>
      </trkpt>
      <trkpt lat="43.44502" lon="5.87114">
        <ele>310.4</ele>
        <time>2016-01-23T15:26:01Z</time>
      </trkpt>
      <trkpt lat="43.44525" lon="5.87131">
        <ele>310.4</ele>
        <time>2016-01-23T15:26:02Z</time>
      </trkpt>
      <trkpt lat="43.44547" lon="5.8715">
        <ele>309.6</ele>
        <time>2016-01-23T15:26:03Z</time>
      </trkpt>
      <trkpt lat="43.44568" lon="5.87168">
        <ele>308</ele>
        <time>2016-01-23T15:26:04Z</time>
      </trkpt>
      <trkpt lat="43.44589" lon="5.87187">
        <ele>306.7</ele>
        <time>2016-01-23T15:26:05Z</time>
      </trkpt>
      <trkpt lat="43.44609" lon="5.87207">
        <ele>306.2</ele>
        <time>2016-01-23T15:26:06Z</time>
      </trkpt>
      <trkpt lat="43.44628" lon="5.87227">
        <ele>305.5</ele>
        <time>2016-01-23T15:26:07Z</time>
      </trkpt>
      <trkpt lat="43.44645" lon="5.87248">
        <ele>303.6</ele>
        <time>2016-01-23T15:26:08Z</time>
      </trkpt>
      <trkpt lat="43.44661" lon="5.8727">
        <ele>303.2</ele>
        <time>2016-01-23T15:26:09Z</time>
      </trkpt>
      <trkpt lat="43.44677" lon="5.87291">
        <ele>301.4</ele>
        <time>2016-01-23T15:26:10Z</time>
      </trkpt>
      <trkpt lat="43.4469" lon="5.87311">
        <ele>299.9</ele>
        <time>2016-01-23T15:26:11Z</time>
      </trkpt>
      <trkpt lat="43.44703" lon="5.87331">
        <ele>297.9</ele>
        <time>2016-01-23T15:26:12Z</time>
      </trkpt>
      <trkpt lat="43.44716" lon="5.8735">
        <ele>296.8</ele>
        <time>2016-01-23T15:26:13Z</time>
      </trkpt>
      <trkpt lat="43.44727" lon="5.87369">
        <ele>296.5</ele>
        <time>2016-01-23T15:26:14Z</time>
      </trkpt>
      <trkpt lat="43.44739" lon="5.87387">
        <ele>295.3</ele>
        <time>2016-01-23T15:26:15Z</time>
      </trkpt>
      <trkpt lat="43.44751" lon="5.87406">
        <ele>295.5</ele>
        <time>2016-01-23T15:26:16Z</time>
      </trkpt>
      <trkpt lat="43.44763" lon="5.87425">
        <ele>293</ele>
        <time>2016-01-23T15:26:17Z</time>
      </trkpt>
      <trkpt lat="43.44775" lon="5.87444">
        <ele>293.6</ele>
        <time>2016-01-23T15:26:18Z</time>
      </trkpt>
      <trkpt lat="43.44786" lon="5.87462">
        <ele>292</ele>
        <time>2016-01-23T15:26:19Z</time>
      </trkpt>
      <trkpt lat="43.44797" lon="5.87478">
        <ele>291.3</ele>
        <time>2016-01-23T15:26:20Z</time>
      </trkpt>
      <trkpt lat="43.44807" lon="5.87492">
        <ele>291.6</ele>
        <time>2016-01-23T15:26:21Z</time>
      </trkpt>
      <trkpt lat="43.44815" lon="5.87505">
        <ele>290.8</ele>
        <time>2016-01-23T15:26:22Z</time>
      </trkpt>
      <trkpt lat="43.44822" lon="5.87515">
        <ele>290.2</ele>
        <time>2016-01-23T15:26:23Z</time>
      </trkpt>
      <trkpt lat="43.44823" lon="5.8752">
        <ele>290.2</ele>
        <time>2016-01-23T15:26:24Z</time>
      </trkpt>
      <trkpt lat="43.44826" lon="5.87525">
        <ele>290.4</ele>
        <time>2016-01-23T15:26:25Z</time>
      </trkpt>
      <trkpt lat="43.44826" lon="5.8753">
        <ele>290.5</ele>
        <time>2016-01-23T15:26:26Z</time>
      </trkpt>
      <trkpt lat="43.44827" lon="5.87534">
        <ele>290.6</ele>
        <time>2016-01-23T15:26:27Z</time>
      </trkpt>
      <trkpt lat="43.44829" lon="5.87538">
        <ele>290.7</ele>
        <time>2016-01-23T15:26:28Z</time>
      </trkpt>
      <trkpt lat="43.44829" lon="5.87541">
        <ele>290.7</ele>
        <time>2016-01-23T15:26:29Z</time>
      </trkpt>
      <trkpt lat="43.4483" lon="5.87546">
        <ele>290.7</ele>
        <time>2016-01-23T15:26:30Z</time>
      </trkpt>
      <trkpt lat="43.44831" lon="5.87553">
        <ele>290.8</ele>
        <time>2016-01-23T15:26:31Z</time>
      </trkpt>
      <trkpt lat="43.44832" lon="5.87561">
        <ele>290.7</ele>
        <time>2016-01-23T15:26:32Z</time>
      </trkpt>
      <trkpt lat="43.44834" lon="5.87569">
        <ele>290.5</ele>
        <time>2016-01-23T15:26:33Z</time>
      </trkpt>
      <trkpt lat="43.44838" lon="5.87575">
        <ele>290.3</ele>
        <time>2016-01-23T15:26:34Z</time>
      </trkpt>
      <trkpt lat="43.44844" lon="5.87578">
        <ele>290.1</ele>
        <time>2016-01-23T15:26:35Z</time>
      </trkpt>
      <trkpt lat="43.4485" lon="5.87578">
        <ele>290.1</ele>
        <time>2016-01-23T15:26:36Z</time>
      </trkpt>
      <trkpt lat="43.44857" lon="5.87574">
        <ele>290</ele>
        <time>2016-01-23T15:26:37Z</time>
      </trkpt>
      <trkpt lat="43.44865" lon="5.87565">
        <ele>289.9</ele>
        <time>2016-01-23T15:26:38Z</time>
      </trkpt>
      <trkpt lat="43.44874" lon="5.87556">
        <ele>290</ele>
        <time>2016-01-23T15:26:39Z</time>
      </trkpt>
      <trkpt lat="43.44885" lon="5.87546">
        <ele>289.7</ele>
        <time>2016-01-23T15:26:40Z</time>
      </trkpt>
      <trkpt lat="43.44896" lon="5.87537">
        <ele>289.3</ele>
        <time>2016-01-23T15:26:41Z</time>
      </trkpt>
      <trkpt lat="43.44916" lon="5.87533">
        <ele>289.6</ele>
        <time>2016-01-23T15:26:42Z</time>
      </trkpt>
      <trkpt lat="43.44934" lon="5.87527">
        <ele>289.3</ele>
        <time>2016-01-23T15:26:43Z</time>
      </trkpt>
      <trkpt lat="43.44952" lon="5.87522">
        <ele>288.8</ele>
        <time>2016-01-23T15:26:44Z</time>
      </trkpt>
      <trkpt lat="43.4497" lon="5.87518">
        <ele>288.6</ele>
        <time>2016-01-23T15:26:45Z</time>
      </trkpt>
      <trkpt lat="43.44988" lon="5.87516">
        <ele>288.8</ele>
        <time>2016-01-23T15:26:46Z</time>
      </trkpt>
      <trkpt lat="43.45007" lon="5.87517">
        <ele>288.8</ele>
        <time>2016-01-23T15:26:47Z</time>
      </trkpt>
      <trkpt lat="43.45024" lon="5.87521">
        <ele>288.1</ele>
        <time>2016-01-23T15:26:48Z</time>
      </trkpt>
      <trkpt lat="43.45041" lon="5.87526">
        <ele>288</ele>
        <time>2016-01-23T15:26:49Z</time>
      </trkpt>
      <trkpt lat="43.45056" lon="5.87533">
        <ele>288</ele>
        <time>2016-01-23T15:26:50Z</time>
      </trkpt>
      <trkpt lat="43.45071" lon="5.87541">
        <ele>288</ele>
        <time>2016-01-23T15:26:51Z</time>
      </trkpt>
      <trkpt lat="43.45086" lon="5.87549">
        <ele>288.5</ele>
        <time>2016-01-23T15:26:52Z</time>
      </trkpt>
      <trkpt lat="43.45099" lon="5.87557">
        <ele>288.4</ele>
        <time>2016-01-23T15:26:53Z</time>
      </trkpt>
      <trkpt lat="43.45112" lon="5.87565">
        <ele>287.7</ele>
        <time>2016-01-23T15:26:54Z</time>
      </trkpt>
      <trkpt lat="43.45124" lon="5.87573">
        <ele>288</ele>
        <time>2016-01-23T15:26:55Z</time>
      </trkpt>
      <trkpt lat="43.45136" lon="5.8758">
        <ele>288.7</ele>
        <time>2016-01-23T15:26:56Z</time>
      </trkpt>
      <trkpt lat="43.45148" lon="5.87587">
        <ele>288.3</ele>
        <time>2016-01-23T15:26:57Z</time>
      </trkpt>
      <trkpt lat="43.45159" lon="5.87594">
        <ele>287.9</ele>
        <time>2016-01-23T15:26:58Z</time>
      </trkpt>
      <trkpt lat="43.45171" lon="5.87601">
        <ele>288.3</ele>
        <time>2016-01-23T15:26:59Z</time>
      </trkpt>
      <trkpt lat="43.45182" lon="5.87608">
        <ele>288.8</ele>
        <time>2016-01-23T15:27:00Z</time>
      </trkpt>
      <trkpt lat="43.45192" lon="5.87615">
        <ele>288.7</ele>
        <time>2016-01-23T15:27:01Z</time>
      </trkpt>
      <trkpt lat="43.45203" lon="5.87621">
        <ele>288.2</ele>
        <time>2016-01-23T15:27:02Z</time>
      </trkpt>
      <trkpt lat="43.45213" lon="5.87628">
        <ele>288.5</ele>
        <time>2016-01-23T15:27:03Z</time>
      </trkpt>
      <trkpt lat="43.45223" lon="5.87634">
        <ele>289.5</ele>
        <time>2016-01-23T15:27:04Z</time>
      </trkpt>
      <trkpt lat="43.45233" lon="5.8764">
        <ele>289.9</ele>
        <time>2016-01-23T15:27:05Z</time>
      </trkpt>
      <trkpt lat="43.45242" lon="5.87646">
        <ele>289.7</ele>
        <time>2016-01-23T15:27:06Z</time>
      </trkpt>
      <trkpt lat="43.45251" lon="5.87652">
        <ele>289.6</ele>
        <time>2016-01-23T15:27:07Z</time>
      </trkpt>
      <trkpt lat="43.45258" lon="5.87656">
        <ele>289.8</ele>
        <time>2016-01-23T15:27:08Z</time>
      </trkpt>
      <trkpt lat="43.45264" lon="5.87661">
        <ele>290.1</ele>
        <time>2016-01-23T15:27:09Z</time>
      </trkpt>
      <trkpt lat="43.45269" lon="5.87665">
        <ele>290.4</ele>
        <time>2016-01-23T15:27:10Z</time>
      </trkpt>
      <trkpt lat="43.45275" lon="5.8767">
        <ele>290.5</ele>
        <time>2016-01-23T15:27:11Z</time>
      </trkpt>
      <trkpt lat="43.4528" lon="5.87675">
        <ele>290.5</ele>
        <time>2016-01-23T15:27:12Z</time>
      </trkpt>
      <trkpt lat="43.45285" lon="5.87682">
        <ele>290.3</ele>
        <time>2016-01-23T15:27:13Z</time>
      </trkpt>
      <trkpt lat="43.45291" lon="5.87691">
        <ele>290.4</ele>
        <time>2016-01-23T15:27:14Z</time>
      </trkpt>
      <trkpt lat="43.45295" lon="5.87702">
        <ele>291.3</ele>
        <time>2016-01-23T15:27:15Z</time>
      </trkpt>
      <trkpt lat="43.45301" lon="5.87712">
        <ele>292.2</ele>
        <time>2016-01-23T15:27:16Z</time>
      </trkpt>
      <trkpt lat="43.45308" lon="5.87719">
        <ele>292.8</ele>
        <time>2016-01-23T15:27:17Z</time>
      </trkpt>
      <trkpt lat="43.45316" lon="5.87721">
        <ele>292.6</ele>
        <time>2016-01-23T15:27:18Z</time>
      </trkpt>
      <trkpt lat="43.45324" lon="5.87719">
        <ele>292.3</ele>
        <time>2016-01-23T15:27:19Z</time>
      </trkpt>
      <trkpt lat="43.45331" lon="5.87714">
        <ele>292.1</ele>
        <time>2016-01-23T15:27:20Z</time>
      </trkpt>
      <trkpt lat="43.45338" lon="5.87707">
        <ele>291.8</ele>
        <time>2016-01-23T15:27:21Z</time>
      </trkpt>
      <trkpt lat="43.45346" lon="5.87699">
        <ele>291.6</ele>
        <time>2016-01-23T15:27:22Z</time>
      </trkpt>
      <trkpt lat="43.45355" lon="5.87692">
        <ele>291.1</ele>
        <time>2016-01-23T15:27:23Z</time>
      </trkpt>
      <trkpt lat="43.45366" lon="5.87686">
        <ele>290.6</ele>
        <time>2016-01-23T15:27:24Z</time>
      </trkpt>
      <trkpt lat="43.4538" lon="5.87681">
        <ele>290.2</ele>
        <time>2016-01-23T15:27:25Z</time>
      </trkpt>
      <trkpt lat="43.45396" lon="5.87676">
        <ele>289.7</ele>
        <time>2016-01-23T15:27:26Z</time>
      </trkpt>
      <trkpt lat="43.45412" lon="5.87667">
        <ele>289.8</ele>
        <time>2016-01-23T15:27:27Z</time>
      </trkpt>
      <trkpt lat="43.45429" lon="5.87655">
        <ele>288.8</ele>
        <time>2016-01-23T15:27:28Z</time>
      </trkpt>
      <trkpt lat="43.45445" lon="5.87638">
        <ele>289</ele>
        <time>2016-01-23T15:27:29Z</time>
      </trkpt>
      <trkpt lat="43.45462" lon="5.87619">
        <ele>288.3</ele>
        <time>2016-01-23T15:27:30Z</time>
      </trkpt>
      <trkpt lat="43.45476" lon="5.87599">
        <ele>288.3</ele>
        <time>2016-01-23T15:27:31Z</time>
      </trkpt>
      <trkpt lat="43.45489" lon="5.87578">
        <ele>288.6</ele>
        <time>2016-01-23T15:27:32Z</time>
      </trkpt>
      <trkpt lat="43.45503" lon="5.87557">
        <ele>289.2</ele>
        <time>2016-01-23T15:27:33Z</time>
      </trkpt>
      <trkpt lat="43.45517" lon="5.87534">
        <ele>288.9</ele>
        <time>2016-01-23T15:27:34Z</time>
      </trkpt>
      <trkpt lat="43.45532" lon="5.87508">
        <ele>288.6</ele>
        <time>2016-01-23T15:27:35Z</time>
      </trkpt>
      <trkpt lat="43.45547" lon="5.87481">
        <ele>288.9</ele>
        <time>2016-01-23T15:27:36Z</time>
      </trkpt>
      <trkpt lat="43.45562" lon="5.87455">
        <ele>288.8</ele>
        <time>2016-01-23T15:27:37Z</time>
      </trkpt>
      <trkpt lat="43.45577" lon="5.87428">
        <ele>289.1</ele>
        <time>2016-01-23T15:27:38Z</time>
      </trkpt>
      <trkpt lat="43.4559" lon="5.87403">
        <ele>288.9</ele>
        <time>2016-01-23T15:27:39Z</time>
      </trkpt>
      <trkpt lat="43.45602" lon="5.87379">
        <ele>289.1</ele>
        <time>2016-01-23T15:27:40Z</time>
      </trkpt>
      <trkpt lat="43.45613" lon="5.87356">
        <ele>289.4</ele>
        <time>2016-01-23T15:27:41Z</time>
      </trkpt>
      <trkpt lat="43.45624" lon="5.87333">
        <ele>290.5</ele>
        <time>2016-01-23T15:27:42Z</time>
      </trkpt>
      <trkpt lat="43.45635" lon="5.87308">
        <ele>289.4</ele>
        <time>2016-01-23T15:27:43Z</time>
      </trkpt>
      <trkpt lat="43.45646" lon="5.87281">
        <ele>289.9</ele>
        <time>2016-01-23T15:27:44Z</time>
      </trkpt>
      <trkpt lat="43.45659" lon="5.87253">
        <ele>290.4</ele>
        <time>2016-01-23T15:27:45Z</time>
      </trkpt>
      <trkpt lat="43.45672" lon="5.87225">
        <ele>289.9</ele>
        <time>2016-01-23T15:27:46Z</time>
      </trkpt>
      <trkpt lat="43.45684" lon="5.87197">
        <ele>289.4</ele>
        <time>2016-01-23T15:27:47Z</time>
      </trkpt>
      <trkpt lat="43.45696" lon="5.8717">
        <ele>289</ele>
        <time>2016-01-23T15:27:48Z</time>
      </trkpt>
      <trkpt lat="43.45707" lon="5.87143">
        <ele>288.5</ele>
        <time>2016-01-23T15:27:49Z</time>
      </trkpt>
      <trkpt lat="43.45719" lon="5.87117">
        <ele>288.1</ele>
        <time>2016-01-23T15:27:50Z</time>
      </trkpt>
      <trkpt lat="43.4573" lon="5.87091">
        <ele>288.3</ele>
        <time>2016-01-23T15:27:51Z</time>
      </trkpt>
      <trkpt lat="43.45742" lon="5.87065">
        <ele>288.2</ele>
        <time>2016-01-23T15:27:52Z</time>
      </trkpt>
      <trkpt lat="43.45754" lon="5.87039">
        <ele>287.6</ele>
        <time>2016-01-23T15:27:53Z</time>
      </trkpt>
      <trkpt lat="43.45766" lon="5.87013">
        <ele>287.8</ele>
        <time>2016-01-23T15:27:54Z</time>
      </trkpt>
      <trkpt lat="43.45777" lon="5.86987">
        <ele>287.5</ele>
        <time>2016-01-23T15:27:55Z</time>
      </trkpt>
      <trkpt lat="43.45788" lon="5.86961">
        <ele>287.3</ele>
        <time>2016-01-23T15:27:56Z</time>
      </trkpt>
      <trkpt lat="43.45796" lon="5.86937">
        <ele>287.4</ele>
        <time>2016-01-23T15:27:57Z</time>
      </trkpt>
      <trkpt lat="43.45804" lon="5.86916">
        <ele>287.9</ele>
        <time>2016-01-23T15:27:58Z</time>
      </trkpt>
      <trkpt lat="43.4581" lon="5.86897">
        <ele>287.5</ele>
        <time>2016-01-23T15:27:59Z</time>
      </trkpt>
      <trkpt lat="43.45815" lon="5.86881">
        <ele>287.4</ele>
        <time>2016-01-23T15:28:00Z</time>
      </trkpt>
      <trkpt lat="43.45819" lon="5.86868">
        <ele>287.9</ele>
        <time>2016-01-23T15:28:01Z</time>
      </trkpt>
      <trkpt lat="43.45823" lon="5.86857">
        <ele>288.2</ele>
        <time>2016-01-23T15:28:02Z</time>
      </trkpt>
      <trkpt lat="43.45826" lon="5.86848">
        <ele>288.3</ele>
        <time>2016-01-23T15:28:03Z</time>
      </trkpt>
      <trkpt lat="43.45829" lon="5.86841">
        <ele>288.2</ele>
        <time>2016-01-23T15:28:04Z</time>
      </trkpt>
      <trkpt lat="43.45831" lon="5.86836">
        <ele>288.1</ele>
        <time>2016-01-23T15:28:05Z</time>
      </trkpt>
      <trkpt lat="43.45835" lon="5.8683">
        <ele>288.1</ele>
        <time>2016-01-23T15:28:06Z</time>
      </trkpt>
      <trkpt lat="43.4584" lon="5.86824">
        <ele>288.3</ele>
        <time>2016-01-23T15:28:07Z</time>
      </trkpt>
      <trkpt lat="43.45845" lon="5.86818">
        <ele>288.3</ele>
        <time>2016-01-23T15:28:08Z</time>
      </trkpt>
      <trkpt lat="43.45849" lon="5.86811">
        <ele>288.4</ele>
        <time>2016-01-23T15:28:09Z</time>
      </trkpt>
      <trkpt lat="43.45851" lon="5.86804">
        <ele>288.3</ele>
        <time>2016-01-23T15:28:10Z</time>
      </trkpt>
      <trkpt lat="43.45851" lon="5.86796">
        <ele>288.1</ele>
        <time>2016-01-23T15:28:11Z</time>
      </trkpt>
      <trkpt lat="43.4585" lon="5.86787">
        <ele>287.9</ele>
        <time>2016-01-23T15:28:12Z</time>
      </trkpt>
      <trkpt lat="43.45851" lon="5.86775">
        <ele>287.6</ele>
        <time>2016-01-23T15:28:13Z</time>
      </trkpt>
      <trkpt lat="43.45853" lon="5.86761">
        <ele>287.5</ele>
        <time>2016-01-23T15:28:14Z</time>
      </trkpt>
      <trkpt lat="43.45855" lon="5.86743">
        <ele>287.6</ele>
        <time>2016-01-23T15:28:15Z</time>
      </trkpt>
      <trkpt lat="43.45858" lon="5.86721">
        <ele>287.8</ele>
        <time>2016-01-23T15:28:16Z</time>
      </trkpt>
      <trkpt lat="43.45862" lon="5.86695">
        <ele>287.9</ele>
        <time>2016-01-23T15:28:17Z</time>
      </trkpt>
      <trkpt lat="43.45866" lon="5.86667">
        <ele>288</ele>
        <time>2016-01-23T15:28:18Z</time>
      </trkpt>
      <trkpt lat="43.45868" lon="5.86637">
        <ele>287.4</ele>
        <time>2016-01-23T15:28:19Z</time>
      </trkpt>
      <trkpt lat="43.45869" lon="5.86609">
        <ele>286.5</ele>
        <time>2016-01-23T15:28:20Z</time>
      </trkpt>
      <trkpt lat="43.45868" lon="5.86582">
        <ele>286.5</ele>
        <time>2016-01-23T15:28:21Z</time>
      </trkpt>
      <trkpt lat="43.45867" lon="5.86556">
        <ele>286.8</ele>
        <time>2016-01-23T15:28:22Z</time>
      </trkpt>
      <trkpt lat="43.45866" lon="5.86532">
        <ele>287</ele>
        <time>2016-01-23T15:28:23Z</time>
      </trkpt>
      <trkpt lat="43.45864" lon="5.86508">
        <ele>286.9</ele>
        <time>2016-01-23T15:28:24Z</time>
      </trkpt>
      <trkpt lat="43.45861" lon="5.86485">
        <ele>287</ele>
        <time>2016-01-23T15:28:25Z</time>
      </trkpt>
      <trkpt lat="43.45859" lon="5.86463">
        <ele>287.1</ele>
        <time>2016-01-23T15:28:26Z</time>
      </trkpt>
      <trkpt lat="43.45857" lon="5.86444">
        <ele>287.1</ele>
        <time>2016-01-23T15:28:27Z</time>
      </trkpt>
      <trkpt lat="43.45856" lon="5.86426">
        <ele>287.1</ele>
        <time>2016-01-23T15:28:28Z</time>
      </trkpt>
      <trkpt lat="43.45855" lon="5.86411">
        <ele>287.2</ele>
        <time>2016-01-23T15:28:29Z</time>
      </trkpt>
      <trkpt lat="43.45854" lon="5.86396">
        <ele>287.5</ele>
        <time>2016-01-23T15:28:30Z</time>
      </trkpt>
      <trkpt lat="43.45853" lon="5.86382">
        <ele>287.7</ele>
        <time>2016-01-23T15:28:31Z</time>
      </trkpt>
      <trkpt lat="43.45853" lon="5.86369">
        <ele>287.7</ele>
        <time>2016-01-23T15:28:32Z</time>
      </trkpt>
      <trkpt lat="43.45854" lon="5.86358">
        <ele>287.7</ele>
        <time>2016-01-23T15:28:33Z</time>
      </trkpt>
      <trkpt lat="43.45854" lon="5.86348">
        <ele>287.8</ele>
        <time>2016-01-23T15:28:34Z</time>
      </trkpt>
      <trkpt lat="43.45855" lon="5.8634">
        <ele>287.8</ele>
        <time>2016-01-23T15:28:35Z</time>
      </trkpt>
      <trkpt lat="43.45857" lon="5.86335">
        <ele>287.9</ele>
        <time>2016-01-23T15:28:36Z</time>
      </trkpt>
      <trkpt lat="43.45858" lon="5.86329">
        <ele>287.9</ele>
        <time>2016-01-23T15:28:37Z</time>
      </trkpt>
      <trkpt lat="43.45858" lon="5.86324">
        <ele>287.9</ele>
        <time>2016-01-23T15:28:38Z</time>
      </trkpt>
      <trkpt lat="43.4586" lon="5.8632">
        <ele>287.9</ele>
        <time>2016-01-23T15:28:39Z</time>
      </trkpt>
      <trkpt lat="43.4586" lon="5.86317">
        <ele>288</ele>
        <time>2016-01-23T15:28:40Z</time>
      </trkpt>
      <trkpt lat="43.4586" lon="5.86315">
        <ele>288</ele>
        <time>2016-01-23T15:28:41Z</time>
      </trkpt>
      <trkpt lat="43.45861" lon="5.86315">
        <ele>288</ele>
        <time>2016-01-23T15:28:42Z</time>
      </trkpt>
      <trkpt lat="43.45861" lon="5.86314">
        <ele>288</ele>
        <time>2016-01-23T15:28:43Z</time>
      </trkpt>
      <trkpt lat="43.45862" lon="5.86312">
        <ele>288</ele>
        <time>2016-01-23T15:28:44Z</time>
      </trkpt>
      <trkpt lat="43.45865" lon="5.86307">
        <ele>288</ele>
        <time>2016-01-23T15:28:45Z</time>
      </trkpt>
      <trkpt lat="43.4587" lon="5.86301">
        <ele>288.1</ele>
        <time>2016-01-23T15:28:46Z</time>
      </trkpt>
      <trkpt lat="43.45876" lon="5.86295">
        <ele>288.2</ele>
        <time>2016-01-23T15:28:47Z</time>
      </trkpt>
      <trkpt lat="43.45881" lon="5.86289">
        <ele>288.2</ele>
        <time>2016-01-23T15:28:48Z</time>
      </trkpt>
      <trkpt lat="43.45886" lon="5.86281">
        <ele>288.1</ele>
        <time>2016-01-23T15:28:49Z</time>
      </trkpt>
      <trkpt lat="43.45885" lon="5.8627">
        <ele>288.1</ele>
        <time>2016-01-23T15:28:50Z</time>
      </trkpt>
      <trkpt lat="43.45883" lon="5.8626">
        <ele>288.1</ele>
        <time>2016-01-23T15:28:51Z</time>
      </trkpt>
      <trkpt lat="43.45879" lon="5.8625">
        <ele>288</ele>
        <time>2016-01-23T15:28:52Z</time>
      </trkpt>
      <trkpt lat="43.45876" lon="5.86237">
        <ele>287.8</ele>
        <time>2016-01-23T15:28:53Z</time>
      </trkpt>
      <trkpt lat="43.45874" lon="5.86222">
        <ele>287.5</ele>
        <time>2016-01-23T15:28:54Z</time>
      </trkpt>
      <trkpt lat="43.45874" lon="5.86203">
        <ele>287.5</ele>
        <time>2016-01-23T15:28:55Z</time>
      </trkpt>
      <trkpt lat="43.45875" lon="5.86178">
        <ele>287.5</ele>
        <time>2016-01-23T15:28:56Z</time>
      </trkpt>
      <trkpt lat="43.45877" lon="5.8615">
        <ele>287.6</ele>
        <time>2016-01-23T15:28:57Z</time>
      </trkpt>
      <trkpt lat="43.45879" lon="5.86123">
        <ele>287.6</ele>
        <time>2016-01-23T15:28:58Z</time>
      </trkpt>
      <trkpt lat="43.4588" lon="5.86098">
        <ele>287.7</ele>
        <time>2016-01-23T15:28:59Z</time>
      </trkpt>
      <trkpt lat="43.45881" lon="5.86077">
        <ele>287.7</ele>
        <time>2016-01-23T15:29:00Z</time>
      </trkpt>
      <trkpt lat="43.45882" lon="5.86059">
        <ele>287.8</ele>
        <time>2016-01-23T15:29:01Z</time>
      </trkpt>
      <trkpt lat="43.45884" lon="5.86045">
        <ele>287.9</ele>
        <time>2016-01-23T15:29:02Z</time>
      </trkpt>
      <trkpt lat="43.45885" lon="5.86033">
        <ele>288</ele>
        <time>2016-01-23T15:29:03Z</time>
      </trkpt>
      <trkpt lat="43.45886" lon="5.86023">
        <ele>288.1</ele>
        <time>2016-01-23T15:29:04Z</time>
      </trkpt>
      <trkpt lat="43.45886" lon="5.86015">
        <ele>288.4</ele>
        <time>2016-01-23T15:29:05Z</time>
      </trkpt>
      <trkpt lat="43.45887" lon="5.86008">
        <ele>288.7</ele>
        <time>2016-01-23T15:29:06Z</time>
      </trkpt>
      <trkpt lat="43.45888" lon="5.86">
        <ele>289</ele>
        <time>2016-01-23T15:29:07Z</time>
      </trkpt>
      <trkpt lat="43.4589" lon="5.8599">
        <ele>289</ele>
        <time>2016-01-23T15:29:08Z</time>
      </trkpt>
      <trkpt lat="43.4589" lon="5.8598">
        <ele>288.9</ele>
        <time>2016-01-23T15:29:09Z</time>
      </trkpt>
      <trkpt lat="43.4589" lon="5.85972">
        <ele>288.9</ele>
        <time>2016-01-23T15:29:10Z</time>
      </trkpt>
      <trkpt lat="43.45887" lon="5.85965">
        <ele>288.4</ele>
        <time>2016-01-23T15:29:11Z</time>
      </trkpt>
      <trkpt lat="43.45883" lon="5.8596">
        <ele>288.1</ele>
        <time>2016-01-23T15:29:12Z</time>
      </trkpt>
      <trkpt lat="43.45879" lon="5.85955">
        <ele>287.8</ele>
        <time>2016-01-23T15:29:13Z</time>
      </trkpt>
      <trkpt lat="43.45874" lon="5.8595">
        <ele>287.7</ele>
        <time>2016-01-23T15:29:14Z</time>
      </trkpt>
      <trkpt lat="43.4587" lon="5.85944">
        <ele>287.7</ele>
        <time>2016-01-23T15:29:15Z</time>
      </trkpt>
      <trkpt lat="43.45867" lon="5.85935">
        <ele>288.1</ele>
        <time>2016-01-23T15:29:16Z</time>
      </trkpt>
      <trkpt lat="43.45864" lon="5.85924">
        <ele>288.6</ele>
        <time>2016-01-23T15:29:17Z</time>
      </trkpt>
      <trkpt lat="43.4586" lon="5.85912">
        <ele>288.8</ele>
        <time>2016-01-23T15:29:18Z</time>
      </trkpt>
      <trkpt lat="43.45855" lon="5.85897">
        <ele>288.2</ele>
        <time>2016-01-23T15:29:19Z</time>
      </trkpt>
      <trkpt lat="43.45849" lon="5.85877">
        <ele>288</ele>
        <time>2016-01-23T15:29:20Z</time>
      </trkpt>
      <trkpt lat="43.45843" lon="5.85855">
        <ele>288.1</ele>
        <time>2016-01-23T15:29:21Z</time>
      </trkpt>
      <trkpt lat="43.45835" lon="5.8583">
        <ele>288.9</ele>
        <time>2016-01-23T15:29:22Z</time>
      </trkpt>
      <trkpt lat="43.45827" lon="5.85801">
        <ele>288.5</ele>
        <time>2016-01-23T15:29:23Z</time>
      </trkpt>
      <trkpt lat="43.45818" lon="5.85771">
        <ele>287.8</ele>
        <time>2016-01-23T15:29:24Z</time>
      </trkpt>
      <trkpt lat="43.4581" lon="5.85742">
        <ele>288.8</ele>
        <time>2016-01-23T15:29:25Z</time>
      </trkpt>
      <trkpt lat="43.45802" lon="5.85714">
        <ele>288.6</ele>
        <time>2016-01-23T15:29:26Z</time>
      </trkpt>
      <trkpt lat="43.45794" lon="5.85689">
        <ele>288.1</ele>
        <time>2016-01-23T15:29:27Z</time>
      </trkpt>
      <trkpt lat="43.45787" lon="5.85665">
        <ele>288.7</ele>
        <time>2016-01-23T15:29:28Z</time>
      </trkpt>
      <trkpt lat="43.45779" lon="5.85642">
        <ele>289</ele>
        <time>2016-01-23T15:29:29Z</time>
      </trkpt>
      <trkpt lat="43.45771" lon="5.85619">
        <ele>288.3</ele>
        <time>2016-01-23T15:29:30Z</time>
      </trkpt>
      <trkpt lat="43.45763" lon="5.85597">
        <ele>288.5</ele>
        <time>2016-01-23T15:29:31Z</time>
      </trkpt>
      <trkpt lat="43.45755" lon="5.85575">
        <ele>288.8</ele>
        <time>2016-01-23T15:29:32Z</time>
      </trkpt>
      <trkpt lat="43.45748" lon="5.85555">
        <ele>288.9</ele>
        <time>2016-01-23T15:29:33Z</time>
      </trkpt>
      <trkpt lat="43.45741" lon="5.85536">
        <ele>288.4</ele>
        <time>2016-01-23T15:29:34Z</time>
      </trkpt>
      <trkpt lat="43.45736" lon="5.85517">
        <ele>288.5</ele>
        <time>2016-01-23T15:29:35Z</time>
      </trkpt>
      <trkpt lat="43.45731" lon="5.855">
        <ele>288.7</ele>
        <time>2016-01-23T15:29:36Z</time>
      </trkpt>
      <trkpt lat="43.45728" lon="5.85484">
        <ele>288.8</ele>
        <time>2016-01-23T15:29:37Z</time>
      </trkpt>
      <trkpt lat="43.45726" lon="5.85469">
        <ele>289</ele>
        <time>2016-01-23T15:29:38Z</time>
      </trkpt>
      <trkpt lat="43.45726" lon="5.85455">
        <ele>289.4</ele>
        <time>2016-01-23T15:29:39Z</time>
      </trkpt>
      <trkpt lat="43.45729" lon="5.85442">
        <ele>289.5</ele>
        <time>2016-01-23T15:29:40Z</time>
      </trkpt>
      <trkpt lat="43.45731" lon="5.85428">
        <ele>289.6</ele>
        <time>2016-01-23T15:29:41Z</time>
      </trkpt>
      <trkpt lat="43.45731" lon="5.85414">
        <ele>289.6</ele>
        <time>2016-01-23T15:29:42Z</time>
      </trkpt>
      <trkpt lat="43.45728" lon="5.854">
        <ele>289.2</ele>
        <time>2016-01-23T15:29:43Z</time>
      </trkpt>
      <trkpt lat="43.45725" lon="5.85387">
        <ele>288.9</ele>
        <time>2016-01-23T15:29:44Z</time>
      </trkpt>
      <trkpt lat="43.45721" lon="5.85371">
        <ele>289</ele>
        <time>2016-01-23T15:29:45Z</time>
      </trkpt>
      <trkpt lat="43.45719" lon="5.85352">
        <ele>289</ele>
        <time>2016-01-23T15:29:46Z</time>
      </trkpt>
      <trkpt lat="43.45717" lon="5.85327">
        <ele>289</ele>
        <time>2016-01-23T15:29:47Z</time>
      </trkpt>
      <trkpt lat="43.45716" lon="5.853">
        <ele>289</ele>
        <time>2016-01-23T15:29:48Z</time>
      </trkpt>
      <trkpt lat="43.45714" lon="5.85273">
        <ele>289</ele>
        <time>2016-01-23T15:29:49Z</time>
      </trkpt>
      <trkpt lat="43.45712" lon="5.85246">
        <ele>289</ele>
        <time>2016-01-23T15:29:50Z</time>
      </trkpt>
      <trkpt lat="43.45709" lon="5.85221">
        <ele>289</ele>
        <time>2016-01-23T15:29:51Z</time>
      </trkpt>
      <trkpt lat="43.45705" lon="5.85196">
        <ele>289.6</ele>
        <time>2016-01-23T15:29:52Z</time>
      </trkpt>
      <trkpt lat="43.45701" lon="5.85172">
        <ele>289.8</ele>
        <time>2016-01-23T15:29:53Z</time>
      </trkpt>
      <trkpt lat="43.45695" lon="5.85147">
        <ele>290</ele>
        <time>2016-01-23T15:29:54Z</time>
      </trkpt>
      <trkpt lat="43.4569" lon="5.85124">
        <ele>289.4</ele>
        <time>2016-01-23T15:29:55Z</time>
      </trkpt>
      <trkpt lat="43.45683" lon="5.85102">
        <ele>289.1</ele>
        <time>2016-01-23T15:29:56Z</time>
      </trkpt>
      <trkpt lat="43.45676" lon="5.85081">
        <ele>289.7</ele>
        <time>2016-01-23T15:29:57Z</time>
      </trkpt>
      <trkpt lat="43.4567" lon="5.85061">
        <ele>289.9</ele>
        <time>2016-01-23T15:29:58Z</time>
      </trkpt>
      <trkpt lat="43.45663" lon="5.85043">
        <ele>289.5</ele>
        <time>2016-01-23T15:29:59Z</time>
      </trkpt>
      <trkpt lat="43.45655" lon="5.85025">
        <ele>289</ele>
        <time>2016-01-23T15:30:00Z</time>
      </trkpt>
      <trkpt lat="43.45646" lon="5.8501">
        <ele>289.5</ele>
        <time>2016-01-23T15:30:01Z</time>
      </trkpt>
      <trkpt lat="43.45638" lon="5.84996">
        <ele>289.8</ele>
        <time>2016-01-23T15:30:02Z</time>
      </trkpt>
      <trkpt lat="43.45629" lon="5.84984">
        <ele>289.3</ele>
        <time>2016-01-23T15:30:03Z</time>
      </trkpt>
      <trkpt lat="43.45619" lon="5.84973">
        <ele>289</ele>
        <time>2016-01-23T15:30:04Z</time>
      </trkpt>
      <trkpt lat="43.4561" lon="5.84963">
        <ele>289</ele>
        <time>2016-01-23T15:30:05Z</time>
      </trkpt>
      <trkpt lat="43.45602" lon="5.84954">
        <ele>289</ele>
        <time>2016-01-23T15:30:06Z</time>
      </trkpt>
      <trkpt lat="43.45595" lon="5.84947">
        <ele>289</ele>
        <time>2016-01-23T15:30:07Z</time>
      </trkpt>
      <trkpt lat="43.4559" lon="5.84941">
        <ele>289</ele>
        <time>2016-01-23T15:30:08Z</time>
      </trkpt>
      <trkpt lat="43.45585" lon="5.84934">
        <ele>289</ele>
        <time>2016-01-23T15:30:09Z</time>
      </trkpt>
      <trkpt lat="43.45582" lon="5.84926">
        <ele>289.1</ele>
        <time>2016-01-23T15:30:10Z</time>
      </trkpt>
      <trkpt lat="43.45579" lon="5.84917">
        <ele>289.3</ele>
        <time>2016-01-23T15:30:11Z</time>
      </trkpt>
      <trkpt lat="43.45576" lon="5.84907">
        <ele>289.2</ele>
        <time>2016-01-23T15:30:12Z</time>
      </trkpt>
      <trkpt lat="43.45574" lon="5.84896">
        <ele>288.9</ele>
        <time>2016-01-23T15:30:13Z</time>
      </trkpt>
      <trkpt lat="43.45573" lon="5.84885">
        <ele>288.8</ele>
        <time>2016-01-23T15:30:14Z</time>
      </trkpt>
      <trkpt lat="43.45574" lon="5.8487">
        <ele>288.9</ele>
        <time>2016-01-23T15:30:15Z</time>
      </trkpt>
      <trkpt lat="43.45577" lon="5.84853">
        <ele>289</ele>
        <time>2016-01-23T15:30:16Z</time>
      </trkpt>
      <trkpt lat="43.45581" lon="5.84833">
        <ele>289</ele>
        <time>2016-01-23T15:30:17Z</time>
      </trkpt>
      <trkpt lat="43.45585" lon="5.8481">
        <ele>288.9</ele>
        <time>2016-01-23T15:30:18Z</time>
      </trkpt>
      <trkpt lat="43.4559" lon="5.84785">
        <ele>288.9</ele>
        <time>2016-01-23T15:30:19Z</time>
      </trkpt>
      <trkpt lat="43.45595" lon="5.84757">
        <ele>289</ele>
        <time>2016-01-23T15:30:20Z</time>
      </trkpt>
      <trkpt lat="43.45601" lon="5.84729">
        <ele>289.3</ele>
        <time>2016-01-23T15:30:21Z</time>
      </trkpt>
      <trkpt lat="43.45608" lon="5.847">
        <ele>289.8</ele>
        <time>2016-01-23T15:30:22Z</time>
      </trkpt>
      <trkpt lat="43.45615" lon="5.84669">
        <ele>289.9</ele>
        <time>2016-01-23T15:30:23Z</time>
      </trkpt>
      <trkpt lat="43.45622" lon="5.84638">
        <ele>289.6</ele>
        <time>2016-01-23T15:30:24Z</time>
      </trkpt>
      <trkpt lat="43.45628" lon="5.84609">
        <ele>290</ele>
        <time>2016-01-23T15:30:25Z</time>
      </trkpt>
      <trkpt lat="43.45635" lon="5.84579">
        <ele>290</ele>
        <time>2016-01-23T15:30:26Z</time>
      </trkpt>
      <trkpt lat="43.45641" lon="5.8455">
        <ele>289.9</ele>
        <time>2016-01-23T15:30:27Z</time>
      </trkpt>
      <trkpt lat="43.45648" lon="5.8452">
        <ele>290</ele>
        <time>2016-01-23T15:30:28Z</time>
      </trkpt>
      <trkpt lat="43.45655" lon="5.84489">
        <ele>290.2</ele>
        <time>2016-01-23T15:30:29Z</time>
      </trkpt>
      <trkpt lat="43.45661" lon="5.84458">
        <ele>290.6</ele>
        <time>2016-01-23T15:30:30Z</time>
      </trkpt>
      <trkpt lat="43.45669" lon="5.84424">
        <ele>290.9</ele>
        <time>2016-01-23T15:30:31Z</time>
      </trkpt>
      <trkpt lat="43.45677" lon="5.84388">
        <ele>290.6</ele>
        <time>2016-01-23T15:30:32Z</time>
      </trkpt>
      <trkpt lat="43.45686" lon="5.84351">
        <ele>291</ele>
        <time>2016-01-23T15:30:33Z</time>
      </trkpt>
      <trkpt lat="43.45694" lon="5.84315">
        <ele>291</ele>
        <time>2016-01-23T15:30:34Z</time>
      </trkpt>
      <trkpt lat="43.45702" lon="5.84279">
        <ele>291</ele>
        <time>2016-01-23T15:30:35Z</time>
      </trkpt>
      <trkpt lat="43.4571" lon="5.84245">
        <ele>291</ele>
        <time>2016-01-23T15:30:36Z</time>
      </trkpt>
      <trkpt lat="43.45717" lon="5.84211">
        <ele>291.1</ele>
        <time>2016-01-23T15:30:37Z</time>
      </trkpt>
      <trkpt lat="43.45725" lon="5.84177">
        <ele>291.6</ele>
        <time>2016-01-23T15:30:38Z</time>
      </trkpt>
      <trkpt lat="43.45733" lon="5.84143">
        <ele>290.5</ele>
        <time>2016-01-23T15:30:39Z</time>
      </trkpt>
      <trkpt lat="43.4574" lon="5.84108">
        <ele>291.1</ele>
        <time>2016-01-23T15:30:40Z</time>
      </trkpt>
      <trkpt lat="43.45748" lon="5.84074">
        <ele>291.9</ele>
        <time>2016-01-23T15:30:41Z</time>
      </trkpt>
      <trkpt lat="43.45755" lon="5.8404">
        <ele>291.9</ele>
        <time>2016-01-23T15:30:42Z</time>
      </trkpt>
      <trkpt lat="43.45763" lon="5.84005">
        <ele>291.6</ele>
        <time>2016-01-23T15:30:43Z</time>
      </trkpt>
      <trkpt lat="43.4577" lon="5.8397">
        <ele>292.1</ele>
        <time>2016-01-23T15:30:44Z</time>
      </trkpt>
      <trkpt lat="43.45778" lon="5.83935">
        <ele>293</ele>
        <time>2016-01-23T15:30:45Z</time>
      </trkpt>
      <trkpt lat="43.45787" lon="5.83899">
        <ele>292.9</ele>
        <time>2016-01-23T15:30:46Z</time>
      </trkpt>
      <trkpt lat="43.45795" lon="5.83862">
        <ele>293</ele>
        <time>2016-01-23T15:30:47Z</time>
      </trkpt>
      <trkpt lat="43.45803" lon="5.83824">
        <ele>294.3</ele>
        <time>2016-01-23T15:30:48Z</time>
      </trkpt>
      <trkpt lat="43.45812" lon="5.83787">
        <ele>294.9</ele>
        <time>2016-01-23T15:30:49Z</time>
      </trkpt>
      <trkpt lat="43.4582" lon="5.83749">
        <ele>295.6</ele>
        <time>2016-01-23T15:30:50Z</time>
      </trkpt>
      <trkpt lat="43.45828" lon="5.83711">
        <ele>297.4</ele>
        <time>2016-01-23T15:30:51Z</time>
      </trkpt>
      <trkpt lat="43.45836" lon="5.83675">
        <ele>298</ele>
        <time>2016-01-23T15:30:52Z</time>
      </trkpt>
      <trkpt lat="43.45844" lon="5.83638">
        <ele>299.6</ele>
        <time>2016-01-23T15:30:53Z</time>
      </trkpt>
      <trkpt lat="43.45852" lon="5.83602">
        <ele>300.2</ele>
        <time>2016-01-23T15:30:54Z</time>
      </trkpt>
      <trkpt lat="43.45859" lon="5.83566">
        <ele>301.7</ele>
        <time>2016-01-23T15:30:55Z</time>
      </trkpt>
      <trkpt lat="43.45867" lon="5.83531">
        <ele>302.9</ele>
        <time>2016-01-23T15:30:56Z</time>
      </trkpt>
      <trkpt lat="43.45874" lon="5.83496">
        <ele>304.1</ele>
        <time>2016-01-23T15:30:57Z</time>
      </trkpt>
      <trkpt lat="43.45882" lon="5.83461">
        <ele>306.1</ele>
        <time>2016-01-23T15:30:58Z</time>
      </trkpt>
      <trkpt lat="43.4589" lon="5.83424">
        <ele>308.7</ele>
        <time>2016-01-23T15:30:59Z</time>
      </trkpt>
      <trkpt lat="43.45898" lon="5.83387">
        <ele>311.4</ele>
        <time>2016-01-23T15:31:00Z</time>
      </trkpt>
      <trkpt lat="43.45905" lon="5.83349">
        <ele>313</ele>
        <time>2016-01-23T15:31:01Z</time>
      </trkpt>
      <trkpt lat="43.45913" lon="5.83311">
        <ele>314.6</ele>
        <time>2016-01-23T15:31:02Z</time>
      </trkpt>
      <trkpt lat="43.45922" lon="5.83273">
        <ele>317</ele>
        <time>2016-01-23T15:31:03Z</time>
      </trkpt>
      <trkpt lat="43.4593" lon="5.83236">
        <ele>318.2</ele>
        <time>2016-01-23T15:31:04Z</time>
      </trkpt>
      <trkpt lat="43.45938" lon="5.83201">
        <ele>319.3</ele>
        <time>2016-01-23T15:31:05Z</time>
      </trkpt>
      <trkpt lat="43.45945" lon="5.83167">
        <ele>320.1</ele>
        <time>2016-01-23T15:31:06Z</time>
      </trkpt>
      <trkpt lat="43.45953" lon="5.83136">
        <ele>320.6</ele>
        <time>2016-01-23T15:31:07Z</time>
      </trkpt>
      <trkpt lat="43.45959" lon="5.83107">
        <ele>321.1</ele>
        <time>2016-01-23T15:31:08Z</time>
      </trkpt>
      <trkpt lat="43.45966" lon="5.8308">
        <ele>321.2</ele>
        <time>2016-01-23T15:31:09Z</time>
      </trkpt>
      <trkpt lat="43.45974" lon="5.83054">
        <ele>320.6</ele>
        <time>2016-01-23T15:31:10Z</time>
      </trkpt>
      <trkpt lat="43.45984" lon="5.83028">
        <ele>318.6</ele>
        <time>2016-01-23T15:31:11Z</time>
      </trkpt>
      <trkpt lat="43.45996" lon="5.83003">
        <ele>320.7</ele>
        <time>2016-01-23T15:31:12Z</time>
      </trkpt>
      <trkpt lat="43.46009" lon="5.82976">
        <ele>317.9</ele>
        <time>2016-01-23T15:31:13Z</time>
      </trkpt>
      <trkpt lat="43.46023" lon="5.82949">
        <ele>320.1</ele>
        <time>2016-01-23T15:31:14Z</time>
      </trkpt>
      <trkpt lat="43.46037" lon="5.82922">
        <ele>320.9</ele>
        <time>2016-01-23T15:31:15Z</time>
      </trkpt>
      <trkpt lat="43.46052" lon="5.82894">
        <ele>322.7</ele>
        <time>2016-01-23T15:31:16Z</time>
      </trkpt>
      <trkpt lat="43.46068" lon="5.82868">
        <ele>324.2</ele>
        <time>2016-01-23T15:31:17Z</time>
      </trkpt>
      <trkpt lat="43.46083" lon="5.82844">
        <ele>324.7</ele>
        <time>2016-01-23T15:31:18Z</time>
      </trkpt>
      <trkpt lat="43.46099" lon="5.82821">
        <ele>326.3</ele>
        <time>2016-01-23T15:31:19Z</time>
      </trkpt>
      <trkpt lat="43.46116" lon="5.828">
        <ele>329.3</ele>
        <time>2016-01-23T15:31:20Z</time>
      </trkpt>
      <trkpt lat="43.46133" lon="5.82779">
        <ele>330.4</ele>
        <time>2016-01-23T15:31:21Z</time>
      </trkpt>
      <trkpt lat="43.46151" lon="5.82758">
        <ele>331.8</ele>
        <time>2016-01-23T15:31:22Z</time>
      </trkpt>
      <trkpt lat="43.46168" lon="5.82737">
        <ele>333.1</ele>
        <time>2016-01-23T15:31:23Z</time>
      </trkpt>
      <trkpt lat="43.46186" lon="5.82715">
        <ele>334.1</ele>
        <time>2016-01-23T15:31:24Z</time>
      </trkpt>
      <trkpt lat="43.46204" lon="5.82693">
        <ele>334.7</ele>
        <time>2016-01-23T15:31:25Z</time>
      </trkpt>
      <trkpt lat="43.46223" lon="5.82671">
        <ele>335.2</ele>
        <time>2016-01-23T15:31:26Z</time>
      </trkpt>
      <trkpt lat="43.46241" lon="5.82647">
        <ele>337.7</ele>
        <time>2016-01-23T15:31:27Z</time>
      </trkpt>
      <trkpt lat="43.4626" lon="5.82623">
        <ele>338.9</ele>
        <time>2016-01-23T15:31:28Z</time>
      </trkpt>
      <trkpt lat="43.46281" lon="5.826">
        <ele>340.2</ele>
        <time>2016-01-23T15:31:29Z</time>
      </trkpt>
      <trkpt lat="43.46302" lon="5.82577">
        <ele>341.5</ele>
        <time>2016-01-23T15:31:30Z</time>
      </trkpt>
      <trkpt lat="43.46323" lon="5.82554">
        <ele>342.9</ele>
        <time>2016-01-23T15:31:31Z</time>
      </trkpt>
      <trkpt lat="43.46344" lon="5.82532">
        <ele>344</ele>
        <time>2016-01-23T15:31:32Z</time>
      </trkpt>
      <trkpt lat="43.46366" lon="5.82508">
        <ele>345.2</ele>
        <time>2016-01-23T15:31:33Z</time>
      </trkpt>
      <trkpt lat="43.46388" lon="5.82485">
        <ele>346</ele>
        <time>2016-01-23T15:31:34Z</time>
      </trkpt>
      <trkpt lat="43.46411" lon="5.82461">
        <ele>348.4</ele>
        <time>2016-01-23T15:31:35Z</time>
      </trkpt>
      <trkpt lat="43.46434" lon="5.82435">
        <ele>351.4</ele>
        <time>2016-01-23T15:31:36Z</time>
      </trkpt>
      <trkpt lat="43.46457" lon="5.8241">
        <ele>353.5</ele>
        <time>2016-01-23T15:31:37Z</time>
      </trkpt>
      <trkpt lat="43.4648" lon="5.82384">
        <ele>354.7</ele>
        <time>2016-01-23T15:31:38Z</time>
      </trkpt>
      <trkpt lat="43.46503" lon="5.82358">
        <ele>356.3</ele>
        <time>2016-01-23T15:31:39Z</time>
      </trkpt>
      <trkpt lat="43.46525" lon="5.82331">
        <ele>358.4</ele>
        <time>2016-01-23T15:31:40Z</time>
      </trkpt>
      <trkpt lat="43.46547" lon="5.82303">
        <ele>359.7</ele>
        <time>2016-01-23T15:31:41Z</time>
      </trkpt>
      <trkpt lat="43.46568" lon="5.82275">
        <ele>360.4</ele>
        <time>2016-01-23T15:31:42Z</time>
      </trkpt>
      <trkpt lat="43.46587" lon="5.82248">
        <ele>363.7</ele>
        <time>2016-01-23T15:31:43Z</time>
      </trkpt>
      <trkpt lat="43.46605" lon="5.82221">
        <ele>364.9</ele>
        <time>2016-01-23T15:31:44Z</time>
      </trkpt>
      <trkpt lat="43.46621" lon="5.82192">
        <ele>366.3</ele>
        <time>2016-01-23T15:31:45Z</time>
      </trkpt>
      <trkpt lat="43.46638" lon="5.82162">
        <ele>370.6</ele>
        <time>2016-01-23T15:31:46Z</time>
      </trkpt>
      <trkpt lat="43.46653" lon="5.82129">
        <ele>373.9</ele>
        <time>2016-01-23T15:31:47Z</time>
      </trkpt>
      <trkpt lat="43.46668" lon="5.82095">
        <ele>374.6</ele>
        <time>2016-01-23T15:31:48Z</time>
      </trkpt>
      <trkpt lat="43.46682" lon="5.8206">
        <ele>376.7</ele>
        <time>2016-01-23T15:31:49Z</time>
      </trkpt>
      <trkpt lat="43.46693" lon="5.82023">
        <ele>378.2</ele>
        <time>2016-01-23T15:31:50Z</time>
      </trkpt>
      <trkpt lat="43.46703" lon="5.81985">
        <ele>380.6</ele>
        <time>2016-01-23T15:31:51Z</time>
      </trkpt>
      <trkpt lat="43.46707" lon="5.81945">
        <ele>383.4</ele>
        <time>2016-01-23T15:31:52Z</time>
      </trkpt>
      <trkpt lat="43.46712" lon="5.81905">
        <ele>385.3</ele>
        <time>2016-01-23T15:31:53Z</time>
      </trkpt>
      <trkpt lat="43.46714" lon="5.81866">
        <ele>386.6</ele>
        <time>2016-01-23T15:31:54Z</time>
      </trkpt>
      <trkpt lat="43.46714" lon="5.81828">
        <ele>387.9</ele>
        <time>2016-01-23T15:31:55Z</time>
      </trkpt>
      <trkpt lat="43.46712" lon="5.81792">
        <ele>389.3</ele>
        <time>2016-01-23T15:31:56Z</time>
      </trkpt>
      <trkpt lat="43.46708" lon="5.81758">
        <ele>390.7</ele>
        <time>2016-01-23T15:31:57Z</time>
      </trkpt>
      <trkpt lat="43.46703" lon="5.81724">
        <ele>392.6</ele>
        <time>2016-01-23T15:31:58Z</time>
      </trkpt>
      <trkpt lat="43.46696" lon="5.8169">
        <ele>394.3</ele>
        <time>2016-01-23T15:31:59Z</time>
      </trkpt>
      <trkpt lat="43.46687" lon="5.81656">
        <ele>396.4</ele>
        <time>2016-01-23T15:32:00Z</time>
      </trkpt>
      <trkpt lat="43.46677" lon="5.81623">
        <ele>397.5</ele>
        <time>2016-01-23T15:32:01Z</time>
      </trkpt>
      <trkpt lat="43.46666" lon="5.81589">
        <ele>399.3</ele>
        <time>2016-01-23T15:32:02Z</time>
      </trkpt>
      <trkpt lat="43.46654" lon="5.81556">
        <ele>400.7</ele>
        <time>2016-01-23T15:32:03Z</time>
      </trkpt>
      <trkpt lat="43.46641" lon="5.81521">
        <ele>400.6</ele>
        <time>2016-01-23T15:32:04Z</time>
      </trkpt>
      <trkpt lat="43.46627" lon="5.81487">
        <ele>400.9</ele>
        <time>2016-01-23T15:32:05Z</time>
      </trkpt>
      <trkpt lat="43.46611" lon="5.81452">
        <ele>400.7</ele>
        <time>2016-01-23T15:32:06Z</time>
      </trkpt>
      <trkpt lat="43.46593" lon="5.81418">
        <ele>400.4</ele>
        <time>2016-01-23T15:32:07Z</time>
      </trkpt>
      <trkpt lat="43.46575" lon="5.81384">
        <ele>400</ele>
        <time>2016-01-23T15:32:08Z</time>
      </trkpt>
      <trkpt lat="43.46557" lon="5.81352">
        <ele>400</ele>
        <time>2016-01-23T15:32:09Z</time>
      </trkpt>
      <trkpt lat="43.46538" lon="5.81321">
        <ele>399.2</ele>
        <time>2016-01-23T15:32:10Z</time>
      </trkpt>
      <trkpt lat="43.4652" lon="5.81291">
        <ele>398.3</ele>
        <time>2016-01-23T15:32:11Z</time>
      </trkpt>
      <trkpt lat="43.46502" lon="5.81262">
        <ele>396.5</ele>
        <time>2016-01-23T15:32:12Z</time>
      </trkpt>
      <trkpt lat="43.46484" lon="5.81234">
        <ele>394.8</ele>
        <time>2016-01-23T15:32:13Z</time>
      </trkpt>
      <trkpt lat="43.46466" lon="5.81206">
        <ele>392.4</ele>
        <time>2016-01-23T15:32:14Z</time>
      </trkpt>
      <trkpt lat="43.46449" lon="5.81177">
        <ele>391</ele>
        <time>2016-01-23T15:32:15Z</time>
      </trkpt>
      <trkpt lat="43.46433" lon="5.81147">
        <ele>388.8</ele>
        <time>2016-01-23T15:32:16Z</time>
      </trkpt>
      <trkpt lat="43.46417" lon="5.81116">
        <ele>388.3</ele>
        <time>2016-01-23T15:32:17Z</time>
      </trkpt>
      <trkpt lat="43.46402" lon="5.81083">
        <ele>386.5</ele>
        <time>2016-01-23T15:32:18Z</time>
      </trkpt>
      <trkpt lat="43.46387" lon="5.81049">
        <ele>385.4</ele>
        <time>2016-01-23T15:32:19Z</time>
      </trkpt>
      <trkpt lat="43.46374" lon="5.81014">
        <ele>383.5</ele>
        <time>2016-01-23T15:32:20Z</time>
      </trkpt>
      <trkpt lat="43.46361" lon="5.80977">
        <ele>384</ele>
        <time>2016-01-23T15:32:21Z</time>
      </trkpt>
      <trkpt lat="43.46348" lon="5.80941">
        <ele>382</ele>
        <time>2016-01-23T15:32:22Z</time>
      </trkpt>
      <trkpt lat="43.46324" lon="5.80871">
        <ele>382.5</ele>
        <time>2016-01-23T15:32:24Z</time>
      </trkpt>
      <trkpt lat="43.46313" lon="5.80839">
        <ele>383.5</ele>
        <time>2016-01-23T15:32:25Z</time>
      </trkpt>
      <trkpt lat="43.46302" lon="5.80808">
        <ele>384</ele>
        <time>2016-01-23T15:32:26Z</time>
      </trkpt>
      <trkpt lat="43.46292" lon="5.80779">
        <ele>384.5</ele>
        <time>2016-01-23T15:32:27Z</time>
      </trkpt>
      <trkpt lat="43.46283" lon="5.80752">
        <ele>384.1</ele>
        <time>2016-01-23T15:32:28Z</time>
      </trkpt>
      <trkpt lat="43.46275" lon="5.80726">
        <ele>384.1</ele>
        <time>2016-01-23T15:32:29Z</time>
      </trkpt>
      <trkpt lat="43.46261" lon="5.80671">
        <ele>383.6</ele>
        <time>2016-01-23T15:32:31Z</time>
      </trkpt>
      <trkpt lat="43.46256" lon="5.8064">
        <ele>383</ele>
        <time>2016-01-23T15:32:32Z</time>
      </trkpt>
      <trkpt lat="43.46253" lon="5.80608">
        <ele>382.8</ele>
        <time>2016-01-23T15:32:33Z</time>
      </trkpt>
      <trkpt lat="43.46252" lon="5.80542">
        <ele>381.9</ele>
        <time>2016-01-23T15:32:35Z</time>
      </trkpt>
      <trkpt lat="43.46254" lon="5.80507">
        <ele>381.6</ele>
        <time>2016-01-23T15:32:36Z</time>
      </trkpt>
      <trkpt lat="43.46259" lon="5.80472">
        <ele>380.4</ele>
        <time>2016-01-23T15:32:37Z</time>
      </trkpt>
      <trkpt lat="43.46275" lon="5.80407">
        <ele>378.9</ele>
        <time>2016-01-23T15:32:39Z</time>
      </trkpt>
      <trkpt lat="43.46287" lon="5.80377">
        <ele>378.1</ele>
        <time>2016-01-23T15:32:40Z</time>
      </trkpt>
      <trkpt lat="43.46309" lon="5.8032">
        <ele>375.8</ele>
        <time>2016-01-23T15:32:42Z</time>
      </trkpt>
      <trkpt lat="43.4632" lon="5.80292">
        <ele>375</ele>
        <time>2016-01-23T15:32:43Z</time>
      </trkpt>
      <trkpt lat="43.46331" lon="5.80263">
        <ele>375.7</ele>
        <time>2016-01-23T15:32:44Z</time>
      </trkpt>
      <trkpt lat="43.46356" lon="5.80199">
        <ele>372</ele>
        <time>2016-01-23T15:32:46Z</time>
      </trkpt>
      <trkpt lat="43.4637" lon="5.80163">
        <ele>369.8</ele>
        <time>2016-01-23T15:32:47Z</time>
      </trkpt>
      <trkpt lat="43.46384" lon="5.80124">
        <ele>368.2</ele>
        <time>2016-01-23T15:32:48Z</time>
      </trkpt>
      <trkpt lat="43.46399" lon="5.80086">
        <ele>365.3</ele>
        <time>2016-01-23T15:32:49Z</time>
      </trkpt>
      <trkpt lat="43.46428" lon="5.8001">
        <ele>361.7</ele>
        <time>2016-01-23T15:32:51Z</time>
      </trkpt>
      <trkpt lat="43.46458" lon="5.7993">
        <ele>360.1</ele>
        <time>2016-01-23T15:32:53Z</time>
      </trkpt>
      <trkpt lat="43.46473" lon="5.79887">
        <ele>361.1</ele>
        <time>2016-01-23T15:32:54Z</time>
      </trkpt>
      <trkpt lat="43.46489" lon="5.79845">
        <ele>361.8</ele>
        <time>2016-01-23T15:32:55Z</time>
      </trkpt>
      <trkpt lat="43.46503" lon="5.79806">
        <ele>363.1</ele>
        <time>2016-01-23T15:32:56Z</time>
      </trkpt>
      <trkpt lat="43.46517" lon="5.7977">
        <ele>364</ele>
        <time>2016-01-23T15:32:57Z</time>
      </trkpt>
      <trkpt lat="43.4653" lon="5.79734">
        <ele>363.1</ele>
        <time>2016-01-23T15:32:58Z</time>
      </trkpt>
      <trkpt lat="43.46543" lon="5.79699">
        <ele>359.9</ele>
        <time>2016-01-23T15:32:59Z</time>
      </trkpt>
      <trkpt lat="43.46557" lon="5.79663">
        <ele>365.2</ele>
        <time>2016-01-23T15:33:00Z</time>
      </trkpt>
      <trkpt lat="43.4657" lon="5.79626">
        <ele>367</ele>
        <time>2016-01-23T15:33:01Z</time>
      </trkpt>
      <trkpt lat="43.46595" lon="5.79551">
        <ele>370.7</ele>
        <time>2016-01-23T15:33:03Z</time>
      </trkpt>
      <trkpt lat="43.46606" lon="5.79514">
        <ele>371.8</ele>
        <time>2016-01-23T15:33:04Z</time>
      </trkpt>
      <trkpt lat="43.46616" lon="5.79478">
        <ele>372.5</ele>
        <time>2016-01-23T15:33:05Z</time>
      </trkpt>
      <trkpt lat="43.46625" lon="5.79443">
        <ele>373</ele>
        <time>2016-01-23T15:33:06Z</time>
      </trkpt>
      <trkpt lat="43.46633" lon="5.79408">
        <ele>373</ele>
        <time>2016-01-23T15:33:07Z</time>
      </trkpt>
      <trkpt lat="43.46642" lon="5.79372">
        <ele>372.3</ele>
        <time>2016-01-23T15:33:08Z</time>
      </trkpt>
      <trkpt lat="43.46649" lon="5.79334">
        <ele>371.6</ele>
        <time>2016-01-23T15:33:09Z</time>
      </trkpt>
      <trkpt lat="43.46656" lon="5.79296">
        <ele>372</ele>
        <time>2016-01-23T15:33:10Z</time>
      </trkpt>
      <trkpt lat="43.46663" lon="5.79258">
        <ele>372.9</ele>
        <time>2016-01-23T15:33:11Z</time>
      </trkpt>
      <trkpt lat="43.46669" lon="5.7922">
        <ele>371.9</ele>
        <time>2016-01-23T15:33:12Z</time>
      </trkpt>
      <trkpt lat="43.46676" lon="5.79183">
        <ele>371</ele>
        <time>2016-01-23T15:33:13Z</time>
      </trkpt>
      <trkpt lat="43.46682" lon="5.79143">
        <ele>369.2</ele>
        <time>2016-01-23T15:33:14Z</time>
      </trkpt>
      <trkpt lat="43.46689" lon="5.79102">
        <ele>369.7</ele>
        <time>2016-01-23T15:33:15Z</time>
      </trkpt>
      <trkpt lat="43.46695" lon="5.7906">
        <ele>369</ele>
        <time>2016-01-23T15:33:16Z</time>
      </trkpt>
      <trkpt lat="43.46702" lon="5.79019">
        <ele>366.7</ele>
        <time>2016-01-23T15:33:17Z</time>
      </trkpt>
      <trkpt lat="43.46708" lon="5.78979">
        <ele>365.5</ele>
        <time>2016-01-23T15:33:18Z</time>
      </trkpt>
      <trkpt lat="43.46715" lon="5.78941">
        <ele>366.3</ele>
        <time>2016-01-23T15:33:19Z</time>
      </trkpt>
      <trkpt lat="43.46721" lon="5.78903">
        <ele>366.6</ele>
        <time>2016-01-23T15:33:20Z</time>
      </trkpt>
      <trkpt lat="43.46727" lon="5.78867">
        <ele>365.8</ele>
        <time>2016-01-23T15:33:21Z</time>
      </trkpt>
      <trkpt lat="43.46733" lon="5.78831">
        <ele>365.8</ele>
        <time>2016-01-23T15:33:22Z</time>
      </trkpt>
      <trkpt lat="43.46739" lon="5.78795">
        <ele>365.2</ele>
        <time>2016-01-23T15:33:23Z</time>
      </trkpt>
      <trkpt lat="43.46745" lon="5.78761">
        <ele>364.4</ele>
        <time>2016-01-23T15:33:24Z</time>
      </trkpt>
      <trkpt lat="43.46751" lon="5.78728">
        <ele>363.2</ele>
        <time>2016-01-23T15:33:25Z</time>
      </trkpt>
      <trkpt lat="43.46756" lon="5.78695">
        <ele>362.6</ele>
        <time>2016-01-23T15:33:26Z</time>
      </trkpt>
      <trkpt lat="43.46761" lon="5.78663">
        <ele>362.1</ele>
        <time>2016-01-23T15:33:27Z</time>
      </trkpt>
      <trkpt lat="43.46766" lon="5.7863">
        <ele>360.6</ele>
        <time>2016-01-23T15:33:28Z</time>
      </trkpt>
      <trkpt lat="43.46772" lon="5.78597">
        <ele>359.5</ele>
        <time>2016-01-23T15:33:29Z</time>
      </trkpt>
      <trkpt lat="43.46779" lon="5.78565">
        <ele>359.1</ele>
        <time>2016-01-23T15:33:30Z</time>
      </trkpt>
      <trkpt lat="43.46786" lon="5.78532">
        <ele>355.4</ele>
        <time>2016-01-23T15:33:31Z</time>
      </trkpt>
      <trkpt lat="43.46794" lon="5.78499">
        <ele>356.9</ele>
        <time>2016-01-23T15:33:32Z</time>
      </trkpt>
      <trkpt lat="43.46802" lon="5.78465">
        <ele>360.2</ele>
        <time>2016-01-23T15:33:33Z</time>
      </trkpt>
      <trkpt lat="43.46811" lon="5.78431">
        <ele>361.3</ele>
        <time>2016-01-23T15:33:34Z</time>
      </trkpt>
      <trkpt lat="43.46819" lon="5.78397">
        <ele>362.2</ele>
        <time>2016-01-23T15:33:35Z</time>
      </trkpt>
      <trkpt lat="43.46828" lon="5.78365">
        <ele>362.6</ele>
        <time>2016-01-23T15:33:36Z</time>
      </trkpt>
      <trkpt lat="43.46835" lon="5.78334">
        <ele>363</ele>
        <time>2016-01-23T15:33:37Z</time>
      </trkpt>
      <trkpt lat="43.46843" lon="5.78304">
        <ele>363.4</ele>
        <time>2016-01-23T15:33:38Z</time>
      </trkpt>
      <trkpt lat="43.46851" lon="5.78274">
        <ele>364.6</ele>
        <time>2016-01-23T15:33:39Z</time>
      </trkpt>
      <trkpt lat="43.46859" lon="5.78241">
        <ele>362.6</ele>
        <time>2016-01-23T15:33:40Z</time>
      </trkpt>
      <trkpt lat="43.46868" lon="5.78205">
        <ele>361.9</ele>
        <time>2016-01-23T15:33:41Z</time>
      </trkpt>
      <trkpt lat="43.46878" lon="5.78166">
        <ele>360</ele>
        <time>2016-01-23T15:33:42Z</time>
      </trkpt>
      <trkpt lat="43.46889" lon="5.78123">
        <ele>361</ele>
        <time>2016-01-23T15:33:43Z</time>
      </trkpt>
      <trkpt lat="43.46901" lon="5.78079">
        <ele>358.2</ele>
        <time>2016-01-23T15:33:44Z</time>
      </trkpt>
      <trkpt lat="43.46913" lon="5.78033">
        <ele>359.8</ele>
        <time>2016-01-23T15:33:45Z</time>
      </trkpt>
      <trkpt lat="43.46925" lon="5.77987">
        <ele>357.9</ele>
        <time>2016-01-23T15:33:46Z</time>
      </trkpt>
      <trkpt lat="43.46937" lon="5.77942">
        <ele>358.3</ele>
        <time>2016-01-23T15:33:47Z</time>
      </trkpt>
      <trkpt lat="43.46949" lon="5.77896">
        <ele>359.8</ele>
        <time>2016-01-23T15:33:48Z</time>
      </trkpt>
      <trkpt lat="43.4696" lon="5.7785">
        <ele>359.6</ele>
        <time>2016-01-23T15:33:49Z</time>
      </trkpt>
      <trkpt lat="43.46971" lon="5.77805">
        <ele>362.2</ele>
        <time>2016-01-23T15:33:50Z</time>
      </trkpt>
      <trkpt lat="43.46982" lon="5.77761">
        <ele>359.7</ele>
        <time>2016-01-23T15:33:51Z</time>
      </trkpt>
      <trkpt lat="43.46993" lon="5.77719">
        <ele>359.2</ele>
        <time>2016-01-23T15:33:52Z</time>
      </trkpt>
      <trkpt lat="43.47003" lon="5.77678">
        <ele>360.6</ele>
        <time>2016-01-23T15:33:53Z</time>
      </trkpt>
      <trkpt lat="43.47012" lon="5.77638">
        <ele>361.2</ele>
        <time>2016-01-23T15:33:54Z</time>
      </trkpt>
      <trkpt lat="43.47023" lon="5.77599">
        <ele>360.2</ele>
        <time>2016-01-23T15:33:55Z</time>
      </trkpt>
      <trkpt lat="43.47033" lon="5.7756">
        <ele>357.7</ele>
        <time>2016-01-23T15:33:56Z</time>
      </trkpt>
      <trkpt lat="43.47043" lon="5.77521">
        <ele>356.9</ele>
        <time>2016-01-23T15:33:57Z</time>
      </trkpt>
      <trkpt lat="43.47052" lon="5.77481">
        <ele>355.4</ele>
        <time>2016-01-23T15:33:58Z</time>
      </trkpt>
      <trkpt lat="43.47061" lon="5.77443">
        <ele>353.6</ele>
        <time>2016-01-23T15:33:59Z</time>
      </trkpt>
      <trkpt lat="43.47071" lon="5.77404">
        <ele>352.1</ele>
        <time>2016-01-23T15:34:00Z</time>
      </trkpt>
      <trkpt lat="43.4708" lon="5.77365">
        <ele>350.5</ele>
        <time>2016-01-23T15:34:01Z</time>
      </trkpt>
      <trkpt lat="43.4709" lon="5.77326">
        <ele>349</ele>
        <time>2016-01-23T15:34:02Z</time>
      </trkpt>
      <trkpt lat="43.47101" lon="5.77287">
        <ele>347.2</ele>
        <time>2016-01-23T15:34:03Z</time>
      </trkpt>
      <trkpt lat="43.47112" lon="5.77248">
        <ele>345.4</ele>
        <time>2016-01-23T15:34:04Z</time>
      </trkpt>
      <trkpt lat="43.47124" lon="5.7721">
        <ele>342.4</ele>
        <time>2016-01-23T15:34:05Z</time>
      </trkpt>
      <trkpt lat="43.47137" lon="5.77173">
        <ele>343</ele>
        <time>2016-01-23T15:34:06Z</time>
      </trkpt>
      <trkpt lat="43.4715" lon="5.77138">
        <ele>341.4</ele>
        <time>2016-01-23T15:34:07Z</time>
      </trkpt>
      <trkpt lat="43.47164" lon="5.77104">
        <ele>340.7</ele>
        <time>2016-01-23T15:34:08Z</time>
      </trkpt>
      <trkpt lat="43.47178" lon="5.77071">
        <ele>336.8</ele>
        <time>2016-01-23T15:34:09Z</time>
      </trkpt>
      <trkpt lat="43.47193" lon="5.77038">
        <ele>337</ele>
        <time>2016-01-23T15:34:10Z</time>
      </trkpt>
      <trkpt lat="43.47207" lon="5.77004">
        <ele>334.5</ele>
        <time>2016-01-23T15:34:11Z</time>
      </trkpt>
      <trkpt lat="43.47221" lon="5.7697">
        <ele>334.6</ele>
        <time>2016-01-23T15:34:12Z</time>
      </trkpt>
      <trkpt lat="43.47236" lon="5.76935">
        <ele>331.5</ele>
        <time>2016-01-23T15:34:13Z</time>
      </trkpt>
      <trkpt lat="43.47251" lon="5.76901">
        <ele>331.7</ele>
        <time>2016-01-23T15:34:14Z</time>
      </trkpt>
      <trkpt lat="43.47266" lon="5.76866">
        <ele>329.5</ele>
        <time>2016-01-23T15:34:15Z</time>
      </trkpt>
      <trkpt lat="43.47281" lon="5.76832">
        <ele>329.4</ele>
        <time>2016-01-23T15:34:16Z</time>
      </trkpt>
      <trkpt lat="43.47296" lon="5.76797">
        <ele>326.8</ele>
        <time>2016-01-23T15:34:17Z</time>
      </trkpt>
      <trkpt lat="43.47312" lon="5.76761">
        <ele>326</ele>
        <time>2016-01-23T15:34:18Z</time>
      </trkpt>
      <trkpt lat="43.47327" lon="5.76726">
        <ele>324.7</ele>
        <time>2016-01-23T15:34:19Z</time>
      </trkpt>
      <trkpt lat="43.47343" lon="5.7669">
        <ele>324.1</ele>
        <time>2016-01-23T15:34:20Z</time>
      </trkpt>
      <trkpt lat="43.47357" lon="5.76655">
        <ele>322.9</ele>
        <time>2016-01-23T15:34:21Z</time>
      </trkpt>
      <trkpt lat="43.47372" lon="5.7662">
        <ele>322.3</ele>
        <time>2016-01-23T15:34:22Z</time>
      </trkpt>
      <trkpt lat="43.47386" lon="5.76585">
        <ele>321.1</ele>
        <time>2016-01-23T15:34:23Z</time>
      </trkpt>
      <trkpt lat="43.47401" lon="5.76549">
        <ele>320.3</ele>
        <time>2016-01-23T15:34:24Z</time>
      </trkpt>
      <trkpt lat="43.47416" lon="5.76514">
        <ele>319</ele>
        <time>2016-01-23T15:34:25Z</time>
      </trkpt>
      <trkpt lat="43.4743" lon="5.76479">
        <ele>317.6</ele>
        <time>2016-01-23T15:34:26Z</time>
      </trkpt>
      <trkpt lat="43.47445" lon="5.76445">
        <ele>317</ele>
        <time>2016-01-23T15:34:27Z</time>
      </trkpt>
      <trkpt lat="43.4746" lon="5.7641">
        <ele>316</ele>
        <time>2016-01-23T15:34:28Z</time>
      </trkpt>
      <trkpt lat="43.47476" lon="5.76376">
        <ele>314.3</ele>
        <time>2016-01-23T15:34:29Z</time>
      </trkpt>
      <trkpt lat="43.47493" lon="5.76342">
        <ele>313.1</ele>
        <time>2016-01-23T15:34:30Z</time>
      </trkpt>
      <trkpt lat="43.4751" lon="5.76308">
        <ele>312.6</ele>
        <time>2016-01-23T15:34:31Z</time>
      </trkpt>
      <trkpt lat="43.47527" lon="5.76274">
        <ele>311.7</ele>
        <time>2016-01-23T15:34:32Z</time>
      </trkpt>
      <trkpt lat="43.47543" lon="5.76242">
        <ele>309.4</ele>
        <time>2016-01-23T15:34:33Z</time>
      </trkpt>
      <trkpt lat="43.47556" lon="5.76214">
        <ele>309.7</ele>
        <time>2016-01-23T15:34:34Z</time>
      </trkpt>
      <trkpt lat="43.47567" lon="5.7619">
        <ele>308</ele>
        <time>2016-01-23T15:34:35Z</time>
      </trkpt>
      <trkpt lat="43.47577" lon="5.76169">
        <ele>307.8</ele>
        <time>2016-01-23T15:34:36Z</time>
      </trkpt>
      <trkpt lat="43.47586" lon="5.76149">
        <ele>307.8</ele>
        <time>2016-01-23T15:34:37Z</time>
      </trkpt>
      <trkpt lat="43.47594" lon="5.76134">
        <ele>307.1</ele>
        <time>2016-01-23T15:34:38Z</time>
      </trkpt>
      <trkpt lat="43.476" lon="5.76121">
        <ele>306.7</ele>
        <time>2016-01-23T15:34:39Z</time>
      </trkpt>
      <trkpt lat="43.47605" lon="5.7611">
        <ele>306.7</ele>
        <time>2016-01-23T15:34:40Z</time>
      </trkpt>
      <trkpt lat="43.47607" lon="5.76104">
        <ele>306.6</ele>
        <time>2016-01-23T15:34:41Z</time>
      </trkpt>
      <trkpt lat="43.47609" lon="5.761">
        <ele>306.5</ele>
        <time>2016-01-23T15:34:42Z</time>
      </trkpt>
      <trkpt lat="43.47609" lon="5.76099">
        <ele>306.5</ele>
        <time>2016-01-23T15:34:43Z</time>
      </trkpt>
      <trkpt lat="43.47608" lon="5.76099">
        <ele>306.5</ele>
        <time>2016-01-23T15:34:44Z</time>
      </trkpt>
      <trkpt lat="43.47606" lon="5.76101">
        <ele>306.5</ele>
        <time>2016-01-23T15:34:45Z</time>
      </trkpt>
      <trkpt lat="43.47606" lon="5.76102">
        <ele>306.5</ele>
        <time>2016-01-23T15:34:46Z</time>
      </trkpt>
      <trkpt lat="43.47605" lon="5.76102">
        <ele>306.5</ele>
        <time>2016-01-23T15:34:47Z</time>
      </trkpt>
      <trkpt lat="43.47605" lon="5.76101">
        <ele>306.5</ele>
        <time>2016-01-23T15:34:48Z</time>
      </trkpt>
      <trkpt lat="43.47604" lon="5.76098">
        <ele>306.4</ele>
        <time>2016-01-23T15:34:49Z</time>
      </trkpt>
      <trkpt lat="43.47603" lon="5.76092">
        <ele>306.2</ele>
        <time>2016-01-23T15:34:50Z</time>
      </trkpt>
      <trkpt lat="43.47601" lon="5.76084">
        <ele>306</ele>
        <time>2016-01-23T15:34:51Z</time>
      </trkpt>
      <trkpt lat="43.47598" lon="5.76077">
        <ele>305.8</ele>
        <time>2016-01-23T15:34:52Z</time>
      </trkpt>
      <trkpt lat="43.47592" lon="5.76069">
        <ele>305.5</ele>
        <time>2016-01-23T15:34:53Z</time>
      </trkpt>
      <trkpt lat="43.47585" lon="5.76061">
        <ele>305.2</ele>
        <time>2016-01-23T15:34:54Z</time>
      </trkpt>
      <trkpt lat="43.47573" lon="5.7605">
        <ele>305.2</ele>
        <time>2016-01-23T15:34:55Z</time>
      </trkpt>
      <trkpt lat="43.4756" lon="5.76036">
        <ele>305.1</ele>
        <time>2016-01-23T15:34:56Z</time>
      </trkpt>
      <trkpt lat="43.47546" lon="5.7602">
        <ele>305.2</ele>
        <time>2016-01-23T15:34:57Z</time>
      </trkpt>
      <trkpt lat="43.47532" lon="5.76002">
        <ele>305.1</ele>
        <time>2016-01-23T15:34:58Z</time>
      </trkpt>
      <trkpt lat="43.47515" lon="5.75982">
        <ele>305</ele>
        <time>2016-01-23T15:34:59Z</time>
      </trkpt>
      <trkpt lat="43.47497" lon="5.75961">
        <ele>304.6</ele>
        <time>2016-01-23T15:35:00Z</time>
      </trkpt>
      <trkpt lat="43.47479" lon="5.75938">
        <ele>304.4</ele>
        <time>2016-01-23T15:35:01Z</time>
      </trkpt>
      <trkpt lat="43.47461" lon="5.75916">
        <ele>303.8</ele>
        <time>2016-01-23T15:35:02Z</time>
      </trkpt>
      <trkpt lat="43.47442" lon="5.75894">
        <ele>304.2</ele>
        <time>2016-01-23T15:35:03Z</time>
      </trkpt>
      <trkpt lat="43.47424" lon="5.75871">
        <ele>304.4</ele>
        <time>2016-01-23T15:35:04Z</time>
      </trkpt>
      <trkpt lat="43.47406" lon="5.75848">
        <ele>305.9</ele>
        <time>2016-01-23T15:35:05Z</time>
      </trkpt>
      <trkpt lat="43.4739" lon="5.75822">
        <ele>304.1</ele>
        <time>2016-01-23T15:35:06Z</time>
      </trkpt>
      <trkpt lat="43.47373" lon="5.75791">
        <ele>303.4</ele>
        <time>2016-01-23T15:35:07Z</time>
      </trkpt>
      <trkpt lat="43.47357" lon="5.75758">
        <ele>302.9</ele>
        <time>2016-01-23T15:35:08Z</time>
      </trkpt>
      <trkpt lat="43.47341" lon="5.75725">
        <ele>301.4</ele>
        <time>2016-01-23T15:35:09Z</time>
      </trkpt>
      <trkpt lat="43.47325" lon="5.75692">
        <ele>302</ele>
        <time>2016-01-23T15:35:10Z</time>
      </trkpt>
      <trkpt lat="43.4731" lon="5.7566">
        <ele>302.7</ele>
        <time>2016-01-23T15:35:11Z</time>
      </trkpt>
      <trkpt lat="43.47295" lon="5.75628">
        <ele>302.3</ele>
        <time>2016-01-23T15:35:12Z</time>
      </trkpt>
      <trkpt lat="43.47281" lon="5.75597">
        <ele>302.7</ele>
        <time>2016-01-23T15:35:13Z</time>
      </trkpt>
      <trkpt lat="43.47267" lon="5.75567">
        <ele>302.6</ele>
        <time>2016-01-23T15:35:14Z</time>
      </trkpt>
      <trkpt lat="43.47253" lon="5.75538">
        <ele>304.2</ele>
        <time>2016-01-23T15:35:15Z</time>
      </trkpt>
      <trkpt lat="43.47236" lon="5.7551">
        <ele>305.5</ele>
        <time>2016-01-23T15:35:16Z</time>
      </trkpt>
      <trkpt lat="43.47219" lon="5.75482">
        <ele>306.4</ele>
        <time>2016-01-23T15:35:17Z</time>
      </trkpt>
      <trkpt lat="43.47198" lon="5.75455">
        <ele>308</ele>
        <time>2016-01-23T15:35:18Z</time>
      </trkpt>
      <trkpt lat="43.47176" lon="5.75429">
        <ele>309.4</ele>
        <time>2016-01-23T15:35:19Z</time>
      </trkpt>
      <trkpt lat="43.47152" lon="5.75402">
        <ele>311.1</ele>
        <time>2016-01-23T15:35:20Z</time>
      </trkpt>
      <trkpt lat="43.47129" lon="5.75375">
        <ele>313.2</ele>
        <time>2016-01-23T15:35:21Z</time>
      </trkpt>
      <trkpt lat="43.47107" lon="5.75348">
        <ele>314.5</ele>
        <time>2016-01-23T15:35:22Z</time>
      </trkpt>
      <trkpt lat="43.47085" lon="5.75323">
        <ele>315.4</ele>
        <time>2016-01-23T15:35:23Z</time>
      </trkpt>
      <trkpt lat="43.47064" lon="5.75299">
        <ele>316.9</ele>
        <time>2016-01-23T15:35:24Z</time>
      </trkpt>
      <trkpt lat="43.47045" lon="5.75276">
        <ele>318.4</ele>
        <time>2016-01-23T15:35:25Z</time>
      </trkpt>
      <trkpt lat="43.47026" lon="5.75255">
        <ele>319</ele>
        <time>2016-01-23T15:35:26Z</time>
      </trkpt>
      <trkpt lat="43.47008" lon="5.75236">
        <ele>319.1</ele>
        <time>2016-01-23T15:35:27Z</time>
      </trkpt>
      <trkpt lat="43.46992" lon="5.75218">
        <ele>318.8</ele>
        <time>2016-01-23T15:35:28Z</time>
      </trkpt>
      <trkpt lat="43.46982" lon="5.752">
        <ele>318.6</ele>
        <time>2016-01-23T15:35:29Z</time>
      </trkpt>
      <trkpt lat="43.46978" lon="5.7518">
        <ele>317.9</ele>
        <time>2016-01-23T15:35:30Z</time>
      </trkpt>
      <trkpt lat="43.46974" lon="5.75156">
        <ele>316.3</ele>
        <time>2016-01-23T15:35:31Z</time>
      </trkpt>
      <trkpt lat="43.46971" lon="5.75129">
        <ele>315.2</ele>
        <time>2016-01-23T15:35:32Z</time>
      </trkpt>
      <trkpt lat="43.46969" lon="5.75098">
        <ele>315.5</ele>
        <time>2016-01-23T15:35:33Z</time>
      </trkpt>
      <trkpt lat="43.46967" lon="5.75066">
        <ele>314.6</ele>
        <time>2016-01-23T15:35:34Z</time>
      </trkpt>
      <trkpt lat="43.46965" lon="5.75034">
        <ele>314.7</ele>
        <time>2016-01-23T15:35:35Z</time>
      </trkpt>
      <trkpt lat="43.46964" lon="5.75003">
        <ele>314.3</ele>
        <time>2016-01-23T15:35:36Z</time>
      </trkpt>
      <trkpt lat="43.46964" lon="5.74973">
        <ele>313</ele>
        <time>2016-01-23T15:35:37Z</time>
      </trkpt>
      <trkpt lat="43.46966" lon="5.74945">
        <ele>311.5</ele>
        <time>2016-01-23T15:35:38Z</time>
      </trkpt>
      <trkpt lat="43.46967" lon="5.74919">
        <ele>311</ele>
        <time>2016-01-23T15:35:39Z</time>
      </trkpt>
      <trkpt lat="43.46965" lon="5.74896">
        <ele>309.7</ele>
        <time>2016-01-23T15:35:40Z</time>
      </trkpt>
      <trkpt lat="43.46957" lon="5.74874">
        <ele>307.9</ele>
        <time>2016-01-23T15:35:41Z</time>
      </trkpt>
      <trkpt lat="43.46946" lon="5.7485">
        <ele>305.7</ele>
        <time>2016-01-23T15:35:42Z</time>
      </trkpt>
      <trkpt lat="43.46933" lon="5.74826">
        <ele>304.4</ele>
        <time>2016-01-23T15:35:43Z</time>
      </trkpt>
      <trkpt lat="43.46916" lon="5.74798">
        <ele>304</ele>
        <time>2016-01-23T15:35:44Z</time>
      </trkpt>
      <trkpt lat="43.46899" lon="5.74768">
        <ele>302.4</ele>
        <time>2016-01-23T15:35:45Z</time>
      </trkpt>
      <trkpt lat="43.46882" lon="5.74739">
        <ele>301.5</ele>
        <time>2016-01-23T15:35:46Z</time>
      </trkpt>
      <trkpt lat="43.46865" lon="5.7471">
        <ele>300.3</ele>
        <time>2016-01-23T15:35:47Z</time>
      </trkpt>
      <trkpt lat="43.46849" lon="5.74681">
        <ele>299.3</ele>
        <time>2016-01-23T15:35:48Z</time>
      </trkpt>
      <trkpt lat="43.46833" lon="5.74653">
        <ele>298.6</ele>
        <time>2016-01-23T15:35:49Z</time>
      </trkpt>
      <trkpt lat="43.46817" lon="5.74626">
        <ele>298.6</ele>
        <time>2016-01-23T15:35:50Z</time>
      </trkpt>
      <trkpt lat="43.46801" lon="5.74598">
        <ele>297.1</ele>
        <time>2016-01-23T15:35:51Z</time>
      </trkpt>
      <trkpt lat="43.46787" lon="5.7457">
        <ele>296.3</ele>
        <time>2016-01-23T15:35:52Z</time>
      </trkpt>
      <trkpt lat="43.46774" lon="5.74541">
        <ele>296.3</ele>
        <time>2016-01-23T15:35:53Z</time>
      </trkpt>
      <trkpt lat="43.46763" lon="5.74509">
        <ele>295.2</ele>
        <time>2016-01-23T15:35:54Z</time>
      </trkpt>
      <trkpt lat="43.46755" lon="5.74476">
        <ele>295.8</ele>
        <time>2016-01-23T15:35:55Z</time>
      </trkpt>
      <trkpt lat="43.46748" lon="5.74442">
        <ele>296</ele>
        <time>2016-01-23T15:35:56Z</time>
      </trkpt>
      <trkpt lat="43.46744" lon="5.74408">
        <ele>295.2</ele>
        <time>2016-01-23T15:35:57Z</time>
      </trkpt>
      <trkpt lat="43.46741" lon="5.74373">
        <ele>295.1</ele>
        <time>2016-01-23T15:35:58Z</time>
      </trkpt>
      <trkpt lat="43.46739" lon="5.74338">
        <ele>294.5</ele>
        <time>2016-01-23T15:35:59Z</time>
      </trkpt>
      <trkpt lat="43.46737" lon="5.74303">
        <ele>294.4</ele>
        <time>2016-01-23T15:36:00Z</time>
      </trkpt>
      <trkpt lat="43.46735" lon="5.74268">
        <ele>294.1</ele>
        <time>2016-01-23T15:36:01Z</time>
      </trkpt>
      <trkpt lat="43.46734" lon="5.74233">
        <ele>293.8</ele>
        <time>2016-01-23T15:36:02Z</time>
      </trkpt>
      <trkpt lat="43.46732" lon="5.74198">
        <ele>293.7</ele>
        <time>2016-01-23T15:36:03Z</time>
      </trkpt>
      <trkpt lat="43.4673" lon="5.74163">
        <ele>293.7</ele>
        <time>2016-01-23T15:36:04Z</time>
      </trkpt>
      <trkpt lat="43.46728" lon="5.74128">
        <ele>293.3</ele>
        <time>2016-01-23T15:36:05Z</time>
      </trkpt>
      <trkpt lat="43.46725" lon="5.74093">
        <ele>292.8</ele>
        <time>2016-01-23T15:36:06Z</time>
      </trkpt>
      <trkpt lat="43.46722" lon="5.74059">
        <ele>292.1</ele>
        <time>2016-01-23T15:36:07Z</time>
      </trkpt>
      <trkpt lat="43.46718" lon="5.74025">
        <ele>291.9</ele>
        <time>2016-01-23T15:36:08Z</time>
      </trkpt>
      <trkpt lat="43.46715" lon="5.73991">
        <ele>290.8</ele>
        <time>2016-01-23T15:36:09Z</time>
      </trkpt>
      <trkpt lat="43.46713" lon="5.73956">
        <ele>290</ele>
        <time>2016-01-23T15:36:10Z</time>
      </trkpt>
      <trkpt lat="43.46712" lon="5.73921">
        <ele>289.8</ele>
        <time>2016-01-23T15:36:11Z</time>
      </trkpt>
      <trkpt lat="43.46711" lon="5.73886">
        <ele>289.4</ele>
        <time>2016-01-23T15:36:12Z</time>
      </trkpt>
      <trkpt lat="43.4671" lon="5.73851">
        <ele>289.1</ele>
        <time>2016-01-23T15:36:13Z</time>
      </trkpt>
      <trkpt lat="43.46709" lon="5.73817">
        <ele>288.5</ele>
        <time>2016-01-23T15:36:14Z</time>
      </trkpt>
      <trkpt lat="43.46708" lon="5.73783">
        <ele>287.7</ele>
        <time>2016-01-23T15:36:15Z</time>
      </trkpt>
      <trkpt lat="43.46707" lon="5.73749">
        <ele>287.5</ele>
        <time>2016-01-23T15:36:16Z</time>
      </trkpt>
      <trkpt lat="43.46706" lon="5.73715">
        <ele>286.6</ele>
        <time>2016-01-23T15:36:17Z</time>
      </trkpt>
      <trkpt lat="43.46705" lon="5.73681">
        <ele>286.2</ele>
        <time>2016-01-23T15:36:18Z</time>
      </trkpt>
      <trkpt lat="43.46704" lon="5.73648">
        <ele>285.7</ele>
        <time>2016-01-23T15:36:19Z</time>
      </trkpt>
      <trkpt lat="43.46703" lon="5.73616">
        <ele>285.7</ele>
        <time>2016-01-23T15:36:20Z</time>
      </trkpt>
      <trkpt lat="43.46701" lon="5.73584">
        <ele>284.8</ele>
        <time>2016-01-23T15:36:21Z</time>
      </trkpt>
      <trkpt lat="43.46699" lon="5.73553">
        <ele>284.7</ele>
        <time>2016-01-23T15:36:22Z</time>
      </trkpt>
      <trkpt lat="43.46696" lon="5.73521">
        <ele>283.2</ele>
        <time>2016-01-23T15:36:23Z</time>
      </trkpt>
      <trkpt lat="43.4669" lon="5.73488">
        <ele>281.7</ele>
        <time>2016-01-23T15:36:24Z</time>
      </trkpt>
      <trkpt lat="43.46684" lon="5.73456">
        <ele>283.5</ele>
        <time>2016-01-23T15:36:25Z</time>
      </trkpt>
      <trkpt lat="43.46675" lon="5.73422">
        <ele>284.8</ele>
        <time>2016-01-23T15:36:26Z</time>
      </trkpt>
      <trkpt lat="43.46666" lon="5.73387">
        <ele>286</ele>
        <time>2016-01-23T15:36:27Z</time>
      </trkpt>
      <trkpt lat="43.46656" lon="5.73351">
        <ele>286.4</ele>
        <time>2016-01-23T15:36:28Z</time>
      </trkpt>
      <trkpt lat="43.46647" lon="5.73317">
        <ele>286.3</ele>
        <time>2016-01-23T15:36:29Z</time>
      </trkpt>
      <trkpt lat="43.46637" lon="5.73283">
        <ele>286.1</ele>
        <time>2016-01-23T15:36:30Z</time>
      </trkpt>
      <trkpt lat="43.46628" lon="5.73249">
        <ele>286.4</ele>
        <time>2016-01-23T15:36:31Z</time>
      </trkpt>
      <trkpt lat="43.46619" lon="5.73216">
        <ele>286.7</ele>
        <time>2016-01-23T15:36:32Z</time>
      </trkpt>
      <trkpt lat="43.46611" lon="5.73182">
        <ele>286.6</ele>
        <time>2016-01-23T15:36:33Z</time>
      </trkpt>
      <trkpt lat="43.46603" lon="5.73148">
        <ele>285.8</ele>
        <time>2016-01-23T15:36:34Z</time>
      </trkpt>
      <trkpt lat="43.46596" lon="5.73113">
        <ele>285.6</ele>
        <time>2016-01-23T15:36:35Z</time>
      </trkpt>
      <trkpt lat="43.46588" lon="5.73078">
        <ele>285.8</ele>
        <time>2016-01-23T15:36:36Z</time>
      </trkpt>
      <trkpt lat="43.46581" lon="5.73043">
        <ele>285.6</ele>
        <time>2016-01-23T15:36:37Z</time>
      </trkpt>
      <trkpt lat="43.46574" lon="5.73008">
        <ele>285.3</ele>
        <time>2016-01-23T15:36:38Z</time>
      </trkpt>
      <trkpt lat="43.46566" lon="5.72974">
        <ele>285.3</ele>
        <time>2016-01-23T15:36:39Z</time>
      </trkpt>
      <trkpt lat="43.46559" lon="5.72939">
        <ele>284.7</ele>
        <time>2016-01-23T15:36:40Z</time>
      </trkpt>
      <trkpt lat="43.46552" lon="5.72905">
        <ele>283.6</ele>
        <time>2016-01-23T15:36:41Z</time>
      </trkpt>
      <trkpt lat="43.46544" lon="5.7287">
        <ele>282.3</ele>
        <time>2016-01-23T15:36:42Z</time>
      </trkpt>
      <trkpt lat="43.46536" lon="5.72835">
        <ele>281.7</ele>
        <time>2016-01-23T15:36:43Z</time>
      </trkpt>
      <trkpt lat="43.46529" lon="5.728">
        <ele>280.8</ele>
        <time>2016-01-23T15:36:44Z</time>
      </trkpt>
      <trkpt lat="43.46521" lon="5.72765">
        <ele>279.8</ele>
        <time>2016-01-23T15:36:45Z</time>
      </trkpt>
      <trkpt lat="43.46513" lon="5.72729">
        <ele>279.2</ele>
        <time>2016-01-23T15:36:46Z</time>
      </trkpt>
      <trkpt lat="43.46506" lon="5.72694">
        <ele>279.6</ele>
        <time>2016-01-23T15:36:47Z</time>
      </trkpt>
      <trkpt lat="43.46498" lon="5.72658">
        <ele>279.8</ele>
        <time>2016-01-23T15:36:48Z</time>
      </trkpt>
      <trkpt lat="43.46491" lon="5.72624">
        <ele>279.7</ele>
        <time>2016-01-23T15:36:49Z</time>
      </trkpt>
      <trkpt lat="43.46484" lon="5.7259">
        <ele>279.9</ele>
        <time>2016-01-23T15:36:50Z</time>
      </trkpt>
      <trkpt lat="43.46477" lon="5.72557">
        <ele>280.7</ele>
        <time>2016-01-23T15:36:51Z</time>
      </trkpt>
      <trkpt lat="43.4647" lon="5.72524">
        <ele>281.1</ele>
        <time>2016-01-23T15:36:52Z</time>
      </trkpt>
      <trkpt lat="43.46463" lon="5.72492">
        <ele>281.4</ele>
        <time>2016-01-23T15:36:53Z</time>
      </trkpt>
      <trkpt lat="43.46455" lon="5.7246">
        <ele>281.2</ele>
        <time>2016-01-23T15:36:54Z</time>
      </trkpt>
      <trkpt lat="43.46448" lon="5.72428">
        <ele>280.5</ele>
        <time>2016-01-23T15:36:55Z</time>
      </trkpt>
      <trkpt lat="43.46441" lon="5.72396">
        <ele>279.3</ele>
        <time>2016-01-23T15:36:56Z</time>
      </trkpt>
      <trkpt lat="43.46433" lon="5.72363">
        <ele>278.6</ele>
        <time>2016-01-23T15:36:57Z</time>
      </trkpt>
      <trkpt lat="43.46425" lon="5.72331">
        <ele>278</ele>
        <time>2016-01-23T15:36:58Z</time>
      </trkpt>
      <trkpt lat="43.46417" lon="5.723">
        <ele>278</ele>
        <time>2016-01-23T15:36:59Z</time>
      </trkpt>
      <trkpt lat="43.46408" lon="5.72269">
        <ele>278.8</ele>
        <time>2016-01-23T15:37:00Z</time>
      </trkpt>
      <trkpt lat="43.46398" lon="5.72239">
        <ele>278.3</ele>
        <time>2016-01-23T15:37:01Z</time>
      </trkpt>
      <trkpt lat="43.46388" lon="5.72209">
        <ele>277</ele>
        <time>2016-01-23T15:37:02Z</time>
      </trkpt>
      <trkpt lat="43.46378" lon="5.72179">
        <ele>275.7</ele>
        <time>2016-01-23T15:37:03Z</time>
      </trkpt>
      <trkpt lat="43.46366" lon="5.72149">
        <ele>274.8</ele>
        <time>2016-01-23T15:37:04Z</time>
      </trkpt>
      <trkpt lat="43.46355" lon="5.72119">
        <ele>273.2</ele>
        <time>2016-01-23T15:37:05Z</time>
      </trkpt>
      <trkpt lat="43.46343" lon="5.72089">
        <ele>272.5</ele>
        <time>2016-01-23T15:37:06Z</time>
      </trkpt>
      <trkpt lat="43.4633" lon="5.7206">
        <ele>271.5</ele>
        <time>2016-01-23T15:37:07Z</time>
      </trkpt>
      <trkpt lat="43.46318" lon="5.72031">
        <ele>271.2</ele>
        <time>2016-01-23T15:37:08Z</time>
      </trkpt>
      <trkpt lat="43.46305" lon="5.72002">
        <ele>271.1</ele>
        <time>2016-01-23T15:37:09Z</time>
      </trkpt>
      <trkpt lat="43.46293" lon="5.71974">
        <ele>270.5</ele>
        <time>2016-01-23T15:37:10Z</time>
      </trkpt>
      <trkpt lat="43.4628" lon="5.71946">
        <ele>270</ele>
        <time>2016-01-23T15:37:11Z</time>
      </trkpt>
      <trkpt lat="43.46267" lon="5.71918">
        <ele>269</ele>
        <time>2016-01-23T15:37:12Z</time>
      </trkpt>
      <trkpt lat="43.46254" lon="5.71889">
        <ele>269</ele>
        <time>2016-01-23T15:37:13Z</time>
      </trkpt>
      <trkpt lat="43.4624" lon="5.7186">
        <ele>267.6</ele>
        <time>2016-01-23T15:37:14Z</time>
      </trkpt>
      <trkpt lat="43.46227" lon="5.71831">
        <ele>266.9</ele>
        <time>2016-01-23T15:37:15Z</time>
      </trkpt>
      <trkpt lat="43.46214" lon="5.71802">
        <ele>265.9</ele>
        <time>2016-01-23T15:37:16Z</time>
      </trkpt>
      <trkpt lat="43.46201" lon="5.71773">
        <ele>264.6</ele>
        <time>2016-01-23T15:37:17Z</time>
      </trkpt>
      <trkpt lat="43.46188" lon="5.71744">
        <ele>264.5</ele>
        <time>2016-01-23T15:37:18Z</time>
      </trkpt>
      <trkpt lat="43.46176" lon="5.71716">
        <ele>263.7</ele>
        <time>2016-01-23T15:37:19Z</time>
      </trkpt>
      <trkpt lat="43.46163" lon="5.71687">
        <ele>261.6</ele>
        <time>2016-01-23T15:37:20Z</time>
      </trkpt>
      <trkpt lat="43.46151" lon="5.7166">
        <ele>260.1</ele>
        <time>2016-01-23T15:37:21Z</time>
      </trkpt>
      <trkpt lat="43.46139" lon="5.71632">
        <ele>259.5</ele>
        <time>2016-01-23T15:37:22Z</time>
      </trkpt>
      <trkpt lat="43.46126" lon="5.71605">
        <ele>257.5</ele>
        <time>2016-01-23T15:37:23Z</time>
      </trkpt>
      <trkpt lat="43.46114" lon="5.71577">
        <ele>257.5</ele>
        <time>2016-01-23T15:37:24Z</time>
      </trkpt>
      <trkpt lat="43.46102" lon="5.71551">
        <ele>255.9</ele>
        <time>2016-01-23T15:37:25Z</time>
      </trkpt>
      <trkpt lat="43.4609" lon="5.71524">
        <ele>255.6</ele>
        <time>2016-01-23T15:37:26Z</time>
      </trkpt>
      <trkpt lat="43.46078" lon="5.71498">
        <ele>254.7</ele>
        <time>2016-01-23T15:37:27Z</time>
      </trkpt>
      <trkpt lat="43.46066" lon="5.71473">
        <ele>254</ele>
        <time>2016-01-23T15:37:28Z</time>
      </trkpt>
      <trkpt lat="43.46054" lon="5.71447">
        <ele>254</ele>
        <time>2016-01-23T15:37:29Z</time>
      </trkpt>
      <trkpt lat="43.46043" lon="5.71421">
        <ele>253.2</ele>
        <time>2016-01-23T15:37:30Z</time>
      </trkpt>
      <trkpt lat="43.46032" lon="5.71396">
        <ele>252.9</ele>
        <time>2016-01-23T15:37:31Z</time>
      </trkpt>
      <trkpt lat="43.46021" lon="5.71371">
        <ele>252.5</ele>
        <time>2016-01-23T15:37:32Z</time>
      </trkpt>
      <trkpt lat="43.46009" lon="5.71347">
        <ele>252.7</ele>
        <time>2016-01-23T15:37:33Z</time>
      </trkpt>
      <trkpt lat="43.45998" lon="5.71322">
        <ele>252.6</ele>
        <time>2016-01-23T15:37:34Z</time>
      </trkpt>
      <trkpt lat="43.45987" lon="5.71298">
        <ele>252.3</ele>
        <time>2016-01-23T15:37:35Z</time>
      </trkpt>
      <trkpt lat="43.45976" lon="5.71274">
        <ele>252</ele>
        <time>2016-01-23T15:37:36Z</time>
      </trkpt>
      <trkpt lat="43.45965" lon="5.71251">
        <ele>252</ele>
        <time>2016-01-23T15:37:37Z</time>
      </trkpt>
      <trkpt lat="43.45955" lon="5.71228">
        <ele>252</ele>
        <time>2016-01-23T15:37:38Z</time>
      </trkpt>
      <trkpt lat="43.45944" lon="5.71205">
        <ele>252</ele>
        <time>2016-01-23T15:37:39Z</time>
      </trkpt>
      <trkpt lat="43.45933" lon="5.71181">
        <ele>251.7</ele>
        <time>2016-01-23T15:37:40Z</time>
      </trkpt>
      <trkpt lat="43.45923" lon="5.71158">
        <ele>251.8</ele>
        <time>2016-01-23T15:37:41Z</time>
      </trkpt>
      <trkpt lat="43.45912" lon="5.71134">
        <ele>251.8</ele>
        <time>2016-01-23T15:37:42Z</time>
      </trkpt>
      <trkpt lat="43.45901" lon="5.71111">
        <ele>251</ele>
        <time>2016-01-23T15:37:43Z</time>
      </trkpt>
      <trkpt lat="43.45891" lon="5.71087">
        <ele>251</ele>
        <time>2016-01-23T15:37:44Z</time>
      </trkpt>
      <trkpt lat="43.4588" lon="5.71064">
        <ele>250.5</ele>
        <time>2016-01-23T15:37:45Z</time>
      </trkpt>
      <trkpt lat="43.45869" lon="5.71041">
        <ele>250.7</ele>
        <time>2016-01-23T15:37:46Z</time>
      </trkpt>
      <trkpt lat="43.45859" lon="5.71017">
        <ele>250.6</ele>
        <time>2016-01-23T15:37:47Z</time>
      </trkpt>
      <trkpt lat="43.45848" lon="5.70994">
        <ele>249.9</ele>
        <time>2016-01-23T15:37:48Z</time>
      </trkpt>
      <trkpt lat="43.45838" lon="5.70972">
        <ele>249.8</ele>
        <time>2016-01-23T15:37:49Z</time>
      </trkpt>
      <trkpt lat="43.45827" lon="5.70949">
        <ele>249.1</ele>
        <time>2016-01-23T15:37:50Z</time>
      </trkpt>
      <trkpt lat="43.45816" lon="5.70926">
        <ele>249.8</ele>
        <time>2016-01-23T15:37:51Z</time>
      </trkpt>
      <trkpt lat="43.45805" lon="5.70902">
        <ele>251</ele>
        <time>2016-01-23T15:37:52Z</time>
      </trkpt>
      <trkpt lat="43.45794" lon="5.70879">
        <ele>251.3</ele>
        <time>2016-01-23T15:37:53Z</time>
      </trkpt>
      <trkpt lat="43.45784" lon="5.70856">
        <ele>251</ele>
        <time>2016-01-23T15:37:54Z</time>
      </trkpt>
      <trkpt lat="43.45774" lon="5.70833">
        <ele>251.2</ele>
        <time>2016-01-23T15:37:55Z</time>
      </trkpt>
      <trkpt lat="43.45763" lon="5.7081">
        <ele>251.5</ele>
        <time>2016-01-23T15:37:56Z</time>
      </trkpt>
      <trkpt lat="43.45753" lon="5.70787">
        <ele>251.2</ele>
        <time>2016-01-23T15:37:57Z</time>
      </trkpt>
      <trkpt lat="43.45742" lon="5.70764">
        <ele>250.9</ele>
        <time>2016-01-23T15:37:58Z</time>
      </trkpt>
      <trkpt lat="43.45732" lon="5.70742">
        <ele>250.3</ele>
        <time>2016-01-23T15:37:59Z</time>
      </trkpt>
      <trkpt lat="43.45722" lon="5.70719">
        <ele>250</ele>
        <time>2016-01-23T15:38:00Z</time>
      </trkpt>
      <trkpt lat="43.45712" lon="5.70697">
        <ele>249.6</ele>
        <time>2016-01-23T15:38:01Z</time>
      </trkpt>
      <trkpt lat="43.45703" lon="5.70675">
        <ele>249.6</ele>
        <time>2016-01-23T15:38:02Z</time>
      </trkpt>
      <trkpt lat="43.45693" lon="5.70654">
        <ele>250</ele>
        <time>2016-01-23T15:38:03Z</time>
      </trkpt>
      <trkpt lat="43.45684" lon="5.70632">
        <ele>249.9</ele>
        <time>2016-01-23T15:38:04Z</time>
      </trkpt>
      <trkpt lat="43.45675" lon="5.70611">
        <ele>249.7</ele>
        <time>2016-01-23T15:38:05Z</time>
      </trkpt>
      <trkpt lat="43.45666" lon="5.7059">
        <ele>250</ele>
        <time>2016-01-23T15:38:06Z</time>
      </trkpt>
      <trkpt lat="43.45658" lon="5.7057">
        <ele>250.3</ele>
        <time>2016-01-23T15:38:07Z</time>
      </trkpt>
      <trkpt lat="43.45649" lon="5.7055">
        <ele>250.6</ele>
        <time>2016-01-23T15:38:08Z</time>
      </trkpt>
      <trkpt lat="43.4564" lon="5.7053">
        <ele>250.9</ele>
        <time>2016-01-23T15:38:09Z</time>
      </trkpt>
      <trkpt lat="43.45632" lon="5.7051">
        <ele>250.9</ele>
        <time>2016-01-23T15:38:10Z</time>
      </trkpt>
      <trkpt lat="43.45624" lon="5.70491">
        <ele>250.3</ele>
        <time>2016-01-23T15:38:11Z</time>
      </trkpt>
      <trkpt lat="43.45615" lon="5.70471">
        <ele>250</ele>
        <time>2016-01-23T15:38:12Z</time>
      </trkpt>
      <trkpt lat="43.45605" lon="5.70452">
        <ele>249.2</ele>
        <time>2016-01-23T15:38:13Z</time>
      </trkpt>
      <trkpt lat="43.45596" lon="5.70433">
        <ele>249.2</ele>
        <time>2016-01-23T15:38:14Z</time>
      </trkpt>
      <trkpt lat="43.45588" lon="5.70414">
        <ele>249.7</ele>
        <time>2016-01-23T15:38:15Z</time>
      </trkpt>
      <trkpt lat="43.45579" lon="5.70396">
        <ele>248.4</ele>
        <time>2016-01-23T15:38:16Z</time>
      </trkpt>
      <trkpt lat="43.45571" lon="5.70379">
        <ele>248.2</ele>
        <time>2016-01-23T15:38:17Z</time>
      </trkpt>
      <trkpt lat="43.45564" lon="5.70362">
        <ele>248.7</ele>
        <time>2016-01-23T15:38:18Z</time>
      </trkpt>
      <trkpt lat="43.45556" lon="5.70345">
        <ele>249.6</ele>
        <time>2016-01-23T15:38:19Z</time>
      </trkpt>
      <trkpt lat="43.45548" lon="5.70327">
        <ele>249.8</ele>
        <time>2016-01-23T15:38:20Z</time>
      </trkpt>
      <trkpt lat="43.4554" lon="5.70309">
        <ele>249.9</ele>
        <time>2016-01-23T15:38:21Z</time>
      </trkpt>
      <trkpt lat="43.45531" lon="5.70289">
        <ele>250</ele>
        <time>2016-01-23T15:38:22Z</time>
      </trkpt>
      <trkpt lat="43.45523" lon="5.70269">
        <ele>249.7</ele>
        <time>2016-01-23T15:38:23Z</time>
      </trkpt>
      <trkpt lat="43.45514" lon="5.70249">
        <ele>249</ele>
        <time>2016-01-23T15:38:24Z</time>
      </trkpt>
      <trkpt lat="43.45506" lon="5.70229">
        <ele>249.6</ele>
        <time>2016-01-23T15:38:25Z</time>
      </trkpt>
      <trkpt lat="43.45496" lon="5.70209">
        <ele>249.5</ele>
        <time>2016-01-23T15:38:26Z</time>
      </trkpt>
      <trkpt lat="43.45487" lon="5.70189">
        <ele>248.9</ele>
        <time>2016-01-23T15:38:27Z</time>
      </trkpt>
      <trkpt lat="43.45477" lon="5.70168">
        <ele>248.8</ele>
        <time>2016-01-23T15:38:28Z</time>
      </trkpt>
      <trkpt lat="43.45468" lon="5.70146">
        <ele>249</ele>
        <time>2016-01-23T15:38:29Z</time>
      </trkpt>
      <trkpt lat="43.45458" lon="5.70125">
        <ele>248.8</ele>
        <time>2016-01-23T15:38:30Z</time>
      </trkpt>
      <trkpt lat="43.45449" lon="5.70104">
        <ele>248.6</ele>
        <time>2016-01-23T15:38:31Z</time>
      </trkpt>
      <trkpt lat="43.4544" lon="5.70083">
        <ele>248.2</ele>
        <time>2016-01-23T15:38:32Z</time>
      </trkpt>
      <trkpt lat="43.45431" lon="5.70063">
        <ele>248.5</ele>
        <time>2016-01-23T15:38:33Z</time>
      </trkpt>
      <trkpt lat="43.45422" lon="5.70042">
        <ele>248.7</ele>
        <time>2016-01-23T15:38:34Z</time>
      </trkpt>
      <trkpt lat="43.45413" lon="5.70021">
        <ele>249</ele>
        <time>2016-01-23T15:38:35Z</time>
      </trkpt>
      <trkpt lat="43.45404" lon="5.7">
        <ele>249.4</ele>
        <time>2016-01-23T15:38:36Z</time>
      </trkpt>
      <trkpt lat="43.45395" lon="5.6998">
        <ele>249.2</ele>
        <time>2016-01-23T15:38:37Z</time>
      </trkpt>
      <trkpt lat="43.45386" lon="5.69961">
        <ele>249</ele>
        <time>2016-01-23T15:38:38Z</time>
      </trkpt>
      <trkpt lat="43.45378" lon="5.69943">
        <ele>249.3</ele>
        <time>2016-01-23T15:38:39Z</time>
      </trkpt>
      <trkpt lat="43.4537" lon="5.69924">
        <ele>249</ele>
        <time>2016-01-23T15:38:40Z</time>
      </trkpt>
      <trkpt lat="43.45362" lon="5.69906">
        <ele>248.6</ele>
        <time>2016-01-23T15:38:41Z</time>
      </trkpt>
      <trkpt lat="43.45353" lon="5.69887">
        <ele>248.2</ele>
        <time>2016-01-23T15:38:42Z</time>
      </trkpt>
      <trkpt lat="43.45344" lon="5.69867">
        <ele>247.8</ele>
        <time>2016-01-23T15:38:43Z</time>
      </trkpt>
      <trkpt lat="43.45335" lon="5.69846">
        <ele>247.4</ele>
        <time>2016-01-23T15:38:44Z</time>
      </trkpt>
      <trkpt lat="43.45324" lon="5.69823">
        <ele>247</ele>
        <time>2016-01-23T15:38:45Z</time>
      </trkpt>
      <trkpt lat="43.45314" lon="5.698">
        <ele>247</ele>
        <time>2016-01-23T15:38:46Z</time>
      </trkpt>
      <trkpt lat="43.45304" lon="5.69777">
        <ele>246.9</ele>
        <time>2016-01-23T15:38:47Z</time>
      </trkpt>
      <trkpt lat="43.45294" lon="5.69756">
        <ele>246.1</ele>
        <time>2016-01-23T15:38:48Z</time>
      </trkpt>
      <trkpt lat="43.45284" lon="5.69735">
        <ele>245.6</ele>
        <time>2016-01-23T15:38:49Z</time>
      </trkpt>
      <trkpt lat="43.45275" lon="5.69716">
        <ele>244.7</ele>
        <time>2016-01-23T15:38:50Z</time>
      </trkpt>
      <trkpt lat="43.45267" lon="5.69698">
        <ele>244.1</ele>
        <time>2016-01-23T15:38:51Z</time>
      </trkpt>
      <trkpt lat="43.45259" lon="5.69682">
        <ele>244</ele>
        <time>2016-01-23T15:38:52Z</time>
      </trkpt>
      <trkpt lat="43.45252" lon="5.69665">
        <ele>243.9</ele>
        <time>2016-01-23T15:38:53Z</time>
      </trkpt>
      <trkpt lat="43.45244" lon="5.69648">
        <ele>242.7</ele>
        <time>2016-01-23T15:38:54Z</time>
      </trkpt>
      <trkpt lat="43.45236" lon="5.69631">
        <ele>242.5</ele>
        <time>2016-01-23T15:38:55Z</time>
      </trkpt>
      <trkpt lat="43.45228" lon="5.69613">
        <ele>242.8</ele>
        <time>2016-01-23T15:38:56Z</time>
      </trkpt>
      <trkpt lat="43.4522" lon="5.69596">
        <ele>242.4</ele>
        <time>2016-01-23T15:38:57Z</time>
      </trkpt>
      <trkpt lat="43.45212" lon="5.69578">
        <ele>242</ele>
        <time>2016-01-23T15:38:58Z</time>
      </trkpt>
      <trkpt lat="43.45204" lon="5.69561">
        <ele>242.3</ele>
        <time>2016-01-23T15:38:59Z</time>
      </trkpt>
      <trkpt lat="43.45196" lon="5.69545">
        <ele>242.5</ele>
        <time>2016-01-23T15:39:00Z</time>
      </trkpt>
      <trkpt lat="43.45188" lon="5.69528">
        <ele>242</ele>
        <time>2016-01-23T15:39:01Z</time>
      </trkpt>
      <trkpt lat="43.45181" lon="5.69511">
        <ele>242</ele>
        <time>2016-01-23T15:39:02Z</time>
      </trkpt>
      <trkpt lat="43.45174" lon="5.69495">
        <ele>242</ele>
        <time>2016-01-23T15:39:03Z</time>
      </trkpt>
      <trkpt lat="43.45167" lon="5.6948">
        <ele>242</ele>
        <time>2016-01-23T15:39:04Z</time>
      </trkpt>
      <trkpt lat="43.4516" lon="5.69464">
        <ele>241.7</ele>
        <time>2016-01-23T15:39:05Z</time>
      </trkpt>
      <trkpt lat="43.45153" lon="5.69449">
        <ele>241.1</ele>
        <time>2016-01-23T15:39:06Z</time>
      </trkpt>
      <trkpt lat="43.45146" lon="5.69433">
        <ele>241</ele>
        <time>2016-01-23T15:39:07Z</time>
      </trkpt>
      <trkpt lat="43.45139" lon="5.69416">
        <ele>241</ele>
        <time>2016-01-23T15:39:08Z</time>
      </trkpt>
      <trkpt lat="43.45132" lon="5.694">
        <ele>241</ele>
        <time>2016-01-23T15:39:09Z</time>
      </trkpt>
      <trkpt lat="43.45124" lon="5.69383">
        <ele>241</ele>
        <time>2016-01-23T15:39:10Z</time>
      </trkpt>
      <trkpt lat="43.45117" lon="5.69366">
        <ele>241</ele>
        <time>2016-01-23T15:39:11Z</time>
      </trkpt>
      <trkpt lat="43.45109" lon="5.6935">
        <ele>241</ele>
        <time>2016-01-23T15:39:12Z</time>
      </trkpt>
      <trkpt lat="43.45102" lon="5.69333">
        <ele>241</ele>
        <time>2016-01-23T15:39:13Z</time>
      </trkpt>
      <trkpt lat="43.45094" lon="5.69316">
        <ele>241</ele>
        <time>2016-01-23T15:39:14Z</time>
      </trkpt>
      <trkpt lat="43.45087" lon="5.693">
        <ele>241</ele>
        <time>2016-01-23T15:39:15Z</time>
      </trkpt>
      <trkpt lat="43.4508" lon="5.69283">
        <ele>241</ele>
        <time>2016-01-23T15:39:16Z</time>
      </trkpt>
      <trkpt lat="43.45073" lon="5.69268">
        <ele>241</ele>
        <time>2016-01-23T15:39:17Z</time>
      </trkpt>
      <trkpt lat="43.45067" lon="5.69253">
        <ele>241</ele>
        <time>2016-01-23T15:39:18Z</time>
      </trkpt>
      <trkpt lat="43.45061" lon="5.69239">
        <ele>241</ele>
        <time>2016-01-23T15:39:19Z</time>
      </trkpt>
      <trkpt lat="43.45055" lon="5.69226">
        <ele>241</ele>
        <time>2016-01-23T15:39:20Z</time>
      </trkpt>
      <trkpt lat="43.4505" lon="5.69213">
        <ele>241</ele>
        <time>2016-01-23T15:39:21Z</time>
      </trkpt>
      <trkpt lat="43.45044" lon="5.692">
        <ele>241</ele>
        <time>2016-01-23T15:39:22Z</time>
      </trkpt>
      <trkpt lat="43.45038" lon="5.69186">
        <ele>241</ele>
        <time>2016-01-23T15:39:23Z</time>
      </trkpt>
      <trkpt lat="43.45032" lon="5.69173">
        <ele>241</ele>
        <time>2016-01-23T15:39:24Z</time>
      </trkpt>
      <trkpt lat="43.45026" lon="5.6916">
        <ele>241</ele>
        <time>2016-01-23T15:39:25Z</time>
      </trkpt>
      <trkpt lat="43.4502" lon="5.69147">
        <ele>241</ele>
        <time>2016-01-23T15:39:26Z</time>
      </trkpt>
      <trkpt lat="43.45014" lon="5.69134">
        <ele>240.9</ele>
        <time>2016-01-23T15:39:27Z</time>
      </trkpt>
      <trkpt lat="43.45008" lon="5.69122">
        <ele>240.8</ele>
        <time>2016-01-23T15:39:28Z</time>
      </trkpt>
      <trkpt lat="43.45003" lon="5.69109">
        <ele>240.9</ele>
        <time>2016-01-23T15:39:29Z</time>
      </trkpt>
      <trkpt lat="43.44997" lon="5.69097">
        <ele>241.1</ele>
        <time>2016-01-23T15:39:30Z</time>
      </trkpt>
      <trkpt lat="43.44991" lon="5.69083">
        <ele>241.3</ele>
        <time>2016-01-23T15:39:31Z</time>
      </trkpt>
      <trkpt lat="43.44985" lon="5.6907">
        <ele>241.1</ele>
        <time>2016-01-23T15:39:32Z</time>
      </trkpt>
      <trkpt lat="43.44978" lon="5.69057">
        <ele>240.8</ele>
        <time>2016-01-23T15:39:33Z</time>
      </trkpt>
      <trkpt lat="43.44972" lon="5.69044">
        <ele>241</ele>
        <time>2016-01-23T15:39:34Z</time>
      </trkpt>
      <trkpt lat="43.44967" lon="5.69032">
        <ele>241</ele>
        <time>2016-01-23T15:39:35Z</time>
      </trkpt>
      <trkpt lat="43.44961" lon="5.69021">
        <ele>241</ele>
        <time>2016-01-23T15:39:36Z</time>
      </trkpt>
      <trkpt lat="43.44954" lon="5.69012">
        <ele>241</ele>
        <time>2016-01-23T15:39:37Z</time>
      </trkpt>
      <trkpt lat="43.44948" lon="5.69003">
        <ele>241</ele>
        <time>2016-01-23T15:39:38Z</time>
      </trkpt>
      <trkpt lat="43.44941" lon="5.68994">
        <ele>241</ele>
        <time>2016-01-23T15:39:39Z</time>
      </trkpt>
      <trkpt lat="43.44936" lon="5.68986">
        <ele>241</ele>
        <time>2016-01-23T15:39:40Z</time>
      </trkpt>
      <trkpt lat="43.44931" lon="5.68978">
        <ele>241</ele>
        <time>2016-01-23T15:39:41Z</time>
      </trkpt>
      <trkpt lat="43.44928" lon="5.68971">
        <ele>241.1</ele>
        <time>2016-01-23T15:39:42Z</time>
      </trkpt>
      <trkpt lat="43.44926" lon="5.68965">
        <ele>241.3</ele>
        <time>2016-01-23T15:39:43Z</time>
      </trkpt>
      <trkpt lat="43.44926" lon="5.68958">
        <ele>241.5</ele>
        <time>2016-01-23T15:39:44Z</time>
      </trkpt>
      <trkpt lat="43.44928" lon="5.68951">
        <ele>241.8</ele>
        <time>2016-01-23T15:39:45Z</time>
      </trkpt>
      <trkpt lat="43.44931" lon="5.68944">
        <ele>242</ele>
        <time>2016-01-23T15:39:46Z</time>
      </trkpt>
      <trkpt lat="43.44936" lon="5.68937">
        <ele>242.1</ele>
        <time>2016-01-23T15:39:47Z</time>
      </trkpt>
      <trkpt lat="43.44939" lon="5.68928">
        <ele>242.1</ele>
        <time>2016-01-23T15:39:48Z</time>
      </trkpt>
      <trkpt lat="43.44939" lon="5.68917">
        <ele>242.2</ele>
        <time>2016-01-23T15:39:49Z</time>
      </trkpt>
      <trkpt lat="43.44938" lon="5.68907">
        <ele>241.9</ele>
        <time>2016-01-23T15:39:50Z</time>
      </trkpt>
      <trkpt lat="43.44937" lon="5.68897">
        <ele>241.6</ele>
        <time>2016-01-23T15:39:51Z</time>
      </trkpt>
      <trkpt lat="43.44936" lon="5.68887">
        <ele>241.3</ele>
        <time>2016-01-23T15:39:52Z</time>
      </trkpt>
      <trkpt lat="43.44937" lon="5.68877">
        <ele>241.6</ele>
        <time>2016-01-23T15:39:53Z</time>
      </trkpt>
      <trkpt lat="43.4494" lon="5.68866">
        <ele>241.9</ele>
        <time>2016-01-23T15:39:54Z</time>
      </trkpt>
      <trkpt lat="43.44945" lon="5.68854">
        <ele>242</ele>
        <time>2016-01-23T15:39:55Z</time>
      </trkpt>
      <trkpt lat="43.44952" lon="5.68841">
        <ele>241.4</ele>
        <time>2016-01-23T15:39:56Z</time>
      </trkpt>
      <trkpt lat="43.44959" lon="5.68828">
        <ele>241.1</ele>
        <time>2016-01-23T15:39:57Z</time>
      </trkpt>
      <trkpt lat="43.44966" lon="5.68814">
        <ele>241</ele>
        <time>2016-01-23T15:39:58Z</time>
      </trkpt>
      <trkpt lat="43.44973" lon="5.68799">
        <ele>240.7</ele>
        <time>2016-01-23T15:39:59Z</time>
      </trkpt>
      <trkpt lat="43.44981" lon="5.68784">
        <ele>239.9</ele>
        <time>2016-01-23T15:40:00Z</time>
      </trkpt>
      <trkpt lat="43.44988" lon="5.68768">
        <ele>239.6</ele>
        <time>2016-01-23T15:40:01Z</time>
      </trkpt>
      <trkpt lat="43.44996" lon="5.6875">
        <ele>240</ele>
        <time>2016-01-23T15:40:02Z</time>
      </trkpt>
      <trkpt lat="43.45004" lon="5.68732">
        <ele>239.1</ele>
        <time>2016-01-23T15:40:03Z</time>
      </trkpt>
      <trkpt lat="43.45011" lon="5.68712">
        <ele>238.6</ele>
        <time>2016-01-23T15:40:04Z</time>
      </trkpt>
      <trkpt lat="43.45019" lon="5.68693">
        <ele>238.3</ele>
        <time>2016-01-23T15:40:05Z</time>
      </trkpt>
      <trkpt lat="43.45025" lon="5.68674">
        <ele>238.7</ele>
        <time>2016-01-23T15:40:06Z</time>
      </trkpt>
      <trkpt lat="43.4503" lon="5.68654">
        <ele>238.8</ele>
        <time>2016-01-23T15:40:07Z</time>
      </trkpt>
      <trkpt lat="43.45035" lon="5.68634">
        <ele>238.2</ele>
        <time>2016-01-23T15:40:08Z</time>
      </trkpt>
      <trkpt lat="43.45039" lon="5.68614">
        <ele>237.1</ele>
        <time>2016-01-23T15:40:09Z</time>
      </trkpt>
      <trkpt lat="43.45043" lon="5.68595">
        <ele>237.3</ele>
        <time>2016-01-23T15:40:10Z</time>
      </trkpt>
      <trkpt lat="43.45047" lon="5.68576">
        <ele>237.2</ele>
        <time>2016-01-23T15:40:11Z</time>
      </trkpt>
      <trkpt lat="43.45049" lon="5.68558">
        <ele>237</ele>
        <time>2016-01-23T15:40:12Z</time>
      </trkpt>
      <trkpt lat="43.45052" lon="5.6854">
        <ele>237.6</ele>
        <time>2016-01-23T15:40:13Z</time>
      </trkpt>
      <trkpt lat="43.45053" lon="5.68523">
        <ele>238</ele>
        <time>2016-01-23T15:40:14Z</time>
      </trkpt>
      <trkpt lat="43.45054" lon="5.68506">
        <ele>238</ele>
        <time>2016-01-23T15:40:15Z</time>
      </trkpt>
      <trkpt lat="43.45055" lon="5.68491">
        <ele>238</ele>
        <time>2016-01-23T15:40:16Z</time>
      </trkpt>
      <trkpt lat="43.45056" lon="5.68476">
        <ele>238</ele>
        <time>2016-01-23T15:40:17Z</time>
      </trkpt>
      <trkpt lat="43.45057" lon="5.68464">
        <ele>237.9</ele>
        <time>2016-01-23T15:40:18Z</time>
      </trkpt>
      <trkpt lat="43.45058" lon="5.68454">
        <ele>237.9</ele>
        <time>2016-01-23T15:40:19Z</time>
      </trkpt>
      <trkpt lat="43.45057" lon="5.68451">
        <ele>237.9</ele>
        <time>2016-01-23T15:40:20Z</time>
      </trkpt>
      <trkpt lat="43.45057" lon="5.68449">
        <ele>237.9</ele>
        <time>2016-01-23T15:40:21Z</time>
      </trkpt>
      <trkpt lat="43.45056" lon="5.68448">
        <ele>238</ele>
        <time>2016-01-23T15:40:22Z</time>
      </trkpt>
      <trkpt lat="43.45056" lon="5.68445">
        <ele>238</ele>
        <time>2016-01-23T15:40:23Z</time>
      </trkpt>
      <trkpt lat="43.45056" lon="5.68442">
        <ele>238</ele>
        <time>2016-01-23T15:40:24Z</time>
      </trkpt>
      <trkpt lat="43.45059" lon="5.68437">
        <ele>238</ele>
        <time>2016-01-23T15:40:25Z</time>
      </trkpt>
      <trkpt lat="43.45062" lon="5.68432">
        <ele>238</ele>
        <time>2016-01-23T15:40:26Z</time>
      </trkpt>
      <trkpt lat="43.45066" lon="5.68425">
        <ele>238</ele>
        <time>2016-01-23T15:40:27Z</time>
      </trkpt>
      <trkpt lat="43.45068" lon="5.68418">
        <ele>238.1</ele>
        <time>2016-01-23T15:40:28Z</time>
      </trkpt>
      <trkpt lat="43.45068" lon="5.68409">
        <ele>238</ele>
        <time>2016-01-23T15:40:29Z</time>
      </trkpt>
      <trkpt lat="43.45066" lon="5.68401">
        <ele>237.9</ele>
        <time>2016-01-23T15:40:30Z</time>
      </trkpt>
      <trkpt lat="43.45064" lon="5.68391">
        <ele>237.8</ele>
        <time>2016-01-23T15:40:31Z</time>
      </trkpt>
      <trkpt lat="43.45062" lon="5.68381">
        <ele>237.6</ele>
        <time>2016-01-23T15:40:32Z</time>
      </trkpt>
      <trkpt lat="43.45061" lon="5.68369">
        <ele>237.2</ele>
        <time>2016-01-23T15:40:33Z</time>
      </trkpt>
      <trkpt lat="43.45061" lon="5.68354">
        <ele>237.2</ele>
        <time>2016-01-23T15:40:34Z</time>
      </trkpt>
      <trkpt lat="43.45061" lon="5.68339">
        <ele>237.6</ele>
        <time>2016-01-23T15:40:35Z</time>
      </trkpt>
      <trkpt lat="43.45063" lon="5.68324">
        <ele>237.8</ele>
        <time>2016-01-23T15:40:36Z</time>
      </trkpt>
      <trkpt lat="43.45064" lon="5.68309">
        <ele>238</ele>
        <time>2016-01-23T15:40:37Z</time>
      </trkpt>
      <trkpt lat="43.45066" lon="5.68293">
        <ele>238</ele>
        <time>2016-01-23T15:40:38Z</time>
      </trkpt>
      <trkpt lat="43.45068" lon="5.68275">
        <ele>238</ele>
        <time>2016-01-23T15:40:39Z</time>
      </trkpt>
      <trkpt lat="43.4507" lon="5.68256">
        <ele>238</ele>
        <time>2016-01-23T15:40:40Z</time>
      </trkpt>
      <trkpt lat="43.45072" lon="5.68237">
        <ele>238</ele>
        <time>2016-01-23T15:40:41Z</time>
      </trkpt>
      <trkpt lat="43.45075" lon="5.68218">
        <ele>238</ele>
        <time>2016-01-23T15:40:42Z</time>
      </trkpt>
      <trkpt lat="43.45077" lon="5.68198">
        <ele>238</ele>
        <time>2016-01-23T15:40:43Z</time>
      </trkpt>
      <trkpt lat="43.4508" lon="5.68178">
        <ele>238.5</ele>
        <time>2016-01-23T15:40:44Z</time>
      </trkpt>
      <trkpt lat="43.45083" lon="5.68157">
        <ele>239</ele>
        <time>2016-01-23T15:40:45Z</time>
      </trkpt>
      <trkpt lat="43.45086" lon="5.68137">
        <ele>238.9</ele>
        <time>2016-01-23T15:40:46Z</time>
      </trkpt>
      <trkpt lat="43.45089" lon="5.68116">
        <ele>238.8</ele>
        <time>2016-01-23T15:40:47Z</time>
      </trkpt>
      <trkpt lat="43.45092" lon="5.68094">
        <ele>238.7</ele>
        <time>2016-01-23T15:40:48Z</time>
      </trkpt>
      <trkpt lat="43.45095" lon="5.68072">
        <ele>238.8</ele>
        <time>2016-01-23T15:40:49Z</time>
      </trkpt>
      <trkpt lat="43.45099" lon="5.68049">
        <ele>239</ele>
        <time>2016-01-23T15:40:50Z</time>
      </trkpt>
      <trkpt lat="43.45102" lon="5.68026">
        <ele>238.7</ele>
        <time>2016-01-23T15:40:51Z</time>
      </trkpt>
      <trkpt lat="43.45105" lon="5.68004">
        <ele>239.1</ele>
        <time>2016-01-23T15:40:52Z</time>
      </trkpt>
      <trkpt lat="43.45109" lon="5.67982">
        <ele>239.7</ele>
        <time>2016-01-23T15:40:53Z</time>
      </trkpt>
      <trkpt lat="43.45112" lon="5.6796">
        <ele>240</ele>
        <time>2016-01-23T15:40:54Z</time>
      </trkpt>
      <trkpt lat="43.45116" lon="5.67938">
        <ele>240.2</ele>
        <time>2016-01-23T15:40:55Z</time>
      </trkpt>
      <trkpt lat="43.45119" lon="5.67917">
        <ele>240.7</ele>
        <time>2016-01-23T15:40:56Z</time>
      </trkpt>
      <trkpt lat="43.45122" lon="5.67897">
        <ele>241</ele>
        <time>2016-01-23T15:40:57Z</time>
      </trkpt>
      <trkpt lat="43.45125" lon="5.67878">
        <ele>241.4</ele>
        <time>2016-01-23T15:40:58Z</time>
      </trkpt>
      <trkpt lat="43.45129" lon="5.67859">
        <ele>241.8</ele>
        <time>2016-01-23T15:40:59Z</time>
      </trkpt>
      <trkpt lat="43.45131" lon="5.67841">
        <ele>242.1</ele>
        <time>2016-01-23T15:41:00Z</time>
      </trkpt>
      <trkpt lat="43.45132" lon="5.67824">
        <ele>242.5</ele>
        <time>2016-01-23T15:41:01Z</time>
      </trkpt>
      <trkpt lat="43.45133" lon="5.67808">
        <ele>242.9</ele>
        <time>2016-01-23T15:41:02Z</time>
      </trkpt>
      <trkpt lat="43.45132" lon="5.67794">
        <ele>243</ele>
        <time>2016-01-23T15:41:03Z</time>
      </trkpt>
      <trkpt lat="43.45131" lon="5.67782">
        <ele>243</ele>
        <time>2016-01-23T15:41:04Z</time>
      </trkpt>
      <trkpt lat="43.4513" lon="5.67772">
        <ele>243</ele>
        <time>2016-01-23T15:41:05Z</time>
      </trkpt>
      <trkpt lat="43.45126" lon="5.67765">
        <ele>243</ele>
        <time>2016-01-23T15:41:06Z</time>
      </trkpt>
      <trkpt lat="43.45122" lon="5.67762">
        <ele>243</ele>
        <time>2016-01-23T15:41:07Z</time>
      </trkpt>
      <trkpt lat="43.45116" lon="5.6776">
        <ele>243</ele>
        <time>2016-01-23T15:41:08Z</time>
      </trkpt>
      <trkpt lat="43.4511" lon="5.67759">
        <ele>243</ele>
        <time>2016-01-23T15:41:09Z</time>
      </trkpt>
      <trkpt lat="43.45102" lon="5.67759">
        <ele>243.2</ele>
        <time>2016-01-23T15:41:10Z</time>
      </trkpt>
      <trkpt lat="43.45095" lon="5.67759">
        <ele>243.4</ele>
        <time>2016-01-23T15:41:11Z</time>
      </trkpt>
      <trkpt lat="43.45087" lon="5.67759">
        <ele>243.6</ele>
        <time>2016-01-23T15:41:12Z</time>
      </trkpt>
      <trkpt lat="43.4508" lon="5.67758">
        <ele>243.8</ele>
        <time>2016-01-23T15:41:13Z</time>
      </trkpt>
      <trkpt lat="43.45072" lon="5.67757">
        <ele>244</ele>
        <time>2016-01-23T15:41:14Z</time>
      </trkpt>
      <trkpt lat="43.45063" lon="5.67756">
        <ele>244.1</ele>
        <time>2016-01-23T15:41:15Z</time>
      </trkpt>
      <trkpt lat="43.45054" lon="5.67755">
        <ele>244.2</ele>
        <time>2016-01-23T15:41:16Z</time>
      </trkpt>
      <trkpt lat="43.45045" lon="5.67753">
        <ele>244.5</ele>
        <time>2016-01-23T15:41:17Z</time>
      </trkpt>
      <trkpt lat="43.45035" lon="5.67752">
        <ele>244.8</ele>
        <time>2016-01-23T15:41:18Z</time>
      </trkpt>
      <trkpt lat="43.45026" lon="5.67751">
        <ele>245.1</ele>
        <time>2016-01-23T15:41:19Z</time>
      </trkpt>
      <trkpt lat="43.45018" lon="5.6775">
        <ele>245.7</ele>
        <time>2016-01-23T15:41:20Z</time>
      </trkpt>
      <trkpt lat="43.4501" lon="5.67749">
        <ele>246.3</ele>
        <time>2016-01-23T15:41:21Z</time>
      </trkpt>
      <trkpt lat="43.45003" lon="5.67748">
        <ele>246.8</ele>
        <time>2016-01-23T15:41:22Z</time>
      </trkpt>
      <trkpt lat="43.44997" lon="5.67748">
        <ele>247.2</ele>
        <time>2016-01-23T15:41:23Z</time>
      </trkpt>
      <trkpt lat="43.44994" lon="5.67747">
        <ele>247.5</ele>
        <time>2016-01-23T15:41:24Z</time>
      </trkpt>
      <trkpt lat="43.44991" lon="5.67745">
        <ele>247.7</ele>
        <time>2016-01-23T15:41:25Z</time>
      </trkpt>
      <trkpt lat="43.44988" lon="5.67743">
        <ele>247.9</ele>
        <time>2016-01-23T15:41:26Z</time>
      </trkpt>
      <trkpt lat="43.44985" lon="5.67739">
        <ele>248.1</ele>
        <time>2016-01-23T15:41:27Z</time>
      </trkpt>
      <trkpt lat="43.44982" lon="5.67734">
        <ele>248.3</ele>
        <time>2016-01-23T15:41:28Z</time>
      </trkpt>
      <trkpt lat="43.4498" lon="5.67727">
        <ele>248.5</ele>
        <time>2016-01-23T15:41:29Z</time>
      </trkpt>
      <trkpt lat="43.44978" lon="5.6772">
        <ele>248.7</ele>
        <time>2016-01-23T15:41:30Z</time>
      </trkpt>
      <trkpt lat="43.4498" lon="5.67709">
        <ele>249</ele>
        <time>2016-01-23T15:41:31Z</time>
      </trkpt>
      <trkpt lat="43.44983" lon="5.67698">
        <ele>249.5</ele>
        <time>2016-01-23T15:41:32Z</time>
      </trkpt>
      <trkpt lat="43.44986" lon="5.67686">
        <ele>249.5</ele>
        <time>2016-01-23T15:41:33Z</time>
      </trkpt>
      <trkpt lat="43.44991" lon="5.67673">
        <ele>249.3</ele>
        <time>2016-01-23T15:41:34Z</time>
      </trkpt>
      <trkpt lat="43.44998" lon="5.6766">
        <ele>249.1</ele>
        <time>2016-01-23T15:41:35Z</time>
      </trkpt>
      <trkpt lat="43.45004" lon="5.67646">
        <ele>248.9</ele>
        <time>2016-01-23T15:41:36Z</time>
      </trkpt>
      <trkpt lat="43.4501" lon="5.67632">
        <ele>248.8</ele>
        <time>2016-01-23T15:41:37Z</time>
      </trkpt>
      <trkpt lat="43.45017" lon="5.67617">
        <ele>248.7</ele>
        <time>2016-01-23T15:41:38Z</time>
      </trkpt>
      <trkpt lat="43.45024" lon="5.67603">
        <ele>248.3</ele>
        <time>2016-01-23T15:41:39Z</time>
      </trkpt>
      <trkpt lat="43.45031" lon="5.67589">
        <ele>248</ele>
        <time>2016-01-23T15:41:40Z</time>
      </trkpt>
      <trkpt lat="43.45037" lon="5.67575">
        <ele>248.2</ele>
        <time>2016-01-23T15:41:41Z</time>
      </trkpt>
      <trkpt lat="43.45044" lon="5.67563">
        <ele>248.3</ele>
        <time>2016-01-23T15:41:42Z</time>
      </trkpt>
      <trkpt lat="43.4505" lon="5.6755">
        <ele>248.1</ele>
        <time>2016-01-23T15:41:43Z</time>
      </trkpt>
      <trkpt lat="43.45056" lon="5.67536">
        <ele>247.3</ele>
        <time>2016-01-23T15:41:44Z</time>
      </trkpt>
      <trkpt lat="43.45063" lon="5.67521">
        <ele>247.2</ele>
        <time>2016-01-23T15:41:45Z</time>
      </trkpt>
      <trkpt lat="43.4507" lon="5.67507">
        <ele>247.4</ele>
        <time>2016-01-23T15:41:46Z</time>
      </trkpt>
      <trkpt lat="43.45076" lon="5.67493">
        <ele>247.3</ele>
        <time>2016-01-23T15:41:47Z</time>
      </trkpt>
      <trkpt lat="43.45083" lon="5.67479">
        <ele>247</ele>
        <time>2016-01-23T15:41:48Z</time>
      </trkpt>
      <trkpt lat="43.45089" lon="5.67465">
        <ele>246.8</ele>
        <time>2016-01-23T15:41:49Z</time>
      </trkpt>
      <trkpt lat="43.45097" lon="5.67451">
        <ele>246.5</ele>
        <time>2016-01-23T15:41:50Z</time>
      </trkpt>
      <trkpt lat="43.45104" lon="5.67435">
        <ele>246</ele>
        <time>2016-01-23T15:41:51Z</time>
      </trkpt>
      <trkpt lat="43.45112" lon="5.67419">
        <ele>245.9</ele>
        <time>2016-01-23T15:41:52Z</time>
      </trkpt>
      <trkpt lat="43.4512" lon="5.67402">
        <ele>245.7</ele>
        <time>2016-01-23T15:41:53Z</time>
      </trkpt>
      <trkpt lat="43.45129" lon="5.67385">
        <ele>245.9</ele>
        <time>2016-01-23T15:41:54Z</time>
      </trkpt>
      <trkpt lat="43.45137" lon="5.67368">
        <ele>246</ele>
        <time>2016-01-23T15:41:55Z</time>
      </trkpt>
      <trkpt lat="43.45145" lon="5.67351">
        <ele>245.6</ele>
        <time>2016-01-23T15:41:56Z</time>
      </trkpt>
      <trkpt lat="43.45153" lon="5.67334">
        <ele>245.5</ele>
        <time>2016-01-23T15:41:57Z</time>
      </trkpt>
      <trkpt lat="43.45161" lon="5.67317">
        <ele>245.8</ele>
        <time>2016-01-23T15:41:58Z</time>
      </trkpt>
      <trkpt lat="43.45169" lon="5.67301">
        <ele>245.8</ele>
        <time>2016-01-23T15:41:59Z</time>
      </trkpt>
      <trkpt lat="43.45176" lon="5.67286">
        <ele>245.2</ele>
        <time>2016-01-23T15:42:00Z</time>
      </trkpt>
      <trkpt lat="43.45183" lon="5.67271">
        <ele>244.8</ele>
        <time>2016-01-23T15:42:01Z</time>
      </trkpt>
      <trkpt lat="43.4519" lon="5.67257">
        <ele>244.8</ele>
        <time>2016-01-23T15:42:02Z</time>
      </trkpt>
      <trkpt lat="43.45197" lon="5.67245">
        <ele>244.9</ele>
        <time>2016-01-23T15:42:03Z</time>
      </trkpt>
      <trkpt lat="43.45203" lon="5.67234">
        <ele>244.6</ele>
        <time>2016-01-23T15:42:04Z</time>
      </trkpt>
      <trkpt lat="43.4521" lon="5.67224">
        <ele>244.4</ele>
        <time>2016-01-23T15:42:05Z</time>
      </trkpt>
      <trkpt lat="43.45218" lon="5.67216">
        <ele>244.5</ele>
        <time>2016-01-23T15:42:06Z</time>
      </trkpt>
      <trkpt lat="43.45226" lon="5.67208">
        <ele>244.8</ele>
        <time>2016-01-23T15:42:07Z</time>
      </trkpt>
      <trkpt lat="43.45233" lon="5.67198">
        <ele>244.8</ele>
        <time>2016-01-23T15:42:08Z</time>
      </trkpt>
      <trkpt lat="43.45238" lon="5.67187">
        <ele>244</ele>
        <time>2016-01-23T15:42:09Z</time>
      </trkpt>
      <trkpt lat="43.4524" lon="5.67173">
        <ele>243.5</ele>
        <time>2016-01-23T15:42:10Z</time>
      </trkpt>
      <trkpt lat="43.45241" lon="5.67158">
        <ele>243.5</ele>
        <time>2016-01-23T15:42:11Z</time>
      </trkpt>
      <trkpt lat="43.45244" lon="5.67142">
        <ele>243.9</ele>
        <time>2016-01-23T15:42:12Z</time>
      </trkpt>
      <trkpt lat="43.45251" lon="5.67123">
        <ele>244</ele>
        <time>2016-01-23T15:42:13Z</time>
      </trkpt>
      <trkpt lat="43.45258" lon="5.67103">
        <ele>243.2</ele>
        <time>2016-01-23T15:42:14Z</time>
      </trkpt>
      <trkpt lat="43.45266" lon="5.67083">
        <ele>242.5</ele>
        <time>2016-01-23T15:42:15Z</time>
      </trkpt>
      <trkpt lat="43.45274" lon="5.67062">
        <ele>242.9</ele>
        <time>2016-01-23T15:42:16Z</time>
      </trkpt>
      <trkpt lat="43.45283" lon="5.67039">
        <ele>242.7</ele>
        <time>2016-01-23T15:42:17Z</time>
      </trkpt>
      <trkpt lat="43.45291" lon="5.67016">
        <ele>242.2</ele>
        <time>2016-01-23T15:42:18Z</time>
      </trkpt>
      <trkpt lat="43.453" lon="5.66992">
        <ele>242.2</ele>
        <time>2016-01-23T15:42:19Z</time>
      </trkpt>
      <trkpt lat="43.4531" lon="5.66969">
        <ele>241.9</ele>
        <time>2016-01-23T15:42:20Z</time>
      </trkpt>
      <trkpt lat="43.45319" lon="5.66944">
        <ele>241.5</ele>
        <time>2016-01-23T15:42:21Z</time>
      </trkpt>
      <trkpt lat="43.4533" lon="5.66919">
        <ele>241.3</ele>
        <time>2016-01-23T15:42:22Z</time>
      </trkpt>
      <trkpt lat="43.4534" lon="5.66892">
        <ele>241.1</ele>
        <time>2016-01-23T15:42:23Z</time>
      </trkpt>
      <trkpt lat="43.45351" lon="5.66865">
        <ele>240.6</ele>
        <time>2016-01-23T15:42:24Z</time>
      </trkpt>
      <trkpt lat="43.45362" lon="5.66837">
        <ele>240</ele>
        <time>2016-01-23T15:42:25Z</time>
      </trkpt>
      <trkpt lat="43.45374" lon="5.66808">
        <ele>240.5</ele>
        <time>2016-01-23T15:42:26Z</time>
      </trkpt>
      <trkpt lat="43.45386" lon="5.66778">
        <ele>240.2</ele>
        <time>2016-01-23T15:42:27Z</time>
      </trkpt>
      <trkpt lat="43.45397" lon="5.66748">
        <ele>238.7</ele>
        <time>2016-01-23T15:42:28Z</time>
      </trkpt>
      <trkpt lat="43.45409" lon="5.66718">
        <ele>239.1</ele>
        <time>2016-01-23T15:42:29Z</time>
      </trkpt>
      <trkpt lat="43.45421" lon="5.66688">
        <ele>238.8</ele>
        <time>2016-01-23T15:42:30Z</time>
      </trkpt>
      <trkpt lat="43.45433" lon="5.66657">
        <ele>238.1</ele>
        <time>2016-01-23T15:42:31Z</time>
      </trkpt>
      <trkpt lat="43.45445" lon="5.66626">
        <ele>238</ele>
        <time>2016-01-23T15:42:32Z</time>
      </trkpt>
      <trkpt lat="43.45457" lon="5.66594">
        <ele>237.7</ele>
        <time>2016-01-23T15:42:33Z</time>
      </trkpt>
      <trkpt lat="43.45468" lon="5.66563">
        <ele>237.4</ele>
        <time>2016-01-23T15:42:34Z</time>
      </trkpt>
      <trkpt lat="43.4548" lon="5.66532">
        <ele>236.7</ele>
        <time>2016-01-23T15:42:35Z</time>
      </trkpt>
      <trkpt lat="43.45491" lon="5.66501">
        <ele>236.3</ele>
        <time>2016-01-23T15:42:36Z</time>
      </trkpt>
      <trkpt lat="43.45503" lon="5.66469">
        <ele>235.7</ele>
        <time>2016-01-23T15:42:37Z</time>
      </trkpt>
      <trkpt lat="43.45513" lon="5.66437">
        <ele>235.5</ele>
        <time>2016-01-23T15:42:38Z</time>
      </trkpt>
      <trkpt lat="43.45524" lon="5.66406">
        <ele>235.2</ele>
        <time>2016-01-23T15:42:39Z</time>
      </trkpt>
      <trkpt lat="43.45535" lon="5.66374">
        <ele>234.9</ele>
        <time>2016-01-23T15:42:40Z</time>
      </trkpt>
      <trkpt lat="43.45546" lon="5.66342">
        <ele>234.6</ele>
        <time>2016-01-23T15:42:41Z</time>
      </trkpt>
      <trkpt lat="43.45557" lon="5.6631">
        <ele>234</ele>
        <time>2016-01-23T15:42:42Z</time>
      </trkpt>
      <trkpt lat="43.45567" lon="5.66278">
        <ele>234.6</ele>
        <time>2016-01-23T15:42:43Z</time>
      </trkpt>
      <trkpt lat="43.45578" lon="5.66246">
        <ele>233.6</ele>
        <time>2016-01-23T15:42:44Z</time>
      </trkpt>
      <trkpt lat="43.45588" lon="5.66214">
        <ele>233.2</ele>
        <time>2016-01-23T15:42:45Z</time>
      </trkpt>
      <trkpt lat="43.45599" lon="5.66183">
        <ele>233.6</ele>
        <time>2016-01-23T15:42:46Z</time>
      </trkpt>
      <trkpt lat="43.45609" lon="5.66152">
        <ele>233.2</ele>
        <time>2016-01-23T15:42:47Z</time>
      </trkpt>
      <trkpt lat="43.45619" lon="5.66121">
        <ele>233</ele>
        <time>2016-01-23T15:42:48Z</time>
      </trkpt>
      <trkpt lat="43.4563" lon="5.66089">
        <ele>233.5</ele>
        <time>2016-01-23T15:42:49Z</time>
      </trkpt>
      <trkpt lat="43.4564" lon="5.66057">
        <ele>233</ele>
        <time>2016-01-23T15:42:50Z</time>
      </trkpt>
      <trkpt lat="43.45651" lon="5.66025">
        <ele>233.1</ele>
        <time>2016-01-23T15:42:51Z</time>
      </trkpt>
      <trkpt lat="43.45661" lon="5.65993">
        <ele>232.7</ele>
        <time>2016-01-23T15:42:52Z</time>
      </trkpt>
      <trkpt lat="43.45672" lon="5.6596">
        <ele>232.3</ele>
        <time>2016-01-23T15:42:53Z</time>
      </trkpt>
      <trkpt lat="43.45683" lon="5.65927">
        <ele>233.4</ele>
        <time>2016-01-23T15:42:54Z</time>
      </trkpt>
      <trkpt lat="43.45693" lon="5.65894">
        <ele>232.2</ele>
        <time>2016-01-23T15:42:55Z</time>
      </trkpt>
      <trkpt lat="43.45704" lon="5.65861">
        <ele>232</ele>
        <time>2016-01-23T15:42:56Z</time>
      </trkpt>
      <trkpt lat="43.45715" lon="5.65828">
        <ele>231.7</ele>
        <time>2016-01-23T15:42:57Z</time>
      </trkpt>
      <trkpt lat="43.45725" lon="5.65794">
        <ele>231.4</ele>
        <time>2016-01-23T15:42:58Z</time>
      </trkpt>
      <trkpt lat="43.45736" lon="5.6576">
        <ele>232</ele>
        <time>2016-01-23T15:42:59Z</time>
      </trkpt>
      <trkpt lat="43.45747" lon="5.65726">
        <ele>231.4</ele>
        <time>2016-01-23T15:43:00Z</time>
      </trkpt>
      <trkpt lat="43.45757" lon="5.65693">
        <ele>231.1</ele>
        <time>2016-01-23T15:43:01Z</time>
      </trkpt>
      <trkpt lat="43.45767" lon="5.65659">
        <ele>231.3</ele>
        <time>2016-01-23T15:43:02Z</time>
      </trkpt>
      <trkpt lat="43.45777" lon="5.65626">
        <ele>230.5</ele>
        <time>2016-01-23T15:43:03Z</time>
      </trkpt>
      <trkpt lat="43.45787" lon="5.65592">
        <ele>231</ele>
        <time>2016-01-23T15:43:04Z</time>
      </trkpt>
      <trkpt lat="43.45796" lon="5.65557">
        <ele>231.3</ele>
        <time>2016-01-23T15:43:05Z</time>
      </trkpt>
      <trkpt lat="43.45805" lon="5.65523">
        <ele>231</ele>
        <time>2016-01-23T15:43:06Z</time>
      </trkpt>
      <trkpt lat="43.45815" lon="5.65488">
        <ele>231</ele>
        <time>2016-01-23T15:43:07Z</time>
      </trkpt>
      <trkpt lat="43.45824" lon="5.65453">
        <ele>231.3</ele>
        <time>2016-01-23T15:43:08Z</time>
      </trkpt>
      <trkpt lat="43.45832" lon="5.65417">
        <ele>231.1</ele>
        <time>2016-01-23T15:43:09Z</time>
      </trkpt>
      <trkpt lat="43.4584" lon="5.65382">
        <ele>231.2</ele>
        <time>2016-01-23T15:43:10Z</time>
      </trkpt>
      <trkpt lat="43.45848" lon="5.65347">
        <ele>230.7</ele>
        <time>2016-01-23T15:43:11Z</time>
      </trkpt>
      <trkpt lat="43.45855" lon="5.65312">
        <ele>231</ele>
        <time>2016-01-23T15:43:12Z</time>
      </trkpt>
      <trkpt lat="43.45862" lon="5.65277">
        <ele>231.9</ele>
        <time>2016-01-23T15:43:13Z</time>
      </trkpt>
      <trkpt lat="43.4587" lon="5.65242">
        <ele>231.7</ele>
        <time>2016-01-23T15:43:14Z</time>
      </trkpt>
      <trkpt lat="43.45876" lon="5.65207">
        <ele>231.5</ele>
        <time>2016-01-23T15:43:15Z</time>
      </trkpt>
      <trkpt lat="43.45882" lon="5.65171">
        <ele>231.5</ele>
        <time>2016-01-23T15:43:16Z</time>
      </trkpt>
      <trkpt lat="43.45887" lon="5.65136">
        <ele>232.1</ele>
        <time>2016-01-23T15:43:17Z</time>
      </trkpt>
      <trkpt lat="43.45893" lon="5.651">
        <ele>231.7</ele>
        <time>2016-01-23T15:43:18Z</time>
      </trkpt>
      <trkpt lat="43.45898" lon="5.65064">
        <ele>231.4</ele>
        <time>2016-01-23T15:43:19Z</time>
      </trkpt>
      <trkpt lat="43.45903" lon="5.65028">
        <ele>232</ele>
        <time>2016-01-23T15:43:20Z</time>
      </trkpt>
      <trkpt lat="43.45908" lon="5.64992">
        <ele>232.4</ele>
        <time>2016-01-23T15:43:21Z</time>
      </trkpt>
      <trkpt lat="43.45913" lon="5.64956">
        <ele>232.3</ele>
        <time>2016-01-23T15:43:22Z</time>
      </trkpt>
      <trkpt lat="43.45918" lon="5.6492">
        <ele>231.9</ele>
        <time>2016-01-23T15:43:23Z</time>
      </trkpt>
      <trkpt lat="43.45922" lon="5.64884">
        <ele>232.4</ele>
        <time>2016-01-23T15:43:24Z</time>
      </trkpt>
      <trkpt lat="43.45927" lon="5.64848">
        <ele>232.1</ele>
        <time>2016-01-23T15:43:25Z</time>
      </trkpt>
      <trkpt lat="43.45931" lon="5.64813">
        <ele>232</ele>
        <time>2016-01-23T15:43:26Z</time>
      </trkpt>
      <trkpt lat="43.45935" lon="5.64778">
        <ele>231.7</ele>
        <time>2016-01-23T15:43:27Z</time>
      </trkpt>
      <trkpt lat="43.4594" lon="5.64743">
        <ele>232</ele>
        <time>2016-01-23T15:43:28Z</time>
      </trkpt>
      <trkpt lat="43.45945" lon="5.64708">
        <ele>232</ele>
        <time>2016-01-23T15:43:29Z</time>
      </trkpt>
      <trkpt lat="43.45949" lon="5.64673">
        <ele>231.4</ele>
        <time>2016-01-23T15:43:30Z</time>
      </trkpt>
      <trkpt lat="43.45954" lon="5.64638">
        <ele>231</ele>
        <time>2016-01-23T15:43:31Z</time>
      </trkpt>
      <trkpt lat="43.45958" lon="5.64604">
        <ele>231.2</ele>
        <time>2016-01-23T15:43:32Z</time>
      </trkpt>
      <trkpt lat="43.45963" lon="5.64569">
        <ele>231.7</ele>
        <time>2016-01-23T15:43:33Z</time>
      </trkpt>
      <trkpt lat="43.45967" lon="5.64534">
        <ele>232</ele>
        <time>2016-01-23T15:43:34Z</time>
      </trkpt>
      <trkpt lat="43.45972" lon="5.64499">
        <ele>232</ele>
        <time>2016-01-23T15:43:35Z</time>
      </trkpt>
      <trkpt lat="43.45976" lon="5.64465">
        <ele>231.4</ele>
        <time>2016-01-23T15:43:36Z</time>
      </trkpt>
      <trkpt lat="43.45981" lon="5.6443">
        <ele>230.9</ele>
        <time>2016-01-23T15:43:37Z</time>
      </trkpt>
      <trkpt lat="43.45985" lon="5.64395">
        <ele>230.9</ele>
        <time>2016-01-23T15:43:38Z</time>
      </trkpt>
      <trkpt lat="43.4599" lon="5.64361">
        <ele>231.7</ele>
        <time>2016-01-23T15:43:39Z</time>
      </trkpt>
      <trkpt lat="43.45995" lon="5.64326">
        <ele>231.6</ele>
        <time>2016-01-23T15:43:40Z</time>
      </trkpt>
      <trkpt lat="43.46" lon="5.64292">
        <ele>232</ele>
        <time>2016-01-23T15:43:41Z</time>
      </trkpt>
      <trkpt lat="43.46004" lon="5.64257">
        <ele>232.2</ele>
        <time>2016-01-23T15:43:42Z</time>
      </trkpt>
      <trkpt lat="43.46008" lon="5.64224">
        <ele>232.1</ele>
        <time>2016-01-23T15:43:43Z</time>
      </trkpt>
      <trkpt lat="43.46012" lon="5.6419">
        <ele>231.8</ele>
        <time>2016-01-23T15:43:44Z</time>
      </trkpt>
      <trkpt lat="43.46017" lon="5.64157">
        <ele>232</ele>
        <time>2016-01-23T15:43:45Z</time>
      </trkpt>
      <trkpt lat="43.46021" lon="5.64123">
        <ele>232.9</ele>
        <time>2016-01-23T15:43:46Z</time>
      </trkpt>
      <trkpt lat="43.46025" lon="5.6409">
        <ele>233.9</ele>
        <time>2016-01-23T15:43:47Z</time>
      </trkpt>
      <trkpt lat="43.46029" lon="5.64057">
        <ele>233.8</ele>
        <time>2016-01-23T15:43:48Z</time>
      </trkpt>
      <trkpt lat="43.46034" lon="5.64024">
        <ele>233.3</ele>
        <time>2016-01-23T15:43:49Z</time>
      </trkpt>
      <trkpt lat="43.46038" lon="5.63991">
        <ele>233.7</ele>
        <time>2016-01-23T15:43:50Z</time>
      </trkpt>
      <trkpt lat="43.46042" lon="5.63958">
        <ele>233.5</ele>
        <time>2016-01-23T15:43:51Z</time>
      </trkpt>
      <trkpt lat="43.46046" lon="5.63925">
        <ele>233.7</ele>
        <time>2016-01-23T15:43:52Z</time>
      </trkpt>
      <trkpt lat="43.4605" lon="5.63892">
        <ele>234.5</ele>
        <time>2016-01-23T15:43:53Z</time>
      </trkpt>
      <trkpt lat="43.46055" lon="5.63858">
        <ele>235.1</ele>
        <time>2016-01-23T15:43:54Z</time>
      </trkpt>
      <trkpt lat="43.46059" lon="5.63825">
        <ele>234.5</ele>
        <time>2016-01-23T15:43:55Z</time>
      </trkpt>
      <trkpt lat="43.46064" lon="5.63792">
        <ele>234.1</ele>
        <time>2016-01-23T15:43:56Z</time>
      </trkpt>
      <trkpt lat="43.46068" lon="5.63759">
        <ele>233.6</ele>
        <time>2016-01-23T15:43:57Z</time>
      </trkpt>
      <trkpt lat="43.46072" lon="5.63726">
        <ele>234.2</ele>
        <time>2016-01-23T15:43:58Z</time>
      </trkpt>
      <trkpt lat="43.46076" lon="5.63694">
        <ele>235.3</ele>
        <time>2016-01-23T15:43:59Z</time>
      </trkpt>
      <trkpt lat="43.4608" lon="5.6366">
        <ele>235</ele>
        <time>2016-01-23T15:44:00Z</time>
      </trkpt>
      <trkpt lat="43.46083" lon="5.63627">
        <ele>235</ele>
        <time>2016-01-23T15:44:01Z</time>
      </trkpt>
      <trkpt lat="43.46087" lon="5.63594">
        <ele>234</ele>
        <time>2016-01-23T15:44:02Z</time>
      </trkpt>
      <trkpt lat="43.46089" lon="5.63561">
        <ele>233.4</ele>
        <time>2016-01-23T15:44:03Z</time>
      </trkpt>
      <trkpt lat="43.46092" lon="5.63528">
        <ele>233.1</ele>
        <time>2016-01-23T15:44:04Z</time>
      </trkpt>
      <trkpt lat="43.46093" lon="5.63495">
        <ele>233.1</ele>
        <time>2016-01-23T15:44:05Z</time>
      </trkpt>
      <trkpt lat="43.46095" lon="5.63462">
        <ele>233.8</ele>
        <time>2016-01-23T15:44:06Z</time>
      </trkpt>
      <trkpt lat="43.46098" lon="5.63429">
        <ele>233.5</ele>
        <time>2016-01-23T15:44:07Z</time>
      </trkpt>
      <trkpt lat="43.461" lon="5.63396">
        <ele>233.3</ele>
        <time>2016-01-23T15:44:08Z</time>
      </trkpt>
      <trkpt lat="43.46102" lon="5.63363">
        <ele>233.3</ele>
        <time>2016-01-23T15:44:09Z</time>
      </trkpt>
      <trkpt lat="43.46104" lon="5.63331">
        <ele>232.7</ele>
        <time>2016-01-23T15:44:10Z</time>
      </trkpt>
      <trkpt lat="43.46106" lon="5.63299">
        <ele>232.1</ele>
        <time>2016-01-23T15:44:11Z</time>
      </trkpt>
      <trkpt lat="43.46108" lon="5.63267">
        <ele>232</ele>
        <time>2016-01-23T15:44:12Z</time>
      </trkpt>
      <trkpt lat="43.4611" lon="5.63237">
        <ele>232.1</ele>
        <time>2016-01-23T15:44:13Z</time>
      </trkpt>
      <trkpt lat="43.46111" lon="5.63208">
        <ele>232</ele>
        <time>2016-01-23T15:44:14Z</time>
      </trkpt>
      <trkpt lat="43.46113" lon="5.63179">
        <ele>231.8</ele>
        <time>2016-01-23T15:44:15Z</time>
      </trkpt>
      <trkpt lat="43.46114" lon="5.63152">
        <ele>231.7</ele>
        <time>2016-01-23T15:44:16Z</time>
      </trkpt>
      <trkpt lat="43.46115" lon="5.63125">
        <ele>231.7</ele>
        <time>2016-01-23T15:44:17Z</time>
      </trkpt>
      <trkpt lat="43.46116" lon="5.63099">
        <ele>231.7</ele>
        <time>2016-01-23T15:44:18Z</time>
      </trkpt>
      <trkpt lat="43.46116" lon="5.63074">
        <ele>231.7</ele>
        <time>2016-01-23T15:44:19Z</time>
      </trkpt>
      <trkpt lat="43.46116" lon="5.6305">
        <ele>231.6</ele>
        <time>2016-01-23T15:44:20Z</time>
      </trkpt>
      <trkpt lat="43.46117" lon="5.63027">
        <ele>231.6</ele>
        <time>2016-01-23T15:44:21Z</time>
      </trkpt>
      <trkpt lat="43.46117" lon="5.63005">
        <ele>232.4</ele>
        <time>2016-01-23T15:44:22Z</time>
      </trkpt>
      <trkpt lat="43.46117" lon="5.62985">
        <ele>232.6</ele>
        <time>2016-01-23T15:44:23Z</time>
      </trkpt>
      <trkpt lat="43.46117" lon="5.62965">
        <ele>232.6</ele>
        <time>2016-01-23T15:44:24Z</time>
      </trkpt>
      <trkpt lat="43.46117" lon="5.62946">
        <ele>232.6</ele>
        <time>2016-01-23T15:44:25Z</time>
      </trkpt>
      <trkpt lat="43.46117" lon="5.62928">
        <ele>233.2</ele>
        <time>2016-01-23T15:44:26Z</time>
      </trkpt>
      <trkpt lat="43.46116" lon="5.62911">
        <ele>233.6</ele>
        <time>2016-01-23T15:44:27Z</time>
      </trkpt>
      <trkpt lat="43.46115" lon="5.62896">
        <ele>233.7</ele>
        <time>2016-01-23T15:44:28Z</time>
      </trkpt>
      <trkpt lat="43.46113" lon="5.62884">
        <ele>233.8</ele>
        <time>2016-01-23T15:44:29Z</time>
      </trkpt>
      <trkpt lat="43.46112" lon="5.62874">
        <ele>233.9</ele>
        <time>2016-01-23T15:44:30Z</time>
      </trkpt>
      <trkpt lat="43.46111" lon="5.62866">
        <ele>234</ele>
        <time>2016-01-23T15:44:31Z</time>
      </trkpt>
      <trkpt lat="43.4611" lon="5.62859">
        <ele>234.1</ele>
        <time>2016-01-23T15:44:32Z</time>
      </trkpt>
      <trkpt lat="43.46111" lon="5.62853">
        <ele>234.3</ele>
        <time>2016-01-23T15:44:33Z</time>
      </trkpt>
      <trkpt lat="43.46113" lon="5.62845">
        <ele>234.5</ele>
        <time>2016-01-23T15:44:34Z</time>
      </trkpt>
      <trkpt lat="43.46115" lon="5.62836">
        <ele>234.6</ele>
        <time>2016-01-23T15:44:35Z</time>
      </trkpt>
      <trkpt lat="43.46117" lon="5.62827">
        <ele>234.3</ele>
        <time>2016-01-23T15:44:36Z</time>
      </trkpt>
      <trkpt lat="43.46117" lon="5.62817">
        <ele>234</ele>
        <time>2016-01-23T15:44:37Z</time>
      </trkpt>
      <trkpt lat="43.46116" lon="5.62805">
        <ele>233.7</ele>
        <time>2016-01-23T15:44:38Z</time>
      </trkpt>
      <trkpt lat="43.46113" lon="5.62793">
        <ele>233.9</ele>
        <time>2016-01-23T15:44:39Z</time>
      </trkpt>
      <trkpt lat="43.46111" lon="5.62779">
        <ele>234</ele>
        <time>2016-01-23T15:44:40Z</time>
      </trkpt>
      <trkpt lat="43.4611" lon="5.62764">
        <ele>233.5</ele>
        <time>2016-01-23T15:44:41Z</time>
      </trkpt>
      <trkpt lat="43.46109" lon="5.62747">
        <ele>233</ele>
        <time>2016-01-23T15:44:42Z</time>
      </trkpt>
      <trkpt lat="43.46109" lon="5.6273">
        <ele>232.9</ele>
        <time>2016-01-23T15:44:43Z</time>
      </trkpt>
      <trkpt lat="43.46107" lon="5.62711">
        <ele>232.5</ele>
        <time>2016-01-23T15:44:44Z</time>
      </trkpt>
      <trkpt lat="43.46105" lon="5.62692">
        <ele>231.9</ele>
        <time>2016-01-23T15:44:45Z</time>
      </trkpt>
      <trkpt lat="43.46102" lon="5.62672">
        <ele>231.2</ele>
        <time>2016-01-23T15:44:46Z</time>
      </trkpt>
      <trkpt lat="43.461" lon="5.62651">
        <ele>231.2</ele>
        <time>2016-01-23T15:44:47Z</time>
      </trkpt>
      <trkpt lat="43.46097" lon="5.6263">
        <ele>231.3</ele>
        <time>2016-01-23T15:44:48Z</time>
      </trkpt>
      <trkpt lat="43.46094" lon="5.62608">
        <ele>231.1</ele>
        <time>2016-01-23T15:44:49Z</time>
      </trkpt>
      <trkpt lat="43.46091" lon="5.62585">
        <ele>231</ele>
        <time>2016-01-23T15:44:50Z</time>
      </trkpt>
      <trkpt lat="43.46088" lon="5.62561">
        <ele>231.4</ele>
        <time>2016-01-23T15:44:51Z</time>
      </trkpt>
      <trkpt lat="43.46084" lon="5.62536">
        <ele>231.9</ele>
        <time>2016-01-23T15:44:52Z</time>
      </trkpt>
      <trkpt lat="43.4608" lon="5.62512">
        <ele>232.5</ele>
        <time>2016-01-23T15:44:53Z</time>
      </trkpt>
      <trkpt lat="43.46077" lon="5.62487">
        <ele>232.5</ele>
        <time>2016-01-23T15:44:54Z</time>
      </trkpt>
      <trkpt lat="43.46073" lon="5.62462">
        <ele>232.4</ele>
        <time>2016-01-23T15:44:55Z</time>
      </trkpt>
      <trkpt lat="43.4607" lon="5.62438">
        <ele>232.2</ele>
        <time>2016-01-23T15:44:56Z</time>
      </trkpt>
      <trkpt lat="43.46068" lon="5.62414">
        <ele>231.7</ele>
        <time>2016-01-23T15:44:57Z</time>
      </trkpt>
      <trkpt lat="43.46067" lon="5.62389">
        <ele>231.8</ele>
        <time>2016-01-23T15:44:58Z</time>
      </trkpt>
      <trkpt lat="43.46067" lon="5.62365">
        <ele>231.2</ele>
        <time>2016-01-23T15:44:59Z</time>
      </trkpt>
      <trkpt lat="43.4607" lon="5.6234">
        <ele>231.4</ele>
        <time>2016-01-23T15:45:00Z</time>
      </trkpt>
      <trkpt lat="43.46073" lon="5.62316">
        <ele>231.4</ele>
        <time>2016-01-23T15:45:01Z</time>
      </trkpt>
      <trkpt lat="43.46079" lon="5.62293">
        <ele>231.2</ele>
        <time>2016-01-23T15:45:02Z</time>
      </trkpt>
      <trkpt lat="43.46087" lon="5.62271">
        <ele>231.5</ele>
        <time>2016-01-23T15:45:03Z</time>
      </trkpt>
      <trkpt lat="43.46096" lon="5.62249">
        <ele>232.2</ele>
        <time>2016-01-23T15:45:04Z</time>
      </trkpt>
      <trkpt lat="43.46107" lon="5.62229">
        <ele>231.2</ele>
        <time>2016-01-23T15:45:05Z</time>
      </trkpt>
      <trkpt lat="43.46119" lon="5.6221">
        <ele>230.9</ele>
        <time>2016-01-23T15:45:06Z</time>
      </trkpt>
      <trkpt lat="43.46133" lon="5.62191">
        <ele>230.6</ele>
        <time>2016-01-23T15:45:07Z</time>
      </trkpt>
      <trkpt lat="43.46147" lon="5.62171">
        <ele>230.2</ele>
        <time>2016-01-23T15:45:08Z</time>
      </trkpt>
      <trkpt lat="43.46162" lon="5.62152">
        <ele>230</ele>
        <time>2016-01-23T15:45:09Z</time>
      </trkpt>
      <trkpt lat="43.46177" lon="5.62132">
        <ele>230.2</ele>
        <time>2016-01-23T15:45:10Z</time>
      </trkpt>
      <trkpt lat="43.46191" lon="5.62113">
        <ele>230.3</ele>
        <time>2016-01-23T15:45:11Z</time>
      </trkpt>
      <trkpt lat="43.46206" lon="5.62093">
        <ele>230.8</ele>
        <time>2016-01-23T15:45:12Z</time>
      </trkpt>
      <trkpt lat="43.46219" lon="5.62073">
        <ele>229.6</ele>
        <time>2016-01-23T15:45:13Z</time>
      </trkpt>
      <trkpt lat="43.46233" lon="5.62053">
        <ele>229.9</ele>
        <time>2016-01-23T15:45:14Z</time>
      </trkpt>
      <trkpt lat="43.46245" lon="5.62032">
        <ele>228.8</ele>
        <time>2016-01-23T15:45:15Z</time>
      </trkpt>
      <trkpt lat="43.46256" lon="5.62011">
        <ele>227.8</ele>
        <time>2016-01-23T15:45:16Z</time>
      </trkpt>
      <trkpt lat="43.46266" lon="5.61989">
        <ele>228.4</ele>
        <time>2016-01-23T15:45:17Z</time>
      </trkpt>
      <trkpt lat="43.46276" lon="5.61966">
        <ele>228</ele>
        <time>2016-01-23T15:45:18Z</time>
      </trkpt>
      <trkpt lat="43.46283" lon="5.61942">
        <ele>227.2</ele>
        <time>2016-01-23T15:45:19Z</time>
      </trkpt>
      <trkpt lat="43.46289" lon="5.61917">
        <ele>227</ele>
        <time>2016-01-23T15:45:20Z</time>
      </trkpt>
      <trkpt lat="43.46293" lon="5.61891">
        <ele>227</ele>
        <time>2016-01-23T15:45:21Z</time>
      </trkpt>
      <trkpt lat="43.46296" lon="5.61865">
        <ele>226.4</ele>
        <time>2016-01-23T15:45:22Z</time>
      </trkpt>
      <trkpt lat="43.46297" lon="5.61838">
        <ele>225.8</ele>
        <time>2016-01-23T15:45:23Z</time>
      </trkpt>
      <trkpt lat="43.46297" lon="5.61811">
        <ele>225.1</ele>
        <time>2016-01-23T15:45:24Z</time>
      </trkpt>
      <trkpt lat="43.46297" lon="5.61785">
        <ele>224.8</ele>
        <time>2016-01-23T15:45:25Z</time>
      </trkpt>
      <trkpt lat="43.46296" lon="5.61759">
        <ele>224.7</ele>
        <time>2016-01-23T15:45:26Z</time>
      </trkpt>
      <trkpt lat="43.46296" lon="5.61733">
        <ele>224.6</ele>
        <time>2016-01-23T15:45:27Z</time>
      </trkpt>
      <trkpt lat="43.46295" lon="5.61708">
        <ele>224.3</ele>
        <time>2016-01-23T15:45:28Z</time>
      </trkpt>
      <trkpt lat="43.46294" lon="5.61682">
        <ele>224</ele>
        <time>2016-01-23T15:45:29Z</time>
      </trkpt>
      <trkpt lat="43.46294" lon="5.61657">
        <ele>224</ele>
        <time>2016-01-23T15:45:30Z</time>
      </trkpt>
      <trkpt lat="43.46293" lon="5.61631">
        <ele>224</ele>
        <time>2016-01-23T15:45:31Z</time>
      </trkpt>
      <trkpt lat="43.46292" lon="5.61605">
        <ele>224</ele>
        <time>2016-01-23T15:45:32Z</time>
      </trkpt>
      <trkpt lat="43.46292" lon="5.61579">
        <ele>224</ele>
        <time>2016-01-23T15:45:33Z</time>
      </trkpt>
      <trkpt lat="43.46291" lon="5.61552">
        <ele>224</ele>
        <time>2016-01-23T15:45:34Z</time>
      </trkpt>
      <trkpt lat="43.46291" lon="5.61527">
        <ele>224</ele>
        <time>2016-01-23T15:45:35Z</time>
      </trkpt>
      <trkpt lat="43.4629" lon="5.61503">
        <ele>224.5</ele>
        <time>2016-01-23T15:45:36Z</time>
      </trkpt>
      <trkpt lat="43.4629" lon="5.61479">
        <ele>224.9</ele>
        <time>2016-01-23T15:45:37Z</time>
      </trkpt>
      <trkpt lat="43.4629" lon="5.61457">
        <ele>225</ele>
        <time>2016-01-23T15:45:38Z</time>
      </trkpt>
      <trkpt lat="43.46289" lon="5.61435">
        <ele>225.2</ele>
        <time>2016-01-23T15:45:39Z</time>
      </trkpt>
      <trkpt lat="43.46289" lon="5.61414">
        <ele>225.6</ele>
        <time>2016-01-23T15:45:40Z</time>
      </trkpt>
      <trkpt lat="43.46289" lon="5.61393">
        <ele>225.6</ele>
        <time>2016-01-23T15:45:41Z</time>
      </trkpt>
      <trkpt lat="43.4629" lon="5.61372">
        <ele>225.6</ele>
        <time>2016-01-23T15:45:42Z</time>
      </trkpt>
      <trkpt lat="43.46291" lon="5.61352">
        <ele>225.5</ele>
        <time>2016-01-23T15:45:43Z</time>
      </trkpt>
      <trkpt lat="43.46292" lon="5.61332">
        <ele>225.5</ele>
        <time>2016-01-23T15:45:44Z</time>
      </trkpt>
      <trkpt lat="43.46294" lon="5.61314">
        <ele>225.8</ele>
        <time>2016-01-23T15:45:45Z</time>
      </trkpt>
      <trkpt lat="43.46296" lon="5.61296">
        <ele>225.8</ele>
        <time>2016-01-23T15:45:46Z</time>
      </trkpt>
      <trkpt lat="43.46299" lon="5.61279">
        <ele>225.3</ele>
        <time>2016-01-23T15:45:47Z</time>
      </trkpt>
      <trkpt lat="43.46301" lon="5.61262">
        <ele>225.6</ele>
        <time>2016-01-23T15:45:48Z</time>
      </trkpt>
      <trkpt lat="43.46305" lon="5.61246">
        <ele>226</ele>
        <time>2016-01-23T15:45:49Z</time>
      </trkpt>
      <trkpt lat="43.46308" lon="5.6123">
        <ele>226</ele>
        <time>2016-01-23T15:45:50Z</time>
      </trkpt>
      <trkpt lat="43.46312" lon="5.61216">
        <ele>225.8</ele>
        <time>2016-01-23T15:45:51Z</time>
      </trkpt>
      <trkpt lat="43.46316" lon="5.61203">
        <ele>225.3</ele>
        <time>2016-01-23T15:45:52Z</time>
      </trkpt>
      <trkpt lat="43.46321" lon="5.6119">
        <ele>225</ele>
        <time>2016-01-23T15:45:53Z</time>
      </trkpt>
      <trkpt lat="43.46326" lon="5.61179">
        <ele>225</ele>
        <time>2016-01-23T15:45:54Z</time>
      </trkpt>
      <trkpt lat="43.4633" lon="5.61169">
        <ele>225</ele>
        <time>2016-01-23T15:45:55Z</time>
      </trkpt>
      <trkpt lat="43.46335" lon="5.6116">
        <ele>225</ele>
        <time>2016-01-23T15:45:56Z</time>
      </trkpt>
      <trkpt lat="43.46338" lon="5.61152">
        <ele>224.9</ele>
        <time>2016-01-23T15:45:57Z</time>
      </trkpt>
      <trkpt lat="43.46342" lon="5.61147">
        <ele>224.8</ele>
        <time>2016-01-23T15:45:58Z</time>
      </trkpt>
      <trkpt lat="43.46346" lon="5.61142">
        <ele>224.6</ele>
        <time>2016-01-23T15:45:59Z</time>
      </trkpt>
      <trkpt lat="43.46351" lon="5.61137">
        <ele>224.4</ele>
        <time>2016-01-23T15:46:00Z</time>
      </trkpt>
      <trkpt lat="43.46357" lon="5.61131">
        <ele>224.4</ele>
        <time>2016-01-23T15:46:01Z</time>
      </trkpt>
      <trkpt lat="43.46363" lon="5.61125">
        <ele>224.4</ele>
        <time>2016-01-23T15:46:02Z</time>
      </trkpt>
      <trkpt lat="43.46368" lon="5.61118">
        <ele>224.4</ele>
        <time>2016-01-23T15:46:03Z</time>
      </trkpt>
      <trkpt lat="43.46372" lon="5.61108">
        <ele>224.2</ele>
        <time>2016-01-23T15:46:04Z</time>
      </trkpt>
      <trkpt lat="43.46375" lon="5.61096">
        <ele>223.8</ele>
        <time>2016-01-23T15:46:05Z</time>
      </trkpt>
      <trkpt lat="43.46376" lon="5.61083">
        <ele>223.4</ele>
        <time>2016-01-23T15:46:06Z</time>
      </trkpt>
      <trkpt lat="43.4638" lon="5.61069">
        <ele>223.2</ele>
        <time>2016-01-23T15:46:07Z</time>
      </trkpt>
      <trkpt lat="43.46384" lon="5.61056">
        <ele>223</ele>
        <time>2016-01-23T15:46:08Z</time>
      </trkpt>
      <trkpt lat="43.46389" lon="5.61043">
        <ele>222.6</ele>
        <time>2016-01-23T15:46:09Z</time>
      </trkpt>
      <trkpt lat="43.46395" lon="5.6103">
        <ele>222.1</ele>
        <time>2016-01-23T15:46:10Z</time>
      </trkpt>
      <trkpt lat="43.46401" lon="5.61016">
        <ele>222</ele>
        <time>2016-01-23T15:46:11Z</time>
      </trkpt>
      <trkpt lat="43.46407" lon="5.61002">
        <ele>222</ele>
        <time>2016-01-23T15:46:12Z</time>
      </trkpt>
      <trkpt lat="43.46415" lon="5.60986">
        <ele>221.5</ele>
        <time>2016-01-23T15:46:13Z</time>
      </trkpt>
      <trkpt lat="43.46422" lon="5.60969">
        <ele>220.8</ele>
        <time>2016-01-23T15:46:14Z</time>
      </trkpt>
      <trkpt lat="43.46431" lon="5.60952">
        <ele>220.9</ele>
        <time>2016-01-23T15:46:15Z</time>
      </trkpt>
      <trkpt lat="43.46439" lon="5.60934">
        <ele>220.7</ele>
        <time>2016-01-23T15:46:16Z</time>
      </trkpt>
      <trkpt lat="43.46447" lon="5.60917">
        <ele>219.9</ele>
        <time>2016-01-23T15:46:17Z</time>
      </trkpt>
      <trkpt lat="43.46456" lon="5.60899">
        <ele>219.6</ele>
        <time>2016-01-23T15:46:18Z</time>
      </trkpt>
      <trkpt lat="43.46464" lon="5.60881">
        <ele>219.3</ele>
        <time>2016-01-23T15:46:19Z</time>
      </trkpt>
      <trkpt lat="43.46473" lon="5.60863">
        <ele>219</ele>
        <time>2016-01-23T15:46:20Z</time>
      </trkpt>
      <trkpt lat="43.46483" lon="5.60844">
        <ele>219</ele>
        <time>2016-01-23T15:46:21Z</time>
      </trkpt>
      <trkpt lat="43.46493" lon="5.60825">
        <ele>218.8</ele>
        <time>2016-01-23T15:46:22Z</time>
      </trkpt>
      <trkpt lat="43.46503" lon="5.60805">
        <ele>218</ele>
        <time>2016-01-23T15:46:23Z</time>
      </trkpt>
      <trkpt lat="43.46513" lon="5.60785">
        <ele>218</ele>
        <time>2016-01-23T15:46:24Z</time>
      </trkpt>
      <trkpt lat="43.46523" lon="5.60765">
        <ele>218</ele>
        <time>2016-01-23T15:46:25Z</time>
      </trkpt>
      <trkpt lat="43.46534" lon="5.60744">
        <ele>217.8</ele>
        <time>2016-01-23T15:46:26Z</time>
      </trkpt>
      <trkpt lat="43.46545" lon="5.60723">
        <ele>217.4</ele>
        <time>2016-01-23T15:46:27Z</time>
      </trkpt>
      <trkpt lat="43.46556" lon="5.60701">
        <ele>217.7</ele>
        <time>2016-01-23T15:46:28Z</time>
      </trkpt>
      <trkpt lat="43.46567" lon="5.60679">
        <ele>217.3</ele>
        <time>2016-01-23T15:46:29Z</time>
      </trkpt>
      <trkpt lat="43.46578" lon="5.60658">
        <ele>217.1</ele>
        <time>2016-01-23T15:46:30Z</time>
      </trkpt>
      <trkpt lat="43.46589" lon="5.60636">
        <ele>216.8</ele>
        <time>2016-01-23T15:46:31Z</time>
      </trkpt>
      <trkpt lat="43.466" lon="5.60613">
        <ele>217</ele>
        <time>2016-01-23T15:46:32Z</time>
      </trkpt>
      <trkpt lat="43.46612" lon="5.6059">
        <ele>217</ele>
        <time>2016-01-23T15:46:33Z</time>
      </trkpt>
      <trkpt lat="43.46624" lon="5.60567">
        <ele>216.2</ele>
        <time>2016-01-23T15:46:34Z</time>
      </trkpt>
      <trkpt lat="43.46636" lon="5.60543">
        <ele>215.9</ele>
        <time>2016-01-23T15:46:35Z</time>
      </trkpt>
      <trkpt lat="43.46647" lon="5.60519">
        <ele>215.8</ele>
        <time>2016-01-23T15:46:36Z</time>
      </trkpt>
      <trkpt lat="43.46659" lon="5.60496">
        <ele>215.8</ele>
        <time>2016-01-23T15:46:37Z</time>
      </trkpt>
      <trkpt lat="43.46671" lon="5.60473">
        <ele>216</ele>
        <time>2016-01-23T15:46:38Z</time>
      </trkpt>
      <trkpt lat="43.46683" lon="5.6045">
        <ele>215.7</ele>
        <time>2016-01-23T15:46:39Z</time>
      </trkpt>
      <trkpt lat="43.46695" lon="5.60427">
        <ele>215.4</ele>
        <time>2016-01-23T15:46:40Z</time>
      </trkpt>
      <trkpt lat="43.46706" lon="5.60405">
        <ele>215.3</ele>
        <time>2016-01-23T15:46:41Z</time>
      </trkpt>
      <trkpt lat="43.46718" lon="5.60382">
        <ele>215.2</ele>
        <time>2016-01-23T15:46:42Z</time>
      </trkpt>
      <trkpt lat="43.46729" lon="5.60359">
        <ele>215</ele>
        <time>2016-01-23T15:46:43Z</time>
      </trkpt>
      <trkpt lat="43.4674" lon="5.60337">
        <ele>215</ele>
        <time>2016-01-23T15:46:44Z</time>
      </trkpt>
      <trkpt lat="43.46752" lon="5.60314">
        <ele>215.1</ele>
        <time>2016-01-23T15:46:45Z</time>
      </trkpt>
      <trkpt lat="43.46763" lon="5.60291">
        <ele>215.2</ele>
        <time>2016-01-23T15:46:46Z</time>
      </trkpt>
      <trkpt lat="43.46774" lon="5.60267">
        <ele>215.4</ele>
        <time>2016-01-23T15:46:47Z</time>
      </trkpt>
      <trkpt lat="43.46783" lon="5.60243">
        <ele>214.8</ele>
        <time>2016-01-23T15:46:48Z</time>
      </trkpt>
      <trkpt lat="43.46792" lon="5.60219">
        <ele>215.2</ele>
        <time>2016-01-23T15:46:49Z</time>
      </trkpt>
      <trkpt lat="43.468" lon="5.60195">
        <ele>215.8</ele>
        <time>2016-01-23T15:46:50Z</time>
      </trkpt>
      <trkpt lat="43.46808" lon="5.60169">
        <ele>215</ele>
        <time>2016-01-23T15:46:51Z</time>
      </trkpt>
      <trkpt lat="43.46814" lon="5.60143">
        <ele>215</ele>
        <time>2016-01-23T15:46:52Z</time>
      </trkpt>
      <trkpt lat="43.4682" lon="5.60116">
        <ele>215.8</ele>
        <time>2016-01-23T15:46:53Z</time>
      </trkpt>
      <trkpt lat="43.46825" lon="5.6009">
        <ele>216.4</ele>
        <time>2016-01-23T15:46:54Z</time>
      </trkpt>
      <trkpt lat="43.46829" lon="5.60063">
        <ele>216.4</ele>
        <time>2016-01-23T15:46:55Z</time>
      </trkpt>
      <trkpt lat="43.46833" lon="5.60036">
        <ele>216</ele>
        <time>2016-01-23T15:46:56Z</time>
      </trkpt>
      <trkpt lat="43.46837" lon="5.60009">
        <ele>216.4</ele>
        <time>2016-01-23T15:46:57Z</time>
      </trkpt>
      <trkpt lat="43.46841" lon="5.59982">
        <ele>216.4</ele>
        <time>2016-01-23T15:46:58Z</time>
      </trkpt>
      <trkpt lat="43.46844" lon="5.59955">
        <ele>217.2</ele>
        <time>2016-01-23T15:46:59Z</time>
      </trkpt>
      <trkpt lat="43.46848" lon="5.5993">
        <ele>217.4</ele>
        <time>2016-01-23T15:47:00Z</time>
      </trkpt>
      <trkpt lat="43.46852" lon="5.59906">
        <ele>217.2</ele>
        <time>2016-01-23T15:47:01Z</time>
      </trkpt>
      <trkpt lat="43.46855" lon="5.59883">
        <ele>216.8</ele>
        <time>2016-01-23T15:47:02Z</time>
      </trkpt>
      <trkpt lat="43.4686" lon="5.59861">
        <ele>216.2</ele>
        <time>2016-01-23T15:47:03Z</time>
      </trkpt>
      <trkpt lat="43.46864" lon="5.5984">
        <ele>215.8</ele>
        <time>2016-01-23T15:47:04Z</time>
      </trkpt>
      <trkpt lat="43.4687" lon="5.5982">
        <ele>216.1</ele>
        <time>2016-01-23T15:47:05Z</time>
      </trkpt>
      <trkpt lat="43.46876" lon="5.598">
        <ele>215.9</ele>
        <time>2016-01-23T15:47:06Z</time>
      </trkpt>
      <trkpt lat="43.46884" lon="5.59782">
        <ele>214.9</ele>
        <time>2016-01-23T15:47:07Z</time>
      </trkpt>
      <trkpt lat="43.46892" lon="5.59764">
        <ele>214.1</ele>
        <time>2016-01-23T15:47:08Z</time>
      </trkpt>
      <trkpt lat="43.46902" lon="5.59748">
        <ele>214</ele>
        <time>2016-01-23T15:47:09Z</time>
      </trkpt>
      <trkpt lat="43.46912" lon="5.59732">
        <ele>214</ele>
        <time>2016-01-23T15:47:10Z</time>
      </trkpt>
      <trkpt lat="43.46923" lon="5.59718">
        <ele>214</ele>
        <time>2016-01-23T15:47:11Z</time>
      </trkpt>
      <trkpt lat="43.46933" lon="5.59704">
        <ele>214</ele>
        <time>2016-01-23T15:47:12Z</time>
      </trkpt>
      <trkpt lat="43.46943" lon="5.59689">
        <ele>213.8</ele>
        <time>2016-01-23T15:47:13Z</time>
      </trkpt>
      <trkpt lat="43.46952" lon="5.59675">
        <ele>213.6</ele>
        <time>2016-01-23T15:47:14Z</time>
      </trkpt>
      <trkpt lat="43.4696" lon="5.59662">
        <ele>213.5</ele>
        <time>2016-01-23T15:47:15Z</time>
      </trkpt>
      <trkpt lat="43.46968" lon="5.59648">
        <ele>213.3</ele>
        <time>2016-01-23T15:47:16Z</time>
      </trkpt>
      <trkpt lat="43.46976" lon="5.59636">
        <ele>212.9</ele>
        <time>2016-01-23T15:47:17Z</time>
      </trkpt>
      <trkpt lat="43.46984" lon="5.59625">
        <ele>212.5</ele>
        <time>2016-01-23T15:47:18Z</time>
      </trkpt>
      <trkpt lat="43.46992" lon="5.59614">
        <ele>212.1</ele>
        <time>2016-01-23T15:47:19Z</time>
      </trkpt>
      <trkpt lat="43.47001" lon="5.59606">
        <ele>212</ele>
        <time>2016-01-23T15:47:20Z</time>
      </trkpt>
      <trkpt lat="43.4701" lon="5.59598">
        <ele>212.2</ele>
        <time>2016-01-23T15:47:21Z</time>
      </trkpt>
      <trkpt lat="43.47019" lon="5.59593">
        <ele>212.2</ele>
        <time>2016-01-23T15:47:22Z</time>
      </trkpt>
      <trkpt lat="43.47028" lon="5.59586">
        <ele>212.1</ele>
        <time>2016-01-23T15:47:23Z</time>
      </trkpt>
      <trkpt lat="43.47032" lon="5.59577">
        <ele>211.8</ele>
        <time>2016-01-23T15:47:24Z</time>
      </trkpt>
      <trkpt lat="43.47037" lon="5.59566">
        <ele>211.7</ele>
        <time>2016-01-23T15:47:25Z</time>
      </trkpt>
      <trkpt lat="43.47041" lon="5.59553">
        <ele>211.5</ele>
        <time>2016-01-23T15:47:26Z</time>
      </trkpt>
      <trkpt lat="43.47045" lon="5.59539">
        <ele>210.9</ele>
        <time>2016-01-23T15:47:27Z</time>
      </trkpt>
      <trkpt lat="43.4705" lon="5.59524">
        <ele>210.7</ele>
        <time>2016-01-23T15:47:28Z</time>
      </trkpt>
      <trkpt lat="43.47054" lon="5.59508">
        <ele>210.8</ele>
        <time>2016-01-23T15:47:29Z</time>
      </trkpt>
      <trkpt lat="43.47058" lon="5.5949">
        <ele>209.8</ele>
        <time>2016-01-23T15:47:30Z</time>
      </trkpt>
      <trkpt lat="43.4706" lon="5.59471">
        <ele>207.8</ele>
        <time>2016-01-23T15:47:31Z</time>
      </trkpt>
      <trkpt lat="43.47062" lon="5.5945">
        <ele>209.3</ele>
        <time>2016-01-23T15:47:32Z</time>
      </trkpt>
      <trkpt lat="43.47063" lon="5.59428">
        <ele>209.7</ele>
        <time>2016-01-23T15:47:33Z</time>
      </trkpt>
      <trkpt lat="43.47065" lon="5.59406">
        <ele>209.7</ele>
        <time>2016-01-23T15:47:34Z</time>
      </trkpt>
      <trkpt lat="43.47066" lon="5.59383">
        <ele>209.6</ele>
        <time>2016-01-23T15:47:35Z</time>
      </trkpt>
      <trkpt lat="43.47068" lon="5.59359">
        <ele>209.6</ele>
        <time>2016-01-23T15:47:36Z</time>
      </trkpt>
      <trkpt lat="43.4707" lon="5.59335">
        <ele>209.5</ele>
        <time>2016-01-23T15:47:37Z</time>
      </trkpt>
      <trkpt lat="43.47072" lon="5.59311">
        <ele>209.1</ele>
        <time>2016-01-23T15:47:38Z</time>
      </trkpt>
      <trkpt lat="43.47074" lon="5.59287">
        <ele>209</ele>
        <time>2016-01-23T15:47:39Z</time>
      </trkpt>
      <trkpt lat="43.47076" lon="5.59263">
        <ele>209</ele>
        <time>2016-01-23T15:47:40Z</time>
      </trkpt>
      <trkpt lat="43.47079" lon="5.59239">
        <ele>209</ele>
        <time>2016-01-23T15:47:41Z</time>
      </trkpt>
      <trkpt lat="43.47081" lon="5.59213">
        <ele>209</ele>
        <time>2016-01-23T15:47:42Z</time>
      </trkpt>
      <trkpt lat="43.47084" lon="5.59187">
        <ele>208.7</ele>
        <time>2016-01-23T15:47:43Z</time>
      </trkpt>
      <trkpt lat="43.47087" lon="5.5916">
        <ele>208</ele>
        <time>2016-01-23T15:47:44Z</time>
      </trkpt>
      <trkpt lat="43.4709" lon="5.59133">
        <ele>207.7</ele>
        <time>2016-01-23T15:47:45Z</time>
      </trkpt>
      <trkpt lat="43.47093" lon="5.59106">
        <ele>207.4</ele>
        <time>2016-01-23T15:47:46Z</time>
      </trkpt>
      <trkpt lat="43.47096" lon="5.5908">
        <ele>207.5</ele>
        <time>2016-01-23T15:47:47Z</time>
      </trkpt>
      <trkpt lat="43.47099" lon="5.59054">
        <ele>207.4</ele>
        <time>2016-01-23T15:47:48Z</time>
      </trkpt>
      <trkpt lat="43.47102" lon="5.59028">
        <ele>207</ele>
        <time>2016-01-23T15:47:49Z</time>
      </trkpt>
      <trkpt lat="43.47105" lon="5.59002">
        <ele>207</ele>
        <time>2016-01-23T15:47:50Z</time>
      </trkpt>
      <trkpt lat="43.47108" lon="5.58975">
        <ele>207</ele>
        <time>2016-01-23T15:47:51Z</time>
      </trkpt>
      <trkpt lat="43.47111" lon="5.58948">
        <ele>207</ele>
        <time>2016-01-23T15:47:52Z</time>
      </trkpt>
      <trkpt lat="43.47114" lon="5.5892">
        <ele>206.9</ele>
        <time>2016-01-23T15:47:53Z</time>
      </trkpt>
      <trkpt lat="43.47116" lon="5.58893">
        <ele>206.8</ele>
        <time>2016-01-23T15:47:54Z</time>
      </trkpt>
      <trkpt lat="43.47119" lon="5.58865">
        <ele>206.1</ele>
        <time>2016-01-23T15:47:55Z</time>
      </trkpt>
      <trkpt lat="43.47123" lon="5.58836">
        <ele>206</ele>
        <time>2016-01-23T15:47:56Z</time>
      </trkpt>
      <trkpt lat="43.47126" lon="5.58807">
        <ele>206</ele>
        <time>2016-01-23T15:47:57Z</time>
      </trkpt>
      <trkpt lat="43.47129" lon="5.58778">
        <ele>206</ele>
        <time>2016-01-23T15:47:58Z</time>
      </trkpt>
      <trkpt lat="43.47132" lon="5.5875">
        <ele>205.3</ele>
        <time>2016-01-23T15:47:59Z</time>
      </trkpt>
      <trkpt lat="43.47135" lon="5.58722">
        <ele>205.2</ele>
        <time>2016-01-23T15:48:00Z</time>
      </trkpt>
      <trkpt lat="43.47138" lon="5.58694">
        <ele>205</ele>
        <time>2016-01-23T15:48:01Z</time>
      </trkpt>
      <trkpt lat="43.4714" lon="5.58666">
        <ele>204.9</ele>
        <time>2016-01-23T15:48:02Z</time>
      </trkpt>
      <trkpt lat="43.47143" lon="5.58639">
        <ele>204.7</ele>
        <time>2016-01-23T15:48:03Z</time>
      </trkpt>
      <trkpt lat="43.47146" lon="5.58611">
        <ele>204.5</ele>
        <time>2016-01-23T15:48:04Z</time>
      </trkpt>
      <trkpt lat="43.47149" lon="5.58584">
        <ele>203.7</ele>
        <time>2016-01-23T15:48:05Z</time>
      </trkpt>
      <trkpt lat="43.47152" lon="5.58557">
        <ele>201.6</ele>
        <time>2016-01-23T15:48:06Z</time>
      </trkpt>
      <trkpt lat="43.47156" lon="5.58531">
        <ele>203.4</ele>
        <time>2016-01-23T15:48:07Z</time>
      </trkpt>
      <trkpt lat="43.47161" lon="5.58504">
        <ele>204.5</ele>
        <time>2016-01-23T15:48:08Z</time>
      </trkpt>
      <trkpt lat="43.47166" lon="5.58477">
        <ele>205</ele>
        <time>2016-01-23T15:48:09Z</time>
      </trkpt>
      <trkpt lat="43.47171" lon="5.5845">
        <ele>204.8</ele>
        <time>2016-01-23T15:48:10Z</time>
      </trkpt>
      <trkpt lat="43.47176" lon="5.58423">
        <ele>204.2</ele>
        <time>2016-01-23T15:48:11Z</time>
      </trkpt>
      <trkpt lat="43.47181" lon="5.58396">
        <ele>204.4</ele>
        <time>2016-01-23T15:48:12Z</time>
      </trkpt>
      <trkpt lat="43.47186" lon="5.5837">
        <ele>204.3</ele>
        <time>2016-01-23T15:48:13Z</time>
      </trkpt>
      <trkpt lat="43.47191" lon="5.58343">
        <ele>204.1</ele>
        <time>2016-01-23T15:48:14Z</time>
      </trkpt>
      <trkpt lat="43.47196" lon="5.58317">
        <ele>203.8</ele>
        <time>2016-01-23T15:48:15Z</time>
      </trkpt>
      <trkpt lat="43.47201" lon="5.5829">
        <ele>203.4</ele>
        <time>2016-01-23T15:48:16Z</time>
      </trkpt>
      <trkpt lat="43.47206" lon="5.58264">
        <ele>203.6</ele>
        <time>2016-01-23T15:48:17Z</time>
      </trkpt>
      <trkpt lat="43.47211" lon="5.58238">
        <ele>203.4</ele>
        <time>2016-01-23T15:48:18Z</time>
      </trkpt>
      <trkpt lat="43.47216" lon="5.58211">
        <ele>203.2</ele>
        <time>2016-01-23T15:48:19Z</time>
      </trkpt>
      <trkpt lat="43.47221" lon="5.58184">
        <ele>203.1</ele>
        <time>2016-01-23T15:48:20Z</time>
      </trkpt>
      <trkpt lat="43.47226" lon="5.58157">
        <ele>202.9</ele>
        <time>2016-01-23T15:48:21Z</time>
      </trkpt>
      <trkpt lat="43.47231" lon="5.5813">
        <ele>202.7</ele>
        <time>2016-01-23T15:48:22Z</time>
      </trkpt>
      <trkpt lat="43.47235" lon="5.58102">
        <ele>202.5</ele>
        <time>2016-01-23T15:48:23Z</time>
      </trkpt>
      <trkpt lat="43.4724" lon="5.58076">
        <ele>202.4</ele>
        <time>2016-01-23T15:48:24Z</time>
      </trkpt>
      <trkpt lat="43.47244" lon="5.58049">
        <ele>202.2</ele>
        <time>2016-01-23T15:48:25Z</time>
      </trkpt>
      <trkpt lat="43.4725" lon="5.58022">
        <ele>202</ele>
        <time>2016-01-23T15:48:26Z</time>
      </trkpt>
      <trkpt lat="43.47255" lon="5.57996">
        <ele>201.8</ele>
        <time>2016-01-23T15:48:27Z</time>
      </trkpt>
      <trkpt lat="43.4726" lon="5.57969">
        <ele>201.7</ele>
        <time>2016-01-23T15:48:28Z</time>
      </trkpt>
      <trkpt lat="43.47265" lon="5.57941">
        <ele>201.6</ele>
        <time>2016-01-23T15:48:29Z</time>
      </trkpt>
      <trkpt lat="43.4727" lon="5.57913">
        <ele>202.3</ele>
        <time>2016-01-23T15:48:30Z</time>
      </trkpt>
      <trkpt lat="43.47275" lon="5.57885">
        <ele>202.1</ele>
        <time>2016-01-23T15:48:31Z</time>
      </trkpt>
      <trkpt lat="43.47281" lon="5.57858">
        <ele>201.9</ele>
        <time>2016-01-23T15:48:32Z</time>
      </trkpt>
      <trkpt lat="43.47288" lon="5.57831">
        <ele>201.6</ele>
        <time>2016-01-23T15:48:33Z</time>
      </trkpt>
      <trkpt lat="43.47295" lon="5.57805">
        <ele>201.4</ele>
        <time>2016-01-23T15:48:34Z</time>
      </trkpt>
      <trkpt lat="43.47304" lon="5.57781">
        <ele>201.1</ele>
        <time>2016-01-23T15:48:35Z</time>
      </trkpt>
      <trkpt lat="43.47312" lon="5.57758">
        <ele>201.3</ele>
        <time>2016-01-23T15:48:36Z</time>
      </trkpt>
      <trkpt lat="43.47322" lon="5.57736">
        <ele>201.1</ele>
        <time>2016-01-23T15:48:37Z</time>
      </trkpt>
      <trkpt lat="43.47331" lon="5.57716">
        <ele>201.1</ele>
        <time>2016-01-23T15:48:38Z</time>
      </trkpt>
      <trkpt lat="43.47342" lon="5.57696">
        <ele>200.6</ele>
        <time>2016-01-23T15:48:39Z</time>
      </trkpt>
      <trkpt lat="43.47353" lon="5.57678">
        <ele>200.3</ele>
        <time>2016-01-23T15:48:40Z</time>
      </trkpt>
      <trkpt lat="43.47365" lon="5.5766">
        <ele>199.9</ele>
        <time>2016-01-23T15:48:41Z</time>
      </trkpt>
      <trkpt lat="43.47378" lon="5.57643">
        <ele>199.9</ele>
        <time>2016-01-23T15:48:42Z</time>
      </trkpt>
      <trkpt lat="43.4739" lon="5.57626">
        <ele>199.9</ele>
        <time>2016-01-23T15:48:43Z</time>
      </trkpt>
      <trkpt lat="43.47403" lon="5.57608">
        <ele>199.5</ele>
        <time>2016-01-23T15:48:44Z</time>
      </trkpt>
      <trkpt lat="43.47415" lon="5.5759">
        <ele>199</ele>
        <time>2016-01-23T15:48:45Z</time>
      </trkpt>
      <trkpt lat="43.47429" lon="5.57572">
        <ele>198.7</ele>
        <time>2016-01-23T15:48:46Z</time>
      </trkpt>
      <trkpt lat="43.47442" lon="5.57553">
        <ele>198.9</ele>
        <time>2016-01-23T15:48:47Z</time>
      </trkpt>
      <trkpt lat="43.47456" lon="5.57533">
        <ele>198.4</ele>
        <time>2016-01-23T15:48:48Z</time>
      </trkpt>
      <trkpt lat="43.47471" lon="5.57514">
        <ele>198.5</ele>
        <time>2016-01-23T15:48:49Z</time>
      </trkpt>
      <trkpt lat="43.47485" lon="5.57494">
        <ele>198.1</ele>
        <time>2016-01-23T15:48:50Z</time>
      </trkpt>
      <trkpt lat="43.475" lon="5.57473">
        <ele>198</ele>
        <time>2016-01-23T15:48:51Z</time>
      </trkpt>
      <trkpt lat="43.47515" lon="5.57453">
        <ele>198.1</ele>
        <time>2016-01-23T15:48:52Z</time>
      </trkpt>
      <trkpt lat="43.47531" lon="5.57432">
        <ele>198.2</ele>
        <time>2016-01-23T15:48:53Z</time>
      </trkpt>
      <trkpt lat="43.47546" lon="5.57411">
        <ele>197.9</ele>
        <time>2016-01-23T15:48:54Z</time>
      </trkpt>
      <trkpt lat="43.47561" lon="5.5739">
        <ele>197.7</ele>
        <time>2016-01-23T15:48:55Z</time>
      </trkpt>
      <trkpt lat="43.47576" lon="5.5737">
        <ele>197.6</ele>
        <time>2016-01-23T15:48:56Z</time>
      </trkpt>
      <trkpt lat="43.47592" lon="5.57349">
        <ele>197.1</ele>
        <time>2016-01-23T15:48:57Z</time>
      </trkpt>
      <trkpt lat="43.47607" lon="5.57329">
        <ele>197</ele>
        <time>2016-01-23T15:48:58Z</time>
      </trkpt>
      <trkpt lat="43.47622" lon="5.57309">
        <ele>196</ele>
        <time>2016-01-23T15:48:59Z</time>
      </trkpt>
      <trkpt lat="43.47637" lon="5.57289">
        <ele>196</ele>
        <time>2016-01-23T15:49:00Z</time>
      </trkpt>
      <trkpt lat="43.47652" lon="5.57269">
        <ele>196.2</ele>
        <time>2016-01-23T15:49:01Z</time>
      </trkpt>
      <trkpt lat="43.47666" lon="5.57249">
        <ele>196</ele>
        <time>2016-01-23T15:49:02Z</time>
      </trkpt>
      <trkpt lat="43.47681" lon="5.5723">
        <ele>196.4</ele>
        <time>2016-01-23T15:49:03Z</time>
      </trkpt>
      <trkpt lat="43.47695" lon="5.57211">
        <ele>196</ele>
        <time>2016-01-23T15:49:04Z</time>
      </trkpt>
      <trkpt lat="43.47709" lon="5.57192">
        <ele>196</ele>
        <time>2016-01-23T15:49:05Z</time>
      </trkpt>
      <trkpt lat="43.47722" lon="5.57173">
        <ele>196</ele>
        <time>2016-01-23T15:49:06Z</time>
      </trkpt>
      <trkpt lat="43.47735" lon="5.57155">
        <ele>196</ele>
        <time>2016-01-23T15:49:07Z</time>
      </trkpt>
      <trkpt lat="43.47748" lon="5.57137">
        <ele>196</ele>
        <time>2016-01-23T15:49:08Z</time>
      </trkpt>
      <trkpt lat="43.47761" lon="5.5712">
        <ele>196</ele>
        <time>2016-01-23T15:49:09Z</time>
      </trkpt>
      <trkpt lat="43.47773" lon="5.57102">
        <ele>196</ele>
        <time>2016-01-23T15:49:10Z</time>
      </trkpt>
      <trkpt lat="43.47784" lon="5.57084">
        <ele>196</ele>
        <time>2016-01-23T15:49:11Z</time>
      </trkpt>
      <trkpt lat="43.47794" lon="5.57065">
        <ele>196</ele>
        <time>2016-01-23T15:49:12Z</time>
      </trkpt>
      <trkpt lat="43.47802" lon="5.57047">
        <ele>195.7</ele>
        <time>2016-01-23T15:49:13Z</time>
      </trkpt>
      <trkpt lat="43.4781" lon="5.57029">
        <ele>194.9</ele>
        <time>2016-01-23T15:49:14Z</time>
      </trkpt>
      <trkpt lat="43.47817" lon="5.57012">
        <ele>194.8</ele>
        <time>2016-01-23T15:49:15Z</time>
      </trkpt>
      <trkpt lat="43.47823" lon="5.56995">
        <ele>195</ele>
        <time>2016-01-23T15:49:16Z</time>
      </trkpt>
      <trkpt lat="43.47829" lon="5.56978">
        <ele>195</ele>
        <time>2016-01-23T15:49:17Z</time>
      </trkpt>
      <trkpt lat="43.47834" lon="5.56961">
        <ele>194.9</ele>
        <time>2016-01-23T15:49:18Z</time>
      </trkpt>
      <trkpt lat="43.47838" lon="5.56945">
        <ele>194.5</ele>
        <time>2016-01-23T15:49:19Z</time>
      </trkpt>
      <trkpt lat="43.47847" lon="5.56917">
        <ele>194</ele>
        <time>2016-01-23T15:49:21Z</time>
      </trkpt>
      <trkpt lat="43.47851" lon="5.56904">
        <ele>194</ele>
        <time>2016-01-23T15:49:22Z</time>
      </trkpt>
      <trkpt lat="43.47855" lon="5.56893">
        <ele>194.1</ele>
        <time>2016-01-23T15:49:23Z</time>
      </trkpt>
      <trkpt lat="43.47858" lon="5.56881">
        <ele>194.1</ele>
        <time>2016-01-23T15:49:24Z</time>
      </trkpt>
      <trkpt lat="43.47859" lon="5.56869">
        <ele>194</ele>
        <time>2016-01-23T15:49:25Z</time>
      </trkpt>
      <trkpt lat="43.47859" lon="5.56857">
        <ele>193.9</ele>
        <time>2016-01-23T15:49:26Z</time>
      </trkpt>
      <trkpt lat="43.47858" lon="5.56844">
        <ele>193.8</ele>
        <time>2016-01-23T15:49:27Z</time>
      </trkpt>
      <trkpt lat="43.4786" lon="5.56814">
        <ele>194.6</ele>
        <time>2016-01-23T15:49:29Z</time>
      </trkpt>
      <trkpt lat="43.47862" lon="5.56778">
        <ele>194.8</ele>
        <time>2016-01-23T15:49:31Z</time>
      </trkpt>
      <trkpt lat="43.47864" lon="5.56739">
        <ele>194.4</ele>
        <time>2016-01-23T15:49:33Z</time>
      </trkpt>
      <trkpt lat="43.47865" lon="5.56693">
        <ele>193.9</ele>
        <time>2016-01-23T15:49:35Z</time>
      </trkpt>
      <trkpt lat="43.47866" lon="5.56644">
        <ele>193.8</ele>
        <time>2016-01-23T15:49:37Z</time>
      </trkpt>
      <trkpt lat="43.47865" lon="5.56618">
        <ele>194.5</ele>
        <time>2016-01-23T15:49:38Z</time>
      </trkpt>
      <trkpt lat="43.47865" lon="5.56566">
        <ele>195.3</ele>
        <time>2016-01-23T15:49:40Z</time>
      </trkpt>
      <trkpt lat="43.47865" lon="5.56539">
        <ele>195.5</ele>
        <time>2016-01-23T15:49:41Z</time>
      </trkpt>
      <trkpt lat="43.47865" lon="5.56486">
        <ele>196.7</ele>
        <time>2016-01-23T15:49:43Z</time>
      </trkpt>
      <trkpt lat="43.47866" lon="5.56437">
        <ele>196.8</ele>
        <time>2016-01-23T15:49:45Z</time>
      </trkpt>
      <trkpt lat="43.47866" lon="5.56414">
        <ele>195.6</ele>
        <time>2016-01-23T15:49:46Z</time>
      </trkpt>
      <trkpt lat="43.47866" lon="5.5639">
        <ele>192.2</ele>
        <time>2016-01-23T15:49:47Z</time>
      </trkpt>
      <trkpt lat="43.47866" lon="5.56341">
        <ele>195.6</ele>
        <time>2016-01-23T15:49:49Z</time>
      </trkpt>
      <trkpt lat="43.47865" lon="5.56315">
        <ele>196.3</ele>
        <time>2016-01-23T15:49:50Z</time>
      </trkpt>
      <trkpt lat="43.47865" lon="5.56262">
        <ele>195.5</ele>
        <time>2016-01-23T15:49:52Z</time>
      </trkpt>
      <trkpt lat="43.47866" lon="5.56235">
        <ele>195.1</ele>
        <time>2016-01-23T15:49:53Z</time>
      </trkpt>
      <trkpt lat="43.47865" lon="5.56177">
        <ele>193.2</ele>
        <time>2016-01-23T15:49:55Z</time>
      </trkpt>
      <trkpt lat="43.47866" lon="5.56147">
        <ele>192.1</ele>
        <time>2016-01-23T15:49:56Z</time>
      </trkpt>
      <trkpt lat="43.47868" lon="5.56117">
        <ele>191.6</ele>
        <time>2016-01-23T15:49:57Z</time>
      </trkpt>
      <trkpt lat="43.4787" lon="5.56086">
        <ele>191.3</ele>
        <time>2016-01-23T15:49:58Z</time>
      </trkpt>
      <trkpt lat="43.47874" lon="5.56056">
        <ele>191.5</ele>
        <time>2016-01-23T15:49:59Z</time>
      </trkpt>
      <trkpt lat="43.47887" lon="5.55996">
        <ele>191</ele>
        <time>2016-01-23T15:50:01Z</time>
      </trkpt>
      <trkpt lat="43.47895" lon="5.55967">
        <ele>190</ele>
        <time>2016-01-23T15:50:02Z</time>
      </trkpt>
      <trkpt lat="43.47912" lon="5.55909">
        <ele>190.1</ele>
        <time>2016-01-23T15:50:04Z</time>
      </trkpt>
      <trkpt lat="43.47919" lon="5.55881">
        <ele>189.9</ele>
        <time>2016-01-23T15:50:05Z</time>
      </trkpt>
      <trkpt lat="43.47925" lon="5.55852">
        <ele>190</ele>
        <time>2016-01-23T15:50:06Z</time>
      </trkpt>
      <trkpt lat="43.4793" lon="5.55824">
        <ele>190.2</ele>
        <time>2016-01-23T15:50:07Z</time>
      </trkpt>
      <trkpt lat="43.47933" lon="5.55795">
        <ele>190.4</ele>
        <time>2016-01-23T15:50:08Z</time>
      </trkpt>
      <trkpt lat="43.47936" lon="5.55767">
        <ele>189.6</ele>
        <time>2016-01-23T15:50:09Z</time>
      </trkpt>
      <trkpt lat="43.47939" lon="5.55739">
        <ele>188.9</ele>
        <time>2016-01-23T15:50:10Z</time>
      </trkpt>
      <trkpt lat="43.47941" lon="5.55712">
        <ele>187.9</ele>
        <time>2016-01-23T15:50:11Z</time>
      </trkpt>
      <trkpt lat="43.47943" lon="5.55686">
        <ele>187</ele>
        <time>2016-01-23T15:50:12Z</time>
      </trkpt>
      <trkpt lat="43.47945" lon="5.5566">
        <ele>189</ele>
        <time>2016-01-23T15:50:13Z</time>
      </trkpt>
      <trkpt lat="43.47946" lon="5.55635">
        <ele>188.7</ele>
        <time>2016-01-23T15:50:14Z</time>
      </trkpt>
      <trkpt lat="43.47948" lon="5.55611">
        <ele>187.8</ele>
        <time>2016-01-23T15:50:15Z</time>
      </trkpt>
      <trkpt lat="43.4795" lon="5.55586">
        <ele>187.1</ele>
        <time>2016-01-23T15:50:16Z</time>
      </trkpt>
      <trkpt lat="43.47952" lon="5.55561">
        <ele>187</ele>
        <time>2016-01-23T15:50:17Z</time>
      </trkpt>
      <trkpt lat="43.47955" lon="5.55536">
        <ele>187.7</ele>
        <time>2016-01-23T15:50:18Z</time>
      </trkpt>
      <trkpt lat="43.47957" lon="5.55509">
        <ele>187.6</ele>
        <time>2016-01-23T15:50:19Z</time>
      </trkpt>
      <trkpt lat="43.47959" lon="5.55482">
        <ele>187.2</ele>
        <time>2016-01-23T15:50:20Z</time>
      </trkpt>
      <trkpt lat="43.47962" lon="5.55455">
        <ele>187</ele>
        <time>2016-01-23T15:50:21Z</time>
      </trkpt>
      <trkpt lat="43.47964" lon="5.55428">
        <ele>187</ele>
        <time>2016-01-23T15:50:22Z</time>
      </trkpt>
      <trkpt lat="43.47966" lon="5.55401">
        <ele>187</ele>
        <time>2016-01-23T15:50:23Z</time>
      </trkpt>
      <trkpt lat="43.47968" lon="5.55374">
        <ele>187</ele>
        <time>2016-01-23T15:50:24Z</time>
      </trkpt>
      <trkpt lat="43.4797" lon="5.55348">
        <ele>187</ele>
        <time>2016-01-23T15:50:25Z</time>
      </trkpt>
      <trkpt lat="43.47973" lon="5.55322">
        <ele>187</ele>
        <time>2016-01-23T15:50:26Z</time>
      </trkpt>
      <trkpt lat="43.47975" lon="5.55296">
        <ele>186.9</ele>
        <time>2016-01-23T15:50:27Z</time>
      </trkpt>
      <trkpt lat="43.47977" lon="5.55271">
        <ele>186.8</ele>
        <time>2016-01-23T15:50:28Z</time>
      </trkpt>
      <trkpt lat="43.47979" lon="5.55246">
        <ele>186.8</ele>
        <time>2016-01-23T15:50:29Z</time>
      </trkpt>
      <trkpt lat="43.4798" lon="5.5522">
        <ele>186.7</ele>
        <time>2016-01-23T15:50:30Z</time>
      </trkpt>
      <trkpt lat="43.4798" lon="5.55194">
        <ele>185.7</ele>
        <time>2016-01-23T15:50:31Z</time>
      </trkpt>
      <trkpt lat="43.47979" lon="5.55167">
        <ele>185.7</ele>
        <time>2016-01-23T15:50:32Z</time>
      </trkpt>
      <trkpt lat="43.47978" lon="5.5514">
        <ele>185.8</ele>
        <time>2016-01-23T15:50:33Z</time>
      </trkpt>
      <trkpt lat="43.47977" lon="5.55113">
        <ele>185.8</ele>
        <time>2016-01-23T15:50:34Z</time>
      </trkpt>
      <trkpt lat="43.47976" lon="5.55086">
        <ele>185.9</ele>
        <time>2016-01-23T15:50:35Z</time>
      </trkpt>
      <trkpt lat="43.47975" lon="5.55059">
        <ele>185.9</ele>
        <time>2016-01-23T15:50:36Z</time>
      </trkpt>
      <trkpt lat="43.47973" lon="5.55033">
        <ele>186</ele>
        <time>2016-01-23T15:50:37Z</time>
      </trkpt>
      <trkpt lat="43.47972" lon="5.55006">
        <ele>186</ele>
        <time>2016-01-23T15:50:38Z</time>
      </trkpt>
      <trkpt lat="43.47971" lon="5.54979">
        <ele>185.9</ele>
        <time>2016-01-23T15:50:39Z</time>
      </trkpt>
      <trkpt lat="43.47969" lon="5.54952">
        <ele>185.9</ele>
        <time>2016-01-23T15:50:40Z</time>
      </trkpt>
      <trkpt lat="43.47968" lon="5.54926">
        <ele>185.4</ele>
        <time>2016-01-23T15:50:41Z</time>
      </trkpt>
      <trkpt lat="43.47966" lon="5.549">
        <ele>185.1</ele>
        <time>2016-01-23T15:50:42Z</time>
      </trkpt>
      <trkpt lat="43.47964" lon="5.54876">
        <ele>185</ele>
        <time>2016-01-23T15:50:43Z</time>
      </trkpt>
      <trkpt lat="43.47962" lon="5.54851">
        <ele>185.1</ele>
        <time>2016-01-23T15:50:44Z</time>
      </trkpt>
      <trkpt lat="43.47959" lon="5.54828">
        <ele>185.5</ele>
        <time>2016-01-23T15:50:45Z</time>
      </trkpt>
      <trkpt lat="43.47957" lon="5.54804">
        <ele>185.6</ele>
        <time>2016-01-23T15:50:46Z</time>
      </trkpt>
      <trkpt lat="43.47953" lon="5.54779">
        <ele>185.7</ele>
        <time>2016-01-23T15:50:47Z</time>
      </trkpt>
      <trkpt lat="43.4795" lon="5.54755">
        <ele>185.8</ele>
        <time>2016-01-23T15:50:48Z</time>
      </trkpt>
      <trkpt lat="43.47947" lon="5.5473">
        <ele>185.9</ele>
        <time>2016-01-23T15:50:49Z</time>
      </trkpt>
      <trkpt lat="43.47944" lon="5.54704">
        <ele>186</ele>
        <time>2016-01-23T15:50:50Z</time>
      </trkpt>
      <trkpt lat="43.47941" lon="5.54679">
        <ele>186.1</ele>
        <time>2016-01-23T15:50:51Z</time>
      </trkpt>
      <trkpt lat="43.47938" lon="5.54654">
        <ele>186.3</ele>
        <time>2016-01-23T15:50:52Z</time>
      </trkpt>
      <trkpt lat="43.47934" lon="5.54628">
        <ele>186.4</ele>
        <time>2016-01-23T15:50:53Z</time>
      </trkpt>
      <trkpt lat="43.47931" lon="5.54603">
        <ele>186.5</ele>
        <time>2016-01-23T15:50:54Z</time>
      </trkpt>
      <trkpt lat="43.47928" lon="5.54577">
        <ele>186.6</ele>
        <time>2016-01-23T15:50:55Z</time>
      </trkpt>
      <trkpt lat="43.47924" lon="5.54551">
        <ele>186.7</ele>
        <time>2016-01-23T15:50:56Z</time>
      </trkpt>
      <trkpt lat="43.4792" lon="5.54525">
        <ele>186.9</ele>
        <time>2016-01-23T15:50:57Z</time>
      </trkpt>
      <trkpt lat="43.47917" lon="5.54499">
        <ele>187</ele>
        <time>2016-01-23T15:50:58Z</time>
      </trkpt>
      <trkpt lat="43.47913" lon="5.54473">
        <ele>187</ele>
        <time>2016-01-23T15:50:59Z</time>
      </trkpt>
      <trkpt lat="43.47909" lon="5.54446">
        <ele>187</ele>
        <time>2016-01-23T15:51:00Z</time>
      </trkpt>
      <trkpt lat="43.47904" lon="5.5442">
        <ele>186.5</ele>
        <time>2016-01-23T15:51:01Z</time>
      </trkpt>
      <trkpt lat="43.47899" lon="5.54394">
        <ele>187.2</ele>
        <time>2016-01-23T15:51:02Z</time>
      </trkpt>
      <trkpt lat="43.47893" lon="5.54367">
        <ele>187.7</ele>
        <time>2016-01-23T15:51:03Z</time>
      </trkpt>
      <trkpt lat="43.47886" lon="5.54341">
        <ele>187.9</ele>
        <time>2016-01-23T15:51:04Z</time>
      </trkpt>
      <trkpt lat="43.47879" lon="5.54316">
        <ele>187.5</ele>
        <time>2016-01-23T15:51:05Z</time>
      </trkpt>
      <trkpt lat="43.47871" lon="5.5429">
        <ele>187.8</ele>
        <time>2016-01-23T15:51:06Z</time>
      </trkpt>
      <trkpt lat="43.47863" lon="5.54264">
        <ele>188</ele>
        <time>2016-01-23T15:51:07Z</time>
      </trkpt>
      <trkpt lat="43.47855" lon="5.54238">
        <ele>188.3</ele>
        <time>2016-01-23T15:51:08Z</time>
      </trkpt>
      <trkpt lat="43.47847" lon="5.54211">
        <ele>189</ele>
        <time>2016-01-23T15:51:09Z</time>
      </trkpt>
      <trkpt lat="43.47838" lon="5.54185">
        <ele>189.7</ele>
        <time>2016-01-23T15:51:10Z</time>
      </trkpt>
      <trkpt lat="43.4783" lon="5.54159">
        <ele>189.9</ele>
        <time>2016-01-23T15:51:11Z</time>
      </trkpt>
      <trkpt lat="43.47821" lon="5.54133">
        <ele>190.1</ele>
        <time>2016-01-23T15:51:12Z</time>
      </trkpt>
      <trkpt lat="43.47812" lon="5.54108">
        <ele>191.5</ele>
        <time>2016-01-23T15:51:13Z</time>
      </trkpt>
      <trkpt lat="43.47803" lon="5.54083">
        <ele>192</ele>
        <time>2016-01-23T15:51:14Z</time>
      </trkpt>
      <trkpt lat="43.47794" lon="5.54058">
        <ele>192.4</ele>
        <time>2016-01-23T15:51:15Z</time>
      </trkpt>
      <trkpt lat="43.47785" lon="5.54034">
        <ele>193.7</ele>
        <time>2016-01-23T15:51:16Z</time>
      </trkpt>
      <trkpt lat="43.47776" lon="5.54009">
        <ele>194.9</ele>
        <time>2016-01-23T15:51:17Z</time>
      </trkpt>
      <trkpt lat="43.47768" lon="5.53984">
        <ele>193.2</ele>
        <time>2016-01-23T15:51:18Z</time>
      </trkpt>
      <trkpt lat="43.4776" lon="5.53959">
        <ele>194.7</ele>
        <time>2016-01-23T15:51:19Z</time>
      </trkpt>
      <trkpt lat="43.47751" lon="5.53933">
        <ele>197.3</ele>
        <time>2016-01-23T15:51:20Z</time>
      </trkpt>
      <trkpt lat="43.47744" lon="5.53907">
        <ele>195.3</ele>
        <time>2016-01-23T15:51:21Z</time>
      </trkpt>
      <trkpt lat="43.47736" lon="5.53881">
        <ele>194</ele>
        <time>2016-01-23T15:51:22Z</time>
      </trkpt>
      <trkpt lat="43.4773" lon="5.53855">
        <ele>196.8</ele>
        <time>2016-01-23T15:51:23Z</time>
      </trkpt>
      <trkpt lat="43.47724" lon="5.53828">
        <ele>198.6</ele>
        <time>2016-01-23T15:51:24Z</time>
      </trkpt>
      <trkpt lat="43.47719" lon="5.53801">
        <ele>198.2</ele>
        <time>2016-01-23T15:51:25Z</time>
      </trkpt>
      <trkpt lat="43.47715" lon="5.53774">
        <ele>196.3</ele>
        <time>2016-01-23T15:51:26Z</time>
      </trkpt>
      <trkpt lat="43.4771" lon="5.53746">
        <ele>195.4</ele>
        <time>2016-01-23T15:51:27Z</time>
      </trkpt>
      <trkpt lat="43.47705" lon="5.53719">
        <ele>195.8</ele>
        <time>2016-01-23T15:51:28Z</time>
      </trkpt>
      <trkpt lat="43.47701" lon="5.53693">
        <ele>196.4</ele>
        <time>2016-01-23T15:51:29Z</time>
      </trkpt>
      <trkpt lat="43.47697" lon="5.53667">
        <ele>197.7</ele>
        <time>2016-01-23T15:51:30Z</time>
      </trkpt>
      <trkpt lat="43.47693" lon="5.53641">
        <ele>197</ele>
        <time>2016-01-23T15:51:31Z</time>
      </trkpt>
      <trkpt lat="43.47688" lon="5.53615">
        <ele>196.8</ele>
        <time>2016-01-23T15:51:32Z</time>
      </trkpt>
      <trkpt lat="43.47684" lon="5.53588">
        <ele>195.9</ele>
        <time>2016-01-23T15:51:33Z</time>
      </trkpt>
      <trkpt lat="43.4768" lon="5.5356">
        <ele>196.1</ele>
        <time>2016-01-23T15:51:34Z</time>
      </trkpt>
      <trkpt lat="43.47675" lon="5.53531">
        <ele>196.7</ele>
        <time>2016-01-23T15:51:35Z</time>
      </trkpt>
      <trkpt lat="43.47671" lon="5.53503">
        <ele>196.7</ele>
        <time>2016-01-23T15:51:36Z</time>
      </trkpt>
      <trkpt lat="43.47666" lon="5.53475">
        <ele>197</ele>
        <time>2016-01-23T15:51:37Z</time>
      </trkpt>
      <trkpt lat="43.47662" lon="5.53447">
        <ele>198.6</ele>
        <time>2016-01-23T15:51:38Z</time>
      </trkpt>
      <trkpt lat="43.47657" lon="5.53421">
        <ele>198.6</ele>
        <time>2016-01-23T15:51:39Z</time>
      </trkpt>
      <trkpt lat="43.47652" lon="5.53394">
        <ele>198.1</ele>
        <time>2016-01-23T15:51:40Z</time>
      </trkpt>
      <trkpt lat="43.47648" lon="5.53368">
        <ele>196.5</ele>
        <time>2016-01-23T15:51:41Z</time>
      </trkpt>
      <trkpt lat="43.47643" lon="5.53341">
        <ele>197.4</ele>
        <time>2016-01-23T15:51:42Z</time>
      </trkpt>
      <trkpt lat="43.47638" lon="5.53314">
        <ele>198</ele>
        <time>2016-01-23T15:51:43Z</time>
      </trkpt>
      <trkpt lat="43.47633" lon="5.53287">
        <ele>197.5</ele>
        <time>2016-01-23T15:51:44Z</time>
      </trkpt>
      <trkpt lat="43.47628" lon="5.5326">
        <ele>197.7</ele>
        <time>2016-01-23T15:51:45Z</time>
      </trkpt>
      <trkpt lat="43.47623" lon="5.53232">
        <ele>198.2</ele>
        <time>2016-01-23T15:51:46Z</time>
      </trkpt>
      <trkpt lat="43.47618" lon="5.53205">
        <ele>199</ele>
        <time>2016-01-23T15:51:47Z</time>
      </trkpt>
      <trkpt lat="43.47612" lon="5.53176">
        <ele>199.9</ele>
        <time>2016-01-23T15:51:48Z</time>
      </trkpt>
      <trkpt lat="43.47607" lon="5.53148">
        <ele>200.6</ele>
        <time>2016-01-23T15:51:49Z</time>
      </trkpt>
      <trkpt lat="43.47601" lon="5.53119">
        <ele>200.9</ele>
        <time>2016-01-23T15:51:50Z</time>
      </trkpt>
      <trkpt lat="43.47595" lon="5.53089">
        <ele>200.4</ele>
        <time>2016-01-23T15:51:51Z</time>
      </trkpt>
      <trkpt lat="43.47589" lon="5.5306">
        <ele>199.9</ele>
        <time>2016-01-23T15:51:52Z</time>
      </trkpt>
      <trkpt lat="43.47584" lon="5.5303">
        <ele>200</ele>
        <time>2016-01-23T15:51:53Z</time>
      </trkpt>
      <trkpt lat="43.47578" lon="5.53001">
        <ele>200</ele>
        <time>2016-01-23T15:51:54Z</time>
      </trkpt>
      <trkpt lat="43.47572" lon="5.52972">
        <ele>200.2</ele>
        <time>2016-01-23T15:51:55Z</time>
      </trkpt>
      <trkpt lat="43.47567" lon="5.52943">
        <ele>198.6</ele>
        <time>2016-01-23T15:51:56Z</time>
      </trkpt>
      <trkpt lat="43.47562" lon="5.52912">
        <ele>198.4</ele>
        <time>2016-01-23T15:51:57Z</time>
      </trkpt>
      <trkpt lat="43.47557" lon="5.52882">
        <ele>197.9</ele>
        <time>2016-01-23T15:51:58Z</time>
      </trkpt>
      <trkpt lat="43.47552" lon="5.52852">
        <ele>197.7</ele>
        <time>2016-01-23T15:51:59Z</time>
      </trkpt>
      <trkpt lat="43.47548" lon="5.52823">
        <ele>196.4</ele>
        <time>2016-01-23T15:52:00Z</time>
      </trkpt>
      <trkpt lat="43.47544" lon="5.52793">
        <ele>195.8</ele>
        <time>2016-01-23T15:52:01Z</time>
      </trkpt>
      <trkpt lat="43.47541" lon="5.52764">
        <ele>195.1</ele>
        <time>2016-01-23T15:52:02Z</time>
      </trkpt>
      <trkpt lat="43.47538" lon="5.52734">
        <ele>194.9</ele>
        <time>2016-01-23T15:52:03Z</time>
      </trkpt>
      <trkpt lat="43.47536" lon="5.52704">
        <ele>195.3</ele>
        <time>2016-01-23T15:52:04Z</time>
      </trkpt>
      <trkpt lat="43.47535" lon="5.52674">
        <ele>194.8</ele>
        <time>2016-01-23T15:52:05Z</time>
      </trkpt>
      <trkpt lat="43.47534" lon="5.52644">
        <ele>194.6</ele>
        <time>2016-01-23T15:52:06Z</time>
      </trkpt>
      <trkpt lat="43.47533" lon="5.52613">
        <ele>194.6</ele>
        <time>2016-01-23T15:52:07Z</time>
      </trkpt>
      <trkpt lat="43.47533" lon="5.52582">
        <ele>194.6</ele>
        <time>2016-01-23T15:52:08Z</time>
      </trkpt>
      <trkpt lat="43.47533" lon="5.52551">
        <ele>193.8</ele>
        <time>2016-01-23T15:52:09Z</time>
      </trkpt>
      <trkpt lat="43.47533" lon="5.52519">
        <ele>193.8</ele>
        <time>2016-01-23T15:52:10Z</time>
      </trkpt>
      <trkpt lat="43.47534" lon="5.52486">
        <ele>193.7</ele>
        <time>2016-01-23T15:52:11Z</time>
      </trkpt>
      <trkpt lat="43.47535" lon="5.52454">
        <ele>193.5</ele>
        <time>2016-01-23T15:52:12Z</time>
      </trkpt>
      <trkpt lat="43.47536" lon="5.52421">
        <ele>193.4</ele>
        <time>2016-01-23T15:52:13Z</time>
      </trkpt>
      <trkpt lat="43.47536" lon="5.52387">
        <ele>194.1</ele>
        <time>2016-01-23T15:52:14Z</time>
      </trkpt>
      <trkpt lat="43.47537" lon="5.52354">
        <ele>194.1</ele>
        <time>2016-01-23T15:52:15Z</time>
      </trkpt>
      <trkpt lat="43.47538" lon="5.52319">
        <ele>194.5</ele>
        <time>2016-01-23T15:52:16Z</time>
      </trkpt>
      <trkpt lat="43.47539" lon="5.52285">
        <ele>194.9</ele>
        <time>2016-01-23T15:52:17Z</time>
      </trkpt>
      <trkpt lat="43.47539" lon="5.52249">
        <ele>195.2</ele>
        <time>2016-01-23T15:52:18Z</time>
      </trkpt>
      <trkpt lat="43.4754" lon="5.52213">
        <ele>195.3</ele>
        <time>2016-01-23T15:52:19Z</time>
      </trkpt>
      <trkpt lat="43.47541" lon="5.52178">
        <ele>195.9</ele>
        <time>2016-01-23T15:52:20Z</time>
      </trkpt>
      <trkpt lat="43.47541" lon="5.52143">
        <ele>196</ele>
        <time>2016-01-23T15:52:21Z</time>
      </trkpt>
      <trkpt lat="43.47541" lon="5.52109">
        <ele>196.6</ele>
        <time>2016-01-23T15:52:22Z</time>
      </trkpt>
      <trkpt lat="43.47539" lon="5.52076">
        <ele>197.2</ele>
        <time>2016-01-23T15:52:23Z</time>
      </trkpt>
      <trkpt lat="43.47537" lon="5.52044">
        <ele>197.8</ele>
        <time>2016-01-23T15:52:24Z</time>
      </trkpt>
      <trkpt lat="43.47532" lon="5.52012">
        <ele>198.8</ele>
        <time>2016-01-23T15:52:25Z</time>
      </trkpt>
      <trkpt lat="43.47527" lon="5.51981">
        <ele>199</ele>
        <time>2016-01-23T15:52:26Z</time>
      </trkpt>
      <trkpt lat="43.4752" lon="5.5195">
        <ele>198.4</ele>
        <time>2016-01-23T15:52:27Z</time>
      </trkpt>
      <trkpt lat="43.47512" lon="5.5192">
        <ele>199.1</ele>
        <time>2016-01-23T15:52:28Z</time>
      </trkpt>
      <trkpt lat="43.47504" lon="5.51891">
        <ele>199.7</ele>
        <time>2016-01-23T15:52:29Z</time>
      </trkpt>
      <trkpt lat="43.47495" lon="5.51862">
        <ele>199.2</ele>
        <time>2016-01-23T15:52:30Z</time>
      </trkpt>
      <trkpt lat="43.47486" lon="5.51834">
        <ele>200</ele>
        <time>2016-01-23T15:52:31Z</time>
      </trkpt>
      <trkpt lat="43.47477" lon="5.51807">
        <ele>200.6</ele>
        <time>2016-01-23T15:52:32Z</time>
      </trkpt>
      <trkpt lat="43.47469" lon="5.51781">
        <ele>200.2</ele>
        <time>2016-01-23T15:52:33Z</time>
      </trkpt>
      <trkpt lat="43.47461" lon="5.51756">
        <ele>200.7</ele>
        <time>2016-01-23T15:52:34Z</time>
      </trkpt>
      <trkpt lat="43.47454" lon="5.51733">
        <ele>201.5</ele>
        <time>2016-01-23T15:52:35Z</time>
      </trkpt>
      <trkpt lat="43.47447" lon="5.51712">
        <ele>202.8</ele>
        <time>2016-01-23T15:52:36Z</time>
      </trkpt>
      <trkpt lat="43.47441" lon="5.51693">
        <ele>203.6</ele>
        <time>2016-01-23T15:52:37Z</time>
      </trkpt>
      <trkpt lat="43.47437" lon="5.51674">
        <ele>202.6</ele>
        <time>2016-01-23T15:52:38Z</time>
      </trkpt>
      <trkpt lat="43.47436" lon="5.51657">
        <ele>202.3</ele>
        <time>2016-01-23T15:52:39Z</time>
      </trkpt>
      <trkpt lat="43.47437" lon="5.5164">
        <ele>202.3</ele>
        <time>2016-01-23T15:52:40Z</time>
      </trkpt>
      <trkpt lat="43.47441" lon="5.51625">
        <ele>202.1</ele>
        <time>2016-01-23T15:52:41Z</time>
      </trkpt>
      <trkpt lat="43.47449" lon="5.51614">
        <ele>202</ele>
        <time>2016-01-23T15:52:42Z</time>
      </trkpt>
      <trkpt lat="43.4746" lon="5.51607">
        <ele>201.8</ele>
        <time>2016-01-23T15:52:43Z</time>
      </trkpt>
      <trkpt lat="43.47471" lon="5.51602">
        <ele>201.7</ele>
        <time>2016-01-23T15:52:44Z</time>
      </trkpt>
      <trkpt lat="43.47482" lon="5.51598">
        <ele>201.5</ele>
        <time>2016-01-23T15:52:45Z</time>
      </trkpt>
      <trkpt lat="43.47492" lon="5.51596">
        <ele>201.5</ele>
        <time>2016-01-23T15:52:46Z</time>
      </trkpt>
      <trkpt lat="43.47501" lon="5.516">
        <ele>201.6</ele>
        <time>2016-01-23T15:52:47Z</time>
      </trkpt>
      <trkpt lat="43.47507" lon="5.51607">
        <ele>201.6</ele>
        <time>2016-01-23T15:52:48Z</time>
      </trkpt>
      <trkpt lat="43.47512" lon="5.51619">
        <ele>201.2</ele>
        <time>2016-01-23T15:52:49Z</time>
      </trkpt>
      <trkpt lat="43.47516" lon="5.51633">
        <ele>200.8</ele>
        <time>2016-01-23T15:52:50Z</time>
      </trkpt>
      <trkpt lat="43.47516" lon="5.51649">
        <ele>200.6</ele>
        <time>2016-01-23T15:52:51Z</time>
      </trkpt>
      <trkpt lat="43.4751" lon="5.51666">
        <ele>200.4</ele>
        <time>2016-01-23T15:52:52Z</time>
      </trkpt>
      <trkpt lat="43.47501" lon="5.51679">
        <ele>202.1</ele>
        <time>2016-01-23T15:52:53Z</time>
      </trkpt>
      <trkpt lat="43.47488" lon="5.51686">
        <ele>204</ele>
        <time>2016-01-23T15:52:54Z</time>
      </trkpt>
      <trkpt lat="43.47473" lon="5.5169">
        <ele>205.7</ele>
        <time>2016-01-23T15:52:55Z</time>
      </trkpt>
      <trkpt lat="43.47458" lon="5.51693">
        <ele>205.3</ele>
        <time>2016-01-23T15:52:56Z</time>
      </trkpt>
      <trkpt lat="43.47442" lon="5.51696">
        <ele>203.7</ele>
        <time>2016-01-23T15:52:57Z</time>
      </trkpt>
      <trkpt lat="43.47426" lon="5.51698">
        <ele>202.6</ele>
        <time>2016-01-23T15:52:58Z</time>
      </trkpt>
      <trkpt lat="43.4741" lon="5.517">
        <ele>203</ele>
        <time>2016-01-23T15:52:59Z</time>
      </trkpt>
      <trkpt lat="43.47394" lon="5.51701">
        <ele>205.5</ele>
        <time>2016-01-23T15:53:00Z</time>
      </trkpt>
      <trkpt lat="43.47379" lon="5.517">
        <ele>205.6</ele>
        <time>2016-01-23T15:53:01Z</time>
      </trkpt>
      <trkpt lat="43.47367" lon="5.51695">
        <ele>205.2</ele>
        <time>2016-01-23T15:53:02Z</time>
      </trkpt>
      <trkpt lat="43.47358" lon="5.51684">
        <ele>204.8</ele>
        <time>2016-01-23T15:53:03Z</time>
      </trkpt>
      <trkpt lat="43.4735" lon="5.51668">
        <ele>204.2</ele>
        <time>2016-01-23T15:53:04Z</time>
      </trkpt>
      <trkpt lat="43.47344" lon="5.51638">
        <ele>203.8</ele>
        <time>2016-01-23T15:53:05Z</time>
      </trkpt>
      <trkpt lat="43.47339" lon="5.51614">
        <ele>203.9</ele>
        <time>2016-01-23T15:53:06Z</time>
      </trkpt>
      <trkpt lat="43.47334" lon="5.51592">
        <ele>204</ele>
        <time>2016-01-23T15:53:07Z</time>
      </trkpt>
      <trkpt lat="43.4733" lon="5.51573">
        <ele>204.2</ele>
        <time>2016-01-23T15:53:08Z</time>
      </trkpt>
      <trkpt lat="43.47328" lon="5.51557">
        <ele>204.8</ele>
        <time>2016-01-23T15:53:09Z</time>
      </trkpt>
      <trkpt lat="43.4733" lon="5.51543">
        <ele>204.9</ele>
        <time>2016-01-23T15:53:10Z</time>
      </trkpt>
      <trkpt lat="43.47334" lon="5.51531">
        <ele>205</ele>
        <time>2016-01-23T15:53:11Z</time>
      </trkpt>
      <trkpt lat="43.47337" lon="5.51519">
        <ele>205.3</ele>
        <time>2016-01-23T15:53:12Z</time>
      </trkpt>
      <trkpt lat="43.47339" lon="5.51507">
        <ele>205.6</ele>
        <time>2016-01-23T15:53:13Z</time>
      </trkpt>
      <trkpt lat="43.47338" lon="5.51497">
        <ele>205.9</ele>
        <time>2016-01-23T15:53:14Z</time>
      </trkpt>
      <trkpt lat="43.47328" lon="5.51493">
        <ele>206.1</ele>
        <time>2016-01-23T15:53:15Z</time>
      </trkpt>
      <trkpt lat="43.47319" lon="5.51489">
        <ele>206.2</ele>
        <time>2016-01-23T15:53:16Z</time>
      </trkpt>
      <trkpt lat="43.47311" lon="5.51483">
        <ele>206.5</ele>
        <time>2016-01-23T15:53:17Z</time>
      </trkpt>
      <trkpt lat="43.47303" lon="5.51475">
        <ele>207</ele>
        <time>2016-01-23T15:53:18Z</time>
      </trkpt>
      <trkpt lat="43.47297" lon="5.51462">
        <ele>207.7</ele>
        <time>2016-01-23T15:53:19Z</time>
      </trkpt>
      <trkpt lat="43.4729" lon="5.51445">
        <ele>208.5</ele>
        <time>2016-01-23T15:53:20Z</time>
      </trkpt>
      <trkpt lat="43.47284" lon="5.51427">
        <ele>208.4</ele>
        <time>2016-01-23T15:53:21Z</time>
      </trkpt>
      <trkpt lat="43.47278" lon="5.51408">
        <ele>208.3</ele>
        <time>2016-01-23T15:53:22Z</time>
      </trkpt>
      <trkpt lat="43.47272" lon="5.51387">
        <ele>209.1</ele>
        <time>2016-01-23T15:53:23Z</time>
      </trkpt>
      <trkpt lat="43.47266" lon="5.51365">
        <ele>209.9</ele>
        <time>2016-01-23T15:53:24Z</time>
      </trkpt>
      <trkpt lat="43.47259" lon="5.51342">
        <ele>210.9</ele>
        <time>2016-01-23T15:53:25Z</time>
      </trkpt>
      <trkpt lat="43.47254" lon="5.51319">
        <ele>211.2</ele>
        <time>2016-01-23T15:53:26Z</time>
      </trkpt>
      <trkpt lat="43.47248" lon="5.51295">
        <ele>211.3</ele>
        <time>2016-01-23T15:53:27Z</time>
      </trkpt>
      <trkpt lat="43.47243" lon="5.5127">
        <ele>211.6</ele>
        <time>2016-01-23T15:53:28Z</time>
      </trkpt>
      <trkpt lat="43.47238" lon="5.51245">
        <ele>212.1</ele>
        <time>2016-01-23T15:53:29Z</time>
      </trkpt>
      <trkpt lat="43.47234" lon="5.5122">
        <ele>212.6</ele>
        <time>2016-01-23T15:53:30Z</time>
      </trkpt>
      <trkpt lat="43.47229" lon="5.51194">
        <ele>212.5</ele>
        <time>2016-01-23T15:53:31Z</time>
      </trkpt>
      <trkpt lat="43.47224" lon="5.51168">
        <ele>212.2</ele>
        <time>2016-01-23T15:53:32Z</time>
      </trkpt>
      <trkpt lat="43.47219" lon="5.51141">
        <ele>211.9</ele>
        <time>2016-01-23T15:53:33Z</time>
      </trkpt>
      <trkpt lat="43.47214" lon="5.51114">
        <ele>211.7</ele>
        <time>2016-01-23T15:53:34Z</time>
      </trkpt>
      <trkpt lat="43.47209" lon="5.51087">
        <ele>212.4</ele>
        <time>2016-01-23T15:53:35Z</time>
      </trkpt>
      <trkpt lat="43.47204" lon="5.5106">
        <ele>212.9</ele>
        <time>2016-01-23T15:53:36Z</time>
      </trkpt>
      <trkpt lat="43.47199" lon="5.51033">
        <ele>213.7</ele>
        <time>2016-01-23T15:53:37Z</time>
      </trkpt>
      <trkpt lat="43.47194" lon="5.51005">
        <ele>214</ele>
        <time>2016-01-23T15:53:38Z</time>
      </trkpt>
      <trkpt lat="43.47189" lon="5.50977">
        <ele>214</ele>
        <time>2016-01-23T15:53:39Z</time>
      </trkpt>
      <trkpt lat="43.47184" lon="5.5095">
        <ele>214.8</ele>
        <time>2016-01-23T15:53:40Z</time>
      </trkpt>
      <trkpt lat="43.47179" lon="5.50922">
        <ele>215.5</ele>
        <time>2016-01-23T15:53:41Z</time>
      </trkpt>
      <trkpt lat="43.47174" lon="5.50894">
        <ele>216.8</ele>
        <time>2016-01-23T15:53:42Z</time>
      </trkpt>
      <trkpt lat="43.47169" lon="5.50866">
        <ele>217.8</ele>
        <time>2016-01-23T15:53:43Z</time>
      </trkpt>
      <trkpt lat="43.47164" lon="5.50838">
        <ele>220</ele>
        <time>2016-01-23T15:53:44Z</time>
      </trkpt>
      <trkpt lat="43.47159" lon="5.5081">
        <ele>222.5</ele>
        <time>2016-01-23T15:53:45Z</time>
      </trkpt>
      <trkpt lat="43.47154" lon="5.50782">
        <ele>223.8</ele>
        <time>2016-01-23T15:53:46Z</time>
      </trkpt>
      <trkpt lat="43.47149" lon="5.50755">
        <ele>224.1</ele>
        <time>2016-01-23T15:53:47Z</time>
      </trkpt>
      <trkpt lat="43.47143" lon="5.50727">
        <ele>224.1</ele>
        <time>2016-01-23T15:53:48Z</time>
      </trkpt>
      <trkpt lat="43.47138" lon="5.507">
        <ele>224.8</ele>
        <time>2016-01-23T15:53:49Z</time>
      </trkpt>
      <trkpt lat="43.47133" lon="5.50673">
        <ele>225</ele>
        <time>2016-01-23T15:53:50Z</time>
      </trkpt>
      <trkpt lat="43.47128" lon="5.50645">
        <ele>224.5</ele>
        <time>2016-01-23T15:53:51Z</time>
      </trkpt>
      <trkpt lat="43.47123" lon="5.50619">
        <ele>224.6</ele>
        <time>2016-01-23T15:53:52Z</time>
      </trkpt>
      <trkpt lat="43.47117" lon="5.50592">
        <ele>224.8</ele>
        <time>2016-01-23T15:53:53Z</time>
      </trkpt>
      <trkpt lat="43.47111" lon="5.50566">
        <ele>225</ele>
        <time>2016-01-23T15:53:54Z</time>
      </trkpt>
      <trkpt lat="43.47104" lon="5.5054">
        <ele>224.2</ele>
        <time>2016-01-23T15:53:55Z</time>
      </trkpt>
      <trkpt lat="43.47096" lon="5.50513">
        <ele>224.3</ele>
        <time>2016-01-23T15:53:56Z</time>
      </trkpt>
      <trkpt lat="43.47089" lon="5.50487">
        <ele>224.4</ele>
        <time>2016-01-23T15:53:57Z</time>
      </trkpt>
      <trkpt lat="43.47081" lon="5.50462">
        <ele>224.1</ele>
        <time>2016-01-23T15:53:58Z</time>
      </trkpt>
      <trkpt lat="43.47074" lon="5.50437">
        <ele>224.4</ele>
        <time>2016-01-23T15:53:59Z</time>
      </trkpt>
      <trkpt lat="43.47066" lon="5.50412">
        <ele>224.4</ele>
        <time>2016-01-23T15:54:00Z</time>
      </trkpt>
      <trkpt lat="43.47058" lon="5.50386">
        <ele>223.9</ele>
        <time>2016-01-23T15:54:01Z</time>
      </trkpt>
      <trkpt lat="43.4705" lon="5.50359">
        <ele>224.1</ele>
        <time>2016-01-23T15:54:02Z</time>
      </trkpt>
      <trkpt lat="43.47042" lon="5.50333">
        <ele>223.5</ele>
        <time>2016-01-23T15:54:03Z</time>
      </trkpt>
      <trkpt lat="43.47034" lon="5.50307">
        <ele>222.8</ele>
        <time>2016-01-23T15:54:04Z</time>
      </trkpt>
      <trkpt lat="43.47026" lon="5.50281">
        <ele>222.2</ele>
        <time>2016-01-23T15:54:05Z</time>
      </trkpt>
      <trkpt lat="43.47018" lon="5.50255">
        <ele>221.8</ele>
        <time>2016-01-23T15:54:06Z</time>
      </trkpt>
      <trkpt lat="43.47011" lon="5.50229">
        <ele>221.8</ele>
        <time>2016-01-23T15:54:07Z</time>
      </trkpt>
      <trkpt lat="43.47003" lon="5.50203">
        <ele>221.8</ele>
        <time>2016-01-23T15:54:08Z</time>
      </trkpt>
      <trkpt lat="43.46995" lon="5.50177">
        <ele>221.5</ele>
        <time>2016-01-23T15:54:09Z</time>
      </trkpt>
      <trkpt lat="43.46986" lon="5.5015">
        <ele>221.2</ele>
        <time>2016-01-23T15:54:10Z</time>
      </trkpt>
      <trkpt lat="43.46978" lon="5.50123">
        <ele>221</ele>
        <time>2016-01-23T15:54:11Z</time>
      </trkpt>
      <trkpt lat="43.4697" lon="5.50097">
        <ele>220.6</ele>
        <time>2016-01-23T15:54:12Z</time>
      </trkpt>
      <trkpt lat="43.46962" lon="5.5007">
        <ele>220.2</ele>
        <time>2016-01-23T15:54:13Z</time>
      </trkpt>
      <trkpt lat="43.46954" lon="5.50043">
        <ele>220.3</ele>
        <time>2016-01-23T15:54:14Z</time>
      </trkpt>
      <trkpt lat="43.46946" lon="5.50017">
        <ele>220.9</ele>
        <time>2016-01-23T15:54:15Z</time>
      </trkpt>
      <trkpt lat="43.46938" lon="5.49991">
        <ele>221</ele>
        <time>2016-01-23T15:54:16Z</time>
      </trkpt>
      <trkpt lat="43.46931" lon="5.49965">
        <ele>221.1</ele>
        <time>2016-01-23T15:54:17Z</time>
      </trkpt>
      <trkpt lat="43.46923" lon="5.49939">
        <ele>221.6</ele>
        <time>2016-01-23T15:54:18Z</time>
      </trkpt>
      <trkpt lat="43.46916" lon="5.49915">
        <ele>221</ele>
        <time>2016-01-23T15:54:19Z</time>
      </trkpt>
      <trkpt lat="43.46909" lon="5.49891">
        <ele>221.3</ele>
        <time>2016-01-23T15:54:20Z</time>
      </trkpt>
      <trkpt lat="43.46901" lon="5.49868">
        <ele>221.6</ele>
        <time>2016-01-23T15:54:21Z</time>
      </trkpt>
      <trkpt lat="43.46895" lon="5.49845">
        <ele>221.2</ele>
        <time>2016-01-23T15:54:22Z</time>
      </trkpt>
      <trkpt lat="43.46888" lon="5.49825">
        <ele>221</ele>
        <time>2016-01-23T15:54:23Z</time>
      </trkpt>
      <trkpt lat="43.46882" lon="5.49805">
        <ele>221.2</ele>
        <time>2016-01-23T15:54:24Z</time>
      </trkpt>
      <trkpt lat="43.46877" lon="5.49788">
        <ele>221.1</ele>
        <time>2016-01-23T15:54:25Z</time>
      </trkpt>
      <trkpt lat="43.46872" lon="5.49771">
        <ele>221.2</ele>
        <time>2016-01-23T15:54:26Z</time>
      </trkpt>
      <trkpt lat="43.4687" lon="5.49758">
        <ele>221.4</ele>
        <time>2016-01-23T15:54:27Z</time>
      </trkpt>
      <trkpt lat="43.46868" lon="5.49745">
        <ele>221.7</ele>
        <time>2016-01-23T15:54:28Z</time>
      </trkpt>
      <trkpt lat="43.46868" lon="5.49732">
        <ele>222.2</ele>
        <time>2016-01-23T15:54:29Z</time>
      </trkpt>
      <trkpt lat="43.46867" lon="5.49718">
        <ele>222.4</ele>
        <time>2016-01-23T15:54:30Z</time>
      </trkpt>
      <trkpt lat="43.46865" lon="5.49705">
        <ele>222.1</ele>
        <time>2016-01-23T15:54:31Z</time>
      </trkpt>
      <trkpt lat="43.46861" lon="5.49693">
        <ele>222</ele>
        <time>2016-01-23T15:54:32Z</time>
      </trkpt>
      <trkpt lat="43.46855" lon="5.49682">
        <ele>222.2</ele>
        <time>2016-01-23T15:54:33Z</time>
      </trkpt>
      <trkpt lat="43.46849" lon="5.49667">
        <ele>222.4</ele>
        <time>2016-01-23T15:54:34Z</time>
      </trkpt>
      <trkpt lat="43.46843" lon="5.4965">
        <ele>222.1</ele>
        <time>2016-01-23T15:54:35Z</time>
      </trkpt>
      <trkpt lat="43.46837" lon="5.49631">
        <ele>221.9</ele>
        <time>2016-01-23T15:54:36Z</time>
      </trkpt>
      <trkpt lat="43.46831" lon="5.49612">
        <ele>222.2</ele>
        <time>2016-01-23T15:54:37Z</time>
      </trkpt>
      <trkpt lat="43.46824" lon="5.49591">
        <ele>222.7</ele>
        <time>2016-01-23T15:54:38Z</time>
      </trkpt>
      <trkpt lat="43.46817" lon="5.4957">
        <ele>222.4</ele>
        <time>2016-01-23T15:54:39Z</time>
      </trkpt>
      <trkpt lat="43.4681" lon="5.49547">
        <ele>221.6</ele>
        <time>2016-01-23T15:54:40Z</time>
      </trkpt>
      <trkpt lat="43.46803" lon="5.49525">
        <ele>221.2</ele>
        <time>2016-01-23T15:54:41Z</time>
      </trkpt>
      <trkpt lat="43.46796" lon="5.49502">
        <ele>221.4</ele>
        <time>2016-01-23T15:54:42Z</time>
      </trkpt>
      <trkpt lat="43.46789" lon="5.49478">
        <ele>220.8</ele>
        <time>2016-01-23T15:54:43Z</time>
      </trkpt>
      <trkpt lat="43.46782" lon="5.49454">
        <ele>220.2</ele>
        <time>2016-01-23T15:54:44Z</time>
      </trkpt>
      <trkpt lat="43.46774" lon="5.49429">
        <ele>219.9</ele>
        <time>2016-01-23T15:54:45Z</time>
      </trkpt>
      <trkpt lat="43.46767" lon="5.49405">
        <ele>219.5</ele>
        <time>2016-01-23T15:54:46Z</time>
      </trkpt>
      <trkpt lat="43.4676" lon="5.4938">
        <ele>219.5</ele>
        <time>2016-01-23T15:54:47Z</time>
      </trkpt>
      <trkpt lat="43.46752" lon="5.49354">
        <ele>219.6</ele>
        <time>2016-01-23T15:54:48Z</time>
      </trkpt>
      <trkpt lat="43.46744" lon="5.49329">
        <ele>219.3</ele>
        <time>2016-01-23T15:54:49Z</time>
      </trkpt>
      <trkpt lat="43.46736" lon="5.49303">
        <ele>218.9</ele>
        <time>2016-01-23T15:54:50Z</time>
      </trkpt>
      <trkpt lat="43.46727" lon="5.49278">
        <ele>218.7</ele>
        <time>2016-01-23T15:54:51Z</time>
      </trkpt>
      <trkpt lat="43.46717" lon="5.49254">
        <ele>218.5</ele>
        <time>2016-01-23T15:54:52Z</time>
      </trkpt>
      <trkpt lat="43.46708" lon="5.4923">
        <ele>218.3</ele>
        <time>2016-01-23T15:54:53Z</time>
      </trkpt>
      <trkpt lat="43.46698" lon="5.49207">
        <ele>217.8</ele>
        <time>2016-01-23T15:54:54Z</time>
      </trkpt>
      <trkpt lat="43.46688" lon="5.49184">
        <ele>217.6</ele>
        <time>2016-01-23T15:54:55Z</time>
      </trkpt>
      <trkpt lat="43.46679" lon="5.49162">
        <ele>217.5</ele>
        <time>2016-01-23T15:54:56Z</time>
      </trkpt>
      <trkpt lat="43.46669" lon="5.49139">
        <ele>216.9</ele>
        <time>2016-01-23T15:54:57Z</time>
      </trkpt>
      <trkpt lat="43.46659" lon="5.49117">
        <ele>217.3</ele>
        <time>2016-01-23T15:54:58Z</time>
      </trkpt>
      <trkpt lat="43.4665" lon="5.49095">
        <ele>217</ele>
        <time>2016-01-23T15:54:59Z</time>
      </trkpt>
      <trkpt lat="43.46641" lon="5.49073">
        <ele>216</ele>
        <time>2016-01-23T15:55:00Z</time>
      </trkpt>
      <trkpt lat="43.46632" lon="5.49052">
        <ele>216.4</ele>
        <time>2016-01-23T15:55:01Z</time>
      </trkpt>
      <trkpt lat="43.46623" lon="5.49032">
        <ele>215.8</ele>
        <time>2016-01-23T15:55:02Z</time>
      </trkpt>
      <trkpt lat="43.46615" lon="5.49013">
        <ele>215.8</ele>
        <time>2016-01-23T15:55:03Z</time>
      </trkpt>
      <trkpt lat="43.46608" lon="5.48994">
        <ele>216</ele>
        <time>2016-01-23T15:55:04Z</time>
      </trkpt>
      <trkpt lat="43.46602" lon="5.48978">
        <ele>215.3</ele>
        <time>2016-01-23T15:55:05Z</time>
      </trkpt>
      <trkpt lat="43.46595" lon="5.48962">
        <ele>215</ele>
        <time>2016-01-23T15:55:06Z</time>
      </trkpt>
      <trkpt lat="43.4659" lon="5.48947">
        <ele>215</ele>
        <time>2016-01-23T15:55:07Z</time>
      </trkpt>
      <trkpt lat="43.46586" lon="5.48932">
        <ele>215</ele>
        <time>2016-01-23T15:55:08Z</time>
      </trkpt>
      <trkpt lat="43.46583" lon="5.48918">
        <ele>215</ele>
        <time>2016-01-23T15:55:09Z</time>
      </trkpt>
      <trkpt lat="43.46579" lon="5.48906">
        <ele>214.5</ele>
        <time>2016-01-23T15:55:10Z</time>
      </trkpt>
      <trkpt lat="43.46574" lon="5.48895">
        <ele>214.2</ele>
        <time>2016-01-23T15:55:11Z</time>
      </trkpt>
      <trkpt lat="43.46568" lon="5.48885">
        <ele>213.9</ele>
        <time>2016-01-23T15:55:12Z</time>
      </trkpt>
      <trkpt lat="43.4656" lon="5.48873">
        <ele>213.8</ele>
        <time>2016-01-23T15:55:13Z</time>
      </trkpt>
      <trkpt lat="43.46552" lon="5.4886">
        <ele>213.8</ele>
        <time>2016-01-23T15:55:14Z</time>
      </trkpt>
      <trkpt lat="43.46544" lon="5.48844">
        <ele>213.2</ele>
        <time>2016-01-23T15:55:15Z</time>
      </trkpt>
      <trkpt lat="43.46537" lon="5.48828">
        <ele>213</ele>
        <time>2016-01-23T15:55:16Z</time>
      </trkpt>
      <trkpt lat="43.46529" lon="5.48811">
        <ele>213</ele>
        <time>2016-01-23T15:55:17Z</time>
      </trkpt>
      <trkpt lat="43.46521" lon="5.48793">
        <ele>212.9</ele>
        <time>2016-01-23T15:55:18Z</time>
      </trkpt>
      <trkpt lat="43.46513" lon="5.48776">
        <ele>212.5</ele>
        <time>2016-01-23T15:55:19Z</time>
      </trkpt>
      <trkpt lat="43.46505" lon="5.48758">
        <ele>212.2</ele>
        <time>2016-01-23T15:55:20Z</time>
      </trkpt>
      <trkpt lat="43.46498" lon="5.48741">
        <ele>212</ele>
        <time>2016-01-23T15:55:21Z</time>
      </trkpt>
      <trkpt lat="43.46491" lon="5.48723">
        <ele>212</ele>
        <time>2016-01-23T15:55:22Z</time>
      </trkpt>
      <trkpt lat="43.46483" lon="5.48706">
        <ele>212</ele>
        <time>2016-01-23T15:55:23Z</time>
      </trkpt>
      <trkpt lat="43.46475" lon="5.48689">
        <ele>212</ele>
        <time>2016-01-23T15:55:24Z</time>
      </trkpt>
      <trkpt lat="43.46468" lon="5.48673">
        <ele>212</ele>
        <time>2016-01-23T15:55:25Z</time>
      </trkpt>
      <trkpt lat="43.46461" lon="5.48657">
        <ele>211.8</ele>
        <time>2016-01-23T15:55:26Z</time>
      </trkpt>
      <trkpt lat="43.46455" lon="5.48641">
        <ele>211.7</ele>
        <time>2016-01-23T15:55:27Z</time>
      </trkpt>
      <trkpt lat="43.46449" lon="5.48627">
        <ele>211.9</ele>
        <time>2016-01-23T15:55:28Z</time>
      </trkpt>
      <trkpt lat="43.46444" lon="5.48615">
        <ele>212</ele>
        <time>2016-01-23T15:55:29Z</time>
      </trkpt>
      <trkpt lat="43.4644" lon="5.48605">
        <ele>212.2</ele>
        <time>2016-01-23T15:55:30Z</time>
      </trkpt>
      <trkpt lat="43.46438" lon="5.48598">
        <ele>212.4</ele>
        <time>2016-01-23T15:55:31Z</time>
      </trkpt>
      <trkpt lat="43.46437" lon="5.48593">
        <ele>212.4</ele>
        <time>2016-01-23T15:55:32Z</time>
      </trkpt>
      <trkpt lat="43.46437" lon="5.48589">
        <ele>212.5</ele>
        <time>2016-01-23T15:55:33Z</time>
      </trkpt>
      <trkpt lat="43.46437" lon="5.48585">
        <ele>212.5</ele>
        <time>2016-01-23T15:55:34Z</time>
      </trkpt>
      <trkpt lat="43.46436" lon="5.48581">
        <ele>212.6</ele>
        <time>2016-01-23T15:55:35Z</time>
      </trkpt>
      <trkpt lat="43.46436" lon="5.48576">
        <ele>212.5</ele>
        <time>2016-01-23T15:55:36Z</time>
      </trkpt>
      <trkpt lat="43.46436" lon="5.48569">
        <ele>212.4</ele>
        <time>2016-01-23T15:55:37Z</time>
      </trkpt>
      <trkpt lat="43.46435" lon="5.48561">
        <ele>212.4</ele>
        <time>2016-01-23T15:55:38Z</time>
      </trkpt>
      <trkpt lat="43.46433" lon="5.48553">
        <ele>212.4</ele>
        <time>2016-01-23T15:55:39Z</time>
      </trkpt>
      <trkpt lat="43.46427" lon="5.48548">
        <ele>212.6</ele>
        <time>2016-01-23T15:55:40Z</time>
      </trkpt>
      <trkpt lat="43.46421" lon="5.48545">
        <ele>212.8</ele>
        <time>2016-01-23T15:55:41Z</time>
      </trkpt>
      <trkpt lat="43.46414" lon="5.48548">
        <ele>213</ele>
        <time>2016-01-23T15:55:42Z</time>
      </trkpt>
      <trkpt lat="43.46407" lon="5.48555">
        <ele>213</ele>
        <time>2016-01-23T15:55:43Z</time>
      </trkpt>
      <trkpt lat="43.46401" lon="5.48566">
        <ele>213.2</ele>
        <time>2016-01-23T15:55:44Z</time>
      </trkpt>
      <trkpt lat="43.46394" lon="5.48579">
        <ele>213.1</ele>
        <time>2016-01-23T15:55:45Z</time>
      </trkpt>
      <trkpt lat="43.46386" lon="5.48593">
        <ele>213</ele>
        <time>2016-01-23T15:55:46Z</time>
      </trkpt>
      <trkpt lat="43.46377" lon="5.48607">
        <ele>213</ele>
        <time>2016-01-23T15:55:47Z</time>
      </trkpt>
      <trkpt lat="43.46367" lon="5.48621">
        <ele>212.9</ele>
        <time>2016-01-23T15:55:48Z</time>
      </trkpt>
      <trkpt lat="43.46355" lon="5.48634">
        <ele>213.2</ele>
        <time>2016-01-23T15:55:49Z</time>
      </trkpt>
      <trkpt lat="43.46344" lon="5.48647">
        <ele>213.6</ele>
        <time>2016-01-23T15:55:50Z</time>
      </trkpt>
      <trkpt lat="43.46332" lon="5.48661">
        <ele>214.1</ele>
        <time>2016-01-23T15:55:51Z</time>
      </trkpt>
      <trkpt lat="43.46319" lon="5.48676">
        <ele>214.2</ele>
        <time>2016-01-23T15:55:52Z</time>
      </trkpt>
      <trkpt lat="43.46306" lon="5.48692">
        <ele>214.1</ele>
        <time>2016-01-23T15:55:53Z</time>
      </trkpt>
      <trkpt lat="43.46291" lon="5.48708">
        <ele>214.8</ele>
        <time>2016-01-23T15:55:54Z</time>
      </trkpt>
      <trkpt lat="43.46277" lon="5.48725">
        <ele>215</ele>
        <time>2016-01-23T15:55:55Z</time>
      </trkpt>
      <trkpt lat="43.46261" lon="5.48742">
        <ele>215.6</ele>
        <time>2016-01-23T15:55:56Z</time>
      </trkpt>
      <trkpt lat="43.46245" lon="5.48759">
        <ele>216.7</ele>
        <time>2016-01-23T15:55:57Z</time>
      </trkpt>
      <trkpt lat="43.46228" lon="5.48774">
        <ele>218.5</ele>
        <time>2016-01-23T15:55:58Z</time>
      </trkpt>
      <trkpt lat="43.46211" lon="5.48789">
        <ele>219.5</ele>
        <time>2016-01-23T15:55:59Z</time>
      </trkpt>
      <trkpt lat="43.46194" lon="5.48802">
        <ele>220.9</ele>
        <time>2016-01-23T15:56:00Z</time>
      </trkpt>
      <trkpt lat="43.46176" lon="5.48815">
        <ele>221.5</ele>
        <time>2016-01-23T15:56:01Z</time>
      </trkpt>
      <trkpt lat="43.46158" lon="5.48827">
        <ele>222.3</ele>
        <time>2016-01-23T15:56:02Z</time>
      </trkpt>
      <trkpt lat="43.46139" lon="5.48838">
        <ele>223</ele>
        <time>2016-01-23T15:56:03Z</time>
      </trkpt>
      <trkpt lat="43.4612" lon="5.48848">
        <ele>224.3</ele>
        <time>2016-01-23T15:56:04Z</time>
      </trkpt>
      <trkpt lat="43.46102" lon="5.48858">
        <ele>225.7</ele>
        <time>2016-01-23T15:56:05Z</time>
      </trkpt>
      <trkpt lat="43.46083" lon="5.48867">
        <ele>226.8</ele>
        <time>2016-01-23T15:56:06Z</time>
      </trkpt>
      <trkpt lat="43.46065" lon="5.48877">
        <ele>227.5</ele>
        <time>2016-01-23T15:56:07Z</time>
      </trkpt>
      <trkpt lat="43.46047" lon="5.48886">
        <ele>228.6</ele>
        <time>2016-01-23T15:56:08Z</time>
      </trkpt>
      <trkpt lat="43.4603" lon="5.48894">
        <ele>229.9</ele>
        <time>2016-01-23T15:56:09Z</time>
      </trkpt>
      <trkpt lat="43.46013" lon="5.48903">
        <ele>229.7</ele>
        <time>2016-01-23T15:56:10Z</time>
      </trkpt>
      <trkpt lat="43.45997" lon="5.48911">
        <ele>230.6</ele>
        <time>2016-01-23T15:56:11Z</time>
      </trkpt>
      <trkpt lat="43.45983" lon="5.48917">
        <ele>232.2</ele>
        <time>2016-01-23T15:56:12Z</time>
      </trkpt>
      <trkpt lat="43.4597" lon="5.48924">
        <ele>233</ele>
        <time>2016-01-23T15:56:13Z</time>
      </trkpt>
      <trkpt lat="43.45959" lon="5.48929">
        <ele>233.7</ele>
        <time>2016-01-23T15:56:14Z</time>
      </trkpt>
      <trkpt lat="43.4595" lon="5.48933">
        <ele>234.5</ele>
        <time>2016-01-23T15:56:15Z</time>
      </trkpt>
      <trkpt lat="43.45942" lon="5.48935">
        <ele>235.1</ele>
        <time>2016-01-23T15:56:16Z</time>
      </trkpt>
      <trkpt lat="43.4594" lon="5.48933">
        <ele>235.2</ele>
        <time>2016-01-23T15:56:17Z</time>
      </trkpt>
      <trkpt lat="43.45937" lon="5.48928">
        <ele>235.4</ele>
        <time>2016-01-23T15:56:18Z</time>
      </trkpt>
      <trkpt lat="43.45936" lon="5.48919">
        <ele>235.6</ele>
        <time>2016-01-23T15:56:19Z</time>
      </trkpt>
      <trkpt lat="43.45935" lon="5.48908">
        <ele>235.5</ele>
        <time>2016-01-23T15:56:20Z</time>
      </trkpt>
      <trkpt lat="43.45934" lon="5.48896">
        <ele>235.3</ele>
        <time>2016-01-23T15:56:21Z</time>
      </trkpt>
      <trkpt lat="43.45933" lon="5.48882">
        <ele>235.1</ele>
        <time>2016-01-23T15:56:22Z</time>
      </trkpt>
      <trkpt lat="43.45933" lon="5.48868">
        <ele>234.9</ele>
        <time>2016-01-23T15:56:23Z</time>
      </trkpt>
      <trkpt lat="43.45932" lon="5.48855">
        <ele>234.7</ele>
        <time>2016-01-23T15:56:24Z</time>
      </trkpt>
      <trkpt lat="43.4593" lon="5.48842">
        <ele>234.3</ele>
        <time>2016-01-23T15:56:25Z</time>
      </trkpt>
      <trkpt lat="43.45926" lon="5.4883">
        <ele>234.1</ele>
        <time>2016-01-23T15:56:26Z</time>
      </trkpt>
      <trkpt lat="43.45921" lon="5.48818">
        <ele>233.7</ele>
        <time>2016-01-23T15:56:27Z</time>
      </trkpt>
      <trkpt lat="43.45914" lon="5.48806">
        <ele>233.2</ele>
        <time>2016-01-23T15:56:28Z</time>
      </trkpt>
      <trkpt lat="43.45907" lon="5.48794">
        <ele>233.3</ele>
        <time>2016-01-23T15:56:29Z</time>
      </trkpt>
      <trkpt lat="43.45898" lon="5.48782">
        <ele>233.5</ele>
        <time>2016-01-23T15:56:30Z</time>
      </trkpt>
      <trkpt lat="43.45889" lon="5.48769">
        <ele>233.4</ele>
        <time>2016-01-23T15:56:31Z</time>
      </trkpt>
      <trkpt lat="43.4588" lon="5.48756">
        <ele>233</ele>
        <time>2016-01-23T15:56:32Z</time>
      </trkpt>
      <trkpt lat="43.45871" lon="5.48744">
        <ele>233</ele>
        <time>2016-01-23T15:56:33Z</time>
      </trkpt>
      <trkpt lat="43.45863" lon="5.48732">
        <ele>232.7</ele>
        <time>2016-01-23T15:56:34Z</time>
      </trkpt>
      <trkpt lat="43.45855" lon="5.48721">
        <ele>232.5</ele>
        <time>2016-01-23T15:56:35Z</time>
      </trkpt>
      <trkpt lat="43.45846" lon="5.48712">
        <ele>232.7</ele>
        <time>2016-01-23T15:56:36Z</time>
      </trkpt>
      <trkpt lat="43.45838" lon="5.48704">
        <ele>232.6</ele>
        <time>2016-01-23T15:56:37Z</time>
      </trkpt>
      <trkpt lat="43.45829" lon="5.48697">
        <ele>232.4</ele>
        <time>2016-01-23T15:56:38Z</time>
      </trkpt>
      <trkpt lat="43.4582" lon="5.4869">
        <ele>232.9</ele>
        <time>2016-01-23T15:56:39Z</time>
      </trkpt>
      <trkpt lat="43.45811" lon="5.48683">
        <ele>233.3</ele>
        <time>2016-01-23T15:56:40Z</time>
      </trkpt>
      <trkpt lat="43.45801" lon="5.48677">
        <ele>233.5</ele>
        <time>2016-01-23T15:56:41Z</time>
      </trkpt>
      <trkpt lat="43.45791" lon="5.4867">
        <ele>233.6</ele>
        <time>2016-01-23T15:56:42Z</time>
      </trkpt>
      <trkpt lat="43.4578" lon="5.48663">
        <ele>233.8</ele>
        <time>2016-01-23T15:56:43Z</time>
      </trkpt>
      <trkpt lat="43.4577" lon="5.48657">
        <ele>233.9</ele>
        <time>2016-01-23T15:56:44Z</time>
      </trkpt>
      <trkpt lat="43.45761" lon="5.48651">
        <ele>234</ele>
        <time>2016-01-23T15:56:45Z</time>
      </trkpt>
      <trkpt lat="43.45753" lon="5.48645">
        <ele>234.1</ele>
        <time>2016-01-23T15:56:46Z</time>
      </trkpt>
      <trkpt lat="43.45744" lon="5.4864">
        <ele>234.2</ele>
        <time>2016-01-23T15:56:47Z</time>
      </trkpt>
      <trkpt lat="43.45737" lon="5.48635">
        <ele>234.5</ele>
        <time>2016-01-23T15:56:48Z</time>
      </trkpt>
      <trkpt lat="43.45729" lon="5.48631">
        <ele>234.7</ele>
        <time>2016-01-23T15:56:49Z</time>
      </trkpt>
      <trkpt lat="43.45721" lon="5.48627">
        <ele>235.1</ele>
        <time>2016-01-23T15:56:50Z</time>
      </trkpt>
      <trkpt lat="43.45712" lon="5.48623">
        <ele>235.5</ele>
        <time>2016-01-23T15:56:51Z</time>
      </trkpt>
      <trkpt lat="43.45702" lon="5.48618">
        <ele>235.9</ele>
        <time>2016-01-23T15:56:52Z</time>
      </trkpt>
      <trkpt lat="43.45691" lon="5.48614">
        <ele>236.1</ele>
        <time>2016-01-23T15:56:53Z</time>
      </trkpt>
      <trkpt lat="43.45681" lon="5.48609">
        <ele>236</ele>
        <time>2016-01-23T15:56:54Z</time>
      </trkpt>
      <trkpt lat="43.45672" lon="5.48604">
        <ele>236</ele>
        <time>2016-01-23T15:56:55Z</time>
      </trkpt>
      <trkpt lat="43.45662" lon="5.48599">
        <ele>236</ele>
        <time>2016-01-23T15:56:56Z</time>
      </trkpt>
      <trkpt lat="43.45654" lon="5.48593">
        <ele>235.8</ele>
        <time>2016-01-23T15:56:57Z</time>
      </trkpt>
      <trkpt lat="43.45646" lon="5.48585">
        <ele>235.4</ele>
        <time>2016-01-23T15:56:58Z</time>
      </trkpt>
      <trkpt lat="43.45638" lon="5.48578">
        <ele>235</ele>
        <time>2016-01-23T15:56:59Z</time>
      </trkpt>
      <trkpt lat="43.45631" lon="5.48571">
        <ele>234.9</ele>
        <time>2016-01-23T15:57:00Z</time>
      </trkpt>
      <trkpt lat="43.45624" lon="5.48564">
        <ele>234.6</ele>
        <time>2016-01-23T15:57:01Z</time>
      </trkpt>
      <trkpt lat="43.45618" lon="5.48558">
        <ele>234.3</ele>
        <time>2016-01-23T15:57:02Z</time>
      </trkpt>
      <trkpt lat="43.45612" lon="5.48552">
        <ele>233.9</ele>
        <time>2016-01-23T15:57:03Z</time>
      </trkpt>
      <trkpt lat="43.45605" lon="5.48545">
        <ele>233.8</ele>
        <time>2016-01-23T15:57:04Z</time>
      </trkpt>
      <trkpt lat="43.45598" lon="5.48538">
        <ele>233.6</ele>
        <time>2016-01-23T15:57:05Z</time>
      </trkpt>
      <trkpt lat="43.45592" lon="5.48533">
        <ele>233.3</ele>
        <time>2016-01-23T15:57:06Z</time>
      </trkpt>
      <trkpt lat="43.45586" lon="5.48527">
        <ele>233</ele>
        <time>2016-01-23T15:57:07Z</time>
      </trkpt>
      <trkpt lat="43.45582" lon="5.48522">
        <ele>233</ele>
        <time>2016-01-23T15:57:08Z</time>
      </trkpt>
      <trkpt lat="43.4558" lon="5.48519">
        <ele>233</ele>
        <time>2016-01-23T15:57:09Z</time>
      </trkpt>
      <trkpt lat="43.45579" lon="5.48518">
        <ele>233</ele>
        <time>2016-01-23T15:57:10Z</time>
      </trkpt>
      <trkpt lat="43.45578" lon="5.48518">
        <ele>233</ele>
        <time>2016-01-23T15:57:11Z</time>
      </trkpt>
      <trkpt lat="43.45578" lon="5.48518">
        <ele>233</ele>
        <time>2016-01-23T15:57:12Z</time>
      </trkpt>
      <trkpt lat="43.45578" lon="5.48518">
        <ele>233</ele>
        <time>2016-01-23T15:57:13Z</time>
      </trkpt>
      <trkpt lat="43.45577" lon="5.48518">
        <ele>233</ele>
        <time>2016-01-23T15:57:14Z</time>
      </trkpt>
      <trkpt lat="43.45577" lon="5.48518">
        <ele>233</ele>
        <time>2016-01-23T15:57:15Z</time>
      </trkpt>
      <trkpt lat="43.45576" lon="5.48517">
        <ele>233</ele>
        <time>2016-01-23T15:57:16Z</time>
      </trkpt>
      <trkpt lat="43.45573" lon="5.48521">
        <ele>233</ele>
        <time>2016-01-23T15:57:17Z</time>
      </trkpt>
      <trkpt lat="43.4557" lon="5.48526">
        <ele>233</ele>
        <time>2016-01-23T15:57:18Z</time>
      </trkpt>
      <trkpt lat="43.45566" lon="5.48533">
        <ele>233.2</ele>
        <time>2016-01-23T15:57:19Z</time>
      </trkpt>
      <trkpt lat="43.45562" lon="5.48541">
        <ele>233.6</ele>
        <time>2016-01-23T15:57:20Z</time>
      </trkpt>
      <trkpt lat="43.45557" lon="5.48552">
        <ele>233.9</ele>
        <time>2016-01-23T15:57:21Z</time>
      </trkpt>
      <trkpt lat="43.45552" lon="5.48563">
        <ele>234.3</ele>
        <time>2016-01-23T15:57:22Z</time>
      </trkpt>
      <trkpt lat="43.45547" lon="5.48576">
        <ele>235</ele>
        <time>2016-01-23T15:57:23Z</time>
      </trkpt>
      <trkpt lat="43.45541" lon="5.48589">
        <ele>235.6</ele>
        <time>2016-01-23T15:57:24Z</time>
      </trkpt>
      <trkpt lat="43.45536" lon="5.48602">
        <ele>235.9</ele>
        <time>2016-01-23T15:57:25Z</time>
      </trkpt>
      <trkpt lat="43.45532" lon="5.48616">
        <ele>236.2</ele>
        <time>2016-01-23T15:57:26Z</time>
      </trkpt>
      <trkpt lat="43.45528" lon="5.4863">
        <ele>236.7</ele>
        <time>2016-01-23T15:57:27Z</time>
      </trkpt>
      <trkpt lat="43.45525" lon="5.48645">
        <ele>237.4</ele>
        <time>2016-01-23T15:57:28Z</time>
      </trkpt>
      <trkpt lat="43.45523" lon="5.48659">
        <ele>238</ele>
        <time>2016-01-23T15:57:29Z</time>
      </trkpt>
      <trkpt lat="43.45521" lon="5.48673">
        <ele>238.7</ele>
        <time>2016-01-23T15:57:30Z</time>
      </trkpt>
      <trkpt lat="43.45519" lon="5.48686">
        <ele>239.3</ele>
        <time>2016-01-23T15:57:31Z</time>
      </trkpt>
      <trkpt lat="43.45517" lon="5.48699">
        <ele>240</ele>
        <time>2016-01-23T15:57:32Z</time>
      </trkpt>
      <trkpt lat="43.45516" lon="5.48711">
        <ele>240.8</ele>
        <time>2016-01-23T15:57:33Z</time>
      </trkpt>
      <trkpt lat="43.45514" lon="5.4872">
        <ele>241.4</ele>
        <time>2016-01-23T15:57:34Z</time>
      </trkpt>
      <trkpt lat="43.45513" lon="5.48729">
        <ele>241.6</ele>
        <time>2016-01-23T15:57:35Z</time>
      </trkpt>
      <trkpt lat="43.45512" lon="5.48735">
        <ele>241.8</ele>
        <time>2016-01-23T15:57:36Z</time>
      </trkpt>
      <trkpt lat="43.45511" lon="5.48739">
        <ele>241.8</ele>
        <time>2016-01-23T15:57:37Z</time>
      </trkpt>
      <trkpt lat="43.4551" lon="5.48742">
        <ele>241.9</ele>
        <time>2016-01-23T15:57:38Z</time>
      </trkpt>
      <trkpt lat="43.4551" lon="5.48744">
        <ele>241.9</ele>
        <time>2016-01-23T15:57:39Z</time>
      </trkpt>
      <trkpt lat="43.45509" lon="5.48745">
        <ele>241.9</ele>
        <time>2016-01-23T15:57:40Z</time>
      </trkpt>
      <trkpt lat="43.45509" lon="5.48746">
        <ele>242</ele>
        <time>2016-01-23T15:57:41Z</time>
      </trkpt>
      <trkpt lat="43.45508" lon="5.48746">
        <ele>242</ele>
        <time>2016-01-23T15:57:42Z</time>
      </trkpt>
      <trkpt lat="43.45508" lon="5.48746">
        <ele>242</ele>
        <time>2016-01-23T15:57:43Z</time>
      </trkpt>
      <trkpt lat="43.45508" lon="5.48746">
        <ele>242</ele>
        <time>2016-01-23T15:57:44Z</time>
      </trkpt>
      <trkpt lat="43.45508" lon="5.48746">
        <ele>242</ele>
        <time>2016-01-23T15:57:45Z</time>
      </trkpt>
      <trkpt lat="43.45508" lon="5.48747">
        <ele>242</ele>
        <time>2016-01-23T15:57:46Z</time>
      </trkpt>
      <trkpt lat="43.45509" lon="5.48747">
        <ele>242</ele>
        <time>2016-01-23T15:57:47Z</time>
      </trkpt>
      <trkpt lat="43.45509" lon="5.48747">
        <ele>242</ele>
        <time>2016-01-23T15:57:48Z</time>
      </trkpt>
      <trkpt lat="43.45509" lon="5.48747">
        <ele>242</ele>
        <time>2016-01-23T15:57:49Z</time>
      </trkpt>
      <trkpt lat="43.45508" lon="5.48747">
        <ele>242</ele>
        <time>2016-01-23T15:57:50Z</time>
      </trkpt>
      <trkpt lat="43.45508" lon="5.48748">
        <ele>242</ele>
        <time>2016-01-23T15:57:51Z</time>
      </trkpt>
      <trkpt lat="43.45507" lon="5.48751">
        <ele>242.1</ele>
        <time>2016-01-23T15:57:52Z</time>
      </trkpt>
      <trkpt lat="43.45504" lon="5.48757">
        <ele>242.4</ele>
        <time>2016-01-23T15:57:53Z</time>
      </trkpt>
      <trkpt lat="43.45501" lon="5.48762">
        <ele>242.8</ele>
        <time>2016-01-23T15:57:54Z</time>
      </trkpt>
      <trkpt lat="43.45497" lon="5.48764">
        <ele>243.2</ele>
        <time>2016-01-23T15:57:55Z</time>
      </trkpt>
      <trkpt lat="43.45494" lon="5.48764">
        <ele>243.4</ele>
        <time>2016-01-23T15:57:56Z</time>
      </trkpt>
      <trkpt lat="43.45492" lon="5.48762">
        <ele>243.3</ele>
        <time>2016-01-23T15:57:57Z</time>
      </trkpt>
      <trkpt lat="43.45491" lon="5.48759">
        <ele>243.2</ele>
        <time>2016-01-23T15:57:58Z</time>
      </trkpt>
      <trkpt lat="43.4549" lon="5.48755">
        <ele>243</ele>
        <time>2016-01-23T15:57:59Z</time>
      </trkpt>
      <trkpt lat="43.45492" lon="5.48751">
        <ele>242.7</ele>
        <time>2016-01-23T15:58:00Z</time>
      </trkpt>
      <trkpt lat="43.45495" lon="5.48745">
        <ele>242.3</ele>
        <time>2016-01-23T15:58:01Z</time>
      </trkpt>
      <trkpt lat="43.45498" lon="5.48739">
        <ele>242.1</ele>
        <time>2016-01-23T15:58:02Z</time>
      </trkpt>
      <trkpt lat="43.455" lon="5.48733">
        <ele>242</ele>
        <time>2016-01-23T15:58:03Z</time>
      </trkpt>
      <trkpt lat="43.45501" lon="5.48726">
        <ele>242</ele>
        <time>2016-01-23T15:58:04Z</time>
      </trkpt>
      <trkpt lat="43.45502" lon="5.48719">
        <ele>241.8</ele>
        <time>2016-01-23T15:58:05Z</time>
      </trkpt>
      <trkpt lat="43.45502" lon="5.48713">
        <ele>241.6</ele>
        <time>2016-01-23T15:58:06Z</time>
      </trkpt>
      <trkpt lat="43.45502" lon="5.48708">
        <ele>241.4</ele>
        <time>2016-01-23T15:58:07Z</time>
      </trkpt>
      <trkpt lat="43.455" lon="5.48705">
        <ele>241.4</ele>
        <time>2016-01-23T15:58:08Z</time>
      </trkpt>
      <trkpt lat="43.45498" lon="5.48702">
        <ele>241.3</ele>
        <time>2016-01-23T15:58:09Z</time>
      </trkpt>
      <trkpt lat="43.45496" lon="5.48699">
        <ele>241.2</ele>
        <time>2016-01-23T15:58:10Z</time>
      </trkpt>
      <trkpt lat="43.45494" lon="5.48697">
        <ele>241.1</ele>
        <time>2016-01-23T15:58:11Z</time>
      </trkpt>
      <trkpt lat="43.45492" lon="5.48695">
        <ele>241</ele>
        <time>2016-01-23T15:58:12Z</time>
      </trkpt>
      <trkpt lat="43.45489" lon="5.48692">
        <ele>240.9</ele>
        <time>2016-01-23T15:58:13Z</time>
      </trkpt>
      <trkpt lat="43.45487" lon="5.48689">
        <ele>240.9</ele>
        <time>2016-01-23T15:58:14Z</time>
      </trkpt>
      <trkpt lat="43.45485" lon="5.48686">
        <ele>240.9</ele>
        <time>2016-01-23T15:58:15Z</time>
      </trkpt>
      <trkpt lat="43.45482" lon="5.48683">
        <ele>240.9</ele>
        <time>2016-01-23T15:58:16Z</time>
      </trkpt>
      <trkpt lat="43.4548" lon="5.4868">
        <ele>240.9</ele>
        <time>2016-01-23T15:58:17Z</time>
      </trkpt>
      <trkpt lat="43.45478" lon="5.48678">
        <ele>240.9</ele>
        <time>2016-01-23T15:58:18Z</time>
      </trkpt>
      <trkpt lat="43.45475" lon="5.48675">
        <ele>240.9</ele>
        <time>2016-01-23T15:58:19Z</time>
      </trkpt>
      <trkpt lat="43.45473" lon="5.48672">
        <ele>241</ele>
        <time>2016-01-23T15:58:20Z</time>
      </trkpt>
      <trkpt lat="43.45471" lon="5.4867">
        <ele>240.9</ele>
        <time>2016-01-23T15:58:21Z</time>
      </trkpt>
      <trkpt lat="43.45468" lon="5.48667">
        <ele>240.7</ele>
        <time>2016-01-23T15:58:22Z</time>
      </trkpt>
      <trkpt lat="43.45466" lon="5.48664">
        <ele>240.4</ele>
        <time>2016-01-23T15:58:23Z</time>
      </trkpt>
      <trkpt lat="43.45463" lon="5.48662">
        <ele>240.1</ele>
        <time>2016-01-23T15:58:24Z</time>
      </trkpt>
      <trkpt lat="43.45461" lon="5.48659">
        <ele>239.8</ele>
        <time>2016-01-23T15:58:25Z</time>
      </trkpt>
    </trkseg>
  </trk>
</gpx>